﻿<?xml version="1.0" encoding="UTF-8"?>
<gpx xmlns="http://www.topografix.com/GPX/1/1" creator="HOLUX ezTour Plus" version="1.1">
<metadata>
<link href="http://www.holux.com"><text>HOLUX Technology, Inc.</text></link>
<time>2012-08-01T18:52:06Z</time></metadata>
<trk>
<name><![CDATA[raw8]]></name>
<trkseg>
<trkpt lat="63.897850037" lon="-18.690687180">
<ele>444.953125</ele>
<time>2012-07-25T12:03:52Z</time>
<speed>0.390000</speed>
<extensions>
<speed>0.4</speed>
<temp>0.00</temp>
<bpm>0</bpm>
<rpm>0.00</rpm>
</extensions>
</trkpt>
<trkpt lat="63.897842407" lon="-18.690647125">
<ele>447.398438</ele>
<time>2012-07-25T12:03:57Z</time>
<speed>0.920000</speed>
<extensions>
<speed>0.9</speed>
<temp>0.00</temp>
<bpm>0</bpm>
<rpm>0.00</rpm>
</extensions>
</trkpt>
<trkpt lat="63.897834778" lon="-18.690551758">
<ele>446.023438</ele>
<time>2012-07-25T12:04:02Z</time>
<speed>0.670000</speed>
<extensions>
<speed>0.7</speed>
<temp>0.00</temp>
<bpm>0</bpm>
<rpm>0.00</rpm>
</extensions>
</trkpt>
<trkpt lat="63.897808075" lon="-18.690471649">
<ele>444.593750</ele>
<time>2012-07-25T12:04:07Z</time>
<speed>1.380000</speed>
<extensions>
<speed>1.4</speed>
<temp>0.00</temp>
<bpm>0</bpm>
<rpm>0.00</rpm>
</extensions>
</trkpt>
<trkpt lat="63.897762299" lon="-18.690507889">
<ele>442.898438</ele>
<time>2012-07-25T12:04:12Z</time>
<speed>1.430000</speed>
<extensions>
<speed>1.4</speed>
<temp>0.00</temp>
<bpm>0</bpm>
<rpm>0.00</rpm>
</extensions>
</trkpt>
<trkpt lat="63.897708893" lon="-18.690612793">
<ele>441.500000</ele>
<time>2012-07-25T12:04:17Z</time>
<speed>1.220000</speed>
<extensions>
<speed>1.2</speed>
<temp>0.00</temp>
<bpm>0</bpm>
<rpm>0.00</rpm>
</extensions>
</trkpt>
<trkpt lat="63.897659302" lon="-18.690755844">
<ele>440.140625</ele>
<time>2012-07-25T12:04:22Z</time>
<speed>1.900000</speed>
<extensions>
<speed>1.9</speed>
<temp>0.00</temp>
<bpm>0</bpm>
<rpm>0.00</rpm>
</extensions>
</trkpt>
<trkpt lat="63.897594452" lon="-18.690780640">
<ele>440.460938</ele>
<time>2012-07-25T12:04:27Z</time>
<speed>0.330000</speed>
<extensions>
<speed>0.3</speed>
<temp>0.00</temp>
<bpm>0</bpm>
<rpm>0.00</rpm>
</extensions>
</trkpt>
<trkpt lat="63.897598267" lon="-18.690776825">
<ele>441.585938</ele>
<time>2012-07-25T12:04:32Z</time>
<speed>0.060000</speed>
<extensions>
<speed>0.1</speed>
<temp>0.00</temp>
<bpm>0</bpm>
<rpm>0.00</rpm>
</extensions>
</trkpt>
<trkpt lat="63.897594452" lon="-18.690778732">
<ele>441.500000</ele>
<time>2012-07-25T12:04:37Z</time>
<speed>0.130000</speed>
<extensions>
<speed>0.1</speed>
<temp>0.00</temp>
<bpm>0</bpm>
<rpm>0.00</rpm>
</extensions>
</trkpt>
<trkpt lat="63.897598267" lon="-18.690778732">
<ele>441.476563</ele>
<time>2012-07-25T12:04:42Z</time>
<extensions>
<speed>0.0</speed>
<temp>0.00</temp>
<bpm>0</bpm>
<rpm>0.00</rpm>
</extensions>
</trkpt>
<trkpt lat="63.897602081" lon="-18.690774918">
<ele>441.468750</ele>
<time>2012-07-25T12:04:47Z</time>
<speed>0.700000</speed>
<extensions>
<speed>0.7</speed>
<temp>0.00</temp>
<bpm>0</bpm>
<rpm>0.00</rpm>
</extensions>
</trkpt>
<trkpt lat="63.897682190" lon="-18.690717697">
<ele>443.734375</ele>
<time>2012-07-25T12:04:52Z</time>
<speed>1.740000</speed>
<extensions>
<speed>1.7</speed>
<temp>0.00</temp>
<bpm>0</bpm>
<rpm>0.00</rpm>
</extensions>
</trkpt>
<trkpt lat="63.897739410" lon="-18.690763474">
<ele>442.625000</ele>
<time>2012-07-25T12:04:57Z</time>
<speed>1.140000</speed>
<extensions>
<speed>1.1</speed>
<temp>0.00</temp>
<bpm>0</bpm>
<rpm>0.00</rpm>
</extensions>
</trkpt>
<trkpt lat="63.897796631" lon="-18.690742493">
<ele>442.875000</ele>
<time>2012-07-25T12:05:02Z</time>
<speed>0.240000</speed>
<extensions>
<speed>0.2</speed>
<temp>0.00</temp>
<bpm>0</bpm>
<rpm>0.00</rpm>
</extensions>
</trkpt>
<trkpt lat="63.897796631" lon="-18.690738678">
<ele>443.445313</ele>
<time>2012-07-25T12:05:07Z</time>
<speed>0.010000</speed>
<extensions>
<speed>0.0</speed>
<temp>0.00</temp>
<bpm>0</bpm>
<rpm>0.00</rpm>
</extensions>
</trkpt>
<trkpt lat="63.897796631" lon="-18.690738678">
<ele>443.406250</ele>
<time>2012-07-25T12:05:12Z</time>
<speed>0.010000</speed>
<extensions>
<speed>0.0</speed>
<temp>0.00</temp>
<bpm>0</bpm>
<rpm>0.00</rpm>
</extensions>
</trkpt>
<trkpt lat="63.897796631" lon="-18.690738678">
<ele>443.406250</ele>
<time>2012-07-25T12:05:17Z</time>
<speed>0.010000</speed>
<extensions>
<speed>0.0</speed>
<temp>0.00</temp>
<bpm>0</bpm>
<rpm>0.00</rpm>
</extensions>
</trkpt>
<trkpt lat="63.897796631" lon="-18.690738678">
<ele>443.406250</ele>
<time>2012-07-25T12:05:22Z</time>
<extensions>
<speed>0.0</speed>
<temp>0.00</temp>
<bpm>0</bpm>
<rpm>0.00</rpm>
</extensions>
</trkpt>
<trkpt lat="63.897796631" lon="-18.690736771">
<ele>443.398438</ele>
<time>2012-07-25T12:05:27Z</time>
<extensions>
<speed>0.0</speed>
<temp>0.00</temp>
<bpm>0</bpm>
<rpm>0.00</rpm>
</extensions>
</trkpt>
<trkpt lat="63.897800446" lon="-18.690736771">
<ele>443.398438</ele>
<time>2012-07-25T12:05:32Z</time>
<extensions>
<speed>0.0</speed>
<temp>0.00</temp>
<bpm>0</bpm>
<rpm>0.00</rpm>
</extensions>
</trkpt>
<trkpt lat="63.897800446" lon="-18.690736771">
<ele>443.398438</ele>
<time>2012-07-25T12:05:37Z</time>
<extensions>
<speed>0.0</speed>
<temp>0.00</temp>
<bpm>0</bpm>
<rpm>0.00</rpm>
</extensions>
</trkpt>
<trkpt lat="63.897800446" lon="-18.690736771">
<ele>443.406250</ele>
<time>2012-07-25T12:05:42Z</time>
<speed>0.010000</speed>
<extensions>
<speed>0.0</speed>
<temp>0.00</temp>
<bpm>0</bpm>
<rpm>0.00</rpm>
</extensions>
</trkpt>
<trkpt lat="63.897800446" lon="-18.690736771">
<ele>443.406250</ele>
<time>2012-07-25T12:05:47Z</time>
<extensions>
<speed>0.0</speed>
<temp>0.00</temp>
<bpm>0</bpm>
<rpm>0.00</rpm>
</extensions>
</trkpt>
<trkpt lat="63.897815704" lon="-18.690734863">
<ele>443.781250</ele>
<time>2012-07-25T12:05:52Z</time>
<speed>0.440000</speed>
<extensions>
<speed>0.4</speed>
<temp>0.00</temp>
<bpm>0</bpm>
<rpm>0.00</rpm>
</extensions>
</trkpt>
<trkpt lat="63.897842407" lon="-18.690738678">
<ele>443.484375</ele>
<time>2012-07-25T12:05:57Z</time>
<speed>0.300000</speed>
<extensions>
<speed>0.3</speed>
<temp>0.00</temp>
<bpm>0</bpm>
<rpm>0.00</rpm>
</extensions>
</trkpt>
<trkpt lat="63.897842407" lon="-18.690740585">
<ele>443.781250</ele>
<time>2012-07-25T12:06:02Z</time>
<speed>0.240000</speed>
<extensions>
<speed>0.2</speed>
<temp>0.00</temp>
<bpm>0</bpm>
<rpm>0.00</rpm>
</extensions>
</trkpt>
<trkpt lat="63.897808075" lon="-18.690799713">
<ele>442.695313</ele>
<time>2012-07-25T12:06:07Z</time>
<speed>1.340000</speed>
<extensions>
<speed>1.3</speed>
<temp>0.00</temp>
<bpm>0</bpm>
<rpm>0.00</rpm>
</extensions>
</trkpt>
<trkpt lat="63.897777557" lon="-18.690885544">
<ele>442.062500</ele>
<time>2012-07-25T12:06:12Z</time>
<speed>0.580000</speed>
<extensions>
<speed>0.6</speed>
<temp>0.00</temp>
<bpm>0</bpm>
<rpm>0.00</rpm>
</extensions>
</trkpt>
<trkpt lat="63.897785187" lon="-18.690954208">
<ele>442.062500</ele>
<time>2012-07-25T12:06:17Z</time>
<speed>0.800000</speed>
<extensions>
<speed>0.8</speed>
<temp>0.00</temp>
<bpm>0</bpm>
<rpm>0.00</rpm>
</extensions>
</trkpt>
<trkpt lat="63.897789001" lon="-18.690986633">
<ele>443.195313</ele>
<time>2012-07-25T12:06:22Z</time>
<speed>0.950000</speed>
<extensions>
<speed>1.0</speed>
<temp>0.00</temp>
<bpm>0</bpm>
<rpm>0.00</rpm>
</extensions>
</trkpt>
<trkpt lat="63.897785187" lon="-18.691106796">
<ele>442.945313</ele>
<time>2012-07-25T12:06:27Z</time>
<speed>0.740000</speed>
<extensions>
<speed>0.7</speed>
<temp>0.00</temp>
<bpm>0</bpm>
<rpm>0.00</rpm>
</extensions>
</trkpt>
<trkpt lat="63.897777557" lon="-18.691246033">
<ele>442.992188</ele>
<time>2012-07-25T12:06:32Z</time>
<speed>0.960000</speed>
<extensions>
<speed>1.0</speed>
<temp>0.00</temp>
<bpm>0</bpm>
<rpm>0.00</rpm>
</extensions>
</trkpt>
<trkpt lat="63.897785187" lon="-18.691345215">
<ele>444.218750</ele>
<time>2012-07-25T12:06:37Z</time>
<speed>0.990000</speed>
<extensions>
<speed>1.0</speed>
<temp>0.00</temp>
<bpm>0</bpm>
<rpm>0.00</rpm>
</extensions>
</trkpt>
<trkpt lat="63.897804260" lon="-18.691417694">
<ele>444.718750</ele>
<time>2012-07-25T12:06:42Z</time>
<speed>0.910000</speed>
<extensions>
<speed>0.9</speed>
<temp>0.00</temp>
<bpm>0</bpm>
<rpm>0.00</rpm>
</extensions>
</trkpt>
<trkpt lat="63.897773743" lon="-18.691503525">
<ele>447.015625</ele>
<time>2012-07-25T12:06:47Z</time>
<speed>1.630000</speed>
<extensions>
<speed>1.6</speed>
<temp>0.00</temp>
<bpm>0</bpm>
<rpm>0.00</rpm>
</extensions>
</trkpt>
<trkpt lat="63.897747040" lon="-18.691553116">
<ele>449.085938</ele>
<time>2012-07-25T12:06:52Z</time>
<speed>0.720000</speed>
<extensions>
<speed>0.7</speed>
<temp>0.00</temp>
<bpm>0</bpm>
<rpm>0.00</rpm>
</extensions>
</trkpt>
<trkpt lat="63.897712708" lon="-18.691617966">
<ele>449.523438</ele>
<time>2012-07-25T12:06:57Z</time>
<speed>0.810000</speed>
<extensions>
<speed>0.8</speed>
<temp>0.00</temp>
<bpm>0</bpm>
<rpm>0.00</rpm>
</extensions>
</trkpt>
<trkpt lat="63.897666931" lon="-18.691703796">
<ele>450.054688</ele>
<time>2012-07-25T12:07:02Z</time>
<speed>1.040000</speed>
<extensions>
<speed>1.0</speed>
<temp>0.00</temp>
<bpm>0</bpm>
<rpm>0.00</rpm>
</extensions>
</trkpt>
<trkpt lat="63.897655487" lon="-18.691823959">
<ele>450.101563</ele>
<time>2012-07-25T12:07:07Z</time>
<speed>0.730000</speed>
<extensions>
<speed>0.7</speed>
<temp>0.00</temp>
<bpm>0</bpm>
<rpm>0.00</rpm>
</extensions>
</trkpt>
<trkpt lat="63.897670746" lon="-18.691923141">
<ele>450.664063</ele>
<time>2012-07-25T12:07:12Z</time>
<speed>0.700000</speed>
<extensions>
<speed>0.7</speed>
<temp>0.00</temp>
<bpm>0</bpm>
<rpm>0.00</rpm>
</extensions>
</trkpt>
<trkpt lat="63.897682190" lon="-18.692016602">
<ele>453.554688</ele>
<time>2012-07-25T12:07:17Z</time>
<speed>0.700000</speed>
<extensions>
<speed>0.7</speed>
<temp>0.00</temp>
<bpm>0</bpm>
<rpm>0.00</rpm>
</extensions>
</trkpt>
<trkpt lat="63.897689819" lon="-18.692087173">
<ele>454.312500</ele>
<time>2012-07-25T12:07:22Z</time>
<speed>0.420000</speed>
<extensions>
<speed>0.4</speed>
<temp>0.00</temp>
<bpm>0</bpm>
<rpm>0.00</rpm>
</extensions>
</trkpt>
<trkpt lat="63.897682190" lon="-18.692153931">
<ele>454.242188</ele>
<time>2012-07-25T12:07:27Z</time>
<speed>0.210000</speed>
<extensions>
<speed>0.2</speed>
<temp>0.00</temp>
<bpm>0</bpm>
<rpm>0.00</rpm>
</extensions>
</trkpt>
<trkpt lat="63.897678375" lon="-18.692163467">
<ele>453.687500</ele>
<time>2012-07-25T12:07:32Z</time>
<speed>0.030000</speed>
<extensions>
<speed>0.0</speed>
<temp>0.00</temp>
<bpm>0</bpm>
<rpm>0.00</rpm>
</extensions>
</trkpt>
<trkpt lat="63.897678375" lon="-18.692193985">
<ele>453.742188</ele>
<time>2012-07-25T12:07:37Z</time>
<speed>1.510000</speed>
<extensions>
<speed>1.5</speed>
<temp>0.00</temp>
<bpm>0</bpm>
<rpm>0.00</rpm>
</extensions>
</trkpt>
<trkpt lat="63.897663116" lon="-18.692331314">
<ele>453.640625</ele>
<time>2012-07-25T12:07:42Z</time>
<speed>1.970000</speed>
<extensions>
<speed>2.0</speed>
<temp>0.00</temp>
<bpm>0</bpm>
<rpm>0.00</rpm>
</extensions>
</trkpt>
<trkpt lat="63.897682190" lon="-18.692438126">
<ele>454.992188</ele>
<time>2012-07-25T12:07:47Z</time>
<speed>1.000000</speed>
<extensions>
<speed>1.0</speed>
<temp>0.00</temp>
<bpm>0</bpm>
<rpm>0.00</rpm>
</extensions>
</trkpt>
<trkpt lat="63.897716522" lon="-18.692522049">
<ele>454.843750</ele>
<time>2012-07-25T12:07:52Z</time>
<speed>0.790000</speed>
<extensions>
<speed>0.8</speed>
<temp>0.00</temp>
<bpm>0</bpm>
<rpm>0.00</rpm>
</extensions>
</trkpt>
<trkpt lat="63.897727966" lon="-18.692623138">
<ele>455.492188</ele>
<time>2012-07-25T12:07:57Z</time>
<speed>0.610000</speed>
<extensions>
<speed>0.6</speed>
<temp>0.00</temp>
<bpm>0</bpm>
<rpm>0.00</rpm>
</extensions>
</trkpt>
<trkpt lat="63.897735596" lon="-18.692689896">
<ele>456.031250</ele>
<time>2012-07-25T12:08:02Z</time>
<speed>0.630000</speed>
<extensions>
<speed>0.6</speed>
<temp>0.00</temp>
<bpm>0</bpm>
<rpm>0.00</rpm>
</extensions>
</trkpt>
<trkpt lat="63.897758484" lon="-18.692726135">
<ele>454.234375</ele>
<time>2012-07-25T12:08:07Z</time>
<speed>0.500000</speed>
<extensions>
<speed>0.5</speed>
<temp>0.00</temp>
<bpm>0</bpm>
<rpm>0.00</rpm>
</extensions>
</trkpt>
<trkpt lat="63.897754669" lon="-18.692720413">
<ele>454.296875</ele>
<time>2012-07-25T12:08:12Z</time>
<speed>0.080000</speed>
<extensions>
<speed>0.1</speed>
<temp>0.00</temp>
<bpm>0</bpm>
<rpm>0.00</rpm>
</extensions>
</trkpt>
<trkpt lat="63.897762299" lon="-18.692781448">
<ele>455.023438</ele>
<time>2012-07-25T12:08:17Z</time>
<speed>0.700000</speed>
<extensions>
<speed>0.7</speed>
<temp>0.00</temp>
<bpm>0</bpm>
<rpm>0.00</rpm>
</extensions>
</trkpt>
<trkpt lat="63.897769928" lon="-18.692873001">
<ele>454.828125</ele>
<time>2012-07-25T12:08:22Z</time>
<speed>1.440000</speed>
<extensions>
<speed>1.4</speed>
<temp>0.00</temp>
<bpm>0</bpm>
<rpm>0.00</rpm>
</extensions>
</trkpt>
<trkpt lat="63.897769928" lon="-18.692989349">
<ele>455.640625</ele>
<time>2012-07-25T12:08:27Z</time>
<speed>1.360000</speed>
<extensions>
<speed>1.4</speed>
<temp>0.00</temp>
<bpm>0</bpm>
<rpm>0.00</rpm>
</extensions>
</trkpt>
<trkpt lat="63.897789001" lon="-18.693071365">
<ele>456.531250</ele>
<time>2012-07-25T12:08:32Z</time>
<speed>0.670000</speed>
<extensions>
<speed>0.7</speed>
<temp>0.00</temp>
<bpm>0</bpm>
<rpm>0.00</rpm>
</extensions>
</trkpt>
<trkpt lat="63.897808075" lon="-18.693115234">
<ele>458.578125</ele>
<time>2012-07-25T12:08:37Z</time>
<speed>0.530000</speed>
<extensions>
<speed>0.5</speed>
<temp>0.00</temp>
<bpm>0</bpm>
<rpm>0.00</rpm>
</extensions>
</trkpt>
<trkpt lat="63.897808075" lon="-18.693132401">
<ele>458.609375</ele>
<time>2012-07-25T12:08:42Z</time>
<speed>0.480000</speed>
<extensions>
<speed>0.5</speed>
<temp>0.00</temp>
<bpm>0</bpm>
<rpm>0.00</rpm>
</extensions>
</trkpt>
<trkpt lat="63.897808075" lon="-18.693180084">
<ele>458.148438</ele>
<time>2012-07-25T12:08:47Z</time>
<speed>0.210000</speed>
<extensions>
<speed>0.2</speed>
<temp>0.00</temp>
<bpm>0</bpm>
<rpm>0.00</rpm>
</extensions>
</trkpt>
<trkpt lat="63.897808075" lon="-18.693214417">
<ele>458.523438</ele>
<time>2012-07-25T12:08:52Z</time>
<speed>0.490000</speed>
<extensions>
<speed>0.5</speed>
<temp>0.00</temp>
<bpm>0</bpm>
<rpm>0.00</rpm>
</extensions>
</trkpt>
<trkpt lat="63.897804260" lon="-18.693254471">
<ele>458.437500</ele>
<time>2012-07-25T12:08:57Z</time>
<speed>0.110000</speed>
<extensions>
<speed>0.1</speed>
<temp>0.00</temp>
<bpm>0</bpm>
<rpm>0.00</rpm>
</extensions>
</trkpt>
<trkpt lat="63.897808075" lon="-18.693269730">
<ele>458.625000</ele>
<time>2012-07-25T12:09:02Z</time>
<speed>0.130000</speed>
<extensions>
<speed>0.1</speed>
<temp>0.00</temp>
<bpm>0</bpm>
<rpm>0.00</rpm>
</extensions>
</trkpt>
<trkpt lat="63.897804260" lon="-18.693273544">
<ele>458.656250</ele>
<time>2012-07-25T12:09:07Z</time>
<speed>0.310000</speed>
<extensions>
<speed>0.3</speed>
<temp>0.00</temp>
<bpm>0</bpm>
<rpm>0.00</rpm>
</extensions>
</trkpt>
<trkpt lat="63.897789001" lon="-18.693326950">
<ele>458.031250</ele>
<time>2012-07-25T12:09:12Z</time>
<speed>0.230000</speed>
<extensions>
<speed>0.2</speed>
<temp>0.00</temp>
<bpm>0</bpm>
<rpm>0.00</rpm>
</extensions>
</trkpt>
<trkpt lat="63.897792816" lon="-18.693372726">
<ele>458.468750</ele>
<time>2012-07-25T12:09:17Z</time>
<speed>0.510000</speed>
<extensions>
<speed>0.5</speed>
<temp>0.00</temp>
<bpm>0</bpm>
<rpm>0.00</rpm>
</extensions>
</trkpt>
<trkpt lat="63.897777557" lon="-18.693424225">
<ele>459.406250</ele>
<time>2012-07-25T12:09:22Z</time>
<speed>0.230000</speed>
<extensions>
<speed>0.2</speed>
<temp>0.00</temp>
<bpm>0</bpm>
<rpm>0.00</rpm>
</extensions>
</trkpt>
<trkpt lat="63.897754669" lon="-18.693466187">
<ele>459.320313</ele>
<time>2012-07-25T12:09:27Z</time>
<speed>0.650000</speed>
<extensions>
<speed>0.6</speed>
<temp>0.00</temp>
<bpm>0</bpm>
<rpm>0.00</rpm>
</extensions>
</trkpt>
<trkpt lat="63.897731781" lon="-18.693521500">
<ele>459.265625</ele>
<time>2012-07-25T12:09:32Z</time>
<speed>0.870000</speed>
<extensions>
<speed>0.9</speed>
<temp>0.00</temp>
<bpm>0</bpm>
<rpm>0.00</rpm>
</extensions>
</trkpt>
<trkpt lat="63.897724152" lon="-18.693544388">
<ele>461.078125</ele>
<time>2012-07-25T12:09:37Z</time>
<speed>0.500000</speed>
<extensions>
<speed>0.5</speed>
<temp>0.00</temp>
<bpm>0</bpm>
<rpm>0.00</rpm>
</extensions>
</trkpt>
<trkpt lat="63.897720337" lon="-18.693592072">
<ele>461.054688</ele>
<time>2012-07-25T12:09:42Z</time>
<speed>0.930000</speed>
<extensions>
<speed>0.9</speed>
<temp>0.00</temp>
<bpm>0</bpm>
<rpm>0.00</rpm>
</extensions>
</trkpt>
<trkpt lat="63.897708893" lon="-18.693649292">
<ele>460.718750</ele>
<time>2012-07-25T12:09:47Z</time>
<speed>0.270000</speed>
<extensions>
<speed>0.3</speed>
<temp>0.00</temp>
<bpm>0</bpm>
<rpm>0.00</rpm>
</extensions>
</trkpt>
<trkpt lat="63.897705078" lon="-18.693664551">
<ele>459.812500</ele>
<time>2012-07-25T12:09:52Z</time>
<speed>0.510000</speed>
<extensions>
<speed>0.5</speed>
<temp>0.00</temp>
<bpm>0</bpm>
<rpm>0.00</rpm>
</extensions>
</trkpt>
<trkpt lat="63.897720337" lon="-18.693670273">
<ele>460.031250</ele>
<time>2012-07-25T12:09:57Z</time>
<speed>0.060000</speed>
<extensions>
<speed>0.1</speed>
<temp>0.00</temp>
<bpm>0</bpm>
<rpm>0.00</rpm>
</extensions>
</trkpt>
<trkpt lat="63.897727966" lon="-18.693714142">
<ele>461.125000</ele>
<time>2012-07-25T12:10:02Z</time>
<speed>0.490000</speed>
<extensions>
<speed>0.5</speed>
<temp>0.00</temp>
<bpm>0</bpm>
<rpm>0.00</rpm>
</extensions>
</trkpt>
<trkpt lat="63.897724152" lon="-18.693740845">
<ele>461.195313</ele>
<time>2012-07-25T12:10:07Z</time>
<speed>0.580000</speed>
<extensions>
<speed>0.6</speed>
<temp>0.00</temp>
<bpm>0</bpm>
<rpm>0.00</rpm>
</extensions>
</trkpt>
<trkpt lat="63.897724152" lon="-18.693740845">
<ele>462.429688</ele>
<time>2012-07-25T12:10:12Z</time>
<speed>0.100000</speed>
<extensions>
<speed>0.1</speed>
<temp>0.00</temp>
<bpm>0</bpm>
<rpm>0.00</rpm>
</extensions>
</trkpt>
<trkpt lat="63.897731781" lon="-18.693769455">
<ele>464.187500</ele>
<time>2012-07-25T12:10:17Z</time>
<speed>0.460000</speed>
<extensions>
<speed>0.5</speed>
<temp>0.00</temp>
<bpm>0</bpm>
<rpm>0.00</rpm>
</extensions>
</trkpt>
<trkpt lat="63.897735596" lon="-18.693801880">
<ele>467.101563</ele>
<time>2012-07-25T12:10:22Z</time>
<speed>0.670000</speed>
<extensions>
<speed>0.7</speed>
<temp>0.00</temp>
<bpm>0</bpm>
<rpm>0.00</rpm>
</extensions>
</trkpt>
<trkpt lat="63.897739410" lon="-18.693847656">
<ele>470.203125</ele>
<time>2012-07-25T12:10:27Z</time>
<speed>0.270000</speed>
<extensions>
<speed>0.3</speed>
<temp>0.00</temp>
<bpm>0</bpm>
<rpm>0.00</rpm>
</extensions>
</trkpt>
<trkpt lat="63.897739410" lon="-18.693889618">
<ele>470.453125</ele>
<time>2012-07-25T12:10:32Z</time>
<speed>0.840000</speed>
<extensions>
<speed>0.8</speed>
<temp>0.00</temp>
<bpm>0</bpm>
<rpm>0.00</rpm>
</extensions>
</trkpt>
<trkpt lat="63.897750854" lon="-18.693910599">
<ele>471.562500</ele>
<time>2012-07-25T12:10:37Z</time>
<speed>0.070000</speed>
<extensions>
<speed>0.1</speed>
<temp>0.00</temp>
<bpm>0</bpm>
<rpm>0.00</rpm>
</extensions>
</trkpt>
<trkpt lat="63.897758484" lon="-18.693908691">
<ele>471.937500</ele>
<time>2012-07-25T12:10:42Z</time>
<speed>0.050000</speed>
<extensions>
<speed>0.1</speed>
<temp>0.00</temp>
<bpm>0</bpm>
<rpm>0.00</rpm>
</extensions>
</trkpt>
<trkpt lat="63.897758484" lon="-18.693906784">
<ele>472.320313</ele>
<time>2012-07-25T12:10:47Z</time>
<speed>0.090000</speed>
<extensions>
<speed>0.1</speed>
<temp>0.00</temp>
<bpm>0</bpm>
<rpm>0.00</rpm>
</extensions>
</trkpt>
<trkpt lat="63.897758484" lon="-18.693899155">
<ele>472.148438</ele>
<time>2012-07-25T12:10:52Z</time>
<speed>0.070000</speed>
<extensions>
<speed>0.1</speed>
<temp>0.00</temp>
<bpm>0</bpm>
<rpm>0.00</rpm>
</extensions>
</trkpt>
<trkpt lat="63.897758484" lon="-18.693964005">
<ele>472.132813</ele>
<time>2012-07-25T12:10:57Z</time>
<speed>0.570000</speed>
<extensions>
<speed>0.6</speed>
<temp>0.00</temp>
<bpm>0</bpm>
<rpm>0.00</rpm>
</extensions>
</trkpt>
<trkpt lat="63.897754669" lon="-18.694034576">
<ele>473.148438</ele>
<time>2012-07-25T12:11:02Z</time>
<speed>0.570000</speed>
<extensions>
<speed>0.6</speed>
<temp>0.00</temp>
<bpm>0</bpm>
<rpm>0.00</rpm>
</extensions>
</trkpt>
<trkpt lat="63.897754669" lon="-18.694095612">
<ele>473.335938</ele>
<time>2012-07-25T12:11:07Z</time>
<speed>0.270000</speed>
<extensions>
<speed>0.3</speed>
<temp>0.00</temp>
<bpm>0</bpm>
<rpm>0.00</rpm>
</extensions>
</trkpt>
<trkpt lat="63.897758484" lon="-18.694141388">
<ele>473.203125</ele>
<time>2012-07-25T12:11:12Z</time>
<speed>0.810000</speed>
<extensions>
<speed>0.8</speed>
<temp>0.00</temp>
<bpm>0</bpm>
<rpm>0.00</rpm>
</extensions>
</trkpt>
<trkpt lat="63.897766113" lon="-18.694143295">
<ele>474.671875</ele>
<time>2012-07-25T12:11:17Z</time>
<speed>0.060000</speed>
<extensions>
<speed>0.1</speed>
<temp>0.00</temp>
<bpm>0</bpm>
<rpm>0.00</rpm>
</extensions>
</trkpt>
<trkpt lat="63.897766113" lon="-18.694164276">
<ele>474.757813</ele>
<time>2012-07-25T12:11:22Z</time>
<speed>0.180000</speed>
<extensions>
<speed>0.2</speed>
<temp>0.00</temp>
<bpm>0</bpm>
<rpm>0.00</rpm>
</extensions>
</trkpt>
<trkpt lat="63.897758484" lon="-18.694231033">
<ele>474.718750</ele>
<time>2012-07-25T12:11:27Z</time>
<speed>0.640000</speed>
<extensions>
<speed>0.6</speed>
<temp>0.00</temp>
<bpm>0</bpm>
<rpm>0.00</rpm>
</extensions>
</trkpt>
<trkpt lat="63.897762299" lon="-18.694295883">
<ele>475.796875</ele>
<time>2012-07-25T12:11:32Z</time>
<speed>0.700000</speed>
<extensions>
<speed>0.7</speed>
<temp>0.00</temp>
<bpm>0</bpm>
<rpm>0.00</rpm>
</extensions>
</trkpt>
<trkpt lat="63.897766113" lon="-18.694368362">
<ele>476.343750</ele>
<time>2012-07-25T12:11:37Z</time>
<speed>0.530000</speed>
<extensions>
<speed>0.5</speed>
<temp>0.00</temp>
<bpm>0</bpm>
<rpm>0.00</rpm>
</extensions>
</trkpt>
<trkpt lat="63.897762299" lon="-18.694442749">
<ele>476.773438</ele>
<time>2012-07-25T12:11:42Z</time>
<speed>0.800000</speed>
<extensions>
<speed>0.8</speed>
<temp>0.00</temp>
<bpm>0</bpm>
<rpm>0.00</rpm>
</extensions>
</trkpt>
<trkpt lat="63.897758484" lon="-18.694503784">
<ele>475.734375</ele>
<time>2012-07-25T12:11:47Z</time>
<speed>0.480000</speed>
<extensions>
<speed>0.5</speed>
<temp>0.00</temp>
<bpm>0</bpm>
<rpm>0.00</rpm>
</extensions>
</trkpt>
<trkpt lat="63.897739410" lon="-18.694574356">
<ele>475.171875</ele>
<time>2012-07-25T12:11:52Z</time>
<speed>0.920000</speed>
<extensions>
<speed>0.9</speed>
<temp>0.00</temp>
<bpm>0</bpm>
<rpm>0.00</rpm>
</extensions>
</trkpt>
<trkpt lat="63.897724152" lon="-18.694662094">
<ele>473.906250</ele>
<time>2012-07-25T12:11:57Z</time>
<speed>0.470000</speed>
<extensions>
<speed>0.5</speed>
<temp>0.00</temp>
<bpm>0</bpm>
<rpm>0.00</rpm>
</extensions>
</trkpt>
<trkpt lat="63.897705078" lon="-18.694707870">
<ele>473.132813</ele>
<time>2012-07-25T12:12:02Z</time>
<speed>0.590000</speed>
<extensions>
<speed>0.6</speed>
<temp>0.00</temp>
<bpm>0</bpm>
<rpm>0.00</rpm>
</extensions>
</trkpt>
<trkpt lat="63.897697449" lon="-18.694803238">
<ele>472.117188</ele>
<time>2012-07-25T12:12:07Z</time>
<speed>0.880000</speed>
<extensions>
<speed>0.9</speed>
<temp>0.00</temp>
<bpm>0</bpm>
<rpm>0.00</rpm>
</extensions>
</trkpt>
<trkpt lat="63.897693634" lon="-18.694864273">
<ele>472.187500</ele>
<time>2012-07-25T12:12:12Z</time>
<speed>0.140000</speed>
<extensions>
<speed>0.1</speed>
<temp>0.00</temp>
<bpm>0</bpm>
<rpm>0.00</rpm>
</extensions>
</trkpt>
<trkpt lat="63.897678375" lon="-18.694913864">
<ele>471.914063</ele>
<time>2012-07-25T12:12:17Z</time>
<speed>0.510000</speed>
<extensions>
<speed>0.5</speed>
<temp>0.00</temp>
<bpm>0</bpm>
<rpm>0.00</rpm>
</extensions>
</trkpt>
<trkpt lat="63.897651672" lon="-18.694980621">
<ele>471.679688</ele>
<time>2012-07-25T12:12:22Z</time>
<speed>1.060000</speed>
<extensions>
<speed>1.1</speed>
<temp>0.00</temp>
<bpm>0</bpm>
<rpm>0.00</rpm>
</extensions>
</trkpt>
<trkpt lat="63.897636414" lon="-18.695081711">
<ele>472.289063</ele>
<time>2012-07-25T12:12:27Z</time>
<speed>1.270000</speed>
<extensions>
<speed>1.3</speed>
<temp>0.00</temp>
<bpm>0</bpm>
<rpm>0.00</rpm>
</extensions>
</trkpt>
<trkpt lat="63.897613525" lon="-18.695142746">
<ele>474.031250</ele>
<time>2012-07-25T12:12:32Z</time>
<speed>0.820000</speed>
<extensions>
<speed>0.8</speed>
<temp>0.00</temp>
<bpm>0</bpm>
<rpm>0.00</rpm>
</extensions>
</trkpt>
<trkpt lat="63.897579193" lon="-18.695178986">
<ele>475.164063</ele>
<time>2012-07-25T12:12:37Z</time>
<speed>1.090000</speed>
<extensions>
<speed>1.1</speed>
<temp>0.00</temp>
<bpm>0</bpm>
<rpm>0.00</rpm>
</extensions>
</trkpt>
<trkpt lat="63.897563934" lon="-18.695255280">
<ele>474.617188</ele>
<time>2012-07-25T12:12:42Z</time>
<speed>0.570000</speed>
<extensions>
<speed>0.6</speed>
<temp>0.00</temp>
<bpm>0</bpm>
<rpm>0.00</rpm>
</extensions>
</trkpt>
<trkpt lat="63.897560120" lon="-18.695310593">
<ele>475.523438</ele>
<time>2012-07-25T12:12:47Z</time>
<speed>0.380000</speed>
<extensions>
<speed>0.4</speed>
<temp>0.00</temp>
<bpm>0</bpm>
<rpm>0.00</rpm>
</extensions>
</trkpt>
<trkpt lat="63.897548676" lon="-18.695375443">
<ele>475.656250</ele>
<time>2012-07-25T12:12:52Z</time>
<speed>0.830000</speed>
<extensions>
<speed>0.8</speed>
<temp>0.00</temp>
<bpm>0</bpm>
<rpm>0.00</rpm>
</extensions>
</trkpt>
<trkpt lat="63.897518158" lon="-18.695480347">
<ele>476.921875</ele>
<time>2012-07-25T12:12:57Z</time>
<speed>1.490000</speed>
<extensions>
<speed>1.5</speed>
<temp>0.00</temp>
<bpm>0</bpm>
<rpm>0.00</rpm>
</extensions>
</trkpt>
<trkpt lat="63.897502899" lon="-18.695529938">
<ele>479.523438</ele>
<time>2012-07-25T12:13:02Z</time>
<speed>0.750000</speed>
<extensions>
<speed>0.8</speed>
<temp>0.00</temp>
<bpm>0</bpm>
<rpm>0.00</rpm>
</extensions>
</trkpt>
<trkpt lat="63.897491455" lon="-18.695625305">
<ele>481.031250</ele>
<time>2012-07-25T12:13:07Z</time>
<speed>1.010000</speed>
<extensions>
<speed>1.0</speed>
<temp>0.00</temp>
<bpm>0</bpm>
<rpm>0.00</rpm>
</extensions>
</trkpt>
<trkpt lat="63.897483826" lon="-18.695648193">
<ele>480.304688</ele>
<time>2012-07-25T12:13:12Z</time>
<speed>0.550000</speed>
<extensions>
<speed>0.6</speed>
<temp>0.00</temp>
<bpm>0</bpm>
<rpm>0.00</rpm>
</extensions>
</trkpt>
<trkpt lat="63.897487640" lon="-18.695631027">
<ele>480.265625</ele>
<time>2012-07-25T12:13:17Z</time>
<speed>0.130000</speed>
<extensions>
<speed>0.1</speed>
<temp>0.00</temp>
<bpm>0</bpm>
<rpm>0.00</rpm>
</extensions>
</trkpt>
<trkpt lat="63.897487640" lon="-18.695632935">
<ele>480.398438</ele>
<time>2012-07-25T12:13:22Z</time>
<speed>0.020000</speed>
<extensions>
<speed>0.0</speed>
<temp>0.00</temp>
<bpm>0</bpm>
<rpm>0.00</rpm>
</extensions>
</trkpt>
<trkpt lat="63.897487640" lon="-18.695640564">
<ele>480.570313</ele>
<time>2012-07-25T12:13:27Z</time>
<speed>0.470000</speed>
<extensions>
<speed>0.5</speed>
<temp>0.00</temp>
<bpm>0</bpm>
<rpm>0.00</rpm>
</extensions>
</trkpt>
<trkpt lat="63.897483826" lon="-18.695722580">
<ele>481.656250</ele>
<time>2012-07-25T12:13:32Z</time>
<speed>1.290000</speed>
<extensions>
<speed>1.3</speed>
<temp>0.00</temp>
<bpm>0</bpm>
<rpm>0.00</rpm>
</extensions>
</trkpt>
<trkpt lat="63.897491455" lon="-18.695854187">
<ele>483.265625</ele>
<time>2012-07-25T12:13:37Z</time>
<speed>1.460000</speed>
<extensions>
<speed>1.5</speed>
<temp>0.00</temp>
<bpm>0</bpm>
<rpm>0.00</rpm>
</extensions>
</trkpt>
<trkpt lat="63.897491455" lon="-18.695978165">
<ele>485.500000</ele>
<time>2012-07-25T12:13:42Z</time>
<speed>1.810000</speed>
<extensions>
<speed>1.8</speed>
<temp>0.00</temp>
<bpm>0</bpm>
<rpm>0.00</rpm>
</extensions>
</trkpt>
<trkpt lat="63.897480011" lon="-18.696130753">
<ele>486.984375</ele>
<time>2012-07-25T12:13:47Z</time>
<speed>1.080000</speed>
<extensions>
<speed>1.1</speed>
<temp>0.00</temp>
<bpm>0</bpm>
<rpm>0.00</rpm>
</extensions>
</trkpt>
<trkpt lat="63.897476196" lon="-18.696216583">
<ele>487.773438</ele>
<time>2012-07-25T12:13:52Z</time>
<speed>0.690000</speed>
<extensions>
<speed>0.7</speed>
<temp>0.00</temp>
<bpm>0</bpm>
<rpm>0.00</rpm>
</extensions>
</trkpt>
<trkpt lat="63.897453308" lon="-18.696302414">
<ele>488.429688</ele>
<time>2012-07-25T12:13:57Z</time>
<speed>0.910000</speed>
<extensions>
<speed>0.9</speed>
<temp>0.00</temp>
<bpm>0</bpm>
<rpm>0.00</rpm>
</extensions>
</trkpt>
<trkpt lat="63.897441864" lon="-18.696403503">
<ele>488.882813</ele>
<time>2012-07-25T12:14:02Z</time>
<speed>1.160000</speed>
<extensions>
<speed>1.2</speed>
<temp>0.00</temp>
<bpm>0</bpm>
<rpm>0.00</rpm>
</extensions>
</trkpt>
<trkpt lat="63.897418976" lon="-18.696540833">
<ele>487.367188</ele>
<time>2012-07-25T12:14:07Z</time>
<speed>1.320000</speed>
<extensions>
<speed>1.3</speed>
<temp>0.00</temp>
<bpm>0</bpm>
<rpm>0.00</rpm>
</extensions>
</trkpt>
<trkpt lat="63.897399902" lon="-18.696714401">
<ele>485.796875</ele>
<time>2012-07-25T12:14:12Z</time>
<speed>1.260000</speed>
<extensions>
<speed>1.3</speed>
<temp>0.00</temp>
<bpm>0</bpm>
<rpm>0.00</rpm>
</extensions>
</trkpt>
<trkpt lat="63.897407532" lon="-18.696809769">
<ele>486.054688</ele>
<time>2012-07-25T12:14:17Z</time>
<speed>0.730000</speed>
<extensions>
<speed>0.7</speed>
<temp>0.00</temp>
<bpm>0</bpm>
<rpm>0.00</rpm>
</extensions>
</trkpt>
<trkpt lat="63.897399902" lon="-18.696851730">
<ele>484.835938</ele>
<time>2012-07-25T12:14:22Z</time>
<speed>0.050000</speed>
<extensions>
<speed>0.1</speed>
<temp>0.00</temp>
<bpm>0</bpm>
<rpm>0.00</rpm>
</extensions>
</trkpt>
<trkpt lat="63.897377014" lon="-18.696939468">
<ele>483.679688</ele>
<time>2012-07-25T12:14:27Z</time>
<speed>2.100000</speed>
<extensions>
<speed>2.1</speed>
<temp>0.00</temp>
<bpm>0</bpm>
<rpm>0.00</rpm>
</extensions>
</trkpt>
<trkpt lat="63.897308350" lon="-18.697097778">
<ele>482.968750</ele>
<time>2012-07-25T12:14:32Z</time>
<speed>2.550000</speed>
<extensions>
<speed>2.6</speed>
<temp>0.00</temp>
<bpm>0</bpm>
<rpm>0.00</rpm>
</extensions>
</trkpt>
<trkpt lat="63.897239685" lon="-18.697286606">
<ele>481.765625</ele>
<time>2012-07-25T12:14:37Z</time>
<speed>2.060000</speed>
<extensions>
<speed>2.1</speed>
<temp>0.00</temp>
<bpm>0</bpm>
<rpm>0.00</rpm>
</extensions>
</trkpt>
<trkpt lat="63.897193909" lon="-18.697471619">
<ele>481.148438</ele>
<time>2012-07-25T12:14:42Z</time>
<speed>2.150000</speed>
<extensions>
<speed>2.1</speed>
<temp>0.00</temp>
<bpm>0</bpm>
<rpm>0.00</rpm>
</extensions>
</trkpt>
<trkpt lat="63.897159576" lon="-18.697652817">
<ele>481.289063</ele>
<time>2012-07-25T12:14:47Z</time>
<speed>2.340000</speed>
<extensions>
<speed>2.3</speed>
<temp>0.00</temp>
<bpm>0</bpm>
<rpm>0.00</rpm>
</extensions>
</trkpt>
<trkpt lat="63.897109985" lon="-18.697879791">
<ele>481.710938</ele>
<time>2012-07-25T12:14:52Z</time>
<speed>2.510000</speed>
<extensions>
<speed>2.5</speed>
<temp>0.00</temp>
<bpm>0</bpm>
<rpm>0.00</rpm>
</extensions>
</trkpt>
<trkpt lat="63.897060394" lon="-18.698110580">
<ele>479.343750</ele>
<time>2012-07-25T12:14:57Z</time>
<speed>2.380000</speed>
<extensions>
<speed>2.4</speed>
<temp>0.00</temp>
<bpm>0</bpm>
<rpm>0.00</rpm>
</extensions>
</trkpt>
<trkpt lat="63.897022247" lon="-18.698326111">
<ele>480.054688</ele>
<time>2012-07-25T12:15:02Z</time>
<speed>2.390000</speed>
<extensions>
<speed>2.4</speed>
<temp>0.00</temp>
<bpm>0</bpm>
<rpm>0.00</rpm>
</extensions>
</trkpt>
<trkpt lat="63.897014618" lon="-18.698545456">
<ele>481.773438</ele>
<time>2012-07-25T12:15:07Z</time>
<speed>2.310000</speed>
<extensions>
<speed>2.3</speed>
<temp>0.00</temp>
<bpm>0</bpm>
<rpm>0.00</rpm>
</extensions>
</trkpt>
<trkpt lat="63.897014618" lon="-18.698810577">
<ele>484.007813</ele>
<time>2012-07-25T12:15:12Z</time>
<speed>2.830000</speed>
<extensions>
<speed>2.8</speed>
<temp>0.00</temp>
<bpm>0</bpm>
<rpm>0.00</rpm>
</extensions>
</trkpt>
<trkpt lat="63.897003174" lon="-18.699069977">
<ele>483.320313</ele>
<time>2012-07-25T12:15:17Z</time>
<speed>2.240000</speed>
<extensions>
<speed>2.2</speed>
<temp>0.00</temp>
<bpm>0</bpm>
<rpm>0.00</rpm>
</extensions>
</trkpt>
<trkpt lat="63.896984100" lon="-18.699281693">
<ele>483.578125</ele>
<time>2012-07-25T12:15:22Z</time>
<speed>2.010000</speed>
<extensions>
<speed>2.0</speed>
<temp>0.00</temp>
<bpm>0</bpm>
<rpm>0.00</rpm>
</extensions>
</trkpt>
<trkpt lat="63.896984100" lon="-18.699464798">
<ele>483.953125</ele>
<time>2012-07-25T12:15:27Z</time>
<speed>1.820000</speed>
<extensions>
<speed>1.8</speed>
<temp>0.00</temp>
<bpm>0</bpm>
<rpm>0.00</rpm>
</extensions>
</trkpt>
<trkpt lat="63.896961212" lon="-18.699609756">
<ele>483.460938</ele>
<time>2012-07-25T12:15:32Z</time>
<speed>1.100000</speed>
<extensions>
<speed>1.1</speed>
<temp>0.00</temp>
<bpm>0</bpm>
<rpm>0.00</rpm>
</extensions>
</trkpt>
<trkpt lat="63.896923065" lon="-18.699768066">
<ele>482.195313</ele>
<time>2012-07-25T12:15:37Z</time>
<speed>2.070000</speed>
<extensions>
<speed>2.1</speed>
<temp>0.00</temp>
<bpm>0</bpm>
<rpm>0.00</rpm>
</extensions>
</trkpt>
<trkpt lat="63.896934509" lon="-18.699945450">
<ele>484.039063</ele>
<time>2012-07-25T12:15:42Z</time>
<speed>1.150000</speed>
<extensions>
<speed>1.1</speed>
<temp>0.00</temp>
<bpm>0</bpm>
<rpm>0.00</rpm>
</extensions>
</trkpt>
<trkpt lat="63.896938324" lon="-18.700094223">
<ele>482.960938</ele>
<time>2012-07-25T12:15:47Z</time>
<speed>2.360000</speed>
<extensions>
<speed>2.4</speed>
<temp>0.00</temp>
<bpm>0</bpm>
<rpm>0.00</rpm>
</extensions>
</trkpt>
<trkpt lat="63.896961212" lon="-18.700338364">
<ele>483.273438</ele>
<time>2012-07-25T12:15:52Z</time>
<speed>2.580000</speed>
<extensions>
<speed>2.6</speed>
<temp>0.00</temp>
<bpm>0</bpm>
<rpm>0.00</rpm>
</extensions>
</trkpt>
<trkpt lat="63.896987915" lon="-18.700532913">
<ele>482.960938</ele>
<time>2012-07-25T12:15:57Z</time>
<speed>1.720000</speed>
<extensions>
<speed>1.7</speed>
<temp>0.00</temp>
<bpm>0</bpm>
<rpm>0.00</rpm>
</extensions>
</trkpt>
<trkpt lat="63.897006989" lon="-18.700710297">
<ele>483.437500</ele>
<time>2012-07-25T12:16:02Z</time>
<speed>1.940000</speed>
<extensions>
<speed>1.9</speed>
<temp>0.00</temp>
<bpm>0</bpm>
<rpm>0.00</rpm>
</extensions>
</trkpt>
<trkpt lat="63.897010803" lon="-18.700906754">
<ele>484.179688</ele>
<time>2012-07-25T12:16:07Z</time>
<speed>1.920000</speed>
<extensions>
<speed>1.9</speed>
<temp>0.00</temp>
<bpm>0</bpm>
<rpm>0.00</rpm>
</extensions>
</trkpt>
<trkpt lat="63.897010803" lon="-18.701116562">
<ele>483.945313</ele>
<time>2012-07-25T12:16:12Z</time>
<speed>1.790000</speed>
<extensions>
<speed>1.8</speed>
<temp>0.00</temp>
<bpm>0</bpm>
<rpm>0.00</rpm>
</extensions>
</trkpt>
<trkpt lat="63.897041321" lon="-18.701332092">
<ele>483.687500</ele>
<time>2012-07-25T12:16:17Z</time>
<speed>2.200000</speed>
<extensions>
<speed>2.2</speed>
<temp>0.00</temp>
<bpm>0</bpm>
<rpm>0.00</rpm>
</extensions>
</trkpt>
<trkpt lat="63.897068024" lon="-18.701562881">
<ele>484.078125</ele>
<time>2012-07-25T12:16:22Z</time>
<speed>2.680000</speed>
<extensions>
<speed>2.7</speed>
<temp>0.00</temp>
<bpm>0</bpm>
<rpm>0.00</rpm>
</extensions>
</trkpt>
<trkpt lat="63.897068024" lon="-18.701829910">
<ele>485.031250</ele>
<time>2012-07-25T12:16:27Z</time>
<speed>2.590000</speed>
<extensions>
<speed>2.6</speed>
<temp>0.00</temp>
<bpm>0</bpm>
<rpm>0.00</rpm>
</extensions>
</trkpt>
<trkpt lat="63.897075653" lon="-18.702056885">
<ele>485.953125</ele>
<time>2012-07-25T12:16:32Z</time>
<speed>1.290000</speed>
<extensions>
<speed>1.3</speed>
<temp>0.00</temp>
<bpm>0</bpm>
<rpm>0.00</rpm>
</extensions>
</trkpt>
<trkpt lat="63.897079468" lon="-18.702232361">
<ele>487.015625</ele>
<time>2012-07-25T12:16:37Z</time>
<speed>1.880000</speed>
<extensions>
<speed>1.9</speed>
<temp>0.00</temp>
<bpm>0</bpm>
<rpm>0.00</rpm>
</extensions>
</trkpt>
<trkpt lat="63.897079468" lon="-18.702419281">
<ele>487.429688</ele>
<time>2012-07-25T12:16:42Z</time>
<speed>1.590000</speed>
<extensions>
<speed>1.6</speed>
<temp>0.00</temp>
<bpm>0</bpm>
<rpm>0.00</rpm>
</extensions>
</trkpt>
<trkpt lat="63.897068024" lon="-18.702581406">
<ele>487.578125</ele>
<time>2012-07-25T12:16:47Z</time>
<speed>1.840000</speed>
<extensions>
<speed>1.8</speed>
<temp>0.00</temp>
<bpm>0</bpm>
<rpm>0.00</rpm>
</extensions>
</trkpt>
<trkpt lat="63.897045135" lon="-18.702816010">
<ele>486.710938</ele>
<time>2012-07-25T12:16:52Z</time>
<speed>2.980000</speed>
<extensions>
<speed>3.0</speed>
<temp>0.00</temp>
<bpm>0</bpm>
<rpm>0.00</rpm>
</extensions>
</trkpt>
<trkpt lat="63.896984100" lon="-18.703073502">
<ele>486.085938</ele>
<time>2012-07-25T12:16:57Z</time>
<speed>2.340000</speed>
<extensions>
<speed>2.3</speed>
<temp>0.00</temp>
<bpm>0</bpm>
<rpm>0.00</rpm>
</extensions>
</trkpt>
<trkpt lat="63.896942139" lon="-18.703216553">
<ele>486.953125</ele>
<time>2012-07-25T12:17:02Z</time>
<speed>1.420000</speed>
<extensions>
<speed>1.4</speed>
<temp>0.00</temp>
<bpm>0</bpm>
<rpm>0.00</rpm>
</extensions>
</trkpt>
<trkpt lat="63.896926880" lon="-18.703353882">
<ele>487.617188</ele>
<time>2012-07-25T12:17:07Z</time>
<speed>0.640000</speed>
<extensions>
<speed>0.6</speed>
<temp>0.00</temp>
<bpm>0</bpm>
<rpm>0.00</rpm>
</extensions>
</trkpt>
<trkpt lat="63.896926880" lon="-18.703334808">
<ele>487.562500</ele>
<time>2012-07-25T12:17:12Z</time>
<speed>0.020000</speed>
<extensions>
<speed>0.0</speed>
<temp>0.00</temp>
<bpm>0</bpm>
<rpm>0.00</rpm>
</extensions>
</trkpt>
<trkpt lat="63.896926880" lon="-18.703334808">
<ele>487.429688</ele>
<time>2012-07-25T12:17:17Z</time>
<speed>0.010000</speed>
<extensions>
<speed>0.0</speed>
<temp>0.00</temp>
<bpm>0</bpm>
<rpm>0.00</rpm>
</extensions>
</trkpt>
<trkpt lat="63.896926880" lon="-18.703334808">
<ele>487.375000</ele>
<time>2012-07-25T12:17:22Z</time>
<speed>0.010000</speed>
<extensions>
<speed>0.0</speed>
<temp>0.00</temp>
<bpm>0</bpm>
<rpm>0.00</rpm>
</extensions>
</trkpt>
<trkpt lat="63.896926880" lon="-18.703334808">
<ele>487.367188</ele>
<time>2012-07-25T12:17:27Z</time>
<extensions>
<speed>0.0</speed>
<temp>0.00</temp>
<bpm>0</bpm>
<rpm>0.00</rpm>
</extensions>
</trkpt>
<trkpt lat="63.896926880" lon="-18.703334808">
<ele>487.375000</ele>
<time>2012-07-25T12:17:32Z</time>
<speed>0.010000</speed>
<extensions>
<speed>0.0</speed>
<temp>0.00</temp>
<bpm>0</bpm>
<rpm>0.00</rpm>
</extensions>
</trkpt>
<trkpt lat="63.896926880" lon="-18.703332901">
<ele>487.359375</ele>
<time>2012-07-25T12:17:37Z</time>
<speed>0.030000</speed>
<extensions>
<speed>0.0</speed>
<temp>0.00</temp>
<bpm>0</bpm>
<rpm>0.00</rpm>
</extensions>
</trkpt>
<trkpt lat="63.896926880" lon="-18.703327179">
<ele>487.359375</ele>
<time>2012-07-25T12:17:42Z</time>
<speed>0.170000</speed>
<extensions>
<speed>0.2</speed>
<temp>0.00</temp>
<bpm>0</bpm>
<rpm>0.00</rpm>
</extensions>
</trkpt>
<trkpt lat="63.896930695" lon="-18.703321457">
<ele>487.367188</ele>
<time>2012-07-25T12:17:47Z</time>
<speed>0.010000</speed>
<extensions>
<speed>0.0</speed>
<temp>0.00</temp>
<bpm>0</bpm>
<rpm>0.00</rpm>
</extensions>
</trkpt>
<trkpt lat="63.896930695" lon="-18.703321457">
<ele>487.398438</ele>
<time>2012-07-25T12:17:52Z</time>
<extensions>
<speed>0.0</speed>
<temp>0.00</temp>
<bpm>0</bpm>
<rpm>0.00</rpm>
</extensions>
</trkpt>
<trkpt lat="63.896930695" lon="-18.703321457">
<ele>487.382813</ele>
<time>2012-07-25T12:17:57Z</time>
<extensions>
<speed>0.0</speed>
<temp>0.00</temp>
<bpm>0</bpm>
<rpm>0.00</rpm>
</extensions>
</trkpt>
<trkpt lat="63.896930695" lon="-18.703321457">
<ele>487.382813</ele>
<time>2012-07-25T12:18:02Z</time>
<extensions>
<speed>0.0</speed>
<temp>0.00</temp>
<bpm>0</bpm>
<rpm>0.00</rpm>
</extensions>
</trkpt>
<trkpt lat="63.896930695" lon="-18.703321457">
<ele>487.359375</ele>
<time>2012-07-25T12:18:07Z</time>
<extensions>
<speed>0.0</speed>
<temp>0.00</temp>
<bpm>0</bpm>
<rpm>0.00</rpm>
</extensions>
</trkpt>
<trkpt lat="63.896930695" lon="-18.703321457">
<ele>487.312500</ele>
<time>2012-07-25T12:18:12Z</time>
<speed>0.060000</speed>
<extensions>
<speed>0.1</speed>
<temp>0.00</temp>
<bpm>0</bpm>
<rpm>0.00</rpm>
</extensions>
</trkpt>
<trkpt lat="63.896930695" lon="-18.703321457">
<ele>487.265625</ele>
<time>2012-07-25T12:18:17Z</time>
<speed>0.050000</speed>
<extensions>
<speed>0.1</speed>
<temp>0.00</temp>
<bpm>0</bpm>
<rpm>0.00</rpm>
</extensions>
</trkpt>
<trkpt lat="63.896926880" lon="-18.703323364">
<ele>487.187500</ele>
<time>2012-07-25T12:18:22Z</time>
<speed>0.010000</speed>
<extensions>
<speed>0.0</speed>
<temp>0.00</temp>
<bpm>0</bpm>
<rpm>0.00</rpm>
</extensions>
</trkpt>
<trkpt lat="63.896926880" lon="-18.703323364">
<ele>487.109375</ele>
<time>2012-07-25T12:18:27Z</time>
<extensions>
<speed>0.0</speed>
<temp>0.00</temp>
<bpm>0</bpm>
<rpm>0.00</rpm>
</extensions>
</trkpt>
<trkpt lat="63.896926880" lon="-18.703321457">
<ele>487.078125</ele>
<time>2012-07-25T12:18:32Z</time>
<speed>0.010000</speed>
<extensions>
<speed>0.0</speed>
<temp>0.00</temp>
<bpm>0</bpm>
<rpm>0.00</rpm>
</extensions>
</trkpt>
<trkpt lat="63.896926880" lon="-18.703321457">
<ele>487.054688</ele>
<time>2012-07-25T12:18:37Z</time>
<extensions>
<speed>0.0</speed>
<temp>0.00</temp>
<bpm>0</bpm>
<rpm>0.00</rpm>
</extensions>
</trkpt>
<trkpt lat="63.896926880" lon="-18.703321457">
<ele>487.023438</ele>
<time>2012-07-25T12:18:42Z</time>
<extensions>
<speed>0.0</speed>
<temp>0.00</temp>
<bpm>0</bpm>
<rpm>0.00</rpm>
</extensions>
</trkpt>
<trkpt lat="63.896926880" lon="-18.703321457">
<ele>487.000000</ele>
<time>2012-07-25T12:18:47Z</time>
<speed>0.210000</speed>
<extensions>
<speed>0.2</speed>
<temp>0.00</temp>
<bpm>0</bpm>
<rpm>0.00</rpm>
</extensions>
</trkpt>
<trkpt lat="63.896926880" lon="-18.703321457">
<ele>486.976563</ele>
<time>2012-07-25T12:18:52Z</time>
<speed>0.100000</speed>
<extensions>
<speed>0.1</speed>
<temp>0.00</temp>
<bpm>0</bpm>
<rpm>0.00</rpm>
</extensions>
</trkpt>
<trkpt lat="63.896926880" lon="-18.703321457">
<ele>486.945313</ele>
<time>2012-07-25T12:18:57Z</time>
<speed>0.210000</speed>
<extensions>
<speed>0.2</speed>
<temp>0.00</temp>
<bpm>0</bpm>
<rpm>0.00</rpm>
</extensions>
</trkpt>
<trkpt lat="63.896926880" lon="-18.703321457">
<ele>486.921875</ele>
<time>2012-07-25T12:19:02Z</time>
<speed>0.010000</speed>
<extensions>
<speed>0.0</speed>
<temp>0.00</temp>
<bpm>0</bpm>
<rpm>0.00</rpm>
</extensions>
</trkpt>
<trkpt lat="63.896926880" lon="-18.703321457">
<ele>486.906250</ele>
<time>2012-07-25T12:19:07Z</time>
<extensions>
<speed>0.0</speed>
<temp>0.00</temp>
<bpm>0</bpm>
<rpm>0.00</rpm>
</extensions>
</trkpt>
<trkpt lat="63.896926880" lon="-18.703321457">
<ele>486.898438</ele>
<time>2012-07-25T12:19:12Z</time>
<extensions>
<speed>0.0</speed>
<temp>0.00</temp>
<bpm>0</bpm>
<rpm>0.00</rpm>
</extensions>
</trkpt>
<trkpt lat="63.896930695" lon="-18.703321457">
<ele>486.882813</ele>
<time>2012-07-25T12:19:17Z</time>
<speed>0.010000</speed>
<extensions>
<speed>0.0</speed>
<temp>0.00</temp>
<bpm>0</bpm>
<rpm>0.00</rpm>
</extensions>
</trkpt>
<trkpt lat="63.896930695" lon="-18.703321457">
<ele>486.867188</ele>
<time>2012-07-25T12:19:22Z</time>
<speed>0.050000</speed>
<extensions>
<speed>0.1</speed>
<temp>0.00</temp>
<bpm>0</bpm>
<rpm>0.00</rpm>
</extensions>
</trkpt>
<trkpt lat="63.896930695" lon="-18.703321457">
<ele>486.898438</ele>
<time>2012-07-25T12:19:27Z</time>
<speed>0.020000</speed>
<extensions>
<speed>0.0</speed>
<temp>0.00</temp>
<bpm>0</bpm>
<rpm>0.00</rpm>
</extensions>
</trkpt>
<trkpt lat="63.896926880" lon="-18.703325272">
<ele>486.335938</ele>
<time>2012-07-25T12:19:32Z</time>
<speed>0.380000</speed>
<extensions>
<speed>0.4</speed>
<temp>0.00</temp>
<bpm>0</bpm>
<rpm>0.00</rpm>
</extensions>
</trkpt>
<trkpt lat="63.896888733" lon="-18.703269958">
<ele>485.046875</ele>
<time>2012-07-25T12:19:37Z</time>
<speed>1.680000</speed>
<extensions>
<speed>1.7</speed>
<temp>0.00</temp>
<bpm>0</bpm>
<rpm>0.00</rpm>
</extensions>
</trkpt>
<trkpt lat="63.896820068" lon="-18.703105927">
<ele>485.765625</ele>
<time>2012-07-25T12:19:42Z</time>
<speed>2.050000</speed>
<extensions>
<speed>2.1</speed>
<temp>0.00</temp>
<bpm>0</bpm>
<rpm>0.00</rpm>
</extensions>
</trkpt>
<trkpt lat="63.896766663" lon="-18.702943802">
<ele>487.554688</ele>
<time>2012-07-25T12:19:47Z</time>
<speed>1.920000</speed>
<extensions>
<speed>1.9</speed>
<temp>0.00</temp>
<bpm>0</bpm>
<rpm>0.00</rpm>
</extensions>
</trkpt>
<trkpt lat="63.896713257" lon="-18.702844620">
<ele>487.664063</ele>
<time>2012-07-25T12:19:52Z</time>
<speed>0.060000</speed>
<extensions>
<speed>0.1</speed>
<temp>0.00</temp>
<bpm>0</bpm>
<rpm>0.00</rpm>
</extensions>
</trkpt>
<trkpt lat="63.896717072" lon="-18.702852249">
<ele>486.937500</ele>
<time>2012-07-25T12:19:57Z</time>
<speed>0.200000</speed>
<extensions>
<speed>0.2</speed>
<temp>0.00</temp>
<bpm>0</bpm>
<rpm>0.00</rpm>
</extensions>
</trkpt>
<trkpt lat="63.896690369" lon="-18.702791214">
<ele>486.953125</ele>
<time>2012-07-25T12:20:02Z</time>
<speed>1.810000</speed>
<extensions>
<speed>1.8</speed>
<temp>0.00</temp>
<bpm>0</bpm>
<rpm>0.00</rpm>
</extensions>
</trkpt>
<trkpt lat="63.896625519" lon="-18.702651978">
<ele>488.132813</ele>
<time>2012-07-25T12:20:07Z</time>
<speed>2.070000</speed>
<extensions>
<speed>2.1</speed>
<temp>0.00</temp>
<bpm>0</bpm>
<rpm>0.00</rpm>
</extensions>
</trkpt>
<trkpt lat="63.896564484" lon="-18.702482224">
<ele>488.351563</ele>
<time>2012-07-25T12:20:12Z</time>
<speed>2.130000</speed>
<extensions>
<speed>2.1</speed>
<temp>0.00</temp>
<bpm>0</bpm>
<rpm>0.00</rpm>
</extensions>
</trkpt>
<trkpt lat="63.896522522" lon="-18.702316284">
<ele>487.726563</ele>
<time>2012-07-25T12:20:17Z</time>
<speed>1.910000</speed>
<extensions>
<speed>1.9</speed>
<temp>0.00</temp>
<bpm>0</bpm>
<rpm>0.00</rpm>
</extensions>
</trkpt>
<trkpt lat="63.896511078" lon="-18.702241898">
<ele>488.734375</ele>
<time>2012-07-25T12:20:22Z</time>
<speed>0.380000</speed>
<extensions>
<speed>0.4</speed>
<temp>0.00</temp>
<bpm>0</bpm>
<rpm>0.00</rpm>
</extensions>
</trkpt>
<trkpt lat="63.896499634" lon="-18.702228546">
<ele>488.742188</ele>
<time>2012-07-25T12:20:27Z</time>
<speed>0.040000</speed>
<extensions>
<speed>0.0</speed>
<temp>0.00</temp>
<bpm>0</bpm>
<rpm>0.00</rpm>
</extensions>
</trkpt>
<trkpt lat="63.896499634" lon="-18.702228546">
<ele>488.781250</ele>
<time>2012-07-25T12:20:32Z</time>
<speed>0.010000</speed>
<extensions>
<speed>0.0</speed>
<temp>0.00</temp>
<bpm>0</bpm>
<rpm>0.00</rpm>
</extensions>
</trkpt>
<trkpt lat="63.896499634" lon="-18.702228546">
<ele>488.851563</ele>
<time>2012-07-25T12:20:37Z</time>
<speed>0.050000</speed>
<extensions>
<speed>0.1</speed>
<temp>0.00</temp>
<bpm>0</bpm>
<rpm>0.00</rpm>
</extensions>
</trkpt>
<trkpt lat="63.896499634" lon="-18.702228546">
<ele>488.820313</ele>
<time>2012-07-25T12:20:42Z</time>
<speed>0.010000</speed>
<extensions>
<speed>0.0</speed>
<temp>0.00</temp>
<bpm>0</bpm>
<rpm>0.00</rpm>
</extensions>
</trkpt>
<trkpt lat="63.896499634" lon="-18.702228546">
<ele>488.812500</ele>
<time>2012-07-25T12:20:47Z</time>
<extensions>
<speed>0.0</speed>
<temp>0.00</temp>
<bpm>0</bpm>
<rpm>0.00</rpm>
</extensions>
</trkpt>
<trkpt lat="63.896499634" lon="-18.702228546">
<ele>488.812500</ele>
<time>2012-07-25T12:20:52Z</time>
<extensions>
<speed>0.0</speed>
<temp>0.00</temp>
<bpm>0</bpm>
<rpm>0.00</rpm>
</extensions>
</trkpt>
<trkpt lat="63.896499634" lon="-18.702228546">
<ele>488.804688</ele>
<time>2012-07-25T12:20:57Z</time>
<extensions>
<speed>0.0</speed>
<temp>0.00</temp>
<bpm>0</bpm>
<rpm>0.00</rpm>
</extensions>
</trkpt>
<trkpt lat="63.896499634" lon="-18.702228546">
<ele>488.796875</ele>
<time>2012-07-25T12:21:02Z</time>
<speed>0.010000</speed>
<extensions>
<speed>0.0</speed>
<temp>0.00</temp>
<bpm>0</bpm>
<rpm>0.00</rpm>
</extensions>
</trkpt>
<trkpt lat="63.896484375" lon="-18.702198029">
<ele>488.734375</ele>
<time>2012-07-25T12:21:07Z</time>
<speed>0.640000</speed>
<extensions>
<speed>0.6</speed>
<temp>0.00</temp>
<bpm>0</bpm>
<rpm>0.00</rpm>
</extensions>
</trkpt>
<trkpt lat="63.896480560" lon="-18.702171326">
<ele>488.914063</ele>
<time>2012-07-25T12:21:12Z</time>
<speed>0.110000</speed>
<extensions>
<speed>0.1</speed>
<temp>0.00</temp>
<bpm>0</bpm>
<rpm>0.00</rpm>
</extensions>
</trkpt>
<trkpt lat="63.896457672" lon="-18.702075958">
<ele>489.046875</ele>
<time>2012-07-25T12:21:17Z</time>
<speed>2.480000</speed>
<extensions>
<speed>2.5</speed>
<temp>0.00</temp>
<bpm>0</bpm>
<rpm>0.00</rpm>
</extensions>
</trkpt>
<trkpt lat="63.896381378" lon="-18.701723099">
<ele>488.656250</ele>
<time>2012-07-25T12:21:22Z</time>
<speed>5.120000</speed>
<extensions>
<speed>5.1</speed>
<temp>0.00</temp>
<bpm>0</bpm>
<rpm>0.00</rpm>
</extensions>
</trkpt>
<trkpt lat="63.896286011" lon="-18.701400757">
<ele>488.507813</ele>
<time>2012-07-25T12:21:27Z</time>
<speed>3.190000</speed>
<extensions>
<speed>3.2</speed>
<temp>0.00</temp>
<bpm>0</bpm>
<rpm>0.00</rpm>
</extensions>
</trkpt>
<trkpt lat="63.896240234" lon="-18.701232910">
<ele>488.492188</ele>
<time>2012-07-25T12:21:32Z</time>
<speed>2.060000</speed>
<extensions>
<speed>2.1</speed>
<temp>0.00</temp>
<bpm>0</bpm>
<rpm>0.00</rpm>
</extensions>
</trkpt>
<trkpt lat="63.896160126" lon="-18.701087952">
<ele>488.953125</ele>
<time>2012-07-25T12:21:37Z</time>
<speed>1.980000</speed>
<extensions>
<speed>2.0</speed>
<temp>0.00</temp>
<bpm>0</bpm>
<rpm>0.00</rpm>
</extensions>
</trkpt>
<trkpt lat="63.896102905" lon="-18.700967789">
<ele>488.898438</ele>
<time>2012-07-25T12:21:42Z</time>
<speed>1.780000</speed>
<extensions>
<speed>1.8</speed>
<temp>0.00</temp>
<bpm>0</bpm>
<rpm>0.00</rpm>
</extensions>
</trkpt>
<trkpt lat="63.896034241" lon="-18.700836182">
<ele>488.843750</ele>
<time>2012-07-25T12:21:47Z</time>
<speed>2.080000</speed>
<extensions>
<speed>2.1</speed>
<temp>0.00</temp>
<bpm>0</bpm>
<rpm>0.00</rpm>
</extensions>
</trkpt>
<trkpt lat="63.895965576" lon="-18.700737000">
<ele>489.929688</ele>
<time>2012-07-25T12:21:52Z</time>
<speed>3.000000</speed>
<extensions>
<speed>3.0</speed>
<temp>0.00</temp>
<bpm>0</bpm>
<rpm>0.00</rpm>
</extensions>
</trkpt>
<trkpt lat="63.895870209" lon="-18.700595856">
<ele>490.304688</ele>
<time>2012-07-25T12:21:57Z</time>
<speed>2.420000</speed>
<extensions>
<speed>2.4</speed>
<temp>0.00</temp>
<bpm>0</bpm>
<rpm>0.00</rpm>
</extensions>
</trkpt>
<trkpt lat="63.895790100" lon="-18.700511932">
<ele>490.289063</ele>
<time>2012-07-25T12:22:02Z</time>
<speed>2.120000</speed>
<extensions>
<speed>2.1</speed>
<temp>0.00</temp>
<bpm>0</bpm>
<rpm>0.00</rpm>
</extensions>
</trkpt>
<trkpt lat="63.895683289" lon="-18.700416565">
<ele>490.078125</ele>
<time>2012-07-25T12:22:07Z</time>
<speed>2.980000</speed>
<extensions>
<speed>3.0</speed>
<temp>0.00</temp>
<bpm>0</bpm>
<rpm>0.00</rpm>
</extensions>
</trkpt>
<trkpt lat="63.895565033" lon="-18.700351715">
<ele>490.312500</ele>
<time>2012-07-25T12:22:12Z</time>
<speed>2.710000</speed>
<extensions>
<speed>2.7</speed>
<temp>0.00</temp>
<bpm>0</bpm>
<rpm>0.00</rpm>
</extensions>
</trkpt>
<trkpt lat="63.895439148" lon="-18.700246811">
<ele>489.164063</ele>
<time>2012-07-25T12:22:17Z</time>
<speed>2.770000</speed>
<extensions>
<speed>2.8</speed>
<temp>0.00</temp>
<bpm>0</bpm>
<rpm>0.00</rpm>
</extensions>
</trkpt>
<trkpt lat="63.895309448" lon="-18.700233459">
<ele>489.125000</ele>
<time>2012-07-25T12:22:22Z</time>
<speed>3.680000</speed>
<extensions>
<speed>3.7</speed>
<temp>0.00</temp>
<bpm>0</bpm>
<rpm>0.00</rpm>
</extensions>
</trkpt>
<trkpt lat="63.895103455" lon="-18.700193405">
<ele>489.093750</ele>
<time>2012-07-25T12:22:27Z</time>
<speed>4.630000</speed>
<extensions>
<speed>4.6</speed>
<temp>0.00</temp>
<bpm>0</bpm>
<rpm>0.00</rpm>
</extensions>
</trkpt>
<trkpt lat="63.894901276" lon="-18.700187683">
<ele>489.359375</ele>
<time>2012-07-25T12:22:32Z</time>
<speed>4.750000</speed>
<extensions>
<speed>4.8</speed>
<temp>0.00</temp>
<bpm>0</bpm>
<rpm>0.00</rpm>
</extensions>
</trkpt>
<trkpt lat="63.894680023" lon="-18.700168610">
<ele>489.195313</ele>
<time>2012-07-25T12:22:37Z</time>
<speed>4.710000</speed>
<extensions>
<speed>4.7</speed>
<temp>0.00</temp>
<bpm>0</bpm>
<rpm>0.00</rpm>
</extensions>
</trkpt>
<trkpt lat="63.894485474" lon="-18.700136185">
<ele>490.164063</ele>
<time>2012-07-25T12:22:42Z</time>
<speed>4.270000</speed>
<extensions>
<speed>4.3</speed>
<temp>0.00</temp>
<bpm>0</bpm>
<rpm>0.00</rpm>
</extensions>
</trkpt>
<trkpt lat="63.894332886" lon="-18.700080872">
<ele>490.539063</ele>
<time>2012-07-25T12:22:47Z</time>
<speed>3.660000</speed>
<extensions>
<speed>3.7</speed>
<temp>0.00</temp>
<bpm>0</bpm>
<rpm>0.00</rpm>
</extensions>
</trkpt>
<trkpt lat="63.894184113" lon="-18.700077057">
<ele>493.343750</ele>
<time>2012-07-25T12:22:52Z</time>
<speed>2.740000</speed>
<extensions>
<speed>2.7</speed>
<temp>0.00</temp>
<bpm>0</bpm>
<rpm>0.00</rpm>
</extensions>
</trkpt>
<trkpt lat="63.894069672" lon="-18.700067520">
<ele>492.835938</ele>
<time>2012-07-25T12:22:57Z</time>
<speed>3.440000</speed>
<extensions>
<speed>3.4</speed>
<temp>0.00</temp>
<bpm>0</bpm>
<rpm>0.00</rpm>
</extensions>
</trkpt>
<trkpt lat="63.893917084" lon="-18.700092316">
<ele>492.007813</ele>
<time>2012-07-25T12:23:02Z</time>
<speed>2.820000</speed>
<extensions>
<speed>2.8</speed>
<temp>0.00</temp>
<bpm>0</bpm>
<rpm>0.00</rpm>
</extensions>
</trkpt>
<trkpt lat="63.893810272" lon="-18.700136185">
<ele>490.929688</ele>
<time>2012-07-25T12:23:07Z</time>
<speed>2.940000</speed>
<extensions>
<speed>2.9</speed>
<temp>0.00</temp>
<bpm>0</bpm>
<rpm>0.00</rpm>
</extensions>
</trkpt>
<trkpt lat="63.893680573" lon="-18.700227737">
<ele>491.609375</ele>
<time>2012-07-25T12:23:12Z</time>
<speed>2.630000</speed>
<extensions>
<speed>2.6</speed>
<temp>0.00</temp>
<bpm>0</bpm>
<rpm>0.00</rpm>
</extensions>
</trkpt>
<trkpt lat="63.893562317" lon="-18.700361252">
<ele>490.882813</ele>
<time>2012-07-25T12:23:17Z</time>
<speed>3.060000</speed>
<extensions>
<speed>3.1</speed>
<temp>0.00</temp>
<bpm>0</bpm>
<rpm>0.00</rpm>
</extensions>
</trkpt>
<trkpt lat="63.893436432" lon="-18.700523376">
<ele>490.765625</ele>
<time>2012-07-25T12:23:22Z</time>
<speed>2.940000</speed>
<extensions>
<speed>2.9</speed>
<temp>0.00</temp>
<bpm>0</bpm>
<rpm>0.00</rpm>
</extensions>
</trkpt>
<trkpt lat="63.893310547" lon="-18.700689316">
<ele>489.296875</ele>
<time>2012-07-25T12:23:27Z</time>
<speed>3.170000</speed>
<extensions>
<speed>3.2</speed>
<temp>0.00</temp>
<bpm>0</bpm>
<rpm>0.00</rpm>
</extensions>
</trkpt>
<trkpt lat="63.893199921" lon="-18.700843811">
<ele>488.250000</ele>
<time>2012-07-25T12:23:32Z</time>
<speed>3.050000</speed>
<extensions>
<speed>3.0</speed>
<temp>0.00</temp>
<bpm>0</bpm>
<rpm>0.00</rpm>
</extensions>
</trkpt>
<trkpt lat="63.893062592" lon="-18.701002121">
<ele>488.359375</ele>
<time>2012-07-25T12:23:37Z</time>
<speed>3.580000</speed>
<extensions>
<speed>3.6</speed>
<temp>0.00</temp>
<bpm>0</bpm>
<rpm>0.00</rpm>
</extensions>
</trkpt>
<trkpt lat="63.892955780" lon="-18.701194763">
<ele>492.570313</ele>
<time>2012-07-25T12:23:42Z</time>
<speed>2.870000</speed>
<extensions>
<speed>2.9</speed>
<temp>0.00</temp>
<bpm>0</bpm>
<rpm>0.00</rpm>
</extensions>
</trkpt>
<trkpt lat="63.892856598" lon="-18.701492310">
<ele>491.875000</ele>
<time>2012-07-25T12:23:47Z</time>
<speed>3.770000</speed>
<extensions>
<speed>3.8</speed>
<temp>0.00</temp>
<bpm>0</bpm>
<rpm>0.00</rpm>
</extensions>
</trkpt>
<trkpt lat="63.892742157" lon="-18.701784134">
<ele>490.812500</ele>
<time>2012-07-25T12:23:52Z</time>
<speed>3.580000</speed>
<extensions>
<speed>3.6</speed>
<temp>0.00</temp>
<bpm>0</bpm>
<rpm>0.00</rpm>
</extensions>
</trkpt>
<trkpt lat="63.892601013" lon="-18.702003479">
<ele>491.093750</ele>
<time>2012-07-25T12:23:57Z</time>
<speed>3.970000</speed>
<extensions>
<speed>4.0</speed>
<temp>0.00</temp>
<bpm>0</bpm>
<rpm>0.00</rpm>
</extensions>
</trkpt>
<trkpt lat="63.892459869" lon="-18.702138901">
<ele>491.796875</ele>
<time>2012-07-25T12:24:02Z</time>
<speed>3.750000</speed>
<extensions>
<speed>3.8</speed>
<temp>0.00</temp>
<bpm>0</bpm>
<rpm>0.00</rpm>
</extensions>
</trkpt>
<trkpt lat="63.892295837" lon="-18.702272415">
<ele>493.523438</ele>
<time>2012-07-25T12:24:07Z</time>
<speed>3.860000</speed>
<extensions>
<speed>3.9</speed>
<temp>0.00</temp>
<bpm>0</bpm>
<rpm>0.00</rpm>
</extensions>
</trkpt>
<trkpt lat="63.892147064" lon="-18.702451706">
<ele>494.351563</ele>
<time>2012-07-25T12:24:12Z</time>
<speed>3.760000</speed>
<extensions>
<speed>3.8</speed>
<temp>0.00</temp>
<bpm>0</bpm>
<rpm>0.00</rpm>
</extensions>
</trkpt>
<trkpt lat="63.891979218" lon="-18.702600479">
<ele>493.984375</ele>
<time>2012-07-25T12:24:17Z</time>
<speed>3.620000</speed>
<extensions>
<speed>3.6</speed>
<temp>0.00</temp>
<bpm>0</bpm>
<rpm>0.00</rpm>
</extensions>
</trkpt>
<trkpt lat="63.891822815" lon="-18.702756882">
<ele>493.140625</ele>
<time>2012-07-25T12:24:22Z</time>
<speed>3.850000</speed>
<extensions>
<speed>3.8</speed>
<temp>0.00</temp>
<bpm>0</bpm>
<rpm>0.00</rpm>
</extensions>
</trkpt>
<trkpt lat="63.891662598" lon="-18.702932358">
<ele>492.703125</ele>
<time>2012-07-25T12:24:27Z</time>
<speed>3.770000</speed>
<extensions>
<speed>3.8</speed>
<temp>0.00</temp>
<bpm>0</bpm>
<rpm>0.00</rpm>
</extensions>
</trkpt>
<trkpt lat="63.891582489" lon="-18.702964783">
<ele>489.953125</ele>
<time>2012-07-25T12:24:32Z</time>
<speed>0.080000</speed>
<extensions>
<speed>0.1</speed>
<temp>0.00</temp>
<bpm>0</bpm>
<rpm>0.00</rpm>
</extensions>
</trkpt>
<trkpt lat="63.891586304" lon="-18.702970505">
<ele>488.179688</ele>
<time>2012-07-25T12:24:37Z</time>
<extensions>
<speed>0.0</speed>
<temp>0.00</temp>
<bpm>0</bpm>
<rpm>0.00</rpm>
</extensions>
</trkpt>
<trkpt lat="63.891586304" lon="-18.702962875">
<ele>488.203125</ele>
<time>2012-07-25T12:24:42Z</time>
<speed>0.070000</speed>
<extensions>
<speed>0.1</speed>
<temp>0.00</temp>
<bpm>0</bpm>
<rpm>0.00</rpm>
</extensions>
</trkpt>
<trkpt lat="63.891586304" lon="-18.702960968">
<ele>488.179688</ele>
<time>2012-07-25T12:24:47Z</time>
<speed>0.020000</speed>
<extensions>
<speed>0.0</speed>
<temp>0.00</temp>
<bpm>0</bpm>
<rpm>0.00</rpm>
</extensions>
</trkpt>
<trkpt lat="63.891586304" lon="-18.702962875">
<ele>488.179688</ele>
<time>2012-07-25T12:24:52Z</time>
<speed>0.010000</speed>
<extensions>
<speed>0.0</speed>
<temp>0.00</temp>
<bpm>0</bpm>
<rpm>0.00</rpm>
</extensions>
</trkpt>
<trkpt lat="63.891586304" lon="-18.702966690">
<ele>488.156250</ele>
<time>2012-07-25T12:24:57Z</time>
<speed>0.070000</speed>
<extensions>
<speed>0.1</speed>
<temp>0.00</temp>
<bpm>0</bpm>
<rpm>0.00</rpm>
</extensions>
</trkpt>
<trkpt lat="63.891582489" lon="-18.702978134">
<ele>488.156250</ele>
<time>2012-07-25T12:25:02Z</time>
<speed>0.210000</speed>
<extensions>
<speed>0.2</speed>
<temp>0.00</temp>
<bpm>0</bpm>
<rpm>0.00</rpm>
</extensions>
</trkpt>
<trkpt lat="63.891582489" lon="-18.702959061">
<ele>488.117188</ele>
<time>2012-07-25T12:25:07Z</time>
<speed>0.020000</speed>
<extensions>
<speed>0.0</speed>
<temp>0.00</temp>
<bpm>0</bpm>
<rpm>0.00</rpm>
</extensions>
</trkpt>
<trkpt lat="63.891582489" lon="-18.702959061">
<ele>488.101563</ele>
<time>2012-07-25T12:25:12Z</time>
<speed>0.040000</speed>
<extensions>
<speed>0.0</speed>
<temp>0.00</temp>
<bpm>0</bpm>
<rpm>0.00</rpm>
</extensions>
</trkpt>
<trkpt lat="63.891586304" lon="-18.702960968">
<ele>488.078125</ele>
<time>2012-07-25T12:25:17Z</time>
<speed>0.010000</speed>
<extensions>
<speed>0.0</speed>
<temp>0.00</temp>
<bpm>0</bpm>
<rpm>0.00</rpm>
</extensions>
</trkpt>
<trkpt lat="63.891586304" lon="-18.702960968">
<ele>488.046875</ele>
<time>2012-07-25T12:25:22Z</time>
<speed>0.020000</speed>
<extensions>
<speed>0.0</speed>
<temp>0.00</temp>
<bpm>0</bpm>
<rpm>0.00</rpm>
</extensions>
</trkpt>
<trkpt lat="63.891586304" lon="-18.702962875">
<ele>488.023438</ele>
<time>2012-07-25T12:25:27Z</time>
<speed>0.010000</speed>
<extensions>
<speed>0.0</speed>
<temp>0.00</temp>
<bpm>0</bpm>
<rpm>0.00</rpm>
</extensions>
</trkpt>
<trkpt lat="63.891582489" lon="-18.702960968">
<ele>488.007813</ele>
<time>2012-07-25T12:25:32Z</time>
<extensions>
<speed>0.0</speed>
<temp>0.00</temp>
<bpm>0</bpm>
<rpm>0.00</rpm>
</extensions>
</trkpt>
<trkpt lat="63.891582489" lon="-18.702959061">
<ele>488.000000</ele>
<time>2012-07-25T12:25:37Z</time>
<speed>0.020000</speed>
<extensions>
<speed>0.0</speed>
<temp>0.00</temp>
<bpm>0</bpm>
<rpm>0.00</rpm>
</extensions>
</trkpt>
<trkpt lat="63.891586304" lon="-18.702955246">
<ele>488.000000</ele>
<time>2012-07-25T12:25:42Z</time>
<speed>0.030000</speed>
<extensions>
<speed>0.0</speed>
<temp>0.00</temp>
<bpm>0</bpm>
<rpm>0.00</rpm>
</extensions>
</trkpt>
<trkpt lat="63.891590118" lon="-18.702959061">
<ele>487.992188</ele>
<time>2012-07-25T12:25:47Z</time>
<speed>0.020000</speed>
<extensions>
<speed>0.0</speed>
<temp>0.00</temp>
<bpm>0</bpm>
<rpm>0.00</rpm>
</extensions>
</trkpt>
<trkpt lat="63.891590118" lon="-18.702959061">
<ele>487.984375</ele>
<time>2012-07-25T12:25:52Z</time>
<speed>0.080000</speed>
<extensions>
<speed>0.1</speed>
<temp>0.00</temp>
<bpm>0</bpm>
<rpm>0.00</rpm>
</extensions>
</trkpt>
<trkpt lat="63.891593933" lon="-18.702957153">
<ele>487.976563</ele>
<time>2012-07-25T12:25:57Z</time>
<speed>0.110000</speed>
<extensions>
<speed>0.1</speed>
<temp>0.00</temp>
<bpm>0</bpm>
<rpm>0.00</rpm>
</extensions>
</trkpt>
<trkpt lat="63.891590118" lon="-18.702962875">
<ele>487.976563</ele>
<time>2012-07-25T12:26:02Z</time>
<speed>0.130000</speed>
<extensions>
<speed>0.1</speed>
<temp>0.00</temp>
<bpm>0</bpm>
<rpm>0.00</rpm>
</extensions>
</trkpt>
<trkpt lat="63.891586304" lon="-18.702972412">
<ele>487.968750</ele>
<time>2012-07-25T12:26:07Z</time>
<speed>0.050000</speed>
<extensions>
<speed>0.1</speed>
<temp>0.00</temp>
<bpm>0</bpm>
<rpm>0.00</rpm>
</extensions>
</trkpt>
<trkpt lat="63.891586304" lon="-18.702978134">
<ele>487.953125</ele>
<time>2012-07-25T12:26:12Z</time>
<speed>0.160000</speed>
<extensions>
<speed>0.2</speed>
<temp>0.00</temp>
<bpm>0</bpm>
<rpm>0.00</rpm>
</extensions>
</trkpt>
<trkpt lat="63.891590118" lon="-18.702991486">
<ele>487.945313</ele>
<time>2012-07-25T12:26:17Z</time>
<speed>0.130000</speed>
<extensions>
<speed>0.1</speed>
<temp>0.00</temp>
<bpm>0</bpm>
<rpm>0.00</rpm>
</extensions>
</trkpt>
<trkpt lat="63.891590118" lon="-18.702995300">
<ele>487.937500</ele>
<time>2012-07-25T12:26:22Z</time>
<speed>0.040000</speed>
<extensions>
<speed>0.0</speed>
<temp>0.00</temp>
<bpm>0</bpm>
<rpm>0.00</rpm>
</extensions>
</trkpt>
<trkpt lat="63.891586304" lon="-18.702997208">
<ele>487.929688</ele>
<time>2012-07-25T12:26:27Z</time>
<speed>0.030000</speed>
<extensions>
<speed>0.0</speed>
<temp>0.00</temp>
<bpm>0</bpm>
<rpm>0.00</rpm>
</extensions>
</trkpt>
<trkpt lat="63.891586304" lon="-18.702993393">
<ele>487.906250</ele>
<time>2012-07-25T12:26:32Z</time>
<speed>0.030000</speed>
<extensions>
<speed>0.0</speed>
<temp>0.00</temp>
<bpm>0</bpm>
<rpm>0.00</rpm>
</extensions>
</trkpt>
<trkpt lat="63.891590118" lon="-18.702993393">
<ele>487.898438</ele>
<time>2012-07-25T12:26:37Z</time>
<speed>0.030000</speed>
<extensions>
<speed>0.0</speed>
<temp>0.00</temp>
<bpm>0</bpm>
<rpm>0.00</rpm>
</extensions>
</trkpt>
<trkpt lat="63.891590118" lon="-18.702991486">
<ele>487.898438</ele>
<time>2012-07-25T12:26:42Z</time>
<speed>0.050000</speed>
<extensions>
<speed>0.1</speed>
<temp>0.00</temp>
<bpm>0</bpm>
<rpm>0.00</rpm>
</extensions>
</trkpt>
<trkpt lat="63.891590118" lon="-18.702993393">
<ele>487.898438</ele>
<time>2012-07-25T12:26:47Z</time>
<speed>0.080000</speed>
<extensions>
<speed>0.1</speed>
<temp>0.00</temp>
<bpm>0</bpm>
<rpm>0.00</rpm>
</extensions>
</trkpt>
<trkpt lat="63.891586304" lon="-18.702995300">
<ele>487.890625</ele>
<time>2012-07-25T12:26:52Z</time>
<speed>0.120000</speed>
<extensions>
<speed>0.1</speed>
<temp>0.00</temp>
<bpm>0</bpm>
<rpm>0.00</rpm>
</extensions>
</trkpt>
<trkpt lat="63.891582489" lon="-18.702997208">
<ele>487.890625</ele>
<time>2012-07-25T12:26:57Z</time>
<extensions>
<speed>0.0</speed>
<temp>0.00</temp>
<bpm>0</bpm>
<rpm>0.00</rpm>
</extensions>
</trkpt>
<trkpt lat="63.891582489" lon="-18.702993393">
<ele>487.882813</ele>
<time>2012-07-25T12:27:02Z</time>
<speed>0.050000</speed>
<extensions>
<speed>0.1</speed>
<temp>0.00</temp>
<bpm>0</bpm>
<rpm>0.00</rpm>
</extensions>
</trkpt>
<trkpt lat="63.891586304" lon="-18.702997208">
<ele>487.875000</ele>
<time>2012-07-25T12:27:07Z</time>
<speed>0.040000</speed>
<extensions>
<speed>0.0</speed>
<temp>0.00</temp>
<bpm>0</bpm>
<rpm>0.00</rpm>
</extensions>
</trkpt>
<trkpt lat="63.891586304" lon="-18.702997208">
<ele>487.898438</ele>
<time>2012-07-25T12:27:12Z</time>
<speed>0.070000</speed>
<extensions>
<speed>0.1</speed>
<temp>0.00</temp>
<bpm>0</bpm>
<rpm>0.00</rpm>
</extensions>
</trkpt>
<trkpt lat="63.891586304" lon="-18.702997208">
<ele>487.859375</ele>
<time>2012-07-25T12:27:17Z</time>
<extensions>
<speed>0.0</speed>
<temp>0.00</temp>
<bpm>0</bpm>
<rpm>0.00</rpm>
</extensions>
</trkpt>
<trkpt lat="63.891586304" lon="-18.702999115">
<ele>487.695313</ele>
<time>2012-07-25T12:27:22Z</time>
<speed>0.030000</speed>
<extensions>
<speed>0.0</speed>
<temp>0.00</temp>
<bpm>0</bpm>
<rpm>0.00</rpm>
</extensions>
</trkpt>
<trkpt lat="63.891586304" lon="-18.702999115">
<ele>487.640625</ele>
<time>2012-07-25T12:27:27Z</time>
<speed>0.020000</speed>
<extensions>
<speed>0.0</speed>
<temp>0.00</temp>
<bpm>0</bpm>
<rpm>0.00</rpm>
</extensions>
</trkpt>
<trkpt lat="63.891586304" lon="-18.702999115">
<ele>487.632813</ele>
<time>2012-07-25T12:27:32Z</time>
<extensions>
<speed>0.0</speed>
<temp>0.00</temp>
<bpm>0</bpm>
<rpm>0.00</rpm>
</extensions>
</trkpt>
<trkpt lat="63.891586304" lon="-18.702999115">
<ele>487.617188</ele>
<time>2012-07-25T12:27:37Z</time>
<speed>0.040000</speed>
<extensions>
<speed>0.0</speed>
<temp>0.00</temp>
<bpm>0</bpm>
<rpm>0.00</rpm>
</extensions>
</trkpt>
<trkpt lat="63.891586304" lon="-18.702999115">
<ele>487.609375</ele>
<time>2012-07-25T12:27:42Z</time>
<speed>0.010000</speed>
<extensions>
<speed>0.0</speed>
<temp>0.00</temp>
<bpm>0</bpm>
<rpm>0.00</rpm>
</extensions>
</trkpt>
<trkpt lat="63.891586304" lon="-18.702999115">
<ele>487.601563</ele>
<time>2012-07-25T12:27:47Z</time>
<extensions>
<speed>0.0</speed>
<temp>0.00</temp>
<bpm>0</bpm>
<rpm>0.00</rpm>
</extensions>
</trkpt>
<trkpt lat="63.891586304" lon="-18.702999115">
<ele>487.609375</ele>
<time>2012-07-25T12:27:52Z</time>
<extensions>
<speed>0.0</speed>
<temp>0.00</temp>
<bpm>0</bpm>
<rpm>0.00</rpm>
</extensions>
</trkpt>
<trkpt lat="63.891586304" lon="-18.702999115">
<ele>487.617188</ele>
<time>2012-07-25T12:27:57Z</time>
<speed>0.010000</speed>
<extensions>
<speed>0.0</speed>
<temp>0.00</temp>
<bpm>0</bpm>
<rpm>0.00</rpm>
</extensions>
</trkpt>
<trkpt lat="63.891586304" lon="-18.702999115">
<ele>487.609375</ele>
<time>2012-07-25T12:28:02Z</time>
<speed>0.010000</speed>
<extensions>
<speed>0.0</speed>
<temp>0.00</temp>
<bpm>0</bpm>
<rpm>0.00</rpm>
</extensions>
</trkpt>
<trkpt lat="63.891586304" lon="-18.702999115">
<ele>487.601563</ele>
<time>2012-07-25T12:28:07Z</time>
<speed>0.020000</speed>
<extensions>
<speed>0.0</speed>
<temp>0.00</temp>
<bpm>0</bpm>
<rpm>0.00</rpm>
</extensions>
</trkpt>
<trkpt lat="63.891586304" lon="-18.702999115">
<ele>487.593750</ele>
<time>2012-07-25T12:28:12Z</time>
<speed>0.060000</speed>
<extensions>
<speed>0.1</speed>
<temp>0.00</temp>
<bpm>0</bpm>
<rpm>0.00</rpm>
</extensions>
</trkpt>
<trkpt lat="63.891586304" lon="-18.702999115">
<ele>487.585938</ele>
<time>2012-07-25T12:28:17Z</time>
<extensions>
<speed>0.0</speed>
<temp>0.00</temp>
<bpm>0</bpm>
<rpm>0.00</rpm>
</extensions>
</trkpt>
<trkpt lat="63.891586304" lon="-18.702999115">
<ele>487.585938</ele>
<time>2012-07-25T12:28:22Z</time>
<extensions>
<speed>0.0</speed>
<temp>0.00</temp>
<bpm>0</bpm>
<rpm>0.00</rpm>
</extensions>
</trkpt>
<trkpt lat="63.891586304" lon="-18.702999115">
<ele>487.585938</ele>
<time>2012-07-25T12:28:27Z</time>
<speed>0.010000</speed>
<extensions>
<speed>0.0</speed>
<temp>0.00</temp>
<bpm>0</bpm>
<rpm>0.00</rpm>
</extensions>
</trkpt>
<trkpt lat="63.891586304" lon="-18.702999115">
<ele>487.585938</ele>
<time>2012-07-25T12:28:32Z</time>
<speed>0.090000</speed>
<extensions>
<speed>0.1</speed>
<temp>0.00</temp>
<bpm>0</bpm>
<rpm>0.00</rpm>
</extensions>
</trkpt>
<trkpt lat="63.891548157" lon="-18.702999115">
<ele>487.359375</ele>
<time>2012-07-25T12:28:37Z</time>
<speed>1.580000</speed>
<extensions>
<speed>1.6</speed>
<temp>0.00</temp>
<bpm>0</bpm>
<rpm>0.00</rpm>
</extensions>
</trkpt>
<trkpt lat="63.891445160" lon="-18.702939987">
<ele>486.492188</ele>
<time>2012-07-25T12:28:42Z</time>
<speed>2.640000</speed>
<extensions>
<speed>2.6</speed>
<temp>0.00</temp>
<bpm>0</bpm>
<rpm>0.00</rpm>
</extensions>
</trkpt>
<trkpt lat="63.891380310" lon="-18.702754974">
<ele>486.484375</ele>
<time>2012-07-25T12:28:47Z</time>
<speed>1.050000</speed>
<extensions>
<speed>1.0</speed>
<temp>0.00</temp>
<bpm>0</bpm>
<rpm>0.00</rpm>
</extensions>
</trkpt>
<trkpt lat="63.891330719" lon="-18.702590942">
<ele>486.203125</ele>
<time>2012-07-25T12:28:52Z</time>
<speed>1.710000</speed>
<extensions>
<speed>1.7</speed>
<temp>0.00</temp>
<bpm>0</bpm>
<rpm>0.00</rpm>
</extensions>
</trkpt>
<trkpt lat="63.891273499" lon="-18.702499390">
<ele>486.101563</ele>
<time>2012-07-25T12:28:57Z</time>
<speed>2.100000</speed>
<extensions>
<speed>2.1</speed>
<temp>0.00</temp>
<bpm>0</bpm>
<rpm>0.00</rpm>
</extensions>
</trkpt>
<trkpt lat="63.891201019" lon="-18.702438354">
<ele>485.750000</ele>
<time>2012-07-25T12:29:02Z</time>
<speed>2.420000</speed>
<extensions>
<speed>2.4</speed>
<temp>0.00</temp>
<bpm>0</bpm>
<rpm>0.00</rpm>
</extensions>
</trkpt>
<trkpt lat="63.891105652" lon="-18.702327728">
<ele>484.953125</ele>
<time>2012-07-25T12:29:07Z</time>
<speed>2.220000</speed>
<extensions>
<speed>2.2</speed>
<temp>0.00</temp>
<bpm>0</bpm>
<rpm>0.00</rpm>
</extensions>
</trkpt>
<trkpt lat="63.891006470" lon="-18.702213287">
<ele>484.640625</ele>
<time>2012-07-25T12:29:12Z</time>
<speed>2.720000</speed>
<extensions>
<speed>2.7</speed>
<temp>0.00</temp>
<bpm>0</bpm>
<rpm>0.00</rpm>
</extensions>
</trkpt>
<trkpt lat="63.890888214" lon="-18.702075958">
<ele>484.773438</ele>
<time>2012-07-25T12:29:17Z</time>
<speed>2.540000</speed>
<extensions>
<speed>2.5</speed>
<temp>0.00</temp>
<bpm>0</bpm>
<rpm>0.00</rpm>
</extensions>
</trkpt>
<trkpt lat="63.890773773" lon="-18.701999664">
<ele>484.531250</ele>
<time>2012-07-25T12:29:22Z</time>
<speed>2.270000</speed>
<extensions>
<speed>2.3</speed>
<temp>0.00</temp>
<bpm>0</bpm>
<rpm>0.00</rpm>
</extensions>
</trkpt>
<trkpt lat="63.890666962" lon="-18.701841354">
<ele>484.460938</ele>
<time>2012-07-25T12:29:27Z</time>
<speed>2.930000</speed>
<extensions>
<speed>2.9</speed>
<temp>0.00</temp>
<bpm>0</bpm>
<rpm>0.00</rpm>
</extensions>
</trkpt>
<trkpt lat="63.890560150" lon="-18.701507568">
<ele>486.937500</ele>
<time>2012-07-25T12:29:32Z</time>
<speed>3.270000</speed>
<extensions>
<speed>3.3</speed>
<temp>0.00</temp>
<bpm>0</bpm>
<rpm>0.00</rpm>
</extensions>
</trkpt>
<trkpt lat="63.890483856" lon="-18.701290131">
<ele>485.242188</ele>
<time>2012-07-25T12:29:37Z</time>
<speed>2.690000</speed>
<extensions>
<speed>2.7</speed>
<temp>0.00</temp>
<bpm>0</bpm>
<rpm>0.00</rpm>
</extensions>
</trkpt>
<trkpt lat="63.890426636" lon="-18.701103210">
<ele>483.546875</ele>
<time>2012-07-25T12:29:42Z</time>
<speed>2.350000</speed>
<extensions>
<speed>2.4</speed>
<temp>0.00</temp>
<bpm>0</bpm>
<rpm>0.00</rpm>
</extensions>
</trkpt>
<trkpt lat="63.890338898" lon="-18.700923920">
<ele>484.296875</ele>
<time>2012-07-25T12:29:47Z</time>
<speed>2.030000</speed>
<extensions>
<speed>2.0</speed>
<temp>0.00</temp>
<bpm>0</bpm>
<rpm>0.00</rpm>
</extensions>
</trkpt>
<trkpt lat="63.890296936" lon="-18.700826645">
<ele>485.023438</ele>
<time>2012-07-25T12:29:52Z</time>
<speed>0.310000</speed>
<extensions>
<speed>0.3</speed>
<temp>0.00</temp>
<bpm>0</bpm>
<rpm>0.00</rpm>
</extensions>
</trkpt>
<trkpt lat="63.890300751" lon="-18.700799942">
<ele>484.296875</ele>
<time>2012-07-25T12:29:57Z</time>
<speed>0.130000</speed>
<extensions>
<speed>0.1</speed>
<temp>0.00</temp>
<bpm>0</bpm>
<rpm>0.00</rpm>
</extensions>
</trkpt>
<trkpt lat="63.890304565" lon="-18.700803757">
<ele>484.203125</ele>
<time>2012-07-25T12:30:02Z</time>
<speed>0.210000</speed>
<extensions>
<speed>0.2</speed>
<temp>0.00</temp>
<bpm>0</bpm>
<rpm>0.00</rpm>
</extensions>
</trkpt>
<trkpt lat="63.890312195" lon="-18.700801849">
<ele>484.148438</ele>
<time>2012-07-25T12:30:07Z</time>
<speed>0.120000</speed>
<extensions>
<speed>0.1</speed>
<temp>0.00</temp>
<bpm>0</bpm>
<rpm>0.00</rpm>
</extensions>
</trkpt>
<trkpt lat="63.890308380" lon="-18.700822830">
<ele>484.187500</ele>
<time>2012-07-25T12:30:12Z</time>
<speed>0.060000</speed>
<extensions>
<speed>0.1</speed>
<temp>0.00</temp>
<bpm>0</bpm>
<rpm>0.00</rpm>
</extensions>
</trkpt>
<trkpt lat="63.890300751" lon="-18.700794220">
<ele>483.851563</ele>
<time>2012-07-25T12:30:17Z</time>
<extensions>
<speed>0.0</speed>
<temp>0.00</temp>
<bpm>0</bpm>
<rpm>0.00</rpm>
</extensions>
</trkpt>
<trkpt lat="63.890300751" lon="-18.700796127">
<ele>483.820313</ele>
<time>2012-07-25T12:30:22Z</time>
<speed>0.010000</speed>
<extensions>
<speed>0.0</speed>
<temp>0.00</temp>
<bpm>0</bpm>
<rpm>0.00</rpm>
</extensions>
</trkpt>
<trkpt lat="63.890300751" lon="-18.700796127">
<ele>483.914063</ele>
<time>2012-07-25T12:30:27Z</time>
<extensions>
<speed>0.0</speed>
<temp>0.00</temp>
<bpm>0</bpm>
<rpm>0.00</rpm>
</extensions>
</trkpt>
<trkpt lat="63.890304565" lon="-18.700796127">
<ele>484.039063</ele>
<time>2012-07-25T12:30:32Z</time>
<speed>0.030000</speed>
<extensions>
<speed>0.0</speed>
<temp>0.00</temp>
<bpm>0</bpm>
<rpm>0.00</rpm>
</extensions>
</trkpt>
<trkpt lat="63.890300751" lon="-18.700792313">
<ele>484.273438</ele>
<time>2012-07-25T12:30:37Z</time>
<speed>0.150000</speed>
<extensions>
<speed>0.2</speed>
<temp>0.00</temp>
<bpm>0</bpm>
<rpm>0.00</rpm>
</extensions>
</trkpt>
<trkpt lat="63.890300751" lon="-18.700790405">
<ele>484.257813</ele>
<time>2012-07-25T12:30:42Z</time>
<speed>0.440000</speed>
<extensions>
<speed>0.4</speed>
<temp>0.00</temp>
<bpm>0</bpm>
<rpm>0.00</rpm>
</extensions>
</trkpt>
<trkpt lat="63.890247345" lon="-18.700719833">
<ele>484.414063</ele>
<time>2012-07-25T12:30:47Z</time>
<speed>3.080000</speed>
<extensions>
<speed>3.1</speed>
<temp>0.00</temp>
<bpm>0</bpm>
<rpm>0.00</rpm>
</extensions>
</trkpt>
<trkpt lat="63.890102386" lon="-18.700550079">
<ele>484.226563</ele>
<time>2012-07-25T12:30:52Z</time>
<speed>4.390000</speed>
<extensions>
<speed>4.4</speed>
<temp>0.00</temp>
<bpm>0</bpm>
<rpm>0.00</rpm>
</extensions>
</trkpt>
<trkpt lat="63.889949799" lon="-18.700384140">
<ele>482.648438</ele>
<time>2012-07-25T12:30:57Z</time>
<speed>3.870000</speed>
<extensions>
<speed>3.9</speed>
<temp>0.00</temp>
<bpm>0</bpm>
<rpm>0.00</rpm>
</extensions>
</trkpt>
<trkpt lat="63.889797211" lon="-18.700210571">
<ele>482.070313</ele>
<time>2012-07-25T12:31:02Z</time>
<speed>3.860000</speed>
<extensions>
<speed>3.9</speed>
<temp>0.00</temp>
<bpm>0</bpm>
<rpm>0.00</rpm>
</extensions>
</trkpt>
<trkpt lat="63.889671326" lon="-18.700149536">
<ele>481.804688</ele>
<time>2012-07-25T12:31:07Z</time>
<speed>2.690000</speed>
<extensions>
<speed>2.7</speed>
<temp>0.00</temp>
<bpm>0</bpm>
<rpm>0.00</rpm>
</extensions>
</trkpt>
<trkpt lat="63.889518738" lon="-18.700178146">
<ele>482.289063</ele>
<time>2012-07-25T12:31:12Z</time>
<speed>3.660000</speed>
<extensions>
<speed>3.7</speed>
<temp>0.00</temp>
<bpm>0</bpm>
<rpm>0.00</rpm>
</extensions>
</trkpt>
<trkpt lat="63.889331818" lon="-18.700185776">
<ele>482.265625</ele>
<time>2012-07-25T12:31:17Z</time>
<speed>4.230000</speed>
<extensions>
<speed>4.2</speed>
<temp>0.00</temp>
<bpm>0</bpm>
<rpm>0.00</rpm>
</extensions>
</trkpt>
<trkpt lat="63.889152527" lon="-18.700248718">
<ele>481.437500</ele>
<time>2012-07-25T12:31:22Z</time>
<speed>4.200000</speed>
<extensions>
<speed>4.2</speed>
<temp>0.00</temp>
<bpm>0</bpm>
<rpm>0.00</rpm>
</extensions>
</trkpt>
<trkpt lat="63.888980865" lon="-18.700286865">
<ele>481.171875</ele>
<time>2012-07-25T12:31:27Z</time>
<speed>3.730000</speed>
<extensions>
<speed>3.7</speed>
<temp>0.00</temp>
<bpm>0</bpm>
<rpm>0.00</rpm>
</extensions>
</trkpt>
<trkpt lat="63.888832092" lon="-18.700254440">
<ele>481.515625</ele>
<time>2012-07-25T12:31:32Z</time>
<speed>3.020000</speed>
<extensions>
<speed>3.0</speed>
<temp>0.00</temp>
<bpm>0</bpm>
<rpm>0.00</rpm>
</extensions>
</trkpt>
<trkpt lat="63.888710022" lon="-18.700254440">
<ele>481.117188</ele>
<time>2012-07-25T12:31:37Z</time>
<speed>3.040000</speed>
<extensions>
<speed>3.0</speed>
<temp>0.00</temp>
<bpm>0</bpm>
<rpm>0.00</rpm>
</extensions>
</trkpt>
<trkpt lat="63.888603210" lon="-18.700302124">
<ele>482.585938</ele>
<time>2012-07-25T12:31:42Z</time>
<speed>2.210000</speed>
<extensions>
<speed>2.2</speed>
<temp>0.00</temp>
<bpm>0</bpm>
<rpm>0.00</rpm>
</extensions>
</trkpt>
<trkpt lat="63.888526917" lon="-18.700433731">
<ele>484.820313</ele>
<time>2012-07-25T12:31:47Z</time>
<speed>2.140000</speed>
<extensions>
<speed>2.1</speed>
<temp>0.00</temp>
<bpm>0</bpm>
<rpm>0.00</rpm>
</extensions>
</trkpt>
<trkpt lat="63.888458252" lon="-18.700607300">
<ele>485.429688</ele>
<time>2012-07-25T12:31:52Z</time>
<speed>1.990000</speed>
<extensions>
<speed>2.0</speed>
<temp>0.00</temp>
<bpm>0</bpm>
<rpm>0.00</rpm>
</extensions>
</trkpt>
<trkpt lat="63.888370514" lon="-18.700740814">
<ele>486.523438</ele>
<time>2012-07-25T12:31:57Z</time>
<speed>2.400000</speed>
<extensions>
<speed>2.4</speed>
<temp>0.00</temp>
<bpm>0</bpm>
<rpm>0.00</rpm>
</extensions>
</trkpt>
<trkpt lat="63.888278961" lon="-18.700872421">
<ele>486.609375</ele>
<time>2012-07-25T12:32:02Z</time>
<speed>2.520000</speed>
<extensions>
<speed>2.5</speed>
<temp>0.00</temp>
<bpm>0</bpm>
<rpm>0.00</rpm>
</extensions>
</trkpt>
<trkpt lat="63.888191223" lon="-18.701036453">
<ele>486.843750</ele>
<time>2012-07-25T12:32:07Z</time>
<speed>2.540000</speed>
<extensions>
<speed>2.5</speed>
<temp>0.00</temp>
<bpm>0</bpm>
<rpm>0.00</rpm>
</extensions>
</trkpt>
<trkpt lat="63.888084412" lon="-18.701168060">
<ele>486.953125</ele>
<time>2012-07-25T12:32:12Z</time>
<speed>3.140000</speed>
<extensions>
<speed>3.1</speed>
<temp>0.00</temp>
<bpm>0</bpm>
<rpm>0.00</rpm>
</extensions>
</trkpt>
<trkpt lat="63.887943268" lon="-18.701282501">
<ele>488.343750</ele>
<time>2012-07-25T12:32:17Z</time>
<speed>3.500000</speed>
<extensions>
<speed>3.5</speed>
<temp>0.00</temp>
<bpm>0</bpm>
<rpm>0.00</rpm>
</extensions>
</trkpt>
<trkpt lat="63.887802124" lon="-18.701404572">
<ele>488.507813</ele>
<time>2012-07-25T12:32:22Z</time>
<speed>3.620000</speed>
<extensions>
<speed>3.6</speed>
<temp>0.00</temp>
<bpm>0</bpm>
<rpm>0.00</rpm>
</extensions>
</trkpt>
<trkpt lat="63.887676239" lon="-18.701545715">
<ele>490.109375</ele>
<time>2012-07-25T12:32:27Z</time>
<speed>2.780000</speed>
<extensions>
<speed>2.8</speed>
<temp>0.00</temp>
<bpm>0</bpm>
<rpm>0.00</rpm>
</extensions>
</trkpt>
<trkpt lat="63.887531281" lon="-18.701602936">
<ele>490.195313</ele>
<time>2012-07-25T12:32:32Z</time>
<speed>3.310000</speed>
<extensions>
<speed>3.3</speed>
<temp>0.00</temp>
<bpm>0</bpm>
<rpm>0.00</rpm>
</extensions>
</trkpt>
<trkpt lat="63.887393951" lon="-18.701700211">
<ele>489.273438</ele>
<time>2012-07-25T12:32:37Z</time>
<speed>3.110000</speed>
<extensions>
<speed>3.1</speed>
<temp>0.00</temp>
<bpm>0</bpm>
<rpm>0.00</rpm>
</extensions>
</trkpt>
<trkpt lat="63.887287140" lon="-18.701850891">
<ele>488.031250</ele>
<time>2012-07-25T12:32:42Z</time>
<speed>3.060000</speed>
<extensions>
<speed>3.1</speed>
<temp>0.00</temp>
<bpm>0</bpm>
<rpm>0.00</rpm>
</extensions>
</trkpt>
<trkpt lat="63.887161255" lon="-18.701919556">
<ele>488.578125</ele>
<time>2012-07-25T12:32:47Z</time>
<speed>2.570000</speed>
<extensions>
<speed>2.6</speed>
<temp>0.00</temp>
<bpm>0</bpm>
<rpm>0.00</rpm>
</extensions>
</trkpt>
<trkpt lat="63.887065887" lon="-18.701978683">
<ele>488.531250</ele>
<time>2012-07-25T12:32:52Z</time>
<speed>2.050000</speed>
<extensions>
<speed>2.1</speed>
<temp>0.00</temp>
<bpm>0</bpm>
<rpm>0.00</rpm>
</extensions>
</trkpt>
<trkpt lat="63.886966705" lon="-18.702011108">
<ele>487.515625</ele>
<time>2012-07-25T12:32:57Z</time>
<speed>2.490000</speed>
<extensions>
<speed>2.5</speed>
<temp>0.00</temp>
<bpm>0</bpm>
<rpm>0.00</rpm>
</extensions>
</trkpt>
<trkpt lat="63.886833191" lon="-18.702077866">
<ele>486.070313</ele>
<time>2012-07-25T12:33:02Z</time>
<speed>3.510000</speed>
<extensions>
<speed>3.5</speed>
<temp>0.00</temp>
<bpm>0</bpm>
<rpm>0.00</rpm>
</extensions>
</trkpt>
<trkpt lat="63.886684418" lon="-18.702140808">
<ele>487.101563</ele>
<time>2012-07-25T12:33:07Z</time>
<speed>3.150000</speed>
<extensions>
<speed>3.2</speed>
<temp>0.00</temp>
<bpm>0</bpm>
<rpm>0.00</rpm>
</extensions>
</trkpt>
<trkpt lat="63.886581421" lon="-18.702220917">
<ele>485.609375</ele>
<time>2012-07-25T12:33:12Z</time>
<speed>2.480000</speed>
<extensions>
<speed>2.5</speed>
<temp>0.00</temp>
<bpm>0</bpm>
<rpm>0.00</rpm>
</extensions>
</trkpt>
<trkpt lat="63.886444092" lon="-18.702281952">
<ele>489.390625</ele>
<time>2012-07-25T12:33:17Z</time>
<speed>3.390000</speed>
<extensions>
<speed>3.4</speed>
<temp>0.00</temp>
<bpm>0</bpm>
<rpm>0.00</rpm>
</extensions>
</trkpt>
<trkpt lat="63.886299133" lon="-18.702333450">
<ele>491.859375</ele>
<time>2012-07-25T12:33:22Z</time>
<speed>3.330000</speed>
<extensions>
<speed>3.3</speed>
<temp>0.00</temp>
<bpm>0</bpm>
<rpm>0.00</rpm>
</extensions>
</trkpt>
<trkpt lat="63.886146545" lon="-18.702367783">
<ele>491.960938</ele>
<time>2012-07-25T12:33:27Z</time>
<speed>3.020000</speed>
<extensions>
<speed>3.0</speed>
<temp>0.00</temp>
<bpm>0</bpm>
<rpm>0.00</rpm>
</extensions>
</trkpt>
<trkpt lat="63.886009216" lon="-18.702419281">
<ele>491.968750</ele>
<time>2012-07-25T12:33:32Z</time>
<speed>3.280000</speed>
<extensions>
<speed>3.3</speed>
<temp>0.00</temp>
<bpm>0</bpm>
<rpm>0.00</rpm>
</extensions>
</trkpt>
<trkpt lat="63.885856628" lon="-18.702482224">
<ele>487.843750</ele>
<time>2012-07-25T12:33:37Z</time>
<speed>3.590000</speed>
<extensions>
<speed>3.6</speed>
<temp>0.00</temp>
<bpm>0</bpm>
<rpm>0.00</rpm>
</extensions>
</trkpt>
<trkpt lat="63.885692596" lon="-18.702505112">
<ele>488.773438</ele>
<time>2012-07-25T12:33:42Z</time>
<speed>3.720000</speed>
<extensions>
<speed>3.7</speed>
<temp>0.00</temp>
<bpm>0</bpm>
<rpm>0.00</rpm>
</extensions>
</trkpt>
<trkpt lat="63.885532379" lon="-18.702545166">
<ele>488.078125</ele>
<time>2012-07-25T12:33:47Z</time>
<speed>3.550000</speed>
<extensions>
<speed>3.5</speed>
<temp>0.00</temp>
<bpm>0</bpm>
<rpm>0.00</rpm>
</extensions>
</trkpt>
<trkpt lat="63.885368347" lon="-18.702575684">
<ele>488.000000</ele>
<time>2012-07-25T12:33:52Z</time>
<speed>3.480000</speed>
<extensions>
<speed>3.5</speed>
<temp>0.00</temp>
<bpm>0</bpm>
<rpm>0.00</rpm>
</extensions>
</trkpt>
<trkpt lat="63.885208130" lon="-18.702613831">
<ele>488.117188</ele>
<time>2012-07-25T12:33:57Z</time>
<speed>3.610000</speed>
<extensions>
<speed>3.6</speed>
<temp>0.00</temp>
<bpm>0</bpm>
<rpm>0.00</rpm>
</extensions>
</trkpt>
<trkpt lat="63.885040283" lon="-18.702678680">
<ele>487.804688</ele>
<time>2012-07-25T12:34:02Z</time>
<speed>3.750000</speed>
<extensions>
<speed>3.8</speed>
<temp>0.00</temp>
<bpm>0</bpm>
<rpm>0.00</rpm>
</extensions>
</trkpt>
<trkpt lat="63.884864807" lon="-18.702722549">
<ele>488.218750</ele>
<time>2012-07-25T12:34:07Z</time>
<speed>3.990000</speed>
<extensions>
<speed>4.0</speed>
<temp>0.00</temp>
<bpm>0</bpm>
<rpm>0.00</rpm>
</extensions>
</trkpt>
<trkpt lat="63.884693146" lon="-18.702766418">
<ele>488.546875</ele>
<time>2012-07-25T12:34:12Z</time>
<speed>3.270000</speed>
<extensions>
<speed>3.3</speed>
<temp>0.00</temp>
<bpm>0</bpm>
<rpm>0.00</rpm>
</extensions>
</trkpt>
<trkpt lat="63.884552002" lon="-18.702795029">
<ele>487.960938</ele>
<time>2012-07-25T12:34:17Z</time>
<speed>3.530000</speed>
<extensions>
<speed>3.5</speed>
<temp>0.00</temp>
<bpm>0</bpm>
<rpm>0.00</rpm>
</extensions>
</trkpt>
<trkpt lat="63.884387970" lon="-18.702775955">
<ele>487.976563</ele>
<time>2012-07-25T12:34:22Z</time>
<speed>4.070000</speed>
<extensions>
<speed>4.1</speed>
<temp>0.00</temp>
<bpm>0</bpm>
<rpm>0.00</rpm>
</extensions>
</trkpt>
<trkpt lat="63.884223938" lon="-18.702783585">
<ele>487.273438</ele>
<time>2012-07-25T12:34:27Z</time>
<speed>3.720000</speed>
<extensions>
<speed>3.7</speed>
<temp>0.00</temp>
<bpm>0</bpm>
<rpm>0.00</rpm>
</extensions>
</trkpt>
<trkpt lat="63.884063721" lon="-18.702812195">
<ele>485.273438</ele>
<time>2012-07-25T12:34:32Z</time>
<speed>3.560000</speed>
<extensions>
<speed>3.6</speed>
<temp>0.00</temp>
<bpm>0</bpm>
<rpm>0.00</rpm>
</extensions>
</trkpt>
<trkpt lat="63.883899689" lon="-18.702865601">
<ele>483.523438</ele>
<time>2012-07-25T12:34:37Z</time>
<speed>3.720000</speed>
<extensions>
<speed>3.7</speed>
<temp>0.00</temp>
<bpm>0</bpm>
<rpm>0.00</rpm>
</extensions>
</trkpt>
<trkpt lat="63.883735657" lon="-18.702932358">
<ele>481.460938</ele>
<time>2012-07-25T12:34:42Z</time>
<speed>3.810000</speed>
<extensions>
<speed>3.8</speed>
<temp>0.00</temp>
<bpm>0</bpm>
<rpm>0.00</rpm>
</extensions>
</trkpt>
<trkpt lat="63.883575439" lon="-18.703016281">
<ele>480.640625</ele>
<time>2012-07-25T12:34:47Z</time>
<speed>3.370000</speed>
<extensions>
<speed>3.4</speed>
<temp>0.00</temp>
<bpm>0</bpm>
<rpm>0.00</rpm>
</extensions>
</trkpt>
<trkpt lat="63.883441925" lon="-18.703058243">
<ele>478.992188</ele>
<time>2012-07-25T12:34:52Z</time>
<speed>3.430000</speed>
<extensions>
<speed>3.4</speed>
<temp>0.00</temp>
<bpm>0</bpm>
<rpm>0.00</rpm>
</extensions>
</trkpt>
<trkpt lat="63.883270264" lon="-18.703121185">
<ele>477.359375</ele>
<time>2012-07-25T12:34:57Z</time>
<speed>3.690000</speed>
<extensions>
<speed>3.7</speed>
<temp>0.00</temp>
<bpm>0</bpm>
<rpm>0.00</rpm>
</extensions>
</trkpt>
<trkpt lat="63.883098602" lon="-18.703176498">
<ele>475.710938</ele>
<time>2012-07-25T12:35:02Z</time>
<speed>4.000000</speed>
<extensions>
<speed>4.0</speed>
<temp>0.00</temp>
<bpm>0</bpm>
<rpm>0.00</rpm>
</extensions>
</trkpt>
<trkpt lat="63.882930756" lon="-18.703224182">
<ele>474.351563</ele>
<time>2012-07-25T12:35:07Z</time>
<speed>3.530000</speed>
<extensions>
<speed>3.5</speed>
<temp>0.00</temp>
<bpm>0</bpm>
<rpm>0.00</rpm>
</extensions>
</trkpt>
<trkpt lat="63.882762909" lon="-18.703264236">
<ele>474.054688</ele>
<time>2012-07-25T12:35:12Z</time>
<speed>3.610000</speed>
<extensions>
<speed>3.6</speed>
<temp>0.00</temp>
<bpm>0</bpm>
<rpm>0.00</rpm>
</extensions>
</trkpt>
<trkpt lat="63.882591248" lon="-18.703277588">
<ele>476.664063</ele>
<time>2012-07-25T12:35:17Z</time>
<speed>3.590000</speed>
<extensions>
<speed>3.6</speed>
<temp>0.00</temp>
<bpm>0</bpm>
<rpm>0.00</rpm>
</extensions>
</trkpt>
<trkpt lat="63.882438660" lon="-18.703281403">
<ele>478.843750</ele>
<time>2012-07-25T12:35:22Z</time>
<speed>3.580000</speed>
<extensions>
<speed>3.6</speed>
<temp>0.00</temp>
<bpm>0</bpm>
<rpm>0.00</rpm>
</extensions>
</trkpt>
<trkpt lat="63.882278442" lon="-18.703281403">
<ele>480.382813</ele>
<time>2012-07-25T12:35:27Z</time>
<speed>3.010000</speed>
<extensions>
<speed>3.0</speed>
<temp>0.00</temp>
<bpm>0</bpm>
<rpm>0.00</rpm>
</extensions>
</trkpt>
<trkpt lat="63.882179260" lon="-18.703283310">
<ele>481.390625</ele>
<time>2012-07-25T12:35:32Z</time>
<speed>2.480000</speed>
<extensions>
<speed>2.5</speed>
<temp>0.00</temp>
<bpm>0</bpm>
<rpm>0.00</rpm>
</extensions>
</trkpt>
<trkpt lat="63.882061005" lon="-18.703306198">
<ele>483.312500</ele>
<time>2012-07-25T12:35:37Z</time>
<speed>3.290000</speed>
<extensions>
<speed>3.3</speed>
<temp>0.00</temp>
<bpm>0</bpm>
<rpm>0.00</rpm>
</extensions>
</trkpt>
<trkpt lat="63.881923676" lon="-18.703380585">
<ele>482.523438</ele>
<time>2012-07-25T12:35:42Z</time>
<speed>2.720000</speed>
<extensions>
<speed>2.7</speed>
<temp>0.00</temp>
<bpm>0</bpm>
<rpm>0.00</rpm>
</extensions>
</trkpt>
<trkpt lat="63.881805420" lon="-18.703502655">
<ele>483.796875</ele>
<time>2012-07-25T12:35:47Z</time>
<speed>2.930000</speed>
<extensions>
<speed>2.9</speed>
<temp>0.00</temp>
<bpm>0</bpm>
<rpm>0.00</rpm>
</extensions>
</trkpt>
<trkpt lat="63.881698608" lon="-18.703697205">
<ele>485.320313</ele>
<time>2012-07-25T12:35:52Z</time>
<speed>3.160000</speed>
<extensions>
<speed>3.2</speed>
<temp>0.00</temp>
<bpm>0</bpm>
<rpm>0.00</rpm>
</extensions>
</trkpt>
<trkpt lat="63.881599426" lon="-18.703941345">
<ele>486.273438</ele>
<time>2012-07-25T12:35:57Z</time>
<speed>3.480000</speed>
<extensions>
<speed>3.5</speed>
<temp>0.00</temp>
<bpm>0</bpm>
<rpm>0.00</rpm>
</extensions>
</trkpt>
<trkpt lat="63.881500244" lon="-18.704156876">
<ele>487.257813</ele>
<time>2012-07-25T12:36:02Z</time>
<speed>2.800000</speed>
<extensions>
<speed>2.8</speed>
<temp>0.00</temp>
<bpm>0</bpm>
<rpm>0.00</rpm>
</extensions>
</trkpt>
<trkpt lat="63.881416321" lon="-18.704364777">
<ele>486.429688</ele>
<time>2012-07-25T12:36:07Z</time>
<speed>3.230000</speed>
<extensions>
<speed>3.2</speed>
<temp>0.00</temp>
<bpm>0</bpm>
<rpm>0.00</rpm>
</extensions>
</trkpt>
<trkpt lat="63.881317139" lon="-18.704561234">
<ele>487.960938</ele>
<time>2012-07-25T12:36:12Z</time>
<speed>3.500000</speed>
<extensions>
<speed>3.5</speed>
<temp>0.00</temp>
<bpm>0</bpm>
<rpm>0.00</rpm>
</extensions>
</trkpt>
<trkpt lat="63.881210327" lon="-18.704820633">
<ele>486.726563</ele>
<time>2012-07-25T12:36:17Z</time>
<speed>3.730000</speed>
<extensions>
<speed>3.7</speed>
<temp>0.00</temp>
<bpm>0</bpm>
<rpm>0.00</rpm>
</extensions>
</trkpt>
<trkpt lat="63.881111145" lon="-18.705104828">
<ele>487.640625</ele>
<time>2012-07-25T12:36:22Z</time>
<speed>3.850000</speed>
<extensions>
<speed>3.8</speed>
<temp>0.00</temp>
<bpm>0</bpm>
<rpm>0.00</rpm>
</extensions>
</trkpt>
<trkpt lat="63.881004333" lon="-18.705404282">
<ele>488.648438</ele>
<time>2012-07-25T12:36:27Z</time>
<speed>3.670000</speed>
<extensions>
<speed>3.7</speed>
<temp>0.00</temp>
<bpm>0</bpm>
<rpm>0.00</rpm>
</extensions>
</trkpt>
<trkpt lat="63.880928040" lon="-18.705795288">
<ele>488.796875</ele>
<time>2012-07-25T12:36:32Z</time>
<speed>3.850000</speed>
<extensions>
<speed>3.8</speed>
<temp>0.00</temp>
<bpm>0</bpm>
<rpm>0.00</rpm>
</extensions>
</trkpt>
<trkpt lat="63.880905151" lon="-18.706146240">
<ele>490.843750</ele>
<time>2012-07-25T12:36:37Z</time>
<speed>3.240000</speed>
<extensions>
<speed>3.2</speed>
<temp>0.00</temp>
<bpm>0</bpm>
<rpm>0.00</rpm>
</extensions>
</trkpt>
<trkpt lat="63.880950928" lon="-18.706445694">
<ele>491.992188</ele>
<time>2012-07-25T12:36:42Z</time>
<speed>3.600000</speed>
<extensions>
<speed>3.6</speed>
<temp>0.00</temp>
<bpm>0</bpm>
<rpm>0.00</rpm>
</extensions>
</trkpt>
<trkpt lat="63.881015778" lon="-18.706779480">
<ele>492.945313</ele>
<time>2012-07-25T12:36:47Z</time>
<speed>3.850000</speed>
<extensions>
<speed>3.8</speed>
<temp>0.00</temp>
<bpm>0</bpm>
<rpm>0.00</rpm>
</extensions>
</trkpt>
<trkpt lat="63.881019592" lon="-18.707153320">
<ele>492.765625</ele>
<time>2012-07-25T12:36:52Z</time>
<speed>3.750000</speed>
<extensions>
<speed>3.8</speed>
<temp>0.00</temp>
<bpm>0</bpm>
<rpm>0.00</rpm>
</extensions>
</trkpt>
<trkpt lat="63.880954742" lon="-18.707508087">
<ele>494.492188</ele>
<time>2012-07-25T12:36:57Z</time>
<speed>3.550000</speed>
<extensions>
<speed>3.5</speed>
<temp>0.00</temp>
<bpm>0</bpm>
<rpm>0.00</rpm>
</extensions>
</trkpt>
<trkpt lat="63.880901337" lon="-18.707729340">
<ele>494.523438</ele>
<time>2012-07-25T12:37:02Z</time>
<speed>1.430000</speed>
<extensions>
<speed>1.4</speed>
<temp>0.00</temp>
<bpm>0</bpm>
<rpm>0.00</rpm>
</extensions>
</trkpt>
<trkpt lat="63.880886078" lon="-18.707733154">
<ele>494.726563</ele>
<time>2012-07-25T12:37:07Z</time>
<speed>0.020000</speed>
<extensions>
<speed>0.0</speed>
<temp>0.00</temp>
<bpm>0</bpm>
<rpm>0.00</rpm>
</extensions>
</trkpt>
<trkpt lat="63.880886078" lon="-18.707731247">
<ele>494.757813</ele>
<time>2012-07-25T12:37:12Z</time>
<speed>0.030000</speed>
<extensions>
<speed>0.0</speed>
<temp>0.00</temp>
<bpm>0</bpm>
<rpm>0.00</rpm>
</extensions>
</trkpt>
<trkpt lat="63.880889893" lon="-18.707731247">
<ele>494.789063</ele>
<time>2012-07-25T12:37:17Z</time>
<extensions>
<speed>0.0</speed>
<temp>0.00</temp>
<bpm>0</bpm>
<rpm>0.00</rpm>
</extensions>
</trkpt>
<trkpt lat="63.880886078" lon="-18.707731247">
<ele>494.789063</ele>
<time>2012-07-25T12:37:22Z</time>
<speed>0.010000</speed>
<extensions>
<speed>0.0</speed>
<temp>0.00</temp>
<bpm>0</bpm>
<rpm>0.00</rpm>
</extensions>
</trkpt>
<trkpt lat="63.880886078" lon="-18.707729340">
<ele>494.757813</ele>
<time>2012-07-25T12:37:27Z</time>
<extensions>
<speed>0.0</speed>
<temp>0.00</temp>
<bpm>0</bpm>
<rpm>0.00</rpm>
</extensions>
</trkpt>
<trkpt lat="63.880886078" lon="-18.707729340">
<ele>494.812500</ele>
<time>2012-07-25T12:37:32Z</time>
<speed>0.020000</speed>
<extensions>
<speed>0.0</speed>
<temp>0.00</temp>
<bpm>0</bpm>
<rpm>0.00</rpm>
</extensions>
</trkpt>
<trkpt lat="63.880886078" lon="-18.707729340">
<ele>494.851563</ele>
<time>2012-07-25T12:37:37Z</time>
<speed>0.010000</speed>
<extensions>
<speed>0.0</speed>
<temp>0.00</temp>
<bpm>0</bpm>
<rpm>0.00</rpm>
</extensions>
</trkpt>
<trkpt lat="63.880886078" lon="-18.707727432">
<ele>494.867188</ele>
<time>2012-07-25T12:37:42Z</time>
<extensions>
<speed>0.0</speed>
<temp>0.00</temp>
<bpm>0</bpm>
<rpm>0.00</rpm>
</extensions>
</trkpt>
<trkpt lat="63.880886078" lon="-18.707727432">
<ele>494.890625</ele>
<time>2012-07-25T12:37:47Z</time>
<extensions>
<speed>0.0</speed>
<temp>0.00</temp>
<bpm>0</bpm>
<rpm>0.00</rpm>
</extensions>
</trkpt>
<trkpt lat="63.880886078" lon="-18.707729340">
<ele>494.937500</ele>
<time>2012-07-25T12:37:52Z</time>
<speed>0.020000</speed>
<extensions>
<speed>0.0</speed>
<temp>0.00</temp>
<bpm>0</bpm>
<rpm>0.00</rpm>
</extensions>
</trkpt>
<trkpt lat="63.880886078" lon="-18.707729340">
<ele>494.960938</ele>
<time>2012-07-25T12:37:57Z</time>
<extensions>
<speed>0.0</speed>
<temp>0.00</temp>
<bpm>0</bpm>
<rpm>0.00</rpm>
</extensions>
</trkpt>
<trkpt lat="63.880886078" lon="-18.707729340">
<ele>494.976563</ele>
<time>2012-07-25T12:38:02Z</time>
<speed>0.030000</speed>
<extensions>
<speed>0.0</speed>
<temp>0.00</temp>
<bpm>0</bpm>
<rpm>0.00</rpm>
</extensions>
</trkpt>
<trkpt lat="63.880886078" lon="-18.707729340">
<ele>494.992188</ele>
<time>2012-07-25T12:38:07Z</time>
<extensions>
<speed>0.0</speed>
<temp>0.00</temp>
<bpm>0</bpm>
<rpm>0.00</rpm>
</extensions>
</trkpt>
<trkpt lat="63.880886078" lon="-18.707729340">
<ele>495.000000</ele>
<time>2012-07-25T12:38:12Z</time>
<speed>0.050000</speed>
<extensions>
<speed>0.1</speed>
<temp>0.00</temp>
<bpm>0</bpm>
<rpm>0.00</rpm>
</extensions>
</trkpt>
<trkpt lat="63.880886078" lon="-18.707727432">
<ele>495.039063</ele>
<time>2012-07-25T12:38:17Z</time>
<extensions>
<speed>0.0</speed>
<temp>0.00</temp>
<bpm>0</bpm>
<rpm>0.00</rpm>
</extensions>
</trkpt>
<trkpt lat="63.880886078" lon="-18.707727432">
<ele>495.046875</ele>
<time>2012-07-25T12:38:22Z</time>
<extensions>
<speed>0.0</speed>
<temp>0.00</temp>
<bpm>0</bpm>
<rpm>0.00</rpm>
</extensions>
</trkpt>
<trkpt lat="63.880886078" lon="-18.707727432">
<ele>495.062500</ele>
<time>2012-07-25T12:38:27Z</time>
<speed>0.010000</speed>
<extensions>
<speed>0.0</speed>
<temp>0.00</temp>
<bpm>0</bpm>
<rpm>0.00</rpm>
</extensions>
</trkpt>
<trkpt lat="63.880886078" lon="-18.707727432">
<ele>495.054688</ele>
<time>2012-07-25T12:38:32Z</time>
<speed>0.010000</speed>
<extensions>
<speed>0.0</speed>
<temp>0.00</temp>
<bpm>0</bpm>
<rpm>0.00</rpm>
</extensions>
</trkpt>
<trkpt lat="63.880886078" lon="-18.707727432">
<ele>495.046875</ele>
<time>2012-07-25T12:38:37Z</time>
<extensions>
<speed>0.0</speed>
<temp>0.00</temp>
<bpm>0</bpm>
<rpm>0.00</rpm>
</extensions>
</trkpt>
<trkpt lat="63.880886078" lon="-18.707727432">
<ele>495.054688</ele>
<time>2012-07-25T12:38:42Z</time>
<extensions>
<speed>0.0</speed>
<temp>0.00</temp>
<bpm>0</bpm>
<rpm>0.00</rpm>
</extensions>
</trkpt>
<trkpt lat="63.880886078" lon="-18.707727432">
<ele>495.046875</ele>
<time>2012-07-25T12:38:47Z</time>
<extensions>
<speed>0.0</speed>
<temp>0.00</temp>
<bpm>0</bpm>
<rpm>0.00</rpm>
</extensions>
</trkpt>
<trkpt lat="63.880886078" lon="-18.707727432">
<ele>495.046875</ele>
<time>2012-07-25T12:38:52Z</time>
<speed>0.010000</speed>
<extensions>
<speed>0.0</speed>
<temp>0.00</temp>
<bpm>0</bpm>
<rpm>0.00</rpm>
</extensions>
</trkpt>
<trkpt lat="63.880886078" lon="-18.707727432">
<ele>495.046875</ele>
<time>2012-07-25T12:38:57Z</time>
<speed>0.010000</speed>
<extensions>
<speed>0.0</speed>
<temp>0.00</temp>
<bpm>0</bpm>
<rpm>0.00</rpm>
</extensions>
</trkpt>
<trkpt lat="63.880886078" lon="-18.707727432">
<ele>495.046875</ele>
<time>2012-07-25T12:39:02Z</time>
<speed>0.010000</speed>
<extensions>
<speed>0.0</speed>
<temp>0.00</temp>
<bpm>0</bpm>
<rpm>0.00</rpm>
</extensions>
</trkpt>
<trkpt lat="63.880886078" lon="-18.707727432">
<ele>495.046875</ele>
<time>2012-07-25T12:39:07Z</time>
<extensions>
<speed>0.0</speed>
<temp>0.00</temp>
<bpm>0</bpm>
<rpm>0.00</rpm>
</extensions>
</trkpt>
<trkpt lat="63.880886078" lon="-18.707727432">
<ele>495.039063</ele>
<time>2012-07-25T12:39:12Z</time>
<extensions>
<speed>0.0</speed>
<temp>0.00</temp>
<bpm>0</bpm>
<rpm>0.00</rpm>
</extensions>
</trkpt>
<trkpt lat="63.880886078" lon="-18.707727432">
<ele>495.023438</ele>
<time>2012-07-25T12:39:17Z</time>
<speed>0.270000</speed>
<extensions>
<speed>0.3</speed>
<temp>0.00</temp>
<bpm>0</bpm>
<rpm>0.00</rpm>
</extensions>
</trkpt>
<trkpt lat="63.880882263" lon="-18.707744598">
<ele>495.218750</ele>
<time>2012-07-25T12:39:22Z</time>
<speed>0.610000</speed>
<extensions>
<speed>0.6</speed>
<temp>0.00</temp>
<bpm>0</bpm>
<rpm>0.00</rpm>
</extensions>
</trkpt>
<trkpt lat="63.880851746" lon="-18.707792282">
<ele>495.617188</ele>
<time>2012-07-25T12:39:27Z</time>
<speed>1.050000</speed>
<extensions>
<speed>1.0</speed>
<temp>0.00</temp>
<bpm>0</bpm>
<rpm>0.00</rpm>
</extensions>
</trkpt>
<trkpt lat="63.880802155" lon="-18.707876205">
<ele>495.500000</ele>
<time>2012-07-25T12:39:32Z</time>
<speed>1.690000</speed>
<extensions>
<speed>1.7</speed>
<temp>0.00</temp>
<bpm>0</bpm>
<rpm>0.00</rpm>
</extensions>
</trkpt>
<trkpt lat="63.880722046" lon="-18.707992554">
<ele>495.132813</ele>
<time>2012-07-25T12:39:37Z</time>
<speed>2.120000</speed>
<extensions>
<speed>2.1</speed>
<temp>0.00</temp>
<bpm>0</bpm>
<rpm>0.00</rpm>
</extensions>
</trkpt>
<trkpt lat="63.880615234" lon="-18.708108902">
<ele>496.218750</ele>
<time>2012-07-25T12:39:42Z</time>
<speed>2.500000</speed>
<extensions>
<speed>2.5</speed>
<temp>0.00</temp>
<bpm>0</bpm>
<rpm>0.00</rpm>
</extensions>
</trkpt>
<trkpt lat="63.880496979" lon="-18.708209991">
<ele>497.492188</ele>
<time>2012-07-25T12:39:47Z</time>
<speed>2.860000</speed>
<extensions>
<speed>2.9</speed>
<temp>0.00</temp>
<bpm>0</bpm>
<rpm>0.00</rpm>
</extensions>
</trkpt>
<trkpt lat="63.880374908" lon="-18.708305359">
<ele>499.281250</ele>
<time>2012-07-25T12:39:52Z</time>
<speed>2.840000</speed>
<extensions>
<speed>2.8</speed>
<temp>0.00</temp>
<bpm>0</bpm>
<rpm>0.00</rpm>
</extensions>
</trkpt>
<trkpt lat="63.880245209" lon="-18.708412170">
<ele>500.921875</ele>
<time>2012-07-25T12:39:57Z</time>
<speed>3.240000</speed>
<extensions>
<speed>3.2</speed>
<temp>0.00</temp>
<bpm>0</bpm>
<rpm>0.00</rpm>
</extensions>
</trkpt>
<trkpt lat="63.880115509" lon="-18.708551407">
<ele>500.195313</ele>
<time>2012-07-25T12:40:02Z</time>
<speed>3.130000</speed>
<extensions>
<speed>3.1</speed>
<temp>0.00</temp>
<bpm>0</bpm>
<rpm>0.00</rpm>
</extensions>
</trkpt>
<trkpt lat="63.879985809" lon="-18.708717346">
<ele>499.507813</ele>
<time>2012-07-25T12:40:07Z</time>
<speed>3.380000</speed>
<extensions>
<speed>3.4</speed>
<temp>0.00</temp>
<bpm>0</bpm>
<rpm>0.00</rpm>
</extensions>
</trkpt>
<trkpt lat="63.879844666" lon="-18.708927155">
<ele>498.171875</ele>
<time>2012-07-25T12:40:12Z</time>
<speed>3.590000</speed>
<extensions>
<speed>3.6</speed>
<temp>0.00</temp>
<bpm>0</bpm>
<rpm>0.00</rpm>
</extensions>
</trkpt>
<trkpt lat="63.879711151" lon="-18.709156036">
<ele>499.023438</ele>
<time>2012-07-25T12:40:17Z</time>
<speed>3.810000</speed>
<extensions>
<speed>3.8</speed>
<temp>0.00</temp>
<bpm>0</bpm>
<rpm>0.00</rpm>
</extensions>
</trkpt>
<trkpt lat="63.879585266" lon="-18.709402084">
<ele>498.882813</ele>
<time>2012-07-25T12:40:22Z</time>
<speed>3.590000</speed>
<extensions>
<speed>3.6</speed>
<temp>0.00</temp>
<bpm>0</bpm>
<rpm>0.00</rpm>
</extensions>
</trkpt>
<trkpt lat="63.879486084" lon="-18.709693909">
<ele>499.375000</ele>
<time>2012-07-25T12:40:27Z</time>
<speed>3.840000</speed>
<extensions>
<speed>3.8</speed>
<temp>0.00</temp>
<bpm>0</bpm>
<rpm>0.00</rpm>
</extensions>
</trkpt>
<trkpt lat="63.879390717" lon="-18.709981918">
<ele>497.859375</ele>
<time>2012-07-25T12:40:32Z</time>
<speed>3.550000</speed>
<extensions>
<speed>3.5</speed>
<temp>0.00</temp>
<bpm>0</bpm>
<rpm>0.00</rpm>
</extensions>
</trkpt>
<trkpt lat="63.879291534" lon="-18.710266113">
<ele>499.007813</ele>
<time>2012-07-25T12:40:37Z</time>
<speed>3.460000</speed>
<extensions>
<speed>3.5</speed>
<temp>0.00</temp>
<bpm>0</bpm>
<rpm>0.00</rpm>
</extensions>
</trkpt>
<trkpt lat="63.879238129" lon="-18.710586548">
<ele>499.757813</ele>
<time>2012-07-25T12:40:42Z</time>
<speed>3.160000</speed>
<extensions>
<speed>3.2</speed>
<temp>0.00</temp>
<bpm>0</bpm>
<rpm>0.00</rpm>
</extensions>
</trkpt>
<trkpt lat="63.879238129" lon="-18.710920334">
<ele>500.695313</ele>
<time>2012-07-25T12:40:47Z</time>
<speed>3.510000</speed>
<extensions>
<speed>3.5</speed>
<temp>0.00</temp>
<bpm>0</bpm>
<rpm>0.00</rpm>
</extensions>
</trkpt>
<trkpt lat="63.879234314" lon="-18.711349487">
<ele>499.898438</ele>
<time>2012-07-25T12:40:52Z</time>
<speed>4.120000</speed>
<extensions>
<speed>4.1</speed>
<temp>0.00</temp>
<bpm>0</bpm>
<rpm>0.00</rpm>
</extensions>
</trkpt>
<trkpt lat="63.879222870" lon="-18.711776733">
<ele>500.796875</ele>
<time>2012-07-25T12:40:57Z</time>
<speed>4.050000</speed>
<extensions>
<speed>4.0</speed>
<temp>0.00</temp>
<bpm>0</bpm>
<rpm>0.00</rpm>
</extensions>
</trkpt>
<trkpt lat="63.879199982" lon="-18.712177277">
<ele>498.625000</ele>
<time>2012-07-25T12:41:02Z</time>
<speed>4.160000</speed>
<extensions>
<speed>4.2</speed>
<temp>0.00</temp>
<bpm>0</bpm>
<rpm>0.00</rpm>
</extensions>
</trkpt>
<trkpt lat="63.879131317" lon="-18.712568283">
<ele>495.656250</ele>
<time>2012-07-25T12:41:07Z</time>
<speed>4.040000</speed>
<extensions>
<speed>4.0</speed>
<temp>0.00</temp>
<bpm>0</bpm>
<rpm>0.00</rpm>
</extensions>
</trkpt>
<trkpt lat="63.879043579" lon="-18.712934494">
<ele>494.679688</ele>
<time>2012-07-25T12:41:12Z</time>
<speed>4.230000</speed>
<extensions>
<speed>4.2</speed>
<temp>0.00</temp>
<bpm>0</bpm>
<rpm>0.00</rpm>
</extensions>
</trkpt>
<trkpt lat="63.878959656" lon="-18.713329315">
<ele>494.531250</ele>
<time>2012-07-25T12:41:17Z</time>
<speed>4.230000</speed>
<extensions>
<speed>4.2</speed>
<temp>0.00</temp>
<bpm>0</bpm>
<rpm>0.00</rpm>
</extensions>
</trkpt>
<trkpt lat="63.878898621" lon="-18.713777542">
<ele>495.023438</ele>
<time>2012-07-25T12:41:22Z</time>
<speed>4.530000</speed>
<extensions>
<speed>4.5</speed>
<temp>0.00</temp>
<bpm>0</bpm>
<rpm>0.00</rpm>
</extensions>
</trkpt>
<trkpt lat="63.878860474" lon="-18.714258194">
<ele>495.445313</ele>
<time>2012-07-25T12:41:27Z</time>
<speed>4.960000</speed>
<extensions>
<speed>5.0</speed>
<temp>0.00</temp>
<bpm>0</bpm>
<rpm>0.00</rpm>
</extensions>
</trkpt>
<trkpt lat="63.878814697" lon="-18.714725494">
<ele>496.085938</ele>
<time>2012-07-25T12:41:32Z</time>
<speed>4.310000</speed>
<extensions>
<speed>4.3</speed>
<temp>0.00</temp>
<bpm>0</bpm>
<rpm>0.00</rpm>
</extensions>
</trkpt>
<trkpt lat="63.878768921" lon="-18.715190887">
<ele>496.789063</ele>
<time>2012-07-25T12:41:37Z</time>
<speed>4.660000</speed>
<extensions>
<speed>4.7</speed>
<temp>0.00</temp>
<bpm>0</bpm>
<rpm>0.00</rpm>
</extensions>
</trkpt>
<trkpt lat="63.878719330" lon="-18.715600967">
<ele>496.640625</ele>
<time>2012-07-25T12:41:42Z</time>
<speed>4.200000</speed>
<extensions>
<speed>4.2</speed>
<temp>0.00</temp>
<bpm>0</bpm>
<rpm>0.00</rpm>
</extensions>
</trkpt>
<trkpt lat="63.878650665" lon="-18.716037750">
<ele>496.960938</ele>
<time>2012-07-25T12:41:47Z</time>
<speed>4.440000</speed>
<extensions>
<speed>4.4</speed>
<temp>0.00</temp>
<bpm>0</bpm>
<rpm>0.00</rpm>
</extensions>
</trkpt>
<trkpt lat="63.878543854" lon="-18.716392517">
<ele>497.054688</ele>
<time>2012-07-25T12:41:52Z</time>
<speed>4.200000</speed>
<extensions>
<speed>4.2</speed>
<temp>0.00</temp>
<bpm>0</bpm>
<rpm>0.00</rpm>
</extensions>
</trkpt>
<trkpt lat="63.878376007" lon="-18.716571808">
<ele>497.648438</ele>
<time>2012-07-25T12:41:57Z</time>
<speed>3.960000</speed>
<extensions>
<speed>4.0</speed>
<temp>0.00</temp>
<bpm>0</bpm>
<rpm>0.00</rpm>
</extensions>
</trkpt>
<trkpt lat="63.878215790" lon="-18.716722488">
<ele>497.812500</ele>
<time>2012-07-25T12:42:02Z</time>
<speed>4.140000</speed>
<extensions>
<speed>4.1</speed>
<temp>0.00</temp>
<bpm>0</bpm>
<rpm>0.00</rpm>
</extensions>
</trkpt>
<trkpt lat="63.878044128" lon="-18.716888428">
<ele>497.156250</ele>
<time>2012-07-25T12:42:07Z</time>
<speed>4.370000</speed>
<extensions>
<speed>4.4</speed>
<temp>0.00</temp>
<bpm>0</bpm>
<rpm>0.00</rpm>
</extensions>
</trkpt>
<trkpt lat="63.877861023" lon="-18.717031479">
<ele>497.000000</ele>
<time>2012-07-25T12:42:12Z</time>
<speed>4.390000</speed>
<extensions>
<speed>4.4</speed>
<temp>0.00</temp>
<bpm>0</bpm>
<rpm>0.00</rpm>
</extensions>
</trkpt>
<trkpt lat="63.877674103" lon="-18.717050552">
<ele>496.054688</ele>
<time>2012-07-25T12:42:17Z</time>
<speed>3.770000</speed>
<extensions>
<speed>3.8</speed>
<temp>0.00</temp>
<bpm>0</bpm>
<rpm>0.00</rpm>
</extensions>
</trkpt>
<trkpt lat="63.877502441" lon="-18.716976166">
<ele>495.523438</ele>
<time>2012-07-25T12:42:22Z</time>
<speed>3.330000</speed>
<extensions>
<speed>3.3</speed>
<temp>0.00</temp>
<bpm>0</bpm>
<rpm>0.00</rpm>
</extensions>
</trkpt>
<trkpt lat="63.877357483" lon="-18.716905594">
<ele>494.664063</ele>
<time>2012-07-25T12:42:27Z</time>
<speed>3.230000</speed>
<extensions>
<speed>3.2</speed>
<temp>0.00</temp>
<bpm>0</bpm>
<rpm>0.00</rpm>
</extensions>
</trkpt>
<trkpt lat="63.877216339" lon="-18.716806412">
<ele>494.640625</ele>
<time>2012-07-25T12:42:32Z</time>
<speed>3.390000</speed>
<extensions>
<speed>3.4</speed>
<temp>0.00</temp>
<bpm>0</bpm>
<rpm>0.00</rpm>
</extensions>
</trkpt>
<trkpt lat="63.877063751" lon="-18.716733932">
<ele>494.296875</ele>
<time>2012-07-25T12:42:37Z</time>
<speed>3.300000</speed>
<extensions>
<speed>3.3</speed>
<temp>0.00</temp>
<bpm>0</bpm>
<rpm>0.00</rpm>
</extensions>
</trkpt>
<trkpt lat="63.876926422" lon="-18.716758728">
<ele>495.015625</ele>
<time>2012-07-25T12:42:42Z</time>
<speed>3.480000</speed>
<extensions>
<speed>3.5</speed>
<temp>0.00</temp>
<bpm>0</bpm>
<rpm>0.00</rpm>
</extensions>
</trkpt>
<trkpt lat="63.876781464" lon="-18.716903687">
<ele>495.500000</ele>
<time>2012-07-25T12:42:47Z</time>
<speed>3.130000</speed>
<extensions>
<speed>3.1</speed>
<temp>0.00</temp>
<bpm>0</bpm>
<rpm>0.00</rpm>
</extensions>
</trkpt>
<trkpt lat="63.876651764" lon="-18.717065811">
<ele>496.125000</ele>
<time>2012-07-25T12:42:52Z</time>
<speed>3.410000</speed>
<extensions>
<speed>3.4</speed>
<temp>0.00</temp>
<bpm>0</bpm>
<rpm>0.00</rpm>
</extensions>
</trkpt>
<trkpt lat="63.876529694" lon="-18.717214584">
<ele>495.242188</ele>
<time>2012-07-25T12:42:57Z</time>
<speed>3.140000</speed>
<extensions>
<speed>3.1</speed>
<temp>0.00</temp>
<bpm>0</bpm>
<rpm>0.00</rpm>
</extensions>
</trkpt>
<trkpt lat="63.876392365" lon="-18.717350006">
<ele>496.476563</ele>
<time>2012-07-25T12:43:02Z</time>
<speed>3.340000</speed>
<extensions>
<speed>3.3</speed>
<temp>0.00</temp>
<bpm>0</bpm>
<rpm>0.00</rpm>
</extensions>
</trkpt>
<trkpt lat="63.876258850" lon="-18.717481613">
<ele>497.015625</ele>
<time>2012-07-25T12:43:07Z</time>
<speed>3.430000</speed>
<extensions>
<speed>3.4</speed>
<temp>0.00</temp>
<bpm>0</bpm>
<rpm>0.00</rpm>
</extensions>
</trkpt>
<trkpt lat="63.876125336" lon="-18.717557907">
<ele>497.195313</ele>
<time>2012-07-25T12:43:12Z</time>
<speed>3.200000</speed>
<extensions>
<speed>3.2</speed>
<temp>0.00</temp>
<bpm>0</bpm>
<rpm>0.00</rpm>
</extensions>
</trkpt>
<trkpt lat="63.875968933" lon="-18.717611313">
<ele>496.875000</ele>
<time>2012-07-25T12:43:17Z</time>
<speed>3.550000</speed>
<extensions>
<speed>3.5</speed>
<temp>0.00</temp>
<bpm>0</bpm>
<rpm>0.00</rpm>
</extensions>
</trkpt>
<trkpt lat="63.875812531" lon="-18.717720032">
<ele>497.718750</ele>
<time>2012-07-25T12:43:22Z</time>
<speed>3.640000</speed>
<extensions>
<speed>3.6</speed>
<temp>0.00</temp>
<bpm>0</bpm>
<rpm>0.00</rpm>
</extensions>
</trkpt>
<trkpt lat="63.875667572" lon="-18.717868805">
<ele>496.953125</ele>
<time>2012-07-25T12:43:27Z</time>
<speed>3.250000</speed>
<extensions>
<speed>3.2</speed>
<temp>0.00</temp>
<bpm>0</bpm>
<rpm>0.00</rpm>
</extensions>
</trkpt>
<trkpt lat="63.875526428" lon="-18.718034744">
<ele>496.664063</ele>
<time>2012-07-25T12:43:32Z</time>
<speed>3.800000</speed>
<extensions>
<speed>3.8</speed>
<temp>0.00</temp>
<bpm>0</bpm>
<rpm>0.00</rpm>
</extensions>
</trkpt>
<trkpt lat="63.875373840" lon="-18.718206406">
<ele>496.156250</ele>
<time>2012-07-25T12:43:37Z</time>
<speed>3.340000</speed>
<extensions>
<speed>3.3</speed>
<temp>0.00</temp>
<bpm>0</bpm>
<rpm>0.00</rpm>
</extensions>
</trkpt>
<trkpt lat="63.875240326" lon="-18.718395233">
<ele>495.992188</ele>
<time>2012-07-25T12:43:42Z</time>
<speed>3.570000</speed>
<extensions>
<speed>3.6</speed>
<temp>0.00</temp>
<bpm>0</bpm>
<rpm>0.00</rpm>
</extensions>
</trkpt>
<trkpt lat="63.875118256" lon="-18.718631744">
<ele>495.640625</ele>
<time>2012-07-25T12:43:47Z</time>
<speed>3.560000</speed>
<extensions>
<speed>3.6</speed>
<temp>0.00</temp>
<bpm>0</bpm>
<rpm>0.00</rpm>
</extensions>
</trkpt>
<trkpt lat="63.875003815" lon="-18.718866348">
<ele>495.054688</ele>
<time>2012-07-25T12:43:52Z</time>
<speed>3.420000</speed>
<extensions>
<speed>3.4</speed>
<temp>0.00</temp>
<bpm>0</bpm>
<rpm>0.00</rpm>
</extensions>
</trkpt>
<trkpt lat="63.874866486" lon="-18.719091415">
<ele>495.140625</ele>
<time>2012-07-25T12:43:57Z</time>
<speed>3.750000</speed>
<extensions>
<speed>3.8</speed>
<temp>0.00</temp>
<bpm>0</bpm>
<rpm>0.00</rpm>
</extensions>
</trkpt>
<trkpt lat="63.874717712" lon="-18.719278336">
<ele>495.476563</ele>
<time>2012-07-25T12:44:02Z</time>
<speed>3.810000</speed>
<extensions>
<speed>3.8</speed>
<temp>0.00</temp>
<bpm>0</bpm>
<rpm>0.00</rpm>
</extensions>
</trkpt>
<trkpt lat="63.874557495" lon="-18.719470978">
<ele>494.671875</ele>
<time>2012-07-25T12:44:07Z</time>
<speed>4.020000</speed>
<extensions>
<speed>4.0</speed>
<temp>0.00</temp>
<bpm>0</bpm>
<rpm>0.00</rpm>
</extensions>
</trkpt>
<trkpt lat="63.874408722" lon="-18.719694138">
<ele>494.062500</ele>
<time>2012-07-25T12:44:12Z</time>
<speed>3.790000</speed>
<extensions>
<speed>3.8</speed>
<temp>0.00</temp>
<bpm>0</bpm>
<rpm>0.00</rpm>
</extensions>
</trkpt>
<trkpt lat="63.874282837" lon="-18.719957352">
<ele>493.820313</ele>
<time>2012-07-25T12:44:17Z</time>
<speed>3.840000</speed>
<extensions>
<speed>3.8</speed>
<temp>0.00</temp>
<bpm>0</bpm>
<rpm>0.00</rpm>
</extensions>
</trkpt>
<trkpt lat="63.874141693" lon="-18.720176697">
<ele>493.273438</ele>
<time>2012-07-25T12:44:22Z</time>
<speed>3.740000</speed>
<extensions>
<speed>3.7</speed>
<temp>0.00</temp>
<bpm>0</bpm>
<rpm>0.00</rpm>
</extensions>
</trkpt>
<trkpt lat="63.873989105" lon="-18.720340729">
<ele>493.531250</ele>
<time>2012-07-25T12:44:27Z</time>
<speed>3.700000</speed>
<extensions>
<speed>3.7</speed>
<temp>0.00</temp>
<bpm>0</bpm>
<rpm>0.00</rpm>
</extensions>
</trkpt>
<trkpt lat="63.873844147" lon="-18.720539093">
<ele>494.132813</ele>
<time>2012-07-25T12:44:32Z</time>
<speed>3.830000</speed>
<extensions>
<speed>3.8</speed>
<temp>0.00</temp>
<bpm>0</bpm>
<rpm>0.00</rpm>
</extensions>
</trkpt>
<trkpt lat="63.873703003" lon="-18.720764160">
<ele>495.000000</ele>
<time>2012-07-25T12:44:37Z</time>
<speed>3.690000</speed>
<extensions>
<speed>3.7</speed>
<temp>0.00</temp>
<bpm>0</bpm>
<rpm>0.00</rpm>
</extensions>
</trkpt>
<trkpt lat="63.873569489" lon="-18.720956802">
<ele>494.976563</ele>
<time>2012-07-25T12:44:42Z</time>
<speed>3.630000</speed>
<extensions>
<speed>3.6</speed>
<temp>0.00</temp>
<bpm>0</bpm>
<rpm>0.00</rpm>
</extensions>
</trkpt>
<trkpt lat="63.873439789" lon="-18.721166611">
<ele>494.664063</ele>
<time>2012-07-25T12:44:47Z</time>
<speed>3.580000</speed>
<extensions>
<speed>3.6</speed>
<temp>0.00</temp>
<bpm>0</bpm>
<rpm>0.00</rpm>
</extensions>
</trkpt>
<trkpt lat="63.873321533" lon="-18.721448898">
<ele>494.554688</ele>
<time>2012-07-25T12:44:52Z</time>
<speed>3.930000</speed>
<extensions>
<speed>3.9</speed>
<temp>0.00</temp>
<bpm>0</bpm>
<rpm>0.00</rpm>
</extensions>
</trkpt>
<trkpt lat="63.873199463" lon="-18.721717834">
<ele>494.125000</ele>
<time>2012-07-25T12:44:57Z</time>
<speed>3.800000</speed>
<extensions>
<speed>3.8</speed>
<temp>0.00</temp>
<bpm>0</bpm>
<rpm>0.00</rpm>
</extensions>
</trkpt>
<trkpt lat="63.873069763" lon="-18.721914291">
<ele>493.867188</ele>
<time>2012-07-25T12:45:02Z</time>
<speed>3.860000</speed>
<extensions>
<speed>3.9</speed>
<temp>0.00</temp>
<bpm>0</bpm>
<rpm>0.00</rpm>
</extensions>
</trkpt>
<trkpt lat="63.872917175" lon="-18.722135544">
<ele>493.750000</ele>
<time>2012-07-25T12:45:07Z</time>
<speed>4.100000</speed>
<extensions>
<speed>4.1</speed>
<temp>0.00</temp>
<bpm>0</bpm>
<rpm>0.00</rpm>
</extensions>
</trkpt>
<trkpt lat="63.872768402" lon="-18.722383499">
<ele>492.554688</ele>
<time>2012-07-25T12:45:12Z</time>
<speed>4.360000</speed>
<extensions>
<speed>4.4</speed>
<temp>0.00</temp>
<bpm>0</bpm>
<rpm>0.00</rpm>
</extensions>
</trkpt>
<trkpt lat="63.872596741" lon="-18.722612381">
<ele>492.664063</ele>
<time>2012-07-25T12:45:17Z</time>
<speed>4.080000</speed>
<extensions>
<speed>4.1</speed>
<temp>0.00</temp>
<bpm>0</bpm>
<rpm>0.00</rpm>
</extensions>
</trkpt>
<trkpt lat="63.872432709" lon="-18.722780228">
<ele>493.539063</ele>
<time>2012-07-25T12:45:22Z</time>
<speed>3.820000</speed>
<extensions>
<speed>3.8</speed>
<temp>0.00</temp>
<bpm>0</bpm>
<rpm>0.00</rpm>
</extensions>
</trkpt>
<trkpt lat="63.872291565" lon="-18.722917557">
<ele>494.921875</ele>
<time>2012-07-25T12:45:27Z</time>
<speed>3.820000</speed>
<extensions>
<speed>3.8</speed>
<temp>0.00</temp>
<bpm>0</bpm>
<rpm>0.00</rpm>
</extensions>
</trkpt>
<trkpt lat="63.872146606" lon="-18.723144531">
<ele>493.695313</ele>
<time>2012-07-25T12:45:32Z</time>
<speed>3.910000</speed>
<extensions>
<speed>3.9</speed>
<temp>0.00</temp>
<bpm>0</bpm>
<rpm>0.00</rpm>
</extensions>
</trkpt>
<trkpt lat="63.872013092" lon="-18.723436356">
<ele>493.031250</ele>
<time>2012-07-25T12:45:37Z</time>
<speed>3.850000</speed>
<extensions>
<speed>3.8</speed>
<temp>0.00</temp>
<bpm>0</bpm>
<rpm>0.00</rpm>
</extensions>
</trkpt>
<trkpt lat="63.871913910" lon="-18.723726273">
<ele>493.421875</ele>
<time>2012-07-25T12:45:42Z</time>
<speed>3.410000</speed>
<extensions>
<speed>3.4</speed>
<temp>0.00</temp>
<bpm>0</bpm>
<rpm>0.00</rpm>
</extensions>
</trkpt>
<trkpt lat="63.871807098" lon="-18.723966599">
<ele>492.828125</ele>
<time>2012-07-25T12:45:47Z</time>
<speed>3.330000</speed>
<extensions>
<speed>3.3</speed>
<temp>0.00</temp>
<bpm>0</bpm>
<rpm>0.00</rpm>
</extensions>
</trkpt>
<trkpt lat="63.871681213" lon="-18.724174500">
<ele>492.789063</ele>
<time>2012-07-25T12:45:52Z</time>
<speed>3.770000</speed>
<extensions>
<speed>3.8</speed>
<temp>0.00</temp>
<bpm>0</bpm>
<rpm>0.00</rpm>
</extensions>
</trkpt>
<trkpt lat="63.871540070" lon="-18.724369049">
<ele>493.007813</ele>
<time>2012-07-25T12:45:57Z</time>
<speed>3.710000</speed>
<extensions>
<speed>3.7</speed>
<temp>0.00</temp>
<bpm>0</bpm>
<rpm>0.00</rpm>
</extensions>
</trkpt>
<trkpt lat="63.871429443" lon="-18.724592209">
<ele>493.296875</ele>
<time>2012-07-25T12:46:02Z</time>
<speed>2.810000</speed>
<extensions>
<speed>2.8</speed>
<temp>0.00</temp>
<bpm>0</bpm>
<rpm>0.00</rpm>
</extensions>
</trkpt>
<trkpt lat="63.871356964" lon="-18.724756241">
<ele>492.593750</ele>
<time>2012-07-25T12:46:07Z</time>
<speed>2.200000</speed>
<extensions>
<speed>2.2</speed>
<temp>0.00</temp>
<bpm>0</bpm>
<rpm>0.00</rpm>
</extensions>
</trkpt>
<trkpt lat="63.871295929" lon="-18.724908829">
<ele>492.359375</ele>
<time>2012-07-25T12:46:12Z</time>
<speed>2.290000</speed>
<extensions>
<speed>2.3</speed>
<temp>0.00</temp>
<bpm>0</bpm>
<rpm>0.00</rpm>
</extensions>
</trkpt>
<trkpt lat="63.871223450" lon="-18.725137711">
<ele>492.531250</ele>
<time>2012-07-25T12:46:17Z</time>
<speed>2.780000</speed>
<extensions>
<speed>2.8</speed>
<temp>0.00</temp>
<bpm>0</bpm>
<rpm>0.00</rpm>
</extensions>
</trkpt>
<trkpt lat="63.871154785" lon="-18.725404739">
<ele>492.492188</ele>
<time>2012-07-25T12:46:22Z</time>
<speed>2.920000</speed>
<extensions>
<speed>2.9</speed>
<temp>0.00</temp>
<bpm>0</bpm>
<rpm>0.00</rpm>
</extensions>
</trkpt>
<trkpt lat="63.871097565" lon="-18.725662231">
<ele>492.265625</ele>
<time>2012-07-25T12:46:27Z</time>
<speed>2.450000</speed>
<extensions>
<speed>2.4</speed>
<temp>0.00</temp>
<bpm>0</bpm>
<rpm>0.00</rpm>
</extensions>
</trkpt>
<trkpt lat="63.871040344" lon="-18.725900650">
<ele>492.726563</ele>
<time>2012-07-25T12:46:32Z</time>
<speed>3.250000</speed>
<extensions>
<speed>3.2</speed>
<temp>0.00</temp>
<bpm>0</bpm>
<rpm>0.00</rpm>
</extensions>
</trkpt>
<trkpt lat="63.870948792" lon="-18.726140976">
<ele>493.546875</ele>
<time>2012-07-25T12:46:37Z</time>
<speed>3.370000</speed>
<extensions>
<speed>3.4</speed>
<temp>0.00</temp>
<bpm>0</bpm>
<rpm>0.00</rpm>
</extensions>
</trkpt>
<trkpt lat="63.870811462" lon="-18.726322174">
<ele>493.312500</ele>
<time>2012-07-25T12:46:42Z</time>
<speed>3.640000</speed>
<extensions>
<speed>3.6</speed>
<temp>0.00</temp>
<bpm>0</bpm>
<rpm>0.00</rpm>
</extensions>
</trkpt>
<trkpt lat="63.870677948" lon="-18.726533890">
<ele>492.992188</ele>
<time>2012-07-25T12:46:47Z</time>
<speed>3.530000</speed>
<extensions>
<speed>3.5</speed>
<temp>0.00</temp>
<bpm>0</bpm>
<rpm>0.00</rpm>
</extensions>
</trkpt>
<trkpt lat="63.870563507" lon="-18.726819992">
<ele>492.031250</ele>
<time>2012-07-25T12:46:52Z</time>
<speed>4.210000</speed>
<extensions>
<speed>4.2</speed>
<temp>0.00</temp>
<bpm>0</bpm>
<rpm>0.00</rpm>
</extensions>
</trkpt>
<trkpt lat="63.870475769" lon="-18.727201462">
<ele>492.734375</ele>
<time>2012-07-25T12:46:57Z</time>
<speed>4.250000</speed>
<extensions>
<speed>4.3</speed>
<temp>0.00</temp>
<bpm>0</bpm>
<rpm>0.00</rpm>
</extensions>
</trkpt>
<trkpt lat="63.870399475" lon="-18.727571487">
<ele>492.656250</ele>
<time>2012-07-25T12:47:02Z</time>
<speed>3.960000</speed>
<extensions>
<speed>4.0</speed>
<temp>0.00</temp>
<bpm>0</bpm>
<rpm>0.00</rpm>
</extensions>
</trkpt>
<trkpt lat="63.870307922" lon="-18.727935791">
<ele>491.429688</ele>
<time>2012-07-25T12:47:07Z</time>
<speed>3.730000</speed>
<extensions>
<speed>3.7</speed>
<temp>0.00</temp>
<bpm>0</bpm>
<rpm>0.00</rpm>
</extensions>
</trkpt>
<trkpt lat="63.870231628" lon="-18.728321075">
<ele>492.718750</ele>
<time>2012-07-25T12:47:12Z</time>
<speed>4.180000</speed>
<extensions>
<speed>4.2</speed>
<temp>0.00</temp>
<bpm>0</bpm>
<rpm>0.00</rpm>
</extensions>
</trkpt>
<trkpt lat="63.870189667" lon="-18.728687286">
<ele>493.468750</ele>
<time>2012-07-25T12:47:17Z</time>
<speed>3.640000</speed>
<extensions>
<speed>3.6</speed>
<temp>0.00</temp>
<bpm>0</bpm>
<rpm>0.00</rpm>
</extensions>
</trkpt>
<trkpt lat="63.870143890" lon="-18.729084015">
<ele>493.757813</ele>
<time>2012-07-25T12:47:22Z</time>
<speed>3.930000</speed>
<extensions>
<speed>3.9</speed>
<temp>0.00</temp>
<bpm>0</bpm>
<rpm>0.00</rpm>
</extensions>
</trkpt>
<trkpt lat="63.870048523" lon="-18.729402542">
<ele>493.867188</ele>
<time>2012-07-25T12:47:27Z</time>
<speed>3.890000</speed>
<extensions>
<speed>3.9</speed>
<temp>0.00</temp>
<bpm>0</bpm>
<rpm>0.00</rpm>
</extensions>
</trkpt>
<trkpt lat="63.869930267" lon="-18.729761124">
<ele>493.234375</ele>
<time>2012-07-25T12:47:32Z</time>
<speed>4.650000</speed>
<extensions>
<speed>4.6</speed>
<temp>0.00</temp>
<bpm>0</bpm>
<rpm>0.00</rpm>
</extensions>
</trkpt>
<trkpt lat="63.869831085" lon="-18.730127335">
<ele>493.062500</ele>
<time>2012-07-25T12:47:37Z</time>
<speed>4.060000</speed>
<extensions>
<speed>4.1</speed>
<temp>0.00</temp>
<bpm>0</bpm>
<rpm>0.00</rpm>
</extensions>
</trkpt>
<trkpt lat="63.869728088" lon="-18.730464935">
<ele>491.734375</ele>
<time>2012-07-25T12:47:42Z</time>
<speed>4.120000</speed>
<extensions>
<speed>4.1</speed>
<temp>0.00</temp>
<bpm>0</bpm>
<rpm>0.00</rpm>
</extensions>
</trkpt>
<trkpt lat="63.869625092" lon="-18.730815887">
<ele>491.242188</ele>
<time>2012-07-25T12:47:47Z</time>
<speed>4.120000</speed>
<extensions>
<speed>4.1</speed>
<temp>0.00</temp>
<bpm>0</bpm>
<rpm>0.00</rpm>
</extensions>
</trkpt>
<trkpt lat="63.869522095" lon="-18.731212616">
<ele>491.000000</ele>
<time>2012-07-25T12:47:52Z</time>
<speed>3.930000</speed>
<extensions>
<speed>3.9</speed>
<temp>0.00</temp>
<bpm>0</bpm>
<rpm>0.00</rpm>
</extensions>
</trkpt>
<trkpt lat="63.869495392" lon="-18.731607437">
<ele>491.179688</ele>
<time>2012-07-25T12:47:57Z</time>
<speed>3.550000</speed>
<extensions>
<speed>3.5</speed>
<temp>0.00</temp>
<bpm>0</bpm>
<rpm>0.00</rpm>
</extensions>
</trkpt>
<trkpt lat="63.869525909" lon="-18.731985092">
<ele>491.242188</ele>
<time>2012-07-25T12:48:02Z</time>
<speed>3.640000</speed>
<extensions>
<speed>3.6</speed>
<temp>0.00</temp>
<bpm>0</bpm>
<rpm>0.00</rpm>
</extensions>
</trkpt>
<trkpt lat="63.869548798" lon="-18.732324600">
<ele>490.593750</ele>
<time>2012-07-25T12:48:07Z</time>
<speed>3.250000</speed>
<extensions>
<speed>3.2</speed>
<temp>0.00</temp>
<bpm>0</bpm>
<rpm>0.00</rpm>
</extensions>
</trkpt>
<trkpt lat="63.869552612" lon="-18.732685089">
<ele>491.171875</ele>
<time>2012-07-25T12:48:12Z</time>
<speed>3.660000</speed>
<extensions>
<speed>3.7</speed>
<temp>0.00</temp>
<bpm>0</bpm>
<rpm>0.00</rpm>
</extensions>
</trkpt>
<trkpt lat="63.869506836" lon="-18.733039856">
<ele>491.921875</ele>
<time>2012-07-25T12:48:17Z</time>
<speed>3.430000</speed>
<extensions>
<speed>3.4</speed>
<temp>0.00</temp>
<bpm>0</bpm>
<rpm>0.00</rpm>
</extensions>
</trkpt>
<trkpt lat="63.869430542" lon="-18.733322144">
<ele>491.718750</ele>
<time>2012-07-25T12:48:22Z</time>
<speed>3.390000</speed>
<extensions>
<speed>3.4</speed>
<temp>0.00</temp>
<bpm>0</bpm>
<rpm>0.00</rpm>
</extensions>
</trkpt>
<trkpt lat="63.869293213" lon="-18.733535767">
<ele>490.960938</ele>
<time>2012-07-25T12:48:27Z</time>
<speed>3.240000</speed>
<extensions>
<speed>3.2</speed>
<temp>0.00</temp>
<bpm>0</bpm>
<rpm>0.00</rpm>
</extensions>
</trkpt>
<trkpt lat="63.869132996" lon="-18.733617783">
<ele>490.632813</ele>
<time>2012-07-25T12:48:32Z</time>
<speed>4.100000</speed>
<extensions>
<speed>4.1</speed>
<temp>0.00</temp>
<bpm>0</bpm>
<rpm>0.00</rpm>
</extensions>
</trkpt>
<trkpt lat="63.868946075" lon="-18.733587265">
<ele>490.218750</ele>
<time>2012-07-25T12:48:37Z</time>
<speed>4.340000</speed>
<extensions>
<speed>4.3</speed>
<temp>0.00</temp>
<bpm>0</bpm>
<rpm>0.00</rpm>
</extensions>
</trkpt>
<trkpt lat="63.868782043" lon="-18.733537674">
<ele>489.710938</ele>
<time>2012-07-25T12:48:42Z</time>
<speed>3.110000</speed>
<extensions>
<speed>3.1</speed>
<temp>0.00</temp>
<bpm>0</bpm>
<rpm>0.00</rpm>
</extensions>
</trkpt>
<trkpt lat="63.868633270" lon="-18.733489990">
<ele>489.109375</ele>
<time>2012-07-25T12:48:47Z</time>
<speed>3.190000</speed>
<extensions>
<speed>3.2</speed>
<temp>0.00</temp>
<bpm>0</bpm>
<rpm>0.00</rpm>
</extensions>
</trkpt>
<trkpt lat="63.868480682" lon="-18.733478546">
<ele>488.718750</ele>
<time>2012-07-25T12:48:52Z</time>
<speed>3.350000</speed>
<extensions>
<speed>3.4</speed>
<temp>0.00</temp>
<bpm>0</bpm>
<rpm>0.00</rpm>
</extensions>
</trkpt>
<trkpt lat="63.868320465" lon="-18.733474731">
<ele>488.218750</ele>
<time>2012-07-25T12:48:57Z</time>
<speed>3.390000</speed>
<extensions>
<speed>3.4</speed>
<temp>0.00</temp>
<bpm>0</bpm>
<rpm>0.00</rpm>
</extensions>
</trkpt>
<trkpt lat="63.868164063" lon="-18.733497620">
<ele>487.757813</ele>
<time>2012-07-25T12:49:02Z</time>
<speed>3.060000</speed>
<extensions>
<speed>3.1</speed>
<temp>0.00</temp>
<bpm>0</bpm>
<rpm>0.00</rpm>
</extensions>
</trkpt>
<trkpt lat="63.868022919" lon="-18.733589172">
<ele>486.937500</ele>
<time>2012-07-25T12:49:07Z</time>
<speed>3.260000</speed>
<extensions>
<speed>3.3</speed>
<temp>0.00</temp>
<bpm>0</bpm>
<rpm>0.00</rpm>
</extensions>
</trkpt>
<trkpt lat="63.867881775" lon="-18.733724594">
<ele>486.921875</ele>
<time>2012-07-25T12:49:12Z</time>
<speed>3.570000</speed>
<extensions>
<speed>3.6</speed>
<temp>0.00</temp>
<bpm>0</bpm>
<rpm>0.00</rpm>
</extensions>
</trkpt>
<trkpt lat="63.867759705" lon="-18.733880997">
<ele>486.898438</ele>
<time>2012-07-25T12:49:17Z</time>
<speed>3.130000</speed>
<extensions>
<speed>3.1</speed>
<temp>0.00</temp>
<bpm>0</bpm>
<rpm>0.00</rpm>
</extensions>
</trkpt>
<trkpt lat="63.867637634" lon="-18.734029770">
<ele>486.929688</ele>
<time>2012-07-25T12:49:22Z</time>
<speed>2.940000</speed>
<extensions>
<speed>2.9</speed>
<temp>0.00</temp>
<bpm>0</bpm>
<rpm>0.00</rpm>
</extensions>
</trkpt>
<trkpt lat="63.867527008" lon="-18.734180450">
<ele>486.968750</ele>
<time>2012-07-25T12:49:27Z</time>
<speed>3.390000</speed>
<extensions>
<speed>3.4</speed>
<temp>0.00</temp>
<bpm>0</bpm>
<rpm>0.00</rpm>
</extensions>
</trkpt>
<trkpt lat="63.867389679" lon="-18.734340668">
<ele>486.835938</ele>
<time>2012-07-25T12:49:32Z</time>
<speed>3.240000</speed>
<extensions>
<speed>3.2</speed>
<temp>0.00</temp>
<bpm>0</bpm>
<rpm>0.00</rpm>
</extensions>
</trkpt>
<trkpt lat="63.867259979" lon="-18.734476089">
<ele>486.570313</ele>
<time>2012-07-25T12:49:37Z</time>
<speed>3.260000</speed>
<extensions>
<speed>3.3</speed>
<temp>0.00</temp>
<bpm>0</bpm>
<rpm>0.00</rpm>
</extensions>
</trkpt>
<trkpt lat="63.867122650" lon="-18.734497070">
<ele>486.695313</ele>
<time>2012-07-25T12:49:42Z</time>
<speed>3.040000</speed>
<extensions>
<speed>3.0</speed>
<temp>0.00</temp>
<bpm>0</bpm>
<rpm>0.00</rpm>
</extensions>
</trkpt>
<trkpt lat="63.867019653" lon="-18.734382629">
<ele>485.710938</ele>
<time>2012-07-25T12:49:47Z</time>
<speed>1.790000</speed>
<extensions>
<speed>1.8</speed>
<temp>0.00</temp>
<bpm>0</bpm>
<rpm>0.00</rpm>
</extensions>
</trkpt>
<trkpt lat="63.866966248" lon="-18.734266281">
<ele>487.234375</ele>
<time>2012-07-25T12:49:52Z</time>
<speed>0.840000</speed>
<extensions>
<speed>0.8</speed>
<temp>0.00</temp>
<bpm>0</bpm>
<rpm>0.00</rpm>
</extensions>
</trkpt>
<trkpt lat="63.866970062" lon="-18.734268188">
<ele>487.187500</ele>
<time>2012-07-25T12:49:57Z</time>
<speed>0.120000</speed>
<extensions>
<speed>0.1</speed>
<temp>0.00</temp>
<bpm>0</bpm>
<rpm>0.00</rpm>
</extensions>
</trkpt>
<trkpt lat="63.866962433" lon="-18.734245300">
<ele>487.070313</ele>
<time>2012-07-25T12:50:02Z</time>
<speed>0.070000</speed>
<extensions>
<speed>0.1</speed>
<temp>0.00</temp>
<bpm>0</bpm>
<rpm>0.00</rpm>
</extensions>
</trkpt>
<trkpt lat="63.866966248" lon="-18.734241486">
<ele>486.976563</ele>
<time>2012-07-25T12:50:07Z</time>
<speed>0.010000</speed>
<extensions>
<speed>0.0</speed>
<temp>0.00</temp>
<bpm>0</bpm>
<rpm>0.00</rpm>
</extensions>
</trkpt>
<trkpt lat="63.866966248" lon="-18.734247208">
<ele>486.898438</ele>
<time>2012-07-25T12:50:12Z</time>
<speed>0.110000</speed>
<extensions>
<speed>0.1</speed>
<temp>0.00</temp>
<bpm>0</bpm>
<rpm>0.00</rpm>
</extensions>
</trkpt>
<trkpt lat="63.866962433" lon="-18.734220505">
<ele>486.851563</ele>
<time>2012-07-25T12:50:17Z</time>
<speed>0.490000</speed>
<extensions>
<speed>0.5</speed>
<temp>0.00</temp>
<bpm>0</bpm>
<rpm>0.00</rpm>
</extensions>
</trkpt>
<trkpt lat="63.866950989" lon="-18.734176636">
<ele>486.960938</ele>
<time>2012-07-25T12:50:22Z</time>
<speed>0.560000</speed>
<extensions>
<speed>0.6</speed>
<temp>0.00</temp>
<bpm>0</bpm>
<rpm>0.00</rpm>
</extensions>
</trkpt>
<trkpt lat="63.866939545" lon="-18.734151840">
<ele>487.117188</ele>
<time>2012-07-25T12:50:27Z</time>
<speed>0.100000</speed>
<extensions>
<speed>0.1</speed>
<temp>0.00</temp>
<bpm>0</bpm>
<rpm>0.00</rpm>
</extensions>
</trkpt>
<trkpt lat="63.866939545" lon="-18.734136581">
<ele>487.312500</ele>
<time>2012-07-25T12:50:32Z</time>
<speed>0.300000</speed>
<extensions>
<speed>0.3</speed>
<temp>0.00</temp>
<bpm>0</bpm>
<rpm>0.00</rpm>
</extensions>
</trkpt>
<trkpt lat="63.866931915" lon="-18.734104156">
<ele>487.585938</ele>
<time>2012-07-25T12:50:37Z</time>
<speed>0.430000</speed>
<extensions>
<speed>0.4</speed>
<temp>0.00</temp>
<bpm>0</bpm>
<rpm>0.00</rpm>
</extensions>
</trkpt>
<trkpt lat="63.866924286" lon="-18.734069824">
<ele>487.968750</ele>
<time>2012-07-25T12:50:42Z</time>
<speed>0.220000</speed>
<extensions>
<speed>0.2</speed>
<temp>0.00</temp>
<bpm>0</bpm>
<rpm>0.00</rpm>
</extensions>
</trkpt>
<trkpt lat="63.866916656" lon="-18.734035492">
<ele>488.343750</ele>
<time>2012-07-25T12:50:47Z</time>
<speed>0.430000</speed>
<extensions>
<speed>0.4</speed>
<temp>0.00</temp>
<bpm>0</bpm>
<rpm>0.00</rpm>
</extensions>
</trkpt>
<trkpt lat="63.866905212" lon="-18.733995438">
<ele>488.695313</ele>
<time>2012-07-25T12:50:52Z</time>
<speed>0.530000</speed>
<extensions>
<speed>0.5</speed>
<temp>0.00</temp>
<bpm>0</bpm>
<rpm>0.00</rpm>
</extensions>
</trkpt>
<trkpt lat="63.866897583" lon="-18.733943939">
<ele>489.085938</ele>
<time>2012-07-25T12:50:57Z</time>
<speed>0.420000</speed>
<extensions>
<speed>0.4</speed>
<temp>0.00</temp>
<bpm>0</bpm>
<rpm>0.00</rpm>
</extensions>
</trkpt>
<trkpt lat="63.866889954" lon="-18.733905792">
<ele>489.734375</ele>
<time>2012-07-25T12:51:02Z</time>
<speed>0.240000</speed>
<extensions>
<speed>0.2</speed>
<temp>0.00</temp>
<bpm>0</bpm>
<rpm>0.00</rpm>
</extensions>
</trkpt>
<trkpt lat="63.866882324" lon="-18.733861923">
<ele>490.367188</ele>
<time>2012-07-25T12:51:07Z</time>
<speed>0.850000</speed>
<extensions>
<speed>0.8</speed>
<temp>0.00</temp>
<bpm>0</bpm>
<rpm>0.00</rpm>
</extensions>
</trkpt>
<trkpt lat="63.866863251" lon="-18.733772278">
<ele>491.367188</ele>
<time>2012-07-25T12:51:12Z</time>
<speed>0.980000</speed>
<extensions>
<speed>1.0</speed>
<temp>0.00</temp>
<bpm>0</bpm>
<rpm>0.00</rpm>
</extensions>
</trkpt>
<trkpt lat="63.866832733" lon="-18.733659744">
<ele>493.898438</ele>
<time>2012-07-25T12:51:17Z</time>
<speed>1.140000</speed>
<extensions>
<speed>1.1</speed>
<temp>0.00</temp>
<bpm>0</bpm>
<rpm>0.00</rpm>
</extensions>
</trkpt>
<trkpt lat="63.866821289" lon="-18.733573914">
<ele>495.109375</ele>
<time>2012-07-25T12:51:22Z</time>
<speed>0.780000</speed>
<extensions>
<speed>0.8</speed>
<temp>0.00</temp>
<bpm>0</bpm>
<rpm>0.00</rpm>
</extensions>
</trkpt>
<trkpt lat="63.866806030" lon="-18.733482361">
<ele>496.117188</ele>
<time>2012-07-25T12:51:27Z</time>
<speed>0.840000</speed>
<extensions>
<speed>0.8</speed>
<temp>0.00</temp>
<bpm>0</bpm>
<rpm>0.00</rpm>
</extensions>
</trkpt>
<trkpt lat="63.866794586" lon="-18.733413696">
<ele>496.921875</ele>
<time>2012-07-25T12:51:32Z</time>
<speed>0.640000</speed>
<extensions>
<speed>0.6</speed>
<temp>0.00</temp>
<bpm>0</bpm>
<rpm>0.00</rpm>
</extensions>
</trkpt>
<trkpt lat="63.866783142" lon="-18.733346939">
<ele>497.132813</ele>
<time>2012-07-25T12:51:37Z</time>
<speed>0.480000</speed>
<extensions>
<speed>0.5</speed>
<temp>0.00</temp>
<bpm>0</bpm>
<rpm>0.00</rpm>
</extensions>
</trkpt>
<trkpt lat="63.866786957" lon="-18.733310699">
<ele>497.421875</ele>
<time>2012-07-25T12:51:42Z</time>
<speed>0.200000</speed>
<extensions>
<speed>0.2</speed>
<temp>0.00</temp>
<bpm>0</bpm>
<rpm>0.00</rpm>
</extensions>
</trkpt>
<trkpt lat="63.866771698" lon="-18.733283997">
<ele>496.695313</ele>
<time>2012-07-25T12:51:47Z</time>
<speed>0.560000</speed>
<extensions>
<speed>0.6</speed>
<temp>0.00</temp>
<bpm>0</bpm>
<rpm>0.00</rpm>
</extensions>
</trkpt>
<trkpt lat="63.866752625" lon="-18.733221054">
<ele>497.820313</ele>
<time>2012-07-25T12:51:52Z</time>
<speed>0.730000</speed>
<extensions>
<speed>0.7</speed>
<temp>0.00</temp>
<bpm>0</bpm>
<rpm>0.00</rpm>
</extensions>
</trkpt>
<trkpt lat="63.866741180" lon="-18.733163834">
<ele>498.687500</ele>
<time>2012-07-25T12:51:57Z</time>
<speed>0.540000</speed>
<extensions>
<speed>0.5</speed>
<temp>0.00</temp>
<bpm>0</bpm>
<rpm>0.00</rpm>
</extensions>
</trkpt>
<trkpt lat="63.866729736" lon="-18.733097076">
<ele>498.265625</ele>
<time>2012-07-25T12:52:02Z</time>
<speed>0.860000</speed>
<extensions>
<speed>0.9</speed>
<temp>0.00</temp>
<bpm>0</bpm>
<rpm>0.00</rpm>
</extensions>
</trkpt>
<trkpt lat="63.866714478" lon="-18.733034134">
<ele>498.343750</ele>
<time>2012-07-25T12:52:07Z</time>
<speed>0.810000</speed>
<extensions>
<speed>0.8</speed>
<temp>0.00</temp>
<bpm>0</bpm>
<rpm>0.00</rpm>
</extensions>
</trkpt>
<trkpt lat="63.866710663" lon="-18.733034134">
<ele>497.562500</ele>
<time>2012-07-25T12:52:12Z</time>
<speed>0.030000</speed>
<extensions>
<speed>0.0</speed>
<temp>0.00</temp>
<bpm>0</bpm>
<rpm>0.00</rpm>
</extensions>
</trkpt>
<trkpt lat="63.866706848" lon="-18.733034134">
<ele>497.531250</ele>
<time>2012-07-25T12:52:17Z</time>
<speed>0.640000</speed>
<extensions>
<speed>0.6</speed>
<temp>0.00</temp>
<bpm>0</bpm>
<rpm>0.00</rpm>
</extensions>
</trkpt>
<trkpt lat="63.866699219" lon="-18.732933044">
<ele>498.664063</ele>
<time>2012-07-25T12:52:22Z</time>
<speed>1.110000</speed>
<extensions>
<speed>1.1</speed>
<temp>0.00</temp>
<bpm>0</bpm>
<rpm>0.00</rpm>
</extensions>
</trkpt>
<trkpt lat="63.866680145" lon="-18.732860565">
<ele>499.492188</ele>
<time>2012-07-25T12:52:27Z</time>
<speed>0.260000</speed>
<extensions>
<speed>0.3</speed>
<temp>0.00</temp>
<bpm>0</bpm>
<rpm>0.00</rpm>
</extensions>
</trkpt>
<trkpt lat="63.866661072" lon="-18.732784271">
<ele>499.218750</ele>
<time>2012-07-25T12:52:32Z</time>
<speed>1.020000</speed>
<extensions>
<speed>1.0</speed>
<temp>0.00</temp>
<bpm>0</bpm>
<rpm>0.00</rpm>
</extensions>
</trkpt>
<trkpt lat="63.866638184" lon="-18.732698441">
<ele>499.320313</ele>
<time>2012-07-25T12:52:37Z</time>
<speed>0.900000</speed>
<extensions>
<speed>0.9</speed>
<temp>0.00</temp>
<bpm>0</bpm>
<rpm>0.00</rpm>
</extensions>
</trkpt>
<trkpt lat="63.866622925" lon="-18.732631683">
<ele>499.921875</ele>
<time>2012-07-25T12:52:42Z</time>
<speed>1.010000</speed>
<extensions>
<speed>1.0</speed>
<temp>0.00</temp>
<bpm>0</bpm>
<rpm>0.00</rpm>
</extensions>
</trkpt>
<trkpt lat="63.866592407" lon="-18.732557297">
<ele>499.765625</ele>
<time>2012-07-25T12:52:47Z</time>
<speed>1.020000</speed>
<extensions>
<speed>1.0</speed>
<temp>0.00</temp>
<bpm>0</bpm>
<rpm>0.00</rpm>
</extensions>
</trkpt>
<trkpt lat="63.866558075" lon="-18.732442856">
<ele>500.437500</ele>
<time>2012-07-25T12:52:52Z</time>
<speed>0.870000</speed>
<extensions>
<speed>0.9</speed>
<temp>0.00</temp>
<bpm>0</bpm>
<rpm>0.00</rpm>
</extensions>
</trkpt>
<trkpt lat="63.866539001" lon="-18.732366562">
<ele>500.171875</ele>
<time>2012-07-25T12:52:57Z</time>
<speed>0.750000</speed>
<extensions>
<speed>0.8</speed>
<temp>0.00</temp>
<bpm>0</bpm>
<rpm>0.00</rpm>
</extensions>
</trkpt>
<trkpt lat="63.866516113" lon="-18.732276917">
<ele>500.007813</ele>
<time>2012-07-25T12:53:02Z</time>
<speed>0.980000</speed>
<extensions>
<speed>1.0</speed>
<temp>0.00</temp>
<bpm>0</bpm>
<rpm>0.00</rpm>
</extensions>
</trkpt>
<trkpt lat="63.866500854" lon="-18.732252121">
<ele>500.351563</ele>
<time>2012-07-25T12:53:07Z</time>
<speed>0.080000</speed>
<extensions>
<speed>0.1</speed>
<temp>0.00</temp>
<bpm>0</bpm>
<rpm>0.00</rpm>
</extensions>
</trkpt>
<trkpt lat="63.866500854" lon="-18.732252121">
<ele>500.367188</ele>
<time>2012-07-25T12:53:12Z</time>
<speed>0.040000</speed>
<extensions>
<speed>0.0</speed>
<temp>0.00</temp>
<bpm>0</bpm>
<rpm>0.00</rpm>
</extensions>
</trkpt>
<trkpt lat="63.866500854" lon="-18.732248306">
<ele>500.171875</ele>
<time>2012-07-25T12:53:17Z</time>
<speed>0.050000</speed>
<extensions>
<speed>0.1</speed>
<temp>0.00</temp>
<bpm>0</bpm>
<rpm>0.00</rpm>
</extensions>
</trkpt>
<trkpt lat="63.866500854" lon="-18.732248306">
<ele>500.179688</ele>
<time>2012-07-25T12:53:22Z</time>
<extensions>
<speed>0.0</speed>
<temp>0.00</temp>
<bpm>0</bpm>
<rpm>0.00</rpm>
</extensions>
</trkpt>
<trkpt lat="63.866497040" lon="-18.732233047">
<ele>500.164063</ele>
<time>2012-07-25T12:53:27Z</time>
<speed>1.110000</speed>
<extensions>
<speed>1.1</speed>
<temp>0.00</temp>
<bpm>0</bpm>
<rpm>0.00</rpm>
</extensions>
</trkpt>
<trkpt lat="63.866474152" lon="-18.732137680">
<ele>499.664063</ele>
<time>2012-07-25T12:53:32Z</time>
<speed>1.240000</speed>
<extensions>
<speed>1.2</speed>
<temp>0.00</temp>
<bpm>0</bpm>
<rpm>0.00</rpm>
</extensions>
</trkpt>
<trkpt lat="63.866451263" lon="-18.732038498">
<ele>499.515625</ele>
<time>2012-07-25T12:53:37Z</time>
<speed>1.800000</speed>
<extensions>
<speed>1.8</speed>
<temp>0.00</temp>
<bpm>0</bpm>
<rpm>0.00</rpm>
</extensions>
</trkpt>
<trkpt lat="63.866428375" lon="-18.731847763">
<ele>500.179688</ele>
<time>2012-07-25T12:53:42Z</time>
<speed>1.950000</speed>
<extensions>
<speed>1.9</speed>
<temp>0.00</temp>
<bpm>0</bpm>
<rpm>0.00</rpm>
</extensions>
</trkpt>
<trkpt lat="63.866409302" lon="-18.731643677">
<ele>501.320313</ele>
<time>2012-07-25T12:53:47Z</time>
<speed>2.320000</speed>
<extensions>
<speed>2.3</speed>
<temp>0.00</temp>
<bpm>0</bpm>
<rpm>0.00</rpm>
</extensions>
</trkpt>
<trkpt lat="63.866390228" lon="-18.731418610">
<ele>502.531250</ele>
<time>2012-07-25T12:53:52Z</time>
<speed>2.330000</speed>
<extensions>
<speed>2.3</speed>
<temp>0.00</temp>
<bpm>0</bpm>
<rpm>0.00</rpm>
</extensions>
</trkpt>
<trkpt lat="63.866363525" lon="-18.731216431">
<ele>502.109375</ele>
<time>2012-07-25T12:53:57Z</time>
<speed>2.920000</speed>
<extensions>
<speed>2.9</speed>
<temp>0.00</temp>
<bpm>0</bpm>
<rpm>0.00</rpm>
</extensions>
</trkpt>
<trkpt lat="63.866359711" lon="-18.730970383">
<ele>503.265625</ele>
<time>2012-07-25T12:54:02Z</time>
<speed>2.380000</speed>
<extensions>
<speed>2.4</speed>
<temp>0.00</temp>
<bpm>0</bpm>
<rpm>0.00</rpm>
</extensions>
</trkpt>
<trkpt lat="63.866329193" lon="-18.730699539">
<ele>503.757813</ele>
<time>2012-07-25T12:54:07Z</time>
<speed>3.970000</speed>
<extensions>
<speed>4.0</speed>
<temp>0.00</temp>
<bpm>0</bpm>
<rpm>0.00</rpm>
</extensions>
</trkpt>
<trkpt lat="63.866306305" lon="-18.730403900">
<ele>503.593750</ele>
<time>2012-07-25T12:54:12Z</time>
<speed>2.100000</speed>
<extensions>
<speed>2.1</speed>
<temp>0.00</temp>
<bpm>0</bpm>
<rpm>0.00</rpm>
</extensions>
</trkpt>
<trkpt lat="63.866294861" lon="-18.730186462">
<ele>503.945313</ele>
<time>2012-07-25T12:54:17Z</time>
<speed>2.390000</speed>
<extensions>
<speed>2.4</speed>
<temp>0.00</temp>
<bpm>0</bpm>
<rpm>0.00</rpm>
</extensions>
</trkpt>
<trkpt lat="63.866279602" lon="-18.729938507">
<ele>504.531250</ele>
<time>2012-07-25T12:54:22Z</time>
<speed>2.670000</speed>
<extensions>
<speed>2.7</speed>
<temp>0.00</temp>
<bpm>0</bpm>
<rpm>0.00</rpm>
</extensions>
</trkpt>
<trkpt lat="63.866283417" lon="-18.729635239">
<ele>508.218750</ele>
<time>2012-07-25T12:54:27Z</time>
<speed>3.090000</speed>
<extensions>
<speed>3.1</speed>
<temp>0.00</temp>
<bpm>0</bpm>
<rpm>0.00</rpm>
</extensions>
</trkpt>
<trkpt lat="63.866260529" lon="-18.729354858">
<ele>507.437500</ele>
<time>2012-07-25T12:54:32Z</time>
<speed>2.890000</speed>
<extensions>
<speed>2.9</speed>
<temp>0.00</temp>
<bpm>0</bpm>
<rpm>0.00</rpm>
</extensions>
</trkpt>
<trkpt lat="63.866203308" lon="-18.729047775">
<ele>506.640625</ele>
<time>2012-07-25T12:54:37Z</time>
<speed>4.190000</speed>
<extensions>
<speed>4.2</speed>
<temp>0.00</temp>
<bpm>0</bpm>
<rpm>0.00</rpm>
</extensions>
</trkpt>
<trkpt lat="63.866092682" lon="-18.728797913">
<ele>504.523438</ele>
<time>2012-07-25T12:54:42Z</time>
<speed>2.630000</speed>
<extensions>
<speed>2.6</speed>
<temp>0.00</temp>
<bpm>0</bpm>
<rpm>0.00</rpm>
</extensions>
</trkpt>
<trkpt lat="63.865974426" lon="-18.728733063">
<ele>502.406250</ele>
<time>2012-07-25T12:54:47Z</time>
<speed>2.680000</speed>
<extensions>
<speed>2.7</speed>
<temp>0.00</temp>
<bpm>0</bpm>
<rpm>0.00</rpm>
</extensions>
</trkpt>
<trkpt lat="63.865856171" lon="-18.728727341">
<ele>501.742188</ele>
<time>2012-07-25T12:54:52Z</time>
<speed>2.840000</speed>
<extensions>
<speed>2.8</speed>
<temp>0.00</temp>
<bpm>0</bpm>
<rpm>0.00</rpm>
</extensions>
</trkpt>
<trkpt lat="63.865737915" lon="-18.728723526">
<ele>502.460938</ele>
<time>2012-07-25T12:54:57Z</time>
<speed>1.740000</speed>
<extensions>
<speed>1.7</speed>
<temp>0.00</temp>
<bpm>0</bpm>
<rpm>0.00</rpm>
</extensions>
</trkpt>
<trkpt lat="63.865665436" lon="-18.728813171">
<ele>502.656250</ele>
<time>2012-07-25T12:55:02Z</time>
<speed>1.910000</speed>
<extensions>
<speed>1.9</speed>
<temp>0.00</temp>
<bpm>0</bpm>
<rpm>0.00</rpm>
</extensions>
</trkpt>
<trkpt lat="63.865581512" lon="-18.728927612">
<ele>505.226563</ele>
<time>2012-07-25T12:55:07Z</time>
<speed>2.280000</speed>
<extensions>
<speed>2.3</speed>
<temp>0.00</temp>
<bpm>0</bpm>
<rpm>0.00</rpm>
</extensions>
</trkpt>
<trkpt lat="63.865509033" lon="-18.729070663">
<ele>507.765625</ele>
<time>2012-07-25T12:55:12Z</time>
<speed>2.210000</speed>
<extensions>
<speed>2.2</speed>
<temp>0.00</temp>
<bpm>0</bpm>
<rpm>0.00</rpm>
</extensions>
</trkpt>
<trkpt lat="63.865432739" lon="-18.729135513">
<ele>509.242188</ele>
<time>2012-07-25T12:55:17Z</time>
<speed>1.580000</speed>
<extensions>
<speed>1.6</speed>
<temp>0.00</temp>
<bpm>0</bpm>
<rpm>0.00</rpm>
</extensions>
</trkpt>
<trkpt lat="63.865348816" lon="-18.729156494">
<ele>509.843750</ele>
<time>2012-07-25T12:55:22Z</time>
<speed>2.370000</speed>
<extensions>
<speed>2.4</speed>
<temp>0.00</temp>
<bpm>0</bpm>
<rpm>0.00</rpm>
</extensions>
</trkpt>
<trkpt lat="63.865261078" lon="-18.729179382">
<ele>511.046875</ele>
<time>2012-07-25T12:55:27Z</time>
<speed>2.420000</speed>
<extensions>
<speed>2.4</speed>
<temp>0.00</temp>
<bpm>0</bpm>
<rpm>0.00</rpm>
</extensions>
</trkpt>
<trkpt lat="63.865154266" lon="-18.729272842">
<ele>509.718750</ele>
<time>2012-07-25T12:55:32Z</time>
<speed>2.340000</speed>
<extensions>
<speed>2.3</speed>
<temp>0.00</temp>
<bpm>0</bpm>
<rpm>0.00</rpm>
</extensions>
</trkpt>
<trkpt lat="63.865093231" lon="-18.729410172">
<ele>510.656250</ele>
<time>2012-07-25T12:55:37Z</time>
<speed>2.030000</speed>
<extensions>
<speed>2.0</speed>
<temp>0.00</temp>
<bpm>0</bpm>
<rpm>0.00</rpm>
</extensions>
</trkpt>
<trkpt lat="63.865070343" lon="-18.729463577">
<ele>512.765625</ele>
<time>2012-07-25T12:55:42Z</time>
<speed>0.290000</speed>
<extensions>
<speed>0.3</speed>
<temp>0.00</temp>
<bpm>0</bpm>
<rpm>0.00</rpm>
</extensions>
</trkpt>
<trkpt lat="63.865066528" lon="-18.729484558">
<ele>513.171875</ele>
<time>2012-07-25T12:55:47Z</time>
<speed>1.090000</speed>
<extensions>
<speed>1.1</speed>
<temp>0.00</temp>
<bpm>0</bpm>
<rpm>0.00</rpm>
</extensions>
</trkpt>
<trkpt lat="63.865047455" lon="-18.729558945">
<ele>514.843750</ele>
<time>2012-07-25T12:55:52Z</time>
<speed>0.940000</speed>
<extensions>
<speed>0.9</speed>
<temp>0.00</temp>
<bpm>0</bpm>
<rpm>0.00</rpm>
</extensions>
</trkpt>
<trkpt lat="63.865024567" lon="-18.729644775">
<ele>515.218750</ele>
<time>2012-07-25T12:55:57Z</time>
<speed>0.650000</speed>
<extensions>
<speed>0.6</speed>
<temp>0.00</temp>
<bpm>0</bpm>
<rpm>0.00</rpm>
</extensions>
</trkpt>
<trkpt lat="63.865013123" lon="-18.729692459">
<ele>516.203125</ele>
<time>2012-07-25T12:56:02Z</time>
<speed>0.710000</speed>
<extensions>
<speed>0.7</speed>
<temp>0.00</temp>
<bpm>0</bpm>
<rpm>0.00</rpm>
</extensions>
</trkpt>
<trkpt lat="63.865013123" lon="-18.729764938">
<ele>517.703125</ele>
<time>2012-07-25T12:56:07Z</time>
<speed>1.000000</speed>
<extensions>
<speed>1.0</speed>
<temp>0.00</temp>
<bpm>0</bpm>
<rpm>0.00</rpm>
</extensions>
</trkpt>
<trkpt lat="63.865005493" lon="-18.729827881">
<ele>518.500000</ele>
<time>2012-07-25T12:56:12Z</time>
<speed>0.560000</speed>
<extensions>
<speed>0.6</speed>
<temp>0.00</temp>
<bpm>0</bpm>
<rpm>0.00</rpm>
</extensions>
</trkpt>
<trkpt lat="63.865001678" lon="-18.729831696">
<ele>518.000000</ele>
<time>2012-07-25T12:56:17Z</time>
<speed>0.100000</speed>
<extensions>
<speed>0.1</speed>
<temp>0.00</temp>
<bpm>0</bpm>
<rpm>0.00</rpm>
</extensions>
</trkpt>
<trkpt lat="63.865001678" lon="-18.729827881">
<ele>517.703125</ele>
<time>2012-07-25T12:56:22Z</time>
<speed>0.440000</speed>
<extensions>
<speed>0.4</speed>
<temp>0.00</temp>
<bpm>0</bpm>
<rpm>0.00</rpm>
</extensions>
</trkpt>
<trkpt lat="63.864994049" lon="-18.729864120">
<ele>517.796875</ele>
<time>2012-07-25T12:56:27Z</time>
<speed>0.440000</speed>
<extensions>
<speed>0.4</speed>
<temp>0.00</temp>
<bpm>0</bpm>
<rpm>0.00</rpm>
</extensions>
</trkpt>
<trkpt lat="63.864994049" lon="-18.729934692">
<ele>517.953125</ele>
<time>2012-07-25T12:56:32Z</time>
<speed>0.680000</speed>
<extensions>
<speed>0.7</speed>
<temp>0.00</temp>
<bpm>0</bpm>
<rpm>0.00</rpm>
</extensions>
</trkpt>
<trkpt lat="63.864990234" lon="-18.729976654">
<ele>517.234375</ele>
<time>2012-07-25T12:56:37Z</time>
<speed>0.760000</speed>
<extensions>
<speed>0.8</speed>
<temp>0.00</temp>
<bpm>0</bpm>
<rpm>0.00</rpm>
</extensions>
</trkpt>
<trkpt lat="63.864986420" lon="-18.730060577">
<ele>517.578125</ele>
<time>2012-07-25T12:56:42Z</time>
<speed>1.110000</speed>
<extensions>
<speed>1.1</speed>
<temp>0.00</temp>
<bpm>0</bpm>
<rpm>0.00</rpm>
</extensions>
</trkpt>
<trkpt lat="63.864990234" lon="-18.730188370">
<ele>518.593750</ele>
<time>2012-07-25T12:56:47Z</time>
<speed>1.370000</speed>
<extensions>
<speed>1.4</speed>
<temp>0.00</temp>
<bpm>0</bpm>
<rpm>0.00</rpm>
</extensions>
</trkpt>
<trkpt lat="63.865013123" lon="-18.730304718">
<ele>519.000000</ele>
<time>2012-07-25T12:56:52Z</time>
<speed>1.190000</speed>
<extensions>
<speed>1.2</speed>
<temp>0.00</temp>
<bpm>0</bpm>
<rpm>0.00</rpm>
</extensions>
</trkpt>
<trkpt lat="63.865028381" lon="-18.730411530">
<ele>519.718750</ele>
<time>2012-07-25T12:56:57Z</time>
<speed>1.370000</speed>
<extensions>
<speed>1.4</speed>
<temp>0.00</temp>
<bpm>0</bpm>
<rpm>0.00</rpm>
</extensions>
</trkpt>
<trkpt lat="63.865043640" lon="-18.730535507">
<ele>520.046875</ele>
<time>2012-07-25T12:57:02Z</time>
<speed>1.320000</speed>
<extensions>
<speed>1.3</speed>
<temp>0.00</temp>
<bpm>0</bpm>
<rpm>0.00</rpm>
</extensions>
</trkpt>
<trkpt lat="63.865070343" lon="-18.730632782">
<ele>520.156250</ele>
<time>2012-07-25T12:57:07Z</time>
<speed>0.950000</speed>
<extensions>
<speed>1.0</speed>
<temp>0.00</temp>
<bpm>0</bpm>
<rpm>0.00</rpm>
</extensions>
</trkpt>
<trkpt lat="63.865093231" lon="-18.730766296">
<ele>521.250000</ele>
<time>2012-07-25T12:57:12Z</time>
<speed>1.200000</speed>
<extensions>
<speed>1.2</speed>
<temp>0.00</temp>
<bpm>0</bpm>
<rpm>0.00</rpm>
</extensions>
</trkpt>
<trkpt lat="63.865119934" lon="-18.730875015">
<ele>522.484375</ele>
<time>2012-07-25T12:57:17Z</time>
<speed>1.260000</speed>
<extensions>
<speed>1.3</speed>
<temp>0.00</temp>
<bpm>0</bpm>
<rpm>0.00</rpm>
</extensions>
</trkpt>
<trkpt lat="63.865142822" lon="-18.730993271">
<ele>522.828125</ele>
<time>2012-07-25T12:57:22Z</time>
<speed>1.620000</speed>
<extensions>
<speed>1.6</speed>
<temp>0.00</temp>
<bpm>0</bpm>
<rpm>0.00</rpm>
</extensions>
</trkpt>
<trkpt lat="63.865158081" lon="-18.731086731">
<ele>522.703125</ele>
<time>2012-07-25T12:57:27Z</time>
<speed>0.890000</speed>
<extensions>
<speed>0.9</speed>
<temp>0.00</temp>
<bpm>0</bpm>
<rpm>0.00</rpm>
</extensions>
</trkpt>
<trkpt lat="63.865177155" lon="-18.731168747">
<ele>523.296875</ele>
<time>2012-07-25T12:57:32Z</time>
<speed>0.440000</speed>
<extensions>
<speed>0.4</speed>
<temp>0.00</temp>
<bpm>0</bpm>
<rpm>0.00</rpm>
</extensions>
</trkpt>
<trkpt lat="63.865188599" lon="-18.731210709">
<ele>523.328125</ele>
<time>2012-07-25T12:57:37Z</time>
<speed>0.850000</speed>
<extensions>
<speed>0.8</speed>
<temp>0.00</temp>
<bpm>0</bpm>
<rpm>0.00</rpm>
</extensions>
</trkpt>
<trkpt lat="63.865203857" lon="-18.731338501">
<ele>522.468750</ele>
<time>2012-07-25T12:57:42Z</time>
<speed>1.850000</speed>
<extensions>
<speed>1.8</speed>
<temp>0.00</temp>
<bpm>0</bpm>
<rpm>0.00</rpm>
</extensions>
</trkpt>
<trkpt lat="63.865207672" lon="-18.731575012">
<ele>522.453125</ele>
<time>2012-07-25T12:57:47Z</time>
<speed>1.850000</speed>
<extensions>
<speed>1.8</speed>
<temp>0.00</temp>
<bpm>0</bpm>
<rpm>0.00</rpm>
</extensions>
</trkpt>
<trkpt lat="63.865200043" lon="-18.731761932">
<ele>525.031250</ele>
<time>2012-07-25T12:57:52Z</time>
<speed>1.860000</speed>
<extensions>
<speed>1.9</speed>
<temp>0.00</temp>
<bpm>0</bpm>
<rpm>0.00</rpm>
</extensions>
</trkpt>
<trkpt lat="63.865177155" lon="-18.731922150">
<ele>524.656250</ele>
<time>2012-07-25T12:57:57Z</time>
<speed>1.860000</speed>
<extensions>
<speed>1.9</speed>
<temp>0.00</temp>
<bpm>0</bpm>
<rpm>0.00</rpm>
</extensions>
</trkpt>
<trkpt lat="63.865127563" lon="-18.732057571">
<ele>522.312500</ele>
<time>2012-07-25T12:58:02Z</time>
<speed>1.850000</speed>
<extensions>
<speed>1.8</speed>
<temp>0.00</temp>
<bpm>0</bpm>
<rpm>0.00</rpm>
</extensions>
</trkpt>
<trkpt lat="63.865066528" lon="-18.732212067">
<ele>519.984375</ele>
<time>2012-07-25T12:58:07Z</time>
<speed>2.060000</speed>
<extensions>
<speed>2.1</speed>
<temp>0.00</temp>
<bpm>0</bpm>
<rpm>0.00</rpm>
</extensions>
</trkpt>
<trkpt lat="63.865016937" lon="-18.732297897">
<ele>519.046875</ele>
<time>2012-07-25T12:58:12Z</time>
<speed>0.270000</speed>
<extensions>
<speed>0.3</speed>
<temp>0.00</temp>
<bpm>0</bpm>
<rpm>0.00</rpm>
</extensions>
</trkpt>
<trkpt lat="63.865016937" lon="-18.732315063">
<ele>521.046875</ele>
<time>2012-07-25T12:58:17Z</time>
<speed>0.590000</speed>
<extensions>
<speed>0.6</speed>
<temp>0.00</temp>
<bpm>0</bpm>
<rpm>0.00</rpm>
</extensions>
</trkpt>
<trkpt lat="63.865024567" lon="-18.732360840">
<ele>522.296875</ele>
<time>2012-07-25T12:58:22Z</time>
<speed>0.220000</speed>
<extensions>
<speed>0.2</speed>
<temp>0.00</temp>
<bpm>0</bpm>
<rpm>0.00</rpm>
</extensions>
</trkpt>
<trkpt lat="63.865028381" lon="-18.732357025">
<ele>522.656250</ele>
<time>2012-07-25T12:58:27Z</time>
<speed>0.020000</speed>
<extensions>
<speed>0.0</speed>
<temp>0.00</temp>
<bpm>0</bpm>
<rpm>0.00</rpm>
</extensions>
</trkpt>
<trkpt lat="63.865028381" lon="-18.732360840">
<ele>522.656250</ele>
<time>2012-07-25T12:58:32Z</time>
<speed>0.010000</speed>
<extensions>
<speed>0.0</speed>
<temp>0.00</temp>
<bpm>0</bpm>
<rpm>0.00</rpm>
</extensions>
</trkpt>
<trkpt lat="63.865020752" lon="-18.732372284">
<ele>522.937500</ele>
<time>2012-07-25T12:58:37Z</time>
<speed>0.600000</speed>
<extensions>
<speed>0.6</speed>
<temp>0.00</temp>
<bpm>0</bpm>
<rpm>0.00</rpm>
</extensions>
</trkpt>
<trkpt lat="63.865001678" lon="-18.732410431">
<ele>523.906250</ele>
<time>2012-07-25T12:58:42Z</time>
<speed>0.610000</speed>
<extensions>
<speed>0.6</speed>
<temp>0.00</temp>
<bpm>0</bpm>
<rpm>0.00</rpm>
</extensions>
</trkpt>
<trkpt lat="63.864978790" lon="-18.732482910">
<ele>525.125000</ele>
<time>2012-07-25T12:58:47Z</time>
<speed>0.940000</speed>
<extensions>
<speed>0.9</speed>
<temp>0.00</temp>
<bpm>0</bpm>
<rpm>0.00</rpm>
</extensions>
</trkpt>
<trkpt lat="63.864944458" lon="-18.732547760">
<ele>525.500000</ele>
<time>2012-07-25T12:58:52Z</time>
<speed>0.840000</speed>
<extensions>
<speed>0.8</speed>
<temp>0.00</temp>
<bpm>0</bpm>
<rpm>0.00</rpm>
</extensions>
</trkpt>
<trkpt lat="63.864917755" lon="-18.732601166">
<ele>526.218750</ele>
<time>2012-07-25T12:58:57Z</time>
<speed>0.670000</speed>
<extensions>
<speed>0.7</speed>
<temp>0.00</temp>
<bpm>0</bpm>
<rpm>0.00</rpm>
</extensions>
</trkpt>
<trkpt lat="63.864902496" lon="-18.732629776">
<ele>526.796875</ele>
<time>2012-07-25T12:59:02Z</time>
<speed>0.200000</speed>
<extensions>
<speed>0.2</speed>
<temp>0.00</temp>
<bpm>0</bpm>
<rpm>0.00</rpm>
</extensions>
</trkpt>
<trkpt lat="63.864910126" lon="-18.732643127">
<ele>527.156250</ele>
<time>2012-07-25T12:59:07Z</time>
<speed>0.010000</speed>
<extensions>
<speed>0.0</speed>
<temp>0.00</temp>
<bpm>0</bpm>
<rpm>0.00</rpm>
</extensions>
</trkpt>
<trkpt lat="63.864910126" lon="-18.732643127">
<ele>527.140625</ele>
<time>2012-07-25T12:59:12Z</time>
<speed>0.020000</speed>
<extensions>
<speed>0.0</speed>
<temp>0.00</temp>
<bpm>0</bpm>
<rpm>0.00</rpm>
</extensions>
</trkpt>
<trkpt lat="63.864910126" lon="-18.732643127">
<ele>527.296875</ele>
<time>2012-07-25T12:59:17Z</time>
<speed>0.390000</speed>
<extensions>
<speed>0.4</speed>
<temp>0.00</temp>
<bpm>0</bpm>
<rpm>0.00</rpm>
</extensions>
</trkpt>
<trkpt lat="63.864891052" lon="-18.732677460">
<ele>527.859375</ele>
<time>2012-07-25T12:59:22Z</time>
<speed>0.740000</speed>
<extensions>
<speed>0.7</speed>
<temp>0.00</temp>
<bpm>0</bpm>
<rpm>0.00</rpm>
</extensions>
</trkpt>
<trkpt lat="63.864875793" lon="-18.732711792">
<ele>528.671875</ele>
<time>2012-07-25T12:59:27Z</time>
<speed>0.470000</speed>
<extensions>
<speed>0.5</speed>
<temp>0.00</temp>
<bpm>0</bpm>
<rpm>0.00</rpm>
</extensions>
</trkpt>
<trkpt lat="63.864849091" lon="-18.732755661">
<ele>528.953125</ele>
<time>2012-07-25T12:59:32Z</time>
<speed>0.590000</speed>
<extensions>
<speed>0.6</speed>
<temp>0.00</temp>
<bpm>0</bpm>
<rpm>0.00</rpm>
</extensions>
</trkpt>
<trkpt lat="63.864830017" lon="-18.732793808">
<ele>528.203125</ele>
<time>2012-07-25T12:59:37Z</time>
<speed>0.870000</speed>
<extensions>
<speed>0.9</speed>
<temp>0.00</temp>
<bpm>0</bpm>
<rpm>0.00</rpm>
</extensions>
</trkpt>
<trkpt lat="63.864807129" lon="-18.732847214">
<ele>528.718750</ele>
<time>2012-07-25T12:59:42Z</time>
<speed>0.620000</speed>
<extensions>
<speed>0.6</speed>
<temp>0.00</temp>
<bpm>0</bpm>
<rpm>0.00</rpm>
</extensions>
</trkpt>
<trkpt lat="63.864788055" lon="-18.732872009">
<ele>529.015625</ele>
<time>2012-07-25T12:59:47Z</time>
<speed>0.240000</speed>
<extensions>
<speed>0.2</speed>
<temp>0.00</temp>
<bpm>0</bpm>
<rpm>0.00</rpm>
</extensions>
</trkpt>
<trkpt lat="63.864730835" lon="-18.732955933">
<ele>529.765625</ele>
<time>2012-07-25T12:59:52Z</time>
<speed>2.390000</speed>
<extensions>
<speed>2.4</speed>
<temp>0.00</temp>
<bpm>0</bpm>
<rpm>0.00</rpm>
</extensions>
</trkpt>
<trkpt lat="63.864620209" lon="-18.733064651">
<ele>530.187500</ele>
<time>2012-07-25T12:59:57Z</time>
<speed>2.660000</speed>
<extensions>
<speed>2.7</speed>
<temp>0.00</temp>
<bpm>0</bpm>
<rpm>0.00</rpm>
</extensions>
</trkpt>
<trkpt lat="63.864509583" lon="-18.733116150">
<ele>531.375000</ele>
<time>2012-07-25T13:00:02Z</time>
<speed>2.550000</speed>
<extensions>
<speed>2.6</speed>
<temp>0.00</temp>
<bpm>0</bpm>
<rpm>0.00</rpm>
</extensions>
</trkpt>
<trkpt lat="63.864429474" lon="-18.733188629">
<ele>532.937500</ele>
<time>2012-07-25T13:00:07Z</time>
<speed>1.700000</speed>
<extensions>
<speed>1.7</speed>
<temp>0.00</temp>
<bpm>0</bpm>
<rpm>0.00</rpm>
</extensions>
</trkpt>
<trkpt lat="63.864315033" lon="-18.733266830">
<ele>534.359375</ele>
<time>2012-07-25T13:00:12Z</time>
<speed>2.280000</speed>
<extensions>
<speed>2.3</speed>
<temp>0.00</temp>
<bpm>0</bpm>
<rpm>0.00</rpm>
</extensions>
</trkpt>
<trkpt lat="63.864307404" lon="-18.733266830">
<ele>535.328125</ele>
<time>2012-07-25T13:00:17Z</time>
<speed>0.060000</speed>
<extensions>
<speed>0.1</speed>
<temp>0.00</temp>
<bpm>0</bpm>
<rpm>0.00</rpm>
</extensions>
</trkpt>
<trkpt lat="63.864284515" lon="-18.733270645">
<ele>535.718750</ele>
<time>2012-07-25T13:00:22Z</time>
<speed>0.070000</speed>
<extensions>
<speed>0.1</speed>
<temp>0.00</temp>
<bpm>0</bpm>
<rpm>0.00</rpm>
</extensions>
</trkpt>
<trkpt lat="63.864269257" lon="-18.733291626">
<ele>535.890625</ele>
<time>2012-07-25T13:00:27Z</time>
<speed>0.580000</speed>
<extensions>
<speed>0.6</speed>
<temp>0.00</temp>
<bpm>0</bpm>
<rpm>0.00</rpm>
</extensions>
</trkpt>
<trkpt lat="63.864231110" lon="-18.733324051">
<ele>536.468750</ele>
<time>2012-07-25T13:00:32Z</time>
<speed>0.850000</speed>
<extensions>
<speed>0.8</speed>
<temp>0.00</temp>
<bpm>0</bpm>
<rpm>0.00</rpm>
</extensions>
</trkpt>
<trkpt lat="63.864192963" lon="-18.733375549">
<ele>537.046875</ele>
<time>2012-07-25T13:00:37Z</time>
<speed>0.820000</speed>
<extensions>
<speed>0.8</speed>
<temp>0.00</temp>
<bpm>0</bpm>
<rpm>0.00</rpm>
</extensions>
</trkpt>
<trkpt lat="63.864158630" lon="-18.733419418">
<ele>537.765625</ele>
<time>2012-07-25T13:00:42Z</time>
<speed>0.800000</speed>
<extensions>
<speed>0.8</speed>
<temp>0.00</temp>
<bpm>0</bpm>
<rpm>0.00</rpm>
</extensions>
</trkpt>
<trkpt lat="63.864124298" lon="-18.733465195">
<ele>537.515625</ele>
<time>2012-07-25T13:00:47Z</time>
<speed>0.960000</speed>
<extensions>
<speed>1.0</speed>
<temp>0.00</temp>
<bpm>0</bpm>
<rpm>0.00</rpm>
</extensions>
</trkpt>
<trkpt lat="63.864097595" lon="-18.733539581">
<ele>538.437500</ele>
<time>2012-07-25T13:00:52Z</time>
<speed>0.770000</speed>
<extensions>
<speed>0.8</speed>
<temp>0.00</temp>
<bpm>0</bpm>
<rpm>0.00</rpm>
</extensions>
</trkpt>
<trkpt lat="63.864082336" lon="-18.733621597">
<ele>540.484375</ele>
<time>2012-07-25T13:00:57Z</time>
<speed>0.910000</speed>
<extensions>
<speed>0.9</speed>
<temp>0.00</temp>
<bpm>0</bpm>
<rpm>0.00</rpm>
</extensions>
</trkpt>
<trkpt lat="63.864082336" lon="-18.733718872">
<ele>541.546875</ele>
<time>2012-07-25T13:01:02Z</time>
<speed>1.130000</speed>
<extensions>
<speed>1.1</speed>
<temp>0.00</temp>
<bpm>0</bpm>
<rpm>0.00</rpm>
</extensions>
</trkpt>
<trkpt lat="63.864070892" lon="-18.733837128">
<ele>543.125000</ele>
<time>2012-07-25T13:01:07Z</time>
<speed>1.170000</speed>
<extensions>
<speed>1.2</speed>
<temp>0.00</temp>
<bpm>0</bpm>
<rpm>0.00</rpm>
</extensions>
</trkpt>
<trkpt lat="63.864070892" lon="-18.733922958">
<ele>544.109375</ele>
<time>2012-07-25T13:01:12Z</time>
<speed>1.240000</speed>
<extensions>
<speed>1.2</speed>
<temp>0.00</temp>
<bpm>0</bpm>
<rpm>0.00</rpm>
</extensions>
</trkpt>
<trkpt lat="63.864082336" lon="-18.734027863">
<ele>544.531250</ele>
<time>2012-07-25T13:01:17Z</time>
<speed>1.100000</speed>
<extensions>
<speed>1.1</speed>
<temp>0.00</temp>
<bpm>0</bpm>
<rpm>0.00</rpm>
</extensions>
</trkpt>
<trkpt lat="63.864093781" lon="-18.734132767">
<ele>544.046875</ele>
<time>2012-07-25T13:01:22Z</time>
<speed>1.030000</speed>
<extensions>
<speed>1.0</speed>
<temp>0.00</temp>
<bpm>0</bpm>
<rpm>0.00</rpm>
</extensions>
</trkpt>
<trkpt lat="63.864109039" lon="-18.734256744">
<ele>544.828125</ele>
<time>2012-07-25T13:01:27Z</time>
<speed>1.010000</speed>
<extensions>
<speed>1.0</speed>
<temp>0.00</temp>
<bpm>0</bpm>
<rpm>0.00</rpm>
</extensions>
</trkpt>
<trkpt lat="63.864131927" lon="-18.734375000">
<ele>545.031250</ele>
<time>2012-07-25T13:01:32Z</time>
<speed>1.590000</speed>
<extensions>
<speed>1.6</speed>
<temp>0.00</temp>
<bpm>0</bpm>
<rpm>0.00</rpm>
</extensions>
</trkpt>
<trkpt lat="63.864139557" lon="-18.734512329">
<ele>545.187500</ele>
<time>2012-07-25T13:01:37Z</time>
<speed>1.010000</speed>
<extensions>
<speed>1.0</speed>
<temp>0.00</temp>
<bpm>0</bpm>
<rpm>0.00</rpm>
</extensions>
</trkpt>
<trkpt lat="63.864151001" lon="-18.734609604">
<ele>544.953125</ele>
<time>2012-07-25T13:01:42Z</time>
<speed>1.200000</speed>
<extensions>
<speed>1.2</speed>
<temp>0.00</temp>
<bpm>0</bpm>
<rpm>0.00</rpm>
</extensions>
</trkpt>
<trkpt lat="63.864154816" lon="-18.734647751">
<ele>545.781250</ele>
<time>2012-07-25T13:01:47Z</time>
<speed>0.040000</speed>
<extensions>
<speed>0.0</speed>
<temp>0.00</temp>
<bpm>0</bpm>
<rpm>0.00</rpm>
</extensions>
</trkpt>
<trkpt lat="63.864154816" lon="-18.734661102">
<ele>545.765625</ele>
<time>2012-07-25T13:01:52Z</time>
<speed>0.700000</speed>
<extensions>
<speed>0.7</speed>
<temp>0.00</temp>
<bpm>0</bpm>
<rpm>0.00</rpm>
</extensions>
</trkpt>
<trkpt lat="63.864151001" lon="-18.734830856">
<ele>546.718750</ele>
<time>2012-07-25T13:01:57Z</time>
<speed>2.210000</speed>
<extensions>
<speed>2.2</speed>
<temp>0.00</temp>
<bpm>0</bpm>
<rpm>0.00</rpm>
</extensions>
</trkpt>
<trkpt lat="63.864147186" lon="-18.735076904">
<ele>547.703125</ele>
<time>2012-07-25T13:02:02Z</time>
<speed>2.620000</speed>
<extensions>
<speed>2.6</speed>
<temp>0.00</temp>
<bpm>0</bpm>
<rpm>0.00</rpm>
</extensions>
</trkpt>
<trkpt lat="63.864135742" lon="-18.735334396">
<ele>548.156250</ele>
<time>2012-07-25T13:02:07Z</time>
<speed>2.680000</speed>
<extensions>
<speed>2.7</speed>
<temp>0.00</temp>
<bpm>0</bpm>
<rpm>0.00</rpm>
</extensions>
</trkpt>
<trkpt lat="63.864112854" lon="-18.735635757">
<ele>548.093750</ele>
<time>2012-07-25T13:02:12Z</time>
<speed>3.180000</speed>
<extensions>
<speed>3.2</speed>
<temp>0.00</temp>
<bpm>0</bpm>
<rpm>0.00</rpm>
</extensions>
</trkpt>
<trkpt lat="63.864074707" lon="-18.735927582">
<ele>548.062500</ele>
<time>2012-07-25T13:02:17Z</time>
<speed>2.750000</speed>
<extensions>
<speed>2.7</speed>
<temp>0.00</temp>
<bpm>0</bpm>
<rpm>0.00</rpm>
</extensions>
</trkpt>
<trkpt lat="63.864036560" lon="-18.736051559">
<ele>548.578125</ele>
<time>2012-07-25T13:02:22Z</time>
<speed>1.390000</speed>
<extensions>
<speed>1.4</speed>
<temp>0.00</temp>
<bpm>0</bpm>
<rpm>0.00</rpm>
</extensions>
</trkpt>
<trkpt lat="63.863967896" lon="-18.736156464">
<ele>549.796875</ele>
<time>2012-07-25T13:02:27Z</time>
<speed>1.920000</speed>
<extensions>
<speed>1.9</speed>
<temp>0.00</temp>
<bpm>0</bpm>
<rpm>0.00</rpm>
</extensions>
</trkpt>
<trkpt lat="63.863872528" lon="-18.736248016">
<ele>550.359375</ele>
<time>2012-07-25T13:02:32Z</time>
<speed>1.970000</speed>
<extensions>
<speed>2.0</speed>
<temp>0.00</temp>
<bpm>0</bpm>
<rpm>0.00</rpm>
</extensions>
</trkpt>
<trkpt lat="63.863803864" lon="-18.736370087">
<ele>551.218750</ele>
<time>2012-07-25T13:02:37Z</time>
<speed>2.130000</speed>
<extensions>
<speed>2.1</speed>
<temp>0.00</temp>
<bpm>0</bpm>
<rpm>0.00</rpm>
</extensions>
</trkpt>
<trkpt lat="63.863746643" lon="-18.736501694">
<ele>553.671875</ele>
<time>2012-07-25T13:02:42Z</time>
<speed>1.590000</speed>
<extensions>
<speed>1.6</speed>
<temp>0.00</temp>
<bpm>0</bpm>
<rpm>0.00</rpm>
</extensions>
</trkpt>
<trkpt lat="63.863685608" lon="-18.736631393">
<ele>554.703125</ele>
<time>2012-07-25T13:02:47Z</time>
<speed>2.270000</speed>
<extensions>
<speed>2.3</speed>
<temp>0.00</temp>
<bpm>0</bpm>
<rpm>0.00</rpm>
</extensions>
</trkpt>
<trkpt lat="63.863636017" lon="-18.736772537">
<ele>556.250000</ele>
<time>2012-07-25T13:02:52Z</time>
<speed>1.460000</speed>
<extensions>
<speed>1.5</speed>
<temp>0.00</temp>
<bpm>0</bpm>
<rpm>0.00</rpm>
</extensions>
</trkpt>
<trkpt lat="63.863594055" lon="-18.736896515">
<ele>556.953125</ele>
<time>2012-07-25T13:02:57Z</time>
<speed>1.920000</speed>
<extensions>
<speed>1.9</speed>
<temp>0.00</temp>
<bpm>0</bpm>
<rpm>0.00</rpm>
</extensions>
</trkpt>
<trkpt lat="63.863555908" lon="-18.737056732">
<ele>556.906250</ele>
<time>2012-07-25T13:03:02Z</time>
<speed>1.910000</speed>
<extensions>
<speed>1.9</speed>
<temp>0.00</temp>
<bpm>0</bpm>
<rpm>0.00</rpm>
</extensions>
</trkpt>
<trkpt lat="63.863517761" lon="-18.737207413">
<ele>557.281250</ele>
<time>2012-07-25T13:03:07Z</time>
<speed>1.480000</speed>
<extensions>
<speed>1.5</speed>
<temp>0.00</temp>
<bpm>0</bpm>
<rpm>0.00</rpm>
</extensions>
</trkpt>
<trkpt lat="63.863491058" lon="-18.737352371">
<ele>556.859375</ele>
<time>2012-07-25T13:03:12Z</time>
<speed>1.590000</speed>
<extensions>
<speed>1.6</speed>
<temp>0.00</temp>
<bpm>0</bpm>
<rpm>0.00</rpm>
</extensions>
</trkpt>
<trkpt lat="63.863464355" lon="-18.737508774">
<ele>557.437500</ele>
<time>2012-07-25T13:03:17Z</time>
<speed>1.810000</speed>
<extensions>
<speed>1.8</speed>
<temp>0.00</temp>
<bpm>0</bpm>
<rpm>0.00</rpm>
</extensions>
</trkpt>
<trkpt lat="63.863430023" lon="-18.737720490">
<ele>557.453125</ele>
<time>2012-07-25T13:03:22Z</time>
<speed>1.960000</speed>
<extensions>
<speed>2.0</speed>
<temp>0.00</temp>
<bpm>0</bpm>
<rpm>0.00</rpm>
</extensions>
</trkpt>
<trkpt lat="63.863403320" lon="-18.737865448">
<ele>559.250000</ele>
<time>2012-07-25T13:03:27Z</time>
<speed>1.690000</speed>
<extensions>
<speed>1.7</speed>
<temp>0.00</temp>
<bpm>0</bpm>
<rpm>0.00</rpm>
</extensions>
</trkpt>
<trkpt lat="63.863380432" lon="-18.738065720">
<ele>560.000000</ele>
<time>2012-07-25T13:03:32Z</time>
<speed>2.040000</speed>
<extensions>
<speed>2.0</speed>
<temp>0.00</temp>
<bpm>0</bpm>
<rpm>0.00</rpm>
</extensions>
</trkpt>
<trkpt lat="63.863361359" lon="-18.738243103">
<ele>559.953125</ele>
<time>2012-07-25T13:03:37Z</time>
<speed>1.450000</speed>
<extensions>
<speed>1.4</speed>
<temp>0.00</temp>
<bpm>0</bpm>
<rpm>0.00</rpm>
</extensions>
</trkpt>
<trkpt lat="63.863334656" lon="-18.738431931">
<ele>561.640625</ele>
<time>2012-07-25T13:03:42Z</time>
<speed>1.960000</speed>
<extensions>
<speed>2.0</speed>
<temp>0.00</temp>
<bpm>0</bpm>
<rpm>0.00</rpm>
</extensions>
</trkpt>
<trkpt lat="63.863304138" lon="-18.738605499">
<ele>563.062500</ele>
<time>2012-07-25T13:03:47Z</time>
<speed>2.090000</speed>
<extensions>
<speed>2.1</speed>
<temp>0.00</temp>
<bpm>0</bpm>
<rpm>0.00</rpm>
</extensions>
</trkpt>
<trkpt lat="63.863246918" lon="-18.738782883">
<ele>563.265625</ele>
<time>2012-07-25T13:03:52Z</time>
<speed>2.170000</speed>
<extensions>
<speed>2.2</speed>
<temp>0.00</temp>
<bpm>0</bpm>
<rpm>0.00</rpm>
</extensions>
</trkpt>
<trkpt lat="63.863185883" lon="-18.738943100">
<ele>563.843750</ele>
<time>2012-07-25T13:03:57Z</time>
<speed>2.050000</speed>
<extensions>
<speed>2.1</speed>
<temp>0.00</temp>
<bpm>0</bpm>
<rpm>0.00</rpm>
</extensions>
</trkpt>
<trkpt lat="63.863121033" lon="-18.739171982">
<ele>563.343750</ele>
<time>2012-07-25T13:04:02Z</time>
<speed>2.810000</speed>
<extensions>
<speed>2.8</speed>
<temp>0.00</temp>
<bpm>0</bpm>
<rpm>0.00</rpm>
</extensions>
</trkpt>
<trkpt lat="63.863044739" lon="-18.739437103">
<ele>562.421875</ele>
<time>2012-07-25T13:04:07Z</time>
<speed>2.970000</speed>
<extensions>
<speed>3.0</speed>
<temp>0.00</temp>
<bpm>0</bpm>
<rpm>0.00</rpm>
</extensions>
</trkpt>
<trkpt lat="63.862983704" lon="-18.739688873">
<ele>562.328125</ele>
<time>2012-07-25T13:04:12Z</time>
<speed>2.690000</speed>
<extensions>
<speed>2.7</speed>
<temp>0.00</temp>
<bpm>0</bpm>
<rpm>0.00</rpm>
</extensions>
</trkpt>
<trkpt lat="63.862941742" lon="-18.739929199">
<ele>562.875000</ele>
<time>2012-07-25T13:04:17Z</time>
<speed>2.170000</speed>
<extensions>
<speed>2.2</speed>
<temp>0.00</temp>
<bpm>0</bpm>
<rpm>0.00</rpm>
</extensions>
</trkpt>
<trkpt lat="63.862899780" lon="-18.740125656">
<ele>563.250000</ele>
<time>2012-07-25T13:04:22Z</time>
<speed>2.200000</speed>
<extensions>
<speed>2.2</speed>
<temp>0.00</temp>
<bpm>0</bpm>
<rpm>0.00</rpm>
</extensions>
</trkpt>
<trkpt lat="63.862850189" lon="-18.740325928">
<ele>563.953125</ele>
<time>2012-07-25T13:04:27Z</time>
<speed>2.380000</speed>
<extensions>
<speed>2.4</speed>
<temp>0.00</temp>
<bpm>0</bpm>
<rpm>0.00</rpm>
</extensions>
</trkpt>
<trkpt lat="63.862777710" lon="-18.740562439">
<ele>564.234375</ele>
<time>2012-07-25T13:04:32Z</time>
<speed>3.120000</speed>
<extensions>
<speed>3.1</speed>
<temp>0.00</temp>
<bpm>0</bpm>
<rpm>0.00</rpm>
</extensions>
</trkpt>
<trkpt lat="63.862674713" lon="-18.740739822">
<ele>563.968750</ele>
<time>2012-07-25T13:04:37Z</time>
<speed>2.730000</speed>
<extensions>
<speed>2.7</speed>
<temp>0.00</temp>
<bpm>0</bpm>
<rpm>0.00</rpm>
</extensions>
</trkpt>
<trkpt lat="63.862598419" lon="-18.740852356">
<ele>565.609375</ele>
<time>2012-07-25T13:04:42Z</time>
<speed>2.250000</speed>
<extensions>
<speed>2.3</speed>
<temp>0.00</temp>
<bpm>0</bpm>
<rpm>0.00</rpm>
</extensions>
</trkpt>
<trkpt lat="63.862514496" lon="-18.740961075">
<ele>567.578125</ele>
<time>2012-07-25T13:04:47Z</time>
<speed>2.040000</speed>
<extensions>
<speed>2.0</speed>
<temp>0.00</temp>
<bpm>0</bpm>
<rpm>0.00</rpm>
</extensions>
</trkpt>
<trkpt lat="63.862434387" lon="-18.741050720">
<ele>567.328125</ele>
<time>2012-07-25T13:04:52Z</time>
<speed>1.830000</speed>
<extensions>
<speed>1.8</speed>
<temp>0.00</temp>
<bpm>0</bpm>
<rpm>0.00</rpm>
</extensions>
</trkpt>
<trkpt lat="63.862354279" lon="-18.741096497">
<ele>566.953125</ele>
<time>2012-07-25T13:04:57Z</time>
<speed>1.770000</speed>
<extensions>
<speed>1.8</speed>
<temp>0.00</temp>
<bpm>0</bpm>
<rpm>0.00</rpm>
</extensions>
</trkpt>
<trkpt lat="63.862266541" lon="-18.741155624">
<ele>565.812500</ele>
<time>2012-07-25T13:05:02Z</time>
<speed>2.080000</speed>
<extensions>
<speed>2.1</speed>
<temp>0.00</temp>
<bpm>0</bpm>
<rpm>0.00</rpm>
</extensions>
</trkpt>
<trkpt lat="63.862167358" lon="-18.741235733">
<ele>566.046875</ele>
<time>2012-07-25T13:05:07Z</time>
<speed>2.530000</speed>
<extensions>
<speed>2.5</speed>
<temp>0.00</temp>
<bpm>0</bpm>
<rpm>0.00</rpm>
</extensions>
</trkpt>
<trkpt lat="63.862060547" lon="-18.741281509">
<ele>567.468750</ele>
<time>2012-07-25T13:05:12Z</time>
<speed>2.150000</speed>
<extensions>
<speed>2.1</speed>
<temp>0.00</temp>
<bpm>0</bpm>
<rpm>0.00</rpm>
</extensions>
</trkpt>
<trkpt lat="63.861961365" lon="-18.741310120">
<ele>567.765625</ele>
<time>2012-07-25T13:05:17Z</time>
<speed>1.820000</speed>
<extensions>
<speed>1.8</speed>
<temp>0.00</temp>
<bpm>0</bpm>
<rpm>0.00</rpm>
</extensions>
</trkpt>
<trkpt lat="63.861938477" lon="-18.741313934">
<ele>567.625000</ele>
<time>2012-07-25T13:05:22Z</time>
<speed>0.070000</speed>
<extensions>
<speed>0.1</speed>
<temp>0.00</temp>
<bpm>0</bpm>
<rpm>0.00</rpm>
</extensions>
</trkpt>
<trkpt lat="63.861930847" lon="-18.741329193">
<ele>568.515625</ele>
<time>2012-07-25T13:05:27Z</time>
<speed>0.450000</speed>
<extensions>
<speed>0.5</speed>
<temp>0.00</temp>
<bpm>0</bpm>
<rpm>0.00</rpm>
</extensions>
</trkpt>
<trkpt lat="63.861904144" lon="-18.741340637">
<ele>569.312500</ele>
<time>2012-07-25T13:05:32Z</time>
<speed>0.620000</speed>
<extensions>
<speed>0.6</speed>
<temp>0.00</temp>
<bpm>0</bpm>
<rpm>0.00</rpm>
</extensions>
</trkpt>
<trkpt lat="63.861869812" lon="-18.741357803">
<ele>570.328125</ele>
<time>2012-07-25T13:05:37Z</time>
<speed>1.020000</speed>
<extensions>
<speed>1.0</speed>
<temp>0.00</temp>
<bpm>0</bpm>
<rpm>0.00</rpm>
</extensions>
</trkpt>
<trkpt lat="63.861835480" lon="-18.741350174">
<ele>570.890625</ele>
<time>2012-07-25T13:05:42Z</time>
<speed>0.980000</speed>
<extensions>
<speed>1.0</speed>
<temp>0.00</temp>
<bpm>0</bpm>
<rpm>0.00</rpm>
</extensions>
</trkpt>
<trkpt lat="63.861797333" lon="-18.741369247">
<ele>570.406250</ele>
<time>2012-07-25T13:05:47Z</time>
<speed>0.970000</speed>
<extensions>
<speed>1.0</speed>
<temp>0.00</temp>
<bpm>0</bpm>
<rpm>0.00</rpm>
</extensions>
</trkpt>
<trkpt lat="63.861755371" lon="-18.741382599">
<ele>570.828125</ele>
<time>2012-07-25T13:05:52Z</time>
<speed>1.110000</speed>
<extensions>
<speed>1.1</speed>
<temp>0.00</temp>
<bpm>0</bpm>
<rpm>0.00</rpm>
</extensions>
</trkpt>
<trkpt lat="63.861713409" lon="-18.741407394">
<ele>571.078125</ele>
<time>2012-07-25T13:05:57Z</time>
<speed>1.190000</speed>
<extensions>
<speed>1.2</speed>
<temp>0.00</temp>
<bpm>0</bpm>
<rpm>0.00</rpm>
</extensions>
</trkpt>
<trkpt lat="63.861679077" lon="-18.741415024">
<ele>571.281250</ele>
<time>2012-07-25T13:06:02Z</time>
<speed>0.020000</speed>
<extensions>
<speed>0.0</speed>
<temp>0.00</temp>
<bpm>0</bpm>
<rpm>0.00</rpm>
</extensions>
</trkpt>
<trkpt lat="63.861652374" lon="-18.741437912">
<ele>573.031250</ele>
<time>2012-07-25T13:06:07Z</time>
<speed>1.170000</speed>
<extensions>
<speed>1.2</speed>
<temp>0.00</temp>
<bpm>0</bpm>
<rpm>0.00</rpm>
</extensions>
</trkpt>
<trkpt lat="63.861598969" lon="-18.741479874">
<ele>574.515625</ele>
<time>2012-07-25T13:06:12Z</time>
<speed>1.280000</speed>
<extensions>
<speed>1.3</speed>
<temp>0.00</temp>
<bpm>0</bpm>
<rpm>0.00</rpm>
</extensions>
</trkpt>
<trkpt lat="63.861557007" lon="-18.741508484">
<ele>575.781250</ele>
<time>2012-07-25T13:06:17Z</time>
<speed>0.680000</speed>
<extensions>
<speed>0.7</speed>
<temp>0.00</temp>
<bpm>0</bpm>
<rpm>0.00</rpm>
</extensions>
</trkpt>
<trkpt lat="63.861515045" lon="-18.741523743">
<ele>576.687500</ele>
<time>2012-07-25T13:06:22Z</time>
<speed>1.200000</speed>
<extensions>
<speed>1.2</speed>
<temp>0.00</temp>
<bpm>0</bpm>
<rpm>0.00</rpm>
</extensions>
</trkpt>
<trkpt lat="63.861457825" lon="-18.741542816">
<ele>577.062500</ele>
<time>2012-07-25T13:06:27Z</time>
<speed>1.120000</speed>
<extensions>
<speed>1.1</speed>
<temp>0.00</temp>
<bpm>0</bpm>
<rpm>0.00</rpm>
</extensions>
</trkpt>
<trkpt lat="63.861400604" lon="-18.741548538">
<ele>577.765625</ele>
<time>2012-07-25T13:06:32Z</time>
<speed>1.100000</speed>
<extensions>
<speed>1.1</speed>
<temp>0.00</temp>
<bpm>0</bpm>
<rpm>0.00</rpm>
</extensions>
</trkpt>
<trkpt lat="63.861351013" lon="-18.741542816">
<ele>577.109375</ele>
<time>2012-07-25T13:06:37Z</time>
<speed>1.320000</speed>
<extensions>
<speed>1.3</speed>
<temp>0.00</temp>
<bpm>0</bpm>
<rpm>0.00</rpm>
</extensions>
</trkpt>
<trkpt lat="63.861270905" lon="-18.741518021">
<ele>577.031250</ele>
<time>2012-07-25T13:06:42Z</time>
<speed>1.640000</speed>
<extensions>
<speed>1.6</speed>
<temp>0.00</temp>
<bpm>0</bpm>
<rpm>0.00</rpm>
</extensions>
</trkpt>
<trkpt lat="63.861202240" lon="-18.741460800">
<ele>576.593750</ele>
<time>2012-07-25T13:06:47Z</time>
<speed>1.910000</speed>
<extensions>
<speed>1.9</speed>
<temp>0.00</temp>
<bpm>0</bpm>
<rpm>0.00</rpm>
</extensions>
</trkpt>
<trkpt lat="63.861141205" lon="-18.741405487">
<ele>576.125000</ele>
<time>2012-07-25T13:06:52Z</time>
<speed>1.530000</speed>
<extensions>
<speed>1.5</speed>
<temp>0.00</temp>
<bpm>0</bpm>
<rpm>0.00</rpm>
</extensions>
</trkpt>
<trkpt lat="63.861083984" lon="-18.741283417">
<ele>577.218750</ele>
<time>2012-07-25T13:06:57Z</time>
<speed>2.130000</speed>
<extensions>
<speed>2.1</speed>
<temp>0.00</temp>
<bpm>0</bpm>
<rpm>0.00</rpm>
</extensions>
</trkpt>
<trkpt lat="63.861042023" lon="-18.741092682">
<ele>577.484375</ele>
<time>2012-07-25T13:07:02Z</time>
<speed>2.060000</speed>
<extensions>
<speed>2.1</speed>
<temp>0.00</temp>
<bpm>0</bpm>
<rpm>0.00</rpm>
</extensions>
</trkpt>
<trkpt lat="63.861034393" lon="-18.740932465">
<ele>576.640625</ele>
<time>2012-07-25T13:07:07Z</time>
<speed>1.620000</speed>
<extensions>
<speed>1.6</speed>
<temp>0.00</temp>
<bpm>0</bpm>
<rpm>0.00</rpm>
</extensions>
</trkpt>
<trkpt lat="63.861042023" lon="-18.740869522">
<ele>576.500000</ele>
<time>2012-07-25T13:07:12Z</time>
<speed>0.150000</speed>
<extensions>
<speed>0.2</speed>
<temp>0.00</temp>
<bpm>0</bpm>
<rpm>0.00</rpm>
</extensions>
</trkpt>
<trkpt lat="63.861038208" lon="-18.740819931">
<ele>576.343750</ele>
<time>2012-07-25T13:07:17Z</time>
<speed>1.630000</speed>
<extensions>
<speed>1.6</speed>
<temp>0.00</temp>
<bpm>0</bpm>
<rpm>0.00</rpm>
</extensions>
</trkpt>
<trkpt lat="63.860996246" lon="-18.740558624">
<ele>576.390625</ele>
<time>2012-07-25T13:07:22Z</time>
<speed>2.800000</speed>
<extensions>
<speed>2.8</speed>
<temp>0.00</temp>
<bpm>0</bpm>
<rpm>0.00</rpm>
</extensions>
</trkpt>
<trkpt lat="63.860950470" lon="-18.740318298">
<ele>576.734375</ele>
<time>2012-07-25T13:07:27Z</time>
<speed>2.280000</speed>
<extensions>
<speed>2.3</speed>
<temp>0.00</temp>
<bpm>0</bpm>
<rpm>0.00</rpm>
</extensions>
</trkpt>
<trkpt lat="63.860935211" lon="-18.740089417">
<ele>577.750000</ele>
<time>2012-07-25T13:07:32Z</time>
<speed>2.190000</speed>
<extensions>
<speed>2.2</speed>
<temp>0.00</temp>
<bpm>0</bpm>
<rpm>0.00</rpm>
</extensions>
</trkpt>
<trkpt lat="63.860904694" lon="-18.739837646">
<ele>580.140625</ele>
<time>2012-07-25T13:07:37Z</time>
<speed>3.280000</speed>
<extensions>
<speed>3.3</speed>
<temp>0.00</temp>
<bpm>0</bpm>
<rpm>0.00</rpm>
</extensions>
</trkpt>
<trkpt lat="63.860862732" lon="-18.739568710">
<ele>581.765625</ele>
<time>2012-07-25T13:07:42Z</time>
<speed>3.170000</speed>
<extensions>
<speed>3.2</speed>
<temp>0.00</temp>
<bpm>0</bpm>
<rpm>0.00</rpm>
</extensions>
</trkpt>
<trkpt lat="63.860805511" lon="-18.739250183">
<ele>583.468750</ele>
<time>2012-07-25T13:07:47Z</time>
<speed>3.200000</speed>
<extensions>
<speed>3.2</speed>
<temp>0.00</temp>
<bpm>0</bpm>
<rpm>0.00</rpm>
</extensions>
</trkpt>
<trkpt lat="63.860733032" lon="-18.738973618">
<ele>583.406250</ele>
<time>2012-07-25T13:07:52Z</time>
<speed>3.400000</speed>
<extensions>
<speed>3.4</speed>
<temp>0.00</temp>
<bpm>0</bpm>
<rpm>0.00</rpm>
</extensions>
</trkpt>
<trkpt lat="63.860645294" lon="-18.738721848">
<ele>583.468750</ele>
<time>2012-07-25T13:07:57Z</time>
<speed>2.740000</speed>
<extensions>
<speed>2.7</speed>
<temp>0.00</temp>
<bpm>0</bpm>
<rpm>0.00</rpm>
</extensions>
</trkpt>
<trkpt lat="63.860549927" lon="-18.738504410">
<ele>584.937500</ele>
<time>2012-07-25T13:08:02Z</time>
<speed>3.360000</speed>
<extensions>
<speed>3.4</speed>
<temp>0.00</temp>
<bpm>0</bpm>
<rpm>0.00</rpm>
</extensions>
</trkpt>
<trkpt lat="63.860469818" lon="-18.738235474">
<ele>586.796875</ele>
<time>2012-07-25T13:08:07Z</time>
<speed>2.940000</speed>
<extensions>
<speed>2.9</speed>
<temp>0.00</temp>
<bpm>0</bpm>
<rpm>0.00</rpm>
</extensions>
</trkpt>
<trkpt lat="63.860446930" lon="-18.737913132">
<ele>587.140625</ele>
<time>2012-07-25T13:08:12Z</time>
<speed>2.860000</speed>
<extensions>
<speed>2.9</speed>
<temp>0.00</temp>
<bpm>0</bpm>
<rpm>0.00</rpm>
</extensions>
</trkpt>
<trkpt lat="63.860481262" lon="-18.737607956">
<ele>586.765625</ele>
<time>2012-07-25T13:08:17Z</time>
<speed>2.790000</speed>
<extensions>
<speed>2.8</speed>
<temp>0.00</temp>
<bpm>0</bpm>
<rpm>0.00</rpm>
</extensions>
</trkpt>
<trkpt lat="63.860549927" lon="-18.737327576">
<ele>587.140625</ele>
<time>2012-07-25T13:08:22Z</time>
<speed>4.130000</speed>
<extensions>
<speed>4.1</speed>
<temp>0.00</temp>
<bpm>0</bpm>
<rpm>0.00</rpm>
</extensions>
</trkpt>
<trkpt lat="63.860614777" lon="-18.736970901">
<ele>586.250000</ele>
<time>2012-07-25T13:08:27Z</time>
<speed>2.840000</speed>
<extensions>
<speed>2.8</speed>
<temp>0.00</temp>
<bpm>0</bpm>
<rpm>0.00</rpm>
</extensions>
</trkpt>
<trkpt lat="63.860622406" lon="-18.736742020">
<ele>586.734375</ele>
<time>2012-07-25T13:08:32Z</time>
<speed>2.220000</speed>
<extensions>
<speed>2.2</speed>
<temp>0.00</temp>
<bpm>0</bpm>
<rpm>0.00</rpm>
</extensions>
</trkpt>
<trkpt lat="63.860595703" lon="-18.736513138">
<ele>587.046875</ele>
<time>2012-07-25T13:08:37Z</time>
<speed>1.920000</speed>
<extensions>
<speed>1.9</speed>
<temp>0.00</temp>
<bpm>0</bpm>
<rpm>0.00</rpm>
</extensions>
</trkpt>
<trkpt lat="63.860561371" lon="-18.736272812">
<ele>586.078125</ele>
<time>2012-07-25T13:08:42Z</time>
<speed>2.880000</speed>
<extensions>
<speed>2.9</speed>
<temp>0.00</temp>
<bpm>0</bpm>
<rpm>0.00</rpm>
</extensions>
</trkpt>
<trkpt lat="63.860527039" lon="-18.736022949">
<ele>585.921875</ele>
<time>2012-07-25T13:08:47Z</time>
<speed>2.290000</speed>
<extensions>
<speed>2.3</speed>
<temp>0.00</temp>
<bpm>0</bpm>
<rpm>0.00</rpm>
</extensions>
</trkpt>
<trkpt lat="63.860488892" lon="-18.735836029">
<ele>586.078125</ele>
<time>2012-07-25T13:08:52Z</time>
<speed>1.980000</speed>
<extensions>
<speed>2.0</speed>
<temp>0.00</temp>
<bpm>0</bpm>
<rpm>0.00</rpm>
</extensions>
</trkpt>
<trkpt lat="63.860435486" lon="-18.735645294">
<ele>585.640625</ele>
<time>2012-07-25T13:08:57Z</time>
<speed>2.650000</speed>
<extensions>
<speed>2.6</speed>
<temp>0.00</temp>
<bpm>0</bpm>
<rpm>0.00</rpm>
</extensions>
</trkpt>
<trkpt lat="63.860363007" lon="-18.735443115">
<ele>584.562500</ele>
<time>2012-07-25T13:09:02Z</time>
<speed>2.460000</speed>
<extensions>
<speed>2.5</speed>
<temp>0.00</temp>
<bpm>0</bpm>
<rpm>0.00</rpm>
</extensions>
</trkpt>
<trkpt lat="63.860282898" lon="-18.735237122">
<ele>583.625000</ele>
<time>2012-07-25T13:09:07Z</time>
<speed>2.090000</speed>
<extensions>
<speed>2.1</speed>
<temp>0.00</temp>
<bpm>0</bpm>
<rpm>0.00</rpm>
</extensions>
</trkpt>
<trkpt lat="63.860191345" lon="-18.735027313">
<ele>583.031250</ele>
<time>2012-07-25T13:09:12Z</time>
<speed>3.750000</speed>
<extensions>
<speed>3.8</speed>
<temp>0.00</temp>
<bpm>0</bpm>
<rpm>0.00</rpm>
</extensions>
</trkpt>
<trkpt lat="63.860073090" lon="-18.734804153">
<ele>580.203125</ele>
<time>2012-07-25T13:09:17Z</time>
<speed>3.680000</speed>
<extensions>
<speed>3.7</speed>
<temp>0.00</temp>
<bpm>0</bpm>
<rpm>0.00</rpm>
</extensions>
</trkpt>
<trkpt lat="63.859920502" lon="-18.734607697">
<ele>578.125000</ele>
<time>2012-07-25T13:09:22Z</time>
<speed>3.770000</speed>
<extensions>
<speed>3.8</speed>
<temp>0.00</temp>
<bpm>0</bpm>
<rpm>0.00</rpm>
</extensions>
</trkpt>
<trkpt lat="63.859790802" lon="-18.734239578">
<ele>577.234375</ele>
<time>2012-07-25T13:09:27Z</time>
<speed>4.930000</speed>
<extensions>
<speed>4.9</speed>
<temp>0.00</temp>
<bpm>0</bpm>
<rpm>0.00</rpm>
</extensions>
</trkpt>
<trkpt lat="63.859741211" lon="-18.733846664">
<ele>577.406250</ele>
<time>2012-07-25T13:09:32Z</time>
<speed>3.040000</speed>
<extensions>
<speed>3.0</speed>
<temp>0.00</temp>
<bpm>0</bpm>
<rpm>0.00</rpm>
</extensions>
</trkpt>
<trkpt lat="63.859745026" lon="-18.733608246">
<ele>578.062500</ele>
<time>2012-07-25T13:09:37Z</time>
<speed>2.850000</speed>
<extensions>
<speed>2.9</speed>
<temp>0.00</temp>
<bpm>0</bpm>
<rpm>0.00</rpm>
</extensions>
</trkpt>
<trkpt lat="63.859714508" lon="-18.733236313">
<ele>578.656250</ele>
<time>2012-07-25T13:09:42Z</time>
<speed>4.190000</speed>
<extensions>
<speed>4.2</speed>
<temp>0.00</temp>
<bpm>0</bpm>
<rpm>0.00</rpm>
</extensions>
</trkpt>
<trkpt lat="63.859535217" lon="-18.733049393">
<ele>577.140625</ele>
<time>2012-07-25T13:09:47Z</time>
<speed>4.800000</speed>
<extensions>
<speed>4.8</speed>
<temp>0.00</temp>
<bpm>0</bpm>
<rpm>0.00</rpm>
</extensions>
</trkpt>
<trkpt lat="63.859321594" lon="-18.732797623">
<ele>572.343750</ele>
<time>2012-07-25T13:09:52Z</time>
<speed>4.590000</speed>
<extensions>
<speed>4.6</speed>
<temp>0.00</temp>
<bpm>0</bpm>
<rpm>0.00</rpm>
</extensions>
</trkpt>
<trkpt lat="63.859146118" lon="-18.732559204">
<ele>569.234375</ele>
<time>2012-07-25T13:09:57Z</time>
<speed>4.810000</speed>
<extensions>
<speed>4.8</speed>
<temp>0.00</temp>
<bpm>0</bpm>
<rpm>0.00</rpm>
</extensions>
</trkpt>
<trkpt lat="63.858947754" lon="-18.732255936">
<ele>566.593750</ele>
<time>2012-07-25T13:10:02Z</time>
<speed>5.770000</speed>
<extensions>
<speed>5.8</speed>
<temp>0.00</temp>
<bpm>0</bpm>
<rpm>0.00</rpm>
</extensions>
</trkpt>
<trkpt lat="63.858722687" lon="-18.731983185">
<ele>564.312500</ele>
<time>2012-07-25T13:10:07Z</time>
<speed>5.520000</speed>
<extensions>
<speed>5.5</speed>
<temp>0.00</temp>
<bpm>0</bpm>
<rpm>0.00</rpm>
</extensions>
</trkpt>
<trkpt lat="63.858489990" lon="-18.731805801">
<ele>561.250000</ele>
<time>2012-07-25T13:10:12Z</time>
<speed>5.540000</speed>
<extensions>
<speed>5.5</speed>
<temp>0.00</temp>
<bpm>0</bpm>
<rpm>0.00</rpm>
</extensions>
</trkpt>
<trkpt lat="63.858226776" lon="-18.731618881">
<ele>558.468750</ele>
<time>2012-07-25T13:10:17Z</time>
<speed>6.410000</speed>
<extensions>
<speed>6.4</speed>
<temp>0.00</temp>
<bpm>0</bpm>
<rpm>0.00</rpm>
</extensions>
</trkpt>
<trkpt lat="63.857902527" lon="-18.731512070">
<ele>554.859375</ele>
<time>2012-07-25T13:10:22Z</time>
<speed>6.740000</speed>
<extensions>
<speed>6.7</speed>
<temp>0.00</temp>
<bpm>0</bpm>
<rpm>0.00</rpm>
</extensions>
</trkpt>
<trkpt lat="63.857654572" lon="-18.731569290">
<ele>554.156250</ele>
<time>2012-07-25T13:10:27Z</time>
<speed>4.110000</speed>
<extensions>
<speed>4.1</speed>
<temp>0.00</temp>
<bpm>0</bpm>
<rpm>0.00</rpm>
</extensions>
</trkpt>
<trkpt lat="63.857475281" lon="-18.731678009">
<ele>553.109375</ele>
<time>2012-07-25T13:10:32Z</time>
<speed>4.240000</speed>
<extensions>
<speed>4.2</speed>
<temp>0.00</temp>
<bpm>0</bpm>
<rpm>0.00</rpm>
</extensions>
</trkpt>
<trkpt lat="63.857257843" lon="-18.731832504">
<ele>548.468750</ele>
<time>2012-07-25T13:10:37Z</time>
<speed>6.060000</speed>
<extensions>
<speed>6.1</speed>
<temp>0.00</temp>
<bpm>0</bpm>
<rpm>0.00</rpm>
</extensions>
</trkpt>
<trkpt lat="63.856979370" lon="-18.732095718">
<ele>547.390625</ele>
<time>2012-07-25T13:10:42Z</time>
<speed>6.750000</speed>
<extensions>
<speed>6.7</speed>
<temp>0.00</temp>
<bpm>0</bpm>
<rpm>0.00</rpm>
</extensions>
</trkpt>
<trkpt lat="63.856826782" lon="-18.732660294">
<ele>546.406250</ele>
<time>2012-07-25T13:10:47Z</time>
<speed>5.620000</speed>
<extensions>
<speed>5.6</speed>
<temp>0.00</temp>
<bpm>0</bpm>
<rpm>0.00</rpm>
</extensions>
</trkpt>
<trkpt lat="63.856777191" lon="-18.733182907">
<ele>551.890625</ele>
<time>2012-07-25T13:10:52Z</time>
<speed>4.750000</speed>
<extensions>
<speed>4.8</speed>
<temp>0.00</temp>
<bpm>0</bpm>
<rpm>0.00</rpm>
</extensions>
</trkpt>
<trkpt lat="63.856700897" lon="-18.733694077">
<ele>553.187500</ele>
<time>2012-07-25T13:10:57Z</time>
<speed>5.600000</speed>
<extensions>
<speed>5.6</speed>
<temp>0.00</temp>
<bpm>0</bpm>
<rpm>0.00</rpm>
</extensions>
</trkpt>
<trkpt lat="63.856529236" lon="-18.734165192">
<ele>550.875000</ele>
<time>2012-07-25T13:11:02Z</time>
<speed>5.470000</speed>
<extensions>
<speed>5.5</speed>
<temp>0.00</temp>
<bpm>0</bpm>
<rpm>0.00</rpm>
</extensions>
</trkpt>
<trkpt lat="63.856380463" lon="-18.734392166">
<ele>549.765625</ele>
<time>2012-07-25T13:11:07Z</time>
<speed>3.560000</speed>
<extensions>
<speed>3.6</speed>
<temp>0.00</temp>
<bpm>0</bpm>
<rpm>0.00</rpm>
</extensions>
</trkpt>
<trkpt lat="63.856327057" lon="-18.734489441">
<ele>550.187500</ele>
<time>2012-07-25T13:11:12Z</time>
<speed>0.380000</speed>
<extensions>
<speed>0.4</speed>
<temp>0.00</temp>
<bpm>0</bpm>
<rpm>0.00</rpm>
</extensions>
</trkpt>
<trkpt lat="63.856319427" lon="-18.734516144">
<ele>549.921875</ele>
<time>2012-07-25T13:11:17Z</time>
<speed>0.830000</speed>
<extensions>
<speed>0.8</speed>
<temp>0.00</temp>
<bpm>0</bpm>
<rpm>0.00</rpm>
</extensions>
</trkpt>
<trkpt lat="63.856296539" lon="-18.734659195">
<ele>551.250000</ele>
<time>2012-07-25T13:11:22Z</time>
<speed>2.470000</speed>
<extensions>
<speed>2.5</speed>
<temp>0.00</temp>
<bpm>0</bpm>
<rpm>0.00</rpm>
</extensions>
</trkpt>
<trkpt lat="63.856262207" lon="-18.734930038">
<ele>551.125000</ele>
<time>2012-07-25T13:11:27Z</time>
<speed>2.630000</speed>
<extensions>
<speed>2.6</speed>
<temp>0.00</temp>
<bpm>0</bpm>
<rpm>0.00</rpm>
</extensions>
</trkpt>
<trkpt lat="63.856239319" lon="-18.735216141">
<ele>550.906250</ele>
<time>2012-07-25T13:11:32Z</time>
<speed>2.820000</speed>
<extensions>
<speed>2.8</speed>
<temp>0.00</temp>
<bpm>0</bpm>
<rpm>0.00</rpm>
</extensions>
</trkpt>
<trkpt lat="63.856220245" lon="-18.735448837">
<ele>550.187500</ele>
<time>2012-07-25T13:11:37Z</time>
<speed>1.230000</speed>
<extensions>
<speed>1.2</speed>
<temp>0.00</temp>
<bpm>0</bpm>
<rpm>0.00</rpm>
</extensions>
</trkpt>
<trkpt lat="63.856201172" lon="-18.735618591">
<ele>550.671875</ele>
<time>2012-07-25T13:11:42Z</time>
<speed>2.200000</speed>
<extensions>
<speed>2.2</speed>
<temp>0.00</temp>
<bpm>0</bpm>
<rpm>0.00</rpm>
</extensions>
</trkpt>
<trkpt lat="63.856166840" lon="-18.735824585">
<ele>550.828125</ele>
<time>2012-07-25T13:11:47Z</time>
<speed>2.290000</speed>
<extensions>
<speed>2.3</speed>
<temp>0.00</temp>
<bpm>0</bpm>
<rpm>0.00</rpm>
</extensions>
</trkpt>
<trkpt lat="63.856124878" lon="-18.736026764">
<ele>551.843750</ele>
<time>2012-07-25T13:11:52Z</time>
<speed>2.210000</speed>
<extensions>
<speed>2.2</speed>
<temp>0.00</temp>
<bpm>0</bpm>
<rpm>0.00</rpm>
</extensions>
</trkpt>
<trkpt lat="63.856082916" lon="-18.736215591">
<ele>552.796875</ele>
<time>2012-07-25T13:11:57Z</time>
<speed>1.950000</speed>
<extensions>
<speed>1.9</speed>
<temp>0.00</temp>
<bpm>0</bpm>
<rpm>0.00</rpm>
</extensions>
</trkpt>
<trkpt lat="63.856048584" lon="-18.736396790">
<ele>553.953125</ele>
<time>2012-07-25T13:12:02Z</time>
<speed>1.840000</speed>
<extensions>
<speed>1.8</speed>
<temp>0.00</temp>
<bpm>0</bpm>
<rpm>0.00</rpm>
</extensions>
</trkpt>
<trkpt lat="63.856018066" lon="-18.736562729">
<ele>554.890625</ele>
<time>2012-07-25T13:12:07Z</time>
<speed>1.640000</speed>
<extensions>
<speed>1.6</speed>
<temp>0.00</temp>
<bpm>0</bpm>
<rpm>0.00</rpm>
</extensions>
</trkpt>
<trkpt lat="63.855987549" lon="-18.736721039">
<ele>555.968750</ele>
<time>2012-07-25T13:12:12Z</time>
<speed>1.760000</speed>
<extensions>
<speed>1.8</speed>
<temp>0.00</temp>
<bpm>0</bpm>
<rpm>0.00</rpm>
</extensions>
</trkpt>
<trkpt lat="63.855949402" lon="-18.736906052">
<ele>557.656250</ele>
<time>2012-07-25T13:12:17Z</time>
<speed>2.130000</speed>
<extensions>
<speed>2.1</speed>
<temp>0.00</temp>
<bpm>0</bpm>
<rpm>0.00</rpm>
</extensions>
</trkpt>
<trkpt lat="63.855911255" lon="-18.737073898">
<ele>558.921875</ele>
<time>2012-07-25T13:12:22Z</time>
<speed>1.450000</speed>
<extensions>
<speed>1.4</speed>
<temp>0.00</temp>
<bpm>0</bpm>
<rpm>0.00</rpm>
</extensions>
</trkpt>
<trkpt lat="63.855873108" lon="-18.737205505">
<ele>559.078125</ele>
<time>2012-07-25T13:12:27Z</time>
<speed>1.650000</speed>
<extensions>
<speed>1.7</speed>
<temp>0.00</temp>
<bpm>0</bpm>
<rpm>0.00</rpm>
</extensions>
</trkpt>
<trkpt lat="63.855827332" lon="-18.737333298">
<ele>558.093750</ele>
<time>2012-07-25T13:12:32Z</time>
<speed>1.780000</speed>
<extensions>
<speed>1.8</speed>
<temp>0.00</temp>
<bpm>0</bpm>
<rpm>0.00</rpm>
</extensions>
</trkpt>
<trkpt lat="63.855766296" lon="-18.737501144">
<ele>558.500000</ele>
<time>2012-07-25T13:12:37Z</time>
<speed>2.100000</speed>
<extensions>
<speed>2.1</speed>
<temp>0.00</temp>
<bpm>0</bpm>
<rpm>0.00</rpm>
</extensions>
</trkpt>
<trkpt lat="63.855701447" lon="-18.737665176">
<ele>559.046875</ele>
<time>2012-07-25T13:12:42Z</time>
<speed>2.260000</speed>
<extensions>
<speed>2.3</speed>
<temp>0.00</temp>
<bpm>0</bpm>
<rpm>0.00</rpm>
</extensions>
</trkpt>
<trkpt lat="63.855617523" lon="-18.737833023">
<ele>560.421875</ele>
<time>2012-07-25T13:12:47Z</time>
<speed>1.920000</speed>
<extensions>
<speed>1.9</speed>
<temp>0.00</temp>
<bpm>0</bpm>
<rpm>0.00</rpm>
</extensions>
</trkpt>
<trkpt lat="63.855548859" lon="-18.737945557">
<ele>556.343750</ele>
<time>2012-07-25T13:12:52Z</time>
<speed>2.270000</speed>
<extensions>
<speed>2.3</speed>
<temp>0.00</temp>
<bpm>0</bpm>
<rpm>0.00</rpm>
</extensions>
</trkpt>
<trkpt lat="63.855487823" lon="-18.738117218">
<ele>557.484375</ele>
<time>2012-07-25T13:12:57Z</time>
<speed>2.120000</speed>
<extensions>
<speed>2.1</speed>
<temp>0.00</temp>
<bpm>0</bpm>
<rpm>0.00</rpm>
</extensions>
</trkpt>
<trkpt lat="63.855419159" lon="-18.738273621">
<ele>558.203125</ele>
<time>2012-07-25T13:13:02Z</time>
<speed>1.670000</speed>
<extensions>
<speed>1.7</speed>
<temp>0.00</temp>
<bpm>0</bpm>
<rpm>0.00</rpm>
</extensions>
</trkpt>
<trkpt lat="63.855400085" lon="-18.738311768">
<ele>559.046875</ele>
<time>2012-07-25T13:13:07Z</time>
<speed>0.110000</speed>
<extensions>
<speed>0.1</speed>
<temp>0.00</temp>
<bpm>0</bpm>
<rpm>0.00</rpm>
</extensions>
</trkpt>
<trkpt lat="63.855381012" lon="-18.738353729">
<ele>560.125000</ele>
<time>2012-07-25T13:13:12Z</time>
<speed>0.750000</speed>
<extensions>
<speed>0.8</speed>
<temp>0.00</temp>
<bpm>0</bpm>
<rpm>0.00</rpm>
</extensions>
</trkpt>
<trkpt lat="63.855365753" lon="-18.738410950">
<ele>561.062500</ele>
<time>2012-07-25T13:13:17Z</time>
<speed>0.650000</speed>
<extensions>
<speed>0.6</speed>
<temp>0.00</temp>
<bpm>0</bpm>
<rpm>0.00</rpm>
</extensions>
</trkpt>
<trkpt lat="63.855331421" lon="-18.738489151">
<ele>562.359375</ele>
<time>2012-07-25T13:13:22Z</time>
<speed>1.020000</speed>
<extensions>
<speed>1.0</speed>
<temp>0.00</temp>
<bpm>0</bpm>
<rpm>0.00</rpm>
</extensions>
</trkpt>
<trkpt lat="63.855304718" lon="-18.738555908">
<ele>563.921875</ele>
<time>2012-07-25T13:13:27Z</time>
<speed>0.890000</speed>
<extensions>
<speed>0.9</speed>
<temp>0.00</temp>
<bpm>0</bpm>
<rpm>0.00</rpm>
</extensions>
</trkpt>
<trkpt lat="63.855274200" lon="-18.738626480">
<ele>565.484375</ele>
<time>2012-07-25T13:13:32Z</time>
<speed>0.940000</speed>
<extensions>
<speed>0.9</speed>
<temp>0.00</temp>
<bpm>0</bpm>
<rpm>0.00</rpm>
</extensions>
</trkpt>
<trkpt lat="63.855239868" lon="-18.738691330">
<ele>566.031250</ele>
<time>2012-07-25T13:13:37Z</time>
<speed>0.930000</speed>
<extensions>
<speed>0.9</speed>
<temp>0.00</temp>
<bpm>0</bpm>
<rpm>0.00</rpm>
</extensions>
</trkpt>
<trkpt lat="63.855224609" lon="-18.738716125">
<ele>565.515625</ele>
<time>2012-07-25T13:13:42Z</time>
<speed>0.450000</speed>
<extensions>
<speed>0.5</speed>
<temp>0.00</temp>
<bpm>0</bpm>
<rpm>0.00</rpm>
</extensions>
</trkpt>
<trkpt lat="63.855194092" lon="-18.738780975">
<ele>567.015625</ele>
<time>2012-07-25T13:13:47Z</time>
<speed>1.040000</speed>
<extensions>
<speed>1.0</speed>
<temp>0.00</temp>
<bpm>0</bpm>
<rpm>0.00</rpm>
</extensions>
</trkpt>
<trkpt lat="63.855152130" lon="-18.738836288">
<ele>567.656250</ele>
<time>2012-07-25T13:13:52Z</time>
<speed>0.910000</speed>
<extensions>
<speed>0.9</speed>
<temp>0.00</temp>
<bpm>0</bpm>
<rpm>0.00</rpm>
</extensions>
</trkpt>
<trkpt lat="63.855113983" lon="-18.738874435">
<ele>567.796875</ele>
<time>2012-07-25T13:13:57Z</time>
<speed>0.950000</speed>
<extensions>
<speed>1.0</speed>
<temp>0.00</temp>
<bpm>0</bpm>
<rpm>0.00</rpm>
</extensions>
</trkpt>
<trkpt lat="63.855079651" lon="-18.738941193">
<ele>567.890625</ele>
<time>2012-07-25T13:14:02Z</time>
<speed>1.250000</speed>
<extensions>
<speed>1.3</speed>
<temp>0.00</temp>
<bpm>0</bpm>
<rpm>0.00</rpm>
</extensions>
</trkpt>
<trkpt lat="63.855060577" lon="-18.738979340">
<ele>567.656250</ele>
<time>2012-07-25T13:14:07Z</time>
<speed>0.030000</speed>
<extensions>
<speed>0.0</speed>
<temp>0.00</temp>
<bpm>0</bpm>
<rpm>0.00</rpm>
</extensions>
</trkpt>
<trkpt lat="63.855049133" lon="-18.739006042">
<ele>567.546875</ele>
<time>2012-07-25T13:14:12Z</time>
<speed>1.610000</speed>
<extensions>
<speed>1.6</speed>
<temp>0.00</temp>
<bpm>0</bpm>
<rpm>0.00</rpm>
</extensions>
</trkpt>
<trkpt lat="63.854953766" lon="-18.739219666">
<ele>566.156250</ele>
<time>2012-07-25T13:14:17Z</time>
<speed>4.580000</speed>
<extensions>
<speed>4.6</speed>
<temp>0.00</temp>
<bpm>0</bpm>
<rpm>0.00</rpm>
</extensions>
</trkpt>
<trkpt lat="63.854763031" lon="-18.739511490">
<ele>565.671875</ele>
<time>2012-07-25T13:14:22Z</time>
<speed>4.740000</speed>
<extensions>
<speed>4.7</speed>
<temp>0.00</temp>
<bpm>0</bpm>
<rpm>0.00</rpm>
</extensions>
</trkpt>
<trkpt lat="63.854610443" lon="-18.739587784">
<ele>565.562500</ele>
<time>2012-07-25T13:14:27Z</time>
<speed>2.420000</speed>
<extensions>
<speed>2.4</speed>
<temp>0.00</temp>
<bpm>0</bpm>
<rpm>0.00</rpm>
</extensions>
</trkpt>
<trkpt lat="63.854534149" lon="-18.739595413">
<ele>565.515625</ele>
<time>2012-07-25T13:14:32Z</time>
<speed>1.600000</speed>
<extensions>
<speed>1.6</speed>
<temp>0.00</temp>
<bpm>0</bpm>
<rpm>0.00</rpm>
</extensions>
</trkpt>
<trkpt lat="63.854450226" lon="-18.739582062">
<ele>565.484375</ele>
<time>2012-07-25T13:14:37Z</time>
<speed>1.910000</speed>
<extensions>
<speed>1.9</speed>
<temp>0.00</temp>
<bpm>0</bpm>
<rpm>0.00</rpm>
</extensions>
</trkpt>
<trkpt lat="63.854351044" lon="-18.739543915">
<ele>565.875000</ele>
<time>2012-07-25T13:14:42Z</time>
<speed>2.160000</speed>
<extensions>
<speed>2.2</speed>
<temp>0.00</temp>
<bpm>0</bpm>
<rpm>0.00</rpm>
</extensions>
</trkpt>
<trkpt lat="63.854244232" lon="-18.739530563">
<ele>566.671875</ele>
<time>2012-07-25T13:14:47Z</time>
<speed>2.440000</speed>
<extensions>
<speed>2.4</speed>
<temp>0.00</temp>
<bpm>0</bpm>
<rpm>0.00</rpm>
</extensions>
</trkpt>
<trkpt lat="63.854137421" lon="-18.739490509">
<ele>567.734375</ele>
<time>2012-07-25T13:14:52Z</time>
<speed>2.550000</speed>
<extensions>
<speed>2.6</speed>
<temp>0.00</temp>
<bpm>0</bpm>
<rpm>0.00</rpm>
</extensions>
</trkpt>
<trkpt lat="63.854022980" lon="-18.739431381">
<ele>567.265625</ele>
<time>2012-07-25T13:14:57Z</time>
<speed>2.560000</speed>
<extensions>
<speed>2.6</speed>
<temp>0.00</temp>
<bpm>0</bpm>
<rpm>0.00</rpm>
</extensions>
</trkpt>
<trkpt lat="63.853919983" lon="-18.739356995">
<ele>567.468750</ele>
<time>2012-07-25T13:15:02Z</time>
<speed>2.700000</speed>
<extensions>
<speed>2.7</speed>
<temp>0.00</temp>
<bpm>0</bpm>
<rpm>0.00</rpm>
</extensions>
</trkpt>
<trkpt lat="63.853790283" lon="-18.739299774">
<ele>566.640625</ele>
<time>2012-07-25T13:15:07Z</time>
<speed>3.270000</speed>
<extensions>
<speed>3.3</speed>
<temp>0.00</temp>
<bpm>0</bpm>
<rpm>0.00</rpm>
</extensions>
</trkpt>
<trkpt lat="63.853626251" lon="-18.739234924">
<ele>565.500000</ele>
<time>2012-07-25T13:15:12Z</time>
<speed>3.650000</speed>
<extensions>
<speed>3.7</speed>
<temp>0.00</temp>
<bpm>0</bpm>
<rpm>0.00</rpm>
</extensions>
</trkpt>
<trkpt lat="63.853462219" lon="-18.739173889">
<ele>564.468750</ele>
<time>2012-07-25T13:15:17Z</time>
<speed>3.590000</speed>
<extensions>
<speed>3.6</speed>
<temp>0.00</temp>
<bpm>0</bpm>
<rpm>0.00</rpm>
</extensions>
</trkpt>
<trkpt lat="63.853313446" lon="-18.739118576">
<ele>563.968750</ele>
<time>2012-07-25T13:15:22Z</time>
<speed>3.550000</speed>
<extensions>
<speed>3.5</speed>
<temp>0.00</temp>
<bpm>0</bpm>
<rpm>0.00</rpm>
</extensions>
</trkpt>
<trkpt lat="63.853160858" lon="-18.739057541">
<ele>563.312500</ele>
<time>2012-07-25T13:15:27Z</time>
<speed>3.060000</speed>
<extensions>
<speed>3.1</speed>
<temp>0.00</temp>
<bpm>0</bpm>
<rpm>0.00</rpm>
</extensions>
</trkpt>
<trkpt lat="63.853015900" lon="-18.739015579">
<ele>563.406250</ele>
<time>2012-07-25T13:15:32Z</time>
<speed>3.170000</speed>
<extensions>
<speed>3.2</speed>
<temp>0.00</temp>
<bpm>0</bpm>
<rpm>0.00</rpm>
</extensions>
</trkpt>
<trkpt lat="63.852890015" lon="-18.738964081">
<ele>563.265625</ele>
<time>2012-07-25T13:15:37Z</time>
<speed>2.610000</speed>
<extensions>
<speed>2.6</speed>
<temp>0.00</temp>
<bpm>0</bpm>
<rpm>0.00</rpm>
</extensions>
</trkpt>
<trkpt lat="63.852771759" lon="-18.738918304">
<ele>563.453125</ele>
<time>2012-07-25T13:15:42Z</time>
<speed>2.780000</speed>
<extensions>
<speed>2.8</speed>
<temp>0.00</temp>
<bpm>0</bpm>
<rpm>0.00</rpm>
</extensions>
</trkpt>
<trkpt lat="63.852638245" lon="-18.738838196">
<ele>563.906250</ele>
<time>2012-07-25T13:15:47Z</time>
<speed>2.920000</speed>
<extensions>
<speed>2.9</speed>
<temp>0.00</temp>
<bpm>0</bpm>
<rpm>0.00</rpm>
</extensions>
</trkpt>
<trkpt lat="63.852523804" lon="-18.738714218">
<ele>563.906250</ele>
<time>2012-07-25T13:15:52Z</time>
<speed>2.870000</speed>
<extensions>
<speed>2.9</speed>
<temp>0.00</temp>
<bpm>0</bpm>
<rpm>0.00</rpm>
</extensions>
</trkpt>
<trkpt lat="63.852409363" lon="-18.738559723">
<ele>563.281250</ele>
<time>2012-07-25T13:15:57Z</time>
<speed>2.750000</speed>
<extensions>
<speed>2.7</speed>
<temp>0.00</temp>
<bpm>0</bpm>
<rpm>0.00</rpm>
</extensions>
</trkpt>
<trkpt lat="63.852317810" lon="-18.738376617">
<ele>562.765625</ele>
<time>2012-07-25T13:16:02Z</time>
<speed>2.410000</speed>
<extensions>
<speed>2.4</speed>
<temp>0.00</temp>
<bpm>0</bpm>
<rpm>0.00</rpm>
</extensions>
</trkpt>
<trkpt lat="63.852214813" lon="-18.738128662">
<ele>561.406250</ele>
<time>2012-07-25T13:16:07Z</time>
<speed>3.220000</speed>
<extensions>
<speed>3.2</speed>
<temp>0.00</temp>
<bpm>0</bpm>
<rpm>0.00</rpm>
</extensions>
</trkpt>
<trkpt lat="63.852127075" lon="-18.737884521">
<ele>562.421875</ele>
<time>2012-07-25T13:16:12Z</time>
<speed>3.270000</speed>
<extensions>
<speed>3.3</speed>
<temp>0.00</temp>
<bpm>0</bpm>
<rpm>0.00</rpm>
</extensions>
</trkpt>
<trkpt lat="63.852024078" lon="-18.737764359">
<ele>564.156250</ele>
<time>2012-07-25T13:16:17Z</time>
<speed>3.260000</speed>
<extensions>
<speed>3.3</speed>
<temp>0.00</temp>
<bpm>0</bpm>
<rpm>0.00</rpm>
</extensions>
</trkpt>
<trkpt lat="63.851818085" lon="-18.737562180">
<ele>563.156250</ele>
<time>2012-07-25T13:16:22Z</time>
<speed>5.180000</speed>
<extensions>
<speed>5.2</speed>
<temp>0.00</temp>
<bpm>0</bpm>
<rpm>0.00</rpm>
</extensions>
</trkpt>
<trkpt lat="63.851562500" lon="-18.737384796">
<ele>562.500000</ele>
<time>2012-07-25T13:16:27Z</time>
<speed>6.380000</speed>
<extensions>
<speed>6.4</speed>
<temp>0.00</temp>
<bpm>0</bpm>
<rpm>0.00</rpm>
</extensions>
</trkpt>
<trkpt lat="63.851261139" lon="-18.737169266">
<ele>558.484375</ele>
<time>2012-07-25T13:16:32Z</time>
<speed>6.900000</speed>
<extensions>
<speed>6.9</speed>
<temp>0.00</temp>
<bpm>0</bpm>
<rpm>0.00</rpm>
</extensions>
</trkpt>
<trkpt lat="63.851009369" lon="-18.736946106">
<ele>555.890625</ele>
<time>2012-07-25T13:16:37Z</time>
<speed>4.300000</speed>
<extensions>
<speed>4.3</speed>
<temp>0.00</temp>
<bpm>0</bpm>
<rpm>0.00</rpm>
</extensions>
</trkpt>
<trkpt lat="63.850944519" lon="-18.736919403">
<ele>553.234375</ele>
<time>2012-07-25T13:16:42Z</time>
<speed>0.280000</speed>
<extensions>
<speed>0.3</speed>
<temp>0.00</temp>
<bpm>0</bpm>
<rpm>0.00</rpm>
</extensions>
</trkpt>
<trkpt lat="63.850933075" lon="-18.736907959">
<ele>552.609375</ele>
<time>2012-07-25T13:16:47Z</time>
<speed>0.330000</speed>
<extensions>
<speed>0.3</speed>
<temp>0.00</temp>
<bpm>0</bpm>
<rpm>0.00</rpm>
</extensions>
</trkpt>
<trkpt lat="63.850936890" lon="-18.736904144">
<ele>551.484375</ele>
<time>2012-07-25T13:16:52Z</time>
<speed>0.160000</speed>
<extensions>
<speed>0.2</speed>
<temp>0.00</temp>
<bpm>0</bpm>
<rpm>0.00</rpm>
</extensions>
</trkpt>
<trkpt lat="63.850936890" lon="-18.736881256">
<ele>550.921875</ele>
<time>2012-07-25T13:16:57Z</time>
<speed>0.070000</speed>
<extensions>
<speed>0.1</speed>
<temp>0.00</temp>
<bpm>0</bpm>
<rpm>0.00</rpm>
</extensions>
</trkpt>
<trkpt lat="63.850944519" lon="-18.736875534">
<ele>551.734375</ele>
<time>2012-07-25T13:17:02Z</time>
<speed>0.070000</speed>
<extensions>
<speed>0.1</speed>
<temp>0.00</temp>
<bpm>0</bpm>
<rpm>0.00</rpm>
</extensions>
</trkpt>
<trkpt lat="63.850959778" lon="-18.736907959">
<ele>552.125000</ele>
<time>2012-07-25T13:17:07Z</time>
<speed>0.160000</speed>
<extensions>
<speed>0.2</speed>
<temp>0.00</temp>
<bpm>0</bpm>
<rpm>0.00</rpm>
</extensions>
</trkpt>
<trkpt lat="63.850963593" lon="-18.736911774">
<ele>552.078125</ele>
<time>2012-07-25T13:17:12Z</time>
<speed>0.020000</speed>
<extensions>
<speed>0.0</speed>
<temp>0.00</temp>
<bpm>0</bpm>
<rpm>0.00</rpm>
</extensions>
</trkpt>
<trkpt lat="63.850963593" lon="-18.736911774">
<ele>551.984375</ele>
<time>2012-07-25T13:17:17Z</time>
<speed>0.020000</speed>
<extensions>
<speed>0.0</speed>
<temp>0.00</temp>
<bpm>0</bpm>
<rpm>0.00</rpm>
</extensions>
</trkpt>
<trkpt lat="63.850959778" lon="-18.736909866">
<ele>551.921875</ele>
<time>2012-07-25T13:17:22Z</time>
<speed>0.010000</speed>
<extensions>
<speed>0.0</speed>
<temp>0.00</temp>
<bpm>0</bpm>
<rpm>0.00</rpm>
</extensions>
</trkpt>
<trkpt lat="63.850959778" lon="-18.736909866">
<ele>551.875000</ele>
<time>2012-07-25T13:17:27Z</time>
<extensions>
<speed>0.0</speed>
<temp>0.00</temp>
<bpm>0</bpm>
<rpm>0.00</rpm>
</extensions>
</trkpt>
<trkpt lat="63.850959778" lon="-18.736909866">
<ele>551.843750</ele>
<time>2012-07-25T13:17:32Z</time>
<extensions>
<speed>0.0</speed>
<temp>0.00</temp>
<bpm>0</bpm>
<rpm>0.00</rpm>
</extensions>
</trkpt>
<trkpt lat="63.850959778" lon="-18.736909866">
<ele>551.812500</ele>
<time>2012-07-25T13:17:37Z</time>
<extensions>
<speed>0.0</speed>
<temp>0.00</temp>
<bpm>0</bpm>
<rpm>0.00</rpm>
</extensions>
</trkpt>
<trkpt lat="63.850959778" lon="-18.736909866">
<ele>551.781250</ele>
<time>2012-07-25T13:17:42Z</time>
<speed>0.010000</speed>
<extensions>
<speed>0.0</speed>
<temp>0.00</temp>
<bpm>0</bpm>
<rpm>0.00</rpm>
</extensions>
</trkpt>
<trkpt lat="63.850959778" lon="-18.736909866">
<ele>551.734375</ele>
<time>2012-07-25T13:17:47Z</time>
<extensions>
<speed>0.0</speed>
<temp>0.00</temp>
<bpm>0</bpm>
<rpm>0.00</rpm>
</extensions>
</trkpt>
<trkpt lat="63.850959778" lon="-18.736909866">
<ele>551.718750</ele>
<time>2012-07-25T13:17:52Z</time>
<extensions>
<speed>0.0</speed>
<temp>0.00</temp>
<bpm>0</bpm>
<rpm>0.00</rpm>
</extensions>
</trkpt>
<trkpt lat="63.850959778" lon="-18.736909866">
<ele>551.703125</ele>
<time>2012-07-25T13:17:57Z</time>
<extensions>
<speed>0.0</speed>
<temp>0.00</temp>
<bpm>0</bpm>
<rpm>0.00</rpm>
</extensions>
</trkpt>
<trkpt lat="63.850959778" lon="-18.736909866">
<ele>551.687500</ele>
<time>2012-07-25T13:18:02Z</time>
<speed>0.020000</speed>
<extensions>
<speed>0.0</speed>
<temp>0.00</temp>
<bpm>0</bpm>
<rpm>0.00</rpm>
</extensions>
</trkpt>
<trkpt lat="63.850959778" lon="-18.736909866">
<ele>551.703125</ele>
<time>2012-07-25T13:18:07Z</time>
<extensions>
<speed>0.0</speed>
<temp>0.00</temp>
<bpm>0</bpm>
<rpm>0.00</rpm>
</extensions>
</trkpt>
<trkpt lat="63.850959778" lon="-18.736911774">
<ele>551.671875</ele>
<time>2012-07-25T13:18:12Z</time>
<speed>0.330000</speed>
<extensions>
<speed>0.3</speed>
<temp>0.00</temp>
<bpm>0</bpm>
<rpm>0.00</rpm>
</extensions>
</trkpt>
<trkpt lat="63.850902557" lon="-18.736898422">
<ele>550.468750</ele>
<time>2012-07-25T13:18:17Z</time>
<speed>2.050000</speed>
<extensions>
<speed>2.1</speed>
<temp>0.00</temp>
<bpm>0</bpm>
<rpm>0.00</rpm>
</extensions>
</trkpt>
<trkpt lat="63.850776672" lon="-18.736949921">
<ele>548.125000</ele>
<time>2012-07-25T13:18:22Z</time>
<speed>3.380000</speed>
<extensions>
<speed>3.4</speed>
<temp>0.00</temp>
<bpm>0</bpm>
<rpm>0.00</rpm>
</extensions>
</trkpt>
<trkpt lat="63.850616455" lon="-18.737108231">
<ele>545.078125</ele>
<time>2012-07-25T13:18:27Z</time>
<speed>4.510000</speed>
<extensions>
<speed>4.5</speed>
<temp>0.00</temp>
<bpm>0</bpm>
<rpm>0.00</rpm>
</extensions>
</trkpt>
<trkpt lat="63.850399017" lon="-18.737258911">
<ele>540.875000</ele>
<time>2012-07-25T13:18:32Z</time>
<speed>5.040000</speed>
<extensions>
<speed>5.0</speed>
<temp>0.00</temp>
<bpm>0</bpm>
<rpm>0.00</rpm>
</extensions>
</trkpt>
<trkpt lat="63.850193024" lon="-18.737350464">
<ele>540.421875</ele>
<time>2012-07-25T13:18:37Z</time>
<speed>3.710000</speed>
<extensions>
<speed>3.7</speed>
<temp>0.00</temp>
<bpm>0</bpm>
<rpm>0.00</rpm>
</extensions>
</trkpt>
<trkpt lat="63.850032806" lon="-18.737462997">
<ele>536.765625</ele>
<time>2012-07-25T13:18:42Z</time>
<speed>3.810000</speed>
<extensions>
<speed>3.8</speed>
<temp>0.00</temp>
<bpm>0</bpm>
<rpm>0.00</rpm>
</extensions>
</trkpt>
<trkpt lat="63.849838257" lon="-18.737562180">
<ele>533.484375</ele>
<time>2012-07-25T13:18:47Z</time>
<speed>5.320000</speed>
<extensions>
<speed>5.3</speed>
<temp>0.00</temp>
<bpm>0</bpm>
<rpm>0.00</rpm>
</extensions>
</trkpt>
<trkpt lat="63.849601746" lon="-18.737373352">
<ele>529.000000</ele>
<time>2012-07-25T13:18:52Z</time>
<speed>5.520000</speed>
<extensions>
<speed>5.5</speed>
<temp>0.00</temp>
<bpm>0</bpm>
<rpm>0.00</rpm>
</extensions>
</trkpt>
<trkpt lat="63.849411011" lon="-18.737567902">
<ele>527.609375</ele>
<time>2012-07-25T13:18:57Z</time>
<speed>5.300000</speed>
<extensions>
<speed>5.3</speed>
<temp>0.00</temp>
<bpm>0</bpm>
<rpm>0.00</rpm>
</extensions>
</trkpt>
<trkpt lat="63.849422455" lon="-18.738012314">
<ele>528.750000</ele>
<time>2012-07-25T13:19:02Z</time>
<speed>3.120000</speed>
<extensions>
<speed>3.1</speed>
<temp>0.00</temp>
<bpm>0</bpm>
<rpm>0.00</rpm>
</extensions>
</trkpt>
<trkpt lat="63.849449158" lon="-18.738273621">
<ele>531.359375</ele>
<time>2012-07-25T13:19:07Z</time>
<speed>2.980000</speed>
<extensions>
<speed>3.0</speed>
<temp>0.00</temp>
<bpm>0</bpm>
<rpm>0.00</rpm>
</extensions>
</trkpt>
<trkpt lat="63.849456787" lon="-18.738578796">
<ele>533.546875</ele>
<time>2012-07-25T13:19:12Z</time>
<speed>2.550000</speed>
<extensions>
<speed>2.6</speed>
<temp>0.00</temp>
<bpm>0</bpm>
<rpm>0.00</rpm>
</extensions>
</trkpt>
<trkpt lat="63.849426270" lon="-18.738763809">
<ele>535.109375</ele>
<time>2012-07-25T13:19:17Z</time>
<speed>1.400000</speed>
<extensions>
<speed>1.4</speed>
<temp>0.00</temp>
<bpm>0</bpm>
<rpm>0.00</rpm>
</extensions>
</trkpt>
<trkpt lat="63.849403381" lon="-18.738840103">
<ele>533.890625</ele>
<time>2012-07-25T13:19:22Z</time>
<speed>0.190000</speed>
<extensions>
<speed>0.2</speed>
<temp>0.00</temp>
<bpm>0</bpm>
<rpm>0.00</rpm>
</extensions>
</trkpt>
<trkpt lat="63.849388123" lon="-18.738847733">
<ele>534.140625</ele>
<time>2012-07-25T13:19:27Z</time>
<speed>0.020000</speed>
<extensions>
<speed>0.0</speed>
<temp>0.00</temp>
<bpm>0</bpm>
<rpm>0.00</rpm>
</extensions>
</trkpt>
<trkpt lat="63.849384308" lon="-18.738840103">
<ele>534.390625</ele>
<time>2012-07-25T13:19:32Z</time>
<speed>0.420000</speed>
<extensions>
<speed>0.4</speed>
<temp>0.00</temp>
<bpm>0</bpm>
<rpm>0.00</rpm>
</extensions>
</trkpt>
<trkpt lat="63.849395752" lon="-18.738853455">
<ele>536.593750</ele>
<time>2012-07-25T13:19:37Z</time>
<speed>0.150000</speed>
<extensions>
<speed>0.2</speed>
<temp>0.00</temp>
<bpm>0</bpm>
<rpm>0.00</rpm>
</extensions>
</trkpt>
<trkpt lat="63.849395752" lon="-18.738861084">
<ele>537.562500</ele>
<time>2012-07-25T13:19:42Z</time>
<speed>0.060000</speed>
<extensions>
<speed>0.1</speed>
<temp>0.00</temp>
<bpm>0</bpm>
<rpm>0.00</rpm>
</extensions>
</trkpt>
<trkpt lat="63.849399567" lon="-18.738859177">
<ele>537.859375</ele>
<time>2012-07-25T13:19:47Z</time>
<speed>0.030000</speed>
<extensions>
<speed>0.0</speed>
<temp>0.00</temp>
<bpm>0</bpm>
<rpm>0.00</rpm>
</extensions>
</trkpt>
<trkpt lat="63.849399567" lon="-18.738857269">
<ele>537.937500</ele>
<time>2012-07-25T13:19:52Z</time>
<speed>0.080000</speed>
<extensions>
<speed>0.1</speed>
<temp>0.00</temp>
<bpm>0</bpm>
<rpm>0.00</rpm>
</extensions>
</trkpt>
<trkpt lat="63.849399567" lon="-18.738857269">
<ele>537.937500</ele>
<time>2012-07-25T13:19:57Z</time>
<speed>0.010000</speed>
<extensions>
<speed>0.0</speed>
<temp>0.00</temp>
<bpm>0</bpm>
<rpm>0.00</rpm>
</extensions>
</trkpt>
<trkpt lat="63.849399567" lon="-18.738857269">
<ele>537.921875</ele>
<time>2012-07-25T13:20:02Z</time>
<speed>0.030000</speed>
<extensions>
<speed>0.0</speed>
<temp>0.00</temp>
<bpm>0</bpm>
<rpm>0.00</rpm>
</extensions>
</trkpt>
<trkpt lat="63.849399567" lon="-18.738855362">
<ele>537.921875</ele>
<time>2012-07-25T13:20:07Z</time>
<speed>0.010000</speed>
<extensions>
<speed>0.0</speed>
<temp>0.00</temp>
<bpm>0</bpm>
<rpm>0.00</rpm>
</extensions>
</trkpt>
<trkpt lat="63.849399567" lon="-18.738855362">
<ele>537.921875</ele>
<time>2012-07-25T13:20:12Z</time>
<extensions>
<speed>0.0</speed>
<temp>0.00</temp>
<bpm>0</bpm>
<rpm>0.00</rpm>
</extensions>
</trkpt>
<trkpt lat="63.849399567" lon="-18.738855362">
<ele>537.921875</ele>
<time>2012-07-25T13:20:17Z</time>
<extensions>
<speed>0.0</speed>
<temp>0.00</temp>
<bpm>0</bpm>
<rpm>0.00</rpm>
</extensions>
</trkpt>
<trkpt lat="63.849399567" lon="-18.738857269">
<ele>537.921875</ele>
<time>2012-07-25T13:20:22Z</time>
<speed>0.010000</speed>
<extensions>
<speed>0.0</speed>
<temp>0.00</temp>
<bpm>0</bpm>
<rpm>0.00</rpm>
</extensions>
</trkpt>
<trkpt lat="63.849399567" lon="-18.738857269">
<ele>537.921875</ele>
<time>2012-07-25T13:20:27Z</time>
<speed>0.010000</speed>
<extensions>
<speed>0.0</speed>
<temp>0.00</temp>
<bpm>0</bpm>
<rpm>0.00</rpm>
</extensions>
</trkpt>
<trkpt lat="63.849399567" lon="-18.738857269">
<ele>537.921875</ele>
<time>2012-07-25T13:20:32Z</time>
<speed>0.100000</speed>
<extensions>
<speed>0.1</speed>
<temp>0.00</temp>
<bpm>0</bpm>
<rpm>0.00</rpm>
</extensions>
</trkpt>
<trkpt lat="63.849407196" lon="-18.738851547">
<ele>537.312500</ele>
<time>2012-07-25T13:20:37Z</time>
<speed>0.220000</speed>
<extensions>
<speed>0.2</speed>
<temp>0.00</temp>
<bpm>0</bpm>
<rpm>0.00</rpm>
</extensions>
</trkpt>
<trkpt lat="63.849426270" lon="-18.738822937">
<ele>536.781250</ele>
<time>2012-07-25T13:20:42Z</time>
<speed>0.310000</speed>
<extensions>
<speed>0.3</speed>
<temp>0.00</temp>
<bpm>0</bpm>
<rpm>0.00</rpm>
</extensions>
</trkpt>
<trkpt lat="63.849441528" lon="-18.738765717">
<ele>536.078125</ele>
<time>2012-07-25T13:20:47Z</time>
<speed>1.040000</speed>
<extensions>
<speed>1.0</speed>
<temp>0.00</temp>
<bpm>0</bpm>
<rpm>0.00</rpm>
</extensions>
</trkpt>
<trkpt lat="63.849433899" lon="-18.738704681">
<ele>536.609375</ele>
<time>2012-07-25T13:20:52Z</time>
<speed>0.050000</speed>
<extensions>
<speed>0.1</speed>
<temp>0.00</temp>
<bpm>0</bpm>
<rpm>0.00</rpm>
</extensions>
</trkpt>
<trkpt lat="63.849437714" lon="-18.738611221">
<ele>535.828125</ele>
<time>2012-07-25T13:20:57Z</time>
<speed>0.900000</speed>
<extensions>
<speed>0.9</speed>
<temp>0.00</temp>
<bpm>0</bpm>
<rpm>0.00</rpm>
</extensions>
</trkpt>
<trkpt lat="63.849445343" lon="-18.738576889">
<ele>533.515625</ele>
<time>2012-07-25T13:21:02Z</time>
<speed>0.560000</speed>
<extensions>
<speed>0.6</speed>
<temp>0.00</temp>
<bpm>0</bpm>
<rpm>0.00</rpm>
</extensions>
</trkpt>
<trkpt lat="63.849464417" lon="-18.738534927">
<ele>532.578125</ele>
<time>2012-07-25T13:21:07Z</time>
<speed>0.190000</speed>
<extensions>
<speed>0.2</speed>
<temp>0.00</temp>
<bpm>0</bpm>
<rpm>0.00</rpm>
</extensions>
</trkpt>
<trkpt lat="63.849464417" lon="-18.738414764">
<ele>532.000000</ele>
<time>2012-07-25T13:21:12Z</time>
<speed>1.270000</speed>
<extensions>
<speed>1.3</speed>
<temp>0.00</temp>
<bpm>0</bpm>
<rpm>0.00</rpm>
</extensions>
</trkpt>
<trkpt lat="63.849441528" lon="-18.738313675">
<ele>531.984375</ele>
<time>2012-07-25T13:21:17Z</time>
<speed>1.060000</speed>
<extensions>
<speed>1.1</speed>
<temp>0.00</temp>
<bpm>0</bpm>
<rpm>0.00</rpm>
</extensions>
</trkpt>
<trkpt lat="63.849437714" lon="-18.738548279">
<ele>532.203125</ele>
<time>2012-07-25T13:21:22Z</time>
<speed>3.550000</speed>
<extensions>
<speed>3.5</speed>
<temp>0.00</temp>
<bpm>0</bpm>
<rpm>0.00</rpm>
</extensions>
</trkpt>
<trkpt lat="63.849330902" lon="-18.738958359">
<ele>532.031250</ele>
<time>2012-07-25T13:21:27Z</time>
<speed>3.580000</speed>
<extensions>
<speed>3.6</speed>
<temp>0.00</temp>
<bpm>0</bpm>
<rpm>0.00</rpm>
</extensions>
</trkpt>
<trkpt lat="63.849308014" lon="-18.739131927">
<ele>533.515625</ele>
<time>2012-07-25T13:21:32Z</time>
<speed>1.710000</speed>
<extensions>
<speed>1.7</speed>
<temp>0.00</temp>
<bpm>0</bpm>
<rpm>0.00</rpm>
</extensions>
</trkpt>
<trkpt lat="63.849292755" lon="-18.739294052">
<ele>533.875000</ele>
<time>2012-07-25T13:21:37Z</time>
<speed>1.750000</speed>
<extensions>
<speed>1.8</speed>
<temp>0.00</temp>
<bpm>0</bpm>
<rpm>0.00</rpm>
</extensions>
</trkpt>
<trkpt lat="63.849285126" lon="-18.739467621">
<ele>534.250000</ele>
<time>2012-07-25T13:21:42Z</time>
<speed>1.930000</speed>
<extensions>
<speed>1.9</speed>
<temp>0.00</temp>
<bpm>0</bpm>
<rpm>0.00</rpm>
</extensions>
</trkpt>
<trkpt lat="63.849285126" lon="-18.739633560">
<ele>534.921875</ele>
<time>2012-07-25T13:21:47Z</time>
<speed>0.710000</speed>
<extensions>
<speed>0.7</speed>
<temp>0.00</temp>
<bpm>0</bpm>
<rpm>0.00</rpm>
</extensions>
</trkpt>
<trkpt lat="63.849285126" lon="-18.739658356">
<ele>535.156250</ele>
<time>2012-07-25T13:21:52Z</time>
<speed>1.010000</speed>
<extensions>
<speed>1.0</speed>
<temp>0.00</temp>
<bpm>0</bpm>
<rpm>0.00</rpm>
</extensions>
</trkpt>
<trkpt lat="63.849300385" lon="-18.739850998">
<ele>533.062500</ele>
<time>2012-07-25T13:21:57Z</time>
<speed>2.500000</speed>
<extensions>
<speed>2.5</speed>
<temp>0.00</temp>
<bpm>0</bpm>
<rpm>0.00</rpm>
</extensions>
</trkpt>
<trkpt lat="63.849330902" lon="-18.740110397">
<ele>533.812500</ele>
<time>2012-07-25T13:22:02Z</time>
<speed>2.670000</speed>
<extensions>
<speed>2.7</speed>
<temp>0.00</temp>
<bpm>0</bpm>
<rpm>0.00</rpm>
</extensions>
</trkpt>
<trkpt lat="63.849376678" lon="-18.740343094">
<ele>533.703125</ele>
<time>2012-07-25T13:22:07Z</time>
<speed>2.050000</speed>
<extensions>
<speed>2.1</speed>
<temp>0.00</temp>
<bpm>0</bpm>
<rpm>0.00</rpm>
</extensions>
</trkpt>
<trkpt lat="63.849395752" lon="-18.740493774">
<ele>533.500000</ele>
<time>2012-07-25T13:22:12Z</time>
<speed>1.330000</speed>
<extensions>
<speed>1.3</speed>
<temp>0.00</temp>
<bpm>0</bpm>
<rpm>0.00</rpm>
</extensions>
</trkpt>
<trkpt lat="63.849422455" lon="-18.740613937">
<ele>532.734375</ele>
<time>2012-07-25T13:22:17Z</time>
<speed>1.560000</speed>
<extensions>
<speed>1.6</speed>
<temp>0.00</temp>
<bpm>0</bpm>
<rpm>0.00</rpm>
</extensions>
</trkpt>
<trkpt lat="63.849449158" lon="-18.740777969">
<ele>531.703125</ele>
<time>2012-07-25T13:22:22Z</time>
<speed>1.560000</speed>
<extensions>
<speed>1.6</speed>
<temp>0.00</temp>
<bpm>0</bpm>
<rpm>0.00</rpm>
</extensions>
</trkpt>
<trkpt lat="63.849449158" lon="-18.740940094">
<ele>532.859375</ele>
<time>2012-07-25T13:22:27Z</time>
<speed>2.140000</speed>
<extensions>
<speed>2.1</speed>
<temp>0.00</temp>
<bpm>0</bpm>
<rpm>0.00</rpm>
</extensions>
</trkpt>
<trkpt lat="63.849380493" lon="-18.741168976">
<ele>533.734375</ele>
<time>2012-07-25T13:22:32Z</time>
<speed>2.910000</speed>
<extensions>
<speed>2.9</speed>
<temp>0.00</temp>
<bpm>0</bpm>
<rpm>0.00</rpm>
</extensions>
</trkpt>
<trkpt lat="63.849349976" lon="-18.741289139">
<ele>535.078125</ele>
<time>2012-07-25T13:22:37Z</time>
<speed>0.090000</speed>
<extensions>
<speed>0.1</speed>
<temp>0.00</temp>
<bpm>0</bpm>
<rpm>0.00</rpm>
</extensions>
</trkpt>
<trkpt lat="63.849346161" lon="-18.741308212">
<ele>535.937500</ele>
<time>2012-07-25T13:22:42Z</time>
<speed>0.210000</speed>
<extensions>
<speed>0.2</speed>
<temp>0.00</temp>
<bpm>0</bpm>
<rpm>0.00</rpm>
</extensions>
</trkpt>
<trkpt lat="63.849342346" lon="-18.741371155">
<ele>535.968750</ele>
<time>2012-07-25T13:22:47Z</time>
<speed>0.780000</speed>
<extensions>
<speed>0.8</speed>
<temp>0.00</temp>
<bpm>0</bpm>
<rpm>0.00</rpm>
</extensions>
</trkpt>
<trkpt lat="63.849349976" lon="-18.741466522">
<ele>536.265625</ele>
<time>2012-07-25T13:22:52Z</time>
<speed>1.190000</speed>
<extensions>
<speed>1.2</speed>
<temp>0.00</temp>
<bpm>0</bpm>
<rpm>0.00</rpm>
</extensions>
</trkpt>
<trkpt lat="63.849327087" lon="-18.741561890">
<ele>536.437500</ele>
<time>2012-07-25T13:22:57Z</time>
<speed>1.200000</speed>
<extensions>
<speed>1.2</speed>
<temp>0.00</temp>
<bpm>0</bpm>
<rpm>0.00</rpm>
</extensions>
</trkpt>
<trkpt lat="63.849300385" lon="-18.741649628">
<ele>536.437500</ele>
<time>2012-07-25T13:23:02Z</time>
<speed>0.910000</speed>
<extensions>
<speed>0.9</speed>
<temp>0.00</temp>
<bpm>0</bpm>
<rpm>0.00</rpm>
</extensions>
</trkpt>
<trkpt lat="63.849292755" lon="-18.741672516">
<ele>536.125000</ele>
<time>2012-07-25T13:23:07Z</time>
<speed>0.140000</speed>
<extensions>
<speed>0.1</speed>
<temp>0.00</temp>
<bpm>0</bpm>
<rpm>0.00</rpm>
</extensions>
</trkpt>
<trkpt lat="63.849281311" lon="-18.741704941">
<ele>535.656250</ele>
<time>2012-07-25T13:23:12Z</time>
<speed>0.150000</speed>
<extensions>
<speed>0.2</speed>
<temp>0.00</temp>
<bpm>0</bpm>
<rpm>0.00</rpm>
</extensions>
</trkpt>
<trkpt lat="63.849273682" lon="-18.741697311">
<ele>535.421875</ele>
<time>2012-07-25T13:23:17Z</time>
<speed>0.020000</speed>
<extensions>
<speed>0.0</speed>
<temp>0.00</temp>
<bpm>0</bpm>
<rpm>0.00</rpm>
</extensions>
</trkpt>
<trkpt lat="63.849273682" lon="-18.741699219">
<ele>535.515625</ele>
<time>2012-07-25T13:23:22Z</time>
<speed>0.020000</speed>
<extensions>
<speed>0.0</speed>
<temp>0.00</temp>
<bpm>0</bpm>
<rpm>0.00</rpm>
</extensions>
</trkpt>
<trkpt lat="63.849273682" lon="-18.741699219">
<ele>535.515625</ele>
<time>2012-07-25T13:23:27Z</time>
<extensions>
<speed>0.0</speed>
<temp>0.00</temp>
<bpm>0</bpm>
<rpm>0.00</rpm>
</extensions>
</trkpt>
<trkpt lat="63.849273682" lon="-18.741699219">
<ele>535.500000</ele>
<time>2012-07-25T13:23:32Z</time>
<speed>0.010000</speed>
<extensions>
<speed>0.0</speed>
<temp>0.00</temp>
<bpm>0</bpm>
<rpm>0.00</rpm>
</extensions>
</trkpt>
<trkpt lat="63.849273682" lon="-18.741699219">
<ele>535.500000</ele>
<time>2012-07-25T13:23:37Z</time>
<speed>0.010000</speed>
<extensions>
<speed>0.0</speed>
<temp>0.00</temp>
<bpm>0</bpm>
<rpm>0.00</rpm>
</extensions>
</trkpt>
<trkpt lat="63.849269867" lon="-18.741704941">
<ele>535.531250</ele>
<time>2012-07-25T13:23:42Z</time>
<speed>0.280000</speed>
<extensions>
<speed>0.3</speed>
<temp>0.00</temp>
<bpm>0</bpm>
<rpm>0.00</rpm>
</extensions>
</trkpt>
<trkpt lat="63.849235535" lon="-18.741708755">
<ele>535.453125</ele>
<time>2012-07-25T13:23:47Z</time>
<speed>0.790000</speed>
<extensions>
<speed>0.8</speed>
<temp>0.00</temp>
<bpm>0</bpm>
<rpm>0.00</rpm>
</extensions>
</trkpt>
<trkpt lat="63.849205017" lon="-18.741704941">
<ele>535.031250</ele>
<time>2012-07-25T13:23:52Z</time>
<speed>0.750000</speed>
<extensions>
<speed>0.8</speed>
<temp>0.00</temp>
<bpm>0</bpm>
<rpm>0.00</rpm>
</extensions>
</trkpt>
<trkpt lat="63.849147797" lon="-18.741760254">
<ele>536.421875</ele>
<time>2012-07-25T13:23:57Z</time>
<speed>1.230000</speed>
<extensions>
<speed>1.2</speed>
<temp>0.00</temp>
<bpm>0</bpm>
<rpm>0.00</rpm>
</extensions>
</trkpt>
<trkpt lat="63.849121094" lon="-18.741815567">
<ele>535.671875</ele>
<time>2012-07-25T13:24:02Z</time>
<speed>1.180000</speed>
<extensions>
<speed>1.2</speed>
<temp>0.00</temp>
<bpm>0</bpm>
<rpm>0.00</rpm>
</extensions>
</trkpt>
<trkpt lat="63.849086761" lon="-18.741926193">
<ele>536.671875</ele>
<time>2012-07-25T13:24:07Z</time>
<speed>0.990000</speed>
<extensions>
<speed>1.0</speed>
<temp>0.00</temp>
<bpm>0</bpm>
<rpm>0.00</rpm>
</extensions>
</trkpt>
<trkpt lat="63.849075317" lon="-18.741992950">
<ele>537.156250</ele>
<time>2012-07-25T13:24:12Z</time>
<speed>0.260000</speed>
<extensions>
<speed>0.3</speed>
<temp>0.00</temp>
<bpm>0</bpm>
<rpm>0.00</rpm>
</extensions>
</trkpt>
<trkpt lat="63.849056244" lon="-18.742021561">
<ele>537.687500</ele>
<time>2012-07-25T13:24:17Z</time>
<speed>0.630000</speed>
<extensions>
<speed>0.6</speed>
<temp>0.00</temp>
<bpm>0</bpm>
<rpm>0.00</rpm>
</extensions>
</trkpt>
<trkpt lat="63.849014282" lon="-18.742074966">
<ele>537.515625</ele>
<time>2012-07-25T13:24:22Z</time>
<speed>1.490000</speed>
<extensions>
<speed>1.5</speed>
<temp>0.00</temp>
<bpm>0</bpm>
<rpm>0.00</rpm>
</extensions>
</trkpt>
<trkpt lat="63.848972321" lon="-18.742189407">
<ele>537.171875</ele>
<time>2012-07-25T13:24:27Z</time>
<speed>1.600000</speed>
<extensions>
<speed>1.6</speed>
<temp>0.00</temp>
<bpm>0</bpm>
<rpm>0.00</rpm>
</extensions>
</trkpt>
<trkpt lat="63.848930359" lon="-18.742330551">
<ele>537.093750</ele>
<time>2012-07-25T13:24:32Z</time>
<speed>1.530000</speed>
<extensions>
<speed>1.5</speed>
<temp>0.00</temp>
<bpm>0</bpm>
<rpm>0.00</rpm>
</extensions>
</trkpt>
<trkpt lat="63.848884583" lon="-18.742437363">
<ele>537.421875</ele>
<time>2012-07-25T13:24:37Z</time>
<speed>1.230000</speed>
<extensions>
<speed>1.2</speed>
<temp>0.00</temp>
<bpm>0</bpm>
<rpm>0.00</rpm>
</extensions>
</trkpt>
<trkpt lat="63.848880768" lon="-18.742456436">
<ele>537.640625</ele>
<time>2012-07-25T13:24:42Z</time>
<speed>0.010000</speed>
<extensions>
<speed>0.0</speed>
<temp>0.00</temp>
<bpm>0</bpm>
<rpm>0.00</rpm>
</extensions>
</trkpt>
<trkpt lat="63.848873138" lon="-18.742458344">
<ele>536.890625</ele>
<time>2012-07-25T13:24:47Z</time>
<speed>0.080000</speed>
<extensions>
<speed>0.1</speed>
<temp>0.00</temp>
<bpm>0</bpm>
<rpm>0.00</rpm>
</extensions>
</trkpt>
<trkpt lat="63.848873138" lon="-18.742454529">
<ele>536.734375</ele>
<time>2012-07-25T13:24:52Z</time>
<extensions>
<speed>0.0</speed>
<temp>0.00</temp>
<bpm>0</bpm>
<rpm>0.00</rpm>
</extensions>
</trkpt>
<trkpt lat="63.848873138" lon="-18.742454529">
<ele>536.703125</ele>
<time>2012-07-25T13:24:57Z</time>
<speed>0.030000</speed>
<extensions>
<speed>0.0</speed>
<temp>0.00</temp>
<bpm>0</bpm>
<rpm>0.00</rpm>
</extensions>
</trkpt>
<trkpt lat="63.848873138" lon="-18.742454529">
<ele>536.703125</ele>
<time>2012-07-25T13:25:02Z</time>
<speed>0.020000</speed>
<extensions>
<speed>0.0</speed>
<temp>0.00</temp>
<bpm>0</bpm>
<rpm>0.00</rpm>
</extensions>
</trkpt>
<trkpt lat="63.848873138" lon="-18.742454529">
<ele>536.500000</ele>
<time>2012-07-25T13:25:07Z</time>
<speed>0.090000</speed>
<extensions>
<speed>0.1</speed>
<temp>0.00</temp>
<bpm>0</bpm>
<rpm>0.00</rpm>
</extensions>
</trkpt>
<trkpt lat="63.848869324" lon="-18.742452621">
<ele>536.031250</ele>
<time>2012-07-25T13:25:12Z</time>
<speed>0.410000</speed>
<extensions>
<speed>0.4</speed>
<temp>0.00</temp>
<bpm>0</bpm>
<rpm>0.00</rpm>
</extensions>
</trkpt>
<trkpt lat="63.848781586" lon="-18.742561340">
<ele>535.812500</ele>
<time>2012-07-25T13:25:17Z</time>
<speed>1.790000</speed>
<extensions>
<speed>1.8</speed>
<temp>0.00</temp>
<bpm>0</bpm>
<rpm>0.00</rpm>
</extensions>
</trkpt>
<trkpt lat="63.848766327" lon="-18.742582321">
<ele>535.984375</ele>
<time>2012-07-25T13:25:22Z</time>
<speed>0.170000</speed>
<extensions>
<speed>0.2</speed>
<temp>0.00</temp>
<bpm>0</bpm>
<rpm>0.00</rpm>
</extensions>
</trkpt>
<trkpt lat="63.848754883" lon="-18.742593765">
<ele>535.859375</ele>
<time>2012-07-25T13:25:27Z</time>
<speed>1.030000</speed>
<extensions>
<speed>1.0</speed>
<temp>0.00</temp>
<bpm>0</bpm>
<rpm>0.00</rpm>
</extensions>
</trkpt>
<trkpt lat="63.848697662" lon="-18.742635727">
<ele>536.921875</ele>
<time>2012-07-25T13:25:32Z</time>
<speed>2.030000</speed>
<extensions>
<speed>2.0</speed>
<temp>0.00</temp>
<bpm>0</bpm>
<rpm>0.00</rpm>
</extensions>
</trkpt>
<trkpt lat="63.848594666" lon="-18.742782593">
<ele>536.281250</ele>
<time>2012-07-25T13:25:37Z</time>
<speed>2.890000</speed>
<extensions>
<speed>2.9</speed>
<temp>0.00</temp>
<bpm>0</bpm>
<rpm>0.00</rpm>
</extensions>
</trkpt>
<trkpt lat="63.848480225" lon="-18.742942810">
<ele>535.687500</ele>
<time>2012-07-25T13:25:42Z</time>
<speed>3.100000</speed>
<extensions>
<speed>3.1</speed>
<temp>0.00</temp>
<bpm>0</bpm>
<rpm>0.00</rpm>
</extensions>
</trkpt>
<trkpt lat="63.848373413" lon="-18.743125916">
<ele>535.734375</ele>
<time>2012-07-25T13:25:47Z</time>
<speed>3.050000</speed>
<extensions>
<speed>3.0</speed>
<temp>0.00</temp>
<bpm>0</bpm>
<rpm>0.00</rpm>
</extensions>
</trkpt>
<trkpt lat="63.848266602" lon="-18.743326187">
<ele>536.140625</ele>
<time>2012-07-25T13:25:52Z</time>
<speed>3.140000</speed>
<extensions>
<speed>3.1</speed>
<temp>0.00</temp>
<bpm>0</bpm>
<rpm>0.00</rpm>
</extensions>
</trkpt>
<trkpt lat="63.848167419" lon="-18.743522644">
<ele>536.359375</ele>
<time>2012-07-25T13:25:57Z</time>
<speed>2.450000</speed>
<extensions>
<speed>2.4</speed>
<temp>0.00</temp>
<bpm>0</bpm>
<rpm>0.00</rpm>
</extensions>
</trkpt>
<trkpt lat="63.848083496" lon="-18.743652344">
<ele>536.703125</ele>
<time>2012-07-25T13:26:02Z</time>
<speed>1.940000</speed>
<extensions>
<speed>1.9</speed>
<temp>0.00</temp>
<bpm>0</bpm>
<rpm>0.00</rpm>
</extensions>
</trkpt>
<trkpt lat="63.848014832" lon="-18.743843079">
<ele>538.562500</ele>
<time>2012-07-25T13:26:07Z</time>
<speed>2.860000</speed>
<extensions>
<speed>2.9</speed>
<temp>0.00</temp>
<bpm>0</bpm>
<rpm>0.00</rpm>
</extensions>
</trkpt>
<trkpt lat="63.847957611" lon="-18.744049072">
<ele>539.250000</ele>
<time>2012-07-25T13:26:12Z</time>
<speed>2.300000</speed>
<extensions>
<speed>2.3</speed>
<temp>0.00</temp>
<bpm>0</bpm>
<rpm>0.00</rpm>
</extensions>
</trkpt>
<trkpt lat="63.847888947" lon="-18.744266510">
<ele>539.968750</ele>
<time>2012-07-25T13:26:17Z</time>
<speed>2.910000</speed>
<extensions>
<speed>2.9</speed>
<temp>0.00</temp>
<bpm>0</bpm>
<rpm>0.00</rpm>
</extensions>
</trkpt>
<trkpt lat="63.847801208" lon="-18.744493484">
<ele>540.484375</ele>
<time>2012-07-25T13:26:22Z</time>
<speed>3.090000</speed>
<extensions>
<speed>3.1</speed>
<temp>0.00</temp>
<bpm>0</bpm>
<rpm>0.00</rpm>
</extensions>
</trkpt>
<trkpt lat="63.847736359" lon="-18.744697571">
<ele>541.250000</ele>
<time>2012-07-25T13:26:27Z</time>
<speed>2.610000</speed>
<extensions>
<speed>2.6</speed>
<temp>0.00</temp>
<bpm>0</bpm>
<rpm>0.00</rpm>
</extensions>
</trkpt>
<trkpt lat="63.847671509" lon="-18.744935989">
<ele>541.687500</ele>
<time>2012-07-25T13:26:32Z</time>
<speed>2.850000</speed>
<extensions>
<speed>2.9</speed>
<temp>0.00</temp>
<bpm>0</bpm>
<rpm>0.00</rpm>
</extensions>
</trkpt>
<trkpt lat="63.847621918" lon="-18.745140076">
<ele>542.578125</ele>
<time>2012-07-25T13:26:37Z</time>
<speed>2.030000</speed>
<extensions>
<speed>2.0</speed>
<temp>0.00</temp>
<bpm>0</bpm>
<rpm>0.00</rpm>
</extensions>
</trkpt>
<trkpt lat="63.847602844" lon="-18.745201111">
<ele>543.125000</ele>
<time>2012-07-25T13:26:42Z</time>
<speed>0.320000</speed>
<extensions>
<speed>0.3</speed>
<temp>0.00</temp>
<bpm>0</bpm>
<rpm>0.00</rpm>
</extensions>
</trkpt>
<trkpt lat="63.847591400" lon="-18.745233536">
<ele>543.421875</ele>
<time>2012-07-25T13:26:47Z</time>
<speed>0.830000</speed>
<extensions>
<speed>0.8</speed>
<temp>0.00</temp>
<bpm>0</bpm>
<rpm>0.00</rpm>
</extensions>
</trkpt>
<trkpt lat="63.847572327" lon="-18.745311737">
<ele>544.437500</ele>
<time>2012-07-25T13:26:52Z</time>
<speed>0.870000</speed>
<extensions>
<speed>0.9</speed>
<temp>0.00</temp>
<bpm>0</bpm>
<rpm>0.00</rpm>
</extensions>
</trkpt>
<trkpt lat="63.847553253" lon="-18.745393753">
<ele>544.953125</ele>
<time>2012-07-25T13:26:57Z</time>
<speed>0.870000</speed>
<extensions>
<speed>0.9</speed>
<temp>0.00</temp>
<bpm>0</bpm>
<rpm>0.00</rpm>
</extensions>
</trkpt>
<trkpt lat="63.847537994" lon="-18.745468140">
<ele>545.984375</ele>
<time>2012-07-25T13:27:02Z</time>
<speed>0.770000</speed>
<extensions>
<speed>0.8</speed>
<temp>0.00</temp>
<bpm>0</bpm>
<rpm>0.00</rpm>
</extensions>
</trkpt>
<trkpt lat="63.847518921" lon="-18.745538712">
<ele>546.484375</ele>
<time>2012-07-25T13:27:07Z</time>
<speed>0.820000</speed>
<extensions>
<speed>0.8</speed>
<temp>0.00</temp>
<bpm>0</bpm>
<rpm>0.00</rpm>
</extensions>
</trkpt>
<trkpt lat="63.847503662" lon="-18.745592117">
<ele>546.765625</ele>
<time>2012-07-25T13:27:12Z</time>
<speed>0.750000</speed>
<extensions>
<speed>0.8</speed>
<temp>0.00</temp>
<bpm>0</bpm>
<rpm>0.00</rpm>
</extensions>
</trkpt>
<trkpt lat="63.847488403" lon="-18.745628357">
<ele>546.671875</ele>
<time>2012-07-25T13:27:17Z</time>
<speed>0.390000</speed>
<extensions>
<speed>0.4</speed>
<temp>0.00</temp>
<bpm>0</bpm>
<rpm>0.00</rpm>
</extensions>
</trkpt>
<trkpt lat="63.847473145" lon="-18.745666504">
<ele>546.734375</ele>
<time>2012-07-25T13:27:22Z</time>
<speed>0.470000</speed>
<extensions>
<speed>0.5</speed>
<temp>0.00</temp>
<bpm>0</bpm>
<rpm>0.00</rpm>
</extensions>
</trkpt>
<trkpt lat="63.847457886" lon="-18.745716095">
<ele>547.281250</ele>
<time>2012-07-25T13:27:27Z</time>
<speed>0.740000</speed>
<extensions>
<speed>0.7</speed>
<temp>0.00</temp>
<bpm>0</bpm>
<rpm>0.00</rpm>
</extensions>
</trkpt>
<trkpt lat="63.847442627" lon="-18.745750427">
<ele>547.015625</ele>
<time>2012-07-25T13:27:32Z</time>
<speed>0.660000</speed>
<extensions>
<speed>0.7</speed>
<temp>0.00</temp>
<bpm>0</bpm>
<rpm>0.00</rpm>
</extensions>
</trkpt>
<trkpt lat="63.847419739" lon="-18.745800018">
<ele>547.171875</ele>
<time>2012-07-25T13:27:37Z</time>
<speed>0.500000</speed>
<extensions>
<speed>0.5</speed>
<temp>0.00</temp>
<bpm>0</bpm>
<rpm>0.00</rpm>
</extensions>
</trkpt>
<trkpt lat="63.847393036" lon="-18.745889664">
<ele>548.171875</ele>
<time>2012-07-25T13:27:42Z</time>
<speed>0.840000</speed>
<extensions>
<speed>0.8</speed>
<temp>0.00</temp>
<bpm>0</bpm>
<rpm>0.00</rpm>
</extensions>
</trkpt>
<trkpt lat="63.847370148" lon="-18.745946884">
<ele>548.640625</ele>
<time>2012-07-25T13:27:47Z</time>
<speed>0.430000</speed>
<extensions>
<speed>0.4</speed>
<temp>0.00</temp>
<bpm>0</bpm>
<rpm>0.00</rpm>
</extensions>
</trkpt>
<trkpt lat="63.847358704" lon="-18.745985031">
<ele>548.687500</ele>
<time>2012-07-25T13:27:52Z</time>
<speed>0.390000</speed>
<extensions>
<speed>0.4</speed>
<temp>0.00</temp>
<bpm>0</bpm>
<rpm>0.00</rpm>
</extensions>
</trkpt>
<trkpt lat="63.847347260" lon="-18.746036530">
<ele>548.593750</ele>
<time>2012-07-25T13:27:57Z</time>
<speed>0.590000</speed>
<extensions>
<speed>0.6</speed>
<temp>0.00</temp>
<bpm>0</bpm>
<rpm>0.00</rpm>
</extensions>
</trkpt>
<trkpt lat="63.847324371" lon="-18.746063232">
<ele>547.859375</ele>
<time>2012-07-25T13:28:02Z</time>
<speed>0.540000</speed>
<extensions>
<speed>0.5</speed>
<temp>0.00</temp>
<bpm>0</bpm>
<rpm>0.00</rpm>
</extensions>
</trkpt>
<trkpt lat="63.847290039" lon="-18.746105194">
<ele>548.828125</ele>
<time>2012-07-25T13:28:07Z</time>
<speed>0.670000</speed>
<extensions>
<speed>0.7</speed>
<temp>0.00</temp>
<bpm>0</bpm>
<rpm>0.00</rpm>
</extensions>
</trkpt>
<trkpt lat="63.847259521" lon="-18.746137619">
<ele>549.500000</ele>
<time>2012-07-25T13:28:12Z</time>
<speed>0.790000</speed>
<extensions>
<speed>0.8</speed>
<temp>0.00</temp>
<bpm>0</bpm>
<rpm>0.00</rpm>
</extensions>
</trkpt>
<trkpt lat="63.847225189" lon="-18.746171951">
<ele>549.265625</ele>
<time>2012-07-25T13:28:17Z</time>
<speed>0.660000</speed>
<extensions>
<speed>0.7</speed>
<temp>0.00</temp>
<bpm>0</bpm>
<rpm>0.00</rpm>
</extensions>
</trkpt>
<trkpt lat="63.847194672" lon="-18.746191025">
<ele>548.671875</ele>
<time>2012-07-25T13:28:22Z</time>
<speed>0.850000</speed>
<extensions>
<speed>0.8</speed>
<temp>0.00</temp>
<bpm>0</bpm>
<rpm>0.00</rpm>
</extensions>
</trkpt>
<trkpt lat="63.847167969" lon="-18.746229172">
<ele>548.171875</ele>
<time>2012-07-25T13:28:27Z</time>
<speed>0.470000</speed>
<extensions>
<speed>0.5</speed>
<temp>0.00</temp>
<bpm>0</bpm>
<rpm>0.00</rpm>
</extensions>
</trkpt>
<trkpt lat="63.847129822" lon="-18.746286392">
<ele>549.093750</ele>
<time>2012-07-25T13:28:32Z</time>
<speed>0.760000</speed>
<extensions>
<speed>0.8</speed>
<temp>0.00</temp>
<bpm>0</bpm>
<rpm>0.00</rpm>
</extensions>
</trkpt>
<trkpt lat="63.847095490" lon="-18.746322632">
<ele>550.718750</ele>
<time>2012-07-25T13:28:37Z</time>
<speed>0.890000</speed>
<extensions>
<speed>0.9</speed>
<temp>0.00</temp>
<bpm>0</bpm>
<rpm>0.00</rpm>
</extensions>
</trkpt>
<trkpt lat="63.847053528" lon="-18.746356964">
<ele>550.687500</ele>
<time>2012-07-25T13:28:42Z</time>
<speed>0.520000</speed>
<extensions>
<speed>0.5</speed>
<temp>0.00</temp>
<bpm>0</bpm>
<rpm>0.00</rpm>
</extensions>
</trkpt>
<trkpt lat="63.847057343" lon="-18.746377945">
<ele>551.765625</ele>
<time>2012-07-25T13:28:47Z</time>
<speed>0.060000</speed>
<extensions>
<speed>0.1</speed>
<temp>0.00</temp>
<bpm>0</bpm>
<rpm>0.00</rpm>
</extensions>
</trkpt>
<trkpt lat="63.847030640" lon="-18.746410370">
<ele>551.875000</ele>
<time>2012-07-25T13:28:52Z</time>
<speed>1.020000</speed>
<extensions>
<speed>1.0</speed>
<temp>0.00</temp>
<bpm>0</bpm>
<rpm>0.00</rpm>
</extensions>
</trkpt>
<trkpt lat="63.846984863" lon="-18.746452332">
<ele>552.656250</ele>
<time>2012-07-25T13:28:57Z</time>
<speed>0.830000</speed>
<extensions>
<speed>0.8</speed>
<temp>0.00</temp>
<bpm>0</bpm>
<rpm>0.00</rpm>
</extensions>
</trkpt>
<trkpt lat="63.846950531" lon="-18.746494293">
<ele>552.875000</ele>
<time>2012-07-25T13:29:02Z</time>
<speed>0.840000</speed>
<extensions>
<speed>0.8</speed>
<temp>0.00</temp>
<bpm>0</bpm>
<rpm>0.00</rpm>
</extensions>
</trkpt>
<trkpt lat="63.846916199" lon="-18.746549606">
<ele>553.828125</ele>
<time>2012-07-25T13:29:07Z</time>
<speed>0.820000</speed>
<extensions>
<speed>0.8</speed>
<temp>0.00</temp>
<bpm>0</bpm>
<rpm>0.00</rpm>
</extensions>
</trkpt>
<trkpt lat="63.846874237" lon="-18.746599197">
<ele>555.390625</ele>
<time>2012-07-25T13:29:12Z</time>
<speed>0.850000</speed>
<extensions>
<speed>0.8</speed>
<temp>0.00</temp>
<bpm>0</bpm>
<rpm>0.00</rpm>
</extensions>
</trkpt>
<trkpt lat="63.846847534" lon="-18.746627808">
<ele>556.281250</ele>
<time>2012-07-25T13:29:17Z</time>
<speed>0.430000</speed>
<extensions>
<speed>0.4</speed>
<temp>0.00</temp>
<bpm>0</bpm>
<rpm>0.00</rpm>
</extensions>
</trkpt>
<trkpt lat="63.846820831" lon="-18.746656418">
<ele>557.562500</ele>
<time>2012-07-25T13:29:22Z</time>
<speed>0.480000</speed>
<extensions>
<speed>0.5</speed>
<temp>0.00</temp>
<bpm>0</bpm>
<rpm>0.00</rpm>
</extensions>
</trkpt>
<trkpt lat="63.846801758" lon="-18.746700287">
<ele>558.609375</ele>
<time>2012-07-25T13:29:27Z</time>
<speed>0.540000</speed>
<extensions>
<speed>0.5</speed>
<temp>0.00</temp>
<bpm>0</bpm>
<rpm>0.00</rpm>
</extensions>
</trkpt>
<trkpt lat="63.846767426" lon="-18.746736526">
<ele>559.328125</ele>
<time>2012-07-25T13:29:32Z</time>
<speed>0.800000</speed>
<extensions>
<speed>0.8</speed>
<temp>0.00</temp>
<bpm>0</bpm>
<rpm>0.00</rpm>
</extensions>
</trkpt>
<trkpt lat="63.846736908" lon="-18.746780396">
<ele>558.593750</ele>
<time>2012-07-25T13:29:37Z</time>
<speed>0.550000</speed>
<extensions>
<speed>0.6</speed>
<temp>0.00</temp>
<bpm>0</bpm>
<rpm>0.00</rpm>
</extensions>
</trkpt>
<trkpt lat="63.846706390" lon="-18.746803284">
<ele>558.765625</ele>
<time>2012-07-25T13:29:42Z</time>
<speed>0.690000</speed>
<extensions>
<speed>0.7</speed>
<temp>0.00</temp>
<bpm>0</bpm>
<rpm>0.00</rpm>
</extensions>
</trkpt>
<trkpt lat="63.846664429" lon="-18.746839523">
<ele>558.593750</ele>
<time>2012-07-25T13:29:47Z</time>
<speed>0.700000</speed>
<extensions>
<speed>0.7</speed>
<temp>0.00</temp>
<bpm>0</bpm>
<rpm>0.00</rpm>
</extensions>
</trkpt>
<trkpt lat="63.846633911" lon="-18.746877670">
<ele>558.218750</ele>
<time>2012-07-25T13:29:52Z</time>
<speed>0.710000</speed>
<extensions>
<speed>0.7</speed>
<temp>0.00</temp>
<bpm>0</bpm>
<rpm>0.00</rpm>
</extensions>
</trkpt>
<trkpt lat="63.846611023" lon="-18.746906281">
<ele>556.640625</ele>
<time>2012-07-25T13:29:57Z</time>
<speed>0.780000</speed>
<extensions>
<speed>0.8</speed>
<temp>0.00</temp>
<bpm>0</bpm>
<rpm>0.00</rpm>
</extensions>
</trkpt>
<trkpt lat="63.846569061" lon="-18.746971130">
<ele>556.812500</ele>
<time>2012-07-25T13:30:02Z</time>
<speed>1.010000</speed>
<extensions>
<speed>1.0</speed>
<temp>0.00</temp>
<bpm>0</bpm>
<rpm>0.00</rpm>
</extensions>
</trkpt>
<trkpt lat="63.846534729" lon="-18.747005463">
<ele>556.765625</ele>
<time>2012-07-25T13:30:07Z</time>
<speed>0.860000</speed>
<extensions>
<speed>0.9</speed>
<temp>0.00</temp>
<bpm>0</bpm>
<rpm>0.00</rpm>
</extensions>
</trkpt>
<trkpt lat="63.846496582" lon="-18.747053146">
<ele>557.609375</ele>
<time>2012-07-25T13:30:12Z</time>
<speed>0.920000</speed>
<extensions>
<speed>0.9</speed>
<temp>0.00</temp>
<bpm>0</bpm>
<rpm>0.00</rpm>
</extensions>
</trkpt>
<trkpt lat="63.846454620" lon="-18.747114182">
<ele>559.015625</ele>
<time>2012-07-25T13:30:17Z</time>
<speed>1.050000</speed>
<extensions>
<speed>1.0</speed>
<temp>0.00</temp>
<bpm>0</bpm>
<rpm>0.00</rpm>
</extensions>
</trkpt>
<trkpt lat="63.846416473" lon="-18.747182846">
<ele>558.875000</ele>
<time>2012-07-25T13:30:22Z</time>
<speed>1.030000</speed>
<extensions>
<speed>1.0</speed>
<temp>0.00</temp>
<bpm>0</bpm>
<rpm>0.00</rpm>
</extensions>
</trkpt>
<trkpt lat="63.846374512" lon="-18.747261047">
<ele>559.328125</ele>
<time>2012-07-25T13:30:27Z</time>
<speed>1.330000</speed>
<extensions>
<speed>1.3</speed>
<temp>0.00</temp>
<bpm>0</bpm>
<rpm>0.00</rpm>
</extensions>
</trkpt>
<trkpt lat="63.846321106" lon="-18.747333527">
<ele>561.140625</ele>
<time>2012-07-25T13:30:32Z</time>
<speed>1.070000</speed>
<extensions>
<speed>1.1</speed>
<temp>0.00</temp>
<bpm>0</bpm>
<rpm>0.00</rpm>
</extensions>
</trkpt>
<trkpt lat="63.846282959" lon="-18.747383118">
<ele>562.906250</ele>
<time>2012-07-25T13:30:37Z</time>
<speed>0.810000</speed>
<extensions>
<speed>0.8</speed>
<temp>0.00</temp>
<bpm>0</bpm>
<rpm>0.00</rpm>
</extensions>
</trkpt>
<trkpt lat="63.846256256" lon="-18.747432709">
<ele>563.093750</ele>
<time>2012-07-25T13:30:42Z</time>
<speed>0.800000</speed>
<extensions>
<speed>0.8</speed>
<temp>0.00</temp>
<bpm>0</bpm>
<rpm>0.00</rpm>
</extensions>
</trkpt>
<trkpt lat="63.846229553" lon="-18.747455597">
<ele>563.453125</ele>
<time>2012-07-25T13:30:47Z</time>
<speed>0.770000</speed>
<extensions>
<speed>0.8</speed>
<temp>0.00</temp>
<bpm>0</bpm>
<rpm>0.00</rpm>
</extensions>
</trkpt>
<trkpt lat="63.846195221" lon="-18.747514725">
<ele>563.375000</ele>
<time>2012-07-25T13:30:52Z</time>
<speed>0.970000</speed>
<extensions>
<speed>1.0</speed>
<temp>0.00</temp>
<bpm>0</bpm>
<rpm>0.00</rpm>
</extensions>
</trkpt>
<trkpt lat="63.846164703" lon="-18.747566223">
<ele>563.734375</ele>
<time>2012-07-25T13:30:57Z</time>
<speed>0.830000</speed>
<extensions>
<speed>0.8</speed>
<temp>0.00</temp>
<bpm>0</bpm>
<rpm>0.00</rpm>
</extensions>
</trkpt>
<trkpt lat="63.846138000" lon="-18.747613907">
<ele>565.375000</ele>
<time>2012-07-25T13:31:02Z</time>
<speed>0.240000</speed>
<extensions>
<speed>0.2</speed>
<temp>0.00</temp>
<bpm>0</bpm>
<rpm>0.00</rpm>
</extensions>
</trkpt>
<trkpt lat="63.846141815" lon="-18.747619629">
<ele>565.718750</ele>
<time>2012-07-25T13:31:07Z</time>
<extensions>
<speed>0.0</speed>
<temp>0.00</temp>
<bpm>0</bpm>
<rpm>0.00</rpm>
</extensions>
</trkpt>
<trkpt lat="63.846138000" lon="-18.747621536">
<ele>565.671875</ele>
<time>2012-07-25T13:31:12Z</time>
<speed>0.220000</speed>
<extensions>
<speed>0.2</speed>
<temp>0.00</temp>
<bpm>0</bpm>
<rpm>0.00</rpm>
</extensions>
</trkpt>
<trkpt lat="63.846118927" lon="-18.747682571">
<ele>566.640625</ele>
<time>2012-07-25T13:31:17Z</time>
<speed>0.860000</speed>
<extensions>
<speed>0.9</speed>
<temp>0.00</temp>
<bpm>0</bpm>
<rpm>0.00</rpm>
</extensions>
</trkpt>
<trkpt lat="63.846092224" lon="-18.747745514">
<ele>567.359375</ele>
<time>2012-07-25T13:31:22Z</time>
<speed>1.160000</speed>
<extensions>
<speed>1.2</speed>
<temp>0.00</temp>
<bpm>0</bpm>
<rpm>0.00</rpm>
</extensions>
</trkpt>
<trkpt lat="63.846057892" lon="-18.747840881">
<ele>567.375000</ele>
<time>2012-07-25T13:31:27Z</time>
<speed>1.180000</speed>
<extensions>
<speed>1.2</speed>
<temp>0.00</temp>
<bpm>0</bpm>
<rpm>0.00</rpm>
</extensions>
</trkpt>
<trkpt lat="63.846035004" lon="-18.747943878">
<ele>567.609375</ele>
<time>2012-07-25T13:31:32Z</time>
<speed>1.190000</speed>
<extensions>
<speed>1.2</speed>
<temp>0.00</temp>
<bpm>0</bpm>
<rpm>0.00</rpm>
</extensions>
</trkpt>
<trkpt lat="63.846012115" lon="-18.748052597">
<ele>568.390625</ele>
<time>2012-07-25T13:31:37Z</time>
<speed>1.110000</speed>
<extensions>
<speed>1.1</speed>
<temp>0.00</temp>
<bpm>0</bpm>
<rpm>0.00</rpm>
</extensions>
</trkpt>
<trkpt lat="63.845993042" lon="-18.748161316">
<ele>568.953125</ele>
<time>2012-07-25T13:31:42Z</time>
<speed>1.100000</speed>
<extensions>
<speed>1.1</speed>
<temp>0.00</temp>
<bpm>0</bpm>
<rpm>0.00</rpm>
</extensions>
</trkpt>
<trkpt lat="63.845981598" lon="-18.748250961">
<ele>569.125000</ele>
<time>2012-07-25T13:31:47Z</time>
<speed>0.870000</speed>
<extensions>
<speed>0.9</speed>
<temp>0.00</temp>
<bpm>0</bpm>
<rpm>0.00</rpm>
</extensions>
</trkpt>
<trkpt lat="63.845973969" lon="-18.748338699">
<ele>571.156250</ele>
<time>2012-07-25T13:31:52Z</time>
<speed>0.480000</speed>
<extensions>
<speed>0.5</speed>
<temp>0.00</temp>
<bpm>0</bpm>
<rpm>0.00</rpm>
</extensions>
</trkpt>
<trkpt lat="63.845977783" lon="-18.748369217">
<ele>571.546875</ele>
<time>2012-07-25T13:31:57Z</time>
<speed>0.070000</speed>
<extensions>
<speed>0.1</speed>
<temp>0.00</temp>
<bpm>0</bpm>
<rpm>0.00</rpm>
</extensions>
</trkpt>
<trkpt lat="63.845977783" lon="-18.748413086">
<ele>571.296875</ele>
<time>2012-07-25T13:32:02Z</time>
<speed>0.490000</speed>
<extensions>
<speed>0.5</speed>
<temp>0.00</temp>
<bpm>0</bpm>
<rpm>0.00</rpm>
</extensions>
</trkpt>
<trkpt lat="63.845981598" lon="-18.748479843">
<ele>572.218750</ele>
<time>2012-07-25T13:32:07Z</time>
<speed>0.490000</speed>
<extensions>
<speed>0.5</speed>
<temp>0.00</temp>
<bpm>0</bpm>
<rpm>0.00</rpm>
</extensions>
</trkpt>
<trkpt lat="63.845977783" lon="-18.748510361">
<ele>572.515625</ele>
<time>2012-07-25T13:32:12Z</time>
<speed>0.320000</speed>
<extensions>
<speed>0.3</speed>
<temp>0.00</temp>
<bpm>0</bpm>
<rpm>0.00</rpm>
</extensions>
</trkpt>
<trkpt lat="63.845966339" lon="-18.748504639">
<ele>572.375000</ele>
<time>2012-07-25T13:32:17Z</time>
<speed>0.010000</speed>
<extensions>
<speed>0.0</speed>
<temp>0.00</temp>
<bpm>0</bpm>
<rpm>0.00</rpm>
</extensions>
</trkpt>
<trkpt lat="63.845962524" lon="-18.748504639">
<ele>572.078125</ele>
<time>2012-07-25T13:32:22Z</time>
<speed>0.050000</speed>
<extensions>
<speed>0.1</speed>
<temp>0.00</temp>
<bpm>0</bpm>
<rpm>0.00</rpm>
</extensions>
</trkpt>
<trkpt lat="63.845966339" lon="-18.748512268">
<ele>572.062500</ele>
<time>2012-07-25T13:32:27Z</time>
<speed>0.200000</speed>
<extensions>
<speed>0.2</speed>
<temp>0.00</temp>
<bpm>0</bpm>
<rpm>0.00</rpm>
</extensions>
</trkpt>
<trkpt lat="63.845958710" lon="-18.748563766">
<ele>572.109375</ele>
<time>2012-07-25T13:32:32Z</time>
<speed>0.350000</speed>
<extensions>
<speed>0.3</speed>
<temp>0.00</temp>
<bpm>0</bpm>
<rpm>0.00</rpm>
</extensions>
</trkpt>
<trkpt lat="63.845962524" lon="-18.748613358">
<ele>572.406250</ele>
<time>2012-07-25T13:32:37Z</time>
<speed>0.290000</speed>
<extensions>
<speed>0.3</speed>
<temp>0.00</temp>
<bpm>0</bpm>
<rpm>0.00</rpm>
</extensions>
</trkpt>
<trkpt lat="63.845958710" lon="-18.748653412">
<ele>572.609375</ele>
<time>2012-07-25T13:32:42Z</time>
<speed>0.380000</speed>
<extensions>
<speed>0.4</speed>
<temp>0.00</temp>
<bpm>0</bpm>
<rpm>0.00</rpm>
</extensions>
</trkpt>
<trkpt lat="63.845954895" lon="-18.748695374">
<ele>572.875000</ele>
<time>2012-07-25T13:32:47Z</time>
<speed>0.340000</speed>
<extensions>
<speed>0.3</speed>
<temp>0.00</temp>
<bpm>0</bpm>
<rpm>0.00</rpm>
</extensions>
</trkpt>
<trkpt lat="63.845951080" lon="-18.748737335">
<ele>573.046875</ele>
<time>2012-07-25T13:32:52Z</time>
<speed>0.340000</speed>
<extensions>
<speed>0.3</speed>
<temp>0.00</temp>
<bpm>0</bpm>
<rpm>0.00</rpm>
</extensions>
</trkpt>
<trkpt lat="63.845935822" lon="-18.748828888">
<ele>576.843750</ele>
<time>2012-07-25T13:32:57Z</time>
<speed>0.480000</speed>
<extensions>
<speed>0.5</speed>
<temp>0.00</temp>
<bpm>0</bpm>
<rpm>0.00</rpm>
</extensions>
</trkpt>
<trkpt lat="63.845932007" lon="-18.748888016">
<ele>577.453125</ele>
<time>2012-07-25T13:33:02Z</time>
<speed>0.610000</speed>
<extensions>
<speed>0.6</speed>
<temp>0.00</temp>
<bpm>0</bpm>
<rpm>0.00</rpm>
</extensions>
</trkpt>
<trkpt lat="63.845924377" lon="-18.748933792">
<ele>578.562500</ele>
<time>2012-07-25T13:33:07Z</time>
<speed>0.120000</speed>
<extensions>
<speed>0.1</speed>
<temp>0.00</temp>
<bpm>0</bpm>
<rpm>0.00</rpm>
</extensions>
</trkpt>
<trkpt lat="63.845916748" lon="-18.748945236">
<ele>578.531250</ele>
<time>2012-07-25T13:33:12Z</time>
<extensions>
<speed>0.0</speed>
<temp>0.00</temp>
<bpm>0</bpm>
<rpm>0.00</rpm>
</extensions>
</trkpt>
<trkpt lat="63.845916748" lon="-18.748945236">
<ele>578.515625</ele>
<time>2012-07-25T13:33:17Z</time>
<speed>0.010000</speed>
<extensions>
<speed>0.0</speed>
<temp>0.00</temp>
<bpm>0</bpm>
<rpm>0.00</rpm>
</extensions>
</trkpt>
<trkpt lat="63.845916748" lon="-18.748949051">
<ele>578.578125</ele>
<time>2012-07-25T13:33:22Z</time>
<speed>0.180000</speed>
<extensions>
<speed>0.2</speed>
<temp>0.00</temp>
<bpm>0</bpm>
<rpm>0.00</rpm>
</extensions>
</trkpt>
<trkpt lat="63.845897675" lon="-18.749019623">
<ele>579.296875</ele>
<time>2012-07-25T13:33:27Z</time>
<speed>0.840000</speed>
<extensions>
<speed>0.8</speed>
<temp>0.00</temp>
<bpm>0</bpm>
<rpm>0.00</rpm>
</extensions>
</trkpt>
<trkpt lat="63.845882416" lon="-18.749101639">
<ele>579.562500</ele>
<time>2012-07-25T13:33:32Z</time>
<speed>0.810000</speed>
<extensions>
<speed>0.8</speed>
<temp>0.00</temp>
<bpm>0</bpm>
<rpm>0.00</rpm>
</extensions>
</trkpt>
<trkpt lat="63.845859528" lon="-18.749185562">
<ele>579.875000</ele>
<time>2012-07-25T13:33:37Z</time>
<speed>0.820000</speed>
<extensions>
<speed>0.8</speed>
<temp>0.00</temp>
<bpm>0</bpm>
<rpm>0.00</rpm>
</extensions>
</trkpt>
<trkpt lat="63.845836639" lon="-18.749256134">
<ele>579.906250</ele>
<time>2012-07-25T13:33:42Z</time>
<speed>0.700000</speed>
<extensions>
<speed>0.7</speed>
<temp>0.00</temp>
<bpm>0</bpm>
<rpm>0.00</rpm>
</extensions>
</trkpt>
<trkpt lat="63.845821381" lon="-18.749315262">
<ele>579.203125</ele>
<time>2012-07-25T13:33:47Z</time>
<speed>0.620000</speed>
<extensions>
<speed>0.6</speed>
<temp>0.00</temp>
<bpm>0</bpm>
<rpm>0.00</rpm>
</extensions>
</trkpt>
<trkpt lat="63.845806122" lon="-18.749380112">
<ele>579.859375</ele>
<time>2012-07-25T13:33:52Z</time>
<speed>0.560000</speed>
<extensions>
<speed>0.6</speed>
<temp>0.00</temp>
<bpm>0</bpm>
<rpm>0.00</rpm>
</extensions>
</trkpt>
<trkpt lat="63.845790863" lon="-18.749492645">
<ele>581.093750</ele>
<time>2012-07-25T13:33:57Z</time>
<speed>0.800000</speed>
<extensions>
<speed>0.8</speed>
<temp>0.00</temp>
<bpm>0</bpm>
<rpm>0.00</rpm>
</extensions>
</trkpt>
<trkpt lat="63.845787048" lon="-18.749593735">
<ele>581.687500</ele>
<time>2012-07-25T13:34:02Z</time>
<speed>0.880000</speed>
<extensions>
<speed>0.9</speed>
<temp>0.00</temp>
<bpm>0</bpm>
<rpm>0.00</rpm>
</extensions>
</trkpt>
<trkpt lat="63.845783234" lon="-18.749666214">
<ele>581.578125</ele>
<time>2012-07-25T13:34:07Z</time>
<speed>0.890000</speed>
<extensions>
<speed>0.9</speed>
<temp>0.00</temp>
<bpm>0</bpm>
<rpm>0.00</rpm>
</extensions>
</trkpt>
<trkpt lat="63.845779419" lon="-18.749782562">
<ele>582.500000</ele>
<time>2012-07-25T13:34:12Z</time>
<speed>0.800000</speed>
<extensions>
<speed>0.8</speed>
<temp>0.00</temp>
<bpm>0</bpm>
<rpm>0.00</rpm>
</extensions>
</trkpt>
<trkpt lat="63.845775604" lon="-18.749803543">
<ele>582.171875</ele>
<time>2012-07-25T13:34:17Z</time>
<speed>0.050000</speed>
<extensions>
<speed>0.1</speed>
<temp>0.00</temp>
<bpm>0</bpm>
<rpm>0.00</rpm>
</extensions>
</trkpt>
<trkpt lat="63.845779419" lon="-18.749803543">
<ele>582.453125</ele>
<time>2012-07-25T13:34:22Z</time>
<speed>0.050000</speed>
<extensions>
<speed>0.1</speed>
<temp>0.00</temp>
<bpm>0</bpm>
<rpm>0.00</rpm>
</extensions>
</trkpt>
<trkpt lat="63.845779419" lon="-18.749803543">
<ele>582.406250</ele>
<time>2012-07-25T13:34:27Z</time>
<speed>0.060000</speed>
<extensions>
<speed>0.1</speed>
<temp>0.00</temp>
<bpm>0</bpm>
<rpm>0.00</rpm>
</extensions>
</trkpt>
<trkpt lat="63.845775604" lon="-18.749795914">
<ele>582.296875</ele>
<time>2012-07-25T13:34:32Z</time>
<speed>0.040000</speed>
<extensions>
<speed>0.0</speed>
<temp>0.00</temp>
<bpm>0</bpm>
<rpm>0.00</rpm>
</extensions>
</trkpt>
<trkpt lat="63.845775604" lon="-18.749794006">
<ele>582.000000</ele>
<time>2012-07-25T13:34:37Z</time>
<speed>0.240000</speed>
<extensions>
<speed>0.2</speed>
<temp>0.00</temp>
<bpm>0</bpm>
<rpm>0.00</rpm>
</extensions>
</trkpt>
<trkpt lat="63.845775604" lon="-18.749790192">
<ele>581.875000</ele>
<time>2012-07-25T13:34:42Z</time>
<speed>0.010000</speed>
<extensions>
<speed>0.0</speed>
<temp>0.00</temp>
<bpm>0</bpm>
<rpm>0.00</rpm>
</extensions>
</trkpt>
<trkpt lat="63.845775604" lon="-18.749790192">
<ele>581.843750</ele>
<time>2012-07-25T13:34:47Z</time>
<speed>0.030000</speed>
<extensions>
<speed>0.0</speed>
<temp>0.00</temp>
<bpm>0</bpm>
<rpm>0.00</rpm>
</extensions>
</trkpt>
<trkpt lat="63.845775604" lon="-18.749792099">
<ele>581.828125</ele>
<time>2012-07-25T13:34:52Z</time>
<extensions>
<speed>0.0</speed>
<temp>0.00</temp>
<bpm>0</bpm>
<rpm>0.00</rpm>
</extensions>
</trkpt>
<trkpt lat="63.845775604" lon="-18.749792099">
<ele>581.796875</ele>
<time>2012-07-25T13:34:57Z</time>
<extensions>
<speed>0.0</speed>
<temp>0.00</temp>
<bpm>0</bpm>
<rpm>0.00</rpm>
</extensions>
</trkpt>
<trkpt lat="63.845779419" lon="-18.749792099">
<ele>581.765625</ele>
<time>2012-07-25T13:35:02Z</time>
<extensions>
<speed>0.0</speed>
<temp>0.00</temp>
<bpm>0</bpm>
<rpm>0.00</rpm>
</extensions>
</trkpt>
<trkpt lat="63.845779419" lon="-18.749790192">
<ele>581.750000</ele>
<time>2012-07-25T13:35:07Z</time>
<extensions>
<speed>0.0</speed>
<temp>0.00</temp>
<bpm>0</bpm>
<rpm>0.00</rpm>
</extensions>
</trkpt>
<trkpt lat="63.845779419" lon="-18.749790192">
<ele>581.718750</ele>
<time>2012-07-25T13:35:12Z</time>
<extensions>
<speed>0.0</speed>
<temp>0.00</temp>
<bpm>0</bpm>
<rpm>0.00</rpm>
</extensions>
</trkpt>
<trkpt lat="63.845779419" lon="-18.749790192">
<ele>581.703125</ele>
<time>2012-07-25T13:35:17Z</time>
<speed>0.010000</speed>
<extensions>
<speed>0.0</speed>
<temp>0.00</temp>
<bpm>0</bpm>
<rpm>0.00</rpm>
</extensions>
</trkpt>
<trkpt lat="63.845779419" lon="-18.749792099">
<ele>581.687500</ele>
<time>2012-07-25T13:35:22Z</time>
<speed>0.090000</speed>
<extensions>
<speed>0.1</speed>
<temp>0.00</temp>
<bpm>0</bpm>
<rpm>0.00</rpm>
</extensions>
</trkpt>
<trkpt lat="63.845787048" lon="-18.749809265">
<ele>581.843750</ele>
<time>2012-07-25T13:35:27Z</time>
<speed>0.010000</speed>
<extensions>
<speed>0.0</speed>
<temp>0.00</temp>
<bpm>0</bpm>
<rpm>0.00</rpm>
</extensions>
</trkpt>
<trkpt lat="63.845787048" lon="-18.749809265">
<ele>581.984375</ele>
<time>2012-07-25T13:35:32Z</time>
<speed>0.010000</speed>
<extensions>
<speed>0.0</speed>
<temp>0.00</temp>
<bpm>0</bpm>
<rpm>0.00</rpm>
</extensions>
</trkpt>
<trkpt lat="63.845787048" lon="-18.749809265">
<ele>581.984375</ele>
<time>2012-07-25T13:35:37Z</time>
<speed>0.010000</speed>
<extensions>
<speed>0.0</speed>
<temp>0.00</temp>
<bpm>0</bpm>
<rpm>0.00</rpm>
</extensions>
</trkpt>
<trkpt lat="63.845787048" lon="-18.749809265">
<ele>581.968750</ele>
<time>2012-07-25T13:35:42Z</time>
<extensions>
<speed>0.0</speed>
<temp>0.00</temp>
<bpm>0</bpm>
<rpm>0.00</rpm>
</extensions>
</trkpt>
<trkpt lat="63.845787048" lon="-18.749809265">
<ele>581.984375</ele>
<time>2012-07-25T13:35:47Z</time>
<extensions>
<speed>0.0</speed>
<temp>0.00</temp>
<bpm>0</bpm>
<rpm>0.00</rpm>
</extensions>
</trkpt>
<trkpt lat="63.845787048" lon="-18.749809265">
<ele>581.984375</ele>
<time>2012-07-25T13:35:52Z</time>
<extensions>
<speed>0.0</speed>
<temp>0.00</temp>
<bpm>0</bpm>
<rpm>0.00</rpm>
</extensions>
</trkpt>
<trkpt lat="63.845790863" lon="-18.749809265">
<ele>582.000000</ele>
<time>2012-07-25T13:35:57Z</time>
<extensions>
<speed>0.0</speed>
<temp>0.00</temp>
<bpm>0</bpm>
<rpm>0.00</rpm>
</extensions>
</trkpt>
<trkpt lat="63.845787048" lon="-18.749809265">
<ele>581.890625</ele>
<time>2012-07-25T13:36:02Z</time>
<extensions>
<speed>0.0</speed>
<temp>0.00</temp>
<bpm>0</bpm>
<rpm>0.00</rpm>
</extensions>
</trkpt>
<trkpt lat="63.845787048" lon="-18.749809265">
<ele>581.890625</ele>
<time>2012-07-25T13:36:07Z</time>
<extensions>
<speed>0.0</speed>
<temp>0.00</temp>
<bpm>0</bpm>
<rpm>0.00</rpm>
</extensions>
</trkpt>
<trkpt lat="63.845787048" lon="-18.749807358">
<ele>581.859375</ele>
<time>2012-07-25T13:36:12Z</time>
<speed>0.010000</speed>
<extensions>
<speed>0.0</speed>
<temp>0.00</temp>
<bpm>0</bpm>
<rpm>0.00</rpm>
</extensions>
</trkpt>
<trkpt lat="63.845787048" lon="-18.749807358">
<ele>581.859375</ele>
<time>2012-07-25T13:36:17Z</time>
<speed>0.020000</speed>
<extensions>
<speed>0.0</speed>
<temp>0.00</temp>
<bpm>0</bpm>
<rpm>0.00</rpm>
</extensions>
</trkpt>
<trkpt lat="63.845787048" lon="-18.749807358">
<ele>581.875000</ele>
<time>2012-07-25T13:36:22Z</time>
<speed>0.030000</speed>
<extensions>
<speed>0.0</speed>
<temp>0.00</temp>
<bpm>0</bpm>
<rpm>0.00</rpm>
</extensions>
</trkpt>
<trkpt lat="63.845787048" lon="-18.749807358">
<ele>581.859375</ele>
<time>2012-07-25T13:36:27Z</time>
<speed>0.010000</speed>
<extensions>
<speed>0.0</speed>
<temp>0.00</temp>
<bpm>0</bpm>
<rpm>0.00</rpm>
</extensions>
</trkpt>
<trkpt lat="63.845787048" lon="-18.749807358">
<ele>581.859375</ele>
<time>2012-07-25T13:36:32Z</time>
<speed>0.020000</speed>
<extensions>
<speed>0.0</speed>
<temp>0.00</temp>
<bpm>0</bpm>
<rpm>0.00</rpm>
</extensions>
</trkpt>
<trkpt lat="63.845787048" lon="-18.749807358">
<ele>581.859375</ele>
<time>2012-07-25T13:36:37Z</time>
<speed>0.020000</speed>
<extensions>
<speed>0.0</speed>
<temp>0.00</temp>
<bpm>0</bpm>
<rpm>0.00</rpm>
</extensions>
</trkpt>
<trkpt lat="63.845790863" lon="-18.749814987">
<ele>581.765625</ele>
<time>2012-07-25T13:36:42Z</time>
<speed>0.520000</speed>
<extensions>
<speed>0.5</speed>
<temp>0.00</temp>
<bpm>0</bpm>
<rpm>0.00</rpm>
</extensions>
</trkpt>
<trkpt lat="63.845783234" lon="-18.749956131">
<ele>581.203125</ele>
<time>2012-07-25T13:36:47Z</time>
<speed>1.990000</speed>
<extensions>
<speed>2.0</speed>
<temp>0.00</temp>
<bpm>0</bpm>
<rpm>0.00</rpm>
</extensions>
</trkpt>
<trkpt lat="63.845767975" lon="-18.750251770">
<ele>581.296875</ele>
<time>2012-07-25T13:36:52Z</time>
<speed>3.270000</speed>
<extensions>
<speed>3.3</speed>
<temp>0.00</temp>
<bpm>0</bpm>
<rpm>0.00</rpm>
</extensions>
</trkpt>
<trkpt lat="63.845710754" lon="-18.750509262">
<ele>580.953125</ele>
<time>2012-07-25T13:36:57Z</time>
<speed>2.600000</speed>
<extensions>
<speed>2.6</speed>
<temp>0.00</temp>
<bpm>0</bpm>
<rpm>0.00</rpm>
</extensions>
</trkpt>
<trkpt lat="63.845649719" lon="-18.750715256">
<ele>580.593750</ele>
<time>2012-07-25T13:37:02Z</time>
<speed>2.130000</speed>
<extensions>
<speed>2.1</speed>
<temp>0.00</temp>
<bpm>0</bpm>
<rpm>0.00</rpm>
</extensions>
</trkpt>
<trkpt lat="63.845581055" lon="-18.750911713">
<ele>580.562500</ele>
<time>2012-07-25T13:37:07Z</time>
<speed>2.290000</speed>
<extensions>
<speed>2.3</speed>
<temp>0.00</temp>
<bpm>0</bpm>
<rpm>0.00</rpm>
</extensions>
</trkpt>
<trkpt lat="63.845508575" lon="-18.751106262">
<ele>580.937500</ele>
<time>2012-07-25T13:37:12Z</time>
<speed>2.040000</speed>
<extensions>
<speed>2.0</speed>
<temp>0.00</temp>
<bpm>0</bpm>
<rpm>0.00</rpm>
</extensions>
</trkpt>
<trkpt lat="63.845436096" lon="-18.751241684">
<ele>581.421875</ele>
<time>2012-07-25T13:37:17Z</time>
<speed>2.080000</speed>
<extensions>
<speed>2.1</speed>
<temp>0.00</temp>
<bpm>0</bpm>
<rpm>0.00</rpm>
</extensions>
</trkpt>
<trkpt lat="63.845359802" lon="-18.751346588">
<ele>581.765625</ele>
<time>2012-07-25T13:37:22Z</time>
<speed>1.960000</speed>
<extensions>
<speed>2.0</speed>
<temp>0.00</temp>
<bpm>0</bpm>
<rpm>0.00</rpm>
</extensions>
</trkpt>
<trkpt lat="63.845279694" lon="-18.751426697">
<ele>582.812500</ele>
<time>2012-07-25T13:37:27Z</time>
<speed>2.120000</speed>
<extensions>
<speed>2.1</speed>
<temp>0.00</temp>
<bpm>0</bpm>
<rpm>0.00</rpm>
</extensions>
</trkpt>
<trkpt lat="63.845199585" lon="-18.751485825">
<ele>583.218750</ele>
<time>2012-07-25T13:37:32Z</time>
<speed>2.020000</speed>
<extensions>
<speed>2.0</speed>
<temp>0.00</temp>
<bpm>0</bpm>
<rpm>0.00</rpm>
</extensions>
</trkpt>
<trkpt lat="63.845100403" lon="-18.751554489">
<ele>584.640625</ele>
<time>2012-07-25T13:37:37Z</time>
<speed>1.920000</speed>
<extensions>
<speed>1.9</speed>
<temp>0.00</temp>
<bpm>0</bpm>
<rpm>0.00</rpm>
</extensions>
</trkpt>
<trkpt lat="63.845020294" lon="-18.751571655">
<ele>585.109375</ele>
<time>2012-07-25T13:37:42Z</time>
<speed>1.990000</speed>
<extensions>
<speed>2.0</speed>
<temp>0.00</temp>
<bpm>0</bpm>
<rpm>0.00</rpm>
</extensions>
</trkpt>
<trkpt lat="63.844940186" lon="-18.751569748">
<ele>585.500000</ele>
<time>2012-07-25T13:37:47Z</time>
<speed>0.840000</speed>
<extensions>
<speed>0.8</speed>
<temp>0.00</temp>
<bpm>0</bpm>
<rpm>0.00</rpm>
</extensions>
</trkpt>
<trkpt lat="63.844905853" lon="-18.751556396">
<ele>586.046875</ele>
<time>2012-07-25T13:37:52Z</time>
<speed>0.820000</speed>
<extensions>
<speed>0.8</speed>
<temp>0.00</temp>
<bpm>0</bpm>
<rpm>0.00</rpm>
</extensions>
</trkpt>
<trkpt lat="63.844844818" lon="-18.751562119">
<ele>585.437500</ele>
<time>2012-07-25T13:37:57Z</time>
<speed>1.730000</speed>
<extensions>
<speed>1.7</speed>
<temp>0.00</temp>
<bpm>0</bpm>
<rpm>0.00</rpm>
</extensions>
</trkpt>
<trkpt lat="63.844760895" lon="-18.751567841">
<ele>585.218750</ele>
<time>2012-07-25T13:38:02Z</time>
<speed>1.700000</speed>
<extensions>
<speed>1.7</speed>
<temp>0.00</temp>
<bpm>0</bpm>
<rpm>0.00</rpm>
</extensions>
</trkpt>
<trkpt lat="63.844680786" lon="-18.751579285">
<ele>585.671875</ele>
<time>2012-07-25T13:38:07Z</time>
<speed>2.000000</speed>
<extensions>
<speed>2.0</speed>
<temp>0.00</temp>
<bpm>0</bpm>
<rpm>0.00</rpm>
</extensions>
</trkpt>
<trkpt lat="63.844612122" lon="-18.751602173">
<ele>587.109375</ele>
<time>2012-07-25T13:38:12Z</time>
<speed>1.920000</speed>
<extensions>
<speed>1.9</speed>
<temp>0.00</temp>
<bpm>0</bpm>
<rpm>0.00</rpm>
</extensions>
</trkpt>
<trkpt lat="63.844539642" lon="-18.751632690">
<ele>588.156250</ele>
<time>2012-07-25T13:38:17Z</time>
<speed>1.790000</speed>
<extensions>
<speed>1.8</speed>
<temp>0.00</temp>
<bpm>0</bpm>
<rpm>0.00</rpm>
</extensions>
</trkpt>
<trkpt lat="63.844459534" lon="-18.751693726">
<ele>589.281250</ele>
<time>2012-07-25T13:38:22Z</time>
<speed>2.040000</speed>
<extensions>
<speed>2.0</speed>
<temp>0.00</temp>
<bpm>0</bpm>
<rpm>0.00</rpm>
</extensions>
</trkpt>
<trkpt lat="63.844390869" lon="-18.751749039">
<ele>590.406250</ele>
<time>2012-07-25T13:38:27Z</time>
<speed>1.550000</speed>
<extensions>
<speed>1.5</speed>
<temp>0.00</temp>
<bpm>0</bpm>
<rpm>0.00</rpm>
</extensions>
</trkpt>
<trkpt lat="63.844314575" lon="-18.751794815">
<ele>591.234375</ele>
<time>2012-07-25T13:38:32Z</time>
<speed>2.070000</speed>
<extensions>
<speed>2.1</speed>
<temp>0.00</temp>
<bpm>0</bpm>
<rpm>0.00</rpm>
</extensions>
</trkpt>
<trkpt lat="63.844249725" lon="-18.751840591">
<ele>591.734375</ele>
<time>2012-07-25T13:38:37Z</time>
<speed>1.470000</speed>
<extensions>
<speed>1.5</speed>
<temp>0.00</temp>
<bpm>0</bpm>
<rpm>0.00</rpm>
</extensions>
</trkpt>
<trkpt lat="63.844181061" lon="-18.751926422">
<ele>592.343750</ele>
<time>2012-07-25T13:38:42Z</time>
<speed>1.590000</speed>
<extensions>
<speed>1.6</speed>
<temp>0.00</temp>
<bpm>0</bpm>
<rpm>0.00</rpm>
</extensions>
</trkpt>
<trkpt lat="63.844100952" lon="-18.751987457">
<ele>592.656250</ele>
<time>2012-07-25T13:38:47Z</time>
<speed>2.190000</speed>
<extensions>
<speed>2.2</speed>
<temp>0.00</temp>
<bpm>0</bpm>
<rpm>0.00</rpm>
</extensions>
</trkpt>
<trkpt lat="63.844028473" lon="-18.752021790">
<ele>592.828125</ele>
<time>2012-07-25T13:38:52Z</time>
<speed>1.590000</speed>
<extensions>
<speed>1.6</speed>
<temp>0.00</temp>
<bpm>0</bpm>
<rpm>0.00</rpm>
</extensions>
</trkpt>
<trkpt lat="63.843952179" lon="-18.752035141">
<ele>593.578125</ele>
<time>2012-07-25T13:38:57Z</time>
<speed>1.850000</speed>
<extensions>
<speed>1.8</speed>
<temp>0.00</temp>
<bpm>0</bpm>
<rpm>0.00</rpm>
</extensions>
</trkpt>
<trkpt lat="63.843887329" lon="-18.752046585">
<ele>594.265625</ele>
<time>2012-07-25T13:39:02Z</time>
<speed>1.440000</speed>
<extensions>
<speed>1.4</speed>
<temp>0.00</temp>
<bpm>0</bpm>
<rpm>0.00</rpm>
</extensions>
</trkpt>
<trkpt lat="63.843814850" lon="-18.752058029">
<ele>595.687500</ele>
<time>2012-07-25T13:39:07Z</time>
<speed>1.460000</speed>
<extensions>
<speed>1.5</speed>
<temp>0.00</temp>
<bpm>0</bpm>
<rpm>0.00</rpm>
</extensions>
</trkpt>
<trkpt lat="63.843734741" lon="-18.752054214">
<ele>595.843750</ele>
<time>2012-07-25T13:39:12Z</time>
<speed>1.870000</speed>
<extensions>
<speed>1.9</speed>
<temp>0.00</temp>
<bpm>0</bpm>
<rpm>0.00</rpm>
</extensions>
</trkpt>
<trkpt lat="63.843666077" lon="-18.752048492">
<ele>597.062500</ele>
<time>2012-07-25T13:39:17Z</time>
<speed>1.980000</speed>
<extensions>
<speed>2.0</speed>
<temp>0.00</temp>
<bpm>0</bpm>
<rpm>0.00</rpm>
</extensions>
</trkpt>
<trkpt lat="63.843578339" lon="-18.752069473">
<ele>597.671875</ele>
<time>2012-07-25T13:39:22Z</time>
<speed>1.950000</speed>
<extensions>
<speed>1.9</speed>
<temp>0.00</temp>
<bpm>0</bpm>
<rpm>0.00</rpm>
</extensions>
</trkpt>
<trkpt lat="63.843475342" lon="-18.752092361">
<ele>597.921875</ele>
<time>2012-07-25T13:39:27Z</time>
<speed>2.120000</speed>
<extensions>
<speed>2.1</speed>
<temp>0.00</temp>
<bpm>0</bpm>
<rpm>0.00</rpm>
</extensions>
</trkpt>
<trkpt lat="63.843383789" lon="-18.752120972">
<ele>598.718750</ele>
<time>2012-07-25T13:39:32Z</time>
<speed>1.870000</speed>
<extensions>
<speed>1.9</speed>
<temp>0.00</temp>
<bpm>0</bpm>
<rpm>0.00</rpm>
</extensions>
</trkpt>
<trkpt lat="63.843322754" lon="-18.752143860">
<ele>598.984375</ele>
<time>2012-07-25T13:39:37Z</time>
<speed>0.140000</speed>
<extensions>
<speed>0.1</speed>
<temp>0.00</temp>
<bpm>0</bpm>
<rpm>0.00</rpm>
</extensions>
</trkpt>
<trkpt lat="63.843315125" lon="-18.752153397">
<ele>599.906250</ele>
<time>2012-07-25T13:39:42Z</time>
<speed>0.010000</speed>
<extensions>
<speed>0.0</speed>
<temp>0.00</temp>
<bpm>0</bpm>
<rpm>0.00</rpm>
</extensions>
</trkpt>
<trkpt lat="63.843315125" lon="-18.752151489">
<ele>599.875000</ele>
<time>2012-07-25T13:39:47Z</time>
<speed>0.020000</speed>
<extensions>
<speed>0.0</speed>
<temp>0.00</temp>
<bpm>0</bpm>
<rpm>0.00</rpm>
</extensions>
</trkpt>
<trkpt lat="63.843315125" lon="-18.752151489">
<ele>599.859375</ele>
<time>2012-07-25T13:39:52Z</time>
<extensions>
<speed>0.0</speed>
<temp>0.00</temp>
<bpm>0</bpm>
<rpm>0.00</rpm>
</extensions>
</trkpt>
<trkpt lat="63.843315125" lon="-18.752151489">
<ele>599.859375</ele>
<time>2012-07-25T13:39:57Z</time>
<speed>0.010000</speed>
<extensions>
<speed>0.0</speed>
<temp>0.00</temp>
<bpm>0</bpm>
<rpm>0.00</rpm>
</extensions>
</trkpt>
<trkpt lat="63.843315125" lon="-18.752151489">
<ele>599.906250</ele>
<time>2012-07-25T13:40:02Z</time>
<speed>0.030000</speed>
<extensions>
<speed>0.0</speed>
<temp>0.00</temp>
<bpm>0</bpm>
<rpm>0.00</rpm>
</extensions>
</trkpt>
<trkpt lat="63.843315125" lon="-18.752151489">
<ele>599.937500</ele>
<time>2012-07-25T13:40:07Z</time>
<speed>0.010000</speed>
<extensions>
<speed>0.0</speed>
<temp>0.00</temp>
<bpm>0</bpm>
<rpm>0.00</rpm>
</extensions>
</trkpt>
<trkpt lat="63.843315125" lon="-18.752151489">
<ele>599.937500</ele>
<time>2012-07-25T13:40:12Z</time>
<extensions>
<speed>0.0</speed>
<temp>0.00</temp>
<bpm>0</bpm>
<rpm>0.00</rpm>
</extensions>
</trkpt>
<trkpt lat="63.843315125" lon="-18.752151489">
<ele>599.937500</ele>
<time>2012-07-25T13:40:17Z</time>
<speed>0.010000</speed>
<extensions>
<speed>0.0</speed>
<temp>0.00</temp>
<bpm>0</bpm>
<rpm>0.00</rpm>
</extensions>
</trkpt>
<trkpt lat="63.843315125" lon="-18.752151489">
<ele>599.937500</ele>
<time>2012-07-25T13:40:22Z</time>
<extensions>
<speed>0.0</speed>
<temp>0.00</temp>
<bpm>0</bpm>
<rpm>0.00</rpm>
</extensions>
</trkpt>
<trkpt lat="63.843315125" lon="-18.752151489">
<ele>599.937500</ele>
<time>2012-07-25T13:40:27Z</time>
<extensions>
<speed>0.0</speed>
<temp>0.00</temp>
<bpm>0</bpm>
<rpm>0.00</rpm>
</extensions>
</trkpt>
<trkpt lat="63.843315125" lon="-18.752145767">
<ele>599.875000</ele>
<time>2012-07-25T13:40:32Z</time>
<speed>0.060000</speed>
<extensions>
<speed>0.1</speed>
<temp>0.00</temp>
<bpm>0</bpm>
<rpm>0.00</rpm>
</extensions>
</trkpt>
<trkpt lat="63.843315125" lon="-18.752145767">
<ele>599.875000</ele>
<time>2012-07-25T13:40:37Z</time>
<speed>0.050000</speed>
<extensions>
<speed>0.1</speed>
<temp>0.00</temp>
<bpm>0</bpm>
<rpm>0.00</rpm>
</extensions>
</trkpt>
<trkpt lat="63.843315125" lon="-18.752147675">
<ele>599.921875</ele>
<time>2012-07-25T13:40:42Z</time>
<speed>0.050000</speed>
<extensions>
<speed>0.1</speed>
<temp>0.00</temp>
<bpm>0</bpm>
<rpm>0.00</rpm>
</extensions>
</trkpt>
<trkpt lat="63.843315125" lon="-18.752145767">
<ele>599.890625</ele>
<time>2012-07-25T13:40:47Z</time>
<extensions>
<speed>0.0</speed>
<temp>0.00</temp>
<bpm>0</bpm>
<rpm>0.00</rpm>
</extensions>
</trkpt>
<trkpt lat="63.843315125" lon="-18.752145767">
<ele>599.906250</ele>
<time>2012-07-25T13:40:52Z</time>
<speed>0.010000</speed>
<extensions>
<speed>0.0</speed>
<temp>0.00</temp>
<bpm>0</bpm>
<rpm>0.00</rpm>
</extensions>
</trkpt>
<trkpt lat="63.843315125" lon="-18.752145767">
<ele>599.890625</ele>
<time>2012-07-25T13:40:57Z</time>
<speed>0.440000</speed>
<extensions>
<speed>0.4</speed>
<temp>0.00</temp>
<bpm>0</bpm>
<rpm>0.00</rpm>
</extensions>
</trkpt>
<trkpt lat="63.843315125" lon="-18.752140045">
<ele>599.640625</ele>
<time>2012-07-25T13:41:02Z</time>
<speed>0.010000</speed>
<extensions>
<speed>0.0</speed>
<temp>0.00</temp>
<bpm>0</bpm>
<rpm>0.00</rpm>
</extensions>
</trkpt>
<trkpt lat="63.843315125" lon="-18.752138138">
<ele>599.562500</ele>
<time>2012-07-25T13:41:07Z</time>
<extensions>
<speed>0.0</speed>
<temp>0.00</temp>
<bpm>0</bpm>
<rpm>0.00</rpm>
</extensions>
</trkpt>
<trkpt lat="63.843315125" lon="-18.752138138">
<ele>599.593750</ele>
<time>2012-07-25T13:41:12Z</time>
<speed>0.010000</speed>
<extensions>
<speed>0.0</speed>
<temp>0.00</temp>
<bpm>0</bpm>
<rpm>0.00</rpm>
</extensions>
</trkpt>
<trkpt lat="63.843315125" lon="-18.752138138">
<ele>599.593750</ele>
<time>2012-07-25T13:41:17Z</time>
<extensions>
<speed>0.0</speed>
<temp>0.00</temp>
<bpm>0</bpm>
<rpm>0.00</rpm>
</extensions>
</trkpt>
<trkpt lat="63.843315125" lon="-18.752138138">
<ele>599.578125</ele>
<time>2012-07-25T13:41:22Z</time>
<extensions>
<speed>0.0</speed>
<temp>0.00</temp>
<bpm>0</bpm>
<rpm>0.00</rpm>
</extensions>
</trkpt>
<trkpt lat="63.843315125" lon="-18.752138138">
<ele>599.578125</ele>
<time>2012-07-25T13:41:27Z</time>
<extensions>
<speed>0.0</speed>
<temp>0.00</temp>
<bpm>0</bpm>
<rpm>0.00</rpm>
</extensions>
</trkpt>
<trkpt lat="63.843315125" lon="-18.752138138">
<ele>599.578125</ele>
<time>2012-07-25T13:41:32Z</time>
<speed>0.010000</speed>
<extensions>
<speed>0.0</speed>
<temp>0.00</temp>
<bpm>0</bpm>
<rpm>0.00</rpm>
</extensions>
</trkpt>
<trkpt lat="63.843315125" lon="-18.752138138">
<ele>599.578125</ele>
<time>2012-07-25T13:41:37Z</time>
<extensions>
<speed>0.0</speed>
<temp>0.00</temp>
<bpm>0</bpm>
<rpm>0.00</rpm>
</extensions>
</trkpt>
<trkpt lat="63.843315125" lon="-18.752138138">
<ele>599.562500</ele>
<time>2012-07-25T13:41:42Z</time>
<extensions>
<speed>0.0</speed>
<temp>0.00</temp>
<bpm>0</bpm>
<rpm>0.00</rpm>
</extensions>
</trkpt>
<trkpt lat="63.843315125" lon="-18.752140045">
<ele>599.546875</ele>
<time>2012-07-25T13:41:47Z</time>
<extensions>
<speed>0.0</speed>
<temp>0.00</temp>
<bpm>0</bpm>
<rpm>0.00</rpm>
</extensions>
</trkpt>
<trkpt lat="63.843315125" lon="-18.752140045">
<ele>599.546875</ele>
<time>2012-07-25T13:41:52Z</time>
<extensions>
<speed>0.0</speed>
<temp>0.00</temp>
<bpm>0</bpm>
<rpm>0.00</rpm>
</extensions>
</trkpt>
<trkpt lat="63.843303680" lon="-18.752153397">
<ele>599.406250</ele>
<time>2012-07-25T13:41:57Z</time>
<speed>1.280000</speed>
<extensions>
<speed>1.3</speed>
<temp>0.00</temp>
<bpm>0</bpm>
<rpm>0.00</rpm>
</extensions>
</trkpt>
<trkpt lat="63.843242645" lon="-18.752199173">
<ele>598.421875</ele>
<time>2012-07-25T13:42:02Z</time>
<speed>0.310000</speed>
<extensions>
<speed>0.3</speed>
<temp>0.00</temp>
<bpm>0</bpm>
<rpm>0.00</rpm>
</extensions>
</trkpt>
<trkpt lat="63.843242645" lon="-18.752216339">
<ele>599.359375</ele>
<time>2012-07-25T13:42:07Z</time>
<speed>0.070000</speed>
<extensions>
<speed>0.1</speed>
<temp>0.00</temp>
<bpm>0</bpm>
<rpm>0.00</rpm>
</extensions>
</trkpt>
<trkpt lat="63.843242645" lon="-18.752214432">
<ele>599.328125</ele>
<time>2012-07-25T13:42:12Z</time>
<speed>0.010000</speed>
<extensions>
<speed>0.0</speed>
<temp>0.00</temp>
<bpm>0</bpm>
<rpm>0.00</rpm>
</extensions>
</trkpt>
<trkpt lat="63.843242645" lon="-18.752212524">
<ele>599.250000</ele>
<time>2012-07-25T13:42:17Z</time>
<speed>0.010000</speed>
<extensions>
<speed>0.0</speed>
<temp>0.00</temp>
<bpm>0</bpm>
<rpm>0.00</rpm>
</extensions>
</trkpt>
<trkpt lat="63.843242645" lon="-18.752214432">
<ele>599.250000</ele>
<time>2012-07-25T13:42:22Z</time>
<speed>0.010000</speed>
<extensions>
<speed>0.0</speed>
<temp>0.00</temp>
<bpm>0</bpm>
<rpm>0.00</rpm>
</extensions>
</trkpt>
<trkpt lat="63.843242645" lon="-18.752214432">
<ele>599.265625</ele>
<time>2012-07-25T13:42:27Z</time>
<extensions>
<speed>0.0</speed>
<temp>0.00</temp>
<bpm>0</bpm>
<rpm>0.00</rpm>
</extensions>
</trkpt>
<trkpt lat="63.843242645" lon="-18.752214432">
<ele>599.265625</ele>
<time>2012-07-25T13:42:32Z</time>
<speed>0.010000</speed>
<extensions>
<speed>0.0</speed>
<temp>0.00</temp>
<bpm>0</bpm>
<rpm>0.00</rpm>
</extensions>
</trkpt>
<trkpt lat="63.843242645" lon="-18.752214432">
<ele>599.281250</ele>
<time>2012-07-25T13:42:37Z</time>
<speed>0.010000</speed>
<extensions>
<speed>0.0</speed>
<temp>0.00</temp>
<bpm>0</bpm>
<rpm>0.00</rpm>
</extensions>
</trkpt>
<trkpt lat="63.843242645" lon="-18.752214432">
<ele>599.281250</ele>
<time>2012-07-25T13:42:42Z</time>
<speed>0.010000</speed>
<extensions>
<speed>0.0</speed>
<temp>0.00</temp>
<bpm>0</bpm>
<rpm>0.00</rpm>
</extensions>
</trkpt>
<trkpt lat="63.843242645" lon="-18.752214432">
<ele>599.296875</ele>
<time>2012-07-25T13:42:47Z</time>
<speed>0.010000</speed>
<extensions>
<speed>0.0</speed>
<temp>0.00</temp>
<bpm>0</bpm>
<rpm>0.00</rpm>
</extensions>
</trkpt>
<trkpt lat="63.843242645" lon="-18.752214432">
<ele>599.296875</ele>
<time>2012-07-25T13:42:52Z</time>
<speed>0.020000</speed>
<extensions>
<speed>0.0</speed>
<temp>0.00</temp>
<bpm>0</bpm>
<rpm>0.00</rpm>
</extensions>
</trkpt>
<trkpt lat="63.843242645" lon="-18.752214432">
<ele>599.296875</ele>
<time>2012-07-25T13:42:57Z</time>
<extensions>
<speed>0.0</speed>
<temp>0.00</temp>
<bpm>0</bpm>
<rpm>0.00</rpm>
</extensions>
</trkpt>
<trkpt lat="63.843242645" lon="-18.752214432">
<ele>599.296875</ele>
<time>2012-07-25T13:43:02Z</time>
<speed>0.010000</speed>
<extensions>
<speed>0.0</speed>
<temp>0.00</temp>
<bpm>0</bpm>
<rpm>0.00</rpm>
</extensions>
</trkpt>
<trkpt lat="63.843242645" lon="-18.752214432">
<ele>599.296875</ele>
<time>2012-07-25T13:43:07Z</time>
<extensions>
<speed>0.0</speed>
<temp>0.00</temp>
<bpm>0</bpm>
<rpm>0.00</rpm>
</extensions>
</trkpt>
<trkpt lat="63.843242645" lon="-18.752214432">
<ele>599.296875</ele>
<time>2012-07-25T13:43:12Z</time>
<speed>0.050000</speed>
<extensions>
<speed>0.1</speed>
<temp>0.00</temp>
<bpm>0</bpm>
<rpm>0.00</rpm>
</extensions>
</trkpt>
<trkpt lat="63.843242645" lon="-18.752214432">
<ele>599.312500</ele>
<time>2012-07-25T13:43:17Z</time>
<speed>0.010000</speed>
<extensions>
<speed>0.0</speed>
<temp>0.00</temp>
<bpm>0</bpm>
<rpm>0.00</rpm>
</extensions>
</trkpt>
<trkpt lat="63.843242645" lon="-18.752214432">
<ele>599.328125</ele>
<time>2012-07-25T13:43:22Z</time>
<extensions>
<speed>0.0</speed>
<temp>0.00</temp>
<bpm>0</bpm>
<rpm>0.00</rpm>
</extensions>
</trkpt>
<trkpt lat="63.843242645" lon="-18.752216339">
<ele>599.375000</ele>
<time>2012-07-25T13:43:27Z</time>
<speed>0.010000</speed>
<extensions>
<speed>0.0</speed>
<temp>0.00</temp>
<bpm>0</bpm>
<rpm>0.00</rpm>
</extensions>
</trkpt>
<trkpt lat="63.843242645" lon="-18.752216339">
<ele>599.437500</ele>
<time>2012-07-25T13:43:32Z</time>
<speed>0.020000</speed>
<extensions>
<speed>0.0</speed>
<temp>0.00</temp>
<bpm>0</bpm>
<rpm>0.00</rpm>
</extensions>
</trkpt>
<trkpt lat="63.843242645" lon="-18.752216339">
<ele>599.468750</ele>
<time>2012-07-25T13:43:37Z</time>
<speed>0.010000</speed>
<extensions>
<speed>0.0</speed>
<temp>0.00</temp>
<bpm>0</bpm>
<rpm>0.00</rpm>
</extensions>
</trkpt>
<trkpt lat="63.843242645" lon="-18.752218246">
<ele>599.468750</ele>
<time>2012-07-25T13:43:42Z</time>
<extensions>
<speed>0.0</speed>
<temp>0.00</temp>
<bpm>0</bpm>
<rpm>0.00</rpm>
</extensions>
</trkpt>
<trkpt lat="63.843242645" lon="-18.752218246">
<ele>599.484375</ele>
<time>2012-07-25T13:43:47Z</time>
<speed>0.030000</speed>
<extensions>
<speed>0.0</speed>
<temp>0.00</temp>
<bpm>0</bpm>
<rpm>0.00</rpm>
</extensions>
</trkpt>
<trkpt lat="63.843242645" lon="-18.752218246">
<ele>599.500000</ele>
<time>2012-07-25T13:43:52Z</time>
<extensions>
<speed>0.0</speed>
<temp>0.00</temp>
<bpm>0</bpm>
<rpm>0.00</rpm>
</extensions>
</trkpt>
<trkpt lat="63.843242645" lon="-18.752218246">
<ele>599.500000</ele>
<time>2012-07-25T13:43:57Z</time>
<extensions>
<speed>0.0</speed>
<temp>0.00</temp>
<bpm>0</bpm>
<rpm>0.00</rpm>
</extensions>
</trkpt>
<trkpt lat="63.843242645" lon="-18.752220154">
<ele>599.500000</ele>
<time>2012-07-25T13:44:02Z</time>
<extensions>
<speed>0.0</speed>
<temp>0.00</temp>
<bpm>0</bpm>
<rpm>0.00</rpm>
</extensions>
</trkpt>
<trkpt lat="63.843242645" lon="-18.752220154">
<ele>599.515625</ele>
<time>2012-07-25T13:44:07Z</time>
<speed>0.010000</speed>
<extensions>
<speed>0.0</speed>
<temp>0.00</temp>
<bpm>0</bpm>
<rpm>0.00</rpm>
</extensions>
</trkpt>
<trkpt lat="63.843242645" lon="-18.752220154">
<ele>599.531250</ele>
<time>2012-07-25T13:44:12Z</time>
<extensions>
<speed>0.0</speed>
<temp>0.00</temp>
<bpm>0</bpm>
<rpm>0.00</rpm>
</extensions>
</trkpt>
<trkpt lat="63.843242645" lon="-18.752222061">
<ele>599.531250</ele>
<time>2012-07-25T13:44:17Z</time>
<extensions>
<speed>0.0</speed>
<temp>0.00</temp>
<bpm>0</bpm>
<rpm>0.00</rpm>
</extensions>
</trkpt>
<trkpt lat="63.843242645" lon="-18.752222061">
<ele>599.546875</ele>
<time>2012-07-25T13:44:22Z</time>
<speed>0.080000</speed>
<extensions>
<speed>0.1</speed>
<temp>0.00</temp>
<bpm>0</bpm>
<rpm>0.00</rpm>
</extensions>
</trkpt>
<trkpt lat="63.843246460" lon="-18.752223969">
<ele>599.500000</ele>
<time>2012-07-25T13:44:27Z</time>
<speed>0.010000</speed>
<extensions>
<speed>0.0</speed>
<temp>0.00</temp>
<bpm>0</bpm>
<rpm>0.00</rpm>
</extensions>
</trkpt>
<trkpt lat="63.843246460" lon="-18.752223969">
<ele>599.500000</ele>
<time>2012-07-25T13:44:32Z</time>
<extensions>
<speed>0.0</speed>
<temp>0.00</temp>
<bpm>0</bpm>
<rpm>0.00</rpm>
</extensions>
</trkpt>
<trkpt lat="63.843246460" lon="-18.752223969">
<ele>599.500000</ele>
<time>2012-07-25T13:44:37Z</time>
<speed>0.010000</speed>
<extensions>
<speed>0.0</speed>
<temp>0.00</temp>
<bpm>0</bpm>
<rpm>0.00</rpm>
</extensions>
</trkpt>
<trkpt lat="63.843246460" lon="-18.752223969">
<ele>599.500000</ele>
<time>2012-07-25T13:44:42Z</time>
<speed>0.010000</speed>
<extensions>
<speed>0.0</speed>
<temp>0.00</temp>
<bpm>0</bpm>
<rpm>0.00</rpm>
</extensions>
</trkpt>
<trkpt lat="63.843250275" lon="-18.752231598">
<ele>599.531250</ele>
<time>2012-07-25T13:44:47Z</time>
<speed>0.300000</speed>
<extensions>
<speed>0.3</speed>
<temp>0.00</temp>
<bpm>0</bpm>
<rpm>0.00</rpm>
</extensions>
</trkpt>
<trkpt lat="63.843250275" lon="-18.752233505">
<ele>599.671875</ele>
<time>2012-07-25T13:44:52Z</time>
<speed>0.020000</speed>
<extensions>
<speed>0.0</speed>
<temp>0.00</temp>
<bpm>0</bpm>
<rpm>0.00</rpm>
</extensions>
</trkpt>
<trkpt lat="63.843254089" lon="-18.752231598">
<ele>599.703125</ele>
<time>2012-07-25T13:44:57Z</time>
<speed>0.030000</speed>
<extensions>
<speed>0.0</speed>
<temp>0.00</temp>
<bpm>0</bpm>
<rpm>0.00</rpm>
</extensions>
</trkpt>
<trkpt lat="63.843235016" lon="-18.752250671">
<ele>599.796875</ele>
<time>2012-07-25T13:45:02Z</time>
<speed>1.440000</speed>
<extensions>
<speed>1.4</speed>
<temp>0.00</temp>
<bpm>0</bpm>
<rpm>0.00</rpm>
</extensions>
</trkpt>
<trkpt lat="63.843116760" lon="-18.752315521">
<ele>599.796875</ele>
<time>2012-07-25T13:45:07Z</time>
<speed>3.320000</speed>
<extensions>
<speed>3.3</speed>
<temp>0.00</temp>
<bpm>0</bpm>
<rpm>0.00</rpm>
</extensions>
</trkpt>
<trkpt lat="63.842933655" lon="-18.752391815">
<ele>598.468750</ele>
<time>2012-07-25T13:45:12Z</time>
<speed>4.800000</speed>
<extensions>
<speed>4.8</speed>
<temp>0.00</temp>
<bpm>0</bpm>
<rpm>0.00</rpm>
</extensions>
</trkpt>
<trkpt lat="63.842704773" lon="-18.752454758">
<ele>597.828125</ele>
<time>2012-07-25T13:45:17Z</time>
<speed>5.270000</speed>
<extensions>
<speed>5.3</speed>
<temp>0.00</temp>
<bpm>0</bpm>
<rpm>0.00</rpm>
</extensions>
</trkpt>
<trkpt lat="63.842479706" lon="-18.752487183">
<ele>597.046875</ele>
<time>2012-07-25T13:45:22Z</time>
<speed>4.700000</speed>
<extensions>
<speed>4.7</speed>
<temp>0.00</temp>
<bpm>0</bpm>
<rpm>0.00</rpm>
</extensions>
</trkpt>
<trkpt lat="63.842281342" lon="-18.752445221">
<ele>596.312500</ele>
<time>2012-07-25T13:45:27Z</time>
<speed>4.260000</speed>
<extensions>
<speed>4.3</speed>
<temp>0.00</temp>
<bpm>0</bpm>
<rpm>0.00</rpm>
</extensions>
</trkpt>
<trkpt lat="63.842094421" lon="-18.752386093">
<ele>596.843750</ele>
<time>2012-07-25T13:45:32Z</time>
<speed>3.970000</speed>
<extensions>
<speed>4.0</speed>
<temp>0.00</temp>
<bpm>0</bpm>
<rpm>0.00</rpm>
</extensions>
</trkpt>
<trkpt lat="63.841938019" lon="-18.752164841">
<ele>594.296875</ele>
<time>2012-07-25T13:45:37Z</time>
<speed>4.090000</speed>
<extensions>
<speed>4.1</speed>
<temp>0.00</temp>
<bpm>0</bpm>
<rpm>0.00</rpm>
</extensions>
</trkpt>
<trkpt lat="63.841827393" lon="-18.751796722">
<ele>593.281250</ele>
<time>2012-07-25T13:45:42Z</time>
<speed>4.310000</speed>
<extensions>
<speed>4.3</speed>
<temp>0.00</temp>
<bpm>0</bpm>
<rpm>0.00</rpm>
</extensions>
</trkpt>
<trkpt lat="63.841735840" lon="-18.751482010">
<ele>593.281250</ele>
<time>2012-07-25T13:45:47Z</time>
<speed>3.960000</speed>
<extensions>
<speed>4.0</speed>
<temp>0.00</temp>
<bpm>0</bpm>
<rpm>0.00</rpm>
</extensions>
</trkpt>
<trkpt lat="63.841579437" lon="-18.751396179">
<ele>591.500000</ele>
<time>2012-07-25T13:45:52Z</time>
<speed>4.020000</speed>
<extensions>
<speed>4.0</speed>
<temp>0.00</temp>
<bpm>0</bpm>
<rpm>0.00</rpm>
</extensions>
</trkpt>
<trkpt lat="63.841381073" lon="-18.751377106">
<ele>588.734375</ele>
<time>2012-07-25T13:45:57Z</time>
<speed>4.810000</speed>
<extensions>
<speed>4.8</speed>
<temp>0.00</temp>
<bpm>0</bpm>
<rpm>0.00</rpm>
</extensions>
</trkpt>
<trkpt lat="63.841190338" lon="-18.751173019">
<ele>587.593750</ele>
<time>2012-07-25T13:46:02Z</time>
<speed>4.900000</speed>
<extensions>
<speed>4.9</speed>
<temp>0.00</temp>
<bpm>0</bpm>
<rpm>0.00</rpm>
</extensions>
</trkpt>
<trkpt lat="63.841060638" lon="-18.750896454">
<ele>586.687500</ele>
<time>2012-07-25T13:46:07Z</time>
<speed>3.890000</speed>
<extensions>
<speed>3.9</speed>
<temp>0.00</temp>
<bpm>0</bpm>
<rpm>0.00</rpm>
</extensions>
</trkpt>
<trkpt lat="63.840923309" lon="-18.750699997">
<ele>585.109375</ele>
<time>2012-07-25T13:46:12Z</time>
<speed>2.600000</speed>
<extensions>
<speed>2.6</speed>
<temp>0.00</temp>
<bpm>0</bpm>
<rpm>0.00</rpm>
</extensions>
</trkpt>
<trkpt lat="63.840827942" lon="-18.750669479">
<ele>583.531250</ele>
<time>2012-07-25T13:46:17Z</time>
<speed>2.600000</speed>
<extensions>
<speed>2.6</speed>
<temp>0.00</temp>
<bpm>0</bpm>
<rpm>0.00</rpm>
</extensions>
</trkpt>
<trkpt lat="63.840675354" lon="-18.750654221">
<ele>581.296875</ele>
<time>2012-07-25T13:46:22Z</time>
<speed>3.920000</speed>
<extensions>
<speed>3.9</speed>
<temp>0.00</temp>
<bpm>0</bpm>
<rpm>0.00</rpm>
</extensions>
</trkpt>
<trkpt lat="63.840492249" lon="-18.750640869">
<ele>578.718750</ele>
<time>2012-07-25T13:46:27Z</time>
<speed>4.350000</speed>
<extensions>
<speed>4.3</speed>
<temp>0.00</temp>
<bpm>0</bpm>
<rpm>0.00</rpm>
</extensions>
</trkpt>
<trkpt lat="63.840305328" lon="-18.750591278">
<ele>574.843750</ele>
<time>2012-07-25T13:46:32Z</time>
<speed>4.220000</speed>
<extensions>
<speed>4.2</speed>
<temp>0.00</temp>
<bpm>0</bpm>
<rpm>0.00</rpm>
</extensions>
</trkpt>
<trkpt lat="63.840126038" lon="-18.750574112">
<ele>571.171875</ele>
<time>2012-07-25T13:46:37Z</time>
<speed>3.890000</speed>
<extensions>
<speed>3.9</speed>
<temp>0.00</temp>
<bpm>0</bpm>
<rpm>0.00</rpm>
</extensions>
</trkpt>
<trkpt lat="63.839897156" lon="-18.750528336">
<ele>566.437500</ele>
<time>2012-07-25T13:46:42Z</time>
<speed>7.610000</speed>
<extensions>
<speed>7.6</speed>
<temp>0.00</temp>
<bpm>0</bpm>
<rpm>0.00</rpm>
</extensions>
</trkpt>
<trkpt lat="63.839569092" lon="-18.750589371">
<ele>565.562500</ele>
<time>2012-07-25T13:46:47Z</time>
<speed>6.860000</speed>
<extensions>
<speed>6.9</speed>
<temp>0.00</temp>
<bpm>0</bpm>
<rpm>0.00</rpm>
</extensions>
</trkpt>
<trkpt lat="63.839282990" lon="-18.750860214">
<ele>564.640625</ele>
<time>2012-07-25T13:46:52Z</time>
<speed>6.300000</speed>
<extensions>
<speed>6.3</speed>
<temp>0.00</temp>
<bpm>0</bpm>
<rpm>0.00</rpm>
</extensions>
</trkpt>
<trkpt lat="63.839069366" lon="-18.750820160">
<ele>565.000000</ele>
<time>2012-07-25T13:46:57Z</time>
<speed>4.190000</speed>
<extensions>
<speed>4.2</speed>
<temp>0.00</temp>
<bpm>0</bpm>
<rpm>0.00</rpm>
</extensions>
</trkpt>
<trkpt lat="63.838905334" lon="-18.750780106">
<ele>564.906250</ele>
<time>2012-07-25T13:47:02Z</time>
<speed>3.660000</speed>
<extensions>
<speed>3.7</speed>
<temp>0.00</temp>
<bpm>0</bpm>
<rpm>0.00</rpm>
</extensions>
</trkpt>
<trkpt lat="63.838726044" lon="-18.750764847">
<ele>564.390625</ele>
<time>2012-07-25T13:47:07Z</time>
<speed>5.040000</speed>
<extensions>
<speed>5.0</speed>
<temp>0.00</temp>
<bpm>0</bpm>
<rpm>0.00</rpm>
</extensions>
</trkpt>
<trkpt lat="63.838443756" lon="-18.750686646">
<ele>561.515625</ele>
<time>2012-07-25T13:47:12Z</time>
<speed>7.000000</speed>
<extensions>
<speed>7.0</speed>
<temp>0.00</temp>
<bpm>0</bpm>
<rpm>0.00</rpm>
</extensions>
</trkpt>
<trkpt lat="63.838130951" lon="-18.750488281">
<ele>559.984375</ele>
<time>2012-07-25T13:47:17Z</time>
<speed>7.060000</speed>
<extensions>
<speed>7.1</speed>
<temp>0.00</temp>
<bpm>0</bpm>
<rpm>0.00</rpm>
</extensions>
</trkpt>
<trkpt lat="63.837860107" lon="-18.750200272">
<ele>558.265625</ele>
<time>2012-07-25T13:47:22Z</time>
<speed>5.980000</speed>
<extensions>
<speed>6.0</speed>
<temp>0.00</temp>
<bpm>0</bpm>
<rpm>0.00</rpm>
</extensions>
</trkpt>
<trkpt lat="63.837661743" lon="-18.749912262">
<ele>558.031250</ele>
<time>2012-07-25T13:47:27Z</time>
<speed>4.790000</speed>
<extensions>
<speed>4.8</speed>
<temp>0.00</temp>
<bpm>0</bpm>
<rpm>0.00</rpm>
</extensions>
</trkpt>
<trkpt lat="63.837501526" lon="-18.749689102">
<ele>557.968750</ele>
<time>2012-07-25T13:47:32Z</time>
<speed>3.400000</speed>
<extensions>
<speed>3.4</speed>
<temp>0.00</temp>
<bpm>0</bpm>
<rpm>0.00</rpm>
</extensions>
</trkpt>
<trkpt lat="63.837406158" lon="-18.749546051">
<ele>558.218750</ele>
<time>2012-07-25T13:47:37Z</time>
<speed>3.030000</speed>
<extensions>
<speed>3.0</speed>
<temp>0.00</temp>
<bpm>0</bpm>
<rpm>0.00</rpm>
</extensions>
</trkpt>
<trkpt lat="63.837310791" lon="-18.749326706">
<ele>558.718750</ele>
<time>2012-07-25T13:47:42Z</time>
<speed>2.940000</speed>
<extensions>
<speed>2.9</speed>
<temp>0.00</temp>
<bpm>0</bpm>
<rpm>0.00</rpm>
</extensions>
</trkpt>
<trkpt lat="63.837234497" lon="-18.749126434">
<ele>558.250000</ele>
<time>2012-07-25T13:47:47Z</time>
<speed>2.810000</speed>
<extensions>
<speed>2.8</speed>
<temp>0.00</temp>
<bpm>0</bpm>
<rpm>0.00</rpm>
</extensions>
</trkpt>
<trkpt lat="63.837146759" lon="-18.748908997">
<ele>557.687500</ele>
<time>2012-07-25T13:47:52Z</time>
<speed>3.200000</speed>
<extensions>
<speed>3.2</speed>
<temp>0.00</temp>
<bpm>0</bpm>
<rpm>0.00</rpm>
</extensions>
</trkpt>
<trkpt lat="63.837047577" lon="-18.748641968">
<ele>557.375000</ele>
<time>2012-07-25T13:47:57Z</time>
<speed>3.740000</speed>
<extensions>
<speed>3.7</speed>
<temp>0.00</temp>
<bpm>0</bpm>
<rpm>0.00</rpm>
</extensions>
</trkpt>
<trkpt lat="63.836929321" lon="-18.748300552">
<ele>556.390625</ele>
<time>2012-07-25T13:48:02Z</time>
<speed>4.000000</speed>
<extensions>
<speed>4.0</speed>
<temp>0.00</temp>
<bpm>0</bpm>
<rpm>0.00</rpm>
</extensions>
</trkpt>
<trkpt lat="63.836795807" lon="-18.747913361">
<ele>555.015625</ele>
<time>2012-07-25T13:48:07Z</time>
<speed>4.270000</speed>
<extensions>
<speed>4.3</speed>
<temp>0.00</temp>
<bpm>0</bpm>
<rpm>0.00</rpm>
</extensions>
</trkpt>
<trkpt lat="63.836578369" lon="-18.747625351">
<ele>554.375000</ele>
<time>2012-07-25T13:48:12Z</time>
<speed>6.650000</speed>
<extensions>
<speed>6.7</speed>
<temp>0.00</temp>
<bpm>0</bpm>
<rpm>0.00</rpm>
</extensions>
</trkpt>
<trkpt lat="63.836231232" lon="-18.747741699">
<ele>550.890625</ele>
<time>2012-07-25T13:48:17Z</time>
<speed>9.220000</speed>
<extensions>
<speed>9.2</speed>
<temp>0.00</temp>
<bpm>0</bpm>
<rpm>0.00</rpm>
</extensions>
</trkpt>
<trkpt lat="63.835891724" lon="-18.747922897">
<ele>552.203125</ele>
<time>2012-07-25T13:48:22Z</time>
<speed>5.330000</speed>
<extensions>
<speed>5.3</speed>
<temp>0.00</temp>
<bpm>0</bpm>
<rpm>0.00</rpm>
</extensions>
</trkpt>
<trkpt lat="63.835773468" lon="-18.747953415">
<ele>551.140625</ele>
<time>2012-07-25T13:48:27Z</time>
<speed>2.270000</speed>
<extensions>
<speed>2.3</speed>
<temp>0.00</temp>
<bpm>0</bpm>
<rpm>0.00</rpm>
</extensions>
</trkpt>
<trkpt lat="63.835636139" lon="-18.748006821">
<ele>550.546875</ele>
<time>2012-07-25T13:48:32Z</time>
<speed>3.550000</speed>
<extensions>
<speed>3.5</speed>
<temp>0.00</temp>
<bpm>0</bpm>
<rpm>0.00</rpm>
</extensions>
</trkpt>
<trkpt lat="63.835468292" lon="-18.748071671">
<ele>550.468750</ele>
<time>2012-07-25T13:48:37Z</time>
<speed>4.250000</speed>
<extensions>
<speed>4.3</speed>
<temp>0.00</temp>
<bpm>0</bpm>
<rpm>0.00</rpm>
</extensions>
</trkpt>
<trkpt lat="63.835311890" lon="-18.748096466">
<ele>551.203125</ele>
<time>2012-07-25T13:48:42Z</time>
<speed>2.670000</speed>
<extensions>
<speed>2.7</speed>
<temp>0.00</temp>
<bpm>0</bpm>
<rpm>0.00</rpm>
</extensions>
</trkpt>
<trkpt lat="63.835216522" lon="-18.748069763">
<ele>551.500000</ele>
<time>2012-07-25T13:48:47Z</time>
<speed>2.130000</speed>
<extensions>
<speed>2.1</speed>
<temp>0.00</temp>
<bpm>0</bpm>
<rpm>0.00</rpm>
</extensions>
</trkpt>
<trkpt lat="63.835124969" lon="-18.748077393">
<ele>552.125000</ele>
<time>2012-07-25T13:48:52Z</time>
<speed>2.470000</speed>
<extensions>
<speed>2.5</speed>
<temp>0.00</temp>
<bpm>0</bpm>
<rpm>0.00</rpm>
</extensions>
</trkpt>
<trkpt lat="63.835071564" lon="-18.748100281">
<ele>552.484375</ele>
<time>2012-07-25T13:48:57Z</time>
<speed>0.290000</speed>
<extensions>
<speed>0.3</speed>
<temp>0.00</temp>
<bpm>0</bpm>
<rpm>0.00</rpm>
</extensions>
</trkpt>
<trkpt lat="63.835056305" lon="-18.748113632">
<ele>553.031250</ele>
<time>2012-07-25T13:49:02Z</time>
<speed>0.920000</speed>
<extensions>
<speed>0.9</speed>
<temp>0.00</temp>
<bpm>0</bpm>
<rpm>0.00</rpm>
</extensions>
</trkpt>
<trkpt lat="63.835014343" lon="-18.748106003">
<ele>554.593750</ele>
<time>2012-07-25T13:49:07Z</time>
<speed>1.180000</speed>
<extensions>
<speed>1.2</speed>
<temp>0.00</temp>
<bpm>0</bpm>
<rpm>0.00</rpm>
</extensions>
</trkpt>
<trkpt lat="63.834964752" lon="-18.748107910">
<ele>556.500000</ele>
<time>2012-07-25T13:49:12Z</time>
<speed>1.060000</speed>
<extensions>
<speed>1.1</speed>
<temp>0.00</temp>
<bpm>0</bpm>
<rpm>0.00</rpm>
</extensions>
</trkpt>
<trkpt lat="63.834922791" lon="-18.748113632">
<ele>557.265625</ele>
<time>2012-07-25T13:49:17Z</time>
<speed>0.860000</speed>
<extensions>
<speed>0.9</speed>
<temp>0.00</temp>
<bpm>0</bpm>
<rpm>0.00</rpm>
</extensions>
</trkpt>
<trkpt lat="63.834888458" lon="-18.748128891">
<ele>559.593750</ele>
<time>2012-07-25T13:49:22Z</time>
<speed>0.740000</speed>
<extensions>
<speed>0.7</speed>
<temp>0.00</temp>
<bpm>0</bpm>
<rpm>0.00</rpm>
</extensions>
</trkpt>
<trkpt lat="63.834861755" lon="-18.748197556">
<ele>559.546875</ele>
<time>2012-07-25T13:49:27Z</time>
<speed>0.600000</speed>
<extensions>
<speed>0.6</speed>
<temp>0.00</temp>
<bpm>0</bpm>
<rpm>0.00</rpm>
</extensions>
</trkpt>
<trkpt lat="63.834827423" lon="-18.748197556">
<ele>560.687500</ele>
<time>2012-07-25T13:49:32Z</time>
<speed>0.820000</speed>
<extensions>
<speed>0.8</speed>
<temp>0.00</temp>
<bpm>0</bpm>
<rpm>0.00</rpm>
</extensions>
</trkpt>
<trkpt lat="63.834789276" lon="-18.748195648">
<ele>561.812500</ele>
<time>2012-07-25T13:49:37Z</time>
<speed>0.710000</speed>
<extensions>
<speed>0.7</speed>
<temp>0.00</temp>
<bpm>0</bpm>
<rpm>0.00</rpm>
</extensions>
</trkpt>
<trkpt lat="63.834754944" lon="-18.748216629">
<ele>562.843750</ele>
<time>2012-07-25T13:49:42Z</time>
<speed>0.580000</speed>
<extensions>
<speed>0.6</speed>
<temp>0.00</temp>
<bpm>0</bpm>
<rpm>0.00</rpm>
</extensions>
</trkpt>
<trkpt lat="63.834724426" lon="-18.748231888">
<ele>563.515625</ele>
<time>2012-07-25T13:49:47Z</time>
<speed>0.880000</speed>
<extensions>
<speed>0.9</speed>
<temp>0.00</temp>
<bpm>0</bpm>
<rpm>0.00</rpm>
</extensions>
</trkpt>
<trkpt lat="63.834682465" lon="-18.748249054">
<ele>564.109375</ele>
<time>2012-07-25T13:49:52Z</time>
<speed>0.980000</speed>
<extensions>
<speed>1.0</speed>
<temp>0.00</temp>
<bpm>0</bpm>
<rpm>0.00</rpm>
</extensions>
</trkpt>
<trkpt lat="63.834648132" lon="-18.748268127">
<ele>564.656250</ele>
<time>2012-07-25T13:49:57Z</time>
<speed>0.830000</speed>
<extensions>
<speed>0.8</speed>
<temp>0.00</temp>
<bpm>0</bpm>
<rpm>0.00</rpm>
</extensions>
</trkpt>
<trkpt lat="63.834625244" lon="-18.748313904">
<ele>564.859375</ele>
<time>2012-07-25T13:50:02Z</time>
<speed>0.920000</speed>
<extensions>
<speed>0.9</speed>
<temp>0.00</temp>
<bpm>0</bpm>
<rpm>0.00</rpm>
</extensions>
</trkpt>
<trkpt lat="63.834583282" lon="-18.748350143">
<ele>565.640625</ele>
<time>2012-07-25T13:50:07Z</time>
<speed>0.690000</speed>
<extensions>
<speed>0.7</speed>
<temp>0.00</temp>
<bpm>0</bpm>
<rpm>0.00</rpm>
</extensions>
</trkpt>
<trkpt lat="63.834545135" lon="-18.748365402">
<ele>566.515625</ele>
<time>2012-07-25T13:50:12Z</time>
<speed>1.010000</speed>
<extensions>
<speed>1.0</speed>
<temp>0.00</temp>
<bpm>0</bpm>
<rpm>0.00</rpm>
</extensions>
</trkpt>
<trkpt lat="63.834510803" lon="-18.748344421">
<ele>566.500000</ele>
<time>2012-07-25T13:50:17Z</time>
<speed>0.930000</speed>
<extensions>
<speed>0.9</speed>
<temp>0.00</temp>
<bpm>0</bpm>
<rpm>0.00</rpm>
</extensions>
</trkpt>
<trkpt lat="63.834465027" lon="-18.748378754">
<ele>566.968750</ele>
<time>2012-07-25T13:50:22Z</time>
<speed>0.760000</speed>
<extensions>
<speed>0.8</speed>
<temp>0.00</temp>
<bpm>0</bpm>
<rpm>0.00</rpm>
</extensions>
</trkpt>
<trkpt lat="63.834438324" lon="-18.748422623">
<ele>567.140625</ele>
<time>2012-07-25T13:50:27Z</time>
<speed>0.730000</speed>
<extensions>
<speed>0.7</speed>
<temp>0.00</temp>
<bpm>0</bpm>
<rpm>0.00</rpm>
</extensions>
</trkpt>
<trkpt lat="63.834400177" lon="-18.748418808">
<ele>566.921875</ele>
<time>2012-07-25T13:50:32Z</time>
<speed>1.270000</speed>
<extensions>
<speed>1.3</speed>
<temp>0.00</temp>
<bpm>0</bpm>
<rpm>0.00</rpm>
</extensions>
</trkpt>
<trkpt lat="63.834354401" lon="-18.748416901">
<ele>567.703125</ele>
<time>2012-07-25T13:50:37Z</time>
<speed>0.990000</speed>
<extensions>
<speed>1.0</speed>
<temp>0.00</temp>
<bpm>0</bpm>
<rpm>0.00</rpm>
</extensions>
</trkpt>
<trkpt lat="63.834320068" lon="-18.748405457">
<ele>567.828125</ele>
<time>2012-07-25T13:50:42Z</time>
<speed>0.960000</speed>
<extensions>
<speed>1.0</speed>
<temp>0.00</temp>
<bpm>0</bpm>
<rpm>0.00</rpm>
</extensions>
</trkpt>
<trkpt lat="63.834285736" lon="-18.748399734">
<ele>568.406250</ele>
<time>2012-07-25T13:50:47Z</time>
<speed>0.890000</speed>
<extensions>
<speed>0.9</speed>
<temp>0.00</temp>
<bpm>0</bpm>
<rpm>0.00</rpm>
</extensions>
</trkpt>
<trkpt lat="63.834236145" lon="-18.748361588">
<ele>569.765625</ele>
<time>2012-07-25T13:50:52Z</time>
<speed>0.910000</speed>
<extensions>
<speed>0.9</speed>
<temp>0.00</temp>
<bpm>0</bpm>
<rpm>0.00</rpm>
</extensions>
</trkpt>
<trkpt lat="63.834194183" lon="-18.748346329">
<ele>569.859375</ele>
<time>2012-07-25T13:50:57Z</time>
<speed>0.900000</speed>
<extensions>
<speed>0.9</speed>
<temp>0.00</temp>
<bpm>0</bpm>
<rpm>0.00</rpm>
</extensions>
</trkpt>
<trkpt lat="63.834159851" lon="-18.748317719">
<ele>569.593750</ele>
<time>2012-07-25T13:51:02Z</time>
<speed>0.970000</speed>
<extensions>
<speed>1.0</speed>
<temp>0.00</temp>
<bpm>0</bpm>
<rpm>0.00</rpm>
</extensions>
</trkpt>
<trkpt lat="63.834110260" lon="-18.748285294">
<ele>569.968750</ele>
<time>2012-07-25T13:51:07Z</time>
<speed>1.240000</speed>
<extensions>
<speed>1.2</speed>
<temp>0.00</temp>
<bpm>0</bpm>
<rpm>0.00</rpm>
</extensions>
</trkpt>
<trkpt lat="63.834053040" lon="-18.748298645">
<ele>571.250000</ele>
<time>2012-07-25T13:51:12Z</time>
<speed>0.670000</speed>
<extensions>
<speed>0.7</speed>
<temp>0.00</temp>
<bpm>0</bpm>
<rpm>0.00</rpm>
</extensions>
</trkpt>
<trkpt lat="63.834014893" lon="-18.748319626">
<ele>571.687500</ele>
<time>2012-07-25T13:51:17Z</time>
<speed>1.100000</speed>
<extensions>
<speed>1.1</speed>
<temp>0.00</temp>
<bpm>0</bpm>
<rpm>0.00</rpm>
</extensions>
</trkpt>
<trkpt lat="63.833980560" lon="-18.748355865">
<ele>572.296875</ele>
<time>2012-07-25T13:51:22Z</time>
<speed>1.010000</speed>
<extensions>
<speed>1.0</speed>
<temp>0.00</temp>
<bpm>0</bpm>
<rpm>0.00</rpm>
</extensions>
</trkpt>
<trkpt lat="63.833946228" lon="-18.748405457">
<ele>572.515625</ele>
<time>2012-07-25T13:51:27Z</time>
<speed>0.890000</speed>
<extensions>
<speed>0.9</speed>
<temp>0.00</temp>
<bpm>0</bpm>
<rpm>0.00</rpm>
</extensions>
</trkpt>
<trkpt lat="63.833911896" lon="-18.748487473">
<ele>573.265625</ele>
<time>2012-07-25T13:51:32Z</time>
<speed>1.010000</speed>
<extensions>
<speed>1.0</speed>
<temp>0.00</temp>
<bpm>0</bpm>
<rpm>0.00</rpm>
</extensions>
</trkpt>
<trkpt lat="63.833881378" lon="-18.748563766">
<ele>573.687500</ele>
<time>2012-07-25T13:51:37Z</time>
<speed>0.910000</speed>
<extensions>
<speed>0.9</speed>
<temp>0.00</temp>
<bpm>0</bpm>
<rpm>0.00</rpm>
</extensions>
</trkpt>
<trkpt lat="63.833869934" lon="-18.748601913">
<ele>573.484375</ele>
<time>2012-07-25T13:51:42Z</time>
<speed>0.180000</speed>
<extensions>
<speed>0.2</speed>
<temp>0.00</temp>
<bpm>0</bpm>
<rpm>0.00</rpm>
</extensions>
</trkpt>
<trkpt lat="63.833873749" lon="-18.748598099">
<ele>573.937500</ele>
<time>2012-07-25T13:51:47Z</time>
<speed>0.030000</speed>
<extensions>
<speed>0.0</speed>
<temp>0.00</temp>
<bpm>0</bpm>
<rpm>0.00</rpm>
</extensions>
</trkpt>
<trkpt lat="63.833873749" lon="-18.748598099">
<ele>573.921875</ele>
<time>2012-07-25T13:51:52Z</time>
<extensions>
<speed>0.0</speed>
<temp>0.00</temp>
<bpm>0</bpm>
<rpm>0.00</rpm>
</extensions>
</trkpt>
<trkpt lat="63.833873749" lon="-18.748598099">
<ele>573.937500</ele>
<time>2012-07-25T13:51:57Z</time>
<speed>0.020000</speed>
<extensions>
<speed>0.0</speed>
<temp>0.00</temp>
<bpm>0</bpm>
<rpm>0.00</rpm>
</extensions>
</trkpt>
<trkpt lat="63.833873749" lon="-18.748598099">
<ele>573.937500</ele>
<time>2012-07-25T13:52:02Z</time>
<speed>0.330000</speed>
<extensions>
<speed>0.3</speed>
<temp>0.00</temp>
<bpm>0</bpm>
<rpm>0.00</rpm>
</extensions>
</trkpt>
<trkpt lat="63.833869934" lon="-18.748620987">
<ele>574.531250</ele>
<time>2012-07-25T13:52:07Z</time>
<speed>0.440000</speed>
<extensions>
<speed>0.4</speed>
<temp>0.00</temp>
<bpm>0</bpm>
<rpm>0.00</rpm>
</extensions>
</trkpt>
<trkpt lat="63.833866119" lon="-18.748641968">
<ele>574.296875</ele>
<time>2012-07-25T13:52:12Z</time>
<speed>0.720000</speed>
<extensions>
<speed>0.7</speed>
<temp>0.00</temp>
<bpm>0</bpm>
<rpm>0.00</rpm>
</extensions>
</trkpt>
<trkpt lat="63.833850861" lon="-18.748683929">
<ele>573.906250</ele>
<time>2012-07-25T13:52:17Z</time>
<speed>0.220000</speed>
<extensions>
<speed>0.2</speed>
<temp>0.00</temp>
<bpm>0</bpm>
<rpm>0.00</rpm>
</extensions>
</trkpt>
<trkpt lat="63.833854675" lon="-18.748691559">
<ele>573.953125</ele>
<time>2012-07-25T13:52:22Z</time>
<speed>0.010000</speed>
<extensions>
<speed>0.0</speed>
<temp>0.00</temp>
<bpm>0</bpm>
<rpm>0.00</rpm>
</extensions>
</trkpt>
<trkpt lat="63.833854675" lon="-18.748693466">
<ele>573.937500</ele>
<time>2012-07-25T13:52:27Z</time>
<speed>0.040000</speed>
<extensions>
<speed>0.0</speed>
<temp>0.00</temp>
<bpm>0</bpm>
<rpm>0.00</rpm>
</extensions>
</trkpt>
<trkpt lat="63.833854675" lon="-18.748691559">
<ele>573.968750</ele>
<time>2012-07-25T13:52:32Z</time>
<speed>0.020000</speed>
<extensions>
<speed>0.0</speed>
<temp>0.00</temp>
<bpm>0</bpm>
<rpm>0.00</rpm>
</extensions>
</trkpt>
<trkpt lat="63.833854675" lon="-18.748693466">
<ele>573.953125</ele>
<time>2012-07-25T13:52:37Z</time>
<speed>0.020000</speed>
<extensions>
<speed>0.0</speed>
<temp>0.00</temp>
<bpm>0</bpm>
<rpm>0.00</rpm>
</extensions>
</trkpt>
<trkpt lat="63.833854675" lon="-18.748693466">
<ele>573.953125</ele>
<time>2012-07-25T13:52:42Z</time>
<extensions>
<speed>0.0</speed>
<temp>0.00</temp>
<bpm>0</bpm>
<rpm>0.00</rpm>
</extensions>
</trkpt>
<trkpt lat="63.833854675" lon="-18.748693466">
<ele>573.937500</ele>
<time>2012-07-25T13:52:47Z</time>
<extensions>
<speed>0.0</speed>
<temp>0.00</temp>
<bpm>0</bpm>
<rpm>0.00</rpm>
</extensions>
</trkpt>
<trkpt lat="63.833854675" lon="-18.748693466">
<ele>573.937500</ele>
<time>2012-07-25T13:52:52Z</time>
<extensions>
<speed>0.0</speed>
<temp>0.00</temp>
<bpm>0</bpm>
<rpm>0.00</rpm>
</extensions>
</trkpt>
<trkpt lat="63.833854675" lon="-18.748693466">
<ele>573.921875</ele>
<time>2012-07-25T13:52:57Z</time>
<extensions>
<speed>0.0</speed>
<temp>0.00</temp>
<bpm>0</bpm>
<rpm>0.00</rpm>
</extensions>
</trkpt>
<trkpt lat="63.833854675" lon="-18.748693466">
<ele>573.906250</ele>
<time>2012-07-25T13:53:02Z</time>
<extensions>
<speed>0.0</speed>
<temp>0.00</temp>
<bpm>0</bpm>
<rpm>0.00</rpm>
</extensions>
</trkpt>
<trkpt lat="63.833854675" lon="-18.748693466">
<ele>573.890625</ele>
<time>2012-07-25T13:53:07Z</time>
<extensions>
<speed>0.0</speed>
<temp>0.00</temp>
<bpm>0</bpm>
<rpm>0.00</rpm>
</extensions>
</trkpt>
<trkpt lat="63.833854675" lon="-18.748693466">
<ele>573.875000</ele>
<time>2012-07-25T13:53:12Z</time>
<speed>0.020000</speed>
<extensions>
<speed>0.0</speed>
<temp>0.00</temp>
<bpm>0</bpm>
<rpm>0.00</rpm>
</extensions>
</trkpt>
<trkpt lat="63.833854675" lon="-18.748693466">
<ele>573.875000</ele>
<time>2012-07-25T13:53:17Z</time>
<extensions>
<speed>0.0</speed>
<temp>0.00</temp>
<bpm>0</bpm>
<rpm>0.00</rpm>
</extensions>
</trkpt>
<trkpt lat="63.833854675" lon="-18.748693466">
<ele>573.859375</ele>
<time>2012-07-25T13:53:22Z</time>
<speed>0.020000</speed>
<extensions>
<speed>0.0</speed>
<temp>0.00</temp>
<bpm>0</bpm>
<rpm>0.00</rpm>
</extensions>
</trkpt>
<trkpt lat="63.833854675" lon="-18.748693466">
<ele>573.859375</ele>
<time>2012-07-25T13:53:27Z</time>
<speed>0.090000</speed>
<extensions>
<speed>0.1</speed>
<temp>0.00</temp>
<bpm>0</bpm>
<rpm>0.00</rpm>
</extensions>
</trkpt>
<trkpt lat="63.833827972" lon="-18.748893738">
<ele>572.375000</ele>
<time>2012-07-25T13:53:32Z</time>
<speed>4.120000</speed>
<extensions>
<speed>4.1</speed>
<temp>0.00</temp>
<bpm>0</bpm>
<rpm>0.00</rpm>
</extensions>
</trkpt>
<trkpt lat="63.833827972" lon="-18.749521255">
<ele>568.781250</ele>
<time>2012-07-25T13:53:37Z</time>
<speed>7.870000</speed>
<extensions>
<speed>7.9</speed>
<temp>0.00</temp>
<bpm>0</bpm>
<rpm>0.00</rpm>
</extensions>
</trkpt>
<trkpt lat="63.833972931" lon="-18.750307083">
<ele>566.953125</ele>
<time>2012-07-25T13:53:42Z</time>
<speed>8.020000</speed>
<extensions>
<speed>8.0</speed>
<temp>0.00</temp>
<bpm>0</bpm>
<rpm>0.00</rpm>
</extensions>
</trkpt>
<trkpt lat="63.834133148" lon="-18.751008987">
<ele>566.515625</ele>
<time>2012-07-25T13:53:47Z</time>
<speed>7.010000</speed>
<extensions>
<speed>7.0</speed>
<temp>0.00</temp>
<bpm>0</bpm>
<rpm>0.00</rpm>
</extensions>
</trkpt>
<trkpt lat="63.834251404" lon="-18.751560211">
<ele>567.343750</ele>
<time>2012-07-25T13:53:52Z</time>
<speed>4.670000</speed>
<extensions>
<speed>4.7</speed>
<temp>0.00</temp>
<bpm>0</bpm>
<rpm>0.00</rpm>
</extensions>
</trkpt>
<trkpt lat="63.834304810" lon="-18.751926422">
<ele>567.453125</ele>
<time>2012-07-25T13:53:57Z</time>
<speed>3.170000</speed>
<extensions>
<speed>3.2</speed>
<temp>0.00</temp>
<bpm>0</bpm>
<rpm>0.00</rpm>
</extensions>
</trkpt>
<trkpt lat="63.834278107" lon="-18.752246857">
<ele>566.328125</ele>
<time>2012-07-25T13:54:02Z</time>
<speed>3.940000</speed>
<extensions>
<speed>3.9</speed>
<temp>0.00</temp>
<bpm>0</bpm>
<rpm>0.00</rpm>
</extensions>
</trkpt>
<trkpt lat="63.834167480" lon="-18.752700806">
<ele>564.765625</ele>
<time>2012-07-25T13:54:07Z</time>
<speed>5.730000</speed>
<extensions>
<speed>5.7</speed>
<temp>0.00</temp>
<bpm>0</bpm>
<rpm>0.00</rpm>
</extensions>
</trkpt>
<trkpt lat="63.834003448" lon="-18.753234863">
<ele>563.250000</ele>
<time>2012-07-25T13:54:12Z</time>
<speed>6.580000</speed>
<extensions>
<speed>6.6</speed>
<temp>0.00</temp>
<bpm>0</bpm>
<rpm>0.00</rpm>
</extensions>
</trkpt>
<trkpt lat="63.833812714" lon="-18.753805161">
<ele>561.281250</ele>
<time>2012-07-25T13:54:17Z</time>
<speed>7.280000</speed>
<extensions>
<speed>7.3</speed>
<temp>0.00</temp>
<bpm>0</bpm>
<rpm>0.00</rpm>
</extensions>
</trkpt>
<trkpt lat="63.833648682" lon="-18.754396439">
<ele>562.234375</ele>
<time>2012-07-25T13:54:22Z</time>
<speed>4.990000</speed>
<extensions>
<speed>5.0</speed>
<temp>0.00</temp>
<bpm>0</bpm>
<rpm>0.00</rpm>
</extensions>
</trkpt>
<trkpt lat="63.833553314" lon="-18.754659653">
<ele>563.296875</ele>
<time>2012-07-25T13:54:27Z</time>
<speed>1.730000</speed>
<extensions>
<speed>1.7</speed>
<temp>0.00</temp>
<bpm>0</bpm>
<rpm>0.00</rpm>
</extensions>
</trkpt>
<trkpt lat="63.833473206" lon="-18.754800797">
<ele>564.500000</ele>
<time>2012-07-25T13:54:32Z</time>
<speed>3.490000</speed>
<extensions>
<speed>3.5</speed>
<temp>0.00</temp>
<bpm>0</bpm>
<rpm>0.00</rpm>
</extensions>
</trkpt>
<trkpt lat="63.833385468" lon="-18.754945755">
<ele>565.296875</ele>
<time>2012-07-25T13:54:37Z</time>
<speed>1.800000</speed>
<extensions>
<speed>1.8</speed>
<temp>0.00</temp>
<bpm>0</bpm>
<rpm>0.00</rpm>
</extensions>
</trkpt>
<trkpt lat="63.833297729" lon="-18.755075455">
<ele>567.734375</ele>
<time>2012-07-25T13:54:42Z</time>
<speed>2.700000</speed>
<extensions>
<speed>2.7</speed>
<temp>0.00</temp>
<bpm>0</bpm>
<rpm>0.00</rpm>
</extensions>
</trkpt>
<trkpt lat="63.833209991" lon="-18.755226135">
<ele>569.015625</ele>
<time>2012-07-25T13:54:47Z</time>
<speed>2.310000</speed>
<extensions>
<speed>2.3</speed>
<temp>0.00</temp>
<bpm>0</bpm>
<rpm>0.00</rpm>
</extensions>
</trkpt>
<trkpt lat="63.833133698" lon="-18.755374908">
<ele>569.562500</ele>
<time>2012-07-25T13:54:52Z</time>
<speed>2.310000</speed>
<extensions>
<speed>2.3</speed>
<temp>0.00</temp>
<bpm>0</bpm>
<rpm>0.00</rpm>
</extensions>
</trkpt>
<trkpt lat="63.833049774" lon="-18.755531311">
<ele>570.343750</ele>
<time>2012-07-25T13:54:57Z</time>
<speed>2.580000</speed>
<extensions>
<speed>2.6</speed>
<temp>0.00</temp>
<bpm>0</bpm>
<rpm>0.00</rpm>
</extensions>
</trkpt>
<trkpt lat="63.832958221" lon="-18.755697250">
<ele>571.328125</ele>
<time>2012-07-25T13:55:02Z</time>
<speed>2.890000</speed>
<extensions>
<speed>2.9</speed>
<temp>0.00</temp>
<bpm>0</bpm>
<rpm>0.00</rpm>
</extensions>
</trkpt>
<trkpt lat="63.832878113" lon="-18.755882263">
<ele>571.765625</ele>
<time>2012-07-25T13:55:07Z</time>
<speed>2.240000</speed>
<extensions>
<speed>2.2</speed>
<temp>0.00</temp>
<bpm>0</bpm>
<rpm>0.00</rpm>
</extensions>
</trkpt>
<trkpt lat="63.832805634" lon="-18.756074905">
<ele>570.890625</ele>
<time>2012-07-25T13:55:12Z</time>
<speed>2.590000</speed>
<extensions>
<speed>2.6</speed>
<temp>0.00</temp>
<bpm>0</bpm>
<rpm>0.00</rpm>
</extensions>
</trkpt>
<trkpt lat="63.832717896" lon="-18.756244659">
<ele>570.625000</ele>
<time>2012-07-25T13:55:17Z</time>
<speed>2.480000</speed>
<extensions>
<speed>2.5</speed>
<temp>0.00</temp>
<bpm>0</bpm>
<rpm>0.00</rpm>
</extensions>
</trkpt>
<trkpt lat="63.832630157" lon="-18.756412506">
<ele>569.890625</ele>
<time>2012-07-25T13:55:22Z</time>
<speed>2.930000</speed>
<extensions>
<speed>2.9</speed>
<temp>0.00</temp>
<bpm>0</bpm>
<rpm>0.00</rpm>
</extensions>
</trkpt>
<trkpt lat="63.832511902" lon="-18.756608963">
<ele>569.828125</ele>
<time>2012-07-25T13:55:27Z</time>
<speed>3.300000</speed>
<extensions>
<speed>3.3</speed>
<temp>0.00</temp>
<bpm>0</bpm>
<rpm>0.00</rpm>
</extensions>
</trkpt>
<trkpt lat="63.832408905" lon="-18.756731033">
<ele>567.968750</ele>
<time>2012-07-25T13:55:32Z</time>
<speed>1.600000</speed>
<extensions>
<speed>1.6</speed>
<temp>0.00</temp>
<bpm>0</bpm>
<rpm>0.00</rpm>
</extensions>
</trkpt>
<trkpt lat="63.832405090" lon="-18.756761551">
<ele>567.906250</ele>
<time>2012-07-25T13:55:37Z</time>
<speed>0.110000</speed>
<extensions>
<speed>0.1</speed>
<temp>0.00</temp>
<bpm>0</bpm>
<rpm>0.00</rpm>
</extensions>
</trkpt>
<trkpt lat="63.832405090" lon="-18.756763458">
<ele>567.906250</ele>
<time>2012-07-25T13:55:42Z</time>
<speed>0.020000</speed>
<extensions>
<speed>0.0</speed>
<temp>0.00</temp>
<bpm>0</bpm>
<rpm>0.00</rpm>
</extensions>
</trkpt>
<trkpt lat="63.832405090" lon="-18.756763458">
<ele>567.921875</ele>
<time>2012-07-25T13:55:47Z</time>
<speed>0.020000</speed>
<extensions>
<speed>0.0</speed>
<temp>0.00</temp>
<bpm>0</bpm>
<rpm>0.00</rpm>
</extensions>
</trkpt>
<trkpt lat="63.832405090" lon="-18.756765366">
<ele>567.921875</ele>
<time>2012-07-25T13:55:52Z</time>
<extensions>
<speed>0.0</speed>
<temp>0.00</temp>
<bpm>0</bpm>
<rpm>0.00</rpm>
</extensions>
</trkpt>
<trkpt lat="63.832401276" lon="-18.756765366">
<ele>567.921875</ele>
<time>2012-07-25T13:55:57Z</time>
<extensions>
<speed>0.0</speed>
<temp>0.00</temp>
<bpm>0</bpm>
<rpm>0.00</rpm>
</extensions>
</trkpt>
<trkpt lat="63.832401276" lon="-18.756765366">
<ele>567.906250</ele>
<time>2012-07-25T13:56:02Z</time>
<extensions>
<speed>0.0</speed>
<temp>0.00</temp>
<bpm>0</bpm>
<rpm>0.00</rpm>
</extensions>
</trkpt>
<trkpt lat="63.832401276" lon="-18.756765366">
<ele>567.921875</ele>
<time>2012-07-25T13:56:07Z</time>
<extensions>
<speed>0.0</speed>
<temp>0.00</temp>
<bpm>0</bpm>
<rpm>0.00</rpm>
</extensions>
</trkpt>
<trkpt lat="63.832401276" lon="-18.756765366">
<ele>567.921875</ele>
<time>2012-07-25T13:56:12Z</time>
<speed>0.260000</speed>
<extensions>
<speed>0.3</speed>
<temp>0.00</temp>
<bpm>0</bpm>
<rpm>0.00</rpm>
</extensions>
</trkpt>
<trkpt lat="63.832405090" lon="-18.756755829">
<ele>568.109375</ele>
<time>2012-07-25T13:56:17Z</time>
<extensions>
<speed>0.0</speed>
<temp>0.00</temp>
<bpm>0</bpm>
<rpm>0.00</rpm>
</extensions>
</trkpt>
<trkpt lat="63.832405090" lon="-18.756755829">
<ele>568.109375</ele>
<time>2012-07-25T13:56:22Z</time>
<speed>0.020000</speed>
<extensions>
<speed>0.0</speed>
<temp>0.00</temp>
<bpm>0</bpm>
<rpm>0.00</rpm>
</extensions>
</trkpt>
<trkpt lat="63.832405090" lon="-18.756755829">
<ele>568.109375</ele>
<time>2012-07-25T13:56:27Z</time>
<speed>0.040000</speed>
<extensions>
<speed>0.0</speed>
<temp>0.00</temp>
<bpm>0</bpm>
<rpm>0.00</rpm>
</extensions>
</trkpt>
<trkpt lat="63.832405090" lon="-18.756755829">
<ele>568.031250</ele>
<time>2012-07-25T13:56:32Z</time>
<speed>0.840000</speed>
<extensions>
<speed>0.8</speed>
<temp>0.00</temp>
<bpm>0</bpm>
<rpm>0.00</rpm>
</extensions>
</trkpt>
<trkpt lat="63.832328796" lon="-18.756853104">
<ele>567.734375</ele>
<time>2012-07-25T13:56:37Z</time>
<speed>3.130000</speed>
<extensions>
<speed>3.1</speed>
<temp>0.00</temp>
<bpm>0</bpm>
<rpm>0.00</rpm>
</extensions>
</trkpt>
<trkpt lat="63.832168579" lon="-18.756959915">
<ele>565.953125</ele>
<time>2012-07-25T13:56:42Z</time>
<speed>3.220000</speed>
<extensions>
<speed>3.2</speed>
<temp>0.00</temp>
<bpm>0</bpm>
<rpm>0.00</rpm>
</extensions>
</trkpt>
<trkpt lat="63.832042694" lon="-18.757162094">
<ele>562.937500</ele>
<time>2012-07-25T13:56:47Z</time>
<speed>4.040000</speed>
<extensions>
<speed>4.0</speed>
<temp>0.00</temp>
<bpm>0</bpm>
<rpm>0.00</rpm>
</extensions>
</trkpt>
<trkpt lat="63.831970215" lon="-18.757448196">
<ele>560.421875</ele>
<time>2012-07-25T13:56:52Z</time>
<speed>2.100000</speed>
<extensions>
<speed>2.1</speed>
<temp>0.00</temp>
<bpm>0</bpm>
<rpm>0.00</rpm>
</extensions>
</trkpt>
<trkpt lat="63.831928253" lon="-18.757728577">
<ele>558.500000</ele>
<time>2012-07-25T13:56:57Z</time>
<speed>3.690000</speed>
<extensions>
<speed>3.7</speed>
<temp>0.00</temp>
<bpm>0</bpm>
<rpm>0.00</rpm>
</extensions>
</trkpt>
<trkpt lat="63.831897736" lon="-18.758317947">
<ele>555.234375</ele>
<time>2012-07-25T13:57:02Z</time>
<speed>7.020000</speed>
<extensions>
<speed>7.0</speed>
<temp>0.00</temp>
<bpm>0</bpm>
<rpm>0.00</rpm>
</extensions>
</trkpt>
<trkpt lat="63.831825256" lon="-18.759080887">
<ele>549.125000</ele>
<time>2012-07-25T13:57:07Z</time>
<speed>9.150000</speed>
<extensions>
<speed>9.1</speed>
<temp>0.00</temp>
<bpm>0</bpm>
<rpm>0.00</rpm>
</extensions>
</trkpt>
<trkpt lat="63.831512451" lon="-18.759708405">
<ele>545.359375</ele>
<time>2012-07-25T13:57:12Z</time>
<speed>7.600000</speed>
<extensions>
<speed>7.6</speed>
<temp>0.00</temp>
<bpm>0</bpm>
<rpm>0.00</rpm>
</extensions>
</trkpt>
<trkpt lat="63.831218719" lon="-18.759950638">
<ele>544.437500</ele>
<time>2012-07-25T13:57:17Z</time>
<speed>5.790000</speed>
<extensions>
<speed>5.8</speed>
<temp>0.00</temp>
<bpm>0</bpm>
<rpm>0.00</rpm>
</extensions>
</trkpt>
<trkpt lat="63.830993652" lon="-18.760032654">
<ele>546.406250</ele>
<time>2012-07-25T13:57:22Z</time>
<speed>4.810000</speed>
<extensions>
<speed>4.8</speed>
<temp>0.00</temp>
<bpm>0</bpm>
<rpm>0.00</rpm>
</extensions>
</trkpt>
<trkpt lat="63.830806732" lon="-18.760129929">
<ele>545.546875</ele>
<time>2012-07-25T13:57:27Z</time>
<speed>4.160000</speed>
<extensions>
<speed>4.2</speed>
<temp>0.00</temp>
<bpm>0</bpm>
<rpm>0.00</rpm>
</extensions>
</trkpt>
<trkpt lat="63.830612183" lon="-18.760192871">
<ele>545.281250</ele>
<time>2012-07-25T13:57:32Z</time>
<speed>4.500000</speed>
<extensions>
<speed>4.5</speed>
<temp>0.00</temp>
<bpm>0</bpm>
<rpm>0.00</rpm>
</extensions>
</trkpt>
<trkpt lat="63.830410004" lon="-18.760246277">
<ele>544.781250</ele>
<time>2012-07-25T13:57:37Z</time>
<speed>4.240000</speed>
<extensions>
<speed>4.2</speed>
<temp>0.00</temp>
<bpm>0</bpm>
<rpm>0.00</rpm>
</extensions>
</trkpt>
<trkpt lat="63.830238342" lon="-18.760303497">
<ele>544.140625</ele>
<time>2012-07-25T13:57:42Z</time>
<speed>4.130000</speed>
<extensions>
<speed>4.1</speed>
<temp>0.00</temp>
<bpm>0</bpm>
<rpm>0.00</rpm>
</extensions>
</trkpt>
<trkpt lat="63.830066681" lon="-18.760377884">
<ele>543.734375</ele>
<time>2012-07-25T13:57:47Z</time>
<speed>4.400000</speed>
<extensions>
<speed>4.4</speed>
<temp>0.00</temp>
<bpm>0</bpm>
<rpm>0.00</rpm>
</extensions>
</trkpt>
<trkpt lat="63.829853058" lon="-18.760419846">
<ele>543.484375</ele>
<time>2012-07-25T13:57:52Z</time>
<speed>4.960000</speed>
<extensions>
<speed>5.0</speed>
<temp>0.00</temp>
<bpm>0</bpm>
<rpm>0.00</rpm>
</extensions>
</trkpt>
<trkpt lat="63.829650879" lon="-18.760396957">
<ele>541.812500</ele>
<time>2012-07-25T13:57:57Z</time>
<speed>4.370000</speed>
<extensions>
<speed>4.4</speed>
<temp>0.00</temp>
<bpm>0</bpm>
<rpm>0.00</rpm>
</extensions>
</trkpt>
<trkpt lat="63.829444885" lon="-18.760328293">
<ele>541.734375</ele>
<time>2012-07-25T13:58:02Z</time>
<speed>4.250000</speed>
<extensions>
<speed>4.3</speed>
<temp>0.00</temp>
<bpm>0</bpm>
<rpm>0.00</rpm>
</extensions>
</trkpt>
<trkpt lat="63.829277039" lon="-18.760318756">
<ele>541.781250</ele>
<time>2012-07-25T13:58:07Z</time>
<speed>3.670000</speed>
<extensions>
<speed>3.7</speed>
<temp>0.00</temp>
<bpm>0</bpm>
<rpm>0.00</rpm>
</extensions>
</trkpt>
<trkpt lat="63.829109192" lon="-18.760454178">
<ele>539.484375</ele>
<time>2012-07-25T13:58:12Z</time>
<speed>4.510000</speed>
<extensions>
<speed>4.5</speed>
<temp>0.00</temp>
<bpm>0</bpm>
<rpm>0.00</rpm>
</extensions>
</trkpt>
<trkpt lat="63.828861237" lon="-18.760841370">
<ele>537.000000</ele>
<time>2012-07-25T13:58:17Z</time>
<speed>8.250000</speed>
<extensions>
<speed>8.3</speed>
<temp>0.00</temp>
<bpm>0</bpm>
<rpm>0.00</rpm>
</extensions>
</trkpt>
<trkpt lat="63.828556061" lon="-18.761404037">
<ele>535.046875</ele>
<time>2012-07-25T13:58:22Z</time>
<speed>8.580000</speed>
<extensions>
<speed>8.6</speed>
<temp>0.00</temp>
<bpm>0</bpm>
<rpm>0.00</rpm>
</extensions>
</trkpt>
<trkpt lat="63.828308105" lon="-18.761980057">
<ele>533.750000</ele>
<time>2012-07-25T13:58:27Z</time>
<speed>7.350000</speed>
<extensions>
<speed>7.3</speed>
<temp>0.00</temp>
<bpm>0</bpm>
<rpm>0.00</rpm>
</extensions>
</trkpt>
<trkpt lat="63.828117371" lon="-18.762550354">
<ele>532.390625</ele>
<time>2012-07-25T13:58:32Z</time>
<speed>6.820000</speed>
<extensions>
<speed>6.8</speed>
<temp>0.00</temp>
<bpm>0</bpm>
<rpm>0.00</rpm>
</extensions>
</trkpt>
<trkpt lat="63.827976227" lon="-18.763132095">
<ele>531.515625</ele>
<time>2012-07-25T13:58:37Z</time>
<speed>6.340000</speed>
<extensions>
<speed>6.3</speed>
<temp>0.00</temp>
<bpm>0</bpm>
<rpm>0.00</rpm>
</extensions>
</trkpt>
<trkpt lat="63.827888489" lon="-18.763671875">
<ele>530.609375</ele>
<time>2012-07-25T13:58:42Z</time>
<speed>5.420000</speed>
<extensions>
<speed>5.4</speed>
<temp>0.00</temp>
<bpm>0</bpm>
<rpm>0.00</rpm>
</extensions>
</trkpt>
<trkpt lat="63.827819824" lon="-18.764205933">
<ele>530.078125</ele>
<time>2012-07-25T13:58:47Z</time>
<speed>5.500000</speed>
<extensions>
<speed>5.5</speed>
<temp>0.00</temp>
<bpm>0</bpm>
<rpm>0.00</rpm>
</extensions>
</trkpt>
<trkpt lat="63.827766418" lon="-18.764715195">
<ele>530.234375</ele>
<time>2012-07-25T13:58:52Z</time>
<speed>4.860000</speed>
<extensions>
<speed>4.9</speed>
<temp>0.00</temp>
<bpm>0</bpm>
<rpm>0.00</rpm>
</extensions>
</trkpt>
<trkpt lat="63.827732086" lon="-18.765075684">
<ele>531.093750</ele>
<time>2012-07-25T13:58:57Z</time>
<speed>1.980000</speed>
<extensions>
<speed>2.0</speed>
<temp>0.00</temp>
<bpm>0</bpm>
<rpm>0.00</rpm>
</extensions>
</trkpt>
<trkpt lat="63.827716827" lon="-18.765254974">
<ele>531.515625</ele>
<time>2012-07-25T13:59:02Z</time>
<speed>1.260000</speed>
<extensions>
<speed>1.3</speed>
<temp>0.00</temp>
<bpm>0</bpm>
<rpm>0.00</rpm>
</extensions>
</trkpt>
<trkpt lat="63.827701569" lon="-18.765375137">
<ele>532.031250</ele>
<time>2012-07-25T13:59:07Z</time>
<speed>1.730000</speed>
<extensions>
<speed>1.7</speed>
<temp>0.00</temp>
<bpm>0</bpm>
<rpm>0.00</rpm>
</extensions>
</trkpt>
<trkpt lat="63.827693939" lon="-18.765581131">
<ele>532.421875</ele>
<time>2012-07-25T13:59:12Z</time>
<speed>2.080000</speed>
<extensions>
<speed>2.1</speed>
<temp>0.00</temp>
<bpm>0</bpm>
<rpm>0.00</rpm>
</extensions>
</trkpt>
<trkpt lat="63.827674866" lon="-18.765771866">
<ele>533.109375</ele>
<time>2012-07-25T13:59:17Z</time>
<speed>1.390000</speed>
<extensions>
<speed>1.4</speed>
<temp>0.00</temp>
<bpm>0</bpm>
<rpm>0.00</rpm>
</extensions>
</trkpt>
<trkpt lat="63.827667236" lon="-18.765897751">
<ele>533.109375</ele>
<time>2012-07-25T13:59:22Z</time>
<speed>1.130000</speed>
<extensions>
<speed>1.1</speed>
<temp>0.00</temp>
<bpm>0</bpm>
<rpm>0.00</rpm>
</extensions>
</trkpt>
<trkpt lat="63.827659607" lon="-18.766006470">
<ele>533.000000</ele>
<time>2012-07-25T13:59:27Z</time>
<speed>1.480000</speed>
<extensions>
<speed>1.5</speed>
<temp>0.00</temp>
<bpm>0</bpm>
<rpm>0.00</rpm>
</extensions>
</trkpt>
<trkpt lat="63.827636719" lon="-18.766178131">
<ele>532.390625</ele>
<time>2012-07-25T13:59:32Z</time>
<speed>2.060000</speed>
<extensions>
<speed>2.1</speed>
<temp>0.00</temp>
<bpm>0</bpm>
<rpm>0.00</rpm>
</extensions>
</trkpt>
<trkpt lat="63.827606201" lon="-18.766437531">
<ele>531.281250</ele>
<time>2012-07-25T13:59:37Z</time>
<speed>3.590000</speed>
<extensions>
<speed>3.6</speed>
<temp>0.00</temp>
<bpm>0</bpm>
<rpm>0.00</rpm>
</extensions>
</trkpt>
<trkpt lat="63.827560425" lon="-18.766874313">
<ele>529.171875</ele>
<time>2012-07-25T13:59:42Z</time>
<speed>4.510000</speed>
<extensions>
<speed>4.5</speed>
<temp>0.00</temp>
<bpm>0</bpm>
<rpm>0.00</rpm>
</extensions>
</trkpt>
<trkpt lat="63.827465057" lon="-18.767395020">
<ele>527.875000</ele>
<time>2012-07-25T13:59:47Z</time>
<speed>5.790000</speed>
<extensions>
<speed>5.8</speed>
<temp>0.00</temp>
<bpm>0</bpm>
<rpm>0.00</rpm>
</extensions>
</trkpt>
<trkpt lat="63.827362061" lon="-18.767875671">
<ele>528.093750</ele>
<time>2012-07-25T13:59:52Z</time>
<speed>4.640000</speed>
<extensions>
<speed>4.6</speed>
<temp>0.00</temp>
<bpm>0</bpm>
<rpm>0.00</rpm>
</extensions>
</trkpt>
<trkpt lat="63.827255249" lon="-18.768301010">
<ele>526.578125</ele>
<time>2012-07-25T13:59:57Z</time>
<speed>4.930000</speed>
<extensions>
<speed>4.9</speed>
<temp>0.00</temp>
<bpm>0</bpm>
<rpm>0.00</rpm>
</extensions>
</trkpt>
<trkpt lat="63.827136993" lon="-18.768741608">
<ele>523.343750</ele>
<time>2012-07-25T14:00:02Z</time>
<speed>4.960000</speed>
<extensions>
<speed>5.0</speed>
<temp>0.00</temp>
<bpm>0</bpm>
<rpm>0.00</rpm>
</extensions>
</trkpt>
<trkpt lat="63.827014923" lon="-18.769170761">
<ele>520.578125</ele>
<time>2012-07-25T14:00:07Z</time>
<speed>4.610000</speed>
<extensions>
<speed>4.6</speed>
<temp>0.00</temp>
<bpm>0</bpm>
<rpm>0.00</rpm>
</extensions>
</trkpt>
<trkpt lat="63.826927185" lon="-18.769552231">
<ele>518.015625</ele>
<time>2012-07-25T14:00:12Z</time>
<speed>3.830000</speed>
<extensions>
<speed>3.8</speed>
<temp>0.00</temp>
<bpm>0</bpm>
<rpm>0.00</rpm>
</extensions>
</trkpt>
<trkpt lat="63.826847076" lon="-18.769966125">
<ele>514.828125</ele>
<time>2012-07-25T14:00:17Z</time>
<speed>4.990000</speed>
<extensions>
<speed>5.0</speed>
<temp>0.00</temp>
<bpm>0</bpm>
<rpm>0.00</rpm>
</extensions>
</trkpt>
<trkpt lat="63.826812744" lon="-18.770345688">
<ele>512.359375</ele>
<time>2012-07-25T14:00:22Z</time>
<speed>3.040000</speed>
<extensions>
<speed>3.0</speed>
<temp>0.00</temp>
<bpm>0</bpm>
<rpm>0.00</rpm>
</extensions>
</trkpt>
<trkpt lat="63.826797485" lon="-18.770538330">
<ele>511.039063</ele>
<time>2012-07-25T14:00:27Z</time>
<speed>0.920000</speed>
<extensions>
<speed>0.9</speed>
<temp>0.00</temp>
<bpm>0</bpm>
<rpm>0.00</rpm>
</extensions>
</trkpt>
<trkpt lat="63.826824188" lon="-18.770576477">
<ele>512.937500</ele>
<time>2012-07-25T14:00:32Z</time>
<speed>0.580000</speed>
<extensions>
<speed>0.6</speed>
<temp>0.00</temp>
<bpm>0</bpm>
<rpm>0.00</rpm>
</extensions>
</trkpt>
<trkpt lat="63.826828003" lon="-18.770587921">
<ele>513.812500</ele>
<time>2012-07-25T14:00:37Z</time>
<speed>0.150000</speed>
<extensions>
<speed>0.2</speed>
<temp>0.00</temp>
<bpm>0</bpm>
<rpm>0.00</rpm>
</extensions>
</trkpt>
<trkpt lat="63.826824188" lon="-18.770589828">
<ele>513.859375</ele>
<time>2012-07-25T14:00:42Z</time>
<speed>0.060000</speed>
<extensions>
<speed>0.1</speed>
<temp>0.00</temp>
<bpm>0</bpm>
<rpm>0.00</rpm>
</extensions>
</trkpt>
<trkpt lat="63.826828003" lon="-18.770591736">
<ele>513.906250</ele>
<time>2012-07-25T14:00:47Z</time>
<speed>0.020000</speed>
<extensions>
<speed>0.0</speed>
<temp>0.00</temp>
<bpm>0</bpm>
<rpm>0.00</rpm>
</extensions>
</trkpt>
<trkpt lat="63.826828003" lon="-18.770591736">
<ele>513.937500</ele>
<time>2012-07-25T14:00:52Z</time>
<speed>0.040000</speed>
<extensions>
<speed>0.0</speed>
<temp>0.00</temp>
<bpm>0</bpm>
<rpm>0.00</rpm>
</extensions>
</trkpt>
<trkpt lat="63.826824188" lon="-18.770591736">
<ele>513.968750</ele>
<time>2012-07-25T14:00:57Z</time>
<speed>0.160000</speed>
<extensions>
<speed>0.2</speed>
<temp>0.00</temp>
<bpm>0</bpm>
<rpm>0.00</rpm>
</extensions>
</trkpt>
<trkpt lat="63.826824188" lon="-18.770597458">
<ele>514.062500</ele>
<time>2012-07-25T14:01:02Z</time>
<speed>0.030000</speed>
<extensions>
<speed>0.0</speed>
<temp>0.00</temp>
<bpm>0</bpm>
<rpm>0.00</rpm>
</extensions>
</trkpt>
<trkpt lat="63.826828003" lon="-18.770589828">
<ele>514.125000</ele>
<time>2012-07-25T14:01:07Z</time>
<speed>0.210000</speed>
<extensions>
<speed>0.2</speed>
<temp>0.00</temp>
<bpm>0</bpm>
<rpm>0.00</rpm>
</extensions>
</trkpt>
<trkpt lat="63.826828003" lon="-18.770580292">
<ele>514.250000</ele>
<time>2012-07-25T14:01:12Z</time>
<speed>0.160000</speed>
<extensions>
<speed>0.2</speed>
<temp>0.00</temp>
<bpm>0</bpm>
<rpm>0.00</rpm>
</extensions>
</trkpt>
<trkpt lat="63.826831818" lon="-18.770572662">
<ele>513.718750</ele>
<time>2012-07-25T14:01:17Z</time>
<speed>0.080000</speed>
<extensions>
<speed>0.1</speed>
<temp>0.00</temp>
<bpm>0</bpm>
<rpm>0.00</rpm>
</extensions>
</trkpt>
<trkpt lat="63.826835632" lon="-18.770570755">
<ele>513.562500</ele>
<time>2012-07-25T14:01:22Z</time>
<speed>0.220000</speed>
<extensions>
<speed>0.2</speed>
<temp>0.00</temp>
<bpm>0</bpm>
<rpm>0.00</rpm>
</extensions>
</trkpt>
<trkpt lat="63.826839447" lon="-18.770578384">
<ele>513.593750</ele>
<time>2012-07-25T14:01:27Z</time>
<speed>0.080000</speed>
<extensions>
<speed>0.1</speed>
<temp>0.00</temp>
<bpm>0</bpm>
<rpm>0.00</rpm>
</extensions>
</trkpt>
<trkpt lat="63.826862335" lon="-18.770574570">
<ele>513.015625</ele>
<time>2012-07-25T14:01:32Z</time>
<speed>0.320000</speed>
<extensions>
<speed>0.3</speed>
<temp>0.00</temp>
<bpm>0</bpm>
<rpm>0.00</rpm>
</extensions>
</trkpt>
<trkpt lat="63.826866150" lon="-18.770568848">
<ele>512.718750</ele>
<time>2012-07-25T14:01:37Z</time>
<speed>0.280000</speed>
<extensions>
<speed>0.3</speed>
<temp>0.00</temp>
<bpm>0</bpm>
<rpm>0.00</rpm>
</extensions>
</trkpt>
<trkpt lat="63.826877594" lon="-18.770587921">
<ele>512.453125</ele>
<time>2012-07-25T14:01:42Z</time>
<speed>0.370000</speed>
<extensions>
<speed>0.4</speed>
<temp>0.00</temp>
<bpm>0</bpm>
<rpm>0.00</rpm>
</extensions>
</trkpt>
<trkpt lat="63.826869965" lon="-18.770601273">
<ele>512.328125</ele>
<time>2012-07-25T14:01:47Z</time>
<speed>0.070000</speed>
<extensions>
<speed>0.1</speed>
<temp>0.00</temp>
<bpm>0</bpm>
<rpm>0.00</rpm>
</extensions>
</trkpt>
<trkpt lat="63.826869965" lon="-18.770603180">
<ele>512.437500</ele>
<time>2012-07-25T14:01:52Z</time>
<speed>0.130000</speed>
<extensions>
<speed>0.1</speed>
<temp>0.00</temp>
<bpm>0</bpm>
<rpm>0.00</rpm>
</extensions>
</trkpt>
<trkpt lat="63.826877594" lon="-18.770599365">
<ele>512.546875</ele>
<time>2012-07-25T14:01:57Z</time>
<speed>0.230000</speed>
<extensions>
<speed>0.2</speed>
<temp>0.00</temp>
<bpm>0</bpm>
<rpm>0.00</rpm>
</extensions>
</trkpt>
<trkpt lat="63.826885223" lon="-18.770599365">
<ele>512.625000</ele>
<time>2012-07-25T14:02:02Z</time>
<speed>0.060000</speed>
<extensions>
<speed>0.1</speed>
<temp>0.00</temp>
<bpm>0</bpm>
<rpm>0.00</rpm>
</extensions>
</trkpt>
<trkpt lat="63.826881409" lon="-18.770591736">
<ele>512.656250</ele>
<time>2012-07-25T14:02:07Z</time>
<speed>0.290000</speed>
<extensions>
<speed>0.3</speed>
<temp>0.00</temp>
<bpm>0</bpm>
<rpm>0.00</rpm>
</extensions>
</trkpt>
<trkpt lat="63.826869965" lon="-18.770586014">
<ele>512.953125</ele>
<time>2012-07-25T14:02:12Z</time>
<speed>0.110000</speed>
<extensions>
<speed>0.1</speed>
<temp>0.00</temp>
<bpm>0</bpm>
<rpm>0.00</rpm>
</extensions>
</trkpt>
<trkpt lat="63.826843262" lon="-18.770622253">
<ele>513.859375</ele>
<time>2012-07-25T14:02:17Z</time>
<speed>0.880000</speed>
<extensions>
<speed>0.9</speed>
<temp>0.00</temp>
<bpm>0</bpm>
<rpm>0.00</rpm>
</extensions>
</trkpt>
<trkpt lat="63.826843262" lon="-18.770671844">
<ele>514.406250</ele>
<time>2012-07-25T14:02:22Z</time>
<speed>0.030000</speed>
<extensions>
<speed>0.0</speed>
<temp>0.00</temp>
<bpm>0</bpm>
<rpm>0.00</rpm>
</extensions>
</trkpt>
<trkpt lat="63.826843262" lon="-18.770673752">
<ele>514.578125</ele>
<time>2012-07-25T14:02:27Z</time>
<speed>0.080000</speed>
<extensions>
<speed>0.1</speed>
<temp>0.00</temp>
<bpm>0</bpm>
<rpm>0.00</rpm>
</extensions>
</trkpt>
<trkpt lat="63.826847076" lon="-18.770704269">
<ele>514.281250</ele>
<time>2012-07-25T14:02:32Z</time>
<speed>1.180000</speed>
<extensions>
<speed>1.2</speed>
<temp>0.00</temp>
<bpm>0</bpm>
<rpm>0.00</rpm>
</extensions>
</trkpt>
<trkpt lat="63.826877594" lon="-18.770778656">
<ele>515.250000</ele>
<time>2012-07-25T14:02:37Z</time>
<speed>1.040000</speed>
<extensions>
<speed>1.0</speed>
<temp>0.00</temp>
<bpm>0</bpm>
<rpm>0.00</rpm>
</extensions>
</trkpt>
<trkpt lat="63.826904297" lon="-18.770835876">
<ele>513.750000</ele>
<time>2012-07-25T14:02:42Z</time>
<speed>1.070000</speed>
<extensions>
<speed>1.1</speed>
<temp>0.00</temp>
<bpm>0</bpm>
<rpm>0.00</rpm>
</extensions>
</trkpt>
<trkpt lat="63.826927185" lon="-18.770906448">
<ele>513.781250</ele>
<time>2012-07-25T14:02:47Z</time>
<speed>0.870000</speed>
<extensions>
<speed>0.9</speed>
<temp>0.00</temp>
<bpm>0</bpm>
<rpm>0.00</rpm>
</extensions>
</trkpt>
<trkpt lat="63.826942444" lon="-18.770940781">
<ele>515.140625</ele>
<time>2012-07-25T14:02:52Z</time>
<speed>0.010000</speed>
<extensions>
<speed>0.0</speed>
<temp>0.00</temp>
<bpm>0</bpm>
<rpm>0.00</rpm>
</extensions>
</trkpt>
<trkpt lat="63.826938629" lon="-18.770978928">
<ele>514.265625</ele>
<time>2012-07-25T14:02:57Z</time>
<speed>0.210000</speed>
<extensions>
<speed>0.2</speed>
<temp>0.00</temp>
<bpm>0</bpm>
<rpm>0.00</rpm>
</extensions>
</trkpt>
<trkpt lat="63.826961517" lon="-18.771024704">
<ele>514.359375</ele>
<time>2012-07-25T14:03:02Z</time>
<speed>0.820000</speed>
<extensions>
<speed>0.8</speed>
<temp>0.00</temp>
<bpm>0</bpm>
<rpm>0.00</rpm>
</extensions>
</trkpt>
<trkpt lat="63.826999664" lon="-18.771047592">
<ele>513.671875</ele>
<time>2012-07-25T14:03:07Z</time>
<speed>1.140000</speed>
<extensions>
<speed>1.1</speed>
<temp>0.00</temp>
<bpm>0</bpm>
<rpm>0.00</rpm>
</extensions>
</trkpt>
<trkpt lat="63.827053070" lon="-18.771036148">
<ele>514.796875</ele>
<time>2012-07-25T14:03:12Z</time>
<speed>1.180000</speed>
<extensions>
<speed>1.2</speed>
<temp>0.00</temp>
<bpm>0</bpm>
<rpm>0.00</rpm>
</extensions>
</trkpt>
<trkpt lat="63.827091217" lon="-18.771053314">
<ele>510.835938</ele>
<time>2012-07-25T14:03:17Z</time>
<speed>0.190000</speed>
<extensions>
<speed>0.2</speed>
<temp>0.00</temp>
<bpm>0</bpm>
<rpm>0.00</rpm>
</extensions>
</trkpt>
<trkpt lat="63.827102661" lon="-18.771055222">
<ele>510.179688</ele>
<time>2012-07-25T14:03:22Z</time>
<speed>0.040000</speed>
<extensions>
<speed>0.0</speed>
<temp>0.00</temp>
<bpm>0</bpm>
<rpm>0.00</rpm>
</extensions>
</trkpt>
<trkpt lat="63.827110291" lon="-18.771049500">
<ele>510.789063</ele>
<time>2012-07-25T14:03:27Z</time>
<speed>0.160000</speed>
<extensions>
<speed>0.2</speed>
<temp>0.00</temp>
<bpm>0</bpm>
<rpm>0.00</rpm>
</extensions>
</trkpt>
<trkpt lat="63.827159882" lon="-18.771060944">
<ele>512.640625</ele>
<time>2012-07-25T14:03:32Z</time>
<speed>1.380000</speed>
<extensions>
<speed>1.4</speed>
<temp>0.00</temp>
<bpm>0</bpm>
<rpm>0.00</rpm>
</extensions>
</trkpt>
<trkpt lat="63.827201843" lon="-18.771080017">
<ele>512.453125</ele>
<time>2012-07-25T14:03:37Z</time>
<speed>0.860000</speed>
<extensions>
<speed>0.9</speed>
<temp>0.00</temp>
<bpm>0</bpm>
<rpm>0.00</rpm>
</extensions>
</trkpt>
<trkpt lat="63.827213287" lon="-18.771167755">
<ele>513.734375</ele>
<time>2012-07-25T14:03:42Z</time>
<speed>0.990000</speed>
<extensions>
<speed>1.0</speed>
<temp>0.00</temp>
<bpm>0</bpm>
<rpm>0.00</rpm>
</extensions>
</trkpt>
<trkpt lat="63.827205658" lon="-18.771263123">
<ele>513.656250</ele>
<time>2012-07-25T14:03:47Z</time>
<speed>1.100000</speed>
<extensions>
<speed>1.1</speed>
<temp>0.00</temp>
<bpm>0</bpm>
<rpm>0.00</rpm>
</extensions>
</trkpt>
<trkpt lat="63.827194214" lon="-18.771369934">
<ele>515.328125</ele>
<time>2012-07-25T14:03:52Z</time>
<speed>1.090000</speed>
<extensions>
<speed>1.1</speed>
<temp>0.00</temp>
<bpm>0</bpm>
<rpm>0.00</rpm>
</extensions>
</trkpt>
<trkpt lat="63.827186584" lon="-18.771492004">
<ele>516.421875</ele>
<time>2012-07-25T14:03:57Z</time>
<speed>1.240000</speed>
<extensions>
<speed>1.2</speed>
<temp>0.00</temp>
<bpm>0</bpm>
<rpm>0.00</rpm>
</extensions>
</trkpt>
<trkpt lat="63.827178955" lon="-18.771581650">
<ele>517.265625</ele>
<time>2012-07-25T14:04:02Z</time>
<speed>0.750000</speed>
<extensions>
<speed>0.8</speed>
<temp>0.00</temp>
<bpm>0</bpm>
<rpm>0.00</rpm>
</extensions>
</trkpt>
<trkpt lat="63.827156067" lon="-18.771619797">
<ele>519.265625</ele>
<time>2012-07-25T14:04:07Z</time>
<speed>0.620000</speed>
<extensions>
<speed>0.6</speed>
<temp>0.00</temp>
<bpm>0</bpm>
<rpm>0.00</rpm>
</extensions>
</trkpt>
<trkpt lat="63.827133179" lon="-18.771669388">
<ele>521.515625</ele>
<time>2012-07-25T14:04:12Z</time>
<speed>0.810000</speed>
<extensions>
<speed>0.8</speed>
<temp>0.00</temp>
<bpm>0</bpm>
<rpm>0.00</rpm>
</extensions>
</trkpt>
<trkpt lat="63.827125549" lon="-18.771722794">
<ele>523.671875</ele>
<time>2012-07-25T14:04:17Z</time>
<speed>0.770000</speed>
<extensions>
<speed>0.8</speed>
<temp>0.00</temp>
<bpm>0</bpm>
<rpm>0.00</rpm>
</extensions>
</trkpt>
<trkpt lat="63.827114105" lon="-18.771783829">
<ele>525.500000</ele>
<time>2012-07-25T14:04:22Z</time>
<speed>0.840000</speed>
<extensions>
<speed>0.8</speed>
<temp>0.00</temp>
<bpm>0</bpm>
<rpm>0.00</rpm>
</extensions>
</trkpt>
<trkpt lat="63.827106476" lon="-18.771858215">
<ele>527.062500</ele>
<time>2012-07-25T14:04:27Z</time>
<speed>0.710000</speed>
<extensions>
<speed>0.7</speed>
<temp>0.00</temp>
<bpm>0</bpm>
<rpm>0.00</rpm>
</extensions>
</trkpt>
<trkpt lat="63.827072144" lon="-18.771884918">
<ele>526.609375</ele>
<time>2012-07-25T14:04:32Z</time>
<speed>0.830000</speed>
<extensions>
<speed>0.8</speed>
<temp>0.00</temp>
<bpm>0</bpm>
<rpm>0.00</rpm>
</extensions>
</trkpt>
<trkpt lat="63.827041626" lon="-18.771970749">
<ele>527.671875</ele>
<time>2012-07-25T14:04:37Z</time>
<speed>0.820000</speed>
<extensions>
<speed>0.8</speed>
<temp>0.00</temp>
<bpm>0</bpm>
<rpm>0.00</rpm>
</extensions>
</trkpt>
<trkpt lat="63.827014923" lon="-18.772031784">
<ele>528.406250</ele>
<time>2012-07-25T14:04:42Z</time>
<speed>0.750000</speed>
<extensions>
<speed>0.8</speed>
<temp>0.00</temp>
<bpm>0</bpm>
<rpm>0.00</rpm>
</extensions>
</trkpt>
<trkpt lat="63.826992035" lon="-18.772062302">
<ele>527.000000</ele>
<time>2012-07-25T14:04:47Z</time>
<speed>0.580000</speed>
<extensions>
<speed>0.6</speed>
<temp>0.00</temp>
<bpm>0</bpm>
<rpm>0.00</rpm>
</extensions>
</trkpt>
<trkpt lat="63.826969147" lon="-18.772087097">
<ele>526.218750</ele>
<time>2012-07-25T14:04:52Z</time>
<speed>0.740000</speed>
<extensions>
<speed>0.7</speed>
<temp>0.00</temp>
<bpm>0</bpm>
<rpm>0.00</rpm>
</extensions>
</trkpt>
<trkpt lat="63.826953888" lon="-18.772167206">
<ele>526.859375</ele>
<time>2012-07-25T14:04:57Z</time>
<speed>0.810000</speed>
<extensions>
<speed>0.8</speed>
<temp>0.00</temp>
<bpm>0</bpm>
<rpm>0.00</rpm>
</extensions>
</trkpt>
<trkpt lat="63.826931000" lon="-18.772235870">
<ele>527.953125</ele>
<time>2012-07-25T14:05:02Z</time>
<speed>0.580000</speed>
<extensions>
<speed>0.6</speed>
<temp>0.00</temp>
<bpm>0</bpm>
<rpm>0.00</rpm>
</extensions>
</trkpt>
<trkpt lat="63.826915741" lon="-18.772310257">
<ele>528.578125</ele>
<time>2012-07-25T14:05:07Z</time>
<speed>0.790000</speed>
<extensions>
<speed>0.8</speed>
<temp>0.00</temp>
<bpm>0</bpm>
<rpm>0.00</rpm>
</extensions>
</trkpt>
<trkpt lat="63.826900482" lon="-18.772399902">
<ele>529.562500</ele>
<time>2012-07-25T14:05:12Z</time>
<speed>0.720000</speed>
<extensions>
<speed>0.7</speed>
<temp>0.00</temp>
<bpm>0</bpm>
<rpm>0.00</rpm>
</extensions>
</trkpt>
<trkpt lat="63.826892853" lon="-18.772409439">
<ele>529.562500</ele>
<time>2012-07-25T14:05:17Z</time>
<speed>0.010000</speed>
<extensions>
<speed>0.0</speed>
<temp>0.00</temp>
<bpm>0</bpm>
<rpm>0.00</rpm>
</extensions>
</trkpt>
<trkpt lat="63.826892853" lon="-18.772409439">
<ele>529.453125</ele>
<time>2012-07-25T14:05:22Z</time>
<speed>0.030000</speed>
<extensions>
<speed>0.0</speed>
<temp>0.00</temp>
<bpm>0</bpm>
<rpm>0.00</rpm>
</extensions>
</trkpt>
<trkpt lat="63.826881409" lon="-18.772430420">
<ele>529.250000</ele>
<time>2012-07-25T14:05:27Z</time>
<speed>0.800000</speed>
<extensions>
<speed>0.8</speed>
<temp>0.00</temp>
<bpm>0</bpm>
<rpm>0.00</rpm>
</extensions>
</trkpt>
<trkpt lat="63.826850891" lon="-18.772514343">
<ele>530.359375</ele>
<time>2012-07-25T14:05:32Z</time>
<speed>0.970000</speed>
<extensions>
<speed>1.0</speed>
<temp>0.00</temp>
<bpm>0</bpm>
<rpm>0.00</rpm>
</extensions>
</trkpt>
<trkpt lat="63.826824188" lon="-18.772584915">
<ele>530.156250</ele>
<time>2012-07-25T14:05:37Z</time>
<speed>0.870000</speed>
<extensions>
<speed>0.9</speed>
<temp>0.00</temp>
<bpm>0</bpm>
<rpm>0.00</rpm>
</extensions>
</trkpt>
<trkpt lat="63.826801300" lon="-18.772659302">
<ele>529.828125</ele>
<time>2012-07-25T14:05:42Z</time>
<speed>1.030000</speed>
<extensions>
<speed>1.0</speed>
<temp>0.00</temp>
<bpm>0</bpm>
<rpm>0.00</rpm>
</extensions>
</trkpt>
<trkpt lat="63.826763153" lon="-18.772689819">
<ele>529.437500</ele>
<time>2012-07-25T14:05:47Z</time>
<speed>0.940000</speed>
<extensions>
<speed>0.9</speed>
<temp>0.00</temp>
<bpm>0</bpm>
<rpm>0.00</rpm>
</extensions>
</trkpt>
<trkpt lat="63.826732635" lon="-18.772754669">
<ele>529.937500</ele>
<time>2012-07-25T14:05:52Z</time>
<speed>1.450000</speed>
<extensions>
<speed>1.4</speed>
<temp>0.00</temp>
<bpm>0</bpm>
<rpm>0.00</rpm>
</extensions>
</trkpt>
<trkpt lat="63.826705933" lon="-18.772853851">
<ele>530.812500</ele>
<time>2012-07-25T14:05:57Z</time>
<speed>0.960000</speed>
<extensions>
<speed>1.0</speed>
<temp>0.00</temp>
<bpm>0</bpm>
<rpm>0.00</rpm>
</extensions>
</trkpt>
<trkpt lat="63.826641083" lon="-18.772869110">
<ele>530.171875</ele>
<time>2012-07-25T14:06:02Z</time>
<speed>1.250000</speed>
<extensions>
<speed>1.3</speed>
<temp>0.00</temp>
<bpm>0</bpm>
<rpm>0.00</rpm>
</extensions>
</trkpt>
<trkpt lat="63.826587677" lon="-18.772928238">
<ele>530.375000</ele>
<time>2012-07-25T14:06:07Z</time>
<speed>0.880000</speed>
<extensions>
<speed>0.9</speed>
<temp>0.00</temp>
<bpm>0</bpm>
<rpm>0.00</rpm>
</extensions>
</trkpt>
<trkpt lat="63.826526642" lon="-18.772979736">
<ele>530.671875</ele>
<time>2012-07-25T14:06:12Z</time>
<speed>1.290000</speed>
<extensions>
<speed>1.3</speed>
<temp>0.00</temp>
<bpm>0</bpm>
<rpm>0.00</rpm>
</extensions>
</trkpt>
<trkpt lat="63.826499939" lon="-18.773035049">
<ele>531.890625</ele>
<time>2012-07-25T14:06:17Z</time>
<speed>1.000000</speed>
<extensions>
<speed>1.0</speed>
<temp>0.00</temp>
<bpm>0</bpm>
<rpm>0.00</rpm>
</extensions>
</trkpt>
<trkpt lat="63.826446533" lon="-18.773099899">
<ele>532.531250</ele>
<time>2012-07-25T14:06:22Z</time>
<speed>2.040000</speed>
<extensions>
<speed>2.0</speed>
<temp>0.00</temp>
<bpm>0</bpm>
<rpm>0.00</rpm>
</extensions>
</trkpt>
<trkpt lat="63.826404572" lon="-18.773143768">
<ele>532.062500</ele>
<time>2012-07-25T14:06:27Z</time>
<speed>1.300000</speed>
<extensions>
<speed>1.3</speed>
<temp>0.00</temp>
<bpm>0</bpm>
<rpm>0.00</rpm>
</extensions>
</trkpt>
<trkpt lat="63.826358795" lon="-18.773180008">
<ele>531.640625</ele>
<time>2012-07-25T14:06:32Z</time>
<speed>0.800000</speed>
<extensions>
<speed>0.8</speed>
<temp>0.00</temp>
<bpm>0</bpm>
<rpm>0.00</rpm>
</extensions>
</trkpt>
<trkpt lat="63.826339722" lon="-18.773210526">
<ele>532.453125</ele>
<time>2012-07-25T14:06:37Z</time>
<speed>0.160000</speed>
<extensions>
<speed>0.2</speed>
<temp>0.00</temp>
<bpm>0</bpm>
<rpm>0.00</rpm>
</extensions>
</trkpt>
<trkpt lat="63.826335907" lon="-18.773212433">
<ele>532.953125</ele>
<time>2012-07-25T14:06:42Z</time>
<speed>0.010000</speed>
<extensions>
<speed>0.0</speed>
<temp>0.00</temp>
<bpm>0</bpm>
<rpm>0.00</rpm>
</extensions>
</trkpt>
<trkpt lat="63.826335907" lon="-18.773212433">
<ele>533.093750</ele>
<time>2012-07-25T14:06:47Z</time>
<speed>0.020000</speed>
<extensions>
<speed>0.0</speed>
<temp>0.00</temp>
<bpm>0</bpm>
<rpm>0.00</rpm>
</extensions>
</trkpt>
<trkpt lat="63.826332092" lon="-18.773210526">
<ele>533.218750</ele>
<time>2012-07-25T14:06:52Z</time>
<speed>0.180000</speed>
<extensions>
<speed>0.2</speed>
<temp>0.00</temp>
<bpm>0</bpm>
<rpm>0.00</rpm>
</extensions>
</trkpt>
<trkpt lat="63.826343536" lon="-18.773197174">
<ele>533.828125</ele>
<time>2012-07-25T14:06:57Z</time>
<speed>0.230000</speed>
<extensions>
<speed>0.2</speed>
<temp>0.00</temp>
<bpm>0</bpm>
<rpm>0.00</rpm>
</extensions>
</trkpt>
<trkpt lat="63.826339722" lon="-18.773206711">
<ele>534.109375</ele>
<time>2012-07-25T14:07:02Z</time>
<speed>1.010000</speed>
<extensions>
<speed>1.0</speed>
<temp>0.00</temp>
<bpm>0</bpm>
<rpm>0.00</rpm>
</extensions>
</trkpt>
<trkpt lat="63.826316833" lon="-18.773225784">
<ele>533.343750</ele>
<time>2012-07-25T14:07:07Z</time>
<speed>0.090000</speed>
<extensions>
<speed>0.1</speed>
<temp>0.00</temp>
<bpm>0</bpm>
<rpm>0.00</rpm>
</extensions>
</trkpt>
<trkpt lat="63.826320648" lon="-18.773221970">
<ele>532.906250</ele>
<time>2012-07-25T14:07:12Z</time>
<speed>0.230000</speed>
<extensions>
<speed>0.2</speed>
<temp>0.00</temp>
<bpm>0</bpm>
<rpm>0.00</rpm>
</extensions>
</trkpt>
<trkpt lat="63.826313019" lon="-18.773204803">
<ele>532.640625</ele>
<time>2012-07-25T14:07:17Z</time>
<speed>0.210000</speed>
<extensions>
<speed>0.2</speed>
<temp>0.00</temp>
<bpm>0</bpm>
<rpm>0.00</rpm>
</extensions>
</trkpt>
<trkpt lat="63.826309204" lon="-18.773193359">
<ele>532.375000</ele>
<time>2012-07-25T14:07:22Z</time>
<speed>0.160000</speed>
<extensions>
<speed>0.2</speed>
<temp>0.00</temp>
<bpm>0</bpm>
<rpm>0.00</rpm>
</extensions>
</trkpt>
<trkpt lat="63.826244354" lon="-18.773233414">
<ele>532.125000</ele>
<time>2012-07-25T14:07:27Z</time>
<speed>2.010000</speed>
<extensions>
<speed>2.0</speed>
<temp>0.00</temp>
<bpm>0</bpm>
<rpm>0.00</rpm>
</extensions>
</trkpt>
<trkpt lat="63.826133728" lon="-18.773330688">
<ele>532.859375</ele>
<time>2012-07-25T14:07:32Z</time>
<speed>2.800000</speed>
<extensions>
<speed>2.8</speed>
<temp>0.00</temp>
<bpm>0</bpm>
<rpm>0.00</rpm>
</extensions>
</trkpt>
<trkpt lat="63.826038361" lon="-18.773406982">
<ele>533.656250</ele>
<time>2012-07-25T14:07:37Z</time>
<speed>2.180000</speed>
<extensions>
<speed>2.2</speed>
<temp>0.00</temp>
<bpm>0</bpm>
<rpm>0.00</rpm>
</extensions>
</trkpt>
<trkpt lat="63.825916290" lon="-18.773506165">
<ele>534.437500</ele>
<time>2012-07-25T14:07:42Z</time>
<speed>2.910000</speed>
<extensions>
<speed>2.9</speed>
<temp>0.00</temp>
<bpm>0</bpm>
<rpm>0.00</rpm>
</extensions>
</trkpt>
<trkpt lat="63.825801849" lon="-18.773630142">
<ele>535.265625</ele>
<time>2012-07-25T14:07:47Z</time>
<speed>3.270000</speed>
<extensions>
<speed>3.3</speed>
<temp>0.00</temp>
<bpm>0</bpm>
<rpm>0.00</rpm>
</extensions>
</trkpt>
<trkpt lat="63.825695038" lon="-18.773756027">
<ele>535.281250</ele>
<time>2012-07-25T14:07:52Z</time>
<speed>2.450000</speed>
<extensions>
<speed>2.4</speed>
<temp>0.00</temp>
<bpm>0</bpm>
<rpm>0.00</rpm>
</extensions>
</trkpt>
<trkpt lat="63.825614929" lon="-18.773883820">
<ele>536.609375</ele>
<time>2012-07-25T14:07:57Z</time>
<speed>2.430000</speed>
<extensions>
<speed>2.4</speed>
<temp>0.00</temp>
<bpm>0</bpm>
<rpm>0.00</rpm>
</extensions>
</trkpt>
<trkpt lat="63.825519562" lon="-18.774013519">
<ele>537.156250</ele>
<time>2012-07-25T14:08:02Z</time>
<speed>2.220000</speed>
<extensions>
<speed>2.2</speed>
<temp>0.00</temp>
<bpm>0</bpm>
<rpm>0.00</rpm>
</extensions>
</trkpt>
<trkpt lat="63.825416565" lon="-18.774168015">
<ele>538.000000</ele>
<time>2012-07-25T14:08:07Z</time>
<speed>2.550000</speed>
<extensions>
<speed>2.6</speed>
<temp>0.00</temp>
<bpm>0</bpm>
<rpm>0.00</rpm>
</extensions>
</trkpt>
<trkpt lat="63.825305939" lon="-18.774322510">
<ele>537.859375</ele>
<time>2012-07-25T14:08:12Z</time>
<speed>2.810000</speed>
<extensions>
<speed>2.8</speed>
<temp>0.00</temp>
<bpm>0</bpm>
<rpm>0.00</rpm>
</extensions>
</trkpt>
<trkpt lat="63.825244904" lon="-18.774511337">
<ele>538.171875</ele>
<time>2012-07-25T14:08:17Z</time>
<speed>2.710000</speed>
<extensions>
<speed>2.7</speed>
<temp>0.00</temp>
<bpm>0</bpm>
<rpm>0.00</rpm>
</extensions>
</trkpt>
<trkpt lat="63.825157166" lon="-18.774688721">
<ele>537.843750</ele>
<time>2012-07-25T14:08:22Z</time>
<speed>2.550000</speed>
<extensions>
<speed>2.6</speed>
<temp>0.00</temp>
<bpm>0</bpm>
<rpm>0.00</rpm>
</extensions>
</trkpt>
<trkpt lat="63.825084686" lon="-18.774837494">
<ele>538.890625</ele>
<time>2012-07-25T14:08:27Z</time>
<speed>2.020000</speed>
<extensions>
<speed>2.0</speed>
<temp>0.00</temp>
<bpm>0</bpm>
<rpm>0.00</rpm>
</extensions>
</trkpt>
<trkpt lat="63.825023651" lon="-18.775003433">
<ele>539.718750</ele>
<time>2012-07-25T14:08:32Z</time>
<speed>2.000000</speed>
<extensions>
<speed>2.0</speed>
<temp>0.00</temp>
<bpm>0</bpm>
<rpm>0.00</rpm>
</extensions>
</trkpt>
<trkpt lat="63.824970245" lon="-18.775163651">
<ele>539.296875</ele>
<time>2012-07-25T14:08:37Z</time>
<speed>2.220000</speed>
<extensions>
<speed>2.2</speed>
<temp>0.00</temp>
<bpm>0</bpm>
<rpm>0.00</rpm>
</extensions>
</trkpt>
<trkpt lat="63.824935913" lon="-18.775291443">
<ele>538.593750</ele>
<time>2012-07-25T14:08:42Z</time>
<speed>0.160000</speed>
<extensions>
<speed>0.2</speed>
<temp>0.00</temp>
<bpm>0</bpm>
<rpm>0.00</rpm>
</extensions>
</trkpt>
<trkpt lat="63.824939728" lon="-18.775281906">
<ele>537.109375</ele>
<time>2012-07-25T14:08:47Z</time>
<speed>0.120000</speed>
<extensions>
<speed>0.1</speed>
<temp>0.00</temp>
<bpm>0</bpm>
<rpm>0.00</rpm>
</extensions>
</trkpt>
<trkpt lat="63.824935913" lon="-18.775281906">
<ele>536.796875</ele>
<time>2012-07-25T14:08:52Z</time>
<speed>0.080000</speed>
<extensions>
<speed>0.1</speed>
<temp>0.00</temp>
<bpm>0</bpm>
<rpm>0.00</rpm>
</extensions>
</trkpt>
<trkpt lat="63.824939728" lon="-18.775276184">
<ele>536.781250</ele>
<time>2012-07-25T14:08:57Z</time>
<speed>0.230000</speed>
<extensions>
<speed>0.2</speed>
<temp>0.00</temp>
<bpm>0</bpm>
<rpm>0.00</rpm>
</extensions>
</trkpt>
<trkpt lat="63.824939728" lon="-18.775276184">
<ele>536.843750</ele>
<time>2012-07-25T14:09:02Z</time>
<speed>0.040000</speed>
<extensions>
<speed>0.0</speed>
<temp>0.00</temp>
<bpm>0</bpm>
<rpm>0.00</rpm>
</extensions>
</trkpt>
<trkpt lat="63.824935913" lon="-18.775278091">
<ele>536.937500</ele>
<time>2012-07-25T14:09:07Z</time>
<speed>0.020000</speed>
<extensions>
<speed>0.0</speed>
<temp>0.00</temp>
<bpm>0</bpm>
<rpm>0.00</rpm>
</extensions>
</trkpt>
<trkpt lat="63.824935913" lon="-18.775278091">
<ele>536.906250</ele>
<time>2012-07-25T14:09:12Z</time>
<extensions>
<speed>0.0</speed>
<temp>0.00</temp>
<bpm>0</bpm>
<rpm>0.00</rpm>
</extensions>
</trkpt>
<trkpt lat="63.824935913" lon="-18.775279999">
<ele>536.937500</ele>
<time>2012-07-25T14:09:17Z</time>
<speed>0.020000</speed>
<extensions>
<speed>0.0</speed>
<temp>0.00</temp>
<bpm>0</bpm>
<rpm>0.00</rpm>
</extensions>
</trkpt>
<trkpt lat="63.824935913" lon="-18.775279999">
<ele>536.937500</ele>
<time>2012-07-25T14:09:22Z</time>
<extensions>
<speed>0.0</speed>
<temp>0.00</temp>
<bpm>0</bpm>
<rpm>0.00</rpm>
</extensions>
</trkpt>
<trkpt lat="63.824935913" lon="-18.775279999">
<ele>536.921875</ele>
<time>2012-07-25T14:09:27Z</time>
<extensions>
<speed>0.0</speed>
<temp>0.00</temp>
<bpm>0</bpm>
<rpm>0.00</rpm>
</extensions>
</trkpt>
<trkpt lat="63.824932098" lon="-18.775279999">
<ele>536.906250</ele>
<time>2012-07-25T14:09:32Z</time>
<extensions>
<speed>0.0</speed>
<temp>0.00</temp>
<bpm>0</bpm>
<rpm>0.00</rpm>
</extensions>
</trkpt>
<trkpt lat="63.824932098" lon="-18.775279999">
<ele>536.890625</ele>
<time>2012-07-25T14:09:37Z</time>
<extensions>
<speed>0.0</speed>
<temp>0.00</temp>
<bpm>0</bpm>
<rpm>0.00</rpm>
</extensions>
</trkpt>
<trkpt lat="63.824932098" lon="-18.775279999">
<ele>536.890625</ele>
<time>2012-07-25T14:09:42Z</time>
<extensions>
<speed>0.0</speed>
<temp>0.00</temp>
<bpm>0</bpm>
<rpm>0.00</rpm>
</extensions>
</trkpt>
<trkpt lat="63.824932098" lon="-18.775279999">
<ele>536.875000</ele>
<time>2012-07-25T14:09:47Z</time>
<speed>0.010000</speed>
<extensions>
<speed>0.0</speed>
<temp>0.00</temp>
<bpm>0</bpm>
<rpm>0.00</rpm>
</extensions>
</trkpt>
<trkpt lat="63.824932098" lon="-18.775279999">
<ele>536.875000</ele>
<time>2012-07-25T14:09:52Z</time>
<speed>0.010000</speed>
<extensions>
<speed>0.0</speed>
<temp>0.00</temp>
<bpm>0</bpm>
<rpm>0.00</rpm>
</extensions>
</trkpt>
<trkpt lat="63.824932098" lon="-18.775279999">
<ele>536.875000</ele>
<time>2012-07-25T14:09:57Z</time>
<speed>0.020000</speed>
<extensions>
<speed>0.0</speed>
<temp>0.00</temp>
<bpm>0</bpm>
<rpm>0.00</rpm>
</extensions>
</trkpt>
<trkpt lat="63.824901581" lon="-18.775362015">
<ele>536.515625</ele>
<time>2012-07-25T14:10:02Z</time>
<speed>3.230000</speed>
<extensions>
<speed>3.2</speed>
<temp>0.00</temp>
<bpm>0</bpm>
<rpm>0.00</rpm>
</extensions>
</trkpt>
<trkpt lat="63.824748993" lon="-18.775794983">
<ele>533.125000</ele>
<time>2012-07-25T14:10:07Z</time>
<speed>6.710000</speed>
<extensions>
<speed>6.7</speed>
<temp>0.00</temp>
<bpm>0</bpm>
<rpm>0.00</rpm>
</extensions>
</trkpt>
<trkpt lat="63.824481964" lon="-18.776348114">
<ele>528.812500</ele>
<time>2012-07-25T14:10:12Z</time>
<speed>8.580000</speed>
<extensions>
<speed>8.6</speed>
<temp>0.00</temp>
<bpm>0</bpm>
<rpm>0.00</rpm>
</extensions>
</trkpt>
<trkpt lat="63.824188232" lon="-18.776859283">
<ele>526.062500</ele>
<time>2012-07-25T14:10:17Z</time>
<speed>8.800000</speed>
<extensions>
<speed>8.8</speed>
<temp>0.00</temp>
<bpm>0</bpm>
<rpm>0.00</rpm>
</extensions>
</trkpt>
<trkpt lat="63.824008942" lon="-18.777559280">
<ele>524.734375</ele>
<time>2012-07-25T14:10:22Z</time>
<speed>6.300000</speed>
<extensions>
<speed>6.3</speed>
<temp>0.00</temp>
<bpm>0</bpm>
<rpm>0.00</rpm>
</extensions>
</trkpt>
<trkpt lat="63.823955536" lon="-18.777997971">
<ele>525.500000</ele>
<time>2012-07-25T14:10:27Z</time>
<speed>3.110000</speed>
<extensions>
<speed>3.1</speed>
<temp>0.00</temp>
<bpm>0</bpm>
<rpm>0.00</rpm>
</extensions>
</trkpt>
<trkpt lat="63.823944092" lon="-18.778326035">
<ele>526.484375</ele>
<time>2012-07-25T14:10:32Z</time>
<speed>3.140000</speed>
<extensions>
<speed>3.1</speed>
<temp>0.00</temp>
<bpm>0</bpm>
<rpm>0.00</rpm>
</extensions>
</trkpt>
<trkpt lat="63.823959351" lon="-18.778575897">
<ele>528.187500</ele>
<time>2012-07-25T14:10:37Z</time>
<speed>1.740000</speed>
<extensions>
<speed>1.7</speed>
<temp>0.00</temp>
<bpm>0</bpm>
<rpm>0.00</rpm>
</extensions>
</trkpt>
<trkpt lat="63.824016571" lon="-18.778835297">
<ele>527.796875</ele>
<time>2012-07-25T14:10:42Z</time>
<speed>3.670000</speed>
<extensions>
<speed>3.7</speed>
<temp>0.00</temp>
<bpm>0</bpm>
<rpm>0.00</rpm>
</extensions>
</trkpt>
<trkpt lat="63.824134827" lon="-18.779235840">
<ele>524.843750</ele>
<time>2012-07-25T14:10:47Z</time>
<speed>4.610000</speed>
<extensions>
<speed>4.6</speed>
<temp>0.00</temp>
<bpm>0</bpm>
<rpm>0.00</rpm>
</extensions>
</trkpt>
<trkpt lat="63.824253082" lon="-18.779588699">
<ele>521.765625</ele>
<time>2012-07-25T14:10:52Z</time>
<speed>4.430000</speed>
<extensions>
<speed>4.4</speed>
<temp>0.00</temp>
<bpm>0</bpm>
<rpm>0.00</rpm>
</extensions>
</trkpt>
<trkpt lat="63.824386597" lon="-18.780044556">
<ele>518.015625</ele>
<time>2012-07-25T14:10:57Z</time>
<speed>5.660000</speed>
<extensions>
<speed>5.7</speed>
<temp>0.00</temp>
<bpm>0</bpm>
<rpm>0.00</rpm>
</extensions>
</trkpt>
<trkpt lat="63.824466705" lon="-18.780628204">
<ele>513.765625</ele>
<time>2012-07-25T14:11:02Z</time>
<speed>6.440000</speed>
<extensions>
<speed>6.4</speed>
<temp>0.00</temp>
<bpm>0</bpm>
<rpm>0.00</rpm>
</extensions>
</trkpt>
<trkpt lat="63.824504852" lon="-18.781314850">
<ele>510.328125</ele>
<time>2012-07-25T14:11:07Z</time>
<speed>6.090000</speed>
<extensions>
<speed>6.1</speed>
<temp>0.00</temp>
<bpm>0</bpm>
<rpm>0.00</rpm>
</extensions>
</trkpt>
<trkpt lat="63.824531555" lon="-18.781816483">
<ele>508.890625</ele>
<time>2012-07-25T14:11:12Z</time>
<speed>3.830000</speed>
<extensions>
<speed>3.8</speed>
<temp>0.00</temp>
<bpm>0</bpm>
<rpm>0.00</rpm>
</extensions>
</trkpt>
<trkpt lat="63.824523926" lon="-18.782159805">
<ele>508.734375</ele>
<time>2012-07-25T14:11:17Z</time>
<speed>2.490000</speed>
<extensions>
<speed>2.5</speed>
<temp>0.00</temp>
<bpm>0</bpm>
<rpm>0.00</rpm>
</extensions>
</trkpt>
<trkpt lat="63.824478149" lon="-18.782239914">
<ele>508.203125</ele>
<time>2012-07-25T14:11:22Z</time>
<speed>0.160000</speed>
<extensions>
<speed>0.2</speed>
<temp>0.00</temp>
<bpm>0</bpm>
<rpm>0.00</rpm>
</extensions>
</trkpt>
<trkpt lat="63.824470520" lon="-18.782222748">
<ele>508.375000</ele>
<time>2012-07-25T14:11:27Z</time>
<speed>0.480000</speed>
<extensions>
<speed>0.5</speed>
<temp>0.00</temp>
<bpm>0</bpm>
<rpm>0.00</rpm>
</extensions>
</trkpt>
<trkpt lat="63.824459076" lon="-18.782213211">
<ele>508.468750</ele>
<time>2012-07-25T14:11:32Z</time>
<speed>0.070000</speed>
<extensions>
<speed>0.1</speed>
<temp>0.00</temp>
<bpm>0</bpm>
<rpm>0.00</rpm>
</extensions>
</trkpt>
<trkpt lat="63.824459076" lon="-18.782188416">
<ele>508.531250</ele>
<time>2012-07-25T14:11:37Z</time>
<speed>0.600000</speed>
<extensions>
<speed>0.6</speed>
<temp>0.00</temp>
<bpm>0</bpm>
<rpm>0.00</rpm>
</extensions>
</trkpt>
<trkpt lat="63.824455261" lon="-18.782150269">
<ele>508.515625</ele>
<time>2012-07-25T14:11:42Z</time>
<speed>0.060000</speed>
<extensions>
<speed>0.1</speed>
<temp>0.00</temp>
<bpm>0</bpm>
<rpm>0.00</rpm>
</extensions>
</trkpt>
<trkpt lat="63.824455261" lon="-18.782150269">
<ele>508.437500</ele>
<time>2012-07-25T14:11:47Z</time>
<extensions>
<speed>0.0</speed>
<temp>0.00</temp>
<bpm>0</bpm>
<rpm>0.00</rpm>
</extensions>
</trkpt>
<trkpt lat="63.824455261" lon="-18.782152176">
<ele>508.406250</ele>
<time>2012-07-25T14:11:52Z</time>
<speed>0.070000</speed>
<extensions>
<speed>0.1</speed>
<temp>0.00</temp>
<bpm>0</bpm>
<rpm>0.00</rpm>
</extensions>
</trkpt>
<trkpt lat="63.824455261" lon="-18.782152176">
<ele>508.390625</ele>
<time>2012-07-25T14:11:57Z</time>
<speed>0.090000</speed>
<extensions>
<speed>0.1</speed>
<temp>0.00</temp>
<bpm>0</bpm>
<rpm>0.00</rpm>
</extensions>
</trkpt>
<trkpt lat="63.824451447" lon="-18.782150269">
<ele>508.359375</ele>
<time>2012-07-25T14:12:02Z</time>
<extensions>
<speed>0.0</speed>
<temp>0.00</temp>
<bpm>0</bpm>
<rpm>0.00</rpm>
</extensions>
</trkpt>
<trkpt lat="63.824451447" lon="-18.782150269">
<ele>508.343750</ele>
<time>2012-07-25T14:12:07Z</time>
<extensions>
<speed>0.0</speed>
<temp>0.00</temp>
<bpm>0</bpm>
<rpm>0.00</rpm>
</extensions>
</trkpt>
<trkpt lat="63.824451447" lon="-18.782150269">
<ele>508.335938</ele>
<time>2012-07-25T14:12:12Z</time>
<extensions>
<speed>0.0</speed>
<temp>0.00</temp>
<bpm>0</bpm>
<rpm>0.00</rpm>
</extensions>
</trkpt>
<trkpt lat="63.824451447" lon="-18.782150269">
<ele>508.328125</ele>
<time>2012-07-25T14:12:17Z</time>
<speed>0.050000</speed>
<extensions>
<speed>0.1</speed>
<temp>0.00</temp>
<bpm>0</bpm>
<rpm>0.00</rpm>
</extensions>
</trkpt>
<trkpt lat="63.824451447" lon="-18.782157898">
<ele>508.296875</ele>
<time>2012-07-25T14:12:22Z</time>
<speed>0.790000</speed>
<extensions>
<speed>0.8</speed>
<temp>0.00</temp>
<bpm>0</bpm>
<rpm>0.00</rpm>
</extensions>
</trkpt>
<trkpt lat="63.824504852" lon="-18.782232285">
<ele>508.546875</ele>
<time>2012-07-25T14:12:27Z</time>
<speed>2.090000</speed>
<extensions>
<speed>2.1</speed>
<temp>0.00</temp>
<bpm>0</bpm>
<rpm>0.00</rpm>
</extensions>
</trkpt>
<trkpt lat="63.824626923" lon="-18.782373428">
<ele>508.312500</ele>
<time>2012-07-25T14:12:32Z</time>
<speed>3.190000</speed>
<extensions>
<speed>3.2</speed>
<temp>0.00</temp>
<bpm>0</bpm>
<rpm>0.00</rpm>
</extensions>
</trkpt>
<trkpt lat="63.824764252" lon="-18.782569885">
<ele>508.593750</ele>
<time>2012-07-25T14:12:37Z</time>
<speed>3.730000</speed>
<extensions>
<speed>3.7</speed>
<temp>0.00</temp>
<bpm>0</bpm>
<rpm>0.00</rpm>
</extensions>
</trkpt>
<trkpt lat="63.824924469" lon="-18.782814026">
<ele>508.726563</ele>
<time>2012-07-25T14:12:42Z</time>
<speed>4.350000</speed>
<extensions>
<speed>4.3</speed>
<temp>0.00</temp>
<bpm>0</bpm>
<rpm>0.00</rpm>
</extensions>
</trkpt>
<trkpt lat="63.825084686" lon="-18.783090591">
<ele>508.195313</ele>
<time>2012-07-25T14:12:47Z</time>
<speed>4.400000</speed>
<extensions>
<speed>4.4</speed>
<temp>0.00</temp>
<bpm>0</bpm>
<rpm>0.00</rpm>
</extensions>
</trkpt>
<trkpt lat="63.825225830" lon="-18.783388138">
<ele>507.921875</ele>
<time>2012-07-25T14:12:52Z</time>
<speed>4.680000</speed>
<extensions>
<speed>4.7</speed>
<temp>0.00</temp>
<bpm>0</bpm>
<rpm>0.00</rpm>
</extensions>
</trkpt>
<trkpt lat="63.825366974" lon="-18.783744812">
<ele>508.273438</ele>
<time>2012-07-25T14:12:57Z</time>
<speed>4.740000</speed>
<extensions>
<speed>4.7</speed>
<temp>0.00</temp>
<bpm>0</bpm>
<rpm>0.00</rpm>
</extensions>
</trkpt>
<trkpt lat="63.825469971" lon="-18.784091949">
<ele>507.687500</ele>
<time>2012-07-25T14:13:02Z</time>
<speed>2.910000</speed>
<extensions>
<speed>2.9</speed>
<temp>0.00</temp>
<bpm>0</bpm>
<rpm>0.00</rpm>
</extensions>
</trkpt>
<trkpt lat="63.825511932" lon="-18.784345627">
<ele>506.921875</ele>
<time>2012-07-25T14:13:07Z</time>
<speed>1.960000</speed>
<extensions>
<speed>2.0</speed>
<temp>0.00</temp>
<bpm>0</bpm>
<rpm>0.00</rpm>
</extensions>
</trkpt>
<trkpt lat="63.825546265" lon="-18.784585953">
<ele>506.234375</ele>
<time>2012-07-25T14:13:12Z</time>
<speed>2.950000</speed>
<extensions>
<speed>2.9</speed>
<temp>0.00</temp>
<bpm>0</bpm>
<rpm>0.00</rpm>
</extensions>
</trkpt>
<trkpt lat="63.825588226" lon="-18.784896851">
<ele>507.156250</ele>
<time>2012-07-25T14:13:17Z</time>
<speed>3.040000</speed>
<extensions>
<speed>3.0</speed>
<temp>0.00</temp>
<bpm>0</bpm>
<rpm>0.00</rpm>
</extensions>
</trkpt>
<trkpt lat="63.825618744" lon="-18.785223007">
<ele>506.125000</ele>
<time>2012-07-25T14:13:22Z</time>
<speed>3.280000</speed>
<extensions>
<speed>3.3</speed>
<temp>0.00</temp>
<bpm>0</bpm>
<rpm>0.00</rpm>
</extensions>
</trkpt>
<trkpt lat="63.825645447" lon="-18.785558701">
<ele>505.640625</ele>
<time>2012-07-25T14:13:27Z</time>
<speed>3.350000</speed>
<extensions>
<speed>3.4</speed>
<temp>0.00</temp>
<bpm>0</bpm>
<rpm>0.00</rpm>
</extensions>
</trkpt>
<trkpt lat="63.825687408" lon="-18.785900116">
<ele>505.734375</ele>
<time>2012-07-25T14:13:32Z</time>
<speed>3.220000</speed>
<extensions>
<speed>3.2</speed>
<temp>0.00</temp>
<bpm>0</bpm>
<rpm>0.00</rpm>
</extensions>
</trkpt>
<trkpt lat="63.825725555" lon="-18.786241531">
<ele>505.812500</ele>
<time>2012-07-25T14:13:37Z</time>
<speed>3.650000</speed>
<extensions>
<speed>3.7</speed>
<temp>0.00</temp>
<bpm>0</bpm>
<rpm>0.00</rpm>
</extensions>
</trkpt>
<trkpt lat="63.825767517" lon="-18.786579132">
<ele>506.039063</ele>
<time>2012-07-25T14:13:42Z</time>
<speed>3.680000</speed>
<extensions>
<speed>3.7</speed>
<temp>0.00</temp>
<bpm>0</bpm>
<rpm>0.00</rpm>
</extensions>
</trkpt>
<trkpt lat="63.825824738" lon="-18.786956787">
<ele>507.812500</ele>
<time>2012-07-25T14:13:47Z</time>
<speed>3.440000</speed>
<extensions>
<speed>3.4</speed>
<temp>0.00</temp>
<bpm>0</bpm>
<rpm>0.00</rpm>
</extensions>
</trkpt>
<trkpt lat="63.825874329" lon="-18.787309647">
<ele>509.648438</ele>
<time>2012-07-25T14:13:52Z</time>
<speed>3.500000</speed>
<extensions>
<speed>3.5</speed>
<temp>0.00</temp>
<bpm>0</bpm>
<rpm>0.00</rpm>
</extensions>
</trkpt>
<trkpt lat="63.825912476" lon="-18.787670135">
<ele>510.960938</ele>
<time>2012-07-25T14:13:57Z</time>
<speed>3.500000</speed>
<extensions>
<speed>3.5</speed>
<temp>0.00</temp>
<bpm>0</bpm>
<rpm>0.00</rpm>
</extensions>
</trkpt>
<trkpt lat="63.825935364" lon="-18.788030624">
<ele>511.593750</ele>
<time>2012-07-25T14:14:02Z</time>
<speed>3.710000</speed>
<extensions>
<speed>3.7</speed>
<temp>0.00</temp>
<bpm>0</bpm>
<rpm>0.00</rpm>
</extensions>
</trkpt>
<trkpt lat="63.825962067" lon="-18.788373947">
<ele>511.640625</ele>
<time>2012-07-25T14:14:07Z</time>
<speed>3.880000</speed>
<extensions>
<speed>3.9</speed>
<temp>0.00</temp>
<bpm>0</bpm>
<rpm>0.00</rpm>
</extensions>
</trkpt>
<trkpt lat="63.825984955" lon="-18.788635254">
<ele>511.070313</ele>
<time>2012-07-25T14:14:12Z</time>
<speed>2.540000</speed>
<extensions>
<speed>2.5</speed>
<temp>0.00</temp>
<bpm>0</bpm>
<rpm>0.00</rpm>
</extensions>
</trkpt>
<trkpt lat="63.825988770" lon="-18.788866043">
<ele>510.687500</ele>
<time>2012-07-25T14:14:17Z</time>
<speed>1.740000</speed>
<extensions>
<speed>1.7</speed>
<temp>0.00</temp>
<bpm>0</bpm>
<rpm>0.00</rpm>
</extensions>
</trkpt>
<trkpt lat="63.825992584" lon="-18.788936615">
<ele>510.523438</ele>
<time>2012-07-25T14:14:22Z</time>
<speed>0.170000</speed>
<extensions>
<speed>0.2</speed>
<temp>0.00</temp>
<bpm>0</bpm>
<rpm>0.00</rpm>
</extensions>
</trkpt>
<trkpt lat="63.826000214" lon="-18.788932800">
<ele>510.562500</ele>
<time>2012-07-25T14:14:27Z</time>
<speed>0.020000</speed>
<extensions>
<speed>0.0</speed>
<temp>0.00</temp>
<bpm>0</bpm>
<rpm>0.00</rpm>
</extensions>
</trkpt>
<trkpt lat="63.825996399" lon="-18.788930893">
<ele>510.570313</ele>
<time>2012-07-25T14:14:32Z</time>
<speed>0.010000</speed>
<extensions>
<speed>0.0</speed>
<temp>0.00</temp>
<bpm>0</bpm>
<rpm>0.00</rpm>
</extensions>
</trkpt>
<trkpt lat="63.826000214" lon="-18.788948059">
<ele>510.710938</ele>
<time>2012-07-25T14:14:37Z</time>
<speed>0.790000</speed>
<extensions>
<speed>0.8</speed>
<temp>0.00</temp>
<bpm>0</bpm>
<rpm>0.00</rpm>
</extensions>
</trkpt>
<trkpt lat="63.826004028" lon="-18.789035797">
<ele>510.968750</ele>
<time>2012-07-25T14:14:42Z</time>
<speed>0.790000</speed>
<extensions>
<speed>0.8</speed>
<temp>0.00</temp>
<bpm>0</bpm>
<rpm>0.00</rpm>
</extensions>
</trkpt>
<trkpt lat="63.826011658" lon="-18.789115906">
<ele>511.343750</ele>
<time>2012-07-25T14:14:47Z</time>
<speed>0.730000</speed>
<extensions>
<speed>0.7</speed>
<temp>0.00</temp>
<bpm>0</bpm>
<rpm>0.00</rpm>
</extensions>
</trkpt>
<trkpt lat="63.826015472" lon="-18.789196014">
<ele>511.898438</ele>
<time>2012-07-25T14:14:52Z</time>
<speed>0.850000</speed>
<extensions>
<speed>0.8</speed>
<temp>0.00</temp>
<bpm>0</bpm>
<rpm>0.00</rpm>
</extensions>
</trkpt>
<trkpt lat="63.826019287" lon="-18.789272308">
<ele>512.421875</ele>
<time>2012-07-25T14:14:57Z</time>
<speed>0.730000</speed>
<extensions>
<speed>0.7</speed>
<temp>0.00</temp>
<bpm>0</bpm>
<rpm>0.00</rpm>
</extensions>
</trkpt>
<trkpt lat="63.826019287" lon="-18.789331436">
<ele>512.843750</ele>
<time>2012-07-25T14:15:02Z</time>
<speed>0.460000</speed>
<extensions>
<speed>0.5</speed>
<temp>0.00</temp>
<bpm>0</bpm>
<rpm>0.00</rpm>
</extensions>
</trkpt>
<trkpt lat="63.826019287" lon="-18.789369583">
<ele>512.906250</ele>
<time>2012-07-25T14:15:07Z</time>
<speed>0.800000</speed>
<extensions>
<speed>0.8</speed>
<temp>0.00</temp>
<bpm>0</bpm>
<rpm>0.00</rpm>
</extensions>
</trkpt>
<trkpt lat="63.826026917" lon="-18.789442062">
<ele>513.484375</ele>
<time>2012-07-25T14:15:12Z</time>
<speed>0.500000</speed>
<extensions>
<speed>0.5</speed>
<temp>0.00</temp>
<bpm>0</bpm>
<rpm>0.00</rpm>
</extensions>
</trkpt>
<trkpt lat="63.826026917" lon="-18.789501190">
<ele>514.140625</ele>
<time>2012-07-25T14:15:17Z</time>
<speed>0.620000</speed>
<extensions>
<speed>0.6</speed>
<temp>0.00</temp>
<bpm>0</bpm>
<rpm>0.00</rpm>
</extensions>
</trkpt>
<trkpt lat="63.826030731" lon="-18.789573669">
<ele>514.531250</ele>
<time>2012-07-25T14:15:22Z</time>
<speed>0.620000</speed>
<extensions>
<speed>0.6</speed>
<temp>0.00</temp>
<bpm>0</bpm>
<rpm>0.00</rpm>
</extensions>
</trkpt>
<trkpt lat="63.826034546" lon="-18.789646149">
<ele>515.015625</ele>
<time>2012-07-25T14:15:27Z</time>
<speed>0.820000</speed>
<extensions>
<speed>0.8</speed>
<temp>0.00</temp>
<bpm>0</bpm>
<rpm>0.00</rpm>
</extensions>
</trkpt>
<trkpt lat="63.826038361" lon="-18.789735794">
<ele>515.234375</ele>
<time>2012-07-25T14:15:32Z</time>
<speed>0.980000</speed>
<extensions>
<speed>1.0</speed>
<temp>0.00</temp>
<bpm>0</bpm>
<rpm>0.00</rpm>
</extensions>
</trkpt>
<trkpt lat="63.826042175" lon="-18.789812088">
<ele>514.718750</ele>
<time>2012-07-25T14:15:37Z</time>
<speed>0.910000</speed>
<extensions>
<speed>0.9</speed>
<temp>0.00</temp>
<bpm>0</bpm>
<rpm>0.00</rpm>
</extensions>
</trkpt>
<trkpt lat="63.826038361" lon="-18.789886475">
<ele>514.187500</ele>
<time>2012-07-25T14:15:42Z</time>
<speed>0.950000</speed>
<extensions>
<speed>1.0</speed>
<temp>0.00</temp>
<bpm>0</bpm>
<rpm>0.00</rpm>
</extensions>
</trkpt>
<trkpt lat="63.826042175" lon="-18.789972305">
<ele>514.296875</ele>
<time>2012-07-25T14:15:47Z</time>
<speed>0.330000</speed>
<extensions>
<speed>0.3</speed>
<temp>0.00</temp>
<bpm>0</bpm>
<rpm>0.00</rpm>
</extensions>
</trkpt>
<trkpt lat="63.826042175" lon="-18.790067673">
<ele>514.015625</ele>
<time>2012-07-25T14:15:52Z</time>
<speed>1.000000</speed>
<extensions>
<speed>1.0</speed>
<temp>0.00</temp>
<bpm>0</bpm>
<rpm>0.00</rpm>
</extensions>
</trkpt>
<trkpt lat="63.826053619" lon="-18.790184021">
<ele>514.234375</ele>
<time>2012-07-25T14:15:57Z</time>
<speed>1.080000</speed>
<extensions>
<speed>1.1</speed>
<temp>0.00</temp>
<bpm>0</bpm>
<rpm>0.00</rpm>
</extensions>
</trkpt>
<trkpt lat="63.826057434" lon="-18.790304184">
<ele>514.171875</ele>
<time>2012-07-25T14:16:02Z</time>
<speed>1.010000</speed>
<extensions>
<speed>1.0</speed>
<temp>0.00</temp>
<bpm>0</bpm>
<rpm>0.00</rpm>
</extensions>
</trkpt>
<trkpt lat="63.826057434" lon="-18.790430069">
<ele>513.984375</ele>
<time>2012-07-25T14:16:07Z</time>
<speed>1.150000</speed>
<extensions>
<speed>1.1</speed>
<temp>0.00</temp>
<bpm>0</bpm>
<rpm>0.00</rpm>
</extensions>
</trkpt>
<trkpt lat="63.826057434" lon="-18.790557861">
<ele>514.500000</ele>
<time>2012-07-25T14:16:12Z</time>
<speed>0.910000</speed>
<extensions>
<speed>0.9</speed>
<temp>0.00</temp>
<bpm>0</bpm>
<rpm>0.00</rpm>
</extensions>
</trkpt>
<trkpt lat="63.826057434" lon="-18.790691376">
<ele>513.484375</ele>
<time>2012-07-25T14:16:17Z</time>
<speed>1.250000</speed>
<extensions>
<speed>1.3</speed>
<temp>0.00</temp>
<bpm>0</bpm>
<rpm>0.00</rpm>
</extensions>
</trkpt>
<trkpt lat="63.826057434" lon="-18.790790558">
<ele>513.078125</ele>
<time>2012-07-25T14:16:22Z</time>
<speed>0.980000</speed>
<extensions>
<speed>1.0</speed>
<temp>0.00</temp>
<bpm>0</bpm>
<rpm>0.00</rpm>
</extensions>
</trkpt>
<trkpt lat="63.826057434" lon="-18.790880203">
<ele>513.875000</ele>
<time>2012-07-25T14:16:27Z</time>
<speed>0.820000</speed>
<extensions>
<speed>0.8</speed>
<temp>0.00</temp>
<bpm>0</bpm>
<rpm>0.00</rpm>
</extensions>
</trkpt>
<trkpt lat="63.826053619" lon="-18.790977478">
<ele>514.375000</ele>
<time>2012-07-25T14:16:32Z</time>
<speed>1.140000</speed>
<extensions>
<speed>1.1</speed>
<temp>0.00</temp>
<bpm>0</bpm>
<rpm>0.00</rpm>
</extensions>
</trkpt>
<trkpt lat="63.826061249" lon="-18.791069031">
<ele>514.890625</ele>
<time>2012-07-25T14:16:37Z</time>
<speed>1.030000</speed>
<extensions>
<speed>1.0</speed>
<temp>0.00</temp>
<bpm>0</bpm>
<rpm>0.00</rpm>
</extensions>
</trkpt>
<trkpt lat="63.826053619" lon="-18.791193008">
<ele>515.531250</ele>
<time>2012-07-25T14:16:42Z</time>
<speed>1.160000</speed>
<extensions>
<speed>1.2</speed>
<temp>0.00</temp>
<bpm>0</bpm>
<rpm>0.00</rpm>
</extensions>
</trkpt>
<trkpt lat="63.826053619" lon="-18.791297913">
<ele>516.296875</ele>
<time>2012-07-25T14:16:47Z</time>
<speed>0.920000</speed>
<extensions>
<speed>0.9</speed>
<temp>0.00</temp>
<bpm>0</bpm>
<rpm>0.00</rpm>
</extensions>
</trkpt>
<trkpt lat="63.826049805" lon="-18.791345596">
<ele>515.781250</ele>
<time>2012-07-25T14:16:52Z</time>
<speed>0.700000</speed>
<extensions>
<speed>0.7</speed>
<temp>0.00</temp>
<bpm>0</bpm>
<rpm>0.00</rpm>
</extensions>
</trkpt>
<trkpt lat="63.826042175" lon="-18.791393280">
<ele>516.656250</ele>
<time>2012-07-25T14:16:57Z</time>
<speed>1.040000</speed>
<extensions>
<speed>1.0</speed>
<temp>0.00</temp>
<bpm>0</bpm>
<rpm>0.00</rpm>
</extensions>
</trkpt>
<trkpt lat="63.826034546" lon="-18.791614532">
<ele>517.078125</ele>
<time>2012-07-25T14:17:02Z</time>
<speed>2.810000</speed>
<extensions>
<speed>2.8</speed>
<temp>0.00</temp>
<bpm>0</bpm>
<rpm>0.00</rpm>
</extensions>
</trkpt>
<trkpt lat="63.826000214" lon="-18.791889191">
<ele>516.843750</ele>
<time>2012-07-25T14:17:07Z</time>
<speed>2.990000</speed>
<extensions>
<speed>3.0</speed>
<temp>0.00</temp>
<bpm>0</bpm>
<rpm>0.00</rpm>
</extensions>
</trkpt>
<trkpt lat="63.825954437" lon="-18.792171478">
<ele>516.203125</ele>
<time>2012-07-25T14:17:12Z</time>
<speed>3.380000</speed>
<extensions>
<speed>3.4</speed>
<temp>0.00</temp>
<bpm>0</bpm>
<rpm>0.00</rpm>
</extensions>
</trkpt>
<trkpt lat="63.825901031" lon="-18.792463303">
<ele>515.640625</ele>
<time>2012-07-25T14:17:17Z</time>
<speed>2.950000</speed>
<extensions>
<speed>2.9</speed>
<temp>0.00</temp>
<bpm>0</bpm>
<rpm>0.00</rpm>
</extensions>
</trkpt>
<trkpt lat="63.825851440" lon="-18.792707443">
<ele>515.000000</ele>
<time>2012-07-25T14:17:22Z</time>
<speed>3.450000</speed>
<extensions>
<speed>3.5</speed>
<temp>0.00</temp>
<bpm>0</bpm>
<rpm>0.00</rpm>
</extensions>
</trkpt>
<trkpt lat="63.825836182" lon="-18.793058395">
<ele>515.093750</ele>
<time>2012-07-25T14:17:27Z</time>
<speed>3.950000</speed>
<extensions>
<speed>4.0</speed>
<temp>0.00</temp>
<bpm>0</bpm>
<rpm>0.00</rpm>
</extensions>
</trkpt>
<trkpt lat="63.825809479" lon="-18.793436050">
<ele>514.687500</ele>
<time>2012-07-25T14:17:32Z</time>
<speed>4.460000</speed>
<extensions>
<speed>4.5</speed>
<temp>0.00</temp>
<bpm>0</bpm>
<rpm>0.00</rpm>
</extensions>
</trkpt>
<trkpt lat="63.825813293" lon="-18.794038773">
<ele>513.218750</ele>
<time>2012-07-25T14:17:37Z</time>
<speed>6.390000</speed>
<extensions>
<speed>6.4</speed>
<temp>0.00</temp>
<bpm>0</bpm>
<rpm>0.00</rpm>
</extensions>
</trkpt>
<trkpt lat="63.825798035" lon="-18.794578552">
<ele>514.796875</ele>
<time>2012-07-25T14:17:42Z</time>
<speed>4.400000</speed>
<extensions>
<speed>4.4</speed>
<temp>0.00</temp>
<bpm>0</bpm>
<rpm>0.00</rpm>
</extensions>
</trkpt>
<trkpt lat="63.825775146" lon="-18.794832230">
<ele>516.281250</ele>
<time>2012-07-25T14:17:47Z</time>
<speed>1.830000</speed>
<extensions>
<speed>1.8</speed>
<temp>0.00</temp>
<bpm>0</bpm>
<rpm>0.00</rpm>
</extensions>
</trkpt>
<trkpt lat="63.825744629" lon="-18.795009613">
<ele>516.765625</ele>
<time>2012-07-25T14:17:52Z</time>
<speed>1.870000</speed>
<extensions>
<speed>1.9</speed>
<temp>0.00</temp>
<bpm>0</bpm>
<rpm>0.00</rpm>
</extensions>
</trkpt>
<trkpt lat="63.825710297" lon="-18.795177460">
<ele>517.312500</ele>
<time>2012-07-25T14:17:57Z</time>
<speed>2.570000</speed>
<extensions>
<speed>2.6</speed>
<temp>0.00</temp>
<bpm>0</bpm>
<rpm>0.00</rpm>
</extensions>
</trkpt>
<trkpt lat="63.825614929" lon="-18.795392990">
<ele>517.531250</ele>
<time>2012-07-25T14:18:02Z</time>
<speed>3.710000</speed>
<extensions>
<speed>3.7</speed>
<temp>0.00</temp>
<bpm>0</bpm>
<rpm>0.00</rpm>
</extensions>
</trkpt>
<trkpt lat="63.825500488" lon="-18.795677185">
<ele>517.171875</ele>
<time>2012-07-25T14:18:07Z</time>
<speed>3.740000</speed>
<extensions>
<speed>3.7</speed>
<temp>0.00</temp>
<bpm>0</bpm>
<rpm>0.00</rpm>
</extensions>
</trkpt>
<trkpt lat="63.825374603" lon="-18.795953751">
<ele>516.765625</ele>
<time>2012-07-25T14:18:12Z</time>
<speed>3.610000</speed>
<extensions>
<speed>3.6</speed>
<temp>0.00</temp>
<bpm>0</bpm>
<rpm>0.00</rpm>
</extensions>
</trkpt>
<trkpt lat="63.825263977" lon="-18.796171188">
<ele>516.281250</ele>
<time>2012-07-25T14:18:17Z</time>
<speed>2.460000</speed>
<extensions>
<speed>2.5</speed>
<temp>0.00</temp>
<bpm>0</bpm>
<rpm>0.00</rpm>
</extensions>
</trkpt>
<trkpt lat="63.825202942" lon="-18.796283722">
<ele>516.734375</ele>
<time>2012-07-25T14:18:22Z</time>
<speed>2.220000</speed>
<extensions>
<speed>2.2</speed>
<temp>0.00</temp>
<bpm>0</bpm>
<rpm>0.00</rpm>
</extensions>
</trkpt>
<trkpt lat="63.825096130" lon="-18.796491623">
<ele>516.796875</ele>
<time>2012-07-25T14:18:27Z</time>
<speed>3.300000</speed>
<extensions>
<speed>3.3</speed>
<temp>0.00</temp>
<bpm>0</bpm>
<rpm>0.00</rpm>
</extensions>
</trkpt>
<trkpt lat="63.825008392" lon="-18.796669006">
<ele>517.984375</ele>
<time>2012-07-25T14:18:32Z</time>
<speed>2.960000</speed>
<extensions>
<speed>3.0</speed>
<temp>0.00</temp>
<bpm>0</bpm>
<rpm>0.00</rpm>
</extensions>
</trkpt>
<trkpt lat="63.824924469" lon="-18.796800613">
<ele>518.843750</ele>
<time>2012-07-25T14:18:37Z</time>
<speed>1.660000</speed>
<extensions>
<speed>1.7</speed>
<temp>0.00</temp>
<bpm>0</bpm>
<rpm>0.00</rpm>
</extensions>
</trkpt>
<trkpt lat="63.824851990" lon="-18.796913147">
<ele>519.609375</ele>
<time>2012-07-25T14:18:42Z</time>
<speed>2.220000</speed>
<extensions>
<speed>2.2</speed>
<temp>0.00</temp>
<bpm>0</bpm>
<rpm>0.00</rpm>
</extensions>
</trkpt>
<trkpt lat="63.824748993" lon="-18.797016144">
<ele>519.046875</ele>
<time>2012-07-25T14:18:47Z</time>
<speed>2.980000</speed>
<extensions>
<speed>3.0</speed>
<temp>0.00</temp>
<bpm>0</bpm>
<rpm>0.00</rpm>
</extensions>
</trkpt>
<trkpt lat="63.824619293" lon="-18.797098160">
<ele>518.578125</ele>
<time>2012-07-25T14:18:52Z</time>
<speed>2.890000</speed>
<extensions>
<speed>2.9</speed>
<temp>0.00</temp>
<bpm>0</bpm>
<rpm>0.00</rpm>
</extensions>
</trkpt>
<trkpt lat="63.824474335" lon="-18.797222137">
<ele>516.843750</ele>
<time>2012-07-25T14:18:57Z</time>
<speed>4.040000</speed>
<extensions>
<speed>4.0</speed>
<temp>0.00</temp>
<bpm>0</bpm>
<rpm>0.00</rpm>
</extensions>
</trkpt>
<trkpt lat="63.824222565" lon="-18.797643661">
<ele>511.171875</ele>
<time>2012-07-25T14:19:02Z</time>
<speed>8.230000</speed>
<extensions>
<speed>8.2</speed>
<temp>0.00</temp>
<bpm>0</bpm>
<rpm>0.00</rpm>
</extensions>
</trkpt>
<trkpt lat="63.824043274" lon="-18.798164368">
<ele>511.750000</ele>
<time>2012-07-25T14:19:07Z</time>
<speed>4.670000</speed>
<extensions>
<speed>4.7</speed>
<temp>0.00</temp>
<bpm>0</bpm>
<rpm>0.00</rpm>
</extensions>
</trkpt>
<trkpt lat="63.824069977" lon="-18.798461914">
<ele>512.281250</ele>
<time>2012-07-25T14:19:12Z</time>
<speed>2.320000</speed>
<extensions>
<speed>2.3</speed>
<temp>0.00</temp>
<bpm>0</bpm>
<rpm>0.00</rpm>
</extensions>
</trkpt>
<trkpt lat="63.824142456" lon="-18.798700333">
<ele>512.937500</ele>
<time>2012-07-25T14:19:17Z</time>
<speed>3.760000</speed>
<extensions>
<speed>3.8</speed>
<temp>0.00</temp>
<bpm>0</bpm>
<rpm>0.00</rpm>
</extensions>
</trkpt>
<trkpt lat="63.824340820" lon="-18.799055099">
<ele>509.937500</ele>
<time>2012-07-25T14:19:22Z</time>
<speed>6.650000</speed>
<extensions>
<speed>6.7</speed>
<temp>0.00</temp>
<bpm>0</bpm>
<rpm>0.00</rpm>
</extensions>
</trkpt>
<trkpt lat="63.824554443" lon="-18.799465179">
<ele>510.187500</ele>
<time>2012-07-25T14:19:27Z</time>
<speed>5.640000</speed>
<extensions>
<speed>5.6</speed>
<temp>0.00</temp>
<bpm>0</bpm>
<rpm>0.00</rpm>
</extensions>
</trkpt>
<trkpt lat="63.824729919" lon="-18.799812317">
<ele>511.171875</ele>
<time>2012-07-25T14:19:32Z</time>
<speed>4.790000</speed>
<extensions>
<speed>4.8</speed>
<temp>0.00</temp>
<bpm>0</bpm>
<rpm>0.00</rpm>
</extensions>
</trkpt>
<trkpt lat="63.824909210" lon="-18.800180435">
<ele>511.757813</ele>
<time>2012-07-25T14:19:37Z</time>
<speed>5.550000</speed>
<extensions>
<speed>5.5</speed>
<temp>0.00</temp>
<bpm>0</bpm>
<rpm>0.00</rpm>
</extensions>
</trkpt>
<trkpt lat="63.825069427" lon="-18.800558090">
<ele>513.187500</ele>
<time>2012-07-25T14:19:42Z</time>
<speed>4.700000</speed>
<extensions>
<speed>4.7</speed>
<temp>0.00</temp>
<bpm>0</bpm>
<rpm>0.00</rpm>
</extensions>
</trkpt>
<trkpt lat="63.825191498" lon="-18.800868988">
<ele>513.312500</ele>
<time>2012-07-25T14:19:47Z</time>
<speed>4.560000</speed>
<extensions>
<speed>4.6</speed>
<temp>0.00</temp>
<bpm>0</bpm>
<rpm>0.00</rpm>
</extensions>
</trkpt>
<trkpt lat="63.825317383" lon="-18.801271439">
<ele>511.882813</ele>
<time>2012-07-25T14:19:52Z</time>
<speed>5.230000</speed>
<extensions>
<speed>5.2</speed>
<temp>0.00</temp>
<bpm>0</bpm>
<rpm>0.00</rpm>
</extensions>
</trkpt>
<trkpt lat="63.825435638" lon="-18.801719666">
<ele>511.562500</ele>
<time>2012-07-25T14:19:57Z</time>
<speed>4.780000</speed>
<extensions>
<speed>4.8</speed>
<temp>0.00</temp>
<bpm>0</bpm>
<rpm>0.00</rpm>
</extensions>
</trkpt>
<trkpt lat="63.825561523" lon="-18.802124023">
<ele>511.765625</ele>
<time>2012-07-25T14:20:02Z</time>
<speed>4.910000</speed>
<extensions>
<speed>4.9</speed>
<temp>0.00</temp>
<bpm>0</bpm>
<rpm>0.00</rpm>
</extensions>
</trkpt>
<trkpt lat="63.825679779" lon="-18.802543640">
<ele>511.375000</ele>
<time>2012-07-25T14:20:07Z</time>
<speed>4.530000</speed>
<extensions>
<speed>4.5</speed>
<temp>0.00</temp>
<bpm>0</bpm>
<rpm>0.00</rpm>
</extensions>
</trkpt>
<trkpt lat="63.825756073" lon="-18.802911758">
<ele>512.671875</ele>
<time>2012-07-25T14:20:12Z</time>
<speed>3.530000</speed>
<extensions>
<speed>3.5</speed>
<temp>0.00</temp>
<bpm>0</bpm>
<rpm>0.00</rpm>
</extensions>
</trkpt>
<trkpt lat="63.825759888" lon="-18.803209305">
<ele>513.625000</ele>
<time>2012-07-25T14:20:17Z</time>
<speed>3.010000</speed>
<extensions>
<speed>3.0</speed>
<temp>0.00</temp>
<bpm>0</bpm>
<rpm>0.00</rpm>
</extensions>
</trkpt>
<trkpt lat="63.825729370" lon="-18.803520203">
<ele>510.968750</ele>
<time>2012-07-25T14:20:22Z</time>
<speed>3.870000</speed>
<extensions>
<speed>3.9</speed>
<temp>0.00</temp>
<bpm>0</bpm>
<rpm>0.00</rpm>
</extensions>
</trkpt>
<trkpt lat="63.825698853" lon="-18.803928375">
<ele>511.148438</ele>
<time>2012-07-25T14:20:27Z</time>
<speed>3.830000</speed>
<extensions>
<speed>3.8</speed>
<temp>0.00</temp>
<bpm>0</bpm>
<rpm>0.00</rpm>
</extensions>
</trkpt>
<trkpt lat="63.825668335" lon="-18.804307938">
<ele>510.976563</ele>
<time>2012-07-25T14:20:32Z</time>
<speed>3.740000</speed>
<extensions>
<speed>3.7</speed>
<temp>0.00</temp>
<bpm>0</bpm>
<rpm>0.00</rpm>
</extensions>
</trkpt>
<trkpt lat="63.825660706" lon="-18.804653168">
<ele>511.476563</ele>
<time>2012-07-25T14:20:37Z</time>
<speed>2.870000</speed>
<extensions>
<speed>2.9</speed>
<temp>0.00</temp>
<bpm>0</bpm>
<rpm>0.00</rpm>
</extensions>
</trkpt>
<trkpt lat="63.825649261" lon="-18.804937363">
<ele>510.742188</ele>
<time>2012-07-25T14:20:42Z</time>
<speed>2.780000</speed>
<extensions>
<speed>2.8</speed>
<temp>0.00</temp>
<bpm>0</bpm>
<rpm>0.00</rpm>
</extensions>
</trkpt>
<trkpt lat="63.825702667" lon="-18.805187225">
<ele>511.007813</ele>
<time>2012-07-25T14:20:47Z</time>
<speed>2.260000</speed>
<extensions>
<speed>2.3</speed>
<temp>0.00</temp>
<bpm>0</bpm>
<rpm>0.00</rpm>
</extensions>
</trkpt>
<trkpt lat="63.825729370" lon="-18.805397034">
<ele>510.539063</ele>
<time>2012-07-25T14:20:52Z</time>
<speed>1.890000</speed>
<extensions>
<speed>1.9</speed>
<temp>0.00</temp>
<bpm>0</bpm>
<rpm>0.00</rpm>
</extensions>
</trkpt>
<trkpt lat="63.825756073" lon="-18.805564880">
<ele>511.203125</ele>
<time>2012-07-25T14:20:57Z</time>
<speed>1.320000</speed>
<extensions>
<speed>1.3</speed>
<temp>0.00</temp>
<bpm>0</bpm>
<rpm>0.00</rpm>
</extensions>
</trkpt>
<trkpt lat="63.825759888" lon="-18.805610657">
<ele>510.976563</ele>
<time>2012-07-25T14:21:02Z</time>
<speed>0.050000</speed>
<extensions>
<speed>0.1</speed>
<temp>0.00</temp>
<bpm>0</bpm>
<rpm>0.00</rpm>
</extensions>
</trkpt>
<trkpt lat="63.825759888" lon="-18.805612564">
<ele>511.000000</ele>
<time>2012-07-25T14:21:07Z</time>
<extensions>
<speed>0.0</speed>
<temp>0.00</temp>
<bpm>0</bpm>
<rpm>0.00</rpm>
</extensions>
</trkpt>
<trkpt lat="63.825763702" lon="-18.805612564">
<ele>510.968750</ele>
<time>2012-07-25T14:21:12Z</time>
<speed>0.020000</speed>
<extensions>
<speed>0.0</speed>
<temp>0.00</temp>
<bpm>0</bpm>
<rpm>0.00</rpm>
</extensions>
</trkpt>
<trkpt lat="63.825763702" lon="-18.805610657">
<ele>511.078125</ele>
<time>2012-07-25T14:21:17Z</time>
<speed>0.010000</speed>
<extensions>
<speed>0.0</speed>
<temp>0.00</temp>
<bpm>0</bpm>
<rpm>0.00</rpm>
</extensions>
</trkpt>
<trkpt lat="63.825763702" lon="-18.805612564">
<ele>511.117188</ele>
<time>2012-07-25T14:21:22Z</time>
<speed>0.030000</speed>
<extensions>
<speed>0.0</speed>
<temp>0.00</temp>
<bpm>0</bpm>
<rpm>0.00</rpm>
</extensions>
</trkpt>
<trkpt lat="63.825763702" lon="-18.805612564">
<ele>511.171875</ele>
<time>2012-07-25T14:21:27Z</time>
<speed>0.140000</speed>
<extensions>
<speed>0.1</speed>
<temp>0.00</temp>
<bpm>0</bpm>
<rpm>0.00</rpm>
</extensions>
</trkpt>
<trkpt lat="63.825763702" lon="-18.805614471">
<ele>511.226563</ele>
<time>2012-07-25T14:21:32Z</time>
<speed>0.120000</speed>
<extensions>
<speed>0.1</speed>
<temp>0.00</temp>
<bpm>0</bpm>
<rpm>0.00</rpm>
</extensions>
</trkpt>
<trkpt lat="63.825759888" lon="-18.805622101">
<ele>510.585938</ele>
<time>2012-07-25T14:21:37Z</time>
<speed>0.330000</speed>
<extensions>
<speed>0.3</speed>
<temp>0.00</temp>
<bpm>0</bpm>
<rpm>0.00</rpm>
</extensions>
</trkpt>
<trkpt lat="63.825733185" lon="-18.805559158">
<ele>510.218750</ele>
<time>2012-07-25T14:21:42Z</time>
<speed>1.420000</speed>
<extensions>
<speed>1.4</speed>
<temp>0.00</temp>
<bpm>0</bpm>
<rpm>0.00</rpm>
</extensions>
</trkpt>
<trkpt lat="63.825668335" lon="-18.805414200">
<ele>509.875000</ele>
<time>2012-07-25T14:21:47Z</time>
<speed>2.360000</speed>
<extensions>
<speed>2.4</speed>
<temp>0.00</temp>
<bpm>0</bpm>
<rpm>0.00</rpm>
</extensions>
</trkpt>
<trkpt lat="63.825572968" lon="-18.805324554">
<ele>510.695313</ele>
<time>2012-07-25T14:21:52Z</time>
<speed>2.180000</speed>
<extensions>
<speed>2.2</speed>
<temp>0.00</temp>
<bpm>0</bpm>
<rpm>0.00</rpm>
</extensions>
</trkpt>
<trkpt lat="63.825477600" lon="-18.805290222">
<ele>509.570313</ele>
<time>2012-07-25T14:21:57Z</time>
<speed>1.530000</speed>
<extensions>
<speed>1.5</speed>
<temp>0.00</temp>
<bpm>0</bpm>
<rpm>0.00</rpm>
</extensions>
</trkpt>
<trkpt lat="63.825473785" lon="-18.805301666">
<ele>508.843750</ele>
<time>2012-07-25T14:22:02Z</time>
<extensions>
<speed>0.0</speed>
<temp>0.00</temp>
<bpm>0</bpm>
<rpm>0.00</rpm>
</extensions>
</trkpt>
<trkpt lat="63.825473785" lon="-18.805299759">
<ele>508.781250</ele>
<time>2012-07-25T14:22:07Z</time>
<speed>0.180000</speed>
<extensions>
<speed>0.2</speed>
<temp>0.00</temp>
<bpm>0</bpm>
<rpm>0.00</rpm>
</extensions>
</trkpt>
<trkpt lat="63.825489044" lon="-18.805324554">
<ele>508.992188</ele>
<time>2012-07-25T14:22:12Z</time>
<speed>0.560000</speed>
<extensions>
<speed>0.6</speed>
<temp>0.00</temp>
<bpm>0</bpm>
<rpm>0.00</rpm>
</extensions>
</trkpt>
<trkpt lat="63.825496674" lon="-18.805316925">
<ele>508.921875</ele>
<time>2012-07-25T14:22:17Z</time>
<speed>0.020000</speed>
<extensions>
<speed>0.0</speed>
<temp>0.00</temp>
<bpm>0</bpm>
<rpm>0.00</rpm>
</extensions>
</trkpt>
<trkpt lat="63.825500488" lon="-18.805313110">
<ele>509.304688</ele>
<time>2012-07-25T14:22:22Z</time>
<speed>0.010000</speed>
<extensions>
<speed>0.0</speed>
<temp>0.00</temp>
<bpm>0</bpm>
<rpm>0.00</rpm>
</extensions>
</trkpt>
<trkpt lat="63.825500488" lon="-18.805313110">
<ele>509.429688</ele>
<time>2012-07-25T14:22:27Z</time>
<speed>0.370000</speed>
<extensions>
<speed>0.4</speed>
<temp>0.00</temp>
<bpm>0</bpm>
<rpm>0.00</rpm>
</extensions>
</trkpt>
<trkpt lat="63.825534821" lon="-18.805313110">
<ele>509.484375</ele>
<time>2012-07-25T14:22:32Z</time>
<speed>1.080000</speed>
<extensions>
<speed>1.1</speed>
<temp>0.00</temp>
<bpm>0</bpm>
<rpm>0.00</rpm>
</extensions>
</trkpt>
<trkpt lat="63.825584412" lon="-18.805320740">
<ele>509.617188</ele>
<time>2012-07-25T14:22:37Z</time>
<speed>1.270000</speed>
<extensions>
<speed>1.3</speed>
<temp>0.00</temp>
<bpm>0</bpm>
<rpm>0.00</rpm>
</extensions>
</trkpt>
<trkpt lat="63.825634003" lon="-18.805374146">
<ele>510.054688</ele>
<time>2012-07-25T14:22:42Z</time>
<speed>1.190000</speed>
<extensions>
<speed>1.2</speed>
<temp>0.00</temp>
<bpm>0</bpm>
<rpm>0.00</rpm>
</extensions>
</trkpt>
<trkpt lat="63.825668335" lon="-18.805433273">
<ele>510.070313</ele>
<time>2012-07-25T14:22:47Z</time>
<speed>0.580000</speed>
<extensions>
<speed>0.6</speed>
<temp>0.00</temp>
<bpm>0</bpm>
<rpm>0.00</rpm>
</extensions>
</trkpt>
<trkpt lat="63.825683594" lon="-18.805461884">
<ele>509.992188</ele>
<time>2012-07-25T14:22:52Z</time>
<speed>1.100000</speed>
<extensions>
<speed>1.1</speed>
<temp>0.00</temp>
<bpm>0</bpm>
<rpm>0.00</rpm>
</extensions>
</trkpt>
<trkpt lat="63.825759888" lon="-18.805477142">
<ele>510.843750</ele>
<time>2012-07-25T14:22:57Z</time>
<speed>1.580000</speed>
<extensions>
<speed>1.6</speed>
<temp>0.00</temp>
<bpm>0</bpm>
<rpm>0.00</rpm>
</extensions>
</trkpt>
<trkpt lat="63.825813293" lon="-18.805522919">
<ele>509.570313</ele>
<time>2012-07-25T14:23:02Z</time>
<speed>1.400000</speed>
<extensions>
<speed>1.4</speed>
<temp>0.00</temp>
<bpm>0</bpm>
<rpm>0.00</rpm>
</extensions>
</trkpt>
<trkpt lat="63.825881958" lon="-18.805540085">
<ele>509.828125</ele>
<time>2012-07-25T14:23:07Z</time>
<speed>1.420000</speed>
<extensions>
<speed>1.4</speed>
<temp>0.00</temp>
<bpm>0</bpm>
<rpm>0.00</rpm>
</extensions>
</trkpt>
<trkpt lat="63.825920105" lon="-18.805646896">
<ele>509.554688</ele>
<time>2012-07-25T14:23:12Z</time>
<speed>1.490000</speed>
<extensions>
<speed>1.5</speed>
<temp>0.00</temp>
<bpm>0</bpm>
<rpm>0.00</rpm>
</extensions>
</trkpt>
<trkpt lat="63.825950623" lon="-18.805749893">
<ele>508.851563</ele>
<time>2012-07-25T14:23:17Z</time>
<speed>1.210000</speed>
<extensions>
<speed>1.2</speed>
<temp>0.00</temp>
<bpm>0</bpm>
<rpm>0.00</rpm>
</extensions>
</trkpt>
<trkpt lat="63.826011658" lon="-18.805833817">
<ele>508.562500</ele>
<time>2012-07-25T14:23:22Z</time>
<speed>1.560000</speed>
<extensions>
<speed>1.6</speed>
<temp>0.00</temp>
<bpm>0</bpm>
<rpm>0.00</rpm>
</extensions>
</trkpt>
<trkpt lat="63.826072693" lon="-18.805885315">
<ele>508.554688</ele>
<time>2012-07-25T14:23:27Z</time>
<speed>1.380000</speed>
<extensions>
<speed>1.4</speed>
<temp>0.00</temp>
<bpm>0</bpm>
<rpm>0.00</rpm>
</extensions>
</trkpt>
<trkpt lat="63.826126099" lon="-18.805891037">
<ele>509.398438</ele>
<time>2012-07-25T14:23:32Z</time>
<speed>1.470000</speed>
<extensions>
<speed>1.5</speed>
<temp>0.00</temp>
<bpm>0</bpm>
<rpm>0.00</rpm>
</extensions>
</trkpt>
<trkpt lat="63.826183319" lon="-18.805923462">
<ele>509.468750</ele>
<time>2012-07-25T14:23:37Z</time>
<speed>1.560000</speed>
<extensions>
<speed>1.6</speed>
<temp>0.00</temp>
<bpm>0</bpm>
<rpm>0.00</rpm>
</extensions>
</trkpt>
<trkpt lat="63.826244354" lon="-18.805990219">
<ele>508.992188</ele>
<time>2012-07-25T14:23:42Z</time>
<speed>1.700000</speed>
<extensions>
<speed>1.7</speed>
<temp>0.00</temp>
<bpm>0</bpm>
<rpm>0.00</rpm>
</extensions>
</trkpt>
<trkpt lat="63.826305389" lon="-18.806034088">
<ele>509.007813</ele>
<time>2012-07-25T14:23:47Z</time>
<speed>1.370000</speed>
<extensions>
<speed>1.4</speed>
<temp>0.00</temp>
<bpm>0</bpm>
<rpm>0.00</rpm>
</extensions>
</trkpt>
<trkpt lat="63.826366425" lon="-18.806051254">
<ele>509.406250</ele>
<time>2012-07-25T14:23:52Z</time>
<speed>1.360000</speed>
<extensions>
<speed>1.4</speed>
<temp>0.00</temp>
<bpm>0</bpm>
<rpm>0.00</rpm>
</extensions>
</trkpt>
<trkpt lat="63.826427460" lon="-18.806081772">
<ele>508.937500</ele>
<time>2012-07-25T14:23:57Z</time>
<speed>1.520000</speed>
<extensions>
<speed>1.5</speed>
<temp>0.00</temp>
<bpm>0</bpm>
<rpm>0.00</rpm>
</extensions>
</trkpt>
<trkpt lat="63.826503754" lon="-18.806123734">
<ele>509.609375</ele>
<time>2012-07-25T14:24:02Z</time>
<speed>1.550000</speed>
<extensions>
<speed>1.5</speed>
<temp>0.00</temp>
<bpm>0</bpm>
<rpm>0.00</rpm>
</extensions>
</trkpt>
<trkpt lat="63.826576233" lon="-18.806159973">
<ele>510.187500</ele>
<time>2012-07-25T14:24:07Z</time>
<speed>1.490000</speed>
<extensions>
<speed>1.5</speed>
<temp>0.00</temp>
<bpm>0</bpm>
<rpm>0.00</rpm>
</extensions>
</trkpt>
<trkpt lat="63.826641083" lon="-18.806209564">
<ele>510.343750</ele>
<time>2012-07-25T14:24:12Z</time>
<speed>1.470000</speed>
<extensions>
<speed>1.5</speed>
<temp>0.00</temp>
<bpm>0</bpm>
<rpm>0.00</rpm>
</extensions>
</trkpt>
<trkpt lat="63.826713562" lon="-18.806232452">
<ele>510.906250</ele>
<time>2012-07-25T14:24:17Z</time>
<speed>1.570000</speed>
<extensions>
<speed>1.6</speed>
<temp>0.00</temp>
<bpm>0</bpm>
<rpm>0.00</rpm>
</extensions>
</trkpt>
<trkpt lat="63.826782227" lon="-18.806221008">
<ele>510.250000</ele>
<time>2012-07-25T14:24:22Z</time>
<speed>1.360000</speed>
<extensions>
<speed>1.4</speed>
<temp>0.00</temp>
<bpm>0</bpm>
<rpm>0.00</rpm>
</extensions>
</trkpt>
<trkpt lat="63.826839447" lon="-18.806293488">
<ele>509.593750</ele>
<time>2012-07-25T14:24:27Z</time>
<speed>1.730000</speed>
<extensions>
<speed>1.7</speed>
<temp>0.00</temp>
<bpm>0</bpm>
<rpm>0.00</rpm>
</extensions>
</trkpt>
<trkpt lat="63.826904297" lon="-18.806381226">
<ele>508.335938</ele>
<time>2012-07-25T14:24:32Z</time>
<speed>1.470000</speed>
<extensions>
<speed>1.5</speed>
<temp>0.00</temp>
<bpm>0</bpm>
<rpm>0.00</rpm>
</extensions>
</trkpt>
<trkpt lat="63.826961517" lon="-18.806472778">
<ele>507.867188</ele>
<time>2012-07-25T14:24:37Z</time>
<speed>1.530000</speed>
<extensions>
<speed>1.5</speed>
<temp>0.00</temp>
<bpm>0</bpm>
<rpm>0.00</rpm>
</extensions>
</trkpt>
<trkpt lat="63.827011108" lon="-18.806579590">
<ele>506.406250</ele>
<time>2012-07-25T14:24:42Z</time>
<speed>1.570000</speed>
<extensions>
<speed>1.6</speed>
<temp>0.00</temp>
<bpm>0</bpm>
<rpm>0.00</rpm>
</extensions>
</trkpt>
<trkpt lat="63.827056885" lon="-18.806673050">
<ele>505.445313</ele>
<time>2012-07-25T14:24:47Z</time>
<speed>1.470000</speed>
<extensions>
<speed>1.5</speed>
<temp>0.00</temp>
<bpm>0</bpm>
<rpm>0.00</rpm>
</extensions>
</trkpt>
<trkpt lat="63.827098846" lon="-18.806741714">
<ele>505.414063</ele>
<time>2012-07-25T14:24:52Z</time>
<speed>1.530000</speed>
<extensions>
<speed>1.5</speed>
<temp>0.00</temp>
<bpm>0</bpm>
<rpm>0.00</rpm>
</extensions>
</trkpt>
<trkpt lat="63.827148438" lon="-18.806821823">
<ele>504.226563</ele>
<time>2012-07-25T14:24:57Z</time>
<speed>1.390000</speed>
<extensions>
<speed>1.4</speed>
<temp>0.00</temp>
<bpm>0</bpm>
<rpm>0.00</rpm>
</extensions>
</trkpt>
<trkpt lat="63.827201843" lon="-18.806901932">
<ele>504.031250</ele>
<time>2012-07-25T14:25:02Z</time>
<speed>1.560000</speed>
<extensions>
<speed>1.6</speed>
<temp>0.00</temp>
<bpm>0</bpm>
<rpm>0.00</rpm>
</extensions>
</trkpt>
<trkpt lat="63.827259064" lon="-18.806987762">
<ele>503.046875</ele>
<time>2012-07-25T14:25:07Z</time>
<speed>1.630000</speed>
<extensions>
<speed>1.6</speed>
<temp>0.00</temp>
<bpm>0</bpm>
<rpm>0.00</rpm>
</extensions>
</trkpt>
<trkpt lat="63.827316284" lon="-18.807094574">
<ele>503.562500</ele>
<time>2012-07-25T14:25:12Z</time>
<speed>1.280000</speed>
<extensions>
<speed>1.3</speed>
<temp>0.00</temp>
<bpm>0</bpm>
<rpm>0.00</rpm>
</extensions>
</trkpt>
<trkpt lat="63.827365875" lon="-18.807189941">
<ele>503.906250</ele>
<time>2012-07-25T14:25:17Z</time>
<speed>1.290000</speed>
<extensions>
<speed>1.3</speed>
<temp>0.00</temp>
<bpm>0</bpm>
<rpm>0.00</rpm>
</extensions>
</trkpt>
<trkpt lat="63.827350616" lon="-18.807317734">
<ele>503.039063</ele>
<time>2012-07-25T14:25:22Z</time>
<speed>1.220000</speed>
<extensions>
<speed>1.2</speed>
<temp>0.00</temp>
<bpm>0</bpm>
<rpm>0.00</rpm>
</extensions>
</trkpt>
<trkpt lat="63.827358246" lon="-18.807460785">
<ele>502.375000</ele>
<time>2012-07-25T14:25:27Z</time>
<speed>1.450000</speed>
<extensions>
<speed>1.4</speed>
<temp>0.00</temp>
<bpm>0</bpm>
<rpm>0.00</rpm>
</extensions>
</trkpt>
<trkpt lat="63.827362061" lon="-18.807525635">
<ele>502.593750</ele>
<time>2012-07-25T14:25:32Z</time>
<speed>0.140000</speed>
<extensions>
<speed>0.1</speed>
<temp>0.00</temp>
<bpm>0</bpm>
<rpm>0.00</rpm>
</extensions>
</trkpt>
<trkpt lat="63.827358246" lon="-18.807621002">
<ele>502.343750</ele>
<time>2012-07-25T14:25:37Z</time>
<speed>1.390000</speed>
<extensions>
<speed>1.4</speed>
<temp>0.00</temp>
<bpm>0</bpm>
<rpm>0.00</rpm>
</extensions>
</trkpt>
<trkpt lat="63.827388763" lon="-18.807764053">
<ele>502.046875</ele>
<time>2012-07-25T14:25:42Z</time>
<speed>1.630000</speed>
<extensions>
<speed>1.6</speed>
<temp>0.00</temp>
<bpm>0</bpm>
<rpm>0.00</rpm>
</extensions>
</trkpt>
<trkpt lat="63.827411652" lon="-18.807905197">
<ele>501.914063</ele>
<time>2012-07-25T14:25:47Z</time>
<speed>1.460000</speed>
<extensions>
<speed>1.5</speed>
<temp>0.00</temp>
<bpm>0</bpm>
<rpm>0.00</rpm>
</extensions>
</trkpt>
<trkpt lat="63.827457428" lon="-18.807998657">
<ele>501.429688</ele>
<time>2012-07-25T14:25:52Z</time>
<speed>1.210000</speed>
<extensions>
<speed>1.2</speed>
<temp>0.00</temp>
<bpm>0</bpm>
<rpm>0.00</rpm>
</extensions>
</trkpt>
<trkpt lat="63.827487946" lon="-18.808031082">
<ele>501.867188</ele>
<time>2012-07-25T14:25:57Z</time>
<speed>0.160000</speed>
<extensions>
<speed>0.2</speed>
<temp>0.00</temp>
<bpm>0</bpm>
<rpm>0.00</rpm>
</extensions>
</trkpt>
<trkpt lat="63.827487946" lon="-18.808015823">
<ele>501.984375</ele>
<time>2012-07-25T14:26:02Z</time>
<speed>0.040000</speed>
<extensions>
<speed>0.0</speed>
<temp>0.00</temp>
<bpm>0</bpm>
<rpm>0.00</rpm>
</extensions>
</trkpt>
<trkpt lat="63.827487946" lon="-18.808015823">
<ele>502.015625</ele>
<time>2012-07-25T14:26:07Z</time>
<speed>0.010000</speed>
<extensions>
<speed>0.0</speed>
<temp>0.00</temp>
<bpm>0</bpm>
<rpm>0.00</rpm>
</extensions>
</trkpt>
<trkpt lat="63.827484131" lon="-18.808010101">
<ele>502.070313</ele>
<time>2012-07-25T14:26:12Z</time>
<speed>0.110000</speed>
<extensions>
<speed>0.1</speed>
<temp>0.00</temp>
<bpm>0</bpm>
<rpm>0.00</rpm>
</extensions>
</trkpt>
<trkpt lat="63.827484131" lon="-18.808010101">
<ele>502.070313</ele>
<time>2012-07-25T14:26:17Z</time>
<speed>0.080000</speed>
<extensions>
<speed>0.1</speed>
<temp>0.00</temp>
<bpm>0</bpm>
<rpm>0.00</rpm>
</extensions>
</trkpt>
<trkpt lat="63.827518463" lon="-18.808002472">
<ele>502.281250</ele>
<time>2012-07-25T14:26:22Z</time>
<speed>0.750000</speed>
<extensions>
<speed>0.8</speed>
<temp>0.00</temp>
<bpm>0</bpm>
<rpm>0.00</rpm>
</extensions>
</trkpt>
<trkpt lat="63.827499390" lon="-18.808010101">
<ele>502.070313</ele>
<time>2012-07-25T14:26:27Z</time>
<speed>1.050000</speed>
<extensions>
<speed>1.0</speed>
<temp>0.00</temp>
<bpm>0</bpm>
<rpm>0.00</rpm>
</extensions>
</trkpt>
<trkpt lat="63.827453613" lon="-18.807945251">
<ele>501.812500</ele>
<time>2012-07-25T14:26:32Z</time>
<speed>1.470000</speed>
<extensions>
<speed>1.5</speed>
<temp>0.00</temp>
<bpm>0</bpm>
<rpm>0.00</rpm>
</extensions>
</trkpt>
<trkpt lat="63.827411652" lon="-18.807817459">
<ele>502.453125</ele>
<time>2012-07-25T14:26:37Z</time>
<speed>1.390000</speed>
<extensions>
<speed>1.4</speed>
<temp>0.00</temp>
<bpm>0</bpm>
<rpm>0.00</rpm>
</extensions>
</trkpt>
<trkpt lat="63.827365875" lon="-18.807704926">
<ele>502.242188</ele>
<time>2012-07-25T14:26:42Z</time>
<speed>1.670000</speed>
<extensions>
<speed>1.7</speed>
<temp>0.00</temp>
<bpm>0</bpm>
<rpm>0.00</rpm>
</extensions>
</trkpt>
<trkpt lat="63.827323914" lon="-18.807582855">
<ele>502.343750</ele>
<time>2012-07-25T14:26:47Z</time>
<speed>1.230000</speed>
<extensions>
<speed>1.2</speed>
<temp>0.00</temp>
<bpm>0</bpm>
<rpm>0.00</rpm>
</extensions>
</trkpt>
<trkpt lat="63.827285767" lon="-18.807462692">
<ele>502.281250</ele>
<time>2012-07-25T14:26:52Z</time>
<speed>1.560000</speed>
<extensions>
<speed>1.6</speed>
<temp>0.00</temp>
<bpm>0</bpm>
<rpm>0.00</rpm>
</extensions>
</trkpt>
<trkpt lat="63.827247620" lon="-18.807338715">
<ele>502.023438</ele>
<time>2012-07-25T14:26:57Z</time>
<speed>1.500000</speed>
<extensions>
<speed>1.5</speed>
<temp>0.00</temp>
<bpm>0</bpm>
<rpm>0.00</rpm>
</extensions>
</trkpt>
<trkpt lat="63.827201843" lon="-18.807222366">
<ele>501.960938</ele>
<time>2012-07-25T14:27:02Z</time>
<speed>1.410000</speed>
<extensions>
<speed>1.4</speed>
<temp>0.00</temp>
<bpm>0</bpm>
<rpm>0.00</rpm>
</extensions>
</trkpt>
<trkpt lat="63.827159882" lon="-18.807109833">
<ele>502.031250</ele>
<time>2012-07-25T14:27:07Z</time>
<speed>1.480000</speed>
<extensions>
<speed>1.5</speed>
<temp>0.00</temp>
<bpm>0</bpm>
<rpm>0.00</rpm>
</extensions>
</trkpt>
<trkpt lat="63.827110291" lon="-18.806982040">
<ele>502.648438</ele>
<time>2012-07-25T14:27:12Z</time>
<speed>1.790000</speed>
<extensions>
<speed>1.8</speed>
<temp>0.00</temp>
<bpm>0</bpm>
<rpm>0.00</rpm>
</extensions>
</trkpt>
<trkpt lat="63.827068329" lon="-18.806818008">
<ele>501.757813</ele>
<time>2012-07-25T14:27:17Z</time>
<speed>1.770000</speed>
<extensions>
<speed>1.8</speed>
<temp>0.00</temp>
<bpm>0</bpm>
<rpm>0.00</rpm>
</extensions>
</trkpt>
<trkpt lat="63.827026367" lon="-18.806674957">
<ele>501.757813</ele>
<time>2012-07-25T14:27:22Z</time>
<speed>1.720000</speed>
<extensions>
<speed>1.7</speed>
<temp>0.00</temp>
<bpm>0</bpm>
<rpm>0.00</rpm>
</extensions>
</trkpt>
<trkpt lat="63.826976776" lon="-18.806558609">
<ele>502.882813</ele>
<time>2012-07-25T14:27:27Z</time>
<speed>1.540000</speed>
<extensions>
<speed>1.5</speed>
<temp>0.00</temp>
<bpm>0</bpm>
<rpm>0.00</rpm>
</extensions>
</trkpt>
<trkpt lat="63.826931000" lon="-18.806438446">
<ele>503.585938</ele>
<time>2012-07-25T14:27:32Z</time>
<speed>1.610000</speed>
<extensions>
<speed>1.6</speed>
<temp>0.00</temp>
<bpm>0</bpm>
<rpm>0.00</rpm>
</extensions>
</trkpt>
<trkpt lat="63.826873779" lon="-18.806322098">
<ele>505.109375</ele>
<time>2012-07-25T14:27:37Z</time>
<speed>1.840000</speed>
<extensions>
<speed>1.8</speed>
<temp>0.00</temp>
<bpm>0</bpm>
<rpm>0.00</rpm>
</extensions>
</trkpt>
<trkpt lat="63.826801300" lon="-18.806234360">
<ele>507.007813</ele>
<time>2012-07-25T14:27:42Z</time>
<speed>1.720000</speed>
<extensions>
<speed>1.7</speed>
<temp>0.00</temp>
<bpm>0</bpm>
<rpm>0.00</rpm>
</extensions>
</trkpt>
<trkpt lat="63.826736450" lon="-18.806135178">
<ele>508.187500</ele>
<time>2012-07-25T14:27:47Z</time>
<speed>1.650000</speed>
<extensions>
<speed>1.7</speed>
<temp>0.00</temp>
<bpm>0</bpm>
<rpm>0.00</rpm>
</extensions>
</trkpt>
<trkpt lat="63.826671600" lon="-18.806020737">
<ele>508.789063</ele>
<time>2012-07-25T14:27:52Z</time>
<speed>1.650000</speed>
<extensions>
<speed>1.7</speed>
<temp>0.00</temp>
<bpm>0</bpm>
<rpm>0.00</rpm>
</extensions>
</trkpt>
<trkpt lat="63.826602936" lon="-18.805919647">
<ele>509.125000</ele>
<time>2012-07-25T14:27:57Z</time>
<speed>1.830000</speed>
<extensions>
<speed>1.8</speed>
<temp>0.00</temp>
<bpm>0</bpm>
<rpm>0.00</rpm>
</extensions>
</trkpt>
<trkpt lat="63.826541901" lon="-18.805751801">
<ele>509.234375</ele>
<time>2012-07-25T14:28:02Z</time>
<speed>1.800000</speed>
<extensions>
<speed>1.8</speed>
<temp>0.00</temp>
<bpm>0</bpm>
<rpm>0.00</rpm>
</extensions>
</trkpt>
<trkpt lat="63.826480865" lon="-18.805652618">
<ele>510.640625</ele>
<time>2012-07-25T14:28:07Z</time>
<speed>1.750000</speed>
<extensions>
<speed>1.8</speed>
<temp>0.00</temp>
<bpm>0</bpm>
<rpm>0.00</rpm>
</extensions>
</trkpt>
<trkpt lat="63.826416016" lon="-18.805532455">
<ele>511.585938</ele>
<time>2012-07-25T14:28:12Z</time>
<speed>1.710000</speed>
<extensions>
<speed>1.7</speed>
<temp>0.00</temp>
<bpm>0</bpm>
<rpm>0.00</rpm>
</extensions>
</trkpt>
<trkpt lat="63.826358795" lon="-18.805387497">
<ele>510.828125</ele>
<time>2012-07-25T14:28:17Z</time>
<speed>1.760000</speed>
<extensions>
<speed>1.8</speed>
<temp>0.00</temp>
<bpm>0</bpm>
<rpm>0.00</rpm>
</extensions>
</trkpt>
<trkpt lat="63.826286316" lon="-18.805278778">
<ele>508.640625</ele>
<time>2012-07-25T14:28:22Z</time>
<speed>1.810000</speed>
<extensions>
<speed>1.8</speed>
<temp>0.00</temp>
<bpm>0</bpm>
<rpm>0.00</rpm>
</extensions>
</trkpt>
<trkpt lat="63.826221466" lon="-18.805170059">
<ele>507.773438</ele>
<time>2012-07-25T14:28:27Z</time>
<speed>1.530000</speed>
<extensions>
<speed>1.5</speed>
<temp>0.00</temp>
<bpm>0</bpm>
<rpm>0.00</rpm>
</extensions>
</trkpt>
<trkpt lat="63.826156616" lon="-18.805078506">
<ele>506.656250</ele>
<time>2012-07-25T14:28:32Z</time>
<speed>1.820000</speed>
<extensions>
<speed>1.8</speed>
<temp>0.00</temp>
<bpm>0</bpm>
<rpm>0.00</rpm>
</extensions>
</trkpt>
<trkpt lat="63.826087952" lon="-18.804967880">
<ele>505.906250</ele>
<time>2012-07-25T14:28:37Z</time>
<speed>1.620000</speed>
<extensions>
<speed>1.6</speed>
<temp>0.00</temp>
<bpm>0</bpm>
<rpm>0.00</rpm>
</extensions>
</trkpt>
<trkpt lat="63.826019287" lon="-18.804946899">
<ele>505.218750</ele>
<time>2012-07-25T14:28:42Z</time>
<speed>1.610000</speed>
<extensions>
<speed>1.6</speed>
<temp>0.00</temp>
<bpm>0</bpm>
<rpm>0.00</rpm>
</extensions>
</trkpt>
<trkpt lat="63.825958252" lon="-18.804973602">
<ele>503.671875</ele>
<time>2012-07-25T14:28:47Z</time>
<speed>1.710000</speed>
<extensions>
<speed>1.7</speed>
<temp>0.00</temp>
<bpm>0</bpm>
<rpm>0.00</rpm>
</extensions>
</trkpt>
<trkpt lat="63.825889587" lon="-18.805034637">
<ele>502.296875</ele>
<time>2012-07-25T14:28:52Z</time>
<speed>1.260000</speed>
<extensions>
<speed>1.3</speed>
<temp>0.00</temp>
<bpm>0</bpm>
<rpm>0.00</rpm>
</extensions>
</trkpt>
<trkpt lat="63.825824738" lon="-18.805118561">
<ele>501.617188</ele>
<time>2012-07-25T14:28:57Z</time>
<speed>1.790000</speed>
<extensions>
<speed>1.8</speed>
<temp>0.00</temp>
<bpm>0</bpm>
<rpm>0.00</rpm>
</extensions>
</trkpt>
<trkpt lat="63.825771332" lon="-18.805246353">
<ele>501.812500</ele>
<time>2012-07-25T14:29:02Z</time>
<speed>1.060000</speed>
<extensions>
<speed>1.1</speed>
<temp>0.00</temp>
<bpm>0</bpm>
<rpm>0.00</rpm>
</extensions>
</trkpt>
<trkpt lat="63.825714111" lon="-18.805383682">
<ele>501.578125</ele>
<time>2012-07-25T14:29:07Z</time>
<speed>2.290000</speed>
<extensions>
<speed>2.3</speed>
<temp>0.00</temp>
<bpm>0</bpm>
<rpm>0.00</rpm>
</extensions>
</trkpt>
<trkpt lat="63.825672150" lon="-18.805509567">
<ele>500.054688</ele>
<time>2012-07-25T14:29:12Z</time>
<speed>1.140000</speed>
<extensions>
<speed>1.1</speed>
<temp>0.00</temp>
<bpm>0</bpm>
<rpm>0.00</rpm>
</extensions>
</trkpt>
<trkpt lat="63.825641632" lon="-18.805656433">
<ele>502.351563</ele>
<time>2012-07-25T14:29:17Z</time>
<speed>0.370000</speed>
<extensions>
<speed>0.4</speed>
<temp>0.00</temp>
<bpm>0</bpm>
<rpm>0.00</rpm>
</extensions>
</trkpt>
<trkpt lat="63.825649261" lon="-18.805675507">
<ele>503.156250</ele>
<time>2012-07-25T14:29:22Z</time>
<speed>0.060000</speed>
<extensions>
<speed>0.1</speed>
<temp>0.00</temp>
<bpm>0</bpm>
<rpm>0.00</rpm>
</extensions>
</trkpt>
<trkpt lat="63.825649261" lon="-18.805673599">
<ele>503.250000</ele>
<time>2012-07-25T14:29:27Z</time>
<speed>0.060000</speed>
<extensions>
<speed>0.1</speed>
<temp>0.00</temp>
<bpm>0</bpm>
<rpm>0.00</rpm>
</extensions>
</trkpt>
<trkpt lat="63.825649261" lon="-18.805671692">
<ele>503.250000</ele>
<time>2012-07-25T14:29:32Z</time>
<speed>0.010000</speed>
<extensions>
<speed>0.0</speed>
<temp>0.00</temp>
<bpm>0</bpm>
<rpm>0.00</rpm>
</extensions>
</trkpt>
<trkpt lat="63.825649261" lon="-18.805671692">
<ele>503.257813</ele>
<time>2012-07-25T14:29:37Z</time>
<speed>0.010000</speed>
<extensions>
<speed>0.0</speed>
<temp>0.00</temp>
<bpm>0</bpm>
<rpm>0.00</rpm>
</extensions>
</trkpt>
<trkpt lat="63.825649261" lon="-18.805671692">
<ele>503.273438</ele>
<time>2012-07-25T14:29:42Z</time>
<speed>0.020000</speed>
<extensions>
<speed>0.0</speed>
<temp>0.00</temp>
<bpm>0</bpm>
<rpm>0.00</rpm>
</extensions>
</trkpt>
<trkpt lat="63.825649261" lon="-18.805671692">
<ele>503.273438</ele>
<time>2012-07-25T14:29:47Z</time>
<speed>0.060000</speed>
<extensions>
<speed>0.1</speed>
<temp>0.00</temp>
<bpm>0</bpm>
<rpm>0.00</rpm>
</extensions>
</trkpt>
<trkpt lat="63.825634003" lon="-18.805616379">
<ele>503.437500</ele>
<time>2012-07-25T14:29:52Z</time>
<speed>0.570000</speed>
<extensions>
<speed>0.6</speed>
<temp>0.00</temp>
<bpm>0</bpm>
<rpm>0.00</rpm>
</extensions>
</trkpt>
<trkpt lat="63.825634003" lon="-18.805601120">
<ele>503.445313</ele>
<time>2012-07-25T14:29:57Z</time>
<speed>0.030000</speed>
<extensions>
<speed>0.0</speed>
<temp>0.00</temp>
<bpm>0</bpm>
<rpm>0.00</rpm>
</extensions>
</trkpt>
<trkpt lat="63.825634003" lon="-18.805601120">
<ele>503.414063</ele>
<time>2012-07-25T14:30:02Z</time>
<speed>0.080000</speed>
<extensions>
<speed>0.1</speed>
<temp>0.00</temp>
<bpm>0</bpm>
<rpm>0.00</rpm>
</extensions>
</trkpt>
<trkpt lat="63.825634003" lon="-18.805606842">
<ele>503.507813</ele>
<time>2012-07-25T14:30:07Z</time>
<speed>0.010000</speed>
<extensions>
<speed>0.0</speed>
<temp>0.00</temp>
<bpm>0</bpm>
<rpm>0.00</rpm>
</extensions>
</trkpt>
<trkpt lat="63.825634003" lon="-18.805606842">
<ele>503.492188</ele>
<time>2012-07-25T14:30:12Z</time>
<speed>0.140000</speed>
<extensions>
<speed>0.1</speed>
<temp>0.00</temp>
<bpm>0</bpm>
<rpm>0.00</rpm>
</extensions>
</trkpt>
<trkpt lat="63.825634003" lon="-18.805604935">
<ele>503.492188</ele>
<time>2012-07-25T14:30:17Z</time>
<speed>0.010000</speed>
<extensions>
<speed>0.0</speed>
<temp>0.00</temp>
<bpm>0</bpm>
<rpm>0.00</rpm>
</extensions>
</trkpt>
<trkpt lat="63.825634003" lon="-18.805603027">
<ele>503.492188</ele>
<time>2012-07-25T14:30:22Z</time>
<speed>0.020000</speed>
<extensions>
<speed>0.0</speed>
<temp>0.00</temp>
<bpm>0</bpm>
<rpm>0.00</rpm>
</extensions>
</trkpt>
<trkpt lat="63.825634003" lon="-18.805603027">
<ele>503.484375</ele>
<time>2012-07-25T14:30:27Z</time>
<extensions>
<speed>0.0</speed>
<temp>0.00</temp>
<bpm>0</bpm>
<rpm>0.00</rpm>
</extensions>
</trkpt>
<trkpt lat="63.825634003" lon="-18.805603027">
<ele>503.484375</ele>
<time>2012-07-25T14:30:32Z</time>
<speed>0.010000</speed>
<extensions>
<speed>0.0</speed>
<temp>0.00</temp>
<bpm>0</bpm>
<rpm>0.00</rpm>
</extensions>
</trkpt>
<trkpt lat="63.825634003" lon="-18.805603027">
<ele>503.484375</ele>
<time>2012-07-25T14:30:37Z</time>
<speed>0.020000</speed>
<extensions>
<speed>0.0</speed>
<temp>0.00</temp>
<bpm>0</bpm>
<rpm>0.00</rpm>
</extensions>
</trkpt>
<trkpt lat="63.825634003" lon="-18.805603027">
<ele>503.476563</ele>
<time>2012-07-25T14:30:42Z</time>
<speed>0.020000</speed>
<extensions>
<speed>0.0</speed>
<temp>0.00</temp>
<bpm>0</bpm>
<rpm>0.00</rpm>
</extensions>
</trkpt>
<trkpt lat="63.825634003" lon="-18.805603027">
<ele>503.484375</ele>
<time>2012-07-25T14:30:47Z</time>
<speed>0.040000</speed>
<extensions>
<speed>0.0</speed>
<temp>0.00</temp>
<bpm>0</bpm>
<rpm>0.00</rpm>
</extensions>
</trkpt>
<trkpt lat="63.825634003" lon="-18.805603027">
<ele>503.484375</ele>
<time>2012-07-25T14:30:52Z</time>
<speed>0.010000</speed>
<extensions>
<speed>0.0</speed>
<temp>0.00</temp>
<bpm>0</bpm>
<rpm>0.00</rpm>
</extensions>
</trkpt>
<trkpt lat="63.825637817" lon="-18.805603027">
<ele>503.500000</ele>
<time>2012-07-25T14:30:57Z</time>
<speed>0.010000</speed>
<extensions>
<speed>0.0</speed>
<temp>0.00</temp>
<bpm>0</bpm>
<rpm>0.00</rpm>
</extensions>
</trkpt>
<trkpt lat="63.825634003" lon="-18.805603027">
<ele>503.500000</ele>
<time>2012-07-25T14:31:02Z</time>
<extensions>
<speed>0.0</speed>
<temp>0.00</temp>
<bpm>0</bpm>
<rpm>0.00</rpm>
</extensions>
</trkpt>
<trkpt lat="63.825634003" lon="-18.805603027">
<ele>503.507813</ele>
<time>2012-07-25T14:31:07Z</time>
<extensions>
<speed>0.0</speed>
<temp>0.00</temp>
<bpm>0</bpm>
<rpm>0.00</rpm>
</extensions>
</trkpt>
<trkpt lat="63.825634003" lon="-18.805601120">
<ele>503.507813</ele>
<time>2012-07-25T14:31:12Z</time>
<speed>0.010000</speed>
<extensions>
<speed>0.0</speed>
<temp>0.00</temp>
<bpm>0</bpm>
<rpm>0.00</rpm>
</extensions>
</trkpt>
<trkpt lat="63.825626373" lon="-18.805601120">
<ele>503.687500</ele>
<time>2012-07-25T14:31:17Z</time>
<speed>0.340000</speed>
<extensions>
<speed>0.3</speed>
<temp>0.00</temp>
<bpm>0</bpm>
<rpm>0.00</rpm>
</extensions>
</trkpt>
<trkpt lat="63.825614929" lon="-18.805570602">
<ele>503.859375</ele>
<time>2012-07-25T14:31:22Z</time>
<speed>0.290000</speed>
<extensions>
<speed>0.3</speed>
<temp>0.00</temp>
<bpm>0</bpm>
<rpm>0.00</rpm>
</extensions>
</trkpt>
<trkpt lat="63.825595856" lon="-18.805526733">
<ele>503.875000</ele>
<time>2012-07-25T14:31:27Z</time>
<speed>0.940000</speed>
<extensions>
<speed>0.9</speed>
<temp>0.00</temp>
<bpm>0</bpm>
<rpm>0.00</rpm>
</extensions>
</trkpt>
<trkpt lat="63.825557709" lon="-18.805458069">
<ele>503.914063</ele>
<time>2012-07-25T14:31:32Z</time>
<speed>0.830000</speed>
<extensions>
<speed>0.8</speed>
<temp>0.00</temp>
<bpm>0</bpm>
<rpm>0.00</rpm>
</extensions>
</trkpt>
<trkpt lat="63.825553894" lon="-18.805374146">
<ele>503.226563</ele>
<time>2012-07-25T14:31:37Z</time>
<speed>0.380000</speed>
<extensions>
<speed>0.4</speed>
<temp>0.00</temp>
<bpm>0</bpm>
<rpm>0.00</rpm>
</extensions>
</trkpt>
<trkpt lat="63.825531006" lon="-18.805326462">
<ele>502.546875</ele>
<time>2012-07-25T14:31:42Z</time>
<speed>1.430000</speed>
<extensions>
<speed>1.4</speed>
<temp>0.00</temp>
<bpm>0</bpm>
<rpm>0.00</rpm>
</extensions>
</trkpt>
<trkpt lat="63.825473785" lon="-18.805290222">
<ele>500.781250</ele>
<time>2012-07-25T14:31:47Z</time>
<speed>1.390000</speed>
<extensions>
<speed>1.4</speed>
<temp>0.00</temp>
<bpm>0</bpm>
<rpm>0.00</rpm>
</extensions>
</trkpt>
<trkpt lat="63.825469971" lon="-18.805282593">
<ele>500.796875</ele>
<time>2012-07-25T14:31:52Z</time>
<speed>0.220000</speed>
<extensions>
<speed>0.2</speed>
<temp>0.00</temp>
<bpm>0</bpm>
<rpm>0.00</rpm>
</extensions>
</trkpt>
<trkpt lat="63.825466156" lon="-18.805259705">
<ele>500.382813</ele>
<time>2012-07-25T14:31:57Z</time>
<speed>0.390000</speed>
<extensions>
<speed>0.4</speed>
<temp>0.00</temp>
<bpm>0</bpm>
<rpm>0.00</rpm>
</extensions>
</trkpt>
<trkpt lat="63.825469971" lon="-18.805244446">
<ele>500.296875</ele>
<time>2012-07-25T14:32:02Z</time>
<speed>0.110000</speed>
<extensions>
<speed>0.1</speed>
<temp>0.00</temp>
<bpm>0</bpm>
<rpm>0.00</rpm>
</extensions>
</trkpt>
<trkpt lat="63.825466156" lon="-18.805231094">
<ele>499.976563</ele>
<time>2012-07-25T14:32:07Z</time>
<speed>0.070000</speed>
<extensions>
<speed>0.1</speed>
<temp>0.00</temp>
<bpm>0</bpm>
<rpm>0.00</rpm>
</extensions>
</trkpt>
<trkpt lat="63.825447083" lon="-18.805179596">
<ele>500.390625</ele>
<time>2012-07-25T14:32:12Z</time>
<speed>1.290000</speed>
<extensions>
<speed>1.3</speed>
<temp>0.00</temp>
<bpm>0</bpm>
<rpm>0.00</rpm>
</extensions>
</trkpt>
<trkpt lat="63.825393677" lon="-18.805076599">
<ele>501.687500</ele>
<time>2012-07-25T14:32:17Z</time>
<speed>1.090000</speed>
<extensions>
<speed>1.1</speed>
<temp>0.00</temp>
<bpm>0</bpm>
<rpm>0.00</rpm>
</extensions>
</trkpt>
<trkpt lat="63.825363159" lon="-18.805044174">
<ele>501.507813</ele>
<time>2012-07-25T14:32:22Z</time>
<speed>0.180000</speed>
<extensions>
<speed>0.2</speed>
<temp>0.00</temp>
<bpm>0</bpm>
<rpm>0.00</rpm>
</extensions>
</trkpt>
<trkpt lat="63.825351715" lon="-18.805049896">
<ele>501.789063</ele>
<time>2012-07-25T14:32:27Z</time>
<speed>0.190000</speed>
<extensions>
<speed>0.2</speed>
<temp>0.00</temp>
<bpm>0</bpm>
<rpm>0.00</rpm>
</extensions>
</trkpt>
<trkpt lat="63.825386047" lon="-18.805078506">
<ele>500.992188</ele>
<time>2012-07-25T14:32:32Z</time>
<speed>1.270000</speed>
<extensions>
<speed>1.3</speed>
<temp>0.00</temp>
<bpm>0</bpm>
<rpm>0.00</rpm>
</extensions>
</trkpt>
<trkpt lat="63.825443268" lon="-18.805175781">
<ele>501.414063</ele>
<time>2012-07-25T14:32:37Z</time>
<speed>1.340000</speed>
<extensions>
<speed>1.3</speed>
<temp>0.00</temp>
<bpm>0</bpm>
<rpm>0.00</rpm>
</extensions>
</trkpt>
<trkpt lat="63.825485229" lon="-18.805269241">
<ele>501.640625</ele>
<time>2012-07-25T14:32:42Z</time>
<speed>0.740000</speed>
<extensions>
<speed>0.7</speed>
<temp>0.00</temp>
<bpm>0</bpm>
<rpm>0.00</rpm>
</extensions>
</trkpt>
<trkpt lat="63.825492859" lon="-18.805376053">
<ele>500.929688</ele>
<time>2012-07-25T14:32:47Z</time>
<speed>1.500000</speed>
<extensions>
<speed>1.5</speed>
<temp>0.00</temp>
<bpm>0</bpm>
<rpm>0.00</rpm>
</extensions>
</trkpt>
<trkpt lat="63.825492859" lon="-18.805503845">
<ele>500.343750</ele>
<time>2012-07-25T14:32:52Z</time>
<speed>1.520000</speed>
<extensions>
<speed>1.5</speed>
<temp>0.00</temp>
<bpm>0</bpm>
<rpm>0.00</rpm>
</extensions>
</trkpt>
<trkpt lat="63.825496674" lon="-18.805553436">
<ele>499.828125</ele>
<time>2012-07-25T14:32:57Z</time>
<speed>0.130000</speed>
<extensions>
<speed>0.1</speed>
<temp>0.00</temp>
<bpm>0</bpm>
<rpm>0.00</rpm>
</extensions>
</trkpt>
<trkpt lat="63.825492859" lon="-18.805540085">
<ele>499.554688</ele>
<time>2012-07-25T14:33:02Z</time>
<speed>0.250000</speed>
<extensions>
<speed>0.2</speed>
<temp>0.00</temp>
<bpm>0</bpm>
<rpm>0.00</rpm>
</extensions>
</trkpt>
<trkpt lat="63.825496674" lon="-18.805524826">
<ele>499.328125</ele>
<time>2012-07-25T14:33:07Z</time>
<speed>0.200000</speed>
<extensions>
<speed>0.2</speed>
<temp>0.00</temp>
<bpm>0</bpm>
<rpm>0.00</rpm>
</extensions>
</trkpt>
<trkpt lat="63.825500488" lon="-18.805511475">
<ele>499.156250</ele>
<time>2012-07-25T14:33:12Z</time>
<speed>0.240000</speed>
<extensions>
<speed>0.2</speed>
<temp>0.00</temp>
<bpm>0</bpm>
<rpm>0.00</rpm>
</extensions>
</trkpt>
<trkpt lat="63.825500488" lon="-18.805501938">
<ele>499.023438</ele>
<time>2012-07-25T14:33:17Z</time>
<speed>0.150000</speed>
<extensions>
<speed>0.2</speed>
<temp>0.00</temp>
<bpm>0</bpm>
<rpm>0.00</rpm>
</extensions>
</trkpt>
<trkpt lat="63.825500488" lon="-18.805492401">
<ele>498.875000</ele>
<time>2012-07-25T14:33:22Z</time>
<speed>0.070000</speed>
<extensions>
<speed>0.1</speed>
<temp>0.00</temp>
<bpm>0</bpm>
<rpm>0.00</rpm>
</extensions>
</trkpt>
<trkpt lat="63.825500488" lon="-18.805488586">
<ele>498.812500</ele>
<time>2012-07-25T14:33:27Z</time>
<speed>0.270000</speed>
<extensions>
<speed>0.3</speed>
<temp>0.00</temp>
<bpm>0</bpm>
<rpm>0.00</rpm>
</extensions>
</trkpt>
<trkpt lat="63.825508118" lon="-18.805484772">
<ele>498.812500</ele>
<time>2012-07-25T14:33:32Z</time>
<extensions>
<speed>0.0</speed>
<temp>0.00</temp>
<bpm>0</bpm>
<rpm>0.00</rpm>
</extensions>
</trkpt>
<trkpt lat="63.825508118" lon="-18.805484772">
<ele>498.718750</ele>
<time>2012-07-25T14:33:37Z</time>
<speed>0.040000</speed>
<extensions>
<speed>0.0</speed>
<temp>0.00</temp>
<bpm>0</bpm>
<rpm>0.00</rpm>
</extensions>
</trkpt>
<trkpt lat="63.825508118" lon="-18.805484772">
<ele>498.687500</ele>
<time>2012-07-25T14:33:42Z</time>
<speed>0.010000</speed>
<extensions>
<speed>0.0</speed>
<temp>0.00</temp>
<bpm>0</bpm>
<rpm>0.00</rpm>
</extensions>
</trkpt>
<trkpt lat="63.825508118" lon="-18.805486679">
<ele>498.703125</ele>
<time>2012-07-25T14:33:47Z</time>
<speed>0.010000</speed>
<extensions>
<speed>0.0</speed>
<temp>0.00</temp>
<bpm>0</bpm>
<rpm>0.00</rpm>
</extensions>
</trkpt>
<trkpt lat="63.825508118" lon="-18.805486679">
<ele>498.718750</ele>
<time>2012-07-25T14:33:52Z</time>
<speed>0.080000</speed>
<extensions>
<speed>0.1</speed>
<temp>0.00</temp>
<bpm>0</bpm>
<rpm>0.00</rpm>
</extensions>
</trkpt>
<trkpt lat="63.825508118" lon="-18.805486679">
<ele>498.718750</ele>
<time>2012-07-25T14:33:57Z</time>
<extensions>
<speed>0.0</speed>
<temp>0.00</temp>
<bpm>0</bpm>
<rpm>0.00</rpm>
</extensions>
</trkpt>
<trkpt lat="63.825508118" lon="-18.805486679">
<ele>498.718750</ele>
<time>2012-07-25T14:34:02Z</time>
<speed>0.010000</speed>
<extensions>
<speed>0.0</speed>
<temp>0.00</temp>
<bpm>0</bpm>
<rpm>0.00</rpm>
</extensions>
</trkpt>
<trkpt lat="63.825508118" lon="-18.805486679">
<ele>498.718750</ele>
<time>2012-07-25T14:34:07Z</time>
<speed>0.020000</speed>
<extensions>
<speed>0.0</speed>
<temp>0.00</temp>
<bpm>0</bpm>
<rpm>0.00</rpm>
</extensions>
</trkpt>
<trkpt lat="63.825508118" lon="-18.805488586">
<ele>498.726563</ele>
<time>2012-07-25T14:34:12Z</time>
<speed>0.040000</speed>
<extensions>
<speed>0.0</speed>
<temp>0.00</temp>
<bpm>0</bpm>
<rpm>0.00</rpm>
</extensions>
</trkpt>
<trkpt lat="63.825527191" lon="-18.805467606">
<ele>499.351563</ele>
<time>2012-07-25T14:34:17Z</time>
<speed>0.960000</speed>
<extensions>
<speed>1.0</speed>
<temp>0.00</temp>
<bpm>0</bpm>
<rpm>0.00</rpm>
</extensions>
</trkpt>
<trkpt lat="63.825534821" lon="-18.805410385">
<ele>499.843750</ele>
<time>2012-07-25T14:34:22Z</time>
<speed>0.520000</speed>
<extensions>
<speed>0.5</speed>
<temp>0.00</temp>
<bpm>0</bpm>
<rpm>0.00</rpm>
</extensions>
</trkpt>
<trkpt lat="63.825531006" lon="-18.805397034">
<ele>500.031250</ele>
<time>2012-07-25T14:34:27Z</time>
<speed>0.120000</speed>
<extensions>
<speed>0.1</speed>
<temp>0.00</temp>
<bpm>0</bpm>
<rpm>0.00</rpm>
</extensions>
</trkpt>
<trkpt lat="63.825531006" lon="-18.805406570">
<ele>499.742188</ele>
<time>2012-07-25T14:34:32Z</time>
<speed>0.030000</speed>
<extensions>
<speed>0.0</speed>
<temp>0.00</temp>
<bpm>0</bpm>
<rpm>0.00</rpm>
</extensions>
</trkpt>
<trkpt lat="63.825527191" lon="-18.805410385">
<ele>500.195313</ele>
<time>2012-07-25T14:34:37Z</time>
<speed>0.090000</speed>
<extensions>
<speed>0.1</speed>
<temp>0.00</temp>
<bpm>0</bpm>
<rpm>0.00</rpm>
</extensions>
</trkpt>
<trkpt lat="63.825531006" lon="-18.805400848">
<ele>500.929688</ele>
<time>2012-07-25T14:34:42Z</time>
<extensions>
<speed>0.0</speed>
<temp>0.00</temp>
<bpm>0</bpm>
<rpm>0.00</rpm>
</extensions>
</trkpt>
<trkpt lat="63.825534821" lon="-18.805387497">
<ele>500.828125</ele>
<time>2012-07-25T14:34:47Z</time>
<speed>0.620000</speed>
<extensions>
<speed>0.6</speed>
<temp>0.00</temp>
<bpm>0</bpm>
<rpm>0.00</rpm>
</extensions>
</trkpt>
<trkpt lat="63.825523376" lon="-18.805351257">
<ele>500.679688</ele>
<time>2012-07-25T14:34:52Z</time>
<speed>0.370000</speed>
<extensions>
<speed>0.4</speed>
<temp>0.00</temp>
<bpm>0</bpm>
<rpm>0.00</rpm>
</extensions>
</trkpt>
<trkpt lat="63.825531006" lon="-18.805330276">
<ele>501.117188</ele>
<time>2012-07-25T14:34:57Z</time>
<speed>0.310000</speed>
<extensions>
<speed>0.3</speed>
<temp>0.00</temp>
<bpm>0</bpm>
<rpm>0.00</rpm>
</extensions>
</trkpt>
<trkpt lat="63.825542450" lon="-18.805257797">
<ele>500.726563</ele>
<time>2012-07-25T14:35:02Z</time>
<speed>0.850000</speed>
<extensions>
<speed>0.8</speed>
<temp>0.00</temp>
<bpm>0</bpm>
<rpm>0.00</rpm>
</extensions>
</trkpt>
<trkpt lat="63.825534821" lon="-18.805250168">
<ele>500.617188</ele>
<time>2012-07-25T14:35:07Z</time>
<speed>0.710000</speed>
<extensions>
<speed>0.7</speed>
<temp>0.00</temp>
<bpm>0</bpm>
<rpm>0.00</rpm>
</extensions>
</trkpt>
<trkpt lat="63.825515747" lon="-18.805276871">
<ele>500.164063</ele>
<time>2012-07-25T14:35:12Z</time>
<speed>0.250000</speed>
<extensions>
<speed>0.2</speed>
<temp>0.00</temp>
<bpm>0</bpm>
<rpm>0.00</rpm>
</extensions>
</trkpt>
<trkpt lat="63.825496674" lon="-18.805313110">
<ele>500.570313</ele>
<time>2012-07-25T14:35:17Z</time>
<speed>0.800000</speed>
<extensions>
<speed>0.8</speed>
<temp>0.00</temp>
<bpm>0</bpm>
<rpm>0.00</rpm>
</extensions>
</trkpt>
<trkpt lat="63.825496674" lon="-18.805303574">
<ele>501.281250</ele>
<time>2012-07-25T14:35:22Z</time>
<speed>0.020000</speed>
<extensions>
<speed>0.0</speed>
<temp>0.00</temp>
<bpm>0</bpm>
<rpm>0.00</rpm>
</extensions>
</trkpt>
<trkpt lat="63.825496674" lon="-18.805303574">
<ele>501.109375</ele>
<time>2012-07-25T14:35:27Z</time>
<speed>0.010000</speed>
<extensions>
<speed>0.0</speed>
<temp>0.00</temp>
<bpm>0</bpm>
<rpm>0.00</rpm>
</extensions>
</trkpt>
<trkpt lat="63.825492859" lon="-18.805303574">
<ele>501.085938</ele>
<time>2012-07-25T14:35:32Z</time>
<speed>0.140000</speed>
<extensions>
<speed>0.1</speed>
<temp>0.00</temp>
<bpm>0</bpm>
<rpm>0.00</rpm>
</extensions>
</trkpt>
<trkpt lat="63.825489044" lon="-18.805286407">
<ele>501.070313</ele>
<time>2012-07-25T14:35:37Z</time>
<speed>1.090000</speed>
<extensions>
<speed>1.1</speed>
<temp>0.00</temp>
<bpm>0</bpm>
<rpm>0.00</rpm>
</extensions>
</trkpt>
<trkpt lat="63.825439453" lon="-18.805166245">
<ele>501.320313</ele>
<time>2012-07-25T14:35:42Z</time>
<speed>1.300000</speed>
<extensions>
<speed>1.3</speed>
<temp>0.00</temp>
<bpm>0</bpm>
<rpm>0.00</rpm>
</extensions>
</trkpt>
<trkpt lat="63.825401306" lon="-18.805051804">
<ele>501.664063</ele>
<time>2012-07-25T14:35:47Z</time>
<speed>1.070000</speed>
<extensions>
<speed>1.1</speed>
<temp>0.00</temp>
<bpm>0</bpm>
<rpm>0.00</rpm>
</extensions>
</trkpt>
<trkpt lat="63.825370789" lon="-18.804998398">
<ele>501.398438</ele>
<time>2012-07-25T14:35:52Z</time>
<speed>0.650000</speed>
<extensions>
<speed>0.6</speed>
<temp>0.00</temp>
<bpm>0</bpm>
<rpm>0.00</rpm>
</extensions>
</trkpt>
<trkpt lat="63.825355530" lon="-18.804979324">
<ele>500.929688</ele>
<time>2012-07-25T14:35:57Z</time>
<speed>0.050000</speed>
<extensions>
<speed>0.1</speed>
<temp>0.00</temp>
<bpm>0</bpm>
<rpm>0.00</rpm>
</extensions>
</trkpt>
<trkpt lat="63.825359344" lon="-18.804979324">
<ele>500.632813</ele>
<time>2012-07-25T14:36:02Z</time>
<extensions>
<speed>0.0</speed>
<temp>0.00</temp>
<bpm>0</bpm>
<rpm>0.00</rpm>
</extensions>
</trkpt>
<trkpt lat="63.825359344" lon="-18.804979324">
<ele>500.609375</ele>
<time>2012-07-25T14:36:07Z</time>
<speed>0.250000</speed>
<extensions>
<speed>0.2</speed>
<temp>0.00</temp>
<bpm>0</bpm>
<rpm>0.00</rpm>
</extensions>
</trkpt>
<trkpt lat="63.825374603" lon="-18.805021286">
<ele>501.414063</ele>
<time>2012-07-25T14:36:12Z</time>
<speed>0.280000</speed>
<extensions>
<speed>0.3</speed>
<temp>0.00</temp>
<bpm>0</bpm>
<rpm>0.00</rpm>
</extensions>
</trkpt>
<trkpt lat="63.825374603" lon="-18.805017471">
<ele>501.859375</ele>
<time>2012-07-25T14:36:17Z</time>
<extensions>
<speed>0.0</speed>
<temp>0.00</temp>
<bpm>0</bpm>
<rpm>0.00</rpm>
</extensions>
</trkpt>
<trkpt lat="63.825370789" lon="-18.805013657">
<ele>502.093750</ele>
<time>2012-07-25T14:36:22Z</time>
<speed>0.120000</speed>
<extensions>
<speed>0.1</speed>
<temp>0.00</temp>
<bpm>0</bpm>
<rpm>0.00</rpm>
</extensions>
</trkpt>
<trkpt lat="63.825366974" lon="-18.805011749">
<ele>502.414063</ele>
<time>2012-07-25T14:36:27Z</time>
<speed>0.040000</speed>
<extensions>
<speed>0.0</speed>
<temp>0.00</temp>
<bpm>0</bpm>
<rpm>0.00</rpm>
</extensions>
</trkpt>
<trkpt lat="63.825366974" lon="-18.805011749">
<ele>502.437500</ele>
<time>2012-07-25T14:36:32Z</time>
<speed>0.030000</speed>
<extensions>
<speed>0.0</speed>
<temp>0.00</temp>
<bpm>0</bpm>
<rpm>0.00</rpm>
</extensions>
</trkpt>
<trkpt lat="63.825366974" lon="-18.805011749">
<ele>502.437500</ele>
<time>2012-07-25T14:36:37Z</time>
<speed>0.030000</speed>
<extensions>
<speed>0.0</speed>
<temp>0.00</temp>
<bpm>0</bpm>
<rpm>0.00</rpm>
</extensions>
</trkpt>
<trkpt lat="63.825366974" lon="-18.805011749">
<ele>502.445313</ele>
<time>2012-07-25T14:36:42Z</time>
<speed>0.010000</speed>
<extensions>
<speed>0.0</speed>
<temp>0.00</temp>
<bpm>0</bpm>
<rpm>0.00</rpm>
</extensions>
</trkpt>
<trkpt lat="63.825366974" lon="-18.805011749">
<ele>502.468750</ele>
<time>2012-07-25T14:36:47Z</time>
<speed>0.010000</speed>
<extensions>
<speed>0.0</speed>
<temp>0.00</temp>
<bpm>0</bpm>
<rpm>0.00</rpm>
</extensions>
</trkpt>
<trkpt lat="63.825366974" lon="-18.805011749">
<ele>502.460938</ele>
<time>2012-07-25T14:36:52Z</time>
<speed>0.020000</speed>
<extensions>
<speed>0.0</speed>
<temp>0.00</temp>
<bpm>0</bpm>
<rpm>0.00</rpm>
</extensions>
</trkpt>
<trkpt lat="63.825366974" lon="-18.805011749">
<ele>502.476563</ele>
<time>2012-07-25T14:36:57Z</time>
<speed>0.010000</speed>
<extensions>
<speed>0.0</speed>
<temp>0.00</temp>
<bpm>0</bpm>
<rpm>0.00</rpm>
</extensions>
</trkpt>
<trkpt lat="63.825366974" lon="-18.805011749">
<ele>502.476563</ele>
<time>2012-07-25T14:37:02Z</time>
<speed>0.030000</speed>
<extensions>
<speed>0.0</speed>
<temp>0.00</temp>
<bpm>0</bpm>
<rpm>0.00</rpm>
</extensions>
</trkpt>
<trkpt lat="63.825366974" lon="-18.805011749">
<ele>502.492188</ele>
<time>2012-07-25T14:37:07Z</time>
<speed>0.010000</speed>
<extensions>
<speed>0.0</speed>
<temp>0.00</temp>
<bpm>0</bpm>
<rpm>0.00</rpm>
</extensions>
</trkpt>
<trkpt lat="63.825366974" lon="-18.805013657">
<ele>502.507813</ele>
<time>2012-07-25T14:37:12Z</time>
<speed>0.030000</speed>
<extensions>
<speed>0.0</speed>
<temp>0.00</temp>
<bpm>0</bpm>
<rpm>0.00</rpm>
</extensions>
</trkpt>
<trkpt lat="63.825366974" lon="-18.805013657">
<ele>502.531250</ele>
<time>2012-07-25T14:37:17Z</time>
<speed>0.010000</speed>
<extensions>
<speed>0.0</speed>
<temp>0.00</temp>
<bpm>0</bpm>
<rpm>0.00</rpm>
</extensions>
</trkpt>
<trkpt lat="63.825366974" lon="-18.805013657">
<ele>502.539063</ele>
<time>2012-07-25T14:37:22Z</time>
<speed>0.050000</speed>
<extensions>
<speed>0.1</speed>
<temp>0.00</temp>
<bpm>0</bpm>
<rpm>0.00</rpm>
</extensions>
</trkpt>
<trkpt lat="63.825370789" lon="-18.805013657">
<ele>502.539063</ele>
<time>2012-07-25T14:37:27Z</time>
<speed>0.670000</speed>
<extensions>
<speed>0.7</speed>
<temp>0.00</temp>
<bpm>0</bpm>
<rpm>0.00</rpm>
</extensions>
</trkpt>
<trkpt lat="63.825435638" lon="-18.805017471">
<ele>502.882813</ele>
<time>2012-07-25T14:37:32Z</time>
<speed>1.460000</speed>
<extensions>
<speed>1.5</speed>
<temp>0.00</temp>
<bpm>0</bpm>
<rpm>0.00</rpm>
</extensions>
</trkpt>
<trkpt lat="63.825508118" lon="-18.805080414">
<ele>503.492188</ele>
<time>2012-07-25T14:37:37Z</time>
<speed>1.600000</speed>
<extensions>
<speed>1.6</speed>
<temp>0.00</temp>
<bpm>0</bpm>
<rpm>0.00</rpm>
</extensions>
</trkpt>
<trkpt lat="63.825557709" lon="-18.805164337">
<ele>503.679688</ele>
<time>2012-07-25T14:37:42Z</time>
<speed>1.200000</speed>
<extensions>
<speed>1.2</speed>
<temp>0.00</temp>
<bpm>0</bpm>
<rpm>0.00</rpm>
</extensions>
</trkpt>
<trkpt lat="63.825557709" lon="-18.805202484">
<ele>503.421875</ele>
<time>2012-07-25T14:37:47Z</time>
<speed>0.200000</speed>
<extensions>
<speed>0.2</speed>
<temp>0.00</temp>
<bpm>0</bpm>
<rpm>0.00</rpm>
</extensions>
</trkpt>
<trkpt lat="63.825569153" lon="-18.805267334">
<ele>503.773438</ele>
<time>2012-07-25T14:37:52Z</time>
<speed>1.340000</speed>
<extensions>
<speed>1.3</speed>
<temp>0.00</temp>
<bpm>0</bpm>
<rpm>0.00</rpm>
</extensions>
</trkpt>
<trkpt lat="63.825626373" lon="-18.805393219">
<ele>505.070313</ele>
<time>2012-07-25T14:37:57Z</time>
<speed>1.620000</speed>
<extensions>
<speed>1.6</speed>
<temp>0.00</temp>
<bpm>0</bpm>
<rpm>0.00</rpm>
</extensions>
</trkpt>
<trkpt lat="63.825679779" lon="-18.805479050">
<ele>504.242188</ele>
<time>2012-07-25T14:38:02Z</time>
<speed>1.030000</speed>
<extensions>
<speed>1.0</speed>
<temp>0.00</temp>
<bpm>0</bpm>
<rpm>0.00</rpm>
</extensions>
</trkpt>
<trkpt lat="63.825695038" lon="-18.805519104">
<ele>504.164063</ele>
<time>2012-07-25T14:38:07Z</time>
<speed>0.110000</speed>
<extensions>
<speed>0.1</speed>
<temp>0.00</temp>
<bpm>0</bpm>
<rpm>0.00</rpm>
</extensions>
</trkpt>
<trkpt lat="63.825698853" lon="-18.805519104">
<ele>504.585938</ele>
<time>2012-07-25T14:38:12Z</time>
<speed>0.100000</speed>
<extensions>
<speed>0.1</speed>
<temp>0.00</temp>
<bpm>0</bpm>
<rpm>0.00</rpm>
</extensions>
</trkpt>
<trkpt lat="63.825695038" lon="-18.805519104">
<ele>504.867188</ele>
<time>2012-07-25T14:38:17Z</time>
<extensions>
<speed>0.0</speed>
<temp>0.00</temp>
<bpm>0</bpm>
<rpm>0.00</rpm>
</extensions>
</trkpt>
<trkpt lat="63.825695038" lon="-18.805521011">
<ele>504.906250</ele>
<time>2012-07-25T14:38:22Z</time>
<speed>0.010000</speed>
<extensions>
<speed>0.0</speed>
<temp>0.00</temp>
<bpm>0</bpm>
<rpm>0.00</rpm>
</extensions>
</trkpt>
<trkpt lat="63.825695038" lon="-18.805521011">
<ele>504.882813</ele>
<time>2012-07-25T14:38:27Z</time>
<extensions>
<speed>0.0</speed>
<temp>0.00</temp>
<bpm>0</bpm>
<rpm>0.00</rpm>
</extensions>
</trkpt>
<trkpt lat="63.825695038" lon="-18.805521011">
<ele>504.875000</ele>
<time>2012-07-25T14:38:32Z</time>
<speed>0.010000</speed>
<extensions>
<speed>0.0</speed>
<temp>0.00</temp>
<bpm>0</bpm>
<rpm>0.00</rpm>
</extensions>
</trkpt>
<trkpt lat="63.825695038" lon="-18.805521011">
<ele>504.882813</ele>
<time>2012-07-25T14:38:37Z</time>
<speed>0.010000</speed>
<extensions>
<speed>0.0</speed>
<temp>0.00</temp>
<bpm>0</bpm>
<rpm>0.00</rpm>
</extensions>
</trkpt>
<trkpt lat="63.825695038" lon="-18.805521011">
<ele>504.875000</ele>
<time>2012-07-25T14:38:42Z</time>
<speed>0.010000</speed>
<extensions>
<speed>0.0</speed>
<temp>0.00</temp>
<bpm>0</bpm>
<rpm>0.00</rpm>
</extensions>
</trkpt>
<trkpt lat="63.825695038" lon="-18.805521011">
<ele>504.875000</ele>
<time>2012-07-25T14:38:47Z</time>
<speed>0.060000</speed>
<extensions>
<speed>0.1</speed>
<temp>0.00</temp>
<bpm>0</bpm>
<rpm>0.00</rpm>
</extensions>
</trkpt>
<trkpt lat="63.825695038" lon="-18.805521011">
<ele>504.890625</ele>
<time>2012-07-25T14:38:52Z</time>
<speed>0.040000</speed>
<extensions>
<speed>0.0</speed>
<temp>0.00</temp>
<bpm>0</bpm>
<rpm>0.00</rpm>
</extensions>
</trkpt>
<trkpt lat="63.825695038" lon="-18.805521011">
<ele>504.875000</ele>
<time>2012-07-25T14:38:57Z</time>
<extensions>
<speed>0.0</speed>
<temp>0.00</temp>
<bpm>0</bpm>
<rpm>0.00</rpm>
</extensions>
</trkpt>
<trkpt lat="63.825695038" lon="-18.805521011">
<ele>504.875000</ele>
<time>2012-07-25T14:39:02Z</time>
<extensions>
<speed>0.0</speed>
<temp>0.00</temp>
<bpm>0</bpm>
<rpm>0.00</rpm>
</extensions>
</trkpt>
<trkpt lat="63.825695038" lon="-18.805521011">
<ele>504.859375</ele>
<time>2012-07-25T14:39:07Z</time>
<extensions>
<speed>0.0</speed>
<temp>0.00</temp>
<bpm>0</bpm>
<rpm>0.00</rpm>
</extensions>
</trkpt>
<trkpt lat="63.825695038" lon="-18.805521011">
<ele>504.851563</ele>
<time>2012-07-25T14:39:12Z</time>
<extensions>
<speed>0.0</speed>
<temp>0.00</temp>
<bpm>0</bpm>
<rpm>0.00</rpm>
</extensions>
</trkpt>
<trkpt lat="63.825695038" lon="-18.805521011">
<ele>504.859375</ele>
<time>2012-07-25T14:39:17Z</time>
<speed>0.010000</speed>
<extensions>
<speed>0.0</speed>
<temp>0.00</temp>
<bpm>0</bpm>
<rpm>0.00</rpm>
</extensions>
</trkpt>
<trkpt lat="63.825695038" lon="-18.805521011">
<ele>504.851563</ele>
<time>2012-07-25T14:39:22Z</time>
<extensions>
<speed>0.0</speed>
<temp>0.00</temp>
<bpm>0</bpm>
<rpm>0.00</rpm>
</extensions>
</trkpt>
<trkpt lat="63.825695038" lon="-18.805522919">
<ele>504.859375</ele>
<time>2012-07-25T14:39:27Z</time>
<speed>0.010000</speed>
<extensions>
<speed>0.0</speed>
<temp>0.00</temp>
<bpm>0</bpm>
<rpm>0.00</rpm>
</extensions>
</trkpt>
<trkpt lat="63.825695038" lon="-18.805522919">
<ele>504.859375</ele>
<time>2012-07-25T14:39:32Z</time>
<speed>0.060000</speed>
<extensions>
<speed>0.1</speed>
<temp>0.00</temp>
<bpm>0</bpm>
<rpm>0.00</rpm>
</extensions>
</trkpt>
<trkpt lat="63.825668335" lon="-18.805494308">
<ele>505.640625</ele>
<time>2012-07-25T14:39:37Z</time>
<speed>0.800000</speed>
<extensions>
<speed>0.8</speed>
<temp>0.00</temp>
<bpm>0</bpm>
<rpm>0.00</rpm>
</extensions>
</trkpt>
<trkpt lat="63.825660706" lon="-18.805469513">
<ele>505.921875</ele>
<time>2012-07-25T14:39:42Z</time>
<speed>0.070000</speed>
<extensions>
<speed>0.1</speed>
<temp>0.00</temp>
<bpm>0</bpm>
<rpm>0.00</rpm>
</extensions>
</trkpt>
<trkpt lat="63.825660706" lon="-18.805475235">
<ele>506.062500</ele>
<time>2012-07-25T14:39:47Z</time>
<speed>0.380000</speed>
<extensions>
<speed>0.4</speed>
<temp>0.00</temp>
<bpm>0</bpm>
<rpm>0.00</rpm>
</extensions>
</trkpt>
<trkpt lat="63.825672150" lon="-18.805410385">
<ele>505.687500</ele>
<time>2012-07-25T14:39:52Z</time>
<speed>1.360000</speed>
<extensions>
<speed>1.4</speed>
<temp>0.00</temp>
<bpm>0</bpm>
<rpm>0.00</rpm>
</extensions>
</trkpt>
<trkpt lat="63.825637817" lon="-18.805292130">
<ele>504.796875</ele>
<time>2012-07-25T14:39:57Z</time>
<speed>1.460000</speed>
<extensions>
<speed>1.5</speed>
<temp>0.00</temp>
<bpm>0</bpm>
<rpm>0.00</rpm>
</extensions>
</trkpt>
<trkpt lat="63.825595856" lon="-18.805189133">
<ele>504.171875</ele>
<time>2012-07-25T14:40:02Z</time>
<speed>1.220000</speed>
<extensions>
<speed>1.2</speed>
<temp>0.00</temp>
<bpm>0</bpm>
<rpm>0.00</rpm>
</extensions>
</trkpt>
<trkpt lat="63.825546265" lon="-18.805095673">
<ele>503.601563</ele>
<time>2012-07-25T14:40:07Z</time>
<speed>1.270000</speed>
<extensions>
<speed>1.3</speed>
<temp>0.00</temp>
<bpm>0</bpm>
<rpm>0.00</rpm>
</extensions>
</trkpt>
<trkpt lat="63.825504303" lon="-18.805017471">
<ele>503.820313</ele>
<time>2012-07-25T14:40:12Z</time>
<speed>1.030000</speed>
<extensions>
<speed>1.0</speed>
<temp>0.00</temp>
<bpm>0</bpm>
<rpm>0.00</rpm>
</extensions>
</trkpt>
<trkpt lat="63.825447083" lon="-18.804973602">
<ele>505.453125</ele>
<time>2012-07-25T14:40:17Z</time>
<speed>1.440000</speed>
<extensions>
<speed>1.4</speed>
<temp>0.00</temp>
<bpm>0</bpm>
<rpm>0.00</rpm>
</extensions>
</trkpt>
<trkpt lat="63.825386047" lon="-18.804977417">
<ele>505.937500</ele>
<time>2012-07-25T14:40:22Z</time>
<speed>1.350000</speed>
<extensions>
<speed>1.4</speed>
<temp>0.00</temp>
<bpm>0</bpm>
<rpm>0.00</rpm>
</extensions>
</trkpt>
<trkpt lat="63.825363159" lon="-18.804981232">
<ele>505.929688</ele>
<time>2012-07-25T14:40:27Z</time>
<speed>0.790000</speed>
<extensions>
<speed>0.8</speed>
<temp>0.00</temp>
<bpm>0</bpm>
<rpm>0.00</rpm>
</extensions>
</trkpt>
<trkpt lat="63.825351715" lon="-18.804843903">
<ele>505.726563</ele>
<time>2012-07-25T14:40:32Z</time>
<speed>1.440000</speed>
<extensions>
<speed>1.4</speed>
<temp>0.00</temp>
<bpm>0</bpm>
<rpm>0.00</rpm>
</extensions>
</trkpt>
<trkpt lat="63.825321198" lon="-18.804702759">
<ele>504.523438</ele>
<time>2012-07-25T14:40:37Z</time>
<speed>1.610000</speed>
<extensions>
<speed>1.6</speed>
<temp>0.00</temp>
<bpm>0</bpm>
<rpm>0.00</rpm>
</extensions>
</trkpt>
<trkpt lat="63.825317383" lon="-18.804588318">
<ele>505.960938</ele>
<time>2012-07-25T14:40:42Z</time>
<speed>1.370000</speed>
<extensions>
<speed>1.4</speed>
<temp>0.00</temp>
<bpm>0</bpm>
<rpm>0.00</rpm>
</extensions>
</trkpt>
<trkpt lat="63.825279236" lon="-18.804479599">
<ele>506.671875</ele>
<time>2012-07-25T14:40:47Z</time>
<speed>1.370000</speed>
<extensions>
<speed>1.4</speed>
<temp>0.00</temp>
<bpm>0</bpm>
<rpm>0.00</rpm>
</extensions>
</trkpt>
<trkpt lat="63.825233459" lon="-18.804393768">
<ele>506.531250</ele>
<time>2012-07-25T14:40:52Z</time>
<speed>1.180000</speed>
<extensions>
<speed>1.2</speed>
<temp>0.00</temp>
<bpm>0</bpm>
<rpm>0.00</rpm>
</extensions>
</trkpt>
<trkpt lat="63.825183868" lon="-18.804359436">
<ele>507.171875</ele>
<time>2012-07-25T14:40:57Z</time>
<speed>1.390000</speed>
<extensions>
<speed>1.4</speed>
<temp>0.00</temp>
<bpm>0</bpm>
<rpm>0.00</rpm>
</extensions>
</trkpt>
<trkpt lat="63.825160980" lon="-18.804271698">
<ele>507.929688</ele>
<time>2012-07-25T14:41:02Z</time>
<speed>0.810000</speed>
<extensions>
<speed>0.8</speed>
<temp>0.00</temp>
<bpm>0</bpm>
<rpm>0.00</rpm>
</extensions>
</trkpt>
<trkpt lat="63.825141907" lon="-18.804178238">
<ele>507.484375</ele>
<time>2012-07-25T14:41:07Z</time>
<speed>1.230000</speed>
<extensions>
<speed>1.2</speed>
<temp>0.00</temp>
<bpm>0</bpm>
<rpm>0.00</rpm>
</extensions>
</trkpt>
<trkpt lat="63.825130463" lon="-18.804147720">
<ele>507.281250</ele>
<time>2012-07-25T14:41:12Z</time>
<speed>0.200000</speed>
<extensions>
<speed>0.2</speed>
<temp>0.00</temp>
<bpm>0</bpm>
<rpm>0.00</rpm>
</extensions>
</trkpt>
<trkpt lat="63.825130463" lon="-18.804128647">
<ele>506.484375</ele>
<time>2012-07-25T14:41:17Z</time>
<speed>0.100000</speed>
<extensions>
<speed>0.1</speed>
<temp>0.00</temp>
<bpm>0</bpm>
<rpm>0.00</rpm>
</extensions>
</trkpt>
<trkpt lat="63.825134277" lon="-18.804124832">
<ele>506.273438</ele>
<time>2012-07-25T14:41:22Z</time>
<speed>0.010000</speed>
<extensions>
<speed>0.0</speed>
<temp>0.00</temp>
<bpm>0</bpm>
<rpm>0.00</rpm>
</extensions>
</trkpt>
<trkpt lat="63.825134277" lon="-18.804130554">
<ele>506.250000</ele>
<time>2012-07-25T14:41:27Z</time>
<speed>0.310000</speed>
<extensions>
<speed>0.3</speed>
<temp>0.00</temp>
<bpm>0</bpm>
<rpm>0.00</rpm>
</extensions>
</trkpt>
<trkpt lat="63.825130463" lon="-18.804132462">
<ele>506.351563</ele>
<time>2012-07-25T14:41:32Z</time>
<speed>0.300000</speed>
<extensions>
<speed>0.3</speed>
<temp>0.00</temp>
<bpm>0</bpm>
<rpm>0.00</rpm>
</extensions>
</trkpt>
<trkpt lat="63.825141907" lon="-18.804149628">
<ele>506.578125</ele>
<time>2012-07-25T14:41:37Z</time>
<speed>0.160000</speed>
<extensions>
<speed>0.2</speed>
<temp>0.00</temp>
<bpm>0</bpm>
<rpm>0.00</rpm>
</extensions>
</trkpt>
<trkpt lat="63.825130463" lon="-18.804166794">
<ele>506.445313</ele>
<time>2012-07-25T14:41:42Z</time>
<speed>0.050000</speed>
<extensions>
<speed>0.1</speed>
<temp>0.00</temp>
<bpm>0</bpm>
<rpm>0.00</rpm>
</extensions>
</trkpt>
<trkpt lat="63.825130463" lon="-18.804159164">
<ele>507.312500</ele>
<time>2012-07-25T14:41:47Z</time>
<speed>0.080000</speed>
<extensions>
<speed>0.1</speed>
<temp>0.00</temp>
<bpm>0</bpm>
<rpm>0.00</rpm>
</extensions>
</trkpt>
<trkpt lat="63.825138092" lon="-18.804178238">
<ele>507.679688</ele>
<time>2012-07-25T14:41:52Z</time>
<speed>0.210000</speed>
<extensions>
<speed>0.2</speed>
<temp>0.00</temp>
<bpm>0</bpm>
<rpm>0.00</rpm>
</extensions>
</trkpt>
<trkpt lat="63.825141907" lon="-18.804183960">
<ele>507.992188</ele>
<time>2012-07-25T14:41:57Z</time>
<speed>0.120000</speed>
<extensions>
<speed>0.1</speed>
<temp>0.00</temp>
<bpm>0</bpm>
<rpm>0.00</rpm>
</extensions>
</trkpt>
<trkpt lat="63.825141907" lon="-18.804187775">
<ele>508.125000</ele>
<time>2012-07-25T14:42:02Z</time>
<speed>0.180000</speed>
<extensions>
<speed>0.2</speed>
<temp>0.00</temp>
<bpm>0</bpm>
<rpm>0.00</rpm>
</extensions>
</trkpt>
<trkpt lat="63.825138092" lon="-18.804187775">
<ele>508.171875</ele>
<time>2012-07-25T14:42:07Z</time>
<speed>0.150000</speed>
<extensions>
<speed>0.2</speed>
<temp>0.00</temp>
<bpm>0</bpm>
<rpm>0.00</rpm>
</extensions>
</trkpt>
<trkpt lat="63.825141907" lon="-18.804187775">
<ele>508.390625</ele>
<time>2012-07-25T14:42:12Z</time>
<speed>0.130000</speed>
<extensions>
<speed>0.1</speed>
<temp>0.00</temp>
<bpm>0</bpm>
<rpm>0.00</rpm>
</extensions>
</trkpt>
<trkpt lat="63.825141907" lon="-18.804191589">
<ele>508.257813</ele>
<time>2012-07-25T14:42:17Z</time>
<speed>0.170000</speed>
<extensions>
<speed>0.2</speed>
<temp>0.00</temp>
<bpm>0</bpm>
<rpm>0.00</rpm>
</extensions>
</trkpt>
<trkpt lat="63.825141907" lon="-18.804195404">
<ele>508.343750</ele>
<time>2012-07-25T14:42:22Z</time>
<speed>0.040000</speed>
<extensions>
<speed>0.0</speed>
<temp>0.00</temp>
<bpm>0</bpm>
<rpm>0.00</rpm>
</extensions>
</trkpt>
<trkpt lat="63.825145721" lon="-18.804197311">
<ele>508.406250</ele>
<time>2012-07-25T14:42:27Z</time>
<speed>0.010000</speed>
<extensions>
<speed>0.0</speed>
<temp>0.00</temp>
<bpm>0</bpm>
<rpm>0.00</rpm>
</extensions>
</trkpt>
<trkpt lat="63.825164795" lon="-18.804216385">
<ele>507.929688</ele>
<time>2012-07-25T14:42:32Z</time>
<speed>0.370000</speed>
<extensions>
<speed>0.4</speed>
<temp>0.00</temp>
<bpm>0</bpm>
<rpm>0.00</rpm>
</extensions>
</trkpt>
<trkpt lat="63.825160980" lon="-18.804197311">
<ele>506.539063</ele>
<time>2012-07-25T14:42:37Z</time>
<speed>0.180000</speed>
<extensions>
<speed>0.2</speed>
<temp>0.00</temp>
<bpm>0</bpm>
<rpm>0.00</rpm>
</extensions>
</trkpt>
<trkpt lat="63.825160980" lon="-18.804191589">
<ele>505.492188</ele>
<time>2012-07-25T14:42:42Z</time>
<speed>0.110000</speed>
<extensions>
<speed>0.1</speed>
<temp>0.00</temp>
<bpm>0</bpm>
<rpm>0.00</rpm>
</extensions>
</trkpt>
<trkpt lat="63.825164795" lon="-18.804182053">
<ele>504.507813</ele>
<time>2012-07-25T14:42:47Z</time>
<speed>0.200000</speed>
<extensions>
<speed>0.2</speed>
<temp>0.00</temp>
<bpm>0</bpm>
<rpm>0.00</rpm>
</extensions>
</trkpt>
<trkpt lat="63.825164795" lon="-18.804187775">
<ele>503.812500</ele>
<time>2012-07-25T14:42:52Z</time>
<speed>0.050000</speed>
<extensions>
<speed>0.1</speed>
<temp>0.00</temp>
<bpm>0</bpm>
<rpm>0.00</rpm>
</extensions>
</trkpt>
<trkpt lat="63.825164795" lon="-18.804176331">
<ele>503.250000</ele>
<time>2012-07-25T14:42:57Z</time>
<extensions>
<speed>0.0</speed>
<temp>0.00</temp>
<bpm>0</bpm>
<rpm>0.00</rpm>
</extensions>
</trkpt>
<trkpt lat="63.825164795" lon="-18.804176331">
<ele>502.656250</ele>
<time>2012-07-25T14:43:02Z</time>
<speed>0.030000</speed>
<extensions>
<speed>0.0</speed>
<temp>0.00</temp>
<bpm>0</bpm>
<rpm>0.00</rpm>
</extensions>
</trkpt>
<trkpt lat="63.825164795" lon="-18.804174423">
<ele>502.382813</ele>
<time>2012-07-25T14:43:07Z</time>
<speed>0.030000</speed>
<extensions>
<speed>0.0</speed>
<temp>0.00</temp>
<bpm>0</bpm>
<rpm>0.00</rpm>
</extensions>
</trkpt>
<trkpt lat="63.825149536" lon="-18.804170609">
<ele>501.593750</ele>
<time>2012-07-25T14:43:12Z</time>
<speed>0.300000</speed>
<extensions>
<speed>0.3</speed>
<temp>0.00</temp>
<bpm>0</bpm>
<rpm>0.00</rpm>
</extensions>
</trkpt>
<trkpt lat="63.825149536" lon="-18.804157257">
<ele>501.742188</ele>
<time>2012-07-25T14:43:17Z</time>
<speed>0.730000</speed>
<extensions>
<speed>0.7</speed>
<temp>0.00</temp>
<bpm>0</bpm>
<rpm>0.00</rpm>
</extensions>
</trkpt>
<trkpt lat="63.825149536" lon="-18.804164886">
<ele>502.101563</ele>
<time>2012-07-25T14:43:22Z</time>
<speed>0.550000</speed>
<extensions>
<speed>0.6</speed>
<temp>0.00</temp>
<bpm>0</bpm>
<rpm>0.00</rpm>
</extensions>
</trkpt>
<trkpt lat="63.825145721" lon="-18.804159164">
<ele>502.250000</ele>
<time>2012-07-25T14:43:27Z</time>
<speed>0.120000</speed>
<extensions>
<speed>0.1</speed>
<temp>0.00</temp>
<bpm>0</bpm>
<rpm>0.00</rpm>
</extensions>
</trkpt>
<trkpt lat="63.825149536" lon="-18.804164886">
<ele>502.312500</ele>
<time>2012-07-25T14:43:32Z</time>
<speed>0.110000</speed>
<extensions>
<speed>0.1</speed>
<temp>0.00</temp>
<bpm>0</bpm>
<rpm>0.00</rpm>
</extensions>
</trkpt>
<trkpt lat="63.825157166" lon="-18.804168701">
<ele>502.367188</ele>
<time>2012-07-25T14:43:37Z</time>
<speed>0.140000</speed>
<extensions>
<speed>0.1</speed>
<temp>0.00</temp>
<bpm>0</bpm>
<rpm>0.00</rpm>
</extensions>
</trkpt>
<trkpt lat="63.825157166" lon="-18.804174423">
<ele>502.460938</ele>
<time>2012-07-25T14:43:42Z</time>
<speed>0.020000</speed>
<extensions>
<speed>0.0</speed>
<temp>0.00</temp>
<bpm>0</bpm>
<rpm>0.00</rpm>
</extensions>
</trkpt>
<trkpt lat="63.825160980" lon="-18.804182053">
<ele>502.515625</ele>
<time>2012-07-25T14:43:47Z</time>
<speed>0.140000</speed>
<extensions>
<speed>0.1</speed>
<temp>0.00</temp>
<bpm>0</bpm>
<rpm>0.00</rpm>
</extensions>
</trkpt>
<trkpt lat="63.825164795" lon="-18.804187775">
<ele>502.578125</ele>
<time>2012-07-25T14:43:52Z</time>
<speed>0.020000</speed>
<extensions>
<speed>0.0</speed>
<temp>0.00</temp>
<bpm>0</bpm>
<rpm>0.00</rpm>
</extensions>
</trkpt>
<trkpt lat="63.825164795" lon="-18.804191589">
<ele>502.648438</ele>
<time>2012-07-25T14:43:57Z</time>
<speed>0.140000</speed>
<extensions>
<speed>0.1</speed>
<temp>0.00</temp>
<bpm>0</bpm>
<rpm>0.00</rpm>
</extensions>
</trkpt>
<trkpt lat="63.825168610" lon="-18.804199219">
<ele>502.640625</ele>
<time>2012-07-25T14:44:02Z</time>
<speed>0.110000</speed>
<extensions>
<speed>0.1</speed>
<temp>0.00</temp>
<bpm>0</bpm>
<rpm>0.00</rpm>
</extensions>
</trkpt>
<trkpt lat="63.825160980" lon="-18.804172516">
<ele>502.703125</ele>
<time>2012-07-25T14:44:07Z</time>
<speed>0.110000</speed>
<extensions>
<speed>0.1</speed>
<temp>0.00</temp>
<bpm>0</bpm>
<rpm>0.00</rpm>
</extensions>
</trkpt>
<trkpt lat="63.825157166" lon="-18.804166794">
<ele>502.921875</ele>
<time>2012-07-25T14:44:12Z</time>
<speed>0.230000</speed>
<extensions>
<speed>0.2</speed>
<temp>0.00</temp>
<bpm>0</bpm>
<rpm>0.00</rpm>
</extensions>
</trkpt>
<trkpt lat="63.825153351" lon="-18.804170609">
<ele>503.234375</ele>
<time>2012-07-25T14:44:17Z</time>
<speed>0.010000</speed>
<extensions>
<speed>0.0</speed>
<temp>0.00</temp>
<bpm>0</bpm>
<rpm>0.00</rpm>
</extensions>
</trkpt>
<trkpt lat="63.825157166" lon="-18.804168701">
<ele>503.328125</ele>
<time>2012-07-25T14:44:22Z</time>
<speed>0.200000</speed>
<extensions>
<speed>0.2</speed>
<temp>0.00</temp>
<bpm>0</bpm>
<rpm>0.00</rpm>
</extensions>
</trkpt>
<trkpt lat="63.825160980" lon="-18.804145813">
<ele>503.617188</ele>
<time>2012-07-25T14:44:27Z</time>
<speed>0.550000</speed>
<extensions>
<speed>0.6</speed>
<temp>0.00</temp>
<bpm>0</bpm>
<rpm>0.00</rpm>
</extensions>
</trkpt>
<trkpt lat="63.825172424" lon="-18.804140091">
<ele>503.921875</ele>
<time>2012-07-25T14:44:32Z</time>
<speed>0.210000</speed>
<extensions>
<speed>0.2</speed>
<temp>0.00</temp>
<bpm>0</bpm>
<rpm>0.00</rpm>
</extensions>
</trkpt>
<trkpt lat="63.825164795" lon="-18.804164886">
<ele>503.867188</ele>
<time>2012-07-25T14:44:37Z</time>
<speed>0.160000</speed>
<extensions>
<speed>0.2</speed>
<temp>0.00</temp>
<bpm>0</bpm>
<rpm>0.00</rpm>
</extensions>
</trkpt>
<trkpt lat="63.825164795" lon="-18.804162979">
<ele>503.851563</ele>
<time>2012-07-25T14:44:42Z</time>
<speed>0.140000</speed>
<extensions>
<speed>0.1</speed>
<temp>0.00</temp>
<bpm>0</bpm>
<rpm>0.00</rpm>
</extensions>
</trkpt>
<trkpt lat="63.825160980" lon="-18.804161072">
<ele>504.242188</ele>
<time>2012-07-25T14:44:47Z</time>
<speed>0.240000</speed>
<extensions>
<speed>0.2</speed>
<temp>0.00</temp>
<bpm>0</bpm>
<rpm>0.00</rpm>
</extensions>
</trkpt>
<trkpt lat="63.825153351" lon="-18.804155350">
<ele>505.343750</ele>
<time>2012-07-25T14:44:52Z</time>
<speed>0.060000</speed>
<extensions>
<speed>0.1</speed>
<temp>0.00</temp>
<bpm>0</bpm>
<rpm>0.00</rpm>
</extensions>
</trkpt>
<trkpt lat="63.825153351" lon="-18.804155350">
<ele>505.398438</ele>
<time>2012-07-25T14:44:57Z</time>
<speed>0.570000</speed>
<extensions>
<speed>0.6</speed>
<temp>0.00</temp>
<bpm>0</bpm>
<rpm>0.00</rpm>
</extensions>
</trkpt>
<trkpt lat="63.825130463" lon="-18.804164886">
<ele>505.390625</ele>
<time>2012-07-25T14:45:02Z</time>
<speed>0.160000</speed>
<extensions>
<speed>0.2</speed>
<temp>0.00</temp>
<bpm>0</bpm>
<rpm>0.00</rpm>
</extensions>
</trkpt>
<trkpt lat="63.825130463" lon="-18.804164886">
<ele>505.265625</ele>
<time>2012-07-25T14:45:07Z</time>
<speed>0.140000</speed>
<extensions>
<speed>0.1</speed>
<temp>0.00</temp>
<bpm>0</bpm>
<rpm>0.00</rpm>
</extensions>
</trkpt>
<trkpt lat="63.825130463" lon="-18.804164886">
<ele>505.257813</ele>
<time>2012-07-25T14:45:12Z</time>
<speed>0.110000</speed>
<extensions>
<speed>0.1</speed>
<temp>0.00</temp>
<bpm>0</bpm>
<rpm>0.00</rpm>
</extensions>
</trkpt>
<trkpt lat="63.825126648" lon="-18.804162979">
<ele>505.242188</ele>
<time>2012-07-25T14:45:17Z</time>
<speed>0.490000</speed>
<extensions>
<speed>0.5</speed>
<temp>0.00</temp>
<bpm>0</bpm>
<rpm>0.00</rpm>
</extensions>
</trkpt>
<trkpt lat="63.825126648" lon="-18.804168701">
<ele>505.335938</ele>
<time>2012-07-25T14:45:22Z</time>
<speed>0.140000</speed>
<extensions>
<speed>0.1</speed>
<temp>0.00</temp>
<bpm>0</bpm>
<rpm>0.00</rpm>
</extensions>
</trkpt>
<trkpt lat="63.825122833" lon="-18.804178238">
<ele>505.328125</ele>
<time>2012-07-25T14:45:27Z</time>
<speed>0.030000</speed>
<extensions>
<speed>0.0</speed>
<temp>0.00</temp>
<bpm>0</bpm>
<rpm>0.00</rpm>
</extensions>
</trkpt>
<trkpt lat="63.825122833" lon="-18.804170609">
<ele>505.367188</ele>
<time>2012-07-25T14:45:32Z</time>
<speed>0.050000</speed>
<extensions>
<speed>0.1</speed>
<temp>0.00</temp>
<bpm>0</bpm>
<rpm>0.00</rpm>
</extensions>
</trkpt>
<trkpt lat="63.825119019" lon="-18.804172516">
<ele>505.625000</ele>
<time>2012-07-25T14:45:37Z</time>
<speed>0.220000</speed>
<extensions>
<speed>0.2</speed>
<temp>0.00</temp>
<bpm>0</bpm>
<rpm>0.00</rpm>
</extensions>
</trkpt>
<trkpt lat="63.825119019" lon="-18.804166794">
<ele>505.515625</ele>
<time>2012-07-25T14:45:42Z</time>
<extensions>
<speed>0.0</speed>
<temp>0.00</temp>
<bpm>0</bpm>
<rpm>0.00</rpm>
</extensions>
</trkpt>
<trkpt lat="63.825119019" lon="-18.804166794">
<ele>505.476563</ele>
<time>2012-07-25T14:45:47Z</time>
<speed>0.050000</speed>
<extensions>
<speed>0.1</speed>
<temp>0.00</temp>
<bpm>0</bpm>
<rpm>0.00</rpm>
</extensions>
</trkpt>
<trkpt lat="63.825122833" lon="-18.804166794">
<ele>505.453125</ele>
<time>2012-07-25T14:45:52Z</time>
<speed>0.040000</speed>
<extensions>
<speed>0.0</speed>
<temp>0.00</temp>
<bpm>0</bpm>
<rpm>0.00</rpm>
</extensions>
</trkpt>
<trkpt lat="63.825119019" lon="-18.804162979">
<ele>504.679688</ele>
<time>2012-07-25T14:45:57Z</time>
<speed>0.210000</speed>
<extensions>
<speed>0.2</speed>
<temp>0.00</temp>
<bpm>0</bpm>
<rpm>0.00</rpm>
</extensions>
</trkpt>
<trkpt lat="63.825119019" lon="-18.804166794">
<ele>504.796875</ele>
<time>2012-07-25T14:46:02Z</time>
<speed>0.100000</speed>
<extensions>
<speed>0.1</speed>
<temp>0.00</temp>
<bpm>0</bpm>
<rpm>0.00</rpm>
</extensions>
</trkpt>
<trkpt lat="63.825119019" lon="-18.804166794">
<ele>504.609375</ele>
<time>2012-07-25T14:46:07Z</time>
<speed>0.030000</speed>
<extensions>
<speed>0.0</speed>
<temp>0.00</temp>
<bpm>0</bpm>
<rpm>0.00</rpm>
</extensions>
</trkpt>
<trkpt lat="63.825119019" lon="-18.804168701">
<ele>504.593750</ele>
<time>2012-07-25T14:46:12Z</time>
<speed>0.010000</speed>
<extensions>
<speed>0.0</speed>
<temp>0.00</temp>
<bpm>0</bpm>
<rpm>0.00</rpm>
</extensions>
</trkpt>
<trkpt lat="63.825119019" lon="-18.804166794">
<ele>504.593750</ele>
<time>2012-07-25T14:46:17Z</time>
<speed>0.010000</speed>
<extensions>
<speed>0.0</speed>
<temp>0.00</temp>
<bpm>0</bpm>
<rpm>0.00</rpm>
</extensions>
</trkpt>
<trkpt lat="63.825119019" lon="-18.804166794">
<ele>504.593750</ele>
<time>2012-07-25T14:46:22Z</time>
<speed>0.030000</speed>
<extensions>
<speed>0.0</speed>
<temp>0.00</temp>
<bpm>0</bpm>
<rpm>0.00</rpm>
</extensions>
</trkpt>
<trkpt lat="63.825119019" lon="-18.804166794">
<ele>504.585938</ele>
<time>2012-07-25T14:46:27Z</time>
<speed>0.010000</speed>
<extensions>
<speed>0.0</speed>
<temp>0.00</temp>
<bpm>0</bpm>
<rpm>0.00</rpm>
</extensions>
</trkpt>
<trkpt lat="63.825119019" lon="-18.804166794">
<ele>504.570313</ele>
<time>2012-07-25T14:46:32Z</time>
<speed>0.010000</speed>
<extensions>
<speed>0.0</speed>
<temp>0.00</temp>
<bpm>0</bpm>
<rpm>0.00</rpm>
</extensions>
</trkpt>
<trkpt lat="63.825119019" lon="-18.804166794">
<ele>504.578125</ele>
<time>2012-07-25T14:46:37Z</time>
<extensions>
<speed>0.0</speed>
<temp>0.00</temp>
<bpm>0</bpm>
<rpm>0.00</rpm>
</extensions>
</trkpt>
<trkpt lat="63.825119019" lon="-18.804164886">
<ele>504.585938</ele>
<time>2012-07-25T14:46:42Z</time>
<extensions>
<speed>0.0</speed>
<temp>0.00</temp>
<bpm>0</bpm>
<rpm>0.00</rpm>
</extensions>
</trkpt>
<trkpt lat="63.825119019" lon="-18.804164886">
<ele>504.585938</ele>
<time>2012-07-25T14:46:47Z</time>
<speed>0.010000</speed>
<extensions>
<speed>0.0</speed>
<temp>0.00</temp>
<bpm>0</bpm>
<rpm>0.00</rpm>
</extensions>
</trkpt>
<trkpt lat="63.825119019" lon="-18.804166794">
<ele>504.585938</ele>
<time>2012-07-25T14:46:52Z</time>
<extensions>
<speed>0.0</speed>
<temp>0.00</temp>
<bpm>0</bpm>
<rpm>0.00</rpm>
</extensions>
</trkpt>
<trkpt lat="63.825119019" lon="-18.804166794">
<ele>504.593750</ele>
<time>2012-07-25T14:46:57Z</time>
<speed>0.030000</speed>
<extensions>
<speed>0.0</speed>
<temp>0.00</temp>
<bpm>0</bpm>
<rpm>0.00</rpm>
</extensions>
</trkpt>
<trkpt lat="63.825122833" lon="-18.804164886">
<ele>504.171875</ele>
<time>2012-07-25T14:47:02Z</time>
<speed>0.010000</speed>
<extensions>
<speed>0.0</speed>
<temp>0.00</temp>
<bpm>0</bpm>
<rpm>0.00</rpm>
</extensions>
</trkpt>
<trkpt lat="63.825126648" lon="-18.804161072">
<ele>504.125000</ele>
<time>2012-07-25T14:47:07Z</time>
<speed>0.030000</speed>
<extensions>
<speed>0.0</speed>
<temp>0.00</temp>
<bpm>0</bpm>
<rpm>0.00</rpm>
</extensions>
</trkpt>
<trkpt lat="63.825126648" lon="-18.804161072">
<ele>503.554688</ele>
<time>2012-07-25T14:47:12Z</time>
<extensions>
<speed>0.0</speed>
<temp>0.00</temp>
<bpm>0</bpm>
<rpm>0.00</rpm>
</extensions>
</trkpt>
<trkpt lat="63.825126648" lon="-18.804161072">
<ele>503.554688</ele>
<time>2012-07-25T14:47:17Z</time>
<extensions>
<speed>0.0</speed>
<temp>0.00</temp>
<bpm>0</bpm>
<rpm>0.00</rpm>
</extensions>
</trkpt>
<trkpt lat="63.825126648" lon="-18.804161072">
<ele>503.554688</ele>
<time>2012-07-25T14:47:22Z</time>
<extensions>
<speed>0.0</speed>
<temp>0.00</temp>
<bpm>0</bpm>
<rpm>0.00</rpm>
</extensions>
</trkpt>
<trkpt lat="63.825126648" lon="-18.804162979">
<ele>503.882813</ele>
<time>2012-07-25T14:47:27Z</time>
<speed>0.460000</speed>
<extensions>
<speed>0.5</speed>
<temp>0.00</temp>
<bpm>0</bpm>
<rpm>0.00</rpm>
</extensions>
</trkpt>
<trkpt lat="63.825130463" lon="-18.804143906">
<ele>503.570313</ele>
<time>2012-07-25T14:47:32Z</time>
<speed>0.070000</speed>
<extensions>
<speed>0.1</speed>
<temp>0.00</temp>
<bpm>0</bpm>
<rpm>0.00</rpm>
</extensions>
</trkpt>
<trkpt lat="63.825130463" lon="-18.804141998">
<ele>503.757813</ele>
<time>2012-07-25T14:47:37Z</time>
<speed>0.170000</speed>
<extensions>
<speed>0.2</speed>
<temp>0.00</temp>
<bpm>0</bpm>
<rpm>0.00</rpm>
</extensions>
</trkpt>
<trkpt lat="63.825130463" lon="-18.804141998">
<ele>503.726563</ele>
<time>2012-07-25T14:47:42Z</time>
<speed>0.030000</speed>
<extensions>
<speed>0.0</speed>
<temp>0.00</temp>
<bpm>0</bpm>
<rpm>0.00</rpm>
</extensions>
</trkpt>
<trkpt lat="63.825130463" lon="-18.804141998">
<ele>503.718750</ele>
<time>2012-07-25T14:47:47Z</time>
<extensions>
<speed>0.0</speed>
<temp>0.00</temp>
<bpm>0</bpm>
<rpm>0.00</rpm>
</extensions>
</trkpt>
<trkpt lat="63.825130463" lon="-18.804141998">
<ele>503.726563</ele>
<time>2012-07-25T14:47:52Z</time>
<extensions>
<speed>0.0</speed>
<temp>0.00</temp>
<bpm>0</bpm>
<rpm>0.00</rpm>
</extensions>
</trkpt>
<trkpt lat="63.825130463" lon="-18.804141998">
<ele>503.726563</ele>
<time>2012-07-25T14:47:57Z</time>
<speed>0.010000</speed>
<extensions>
<speed>0.0</speed>
<temp>0.00</temp>
<bpm>0</bpm>
<rpm>0.00</rpm>
</extensions>
</trkpt>
<trkpt lat="63.825130463" lon="-18.804141998">
<ele>503.726563</ele>
<time>2012-07-25T14:48:02Z</time>
<extensions>
<speed>0.0</speed>
<temp>0.00</temp>
<bpm>0</bpm>
<rpm>0.00</rpm>
</extensions>
</trkpt>
<trkpt lat="63.825130463" lon="-18.804141998">
<ele>503.734375</ele>
<time>2012-07-25T14:48:07Z</time>
<speed>0.010000</speed>
<extensions>
<speed>0.0</speed>
<temp>0.00</temp>
<bpm>0</bpm>
<rpm>0.00</rpm>
</extensions>
</trkpt>
<trkpt lat="63.825130463" lon="-18.804141998">
<ele>503.742188</ele>
<time>2012-07-25T14:48:12Z</time>
<extensions>
<speed>0.0</speed>
<temp>0.00</temp>
<bpm>0</bpm>
<rpm>0.00</rpm>
</extensions>
</trkpt>
<trkpt lat="63.825130463" lon="-18.804143906">
<ele>503.742188</ele>
<time>2012-07-25T14:48:17Z</time>
<extensions>
<speed>0.0</speed>
<temp>0.00</temp>
<bpm>0</bpm>
<rpm>0.00</rpm>
</extensions>
</trkpt>
<trkpt lat="63.825130463" lon="-18.804143906">
<ele>503.742188</ele>
<time>2012-07-25T14:48:22Z</time>
<speed>0.010000</speed>
<extensions>
<speed>0.0</speed>
<temp>0.00</temp>
<bpm>0</bpm>
<rpm>0.00</rpm>
</extensions>
</trkpt>
<trkpt lat="63.825130463" lon="-18.804143906">
<ele>503.750000</ele>
<time>2012-07-25T14:48:27Z</time>
<extensions>
<speed>0.0</speed>
<temp>0.00</temp>
<bpm>0</bpm>
<rpm>0.00</rpm>
</extensions>
</trkpt>
<trkpt lat="63.825130463" lon="-18.804140091">
<ele>503.796875</ele>
<time>2012-07-25T14:48:32Z</time>
<speed>0.160000</speed>
<extensions>
<speed>0.2</speed>
<temp>0.00</temp>
<bpm>0</bpm>
<rpm>0.00</rpm>
</extensions>
</trkpt>
<trkpt lat="63.825134277" lon="-18.804126740">
<ele>505.398438</ele>
<time>2012-07-25T14:48:37Z</time>
<speed>0.260000</speed>
<extensions>
<speed>0.3</speed>
<temp>0.00</temp>
<bpm>0</bpm>
<rpm>0.00</rpm>
</extensions>
</trkpt>
<trkpt lat="63.825141907" lon="-18.804134369">
<ele>505.273438</ele>
<time>2012-07-25T14:48:42Z</time>
<speed>0.010000</speed>
<extensions>
<speed>0.0</speed>
<temp>0.00</temp>
<bpm>0</bpm>
<rpm>0.00</rpm>
</extensions>
</trkpt>
<trkpt lat="63.825141907" lon="-18.804134369">
<ele>505.210938</ele>
<time>2012-07-25T14:48:47Z</time>
<speed>0.020000</speed>
<extensions>
<speed>0.0</speed>
<temp>0.00</temp>
<bpm>0</bpm>
<rpm>0.00</rpm>
</extensions>
</trkpt>
<trkpt lat="63.825141907" lon="-18.804134369">
<ele>505.171875</ele>
<time>2012-07-25T14:48:52Z</time>
<speed>0.070000</speed>
<extensions>
<speed>0.1</speed>
<temp>0.00</temp>
<bpm>0</bpm>
<rpm>0.00</rpm>
</extensions>
</trkpt>
<trkpt lat="63.825141907" lon="-18.804136276">
<ele>505.148438</ele>
<time>2012-07-25T14:48:57Z</time>
<extensions>
<speed>0.0</speed>
<temp>0.00</temp>
<bpm>0</bpm>
<rpm>0.00</rpm>
</extensions>
</trkpt>
<trkpt lat="63.825141907" lon="-18.804136276">
<ele>505.156250</ele>
<time>2012-07-25T14:49:02Z</time>
<extensions>
<speed>0.0</speed>
<temp>0.00</temp>
<bpm>0</bpm>
<rpm>0.00</rpm>
</extensions>
</trkpt>
<trkpt lat="63.825141907" lon="-18.804136276">
<ele>505.171875</ele>
<time>2012-07-25T14:49:07Z</time>
<speed>0.090000</speed>
<extensions>
<speed>0.1</speed>
<temp>0.00</temp>
<bpm>0</bpm>
<rpm>0.00</rpm>
</extensions>
</trkpt>
<trkpt lat="63.825141907" lon="-18.804138184">
<ele>505.203125</ele>
<time>2012-07-25T14:49:12Z</time>
<extensions>
<speed>0.0</speed>
<temp>0.00</temp>
<bpm>0</bpm>
<rpm>0.00</rpm>
</extensions>
</trkpt>
<trkpt lat="63.825141907" lon="-18.804138184">
<ele>505.210938</ele>
<time>2012-07-25T14:49:17Z</time>
<extensions>
<speed>0.0</speed>
<temp>0.00</temp>
<bpm>0</bpm>
<rpm>0.00</rpm>
</extensions>
</trkpt>
<trkpt lat="63.825141907" lon="-18.804140091">
<ele>505.218750</ele>
<time>2012-07-25T14:49:22Z</time>
<extensions>
<speed>0.0</speed>
<temp>0.00</temp>
<bpm>0</bpm>
<rpm>0.00</rpm>
</extensions>
</trkpt>
<trkpt lat="63.825141907" lon="-18.804140091">
<ele>505.226563</ele>
<time>2012-07-25T14:49:27Z</time>
<extensions>
<speed>0.0</speed>
<temp>0.00</temp>
<bpm>0</bpm>
<rpm>0.00</rpm>
</extensions>
</trkpt>
<trkpt lat="63.825141907" lon="-18.804140091">
<ele>505.226563</ele>
<time>2012-07-25T14:49:32Z</time>
<speed>0.060000</speed>
<extensions>
<speed>0.1</speed>
<temp>0.00</temp>
<bpm>0</bpm>
<rpm>0.00</rpm>
</extensions>
</trkpt>
<trkpt lat="63.825141907" lon="-18.804138184">
<ele>505.101563</ele>
<time>2012-07-25T14:49:37Z</time>
<speed>0.370000</speed>
<extensions>
<speed>0.4</speed>
<temp>0.00</temp>
<bpm>0</bpm>
<rpm>0.00</rpm>
</extensions>
</trkpt>
<trkpt lat="63.825119019" lon="-18.804094315">
<ele>504.921875</ele>
<time>2012-07-25T14:49:42Z</time>
<speed>1.060000</speed>
<extensions>
<speed>1.1</speed>
<temp>0.00</temp>
<bpm>0</bpm>
<rpm>0.00</rpm>
</extensions>
</trkpt>
<trkpt lat="63.825099945" lon="-18.804048538">
<ele>505.015625</ele>
<time>2012-07-25T14:49:47Z</time>
<speed>0.150000</speed>
<extensions>
<speed>0.2</speed>
<temp>0.00</temp>
<bpm>0</bpm>
<rpm>0.00</rpm>
</extensions>
</trkpt>
<trkpt lat="63.825099945" lon="-18.804050446">
<ele>505.117188</ele>
<time>2012-07-25T14:49:52Z</time>
<speed>0.400000</speed>
<extensions>
<speed>0.4</speed>
<temp>0.00</temp>
<bpm>0</bpm>
<rpm>0.00</rpm>
</extensions>
</trkpt>
<trkpt lat="63.825096130" lon="-18.804044724">
<ele>505.085938</ele>
<time>2012-07-25T14:49:57Z</time>
<extensions>
<speed>0.0</speed>
<temp>0.00</temp>
<bpm>0</bpm>
<rpm>0.00</rpm>
</extensions>
</trkpt>
<trkpt lat="63.825096130" lon="-18.804040909">
<ele>504.992188</ele>
<time>2012-07-25T14:50:02Z</time>
<speed>0.020000</speed>
<extensions>
<speed>0.0</speed>
<temp>0.00</temp>
<bpm>0</bpm>
<rpm>0.00</rpm>
</extensions>
</trkpt>
<trkpt lat="63.825092316" lon="-18.804042816">
<ele>504.835938</ele>
<time>2012-07-25T14:50:07Z</time>
<speed>0.030000</speed>
<extensions>
<speed>0.0</speed>
<temp>0.00</temp>
<bpm>0</bpm>
<rpm>0.00</rpm>
</extensions>
</trkpt>
<trkpt lat="63.825088501" lon="-18.804054260">
<ele>504.664063</ele>
<time>2012-07-25T14:50:12Z</time>
<speed>0.710000</speed>
<extensions>
<speed>0.7</speed>
<temp>0.00</temp>
<bpm>0</bpm>
<rpm>0.00</rpm>
</extensions>
</trkpt>
<trkpt lat="63.825061798" lon="-18.804111481">
<ele>504.250000</ele>
<time>2012-07-25T14:50:17Z</time>
<speed>0.480000</speed>
<extensions>
<speed>0.5</speed>
<temp>0.00</temp>
<bpm>0</bpm>
<rpm>0.00</rpm>
</extensions>
</trkpt>
<trkpt lat="63.825027466" lon="-18.804164886">
<ele>504.609375</ele>
<time>2012-07-25T14:50:22Z</time>
<speed>0.710000</speed>
<extensions>
<speed>0.7</speed>
<temp>0.00</temp>
<bpm>0</bpm>
<rpm>0.00</rpm>
</extensions>
</trkpt>
<trkpt lat="63.825000763" lon="-18.804243088">
<ele>505.312500</ele>
<time>2012-07-25T14:50:27Z</time>
<speed>0.750000</speed>
<extensions>
<speed>0.8</speed>
<temp>0.00</temp>
<bpm>0</bpm>
<rpm>0.00</rpm>
</extensions>
</trkpt>
<trkpt lat="63.824974060" lon="-18.804336548">
<ele>505.570313</ele>
<time>2012-07-25T14:50:32Z</time>
<speed>1.050000</speed>
<extensions>
<speed>1.0</speed>
<temp>0.00</temp>
<bpm>0</bpm>
<rpm>0.00</rpm>
</extensions>
</trkpt>
<trkpt lat="63.824951172" lon="-18.804422379">
<ele>505.437500</ele>
<time>2012-07-25T14:50:37Z</time>
<speed>1.240000</speed>
<extensions>
<speed>1.2</speed>
<temp>0.00</temp>
<bpm>0</bpm>
<rpm>0.00</rpm>
</extensions>
</trkpt>
<trkpt lat="63.824951172" lon="-18.804435730">
<ele>506.687500</ele>
<time>2012-07-25T14:50:42Z</time>
<speed>0.080000</speed>
<extensions>
<speed>0.1</speed>
<temp>0.00</temp>
<bpm>0</bpm>
<rpm>0.00</rpm>
</extensions>
</trkpt>
<trkpt lat="63.824951172" lon="-18.804433823">
<ele>506.523438</ele>
<time>2012-07-25T14:50:47Z</time>
<speed>0.050000</speed>
<extensions>
<speed>0.1</speed>
<temp>0.00</temp>
<bpm>0</bpm>
<rpm>0.00</rpm>
</extensions>
</trkpt>
<trkpt lat="63.824954987" lon="-18.804437637">
<ele>506.414063</ele>
<time>2012-07-25T14:50:52Z</time>
<speed>0.090000</speed>
<extensions>
<speed>0.1</speed>
<temp>0.00</temp>
<bpm>0</bpm>
<rpm>0.00</rpm>
</extensions>
</trkpt>
<trkpt lat="63.824954987" lon="-18.804437637">
<ele>506.414063</ele>
<time>2012-07-25T14:50:57Z</time>
<speed>0.010000</speed>
<extensions>
<speed>0.0</speed>
<temp>0.00</temp>
<bpm>0</bpm>
<rpm>0.00</rpm>
</extensions>
</trkpt>
<trkpt lat="63.824951172" lon="-18.804437637">
<ele>506.453125</ele>
<time>2012-07-25T14:51:02Z</time>
<speed>0.020000</speed>
<extensions>
<speed>0.0</speed>
<temp>0.00</temp>
<bpm>0</bpm>
<rpm>0.00</rpm>
</extensions>
</trkpt>
<trkpt lat="63.824951172" lon="-18.804437637">
<ele>506.437500</ele>
<time>2012-07-25T14:51:07Z</time>
<extensions>
<speed>0.0</speed>
<temp>0.00</temp>
<bpm>0</bpm>
<rpm>0.00</rpm>
</extensions>
</trkpt>
<trkpt lat="63.824951172" lon="-18.804437637">
<ele>506.429688</ele>
<time>2012-07-25T14:51:12Z</time>
<speed>0.020000</speed>
<extensions>
<speed>0.0</speed>
<temp>0.00</temp>
<bpm>0</bpm>
<rpm>0.00</rpm>
</extensions>
</trkpt>
<trkpt lat="63.824951172" lon="-18.804437637">
<ele>506.414063</ele>
<time>2012-07-25T14:51:17Z</time>
<extensions>
<speed>0.0</speed>
<temp>0.00</temp>
<bpm>0</bpm>
<rpm>0.00</rpm>
</extensions>
</trkpt>
<trkpt lat="63.824951172" lon="-18.804437637">
<ele>506.398438</ele>
<time>2012-07-25T14:51:22Z</time>
<extensions>
<speed>0.0</speed>
<temp>0.00</temp>
<bpm>0</bpm>
<rpm>0.00</rpm>
</extensions>
</trkpt>
<trkpt lat="63.824951172" lon="-18.804437637">
<ele>506.375000</ele>
<time>2012-07-25T14:51:27Z</time>
<speed>0.020000</speed>
<extensions>
<speed>0.0</speed>
<temp>0.00</temp>
<bpm>0</bpm>
<rpm>0.00</rpm>
</extensions>
</trkpt>
<trkpt lat="63.824954987" lon="-18.804437637">
<ele>506.359375</ele>
<time>2012-07-25T14:51:32Z</time>
<extensions>
<speed>0.0</speed>
<temp>0.00</temp>
<bpm>0</bpm>
<rpm>0.00</rpm>
</extensions>
</trkpt>
<trkpt lat="63.824954987" lon="-18.804437637">
<ele>506.359375</ele>
<time>2012-07-25T14:51:37Z</time>
<extensions>
<speed>0.0</speed>
<temp>0.00</temp>
<bpm>0</bpm>
<rpm>0.00</rpm>
</extensions>
</trkpt>
<trkpt lat="63.824954987" lon="-18.804437637">
<ele>506.351563</ele>
<time>2012-07-25T14:51:42Z</time>
<extensions>
<speed>0.0</speed>
<temp>0.00</temp>
<bpm>0</bpm>
<rpm>0.00</rpm>
</extensions>
</trkpt>
<trkpt lat="63.824954987" lon="-18.804437637">
<ele>506.351563</ele>
<time>2012-07-25T14:51:47Z</time>
<extensions>
<speed>0.0</speed>
<temp>0.00</temp>
<bpm>0</bpm>
<rpm>0.00</rpm>
</extensions>
</trkpt>
<trkpt lat="63.824954987" lon="-18.804435730">
<ele>506.335938</ele>
<time>2012-07-25T14:51:52Z</time>
<speed>0.010000</speed>
<extensions>
<speed>0.0</speed>
<temp>0.00</temp>
<bpm>0</bpm>
<rpm>0.00</rpm>
</extensions>
</trkpt>
<trkpt lat="63.824954987" lon="-18.804437637">
<ele>506.320313</ele>
<time>2012-07-25T14:51:57Z</time>
<extensions>
<speed>0.0</speed>
<temp>0.00</temp>
<bpm>0</bpm>
<rpm>0.00</rpm>
</extensions>
</trkpt>
<trkpt lat="63.824954987" lon="-18.804437637">
<ele>506.312500</ele>
<time>2012-07-25T14:52:02Z</time>
<extensions>
<speed>0.0</speed>
<temp>0.00</temp>
<bpm>0</bpm>
<rpm>0.00</rpm>
</extensions>
</trkpt>
<trkpt lat="63.824954987" lon="-18.804437637">
<ele>506.312500</ele>
<time>2012-07-25T14:52:07Z</time>
<speed>0.010000</speed>
<extensions>
<speed>0.0</speed>
<temp>0.00</temp>
<bpm>0</bpm>
<rpm>0.00</rpm>
</extensions>
</trkpt>
<trkpt lat="63.824954987" lon="-18.804437637">
<ele>506.320313</ele>
<time>2012-07-25T14:52:12Z</time>
<speed>0.050000</speed>
<extensions>
<speed>0.1</speed>
<temp>0.00</temp>
<bpm>0</bpm>
<rpm>0.00</rpm>
</extensions>
</trkpt>
<trkpt lat="63.824954987" lon="-18.804435730">
<ele>506.304688</ele>
<time>2012-07-25T14:52:17Z</time>
<speed>0.020000</speed>
<extensions>
<speed>0.0</speed>
<temp>0.00</temp>
<bpm>0</bpm>
<rpm>0.00</rpm>
</extensions>
</trkpt>
<trkpt lat="63.824954987" lon="-18.804435730">
<ele>506.304688</ele>
<time>2012-07-25T14:52:22Z</time>
<speed>0.010000</speed>
<extensions>
<speed>0.0</speed>
<temp>0.00</temp>
<bpm>0</bpm>
<rpm>0.00</rpm>
</extensions>
</trkpt>
<trkpt lat="63.824954987" lon="-18.804435730">
<ele>506.250000</ele>
<time>2012-07-25T14:52:27Z</time>
<speed>0.050000</speed>
<extensions>
<speed>0.1</speed>
<temp>0.00</temp>
<bpm>0</bpm>
<rpm>0.00</rpm>
</extensions>
</trkpt>
<trkpt lat="63.824954987" lon="-18.804431915">
<ele>506.234375</ele>
<time>2012-07-25T14:52:32Z</time>
<speed>0.040000</speed>
<extensions>
<speed>0.0</speed>
<temp>0.00</temp>
<bpm>0</bpm>
<rpm>0.00</rpm>
</extensions>
</trkpt>
<trkpt lat="63.824954987" lon="-18.804431915">
<ele>506.234375</ele>
<time>2012-07-25T14:52:37Z</time>
<speed>0.030000</speed>
<extensions>
<speed>0.0</speed>
<temp>0.00</temp>
<bpm>0</bpm>
<rpm>0.00</rpm>
</extensions>
</trkpt>
<trkpt lat="63.824954987" lon="-18.804431915">
<ele>506.234375</ele>
<time>2012-07-25T14:52:42Z</time>
<speed>0.010000</speed>
<extensions>
<speed>0.0</speed>
<temp>0.00</temp>
<bpm>0</bpm>
<rpm>0.00</rpm>
</extensions>
</trkpt>
<trkpt lat="63.824954987" lon="-18.804431915">
<ele>506.226563</ele>
<time>2012-07-25T14:52:47Z</time>
<speed>0.020000</speed>
<extensions>
<speed>0.0</speed>
<temp>0.00</temp>
<bpm>0</bpm>
<rpm>0.00</rpm>
</extensions>
</trkpt>
<trkpt lat="63.824954987" lon="-18.804431915">
<ele>506.218750</ele>
<time>2012-07-25T14:52:52Z</time>
<speed>0.020000</speed>
<extensions>
<speed>0.0</speed>
<temp>0.00</temp>
<bpm>0</bpm>
<rpm>0.00</rpm>
</extensions>
</trkpt>
<trkpt lat="63.824954987" lon="-18.804431915">
<ele>506.203125</ele>
<time>2012-07-25T14:52:57Z</time>
<speed>0.070000</speed>
<extensions>
<speed>0.1</speed>
<temp>0.00</temp>
<bpm>0</bpm>
<rpm>0.00</rpm>
</extensions>
</trkpt>
<trkpt lat="63.824958801" lon="-18.804431915">
<ele>506.203125</ele>
<time>2012-07-25T14:53:02Z</time>
<speed>0.050000</speed>
<extensions>
<speed>0.1</speed>
<temp>0.00</temp>
<bpm>0</bpm>
<rpm>0.00</rpm>
</extensions>
</trkpt>
<trkpt lat="63.824970245" lon="-18.804407120">
<ele>506.093750</ele>
<time>2012-07-25T14:53:07Z</time>
<speed>1.030000</speed>
<extensions>
<speed>1.0</speed>
<temp>0.00</temp>
<bpm>0</bpm>
<rpm>0.00</rpm>
</extensions>
</trkpt>
<trkpt lat="63.825008392" lon="-18.804323196">
<ele>505.500000</ele>
<time>2012-07-25T14:53:12Z</time>
<speed>1.240000</speed>
<extensions>
<speed>1.2</speed>
<temp>0.00</temp>
<bpm>0</bpm>
<rpm>0.00</rpm>
</extensions>
</trkpt>
<trkpt lat="63.825031281" lon="-18.804288864">
<ele>504.507813</ele>
<time>2012-07-25T14:53:17Z</time>
<speed>0.490000</speed>
<extensions>
<speed>0.5</speed>
<temp>0.00</temp>
<bpm>0</bpm>
<rpm>0.00</rpm>
</extensions>
</trkpt>
<trkpt lat="63.825065613" lon="-18.804281235">
<ele>504.539063</ele>
<time>2012-07-25T14:53:22Z</time>
<speed>0.760000</speed>
<extensions>
<speed>0.8</speed>
<temp>0.00</temp>
<bpm>0</bpm>
<rpm>0.00</rpm>
</extensions>
</trkpt>
<trkpt lat="63.825103760" lon="-18.804256439">
<ele>504.421875</ele>
<time>2012-07-25T14:53:27Z</time>
<speed>0.960000</speed>
<extensions>
<speed>1.0</speed>
<temp>0.00</temp>
<bpm>0</bpm>
<rpm>0.00</rpm>
</extensions>
</trkpt>
<trkpt lat="63.825164795" lon="-18.804283142">
<ele>505.109375</ele>
<time>2012-07-25T14:53:32Z</time>
<speed>1.380000</speed>
<extensions>
<speed>1.4</speed>
<temp>0.00</temp>
<bpm>0</bpm>
<rpm>0.00</rpm>
</extensions>
</trkpt>
<trkpt lat="63.825214386" lon="-18.804386139">
<ele>506.000000</ele>
<time>2012-07-25T14:53:37Z</time>
<speed>1.580000</speed>
<extensions>
<speed>1.6</speed>
<temp>0.00</temp>
<bpm>0</bpm>
<rpm>0.00</rpm>
</extensions>
</trkpt>
<trkpt lat="63.825279236" lon="-18.804443359">
<ele>506.382813</ele>
<time>2012-07-25T14:53:42Z</time>
<speed>0.980000</speed>
<extensions>
<speed>1.0</speed>
<temp>0.00</temp>
<bpm>0</bpm>
<rpm>0.00</rpm>
</extensions>
</trkpt>
<trkpt lat="63.825309753" lon="-18.804468155">
<ele>506.718750</ele>
<time>2012-07-25T14:53:47Z</time>
<speed>0.560000</speed>
<extensions>
<speed>0.6</speed>
<temp>0.00</temp>
<bpm>0</bpm>
<rpm>0.00</rpm>
</extensions>
</trkpt>
<trkpt lat="63.825355530" lon="-18.804483414">
<ele>506.554688</ele>
<time>2012-07-25T14:53:52Z</time>
<speed>1.340000</speed>
<extensions>
<speed>1.3</speed>
<temp>0.00</temp>
<bpm>0</bpm>
<rpm>0.00</rpm>
</extensions>
</trkpt>
<trkpt lat="63.825386047" lon="-18.804573059">
<ele>507.226563</ele>
<time>2012-07-25T14:53:57Z</time>
<speed>1.150000</speed>
<extensions>
<speed>1.1</speed>
<temp>0.00</temp>
<bpm>0</bpm>
<rpm>0.00</rpm>
</extensions>
</trkpt>
<trkpt lat="63.825401306" lon="-18.804712296">
<ele>507.054688</ele>
<time>2012-07-25T14:54:02Z</time>
<speed>1.510000</speed>
<extensions>
<speed>1.5</speed>
<temp>0.00</temp>
<bpm>0</bpm>
<rpm>0.00</rpm>
</extensions>
</trkpt>
<trkpt lat="63.825424194" lon="-18.804853439">
<ele>506.914063</ele>
<time>2012-07-25T14:54:07Z</time>
<speed>1.340000</speed>
<extensions>
<speed>1.3</speed>
<temp>0.00</temp>
<bpm>0</bpm>
<rpm>0.00</rpm>
</extensions>
</trkpt>
<trkpt lat="63.825450897" lon="-18.804962158">
<ele>507.148438</ele>
<time>2012-07-25T14:54:12Z</time>
<speed>1.350000</speed>
<extensions>
<speed>1.4</speed>
<temp>0.00</temp>
<bpm>0</bpm>
<rpm>0.00</rpm>
</extensions>
</trkpt>
<trkpt lat="63.825466156" lon="-18.805099487">
<ele>506.398438</ele>
<time>2012-07-25T14:54:17Z</time>
<speed>1.030000</speed>
<extensions>
<speed>1.0</speed>
<temp>0.00</temp>
<bpm>0</bpm>
<rpm>0.00</rpm>
</extensions>
</trkpt>
<trkpt lat="63.825477600" lon="-18.805160522">
<ele>506.398438</ele>
<time>2012-07-25T14:54:22Z</time>
<speed>1.000000</speed>
<extensions>
<speed>1.0</speed>
<temp>0.00</temp>
<bpm>0</bpm>
<rpm>0.00</rpm>
</extensions>
</trkpt>
<trkpt lat="63.825519562" lon="-18.805248260">
<ele>506.851563</ele>
<time>2012-07-25T14:54:27Z</time>
<speed>1.320000</speed>
<extensions>
<speed>1.3</speed>
<temp>0.00</temp>
<bpm>0</bpm>
<rpm>0.00</rpm>
</extensions>
</trkpt>
<trkpt lat="63.825557709" lon="-18.805355072">
<ele>507.421875</ele>
<time>2012-07-25T14:54:32Z</time>
<speed>0.990000</speed>
<extensions>
<speed>1.0</speed>
<temp>0.00</temp>
<bpm>0</bpm>
<rpm>0.00</rpm>
</extensions>
</trkpt>
<trkpt lat="63.825561523" lon="-18.805452347">
<ele>507.421875</ele>
<time>2012-07-25T14:54:37Z</time>
<speed>0.110000</speed>
<extensions>
<speed>0.1</speed>
<temp>0.00</temp>
<bpm>0</bpm>
<rpm>0.00</rpm>
</extensions>
</trkpt>
<trkpt lat="63.825565338" lon="-18.805458069">
<ele>507.523438</ele>
<time>2012-07-25T14:54:42Z</time>
<extensions>
<speed>0.0</speed>
<temp>0.00</temp>
<bpm>0</bpm>
<rpm>0.00</rpm>
</extensions>
</trkpt>
<trkpt lat="63.825565338" lon="-18.805459976">
<ele>507.500000</ele>
<time>2012-07-25T14:54:47Z</time>
<speed>0.040000</speed>
<extensions>
<speed>0.0</speed>
<temp>0.00</temp>
<bpm>0</bpm>
<rpm>0.00</rpm>
</extensions>
</trkpt>
<trkpt lat="63.825565338" lon="-18.805458069">
<ele>507.406250</ele>
<time>2012-07-25T14:54:52Z</time>
<speed>0.210000</speed>
<extensions>
<speed>0.2</speed>
<temp>0.00</temp>
<bpm>0</bpm>
<rpm>0.00</rpm>
</extensions>
</trkpt>
<trkpt lat="63.825565338" lon="-18.805454254">
<ele>507.179688</ele>
<time>2012-07-25T14:54:57Z</time>
<speed>0.070000</speed>
<extensions>
<speed>0.1</speed>
<temp>0.00</temp>
<bpm>0</bpm>
<rpm>0.00</rpm>
</extensions>
</trkpt>
<trkpt lat="63.825565338" lon="-18.805458069">
<ele>506.921875</ele>
<time>2012-07-25T14:55:02Z</time>
<speed>0.080000</speed>
<extensions>
<speed>0.1</speed>
<temp>0.00</temp>
<bpm>0</bpm>
<rpm>0.00</rpm>
</extensions>
</trkpt>
<trkpt lat="63.825565338" lon="-18.805458069">
<ele>506.890625</ele>
<time>2012-07-25T14:55:07Z</time>
<extensions>
<speed>0.0</speed>
<temp>0.00</temp>
<bpm>0</bpm>
<rpm>0.00</rpm>
</extensions>
</trkpt>
<trkpt lat="63.825565338" lon="-18.805456161">
<ele>506.882813</ele>
<time>2012-07-25T14:55:12Z</time>
<speed>0.010000</speed>
<extensions>
<speed>0.0</speed>
<temp>0.00</temp>
<bpm>0</bpm>
<rpm>0.00</rpm>
</extensions>
</trkpt>
<trkpt lat="63.825557709" lon="-18.805448532">
<ele>506.585938</ele>
<time>2012-07-25T14:55:17Z</time>
<extensions>
<speed>0.0</speed>
<temp>0.00</temp>
<bpm>0</bpm>
<rpm>0.00</rpm>
</extensions>
</trkpt>
<trkpt lat="63.825546265" lon="-18.805446625">
<ele>506.437500</ele>
<time>2012-07-25T14:55:22Z</time>
<speed>0.080000</speed>
<extensions>
<speed>0.1</speed>
<temp>0.00</temp>
<bpm>0</bpm>
<rpm>0.00</rpm>
</extensions>
</trkpt>
<trkpt lat="63.825546265" lon="-18.805431366">
<ele>506.632813</ele>
<time>2012-07-25T14:55:27Z</time>
<speed>0.040000</speed>
<extensions>
<speed>0.0</speed>
<temp>0.00</temp>
<bpm>0</bpm>
<rpm>0.00</rpm>
</extensions>
</trkpt>
<trkpt lat="63.825546265" lon="-18.805419922">
<ele>506.796875</ele>
<time>2012-07-25T14:55:32Z</time>
<speed>0.020000</speed>
<extensions>
<speed>0.0</speed>
<temp>0.00</temp>
<bpm>0</bpm>
<rpm>0.00</rpm>
</extensions>
</trkpt>
<trkpt lat="63.825546265" lon="-18.805421829">
<ele>506.687500</ele>
<time>2012-07-25T14:55:37Z</time>
<speed>0.020000</speed>
<extensions>
<speed>0.0</speed>
<temp>0.00</temp>
<bpm>0</bpm>
<rpm>0.00</rpm>
</extensions>
</trkpt>
<trkpt lat="63.825546265" lon="-18.805421829">
<ele>506.843750</ele>
<time>2012-07-25T14:55:42Z</time>
<speed>0.170000</speed>
<extensions>
<speed>0.2</speed>
<temp>0.00</temp>
<bpm>0</bpm>
<rpm>0.00</rpm>
</extensions>
</trkpt>
<trkpt lat="63.825546265" lon="-18.805421829">
<ele>506.921875</ele>
<time>2012-07-25T14:55:47Z</time>
<speed>0.010000</speed>
<extensions>
<speed>0.0</speed>
<temp>0.00</temp>
<bpm>0</bpm>
<rpm>0.00</rpm>
</extensions>
</trkpt>
<trkpt lat="63.825546265" lon="-18.805427551">
<ele>506.968750</ele>
<time>2012-07-25T14:55:52Z</time>
<speed>0.840000</speed>
<extensions>
<speed>0.8</speed>
<temp>0.00</temp>
<bpm>0</bpm>
<rpm>0.00</rpm>
</extensions>
</trkpt>
<trkpt lat="63.825553894" lon="-18.805454254">
<ele>507.375000</ele>
<time>2012-07-25T14:55:57Z</time>
<speed>0.640000</speed>
<extensions>
<speed>0.6</speed>
<temp>0.00</temp>
<bpm>0</bpm>
<rpm>0.00</rpm>
</extensions>
</trkpt>
<trkpt lat="63.825550079" lon="-18.805467606">
<ele>507.125000</ele>
<time>2012-07-25T14:56:02Z</time>
<speed>0.910000</speed>
<extensions>
<speed>0.9</speed>
<temp>0.00</temp>
<bpm>0</bpm>
<rpm>0.00</rpm>
</extensions>
</trkpt>
<trkpt lat="63.825542450" lon="-18.805463791">
<ele>506.281250</ele>
<time>2012-07-25T14:56:07Z</time>
<speed>0.720000</speed>
<extensions>
<speed>0.7</speed>
<temp>0.00</temp>
<bpm>0</bpm>
<rpm>0.00</rpm>
</extensions>
</trkpt>
<trkpt lat="63.825527191" lon="-18.805440903">
<ele>506.125000</ele>
<time>2012-07-25T14:56:12Z</time>
<speed>0.370000</speed>
<extensions>
<speed>0.4</speed>
<temp>0.00</temp>
<bpm>0</bpm>
<rpm>0.00</rpm>
</extensions>
</trkpt>
<trkpt lat="63.825523376" lon="-18.805450439">
<ele>506.335938</ele>
<time>2012-07-25T14:56:17Z</time>
<speed>0.010000</speed>
<extensions>
<speed>0.0</speed>
<temp>0.00</temp>
<bpm>0</bpm>
<rpm>0.00</rpm>
</extensions>
</trkpt>
<trkpt lat="63.825523376" lon="-18.805450439">
<ele>506.226563</ele>
<time>2012-07-25T14:56:22Z</time>
<speed>0.010000</speed>
<extensions>
<speed>0.0</speed>
<temp>0.00</temp>
<bpm>0</bpm>
<rpm>0.00</rpm>
</extensions>
</trkpt>
<trkpt lat="63.825523376" lon="-18.805450439">
<ele>506.156250</ele>
<time>2012-07-25T14:56:27Z</time>
<speed>0.080000</speed>
<extensions>
<speed>0.1</speed>
<temp>0.00</temp>
<bpm>0</bpm>
<rpm>0.00</rpm>
</extensions>
</trkpt>
<trkpt lat="63.825523376" lon="-18.805450439">
<ele>506.156250</ele>
<time>2012-07-25T14:56:32Z</time>
<speed>0.070000</speed>
<extensions>
<speed>0.1</speed>
<temp>0.00</temp>
<bpm>0</bpm>
<rpm>0.00</rpm>
</extensions>
</trkpt>
<trkpt lat="63.825523376" lon="-18.805452347">
<ele>506.242188</ele>
<time>2012-07-25T14:56:37Z</time>
<speed>0.230000</speed>
<extensions>
<speed>0.2</speed>
<temp>0.00</temp>
<bpm>0</bpm>
<rpm>0.00</rpm>
</extensions>
</trkpt>
<trkpt lat="63.825523376" lon="-18.805448532">
<ele>506.257813</ele>
<time>2012-07-25T14:56:42Z</time>
<speed>0.020000</speed>
<extensions>
<speed>0.0</speed>
<temp>0.00</temp>
<bpm>0</bpm>
<rpm>0.00</rpm>
</extensions>
</trkpt>
<trkpt lat="63.825531006" lon="-18.805435181">
<ele>506.257813</ele>
<time>2012-07-25T14:56:47Z</time>
<speed>0.310000</speed>
<extensions>
<speed>0.3</speed>
<temp>0.00</temp>
<bpm>0</bpm>
<rpm>0.00</rpm>
</extensions>
</trkpt>
<trkpt lat="63.825534821" lon="-18.805377960">
<ele>505.656250</ele>
<time>2012-07-25T14:56:52Z</time>
<speed>0.700000</speed>
<extensions>
<speed>0.7</speed>
<temp>0.00</temp>
<bpm>0</bpm>
<rpm>0.00</rpm>
</extensions>
</trkpt>
<trkpt lat="63.825538635" lon="-18.805322647">
<ele>506.328125</ele>
<time>2012-07-25T14:56:57Z</time>
<speed>0.230000</speed>
<extensions>
<speed>0.2</speed>
<temp>0.00</temp>
<bpm>0</bpm>
<rpm>0.00</rpm>
</extensions>
</trkpt>
<trkpt lat="63.825534821" lon="-18.805316925">
<ele>506.109375</ele>
<time>2012-07-25T14:57:02Z</time>
<extensions>
<speed>0.0</speed>
<temp>0.00</temp>
<bpm>0</bpm>
<rpm>0.00</rpm>
</extensions>
</trkpt>
<trkpt lat="63.825534821" lon="-18.805315018">
<ele>506.156250</ele>
<time>2012-07-25T14:57:07Z</time>
<speed>0.050000</speed>
<extensions>
<speed>0.1</speed>
<temp>0.00</temp>
<bpm>0</bpm>
<rpm>0.00</rpm>
</extensions>
</trkpt>
<trkpt lat="63.825534821" lon="-18.805315018">
<ele>506.171875</ele>
<time>2012-07-25T14:57:12Z</time>
<speed>0.020000</speed>
<extensions>
<speed>0.0</speed>
<temp>0.00</temp>
<bpm>0</bpm>
<rpm>0.00</rpm>
</extensions>
</trkpt>
<trkpt lat="63.825534821" lon="-18.805316925">
<ele>506.195313</ele>
<time>2012-07-25T14:57:17Z</time>
<extensions>
<speed>0.0</speed>
<temp>0.00</temp>
<bpm>0</bpm>
<rpm>0.00</rpm>
</extensions>
</trkpt>
<trkpt lat="63.825534821" lon="-18.805316925">
<ele>506.250000</ele>
<time>2012-07-25T14:57:22Z</time>
<speed>0.020000</speed>
<extensions>
<speed>0.0</speed>
<temp>0.00</temp>
<bpm>0</bpm>
<rpm>0.00</rpm>
</extensions>
</trkpt>
<trkpt lat="63.825534821" lon="-18.805316925">
<ele>506.257813</ele>
<time>2012-07-25T14:57:27Z</time>
<speed>0.080000</speed>
<extensions>
<speed>0.1</speed>
<temp>0.00</temp>
<bpm>0</bpm>
<rpm>0.00</rpm>
</extensions>
</trkpt>
<trkpt lat="63.825534821" lon="-18.805318832">
<ele>506.281250</ele>
<time>2012-07-25T14:57:32Z</time>
<extensions>
<speed>0.0</speed>
<temp>0.00</temp>
<bpm>0</bpm>
<rpm>0.00</rpm>
</extensions>
</trkpt>
<trkpt lat="63.825534821" lon="-18.805318832">
<ele>506.289063</ele>
<time>2012-07-25T14:57:37Z</time>
<extensions>
<speed>0.0</speed>
<temp>0.00</temp>
<bpm>0</bpm>
<rpm>0.00</rpm>
</extensions>
</trkpt>
<trkpt lat="63.825534821" lon="-18.805318832">
<ele>506.281250</ele>
<time>2012-07-25T14:57:42Z</time>
<extensions>
<speed>0.0</speed>
<temp>0.00</temp>
<bpm>0</bpm>
<rpm>0.00</rpm>
</extensions>
</trkpt>
<trkpt lat="63.825534821" lon="-18.805318832">
<ele>506.296875</ele>
<time>2012-07-25T14:57:47Z</time>
<extensions>
<speed>0.0</speed>
<temp>0.00</temp>
<bpm>0</bpm>
<rpm>0.00</rpm>
</extensions>
</trkpt>
<trkpt lat="63.825534821" lon="-18.805320740">
<ele>506.296875</ele>
<time>2012-07-25T14:57:52Z</time>
<extensions>
<speed>0.0</speed>
<temp>0.00</temp>
<bpm>0</bpm>
<rpm>0.00</rpm>
</extensions>
</trkpt>
<trkpt lat="63.825534821" lon="-18.805339813">
<ele>506.328125</ele>
<time>2012-07-25T14:57:57Z</time>
<speed>1.140000</speed>
<extensions>
<speed>1.1</speed>
<temp>0.00</temp>
<bpm>0</bpm>
<rpm>0.00</rpm>
</extensions>
</trkpt>
<trkpt lat="63.825546265" lon="-18.805461884">
<ele>506.703125</ele>
<time>2012-07-25T14:58:02Z</time>
<speed>0.710000</speed>
<extensions>
<speed>0.7</speed>
<temp>0.00</temp>
<bpm>0</bpm>
<rpm>0.00</rpm>
</extensions>
</trkpt>
<trkpt lat="63.825546265" lon="-18.805480957">
<ele>507.023438</ele>
<time>2012-07-25T14:58:07Z</time>
<extensions>
<speed>0.0</speed>
<temp>0.00</temp>
<bpm>0</bpm>
<rpm>0.00</rpm>
</extensions>
</trkpt>
<trkpt lat="63.825546265" lon="-18.805480957">
<ele>507.031250</ele>
<time>2012-07-25T14:58:12Z</time>
<extensions>
<speed>0.0</speed>
<temp>0.00</temp>
<bpm>0</bpm>
<rpm>0.00</rpm>
</extensions>
</trkpt>
<trkpt lat="63.825546265" lon="-18.805480957">
<ele>507.023438</ele>
<time>2012-07-25T14:58:17Z</time>
<extensions>
<speed>0.0</speed>
<temp>0.00</temp>
<bpm>0</bpm>
<rpm>0.00</rpm>
</extensions>
</trkpt>
<trkpt lat="63.825550079" lon="-18.805486679">
<ele>507.023438</ele>
<time>2012-07-25T14:58:22Z</time>
<speed>0.330000</speed>
<extensions>
<speed>0.3</speed>
<temp>0.00</temp>
<bpm>0</bpm>
<rpm>0.00</rpm>
</extensions>
</trkpt>
<trkpt lat="63.825550079" lon="-18.805486679">
<ele>507.289063</ele>
<time>2012-07-25T14:58:27Z</time>
<extensions>
<speed>0.0</speed>
<temp>0.00</temp>
<bpm>0</bpm>
<rpm>0.00</rpm>
</extensions>
</trkpt>
<trkpt lat="63.825550079" lon="-18.805486679">
<ele>507.304688</ele>
<time>2012-07-25T14:58:32Z</time>
<speed>0.010000</speed>
<extensions>
<speed>0.0</speed>
<temp>0.00</temp>
<bpm>0</bpm>
<rpm>0.00</rpm>
</extensions>
</trkpt>
<trkpt lat="63.825550079" lon="-18.805486679">
<ele>507.296875</ele>
<time>2012-07-25T14:58:37Z</time>
<extensions>
<speed>0.0</speed>
<temp>0.00</temp>
<bpm>0</bpm>
<rpm>0.00</rpm>
</extensions>
</trkpt>
<trkpt lat="63.825550079" lon="-18.805486679">
<ele>507.289063</ele>
<time>2012-07-25T14:58:42Z</time>
<extensions>
<speed>0.0</speed>
<temp>0.00</temp>
<bpm>0</bpm>
<rpm>0.00</rpm>
</extensions>
</trkpt>
<trkpt lat="63.825550079" lon="-18.805486679">
<ele>507.289063</ele>
<time>2012-07-25T14:58:47Z</time>
<extensions>
<speed>0.0</speed>
<temp>0.00</temp>
<bpm>0</bpm>
<rpm>0.00</rpm>
</extensions>
</trkpt>
<trkpt lat="63.825550079" lon="-18.805490494">
<ele>507.453125</ele>
<time>2012-07-25T14:58:52Z</time>
<speed>0.170000</speed>
<extensions>
<speed>0.2</speed>
<temp>0.00</temp>
<bpm>0</bpm>
<rpm>0.00</rpm>
</extensions>
</trkpt>
<trkpt lat="63.825553894" lon="-18.805498123">
<ele>507.265625</ele>
<time>2012-07-25T14:58:57Z</time>
<speed>0.030000</speed>
<extensions>
<speed>0.0</speed>
<temp>0.00</temp>
<bpm>0</bpm>
<rpm>0.00</rpm>
</extensions>
</trkpt>
<trkpt lat="63.825542450" lon="-18.805433273">
<ele>507.515625</ele>
<time>2012-07-25T14:59:02Z</time>
<speed>1.120000</speed>
<extensions>
<speed>1.1</speed>
<temp>0.00</temp>
<bpm>0</bpm>
<rpm>0.00</rpm>
</extensions>
</trkpt>
<trkpt lat="63.825561523" lon="-18.805263519">
<ele>507.578125</ele>
<time>2012-07-25T14:59:07Z</time>
<speed>1.510000</speed>
<extensions>
<speed>1.5</speed>
<temp>0.00</temp>
<bpm>0</bpm>
<rpm>0.00</rpm>
</extensions>
</trkpt>
<trkpt lat="63.825565338" lon="-18.805183411">
<ele>506.914063</ele>
<time>2012-07-25T14:59:12Z</time>
<speed>0.340000</speed>
<extensions>
<speed>0.3</speed>
<temp>0.00</temp>
<bpm>0</bpm>
<rpm>0.00</rpm>
</extensions>
</trkpt>
<trkpt lat="63.825557709" lon="-18.805171967">
<ele>506.687500</ele>
<time>2012-07-25T14:59:17Z</time>
<speed>0.230000</speed>
<extensions>
<speed>0.2</speed>
<temp>0.00</temp>
<bpm>0</bpm>
<rpm>0.00</rpm>
</extensions>
</trkpt>
<trkpt lat="63.825561523" lon="-18.805171967">
<ele>506.898438</ele>
<time>2012-07-25T14:59:22Z</time>
<speed>0.220000</speed>
<extensions>
<speed>0.2</speed>
<temp>0.00</temp>
<bpm>0</bpm>
<rpm>0.00</rpm>
</extensions>
</trkpt>
<trkpt lat="63.825565338" lon="-18.805173874">
<ele>506.914063</ele>
<time>2012-07-25T14:59:27Z</time>
<speed>0.160000</speed>
<extensions>
<speed>0.2</speed>
<temp>0.00</temp>
<bpm>0</bpm>
<rpm>0.00</rpm>
</extensions>
</trkpt>
<trkpt lat="63.825565338" lon="-18.805076599">
<ele>506.773438</ele>
<time>2012-07-25T14:59:32Z</time>
<speed>1.470000</speed>
<extensions>
<speed>1.5</speed>
<temp>0.00</temp>
<bpm>0</bpm>
<rpm>0.00</rpm>
</extensions>
</trkpt>
<trkpt lat="63.825557709" lon="-18.805025101">
<ele>507.429688</ele>
<time>2012-07-25T14:59:37Z</time>
<speed>0.040000</speed>
<extensions>
<speed>0.0</speed>
<temp>0.00</temp>
<bpm>0</bpm>
<rpm>0.00</rpm>
</extensions>
</trkpt>
<trkpt lat="63.825553894" lon="-18.805030823">
<ele>507.062500</ele>
<time>2012-07-25T14:59:42Z</time>
<speed>0.060000</speed>
<extensions>
<speed>0.1</speed>
<temp>0.00</temp>
<bpm>0</bpm>
<rpm>0.00</rpm>
</extensions>
</trkpt>
<trkpt lat="63.825538635" lon="-18.805044174">
<ele>506.593750</ele>
<time>2012-07-25T14:59:47Z</time>
<speed>0.020000</speed>
<extensions>
<speed>0.0</speed>
<temp>0.00</temp>
<bpm>0</bpm>
<rpm>0.00</rpm>
</extensions>
</trkpt>
<trkpt lat="63.825550079" lon="-18.805078506">
<ele>506.828125</ele>
<time>2012-07-25T14:59:52Z</time>
<speed>1.540000</speed>
<extensions>
<speed>1.5</speed>
<temp>0.00</temp>
<bpm>0</bpm>
<rpm>0.00</rpm>
</extensions>
</trkpt>
<trkpt lat="63.825561523" lon="-18.805202484">
<ele>507.898438</ele>
<time>2012-07-25T14:59:57Z</time>
<speed>0.750000</speed>
<extensions>
<speed>0.8</speed>
<temp>0.00</temp>
<bpm>0</bpm>
<rpm>0.00</rpm>
</extensions>
</trkpt>
<trkpt lat="63.825561523" lon="-18.805194855">
<ele>507.953125</ele>
<time>2012-07-25T15:00:02Z</time>
<speed>0.630000</speed>
<extensions>
<speed>0.6</speed>
<temp>0.00</temp>
<bpm>0</bpm>
<rpm>0.00</rpm>
</extensions>
</trkpt>
<trkpt lat="63.825565338" lon="-18.805234909">
<ele>508.242188</ele>
<time>2012-07-25T15:00:07Z</time>
<extensions>
<speed>0.0</speed>
<temp>0.00</temp>
<bpm>0</bpm>
<rpm>0.00</rpm>
</extensions>
</trkpt>
<trkpt lat="63.825561523" lon="-18.805231094">
<ele>508.140625</ele>
<time>2012-07-25T15:00:12Z</time>
<extensions>
<speed>0.0</speed>
<temp>0.00</temp>
<bpm>0</bpm>
<rpm>0.00</rpm>
</extensions>
</trkpt>
<trkpt lat="63.825561523" lon="-18.805231094">
<ele>508.101563</ele>
<time>2012-07-25T15:00:17Z</time>
<extensions>
<speed>0.0</speed>
<temp>0.00</temp>
<bpm>0</bpm>
<rpm>0.00</rpm>
</extensions>
</trkpt>
<trkpt lat="63.825561523" lon="-18.805231094">
<ele>508.070313</ele>
<time>2012-07-25T15:00:22Z</time>
<extensions>
<speed>0.0</speed>
<temp>0.00</temp>
<bpm>0</bpm>
<rpm>0.00</rpm>
</extensions>
</trkpt>
<trkpt lat="63.825561523" lon="-18.805231094">
<ele>508.062500</ele>
<time>2012-07-25T15:00:27Z</time>
<extensions>
<speed>0.0</speed>
<temp>0.00</temp>
<bpm>0</bpm>
<rpm>0.00</rpm>
</extensions>
</trkpt>
<trkpt lat="63.825561523" lon="-18.805231094">
<ele>508.054688</ele>
<time>2012-07-25T15:00:32Z</time>
<extensions>
<speed>0.0</speed>
<temp>0.00</temp>
<bpm>0</bpm>
<rpm>0.00</rpm>
</extensions>
</trkpt>
<trkpt lat="63.825561523" lon="-18.805229187">
<ele>508.054688</ele>
<time>2012-07-25T15:00:37Z</time>
<extensions>
<speed>0.0</speed>
<temp>0.00</temp>
<bpm>0</bpm>
<rpm>0.00</rpm>
</extensions>
</trkpt>
<trkpt lat="63.825561523" lon="-18.805229187">
<ele>508.062500</ele>
<time>2012-07-25T15:00:42Z</time>
<extensions>
<speed>0.0</speed>
<temp>0.00</temp>
<bpm>0</bpm>
<rpm>0.00</rpm>
</extensions>
</trkpt>
<trkpt lat="63.825561523" lon="-18.805229187">
<ele>508.062500</ele>
<time>2012-07-25T15:00:47Z</time>
<extensions>
<speed>0.0</speed>
<temp>0.00</temp>
<bpm>0</bpm>
<rpm>0.00</rpm>
</extensions>
</trkpt>
<trkpt lat="63.825557709" lon="-18.805229187">
<ele>508.062500</ele>
<time>2012-07-25T15:00:52Z</time>
<extensions>
<speed>0.0</speed>
<temp>0.00</temp>
<bpm>0</bpm>
<rpm>0.00</rpm>
</extensions>
</trkpt>
<trkpt lat="63.825557709" lon="-18.805229187">
<ele>508.062500</ele>
<time>2012-07-25T15:00:57Z</time>
<extensions>
<speed>0.0</speed>
<temp>0.00</temp>
<bpm>0</bpm>
<rpm>0.00</rpm>
</extensions>
</trkpt>
<trkpt lat="63.825557709" lon="-18.805229187">
<ele>508.062500</ele>
<time>2012-07-25T15:01:02Z</time>
<extensions>
<speed>0.0</speed>
<temp>0.00</temp>
<bpm>0</bpm>
<rpm>0.00</rpm>
</extensions>
</trkpt>
<trkpt lat="63.825557709" lon="-18.805229187">
<ele>508.046875</ele>
<time>2012-07-25T15:01:07Z</time>
<extensions>
<speed>0.0</speed>
<temp>0.00</temp>
<bpm>0</bpm>
<rpm>0.00</rpm>
</extensions>
</trkpt>
<trkpt lat="63.825557709" lon="-18.805229187">
<ele>508.031250</ele>
<time>2012-07-25T15:01:12Z</time>
<extensions>
<speed>0.0</speed>
<temp>0.00</temp>
<bpm>0</bpm>
<rpm>0.00</rpm>
</extensions>
</trkpt>
<trkpt lat="63.825557709" lon="-18.805229187">
<ele>508.023438</ele>
<time>2012-07-25T15:01:17Z</time>
<extensions>
<speed>0.0</speed>
<temp>0.00</temp>
<bpm>0</bpm>
<rpm>0.00</rpm>
</extensions>
</trkpt>
<trkpt lat="63.825557709" lon="-18.805229187">
<ele>508.007813</ele>
<time>2012-07-25T15:01:22Z</time>
<extensions>
<speed>0.0</speed>
<temp>0.00</temp>
<bpm>0</bpm>
<rpm>0.00</rpm>
</extensions>
</trkpt>
<trkpt lat="63.825557709" lon="-18.805229187">
<ele>508.000000</ele>
<time>2012-07-25T15:01:27Z</time>
<extensions>
<speed>0.0</speed>
<temp>0.00</temp>
<bpm>0</bpm>
<rpm>0.00</rpm>
</extensions>
</trkpt>
<trkpt lat="63.825557709" lon="-18.805229187">
<ele>507.992188</ele>
<time>2012-07-25T15:01:32Z</time>
<extensions>
<speed>0.0</speed>
<temp>0.00</temp>
<bpm>0</bpm>
<rpm>0.00</rpm>
</extensions>
</trkpt>
<trkpt lat="63.825557709" lon="-18.805229187">
<ele>507.984375</ele>
<time>2012-07-25T15:01:37Z</time>
<extensions>
<speed>0.0</speed>
<temp>0.00</temp>
<bpm>0</bpm>
<rpm>0.00</rpm>
</extensions>
</trkpt>
<trkpt lat="63.825557709" lon="-18.805229187">
<ele>507.960938</ele>
<time>2012-07-25T15:01:42Z</time>
<extensions>
<speed>0.0</speed>
<temp>0.00</temp>
<bpm>0</bpm>
<rpm>0.00</rpm>
</extensions>
</trkpt>
<trkpt lat="63.825565338" lon="-18.805191040">
<ele>508.531250</ele>
<time>2012-07-25T15:01:47Z</time>
<speed>1.330000</speed>
<extensions>
<speed>1.3</speed>
<temp>0.00</temp>
<bpm>0</bpm>
<rpm>0.00</rpm>
</extensions>
</trkpt>
<trkpt lat="63.825572968" lon="-18.805147171">
<ele>508.968750</ele>
<time>2012-07-25T15:01:52Z</time>
<speed>1.260000</speed>
<extensions>
<speed>1.3</speed>
<temp>0.00</temp>
<bpm>0</bpm>
<rpm>0.00</rpm>
</extensions>
</trkpt>
<trkpt lat="63.825538635" lon="-18.805150986">
<ele>509.203125</ele>
<time>2012-07-25T15:01:57Z</time>
<speed>0.290000</speed>
<extensions>
<speed>0.3</speed>
<temp>0.00</temp>
<bpm>0</bpm>
<rpm>0.00</rpm>
</extensions>
</trkpt>
<trkpt lat="63.825534821" lon="-18.805141449">
<ele>510.664063</ele>
<time>2012-07-25T15:02:02Z</time>
<speed>0.240000</speed>
<extensions>
<speed>0.2</speed>
<temp>0.00</temp>
<bpm>0</bpm>
<rpm>0.00</rpm>
</extensions>
</trkpt>
<trkpt lat="63.825531006" lon="-18.805130005">
<ele>511.031250</ele>
<time>2012-07-25T15:02:07Z</time>
<speed>0.120000</speed>
<extensions>
<speed>0.1</speed>
<temp>0.00</temp>
<bpm>0</bpm>
<rpm>0.00</rpm>
</extensions>
</trkpt>
<trkpt lat="63.825534821" lon="-18.805135727">
<ele>510.820313</ele>
<time>2012-07-25T15:02:12Z</time>
<speed>0.150000</speed>
<extensions>
<speed>0.2</speed>
<temp>0.00</temp>
<bpm>0</bpm>
<rpm>0.00</rpm>
</extensions>
</trkpt>
<trkpt lat="63.825534821" lon="-18.805137634">
<ele>510.890625</ele>
<time>2012-07-25T15:02:17Z</time>
<speed>0.190000</speed>
<extensions>
<speed>0.2</speed>
<temp>0.00</temp>
<bpm>0</bpm>
<rpm>0.00</rpm>
</extensions>
</trkpt>
<trkpt lat="63.825531006" lon="-18.805137634">
<ele>510.375000</ele>
<time>2012-07-25T15:02:22Z</time>
<speed>0.190000</speed>
<extensions>
<speed>0.2</speed>
<temp>0.00</temp>
<bpm>0</bpm>
<rpm>0.00</rpm>
</extensions>
</trkpt>
<trkpt lat="63.825531006" lon="-18.805131912">
<ele>510.328125</ele>
<time>2012-07-25T15:02:27Z</time>
<speed>0.010000</speed>
<extensions>
<speed>0.0</speed>
<temp>0.00</temp>
<bpm>0</bpm>
<rpm>0.00</rpm>
</extensions>
</trkpt>
<trkpt lat="63.825531006" lon="-18.805131912">
<ele>510.289063</ele>
<time>2012-07-25T15:02:32Z</time>
<speed>0.020000</speed>
<extensions>
<speed>0.0</speed>
<temp>0.00</temp>
<bpm>0</bpm>
<rpm>0.00</rpm>
</extensions>
</trkpt>
<trkpt lat="63.825531006" lon="-18.805131912">
<ele>510.296875</ele>
<time>2012-07-25T15:02:37Z</time>
<speed>0.020000</speed>
<extensions>
<speed>0.0</speed>
<temp>0.00</temp>
<bpm>0</bpm>
<rpm>0.00</rpm>
</extensions>
</trkpt>
<trkpt lat="63.825531006" lon="-18.805131912">
<ele>510.281250</ele>
<time>2012-07-25T15:02:42Z</time>
<speed>0.010000</speed>
<extensions>
<speed>0.0</speed>
<temp>0.00</temp>
<bpm>0</bpm>
<rpm>0.00</rpm>
</extensions>
</trkpt>
<trkpt lat="63.825531006" lon="-18.805131912">
<ele>510.281250</ele>
<time>2012-07-25T15:02:47Z</time>
<extensions>
<speed>0.0</speed>
<temp>0.00</temp>
<bpm>0</bpm>
<rpm>0.00</rpm>
</extensions>
</trkpt>
<trkpt lat="63.825531006" lon="-18.805131912">
<ele>510.281250</ele>
<time>2012-07-25T15:02:52Z</time>
<extensions>
<speed>0.0</speed>
<temp>0.00</temp>
<bpm>0</bpm>
<rpm>0.00</rpm>
</extensions>
</trkpt>
<trkpt lat="63.825531006" lon="-18.805131912">
<ele>510.281250</ele>
<time>2012-07-25T15:02:57Z</time>
<extensions>
<speed>0.0</speed>
<temp>0.00</temp>
<bpm>0</bpm>
<rpm>0.00</rpm>
</extensions>
</trkpt>
<trkpt lat="63.825531006" lon="-18.805131912">
<ele>510.273438</ele>
<time>2012-07-25T15:03:02Z</time>
<speed>0.010000</speed>
<extensions>
<speed>0.0</speed>
<temp>0.00</temp>
<bpm>0</bpm>
<rpm>0.00</rpm>
</extensions>
</trkpt>
<trkpt lat="63.825531006" lon="-18.805131912">
<ele>510.281250</ele>
<time>2012-07-25T15:03:07Z</time>
<speed>0.010000</speed>
<extensions>
<speed>0.0</speed>
<temp>0.00</temp>
<bpm>0</bpm>
<rpm>0.00</rpm>
</extensions>
</trkpt>
<trkpt lat="63.825531006" lon="-18.805133820">
<ele>510.281250</ele>
<time>2012-07-25T15:03:12Z</time>
<speed>0.080000</speed>
<extensions>
<speed>0.1</speed>
<temp>0.00</temp>
<bpm>0</bpm>
<rpm>0.00</rpm>
</extensions>
</trkpt>
<trkpt lat="63.825553894" lon="-18.805139542">
<ele>510.164063</ele>
<time>2012-07-25T15:03:17Z</time>
<speed>0.470000</speed>
<extensions>
<speed>0.5</speed>
<temp>0.00</temp>
<bpm>0</bpm>
<rpm>0.00</rpm>
</extensions>
</trkpt>
<trkpt lat="63.825538635" lon="-18.805152893">
<ele>509.210938</ele>
<time>2012-07-25T15:03:22Z</time>
<speed>0.450000</speed>
<extensions>
<speed>0.5</speed>
<temp>0.00</temp>
<bpm>0</bpm>
<rpm>0.00</rpm>
</extensions>
</trkpt>
<trkpt lat="63.825500488" lon="-18.805110931">
<ele>509.203125</ele>
<time>2012-07-25T15:03:27Z</time>
<speed>1.170000</speed>
<extensions>
<speed>1.2</speed>
<temp>0.00</temp>
<bpm>0</bpm>
<rpm>0.00</rpm>
</extensions>
</trkpt>
<trkpt lat="63.825485229" lon="-18.805114746">
<ele>509.101563</ele>
<time>2012-07-25T15:03:32Z</time>
<speed>1.100000</speed>
<extensions>
<speed>1.1</speed>
<temp>0.00</temp>
<bpm>0</bpm>
<rpm>0.00</rpm>
</extensions>
</trkpt>
<trkpt lat="63.825489044" lon="-18.805284500">
<ele>509.195313</ele>
<time>2012-07-25T15:03:37Z</time>
<speed>1.560000</speed>
<extensions>
<speed>1.6</speed>
<temp>0.00</temp>
<bpm>0</bpm>
<rpm>0.00</rpm>
</extensions>
</trkpt>
<trkpt lat="63.825450897" lon="-18.805471420">
<ele>508.992188</ele>
<time>2012-07-25T15:03:42Z</time>
<speed>1.730000</speed>
<extensions>
<speed>1.7</speed>
<temp>0.00</temp>
<bpm>0</bpm>
<rpm>0.00</rpm>
</extensions>
</trkpt>
<trkpt lat="63.825435638" lon="-18.805644989">
<ele>508.703125</ele>
<time>2012-07-25T15:03:47Z</time>
<speed>1.700000</speed>
<extensions>
<speed>1.7</speed>
<temp>0.00</temp>
<bpm>0</bpm>
<rpm>0.00</rpm>
</extensions>
</trkpt>
<trkpt lat="63.825431824" lon="-18.805847168">
<ele>508.601563</ele>
<time>2012-07-25T15:03:52Z</time>
<speed>1.630000</speed>
<extensions>
<speed>1.6</speed>
<temp>0.00</temp>
<bpm>0</bpm>
<rpm>0.00</rpm>
</extensions>
</trkpt>
<trkpt lat="63.825439453" lon="-18.805969238">
<ele>508.945313</ele>
<time>2012-07-25T15:03:57Z</time>
<speed>1.510000</speed>
<extensions>
<speed>1.5</speed>
<temp>0.00</temp>
<bpm>0</bpm>
<rpm>0.00</rpm>
</extensions>
</trkpt>
<trkpt lat="63.825408936" lon="-18.806138992">
<ele>508.789063</ele>
<time>2012-07-25T15:04:02Z</time>
<speed>1.970000</speed>
<extensions>
<speed>2.0</speed>
<temp>0.00</temp>
<bpm>0</bpm>
<rpm>0.00</rpm>
</extensions>
</trkpt>
<trkpt lat="63.825370789" lon="-18.806335449">
<ele>509.601563</ele>
<time>2012-07-25T15:04:07Z</time>
<speed>1.780000</speed>
<extensions>
<speed>1.8</speed>
<temp>0.00</temp>
<bpm>0</bpm>
<rpm>0.00</rpm>
</extensions>
</trkpt>
<trkpt lat="63.825283051" lon="-18.806447983">
<ele>509.734375</ele>
<time>2012-07-25T15:04:12Z</time>
<speed>2.360000</speed>
<extensions>
<speed>2.4</speed>
<temp>0.00</temp>
<bpm>0</bpm>
<rpm>0.00</rpm>
</extensions>
</trkpt>
<trkpt lat="63.825191498" lon="-18.806493759">
<ele>509.007813</ele>
<time>2012-07-25T15:04:17Z</time>
<speed>1.700000</speed>
<extensions>
<speed>1.7</speed>
<temp>0.00</temp>
<bpm>0</bpm>
<rpm>0.00</rpm>
</extensions>
</trkpt>
<trkpt lat="63.825099945" lon="-18.806562424">
<ele>507.687500</ele>
<time>2012-07-25T15:04:22Z</time>
<speed>2.400000</speed>
<extensions>
<speed>2.4</speed>
<temp>0.00</temp>
<bpm>0</bpm>
<rpm>0.00</rpm>
</extensions>
</trkpt>
<trkpt lat="63.824985504" lon="-18.806577682">
<ele>506.960938</ele>
<time>2012-07-25T15:04:27Z</time>
<speed>2.400000</speed>
<extensions>
<speed>2.4</speed>
<temp>0.00</temp>
<bpm>0</bpm>
<rpm>0.00</rpm>
</extensions>
</trkpt>
<trkpt lat="63.824874878" lon="-18.806587219">
<ele>507.578125</ele>
<time>2012-07-25T15:04:32Z</time>
<speed>2.230000</speed>
<extensions>
<speed>2.2</speed>
<temp>0.00</temp>
<bpm>0</bpm>
<rpm>0.00</rpm>
</extensions>
</trkpt>
<trkpt lat="63.824775696" lon="-18.806568146">
<ele>509.015625</ele>
<time>2012-07-25T15:04:37Z</time>
<speed>2.600000</speed>
<extensions>
<speed>2.6</speed>
<temp>0.00</temp>
<bpm>0</bpm>
<rpm>0.00</rpm>
</extensions>
</trkpt>
<trkpt lat="63.824707031" lon="-18.806634903">
<ele>510.078125</ele>
<time>2012-07-25T15:04:42Z</time>
<speed>1.650000</speed>
<extensions>
<speed>1.7</speed>
<temp>0.00</temp>
<bpm>0</bpm>
<rpm>0.00</rpm>
</extensions>
</trkpt>
<trkpt lat="63.824630737" lon="-18.806652069">
<ele>509.796875</ele>
<time>2012-07-25T15:04:47Z</time>
<speed>2.090000</speed>
<extensions>
<speed>2.1</speed>
<temp>0.00</temp>
<bpm>0</bpm>
<rpm>0.00</rpm>
</extensions>
</trkpt>
<trkpt lat="63.824562073" lon="-18.806760788">
<ele>510.664063</ele>
<time>2012-07-25T15:04:52Z</time>
<speed>1.110000</speed>
<extensions>
<speed>1.1</speed>
<temp>0.00</temp>
<bpm>0</bpm>
<rpm>0.00</rpm>
</extensions>
</trkpt>
<trkpt lat="63.824527740" lon="-18.806766510">
<ele>512.953125</ele>
<time>2012-07-25T15:04:57Z</time>
<speed>0.080000</speed>
<extensions>
<speed>0.1</speed>
<temp>0.00</temp>
<bpm>0</bpm>
<rpm>0.00</rpm>
</extensions>
</trkpt>
<trkpt lat="63.824527740" lon="-18.806749344">
<ele>513.015625</ele>
<time>2012-07-25T15:05:02Z</time>
<speed>0.110000</speed>
<extensions>
<speed>0.1</speed>
<temp>0.00</temp>
<bpm>0</bpm>
<rpm>0.00</rpm>
</extensions>
</trkpt>
<trkpt lat="63.824527740" lon="-18.806743622">
<ele>513.093750</ele>
<time>2012-07-25T15:05:07Z</time>
<speed>0.040000</speed>
<extensions>
<speed>0.0</speed>
<temp>0.00</temp>
<bpm>0</bpm>
<rpm>0.00</rpm>
</extensions>
</trkpt>
<trkpt lat="63.824531555" lon="-18.806749344">
<ele>513.109375</ele>
<time>2012-07-25T15:05:12Z</time>
<speed>0.040000</speed>
<extensions>
<speed>0.0</speed>
<temp>0.00</temp>
<bpm>0</bpm>
<rpm>0.00</rpm>
</extensions>
</trkpt>
<trkpt lat="63.824531555" lon="-18.806745529">
<ele>513.125000</ele>
<time>2012-07-25T15:05:17Z</time>
<speed>0.070000</speed>
<extensions>
<speed>0.1</speed>
<temp>0.00</temp>
<bpm>0</bpm>
<rpm>0.00</rpm>
</extensions>
</trkpt>
<trkpt lat="63.824531555" lon="-18.806755066">
<ele>513.125000</ele>
<time>2012-07-25T15:05:22Z</time>
<speed>0.020000</speed>
<extensions>
<speed>0.0</speed>
<temp>0.00</temp>
<bpm>0</bpm>
<rpm>0.00</rpm>
</extensions>
</trkpt>
<trkpt lat="63.824531555" lon="-18.806762695">
<ele>513.109375</ele>
<time>2012-07-25T15:05:27Z</time>
<speed>0.120000</speed>
<extensions>
<speed>0.1</speed>
<temp>0.00</temp>
<bpm>0</bpm>
<rpm>0.00</rpm>
</extensions>
</trkpt>
<trkpt lat="63.824531555" lon="-18.806772232">
<ele>513.078125</ele>
<time>2012-07-25T15:05:32Z</time>
<speed>0.140000</speed>
<extensions>
<speed>0.1</speed>
<temp>0.00</temp>
<bpm>0</bpm>
<rpm>0.00</rpm>
</extensions>
</trkpt>
<trkpt lat="63.824527740" lon="-18.806777954">
<ele>513.031250</ele>
<time>2012-07-25T15:05:37Z</time>
<speed>0.060000</speed>
<extensions>
<speed>0.1</speed>
<temp>0.00</temp>
<bpm>0</bpm>
<rpm>0.00</rpm>
</extensions>
</trkpt>
<trkpt lat="63.824527740" lon="-18.806776047">
<ele>512.968750</ele>
<time>2012-07-25T15:05:42Z</time>
<speed>0.070000</speed>
<extensions>
<speed>0.1</speed>
<temp>0.00</temp>
<bpm>0</bpm>
<rpm>0.00</rpm>
</extensions>
</trkpt>
<trkpt lat="63.824527740" lon="-18.806779861">
<ele>512.921875</ele>
<time>2012-07-25T15:05:47Z</time>
<speed>0.050000</speed>
<extensions>
<speed>0.1</speed>
<temp>0.00</temp>
<bpm>0</bpm>
<rpm>0.00</rpm>
</extensions>
</trkpt>
<trkpt lat="63.824527740" lon="-18.806776047">
<ele>512.953125</ele>
<time>2012-07-25T15:05:52Z</time>
<speed>0.080000</speed>
<extensions>
<speed>0.1</speed>
<temp>0.00</temp>
<bpm>0</bpm>
<rpm>0.00</rpm>
</extensions>
</trkpt>
<trkpt lat="63.824527740" lon="-18.806777954">
<ele>512.937500</ele>
<time>2012-07-25T15:05:57Z</time>
<extensions>
<speed>0.0</speed>
<temp>0.00</temp>
<bpm>0</bpm>
<rpm>0.00</rpm>
</extensions>
</trkpt>
<trkpt lat="63.824527740" lon="-18.806777954">
<ele>512.906250</ele>
<time>2012-07-25T15:06:02Z</time>
<speed>0.010000</speed>
<extensions>
<speed>0.0</speed>
<temp>0.00</temp>
<bpm>0</bpm>
<rpm>0.00</rpm>
</extensions>
</trkpt>
<trkpt lat="63.824527740" lon="-18.806779861">
<ele>512.875000</ele>
<time>2012-07-25T15:06:07Z</time>
<extensions>
<speed>0.0</speed>
<temp>0.00</temp>
<bpm>0</bpm>
<rpm>0.00</rpm>
</extensions>
</trkpt>
<trkpt lat="63.824527740" lon="-18.806779861">
<ele>512.875000</ele>
<time>2012-07-25T15:06:12Z</time>
<speed>0.010000</speed>
<extensions>
<speed>0.0</speed>
<temp>0.00</temp>
<bpm>0</bpm>
<rpm>0.00</rpm>
</extensions>
</trkpt>
<trkpt lat="63.824527740" lon="-18.806776047">
<ele>512.703125</ele>
<time>2012-07-25T15:06:17Z</time>
<speed>0.530000</speed>
<extensions>
<speed>0.5</speed>
<temp>0.00</temp>
<bpm>0</bpm>
<rpm>0.00</rpm>
</extensions>
</trkpt>
<trkpt lat="63.824531555" lon="-18.806768417">
<ele>512.828125</ele>
<time>2012-07-25T15:06:22Z</time>
<speed>0.150000</speed>
<extensions>
<speed>0.2</speed>
<temp>0.00</temp>
<bpm>0</bpm>
<rpm>0.00</rpm>
</extensions>
</trkpt>
<trkpt lat="63.824527740" lon="-18.806766510">
<ele>513.328125</ele>
<time>2012-07-25T15:06:27Z</time>
<speed>0.160000</speed>
<extensions>
<speed>0.2</speed>
<temp>0.00</temp>
<bpm>0</bpm>
<rpm>0.00</rpm>
</extensions>
</trkpt>
<trkpt lat="63.824527740" lon="-18.806783676">
<ele>513.515625</ele>
<time>2012-07-25T15:06:32Z</time>
<speed>0.160000</speed>
<extensions>
<speed>0.2</speed>
<temp>0.00</temp>
<bpm>0</bpm>
<rpm>0.00</rpm>
</extensions>
</trkpt>
<trkpt lat="63.824550629" lon="-18.806814194">
<ele>513.765625</ele>
<time>2012-07-25T15:06:37Z</time>
<speed>0.520000</speed>
<extensions>
<speed>0.5</speed>
<temp>0.00</temp>
<bpm>0</bpm>
<rpm>0.00</rpm>
</extensions>
</trkpt>
<trkpt lat="63.824539185" lon="-18.806804657">
<ele>511.703125</ele>
<time>2012-07-25T15:06:42Z</time>
<speed>0.060000</speed>
<extensions>
<speed>0.1</speed>
<temp>0.00</temp>
<bpm>0</bpm>
<rpm>0.00</rpm>
</extensions>
</trkpt>
<trkpt lat="63.824539185" lon="-18.806808472">
<ele>511.445313</ele>
<time>2012-07-25T15:06:47Z</time>
<speed>0.050000</speed>
<extensions>
<speed>0.1</speed>
<temp>0.00</temp>
<bpm>0</bpm>
<rpm>0.00</rpm>
</extensions>
</trkpt>
<trkpt lat="63.824539185" lon="-18.806808472">
<ele>511.406250</ele>
<time>2012-07-25T15:06:52Z</time>
<speed>0.020000</speed>
<extensions>
<speed>0.0</speed>
<temp>0.00</temp>
<bpm>0</bpm>
<rpm>0.00</rpm>
</extensions>
</trkpt>
<trkpt lat="63.824527740" lon="-18.806827545">
<ele>507.000000</ele>
<time>2012-07-25T15:06:57Z</time>
<speed>0.770000</speed>
<extensions>
<speed>0.8</speed>
<temp>0.00</temp>
<bpm>0</bpm>
<rpm>0.00</rpm>
</extensions>
</trkpt>
<trkpt lat="63.824546814" lon="-18.806833267">
<ele>507.359375</ele>
<time>2012-07-25T15:07:02Z</time>
<speed>0.270000</speed>
<extensions>
<speed>0.3</speed>
<temp>0.00</temp>
<bpm>0</bpm>
<rpm>0.00</rpm>
</extensions>
</trkpt>
<trkpt lat="63.824558258" lon="-18.806850433">
<ele>508.484375</ele>
<time>2012-07-25T15:07:07Z</time>
<speed>0.100000</speed>
<extensions>
<speed>0.1</speed>
<temp>0.00</temp>
<bpm>0</bpm>
<rpm>0.00</rpm>
</extensions>
</trkpt>
<trkpt lat="63.824554443" lon="-18.806842804">
<ele>508.585938</ele>
<time>2012-07-25T15:07:12Z</time>
<speed>0.020000</speed>
<extensions>
<speed>0.0</speed>
<temp>0.00</temp>
<bpm>0</bpm>
<rpm>0.00</rpm>
</extensions>
</trkpt>
<trkpt lat="63.824554443" lon="-18.806831360">
<ele>509.007813</ele>
<time>2012-07-25T15:07:17Z</time>
<speed>0.110000</speed>
<extensions>
<speed>0.1</speed>
<temp>0.00</temp>
<bpm>0</bpm>
<rpm>0.00</rpm>
</extensions>
</trkpt>
<trkpt lat="63.824558258" lon="-18.806844711">
<ele>509.757813</ele>
<time>2012-07-25T15:07:22Z</time>
<speed>0.330000</speed>
<extensions>
<speed>0.3</speed>
<temp>0.00</temp>
<bpm>0</bpm>
<rpm>0.00</rpm>
</extensions>
</trkpt>
<trkpt lat="63.824565887" lon="-18.806823730">
<ele>510.156250</ele>
<time>2012-07-25T15:07:27Z</time>
<speed>1.120000</speed>
<extensions>
<speed>1.1</speed>
<temp>0.00</temp>
<bpm>0</bpm>
<rpm>0.00</rpm>
</extensions>
</trkpt>
<trkpt lat="63.824619293" lon="-18.806819916">
<ele>510.054688</ele>
<time>2012-07-25T15:07:32Z</time>
<speed>0.890000</speed>
<extensions>
<speed>0.9</speed>
<temp>0.00</temp>
<bpm>0</bpm>
<rpm>0.00</rpm>
</extensions>
</trkpt>
<trkpt lat="63.824672699" lon="-18.806798935">
<ele>509.437500</ele>
<time>2012-07-25T15:07:37Z</time>
<speed>1.060000</speed>
<extensions>
<speed>1.1</speed>
<temp>0.00</temp>
<bpm>0</bpm>
<rpm>0.00</rpm>
</extensions>
</trkpt>
<trkpt lat="63.824684143" lon="-18.806797028">
<ele>509.093750</ele>
<time>2012-07-25T15:07:42Z</time>
<speed>0.010000</speed>
<extensions>
<speed>0.0</speed>
<temp>0.00</temp>
<bpm>0</bpm>
<rpm>0.00</rpm>
</extensions>
</trkpt>
<trkpt lat="63.824680328" lon="-18.806795120">
<ele>508.984375</ele>
<time>2012-07-25T15:07:47Z</time>
<extensions>
<speed>0.0</speed>
<temp>0.00</temp>
<bpm>0</bpm>
<rpm>0.00</rpm>
</extensions>
</trkpt>
<trkpt lat="63.824680328" lon="-18.806795120">
<ele>508.976563</ele>
<time>2012-07-25T15:07:52Z</time>
<extensions>
<speed>0.0</speed>
<temp>0.00</temp>
<bpm>0</bpm>
<rpm>0.00</rpm>
</extensions>
</trkpt>
<trkpt lat="63.824680328" lon="-18.806795120">
<ele>508.968750</ele>
<time>2012-07-25T15:07:57Z</time>
<extensions>
<speed>0.0</speed>
<temp>0.00</temp>
<bpm>0</bpm>
<rpm>0.00</rpm>
</extensions>
</trkpt>
<trkpt lat="63.824680328" lon="-18.806795120">
<ele>508.960938</ele>
<time>2012-07-25T15:08:02Z</time>
<extensions>
<speed>0.0</speed>
<temp>0.00</temp>
<bpm>0</bpm>
<rpm>0.00</rpm>
</extensions>
</trkpt>
<trkpt lat="63.824680328" lon="-18.806774139">
<ele>508.828125</ele>
<time>2012-07-25T15:08:07Z</time>
<speed>0.850000</speed>
<extensions>
<speed>0.8</speed>
<temp>0.00</temp>
<bpm>0</bpm>
<rpm>0.00</rpm>
</extensions>
</trkpt>
<trkpt lat="63.824638367" lon="-18.806770325">
<ele>509.257813</ele>
<time>2012-07-25T15:08:12Z</time>
<speed>1.060000</speed>
<extensions>
<speed>1.1</speed>
<temp>0.00</temp>
<bpm>0</bpm>
<rpm>0.00</rpm>
</extensions>
</trkpt>
<trkpt lat="63.824596405" lon="-18.806818008">
<ele>509.804688</ele>
<time>2012-07-25T15:08:17Z</time>
<speed>1.130000</speed>
<extensions>
<speed>1.1</speed>
<temp>0.00</temp>
<bpm>0</bpm>
<rpm>0.00</rpm>
</extensions>
</trkpt>
<trkpt lat="63.824569702" lon="-18.806873322">
<ele>510.468750</ele>
<time>2012-07-25T15:08:22Z</time>
<speed>0.150000</speed>
<extensions>
<speed>0.2</speed>
<temp>0.00</temp>
<bpm>0</bpm>
<rpm>0.00</rpm>
</extensions>
</trkpt>
<trkpt lat="63.824581146" lon="-18.806852341">
<ele>509.726563</ele>
<time>2012-07-25T15:08:27Z</time>
<speed>1.070000</speed>
<extensions>
<speed>1.1</speed>
<temp>0.00</temp>
<bpm>0</bpm>
<rpm>0.00</rpm>
</extensions>
</trkpt>
<trkpt lat="63.824630737" lon="-18.806808472">
<ele>509.257813</ele>
<time>2012-07-25T15:08:32Z</time>
<speed>1.410000</speed>
<extensions>
<speed>1.4</speed>
<temp>0.00</temp>
<bpm>0</bpm>
<rpm>0.00</rpm>
</extensions>
</trkpt>
<trkpt lat="63.824661255" lon="-18.806760788">
<ele>509.320313</ele>
<time>2012-07-25T15:08:37Z</time>
<speed>0.210000</speed>
<extensions>
<speed>0.2</speed>
<temp>0.00</temp>
<bpm>0</bpm>
<rpm>0.00</rpm>
</extensions>
</trkpt>
<trkpt lat="63.824649811" lon="-18.806758881">
<ele>509.585938</ele>
<time>2012-07-25T15:08:42Z</time>
<speed>0.410000</speed>
<extensions>
<speed>0.4</speed>
<temp>0.00</temp>
<bpm>0</bpm>
<rpm>0.00</rpm>
</extensions>
</trkpt>
<trkpt lat="63.824645996" lon="-18.806728363">
<ele>509.921875</ele>
<time>2012-07-25T15:08:47Z</time>
<extensions>
<speed>0.0</speed>
<temp>0.00</temp>
<bpm>0</bpm>
<rpm>0.00</rpm>
</extensions>
</trkpt>
<trkpt lat="63.824649811" lon="-18.806728363">
<ele>509.945313</ele>
<time>2012-07-25T15:08:52Z</time>
<extensions>
<speed>0.0</speed>
<temp>0.00</temp>
<bpm>0</bpm>
<rpm>0.00</rpm>
</extensions>
</trkpt>
<trkpt lat="63.824645996" lon="-18.806728363">
<ele>509.968750</ele>
<time>2012-07-25T15:08:57Z</time>
<extensions>
<speed>0.0</speed>
<temp>0.00</temp>
<bpm>0</bpm>
<rpm>0.00</rpm>
</extensions>
</trkpt>
<trkpt lat="63.824649811" lon="-18.806728363">
<ele>509.984375</ele>
<time>2012-07-25T15:09:02Z</time>
<speed>0.010000</speed>
<extensions>
<speed>0.0</speed>
<temp>0.00</temp>
<bpm>0</bpm>
<rpm>0.00</rpm>
</extensions>
</trkpt>
<trkpt lat="63.824645996" lon="-18.806728363">
<ele>509.992188</ele>
<time>2012-07-25T15:09:07Z</time>
<extensions>
<speed>0.0</speed>
<temp>0.00</temp>
<bpm>0</bpm>
<rpm>0.00</rpm>
</extensions>
</trkpt>
<trkpt lat="63.824645996" lon="-18.806728363">
<ele>510.007813</ele>
<time>2012-07-25T15:09:12Z</time>
<speed>0.010000</speed>
<extensions>
<speed>0.0</speed>
<temp>0.00</temp>
<bpm>0</bpm>
<rpm>0.00</rpm>
</extensions>
</trkpt>
<trkpt lat="63.824649811" lon="-18.806728363">
<ele>510.023438</ele>
<time>2012-07-25T15:09:17Z</time>
<speed>0.050000</speed>
<extensions>
<speed>0.1</speed>
<temp>0.00</temp>
<bpm>0</bpm>
<rpm>0.00</rpm>
</extensions>
</trkpt>
<trkpt lat="63.824645996" lon="-18.806728363">
<ele>510.070313</ele>
<time>2012-07-25T15:09:22Z</time>
<speed>0.630000</speed>
<extensions>
<speed>0.6</speed>
<temp>0.00</temp>
<bpm>0</bpm>
<rpm>0.00</rpm>
</extensions>
</trkpt>
<trkpt lat="63.824592590" lon="-18.806814194">
<ele>510.914063</ele>
<time>2012-07-25T15:09:27Z</time>
<speed>1.340000</speed>
<extensions>
<speed>1.3</speed>
<temp>0.00</temp>
<bpm>0</bpm>
<rpm>0.00</rpm>
</extensions>
</trkpt>
<trkpt lat="63.824565887" lon="-18.806844711">
<ele>511.015625</ele>
<time>2012-07-25T15:09:32Z</time>
<speed>0.020000</speed>
<extensions>
<speed>0.0</speed>
<temp>0.00</temp>
<bpm>0</bpm>
<rpm>0.00</rpm>
</extensions>
</trkpt>
<trkpt lat="63.824565887" lon="-18.806842804">
<ele>511.187500</ele>
<time>2012-07-25T15:09:37Z</time>
<speed>0.020000</speed>
<extensions>
<speed>0.0</speed>
<temp>0.00</temp>
<bpm>0</bpm>
<rpm>0.00</rpm>
</extensions>
</trkpt>
<trkpt lat="63.824569702" lon="-18.806840897">
<ele>511.203125</ele>
<time>2012-07-25T15:09:42Z</time>
<speed>0.050000</speed>
<extensions>
<speed>0.1</speed>
<temp>0.00</temp>
<bpm>0</bpm>
<rpm>0.00</rpm>
</extensions>
</trkpt>
<trkpt lat="63.824565887" lon="-18.806844711">
<ele>511.187500</ele>
<time>2012-07-25T15:09:47Z</time>
<speed>0.020000</speed>
<extensions>
<speed>0.0</speed>
<temp>0.00</temp>
<bpm>0</bpm>
<rpm>0.00</rpm>
</extensions>
</trkpt>
<trkpt lat="63.824565887" lon="-18.806844711">
<ele>511.187500</ele>
<time>2012-07-25T15:09:52Z</time>
<extensions>
<speed>0.0</speed>
<temp>0.00</temp>
<bpm>0</bpm>
<rpm>0.00</rpm>
</extensions>
</trkpt>
<trkpt lat="63.824565887" lon="-18.806844711">
<ele>511.203125</ele>
<time>2012-07-25T15:09:57Z</time>
<speed>0.150000</speed>
<extensions>
<speed>0.2</speed>
<temp>0.00</temp>
<bpm>0</bpm>
<rpm>0.00</rpm>
</extensions>
</trkpt>
<trkpt lat="63.824573517" lon="-18.806867599">
<ele>510.937500</ele>
<time>2012-07-25T15:10:02Z</time>
<speed>1.140000</speed>
<extensions>
<speed>1.1</speed>
<temp>0.00</temp>
<bpm>0</bpm>
<rpm>0.00</rpm>
</extensions>
</trkpt>
<trkpt lat="63.824539185" lon="-18.806989670">
<ele>511.250000</ele>
<time>2012-07-25T15:10:07Z</time>
<speed>1.570000</speed>
<extensions>
<speed>1.6</speed>
<temp>0.00</temp>
<bpm>0</bpm>
<rpm>0.00</rpm>
</extensions>
</trkpt>
<trkpt lat="63.824504852" lon="-18.807136536">
<ele>511.710938</ele>
<time>2012-07-25T15:10:12Z</time>
<speed>1.290000</speed>
<extensions>
<speed>1.3</speed>
<temp>0.00</temp>
<bpm>0</bpm>
<rpm>0.00</rpm>
</extensions>
</trkpt>
<trkpt lat="63.824489594" lon="-18.807172775">
<ele>511.015625</ele>
<time>2012-07-25T15:10:17Z</time>
<speed>0.860000</speed>
<extensions>
<speed>0.9</speed>
<temp>0.00</temp>
<bpm>0</bpm>
<rpm>0.00</rpm>
</extensions>
</trkpt>
<trkpt lat="63.824516296" lon="-18.807037354">
<ele>511.257813</ele>
<time>2012-07-25T15:10:22Z</time>
<speed>1.620000</speed>
<extensions>
<speed>1.6</speed>
<temp>0.00</temp>
<bpm>0</bpm>
<rpm>0.00</rpm>
</extensions>
</trkpt>
<trkpt lat="63.824558258" lon="-18.806888580">
<ele>511.671875</ele>
<time>2012-07-25T15:10:27Z</time>
<speed>1.460000</speed>
<extensions>
<speed>1.5</speed>
<temp>0.00</temp>
<bpm>0</bpm>
<rpm>0.00</rpm>
</extensions>
</trkpt>
<trkpt lat="63.824581146" lon="-18.806837082">
<ele>511.992188</ele>
<time>2012-07-25T15:10:32Z</time>
<speed>0.130000</speed>
<extensions>
<speed>0.1</speed>
<temp>0.00</temp>
<bpm>0</bpm>
<rpm>0.00</rpm>
</extensions>
</trkpt>
<trkpt lat="63.824573517" lon="-18.806879044">
<ele>511.539063</ele>
<time>2012-07-25T15:10:37Z</time>
<speed>0.980000</speed>
<extensions>
<speed>1.0</speed>
<temp>0.00</temp>
<bpm>0</bpm>
<rpm>0.00</rpm>
</extensions>
</trkpt>
<trkpt lat="63.824539185" lon="-18.807001114">
<ele>511.695313</ele>
<time>2012-07-25T15:10:42Z</time>
<speed>1.410000</speed>
<extensions>
<speed>1.4</speed>
<temp>0.00</temp>
<bpm>0</bpm>
<rpm>0.00</rpm>
</extensions>
</trkpt>
<trkpt lat="63.824520111" lon="-18.807062149">
<ele>511.968750</ele>
<time>2012-07-25T15:10:47Z</time>
<speed>0.370000</speed>
<extensions>
<speed>0.4</speed>
<temp>0.00</temp>
<bpm>0</bpm>
<rpm>0.00</rpm>
</extensions>
</trkpt>
<trkpt lat="63.824520111" lon="-18.807046890">
<ele>511.000000</ele>
<time>2012-07-25T15:10:52Z</time>
<speed>0.020000</speed>
<extensions>
<speed>0.0</speed>
<temp>0.00</temp>
<bpm>0</bpm>
<rpm>0.00</rpm>
</extensions>
</trkpt>
<trkpt lat="63.824520111" lon="-18.807046890">
<ele>510.984375</ele>
<time>2012-07-25T15:10:57Z</time>
<extensions>
<speed>0.0</speed>
<temp>0.00</temp>
<bpm>0</bpm>
<rpm>0.00</rpm>
</extensions>
</trkpt>
<trkpt lat="63.824516296" lon="-18.807044983">
<ele>510.914063</ele>
<time>2012-07-25T15:11:02Z</time>
<speed>0.030000</speed>
<extensions>
<speed>0.0</speed>
<temp>0.00</temp>
<bpm>0</bpm>
<rpm>0.00</rpm>
</extensions>
</trkpt>
<trkpt lat="63.824516296" lon="-18.807044983">
<ele>510.914063</ele>
<time>2012-07-25T15:11:07Z</time>
<speed>0.010000</speed>
<extensions>
<speed>0.0</speed>
<temp>0.00</temp>
<bpm>0</bpm>
<rpm>0.00</rpm>
</extensions>
</trkpt>
<trkpt lat="63.824516296" lon="-18.807044983">
<ele>510.898438</ele>
<time>2012-07-25T15:11:12Z</time>
<speed>0.860000</speed>
<extensions>
<speed>0.9</speed>
<temp>0.00</temp>
<bpm>0</bpm>
<rpm>0.00</rpm>
</extensions>
</trkpt>
<trkpt lat="63.824497223" lon="-18.807165146">
<ele>511.703125</ele>
<time>2012-07-25T15:11:17Z</time>
<speed>0.280000</speed>
<extensions>
<speed>0.3</speed>
<temp>0.00</temp>
<bpm>0</bpm>
<rpm>0.00</rpm>
</extensions>
</trkpt>
<trkpt lat="63.824504852" lon="-18.807188034">
<ele>512.718750</ele>
<time>2012-07-25T15:11:22Z</time>
<speed>0.580000</speed>
<extensions>
<speed>0.6</speed>
<temp>0.00</temp>
<bpm>0</bpm>
<rpm>0.00</rpm>
</extensions>
</trkpt>
<trkpt lat="63.824508667" lon="-18.807174683">
<ele>512.015625</ele>
<time>2012-07-25T15:11:27Z</time>
<extensions>
<speed>0.0</speed>
<temp>0.00</temp>
<bpm>0</bpm>
<rpm>0.00</rpm>
</extensions>
</trkpt>
<trkpt lat="63.824508667" lon="-18.807172775">
<ele>511.921875</ele>
<time>2012-07-25T15:11:32Z</time>
<speed>0.010000</speed>
<extensions>
<speed>0.0</speed>
<temp>0.00</temp>
<bpm>0</bpm>
<rpm>0.00</rpm>
</extensions>
</trkpt>
<trkpt lat="63.824508667" lon="-18.807168961">
<ele>511.687500</ele>
<time>2012-07-25T15:11:37Z</time>
<speed>0.050000</speed>
<extensions>
<speed>0.1</speed>
<temp>0.00</temp>
<bpm>0</bpm>
<rpm>0.00</rpm>
</extensions>
</trkpt>
<trkpt lat="63.824508667" lon="-18.807168961">
<ele>511.687500</ele>
<time>2012-07-25T15:11:42Z</time>
<extensions>
<speed>0.0</speed>
<temp>0.00</temp>
<bpm>0</bpm>
<rpm>0.00</rpm>
</extensions>
</trkpt>
<trkpt lat="63.824508667" lon="-18.807168961">
<ele>511.695313</ele>
<time>2012-07-25T15:11:47Z</time>
<extensions>
<speed>0.0</speed>
<temp>0.00</temp>
<bpm>0</bpm>
<rpm>0.00</rpm>
</extensions>
</trkpt>
<trkpt lat="63.824508667" lon="-18.807168961">
<ele>511.703125</ele>
<time>2012-07-25T15:11:52Z</time>
<extensions>
<speed>0.0</speed>
<temp>0.00</temp>
<bpm>0</bpm>
<rpm>0.00</rpm>
</extensions>
</trkpt>
<trkpt lat="63.824508667" lon="-18.807167053">
<ele>511.710938</ele>
<time>2012-07-25T15:11:57Z</time>
<extensions>
<speed>0.0</speed>
<temp>0.00</temp>
<bpm>0</bpm>
<rpm>0.00</rpm>
</extensions>
</trkpt>
<trkpt lat="63.824508667" lon="-18.807167053">
<ele>511.726563</ele>
<time>2012-07-25T15:12:02Z</time>
<extensions>
<speed>0.0</speed>
<temp>0.00</temp>
<bpm>0</bpm>
<rpm>0.00</rpm>
</extensions>
</trkpt>
<trkpt lat="63.824508667" lon="-18.807167053">
<ele>511.734375</ele>
<time>2012-07-25T15:12:07Z</time>
<extensions>
<speed>0.0</speed>
<temp>0.00</temp>
<bpm>0</bpm>
<rpm>0.00</rpm>
</extensions>
</trkpt>
<trkpt lat="63.824508667" lon="-18.807167053">
<ele>511.750000</ele>
<time>2012-07-25T15:12:12Z</time>
<extensions>
<speed>0.0</speed>
<temp>0.00</temp>
<bpm>0</bpm>
<rpm>0.00</rpm>
</extensions>
</trkpt>
<trkpt lat="63.824504852" lon="-18.807167053">
<ele>511.757813</ele>
<time>2012-07-25T15:12:17Z</time>
<extensions>
<speed>0.0</speed>
<temp>0.00</temp>
<bpm>0</bpm>
<rpm>0.00</rpm>
</extensions>
</trkpt>
<trkpt lat="63.824504852" lon="-18.807167053">
<ele>511.773438</ele>
<time>2012-07-25T15:12:22Z</time>
<extensions>
<speed>0.0</speed>
<temp>0.00</temp>
<bpm>0</bpm>
<rpm>0.00</rpm>
</extensions>
</trkpt>
<trkpt lat="63.824504852" lon="-18.807165146">
<ele>511.781250</ele>
<time>2012-07-25T15:12:27Z</time>
<extensions>
<speed>0.0</speed>
<temp>0.00</temp>
<bpm>0</bpm>
<rpm>0.00</rpm>
</extensions>
</trkpt>
<trkpt lat="63.824504852" lon="-18.807165146">
<ele>511.796875</ele>
<time>2012-07-25T15:12:32Z</time>
<extensions>
<speed>0.0</speed>
<temp>0.00</temp>
<bpm>0</bpm>
<rpm>0.00</rpm>
</extensions>
</trkpt>
<trkpt lat="63.824504852" lon="-18.807165146">
<ele>511.789063</ele>
<time>2012-07-25T15:12:37Z</time>
<speed>0.020000</speed>
<extensions>
<speed>0.0</speed>
<temp>0.00</temp>
<bpm>0</bpm>
<rpm>0.00</rpm>
</extensions>
</trkpt>
<trkpt lat="63.824504852" lon="-18.807165146">
<ele>511.781250</ele>
<time>2012-07-25T15:12:42Z</time>
<speed>0.010000</speed>
<extensions>
<speed>0.0</speed>
<temp>0.00</temp>
<bpm>0</bpm>
<rpm>0.00</rpm>
</extensions>
</trkpt>
<trkpt lat="63.824504852" lon="-18.807165146">
<ele>511.781250</ele>
<time>2012-07-25T15:12:47Z</time>
<speed>0.020000</speed>
<extensions>
<speed>0.0</speed>
<temp>0.00</temp>
<bpm>0</bpm>
<rpm>0.00</rpm>
</extensions>
</trkpt>
<trkpt lat="63.824504852" lon="-18.807165146">
<ele>511.773438</ele>
<time>2012-07-25T15:12:52Z</time>
<speed>0.010000</speed>
<extensions>
<speed>0.0</speed>
<temp>0.00</temp>
<bpm>0</bpm>
<rpm>0.00</rpm>
</extensions>
</trkpt>
<trkpt lat="63.824504852" lon="-18.807165146">
<ele>511.765625</ele>
<time>2012-07-25T15:12:57Z</time>
<extensions>
<speed>0.0</speed>
<temp>0.00</temp>
<bpm>0</bpm>
<rpm>0.00</rpm>
</extensions>
</trkpt>
<trkpt lat="63.824504852" lon="-18.807165146">
<ele>511.765625</ele>
<time>2012-07-25T15:13:02Z</time>
<extensions>
<speed>0.0</speed>
<temp>0.00</temp>
<bpm>0</bpm>
<rpm>0.00</rpm>
</extensions>
</trkpt>
<trkpt lat="63.824504852" lon="-18.807165146">
<ele>511.757813</ele>
<time>2012-07-25T15:13:07Z</time>
<extensions>
<speed>0.0</speed>
<temp>0.00</temp>
<bpm>0</bpm>
<rpm>0.00</rpm>
</extensions>
</trkpt>
<trkpt lat="63.824504852" lon="-18.807165146">
<ele>511.742188</ele>
<time>2012-07-25T15:13:12Z</time>
<extensions>
<speed>0.0</speed>
<temp>0.00</temp>
<bpm>0</bpm>
<rpm>0.00</rpm>
</extensions>
</trkpt>
<trkpt lat="63.824504852" lon="-18.807165146">
<ele>511.718750</ele>
<time>2012-07-25T15:13:17Z</time>
<extensions>
<speed>0.0</speed>
<temp>0.00</temp>
<bpm>0</bpm>
<rpm>0.00</rpm>
</extensions>
</trkpt>
<trkpt lat="63.824504852" lon="-18.807165146">
<ele>511.703125</ele>
<time>2012-07-25T15:13:22Z</time>
<extensions>
<speed>0.0</speed>
<temp>0.00</temp>
<bpm>0</bpm>
<rpm>0.00</rpm>
</extensions>
</trkpt>
<trkpt lat="63.824504852" lon="-18.807165146">
<ele>511.687500</ele>
<time>2012-07-25T15:13:27Z</time>
<extensions>
<speed>0.0</speed>
<temp>0.00</temp>
<bpm>0</bpm>
<rpm>0.00</rpm>
</extensions>
</trkpt>
<trkpt lat="63.824504852" lon="-18.807165146">
<ele>511.671875</ele>
<time>2012-07-25T15:13:32Z</time>
<extensions>
<speed>0.0</speed>
<temp>0.00</temp>
<bpm>0</bpm>
<rpm>0.00</rpm>
</extensions>
</trkpt>
<trkpt lat="63.824504852" lon="-18.807163239">
<ele>511.375000</ele>
<time>2012-07-25T15:13:37Z</time>
<speed>0.010000</speed>
<extensions>
<speed>0.0</speed>
<temp>0.00</temp>
<bpm>0</bpm>
<rpm>0.00</rpm>
</extensions>
</trkpt>
<trkpt lat="63.824504852" lon="-18.807163239">
<ele>511.304688</ele>
<time>2012-07-25T15:13:42Z</time>
<extensions>
<speed>0.0</speed>
<temp>0.00</temp>
<bpm>0</bpm>
<rpm>0.00</rpm>
</extensions>
</trkpt>
<trkpt lat="63.824504852" lon="-18.807163239">
<ele>511.304688</ele>
<time>2012-07-25T15:13:47Z</time>
<speed>0.010000</speed>
<extensions>
<speed>0.0</speed>
<temp>0.00</temp>
<bpm>0</bpm>
<rpm>0.00</rpm>
</extensions>
</trkpt>
<trkpt lat="63.824504852" lon="-18.807163239">
<ele>511.312500</ele>
<time>2012-07-25T15:13:52Z</time>
<extensions>
<speed>0.0</speed>
<temp>0.00</temp>
<bpm>0</bpm>
<rpm>0.00</rpm>
</extensions>
</trkpt>
<trkpt lat="63.824501038" lon="-18.807163239">
<ele>511.312500</ele>
<time>2012-07-25T15:13:57Z</time>
<extensions>
<speed>0.0</speed>
<temp>0.00</temp>
<bpm>0</bpm>
<rpm>0.00</rpm>
</extensions>
</trkpt>
<trkpt lat="63.824501038" lon="-18.807163239">
<ele>511.312500</ele>
<time>2012-07-25T15:14:02Z</time>
<extensions>
<speed>0.0</speed>
<temp>0.00</temp>
<bpm>0</bpm>
<rpm>0.00</rpm>
</extensions>
</trkpt>
<trkpt lat="63.824501038" lon="-18.807163239">
<ele>511.312500</ele>
<time>2012-07-25T15:14:07Z</time>
<extensions>
<speed>0.0</speed>
<temp>0.00</temp>
<bpm>0</bpm>
<rpm>0.00</rpm>
</extensions>
</trkpt>
<trkpt lat="63.824501038" lon="-18.807163239">
<ele>511.312500</ele>
<time>2012-07-25T15:14:12Z</time>
<extensions>
<speed>0.0</speed>
<temp>0.00</temp>
<bpm>0</bpm>
<rpm>0.00</rpm>
</extensions>
</trkpt>
<trkpt lat="63.824501038" lon="-18.807163239">
<ele>511.312500</ele>
<time>2012-07-25T15:14:17Z</time>
<extensions>
<speed>0.0</speed>
<temp>0.00</temp>
<bpm>0</bpm>
<rpm>0.00</rpm>
</extensions>
</trkpt>
<trkpt lat="63.824501038" lon="-18.807163239">
<ele>511.304688</ele>
<time>2012-07-25T15:14:22Z</time>
<extensions>
<speed>0.0</speed>
<temp>0.00</temp>
<bpm>0</bpm>
<rpm>0.00</rpm>
</extensions>
</trkpt>
<trkpt lat="63.824501038" lon="-18.807163239">
<ele>511.304688</ele>
<time>2012-07-25T15:14:27Z</time>
<extensions>
<speed>0.0</speed>
<temp>0.00</temp>
<bpm>0</bpm>
<rpm>0.00</rpm>
</extensions>
</trkpt>
<trkpt lat="63.824501038" lon="-18.807163239">
<ele>511.304688</ele>
<time>2012-07-25T15:14:32Z</time>
<extensions>
<speed>0.0</speed>
<temp>0.00</temp>
<bpm>0</bpm>
<rpm>0.00</rpm>
</extensions>
</trkpt>
<trkpt lat="63.824501038" lon="-18.807163239">
<ele>511.296875</ele>
<time>2012-07-25T15:14:37Z</time>
<speed>0.010000</speed>
<extensions>
<speed>0.0</speed>
<temp>0.00</temp>
<bpm>0</bpm>
<rpm>0.00</rpm>
</extensions>
</trkpt>
<trkpt lat="63.824501038" lon="-18.807163239">
<ele>511.296875</ele>
<time>2012-07-25T15:14:42Z</time>
<speed>0.150000</speed>
<extensions>
<speed>0.2</speed>
<temp>0.00</temp>
<bpm>0</bpm>
<rpm>0.00</rpm>
</extensions>
</trkpt>
<trkpt lat="63.824501038" lon="-18.807163239">
<ele>511.289063</ele>
<time>2012-07-25T15:14:47Z</time>
<speed>0.070000</speed>
<extensions>
<speed>0.1</speed>
<temp>0.00</temp>
<bpm>0</bpm>
<rpm>0.00</rpm>
</extensions>
</trkpt>
<trkpt lat="63.824508667" lon="-18.807184219">
<ele>511.218750</ele>
<time>2012-07-25T15:14:52Z</time>
<speed>0.350000</speed>
<extensions>
<speed>0.3</speed>
<temp>0.00</temp>
<bpm>0</bpm>
<rpm>0.00</rpm>
</extensions>
</trkpt>
<trkpt lat="63.824504852" lon="-18.807193756">
<ele>510.820313</ele>
<time>2012-07-25T15:14:57Z</time>
<extensions>
<speed>0.0</speed>
<temp>0.00</temp>
<bpm>0</bpm>
<rpm>0.00</rpm>
</extensions>
</trkpt>
<trkpt lat="63.824504852" lon="-18.807193756">
<ele>510.796875</ele>
<time>2012-07-25T15:15:02Z</time>
<extensions>
<speed>0.0</speed>
<temp>0.00</temp>
<bpm>0</bpm>
<rpm>0.00</rpm>
</extensions>
</trkpt>
<trkpt lat="63.824504852" lon="-18.807193756">
<ele>510.789063</ele>
<time>2012-07-25T15:15:07Z</time>
<extensions>
<speed>0.0</speed>
<temp>0.00</temp>
<bpm>0</bpm>
<rpm>0.00</rpm>
</extensions>
</trkpt>
<trkpt lat="63.824504852" lon="-18.807193756">
<ele>510.781250</ele>
<time>2012-07-25T15:15:12Z</time>
<speed>0.010000</speed>
<extensions>
<speed>0.0</speed>
<temp>0.00</temp>
<bpm>0</bpm>
<rpm>0.00</rpm>
</extensions>
</trkpt>
<trkpt lat="63.824504852" lon="-18.807195663">
<ele>510.781250</ele>
<time>2012-07-25T15:15:17Z</time>
<extensions>
<speed>0.0</speed>
<temp>0.00</temp>
<bpm>0</bpm>
<rpm>0.00</rpm>
</extensions>
</trkpt>
<trkpt lat="63.824504852" lon="-18.807195663">
<ele>510.773438</ele>
<time>2012-07-25T15:15:22Z</time>
<speed>0.430000</speed>
<extensions>
<speed>0.4</speed>
<temp>0.00</temp>
<bpm>0</bpm>
<rpm>0.00</rpm>
</extensions>
</trkpt>
<trkpt lat="63.824497223" lon="-18.807178497">
<ele>510.359375</ele>
<time>2012-07-25T15:15:27Z</time>
<speed>0.560000</speed>
<extensions>
<speed>0.6</speed>
<temp>0.00</temp>
<bpm>0</bpm>
<rpm>0.00</rpm>
</extensions>
</trkpt>
<trkpt lat="63.824497223" lon="-18.807170868">
<ele>508.656250</ele>
<time>2012-07-25T15:15:32Z</time>
<speed>0.060000</speed>
<extensions>
<speed>0.1</speed>
<temp>0.00</temp>
<bpm>0</bpm>
<rpm>0.00</rpm>
</extensions>
</trkpt>
<trkpt lat="63.824493408" lon="-18.807165146">
<ele>508.914063</ele>
<time>2012-07-25T15:15:37Z</time>
<speed>0.080000</speed>
<extensions>
<speed>0.1</speed>
<temp>0.00</temp>
<bpm>0</bpm>
<rpm>0.00</rpm>
</extensions>
</trkpt>
<trkpt lat="63.824493408" lon="-18.807165146">
<ele>509.414063</ele>
<time>2012-07-25T15:15:42Z</time>
<speed>0.070000</speed>
<extensions>
<speed>0.1</speed>
<temp>0.00</temp>
<bpm>0</bpm>
<rpm>0.00</rpm>
</extensions>
</trkpt>
<trkpt lat="63.824493408" lon="-18.807159424">
<ele>509.632813</ele>
<time>2012-07-25T15:15:47Z</time>
<speed>0.010000</speed>
<extensions>
<speed>0.0</speed>
<temp>0.00</temp>
<bpm>0</bpm>
<rpm>0.00</rpm>
</extensions>
</trkpt>
<trkpt lat="63.824489594" lon="-18.807157516">
<ele>509.742188</ele>
<time>2012-07-25T15:15:52Z</time>
<speed>0.070000</speed>
<extensions>
<speed>0.1</speed>
<temp>0.00</temp>
<bpm>0</bpm>
<rpm>0.00</rpm>
</extensions>
</trkpt>
<trkpt lat="63.824493408" lon="-18.807157516">
<ele>509.726563</ele>
<time>2012-07-25T15:15:57Z</time>
<speed>0.010000</speed>
<extensions>
<speed>0.0</speed>
<temp>0.00</temp>
<bpm>0</bpm>
<rpm>0.00</rpm>
</extensions>
</trkpt>
<trkpt lat="63.824493408" lon="-18.807157516">
<ele>509.734375</ele>
<time>2012-07-25T15:16:02Z</time>
<extensions>
<speed>0.0</speed>
<temp>0.00</temp>
<bpm>0</bpm>
<rpm>0.00</rpm>
</extensions>
</trkpt>
<trkpt lat="63.824493408" lon="-18.807157516">
<ele>509.757813</ele>
<time>2012-07-25T15:16:07Z</time>
<speed>0.060000</speed>
<extensions>
<speed>0.1</speed>
<temp>0.00</temp>
<bpm>0</bpm>
<rpm>0.00</rpm>
</extensions>
</trkpt>
<trkpt lat="63.824508667" lon="-18.807170868">
<ele>510.515625</ele>
<time>2012-07-25T15:16:12Z</time>
<speed>0.340000</speed>
<extensions>
<speed>0.3</speed>
<temp>0.00</temp>
<bpm>0</bpm>
<rpm>0.00</rpm>
</extensions>
</trkpt>
<trkpt lat="63.824508667" lon="-18.807147980">
<ele>510.578125</ele>
<time>2012-07-25T15:16:17Z</time>
<extensions>
<speed>0.0</speed>
<temp>0.00</temp>
<bpm>0</bpm>
<rpm>0.00</rpm>
</extensions>
</trkpt>
<trkpt lat="63.824512482" lon="-18.807144165">
<ele>510.718750</ele>
<time>2012-07-25T15:16:22Z</time>
<speed>0.070000</speed>
<extensions>
<speed>0.1</speed>
<temp>0.00</temp>
<bpm>0</bpm>
<rpm>0.00</rpm>
</extensions>
</trkpt>
<trkpt lat="63.824512482" lon="-18.807142258">
<ele>510.921875</ele>
<time>2012-07-25T15:16:27Z</time>
<speed>0.020000</speed>
<extensions>
<speed>0.0</speed>
<temp>0.00</temp>
<bpm>0</bpm>
<rpm>0.00</rpm>
</extensions>
</trkpt>
<trkpt lat="63.824512482" lon="-18.807142258">
<ele>510.882813</ele>
<time>2012-07-25T15:16:32Z</time>
<speed>0.010000</speed>
<extensions>
<speed>0.0</speed>
<temp>0.00</temp>
<bpm>0</bpm>
<rpm>0.00</rpm>
</extensions>
</trkpt>
<trkpt lat="63.824512482" lon="-18.807142258">
<ele>510.867188</ele>
<time>2012-07-25T15:16:37Z</time>
<extensions>
<speed>0.0</speed>
<temp>0.00</temp>
<bpm>0</bpm>
<rpm>0.00</rpm>
</extensions>
</trkpt>
<trkpt lat="63.824512482" lon="-18.807142258">
<ele>510.843750</ele>
<time>2012-07-25T15:16:42Z</time>
<speed>0.010000</speed>
<extensions>
<speed>0.0</speed>
<temp>0.00</temp>
<bpm>0</bpm>
<rpm>0.00</rpm>
</extensions>
</trkpt>
<trkpt lat="63.824512482" lon="-18.807142258">
<ele>510.812500</ele>
<time>2012-07-25T15:16:47Z</time>
<extensions>
<speed>0.0</speed>
<temp>0.00</temp>
<bpm>0</bpm>
<rpm>0.00</rpm>
</extensions>
</trkpt>
<trkpt lat="63.824512482" lon="-18.807144165">
<ele>510.820313</ele>
<time>2012-07-25T15:16:52Z</time>
<extensions>
<speed>0.0</speed>
<temp>0.00</temp>
<bpm>0</bpm>
<rpm>0.00</rpm>
</extensions>
</trkpt>
<trkpt lat="63.824512482" lon="-18.807144165">
<ele>510.804688</ele>
<time>2012-07-25T15:16:57Z</time>
<speed>0.040000</speed>
<extensions>
<speed>0.0</speed>
<temp>0.00</temp>
<bpm>0</bpm>
<rpm>0.00</rpm>
</extensions>
</trkpt>
<trkpt lat="63.824512482" lon="-18.807142258">
<ele>510.750000</ele>
<time>2012-07-25T15:17:02Z</time>
<speed>0.210000</speed>
<extensions>
<speed>0.2</speed>
<temp>0.00</temp>
<bpm>0</bpm>
<rpm>0.00</rpm>
</extensions>
</trkpt>
<trkpt lat="63.824512482" lon="-18.807140350">
<ele>510.664063</ele>
<time>2012-07-25T15:17:07Z</time>
<speed>0.010000</speed>
<extensions>
<speed>0.0</speed>
<temp>0.00</temp>
<bpm>0</bpm>
<rpm>0.00</rpm>
</extensions>
</trkpt>
<trkpt lat="63.824512482" lon="-18.807140350">
<ele>510.609375</ele>
<time>2012-07-25T15:17:12Z</time>
<speed>0.010000</speed>
<extensions>
<speed>0.0</speed>
<temp>0.00</temp>
<bpm>0</bpm>
<rpm>0.00</rpm>
</extensions>
</trkpt>
<trkpt lat="63.824512482" lon="-18.807140350">
<ele>510.578125</ele>
<time>2012-07-25T15:17:17Z</time>
<speed>0.020000</speed>
<extensions>
<speed>0.0</speed>
<temp>0.00</temp>
<bpm>0</bpm>
<rpm>0.00</rpm>
</extensions>
</trkpt>
<trkpt lat="63.824512482" lon="-18.807140350">
<ele>510.539063</ele>
<time>2012-07-25T15:17:22Z</time>
<speed>0.010000</speed>
<extensions>
<speed>0.0</speed>
<temp>0.00</temp>
<bpm>0</bpm>
<rpm>0.00</rpm>
</extensions>
</trkpt>
<trkpt lat="63.824512482" lon="-18.807140350">
<ele>510.515625</ele>
<time>2012-07-25T15:17:27Z</time>
<speed>0.030000</speed>
<extensions>
<speed>0.0</speed>
<temp>0.00</temp>
<bpm>0</bpm>
<rpm>0.00</rpm>
</extensions>
</trkpt>
<trkpt lat="63.824512482" lon="-18.807140350">
<ele>510.546875</ele>
<time>2012-07-25T15:17:32Z</time>
<speed>0.240000</speed>
<extensions>
<speed>0.2</speed>
<temp>0.00</temp>
<bpm>0</bpm>
<rpm>0.00</rpm>
</extensions>
</trkpt>
<trkpt lat="63.824489594" lon="-18.807134628">
<ele>509.695313</ele>
<time>2012-07-25T15:17:37Z</time>
<speed>1.220000</speed>
<extensions>
<speed>1.2</speed>
<temp>0.00</temp>
<bpm>0</bpm>
<rpm>0.00</rpm>
</extensions>
</trkpt>
<trkpt lat="63.824478149" lon="-18.807090759">
<ele>510.289063</ele>
<time>2012-07-25T15:17:42Z</time>
<speed>0.140000</speed>
<extensions>
<speed>0.1</speed>
<temp>0.00</temp>
<bpm>0</bpm>
<rpm>0.00</rpm>
</extensions>
</trkpt>
<trkpt lat="63.824512482" lon="-18.807144165">
<ele>509.835938</ele>
<time>2012-07-25T15:17:47Z</time>
<speed>0.710000</speed>
<extensions>
<speed>0.7</speed>
<temp>0.00</temp>
<bpm>0</bpm>
<rpm>0.00</rpm>
</extensions>
</trkpt>
<trkpt lat="63.824520111" lon="-18.807193756">
<ele>507.859375</ele>
<time>2012-07-25T15:17:52Z</time>
<speed>0.310000</speed>
<extensions>
<speed>0.3</speed>
<temp>0.00</temp>
<bpm>0</bpm>
<rpm>0.00</rpm>
</extensions>
</trkpt>
<trkpt lat="63.824516296" lon="-18.807184219">
<ele>506.671875</ele>
<time>2012-07-25T15:17:57Z</time>
<speed>0.130000</speed>
<extensions>
<speed>0.1</speed>
<temp>0.00</temp>
<bpm>0</bpm>
<rpm>0.00</rpm>
</extensions>
</trkpt>
<trkpt lat="63.824504852" lon="-18.807172775">
<ele>506.867188</ele>
<time>2012-07-25T15:18:02Z</time>
<extensions>
<speed>0.0</speed>
<temp>0.00</temp>
<bpm>0</bpm>
<rpm>0.00</rpm>
</extensions>
</trkpt>
<trkpt lat="63.824504852" lon="-18.807176590">
<ele>506.820313</ele>
<time>2012-07-25T15:18:07Z</time>
<speed>0.440000</speed>
<extensions>
<speed>0.4</speed>
<temp>0.00</temp>
<bpm>0</bpm>
<rpm>0.00</rpm>
</extensions>
</trkpt>
<trkpt lat="63.824459076" lon="-18.807136536">
<ele>506.328125</ele>
<time>2012-07-25T15:18:12Z</time>
<speed>1.100000</speed>
<extensions>
<speed>1.1</speed>
<temp>0.00</temp>
<bpm>0</bpm>
<rpm>0.00</rpm>
</extensions>
</trkpt>
<trkpt lat="63.824443817" lon="-18.807121277">
<ele>504.421875</ele>
<time>2012-07-25T15:18:17Z</time>
<speed>0.420000</speed>
<extensions>
<speed>0.4</speed>
<temp>0.00</temp>
<bpm>0</bpm>
<rpm>0.00</rpm>
</extensions>
</trkpt>
<trkpt lat="63.824443817" lon="-18.807159424">
<ele>504.531250</ele>
<time>2012-07-25T15:18:22Z</time>
<speed>0.020000</speed>
<extensions>
<speed>0.0</speed>
<temp>0.00</temp>
<bpm>0</bpm>
<rpm>0.00</rpm>
</extensions>
</trkpt>
<trkpt lat="63.824443817" lon="-18.807147980">
<ele>504.375000</ele>
<time>2012-07-25T15:18:27Z</time>
<speed>0.230000</speed>
<extensions>
<speed>0.2</speed>
<temp>0.00</temp>
<bpm>0</bpm>
<rpm>0.00</rpm>
</extensions>
</trkpt>
<trkpt lat="63.824443817" lon="-18.807136536">
<ele>504.828125</ele>
<time>2012-07-25T15:18:32Z</time>
<speed>0.110000</speed>
<extensions>
<speed>0.1</speed>
<temp>0.00</temp>
<bpm>0</bpm>
<rpm>0.00</rpm>
</extensions>
</trkpt>
<trkpt lat="63.824440002" lon="-18.807130814">
<ele>505.437500</ele>
<time>2012-07-25T15:18:37Z</time>
<speed>0.100000</speed>
<extensions>
<speed>0.1</speed>
<temp>0.00</temp>
<bpm>0</bpm>
<rpm>0.00</rpm>
</extensions>
</trkpt>
<trkpt lat="63.824443817" lon="-18.807125092">
<ele>505.460938</ele>
<time>2012-07-25T15:18:42Z</time>
<speed>0.230000</speed>
<extensions>
<speed>0.2</speed>
<temp>0.00</temp>
<bpm>0</bpm>
<rpm>0.00</rpm>
</extensions>
</trkpt>
<trkpt lat="63.824466705" lon="-18.807130814">
<ele>506.984375</ele>
<time>2012-07-25T15:18:47Z</time>
<speed>1.180000</speed>
<extensions>
<speed>1.2</speed>
<temp>0.00</temp>
<bpm>0</bpm>
<rpm>0.00</rpm>
</extensions>
</trkpt>
<trkpt lat="63.824489594" lon="-18.807197571">
<ele>507.820313</ele>
<time>2012-07-25T15:18:52Z</time>
<speed>0.120000</speed>
<extensions>
<speed>0.1</speed>
<temp>0.00</temp>
<bpm>0</bpm>
<rpm>0.00</rpm>
</extensions>
</trkpt>
<trkpt lat="63.824493408" lon="-18.807222366">
<ele>507.078125</ele>
<time>2012-07-25T15:18:57Z</time>
<speed>0.330000</speed>
<extensions>
<speed>0.3</speed>
<temp>0.00</temp>
<bpm>0</bpm>
<rpm>0.00</rpm>
</extensions>
</trkpt>
<trkpt lat="63.824470520" lon="-18.807161331">
<ele>507.398438</ele>
<time>2012-07-25T15:19:02Z</time>
<speed>1.370000</speed>
<extensions>
<speed>1.4</speed>
<temp>0.00</temp>
<bpm>0</bpm>
<rpm>0.00</rpm>
</extensions>
</trkpt>
<trkpt lat="63.824447632" lon="-18.807128906">
<ele>507.875000</ele>
<time>2012-07-25T15:19:07Z</time>
<speed>0.110000</speed>
<extensions>
<speed>0.1</speed>
<temp>0.00</temp>
<bpm>0</bpm>
<rpm>0.00</rpm>
</extensions>
</trkpt>
<trkpt lat="63.824447632" lon="-18.807123184">
<ele>507.601563</ele>
<time>2012-07-25T15:19:12Z</time>
<speed>0.020000</speed>
<extensions>
<speed>0.0</speed>
<temp>0.00</temp>
<bpm>0</bpm>
<rpm>0.00</rpm>
</extensions>
</trkpt>
<trkpt lat="63.824447632" lon="-18.807121277">
<ele>509.093750</ele>
<time>2012-07-25T15:19:17Z</time>
<speed>0.080000</speed>
<extensions>
<speed>0.1</speed>
<temp>0.00</temp>
<bpm>0</bpm>
<rpm>0.00</rpm>
</extensions>
</trkpt>
<trkpt lat="63.824485779" lon="-18.807153702">
<ele>509.335938</ele>
<time>2012-07-25T15:19:22Z</time>
<speed>0.880000</speed>
<extensions>
<speed>0.9</speed>
<temp>0.00</temp>
<bpm>0</bpm>
<rpm>0.00</rpm>
</extensions>
</trkpt>
<trkpt lat="63.824493408" lon="-18.807147980">
<ele>509.718750</ele>
<time>2012-07-25T15:19:27Z</time>
<speed>1.340000</speed>
<extensions>
<speed>1.3</speed>
<temp>0.00</temp>
<bpm>0</bpm>
<rpm>0.00</rpm>
</extensions>
</trkpt>
<trkpt lat="63.824459076" lon="-18.807090759">
<ele>509.523438</ele>
<time>2012-07-25T15:19:32Z</time>
<speed>0.110000</speed>
<extensions>
<speed>0.1</speed>
<temp>0.00</temp>
<bpm>0</bpm>
<rpm>0.00</rpm>
</extensions>
</trkpt>
<trkpt lat="63.824455261" lon="-18.807088852">
<ele>509.687500</ele>
<time>2012-07-25T15:19:37Z</time>
<speed>0.080000</speed>
<extensions>
<speed>0.1</speed>
<temp>0.00</temp>
<bpm>0</bpm>
<rpm>0.00</rpm>
</extensions>
</trkpt>
<trkpt lat="63.824451447" lon="-18.807092667">
<ele>509.101563</ele>
<time>2012-07-25T15:19:42Z</time>
<speed>0.090000</speed>
<extensions>
<speed>0.1</speed>
<temp>0.00</temp>
<bpm>0</bpm>
<rpm>0.00</rpm>
</extensions>
</trkpt>
<trkpt lat="63.824451447" lon="-18.807085037">
<ele>508.789063</ele>
<time>2012-07-25T15:19:47Z</time>
<speed>0.080000</speed>
<extensions>
<speed>0.1</speed>
<temp>0.00</temp>
<bpm>0</bpm>
<rpm>0.00</rpm>
</extensions>
</trkpt>
<trkpt lat="63.824447632" lon="-18.807083130">
<ele>508.593750</ele>
<time>2012-07-25T15:19:52Z</time>
<speed>0.020000</speed>
<extensions>
<speed>0.0</speed>
<temp>0.00</temp>
<bpm>0</bpm>
<rpm>0.00</rpm>
</extensions>
</trkpt>
<trkpt lat="63.824447632" lon="-18.807081223">
<ele>508.523438</ele>
<time>2012-07-25T15:19:57Z</time>
<speed>0.380000</speed>
<extensions>
<speed>0.4</speed>
<temp>0.00</temp>
<bpm>0</bpm>
<rpm>0.00</rpm>
</extensions>
</trkpt>
<trkpt lat="63.824451447" lon="-18.807085037">
<ele>508.656250</ele>
<time>2012-07-25T15:20:02Z</time>
<speed>0.010000</speed>
<extensions>
<speed>0.0</speed>
<temp>0.00</temp>
<bpm>0</bpm>
<rpm>0.00</rpm>
</extensions>
</trkpt>
<trkpt lat="63.824451447" lon="-18.807090759">
<ele>508.531250</ele>
<time>2012-07-25T15:20:07Z</time>
<speed>0.090000</speed>
<extensions>
<speed>0.1</speed>
<temp>0.00</temp>
<bpm>0</bpm>
<rpm>0.00</rpm>
</extensions>
</trkpt>
<trkpt lat="63.824455261" lon="-18.807090759">
<ele>508.218750</ele>
<time>2012-07-25T15:20:12Z</time>
<speed>0.010000</speed>
<extensions>
<speed>0.0</speed>
<temp>0.00</temp>
<bpm>0</bpm>
<rpm>0.00</rpm>
</extensions>
</trkpt>
<trkpt lat="63.824455261" lon="-18.807090759">
<ele>508.203125</ele>
<time>2012-07-25T15:20:17Z</time>
<speed>0.010000</speed>
<extensions>
<speed>0.0</speed>
<temp>0.00</temp>
<bpm>0</bpm>
<rpm>0.00</rpm>
</extensions>
</trkpt>
<trkpt lat="63.824455261" lon="-18.807092667">
<ele>508.234375</ele>
<time>2012-07-25T15:20:22Z</time>
<extensions>
<speed>0.0</speed>
<temp>0.00</temp>
<bpm>0</bpm>
<rpm>0.00</rpm>
</extensions>
</trkpt>
<trkpt lat="63.824455261" lon="-18.807092667">
<ele>508.265625</ele>
<time>2012-07-25T15:20:27Z</time>
<speed>0.010000</speed>
<extensions>
<speed>0.0</speed>
<temp>0.00</temp>
<bpm>0</bpm>
<rpm>0.00</rpm>
</extensions>
</trkpt>
<trkpt lat="63.824455261" lon="-18.807092667">
<ele>508.273438</ele>
<time>2012-07-25T15:20:32Z</time>
<speed>0.020000</speed>
<extensions>
<speed>0.0</speed>
<temp>0.00</temp>
<bpm>0</bpm>
<rpm>0.00</rpm>
</extensions>
</trkpt>
<trkpt lat="63.824455261" lon="-18.807090759">
<ele>508.281250</ele>
<time>2012-07-25T15:20:37Z</time>
<extensions>
<speed>0.0</speed>
<temp>0.00</temp>
<bpm>0</bpm>
<rpm>0.00</rpm>
</extensions>
</trkpt>
<trkpt lat="63.824455261" lon="-18.807090759">
<ele>508.296875</ele>
<time>2012-07-25T15:20:42Z</time>
<extensions>
<speed>0.0</speed>
<temp>0.00</temp>
<bpm>0</bpm>
<rpm>0.00</rpm>
</extensions>
</trkpt>
<trkpt lat="63.824455261" lon="-18.807090759">
<ele>508.304688</ele>
<time>2012-07-25T15:20:47Z</time>
<speed>0.030000</speed>
<extensions>
<speed>0.0</speed>
<temp>0.00</temp>
<bpm>0</bpm>
<rpm>0.00</rpm>
</extensions>
</trkpt>
<trkpt lat="63.824455261" lon="-18.807090759">
<ele>508.304688</ele>
<time>2012-07-25T15:20:52Z</time>
<extensions>
<speed>0.0</speed>
<temp>0.00</temp>
<bpm>0</bpm>
<rpm>0.00</rpm>
</extensions>
</trkpt>
<trkpt lat="63.824462891" lon="-18.807075500">
<ele>508.960938</ele>
<time>2012-07-25T15:20:57Z</time>
<speed>1.130000</speed>
<extensions>
<speed>1.1</speed>
<temp>0.00</temp>
<bpm>0</bpm>
<rpm>0.00</rpm>
</extensions>
</trkpt>
<trkpt lat="63.824504852" lon="-18.807010651">
<ele>510.476563</ele>
<time>2012-07-25T15:21:02Z</time>
<speed>0.060000</speed>
<extensions>
<speed>0.1</speed>
<temp>0.00</temp>
<bpm>0</bpm>
<rpm>0.00</rpm>
</extensions>
</trkpt>
<trkpt lat="63.824550629" lon="-18.806961060">
<ele>510.843750</ele>
<time>2012-07-25T15:21:07Z</time>
<speed>2.870000</speed>
<extensions>
<speed>2.9</speed>
<temp>0.00</temp>
<bpm>0</bpm>
<rpm>0.00</rpm>
</extensions>
</trkpt>
<trkpt lat="63.824630737" lon="-18.806840897">
<ele>511.140625</ele>
<time>2012-07-25T15:21:12Z</time>
<speed>1.400000</speed>
<extensions>
<speed>1.4</speed>
<temp>0.00</temp>
<bpm>0</bpm>
<rpm>0.00</rpm>
</extensions>
</trkpt>
<trkpt lat="63.824668884" lon="-18.806793213">
<ele>511.773438</ele>
<time>2012-07-25T15:21:17Z</time>
<speed>1.610000</speed>
<extensions>
<speed>1.6</speed>
<temp>0.00</temp>
<bpm>0</bpm>
<rpm>0.00</rpm>
</extensions>
</trkpt>
<trkpt lat="63.824718475" lon="-18.806762695">
<ele>512.703125</ele>
<time>2012-07-25T15:21:22Z</time>
<speed>0.190000</speed>
<extensions>
<speed>0.2</speed>
<temp>0.00</temp>
<bpm>0</bpm>
<rpm>0.00</rpm>
</extensions>
</trkpt>
<trkpt lat="63.824707031" lon="-18.806753159">
<ele>512.625000</ele>
<time>2012-07-25T15:21:27Z</time>
<speed>1.460000</speed>
<extensions>
<speed>1.5</speed>
<temp>0.00</temp>
<bpm>0</bpm>
<rpm>0.00</rpm>
</extensions>
</trkpt>
<trkpt lat="63.824638367" lon="-18.806846619">
<ele>513.546875</ele>
<time>2012-07-25T15:21:32Z</time>
<speed>1.460000</speed>
<extensions>
<speed>1.5</speed>
<temp>0.00</temp>
<bpm>0</bpm>
<rpm>0.00</rpm>
</extensions>
</trkpt>
<trkpt lat="63.824573517" lon="-18.806957245">
<ele>514.156250</ele>
<time>2012-07-25T15:21:37Z</time>
<speed>1.520000</speed>
<extensions>
<speed>1.5</speed>
<temp>0.00</temp>
<bpm>0</bpm>
<rpm>0.00</rpm>
</extensions>
</trkpt>
<trkpt lat="63.824523926" lon="-18.807075500">
<ele>514.109375</ele>
<time>2012-07-25T15:21:42Z</time>
<speed>1.660000</speed>
<extensions>
<speed>1.7</speed>
<temp>0.00</temp>
<bpm>0</bpm>
<rpm>0.00</rpm>
</extensions>
</trkpt>
<trkpt lat="63.824470520" lon="-18.807096481">
<ele>515.593750</ele>
<time>2012-07-25T15:21:47Z</time>
<speed>0.520000</speed>
<extensions>
<speed>0.5</speed>
<temp>0.00</temp>
<bpm>0</bpm>
<rpm>0.00</rpm>
</extensions>
</trkpt>
<trkpt lat="63.824455261" lon="-18.807098389">
<ele>516.125000</ele>
<time>2012-07-25T15:21:52Z</time>
<speed>0.220000</speed>
<extensions>
<speed>0.2</speed>
<temp>0.00</temp>
<bpm>0</bpm>
<rpm>0.00</rpm>
</extensions>
</trkpt>
<trkpt lat="63.824462891" lon="-18.807106018">
<ele>515.984375</ele>
<time>2012-07-25T15:21:57Z</time>
<speed>0.180000</speed>
<extensions>
<speed>0.2</speed>
<temp>0.00</temp>
<bpm>0</bpm>
<rpm>0.00</rpm>
</extensions>
</trkpt>
<trkpt lat="63.824455261" lon="-18.807100296">
<ele>515.359375</ele>
<time>2012-07-25T15:22:02Z</time>
<speed>0.090000</speed>
<extensions>
<speed>0.1</speed>
<temp>0.00</temp>
<bpm>0</bpm>
<rpm>0.00</rpm>
</extensions>
</trkpt>
<trkpt lat="63.824451447" lon="-18.807107925">
<ele>515.687500</ele>
<time>2012-07-25T15:22:07Z</time>
<speed>0.020000</speed>
<extensions>
<speed>0.0</speed>
<temp>0.00</temp>
<bpm>0</bpm>
<rpm>0.00</rpm>
</extensions>
</trkpt>
<trkpt lat="63.824447632" lon="-18.807088852">
<ele>515.500000</ele>
<time>2012-07-25T15:22:12Z</time>
<speed>0.660000</speed>
<extensions>
<speed>0.7</speed>
<temp>0.00</temp>
<bpm>0</bpm>
<rpm>0.00</rpm>
</extensions>
</trkpt>
<trkpt lat="63.824455261" lon="-18.807077408">
<ele>516.406250</ele>
<time>2012-07-25T15:22:17Z</time>
<speed>0.170000</speed>
<extensions>
<speed>0.2</speed>
<temp>0.00</temp>
<bpm>0</bpm>
<rpm>0.00</rpm>
</extensions>
</trkpt>
<trkpt lat="63.824459076" lon="-18.807081223">
<ele>516.421875</ele>
<time>2012-07-25T15:22:22Z</time>
<speed>0.030000</speed>
<extensions>
<speed>0.0</speed>
<temp>0.00</temp>
<bpm>0</bpm>
<rpm>0.00</rpm>
</extensions>
</trkpt>
<trkpt lat="63.824459076" lon="-18.807083130">
<ele>516.500000</ele>
<time>2012-07-25T15:22:27Z</time>
<extensions>
<speed>0.0</speed>
<temp>0.00</temp>
<bpm>0</bpm>
<rpm>0.00</rpm>
</extensions>
</trkpt>
<trkpt lat="63.824459076" lon="-18.807083130">
<ele>516.500000</ele>
<time>2012-07-25T15:22:32Z</time>
<speed>0.010000</speed>
<extensions>
<speed>0.0</speed>
<temp>0.00</temp>
<bpm>0</bpm>
<rpm>0.00</rpm>
</extensions>
</trkpt>
<trkpt lat="63.824459076" lon="-18.807085037">
<ele>516.500000</ele>
<time>2012-07-25T15:22:37Z</time>
<extensions>
<speed>0.0</speed>
<temp>0.00</temp>
<bpm>0</bpm>
<rpm>0.00</rpm>
</extensions>
</trkpt>
<trkpt lat="63.824459076" lon="-18.807085037">
<ele>516.515625</ele>
<time>2012-07-25T15:22:42Z</time>
<extensions>
<speed>0.0</speed>
<temp>0.00</temp>
<bpm>0</bpm>
<rpm>0.00</rpm>
</extensions>
</trkpt>
<trkpt lat="63.824459076" lon="-18.807085037">
<ele>516.515625</ele>
<time>2012-07-25T15:22:47Z</time>
<speed>0.030000</speed>
<extensions>
<speed>0.0</speed>
<temp>0.00</temp>
<bpm>0</bpm>
<rpm>0.00</rpm>
</extensions>
</trkpt>
<trkpt lat="63.824459076" lon="-18.807085037">
<ele>516.515625</ele>
<time>2012-07-25T15:22:52Z</time>
<speed>0.090000</speed>
<extensions>
<speed>0.1</speed>
<temp>0.00</temp>
<bpm>0</bpm>
<rpm>0.00</rpm>
</extensions>
</trkpt>
<trkpt lat="63.824466705" lon="-18.807088852">
<ele>516.203125</ele>
<time>2012-07-25T15:22:57Z</time>
<speed>0.160000</speed>
<extensions>
<speed>0.2</speed>
<temp>0.00</temp>
<bpm>0</bpm>
<rpm>0.00</rpm>
</extensions>
</trkpt>
<trkpt lat="63.824470520" lon="-18.807104111">
<ele>516.671875</ele>
<time>2012-07-25T15:23:02Z</time>
<speed>0.130000</speed>
<extensions>
<speed>0.1</speed>
<temp>0.00</temp>
<bpm>0</bpm>
<rpm>0.00</rpm>
</extensions>
</trkpt>
<trkpt lat="63.824470520" lon="-18.807107925">
<ele>516.578125</ele>
<time>2012-07-25T15:23:07Z</time>
<speed>0.130000</speed>
<extensions>
<speed>0.1</speed>
<temp>0.00</temp>
<bpm>0</bpm>
<rpm>0.00</rpm>
</extensions>
</trkpt>
<trkpt lat="63.824455261" lon="-18.807109833">
<ele>517.656250</ele>
<time>2012-07-25T15:23:12Z</time>
<speed>0.330000</speed>
<extensions>
<speed>0.3</speed>
<temp>0.00</temp>
<bpm>0</bpm>
<rpm>0.00</rpm>
</extensions>
</trkpt>
<trkpt lat="63.824447632" lon="-18.807138443">
<ele>517.625000</ele>
<time>2012-07-25T15:23:17Z</time>
<speed>0.030000</speed>
<extensions>
<speed>0.0</speed>
<temp>0.00</temp>
<bpm>0</bpm>
<rpm>0.00</rpm>
</extensions>
</trkpt>
<trkpt lat="63.824447632" lon="-18.807136536">
<ele>517.781250</ele>
<time>2012-07-25T15:23:22Z</time>
<speed>0.050000</speed>
<extensions>
<speed>0.1</speed>
<temp>0.00</temp>
<bpm>0</bpm>
<rpm>0.00</rpm>
</extensions>
</trkpt>
<trkpt lat="63.824447632" lon="-18.807138443">
<ele>517.609375</ele>
<time>2012-07-25T15:23:27Z</time>
<speed>0.030000</speed>
<extensions>
<speed>0.0</speed>
<temp>0.00</temp>
<bpm>0</bpm>
<rpm>0.00</rpm>
</extensions>
</trkpt>
<trkpt lat="63.824447632" lon="-18.807138443">
<ele>517.593750</ele>
<time>2012-07-25T15:23:32Z</time>
<speed>0.060000</speed>
<extensions>
<speed>0.1</speed>
<temp>0.00</temp>
<bpm>0</bpm>
<rpm>0.00</rpm>
</extensions>
</trkpt>
<trkpt lat="63.824447632" lon="-18.807138443">
<ele>517.640625</ele>
<time>2012-07-25T15:23:37Z</time>
<speed>0.040000</speed>
<extensions>
<speed>0.0</speed>
<temp>0.00</temp>
<bpm>0</bpm>
<rpm>0.00</rpm>
</extensions>
</trkpt>
<trkpt lat="63.824447632" lon="-18.807136536">
<ele>517.609375</ele>
<time>2012-07-25T15:23:42Z</time>
<speed>0.160000</speed>
<extensions>
<speed>0.2</speed>
<temp>0.00</temp>
<bpm>0</bpm>
<rpm>0.00</rpm>
</extensions>
</trkpt>
<trkpt lat="63.824447632" lon="-18.807134628">
<ele>517.609375</ele>
<time>2012-07-25T15:23:47Z</time>
<speed>0.130000</speed>
<extensions>
<speed>0.1</speed>
<temp>0.00</temp>
<bpm>0</bpm>
<rpm>0.00</rpm>
</extensions>
</trkpt>
<trkpt lat="63.824451447" lon="-18.807136536">
<ele>517.515625</ele>
<time>2012-07-25T15:23:52Z</time>
<speed>0.070000</speed>
<extensions>
<speed>0.1</speed>
<temp>0.00</temp>
<bpm>0</bpm>
<rpm>0.00</rpm>
</extensions>
</trkpt>
<trkpt lat="63.824459076" lon="-18.807146072">
<ele>517.218750</ele>
<time>2012-07-25T15:23:57Z</time>
<speed>0.270000</speed>
<extensions>
<speed>0.3</speed>
<temp>0.00</temp>
<bpm>0</bpm>
<rpm>0.00</rpm>
</extensions>
</trkpt>
<trkpt lat="63.824462891" lon="-18.807157516">
<ele>517.046875</ele>
<time>2012-07-25T15:24:02Z</time>
<speed>0.040000</speed>
<extensions>
<speed>0.0</speed>
<temp>0.00</temp>
<bpm>0</bpm>
<rpm>0.00</rpm>
</extensions>
</trkpt>
<trkpt lat="63.824462891" lon="-18.807163239">
<ele>517.234375</ele>
<time>2012-07-25T15:24:07Z</time>
<speed>0.070000</speed>
<extensions>
<speed>0.1</speed>
<temp>0.00</temp>
<bpm>0</bpm>
<rpm>0.00</rpm>
</extensions>
</trkpt>
<trkpt lat="63.824462891" lon="-18.807157516">
<ele>516.515625</ele>
<time>2012-07-25T15:24:12Z</time>
<speed>0.040000</speed>
<extensions>
<speed>0.0</speed>
<temp>0.00</temp>
<bpm>0</bpm>
<rpm>0.00</rpm>
</extensions>
</trkpt>
<trkpt lat="63.824459076" lon="-18.807161331">
<ele>516.562500</ele>
<time>2012-07-25T15:24:17Z</time>
<speed>0.130000</speed>
<extensions>
<speed>0.1</speed>
<temp>0.00</temp>
<bpm>0</bpm>
<rpm>0.00</rpm>
</extensions>
</trkpt>
<trkpt lat="63.824459076" lon="-18.807159424">
<ele>516.484375</ele>
<time>2012-07-25T15:24:22Z</time>
<speed>0.100000</speed>
<extensions>
<speed>0.1</speed>
<temp>0.00</temp>
<bpm>0</bpm>
<rpm>0.00</rpm>
</extensions>
</trkpt>
<trkpt lat="63.824459076" lon="-18.807159424">
<ele>516.546875</ele>
<time>2012-07-25T15:24:27Z</time>
<speed>0.100000</speed>
<extensions>
<speed>0.1</speed>
<temp>0.00</temp>
<bpm>0</bpm>
<rpm>0.00</rpm>
</extensions>
</trkpt>
<trkpt lat="63.824462891" lon="-18.807184219">
<ele>515.234375</ele>
<time>2012-07-25T15:24:32Z</time>
<speed>0.890000</speed>
<extensions>
<speed>0.9</speed>
<temp>0.00</temp>
<bpm>0</bpm>
<rpm>0.00</rpm>
</extensions>
</trkpt>
<trkpt lat="63.824462891" lon="-18.807220459">
<ele>514.968750</ele>
<time>2012-07-25T15:24:37Z</time>
<speed>0.020000</speed>
<extensions>
<speed>0.0</speed>
<temp>0.00</temp>
<bpm>0</bpm>
<rpm>0.00</rpm>
</extensions>
</trkpt>
<trkpt lat="63.824462891" lon="-18.807229996">
<ele>515.109375</ele>
<time>2012-07-25T15:24:42Z</time>
<speed>0.020000</speed>
<extensions>
<speed>0.0</speed>
<temp>0.00</temp>
<bpm>0</bpm>
<rpm>0.00</rpm>
</extensions>
</trkpt>
<trkpt lat="63.824462891" lon="-18.807229996">
<ele>515.156250</ele>
<time>2012-07-25T15:24:47Z</time>
<extensions>
<speed>0.0</speed>
<temp>0.00</temp>
<bpm>0</bpm>
<rpm>0.00</rpm>
</extensions>
</trkpt>
<trkpt lat="63.824462891" lon="-18.807229996">
<ele>515.062500</ele>
<time>2012-07-25T15:24:52Z</time>
<speed>0.020000</speed>
<extensions>
<speed>0.0</speed>
<temp>0.00</temp>
<bpm>0</bpm>
<rpm>0.00</rpm>
</extensions>
</trkpt>
<trkpt lat="63.824462891" lon="-18.807231903">
<ele>514.937500</ele>
<time>2012-07-25T15:24:57Z</time>
<speed>0.370000</speed>
<extensions>
<speed>0.4</speed>
<temp>0.00</temp>
<bpm>0</bpm>
<rpm>0.00</rpm>
</extensions>
</trkpt>
<trkpt lat="63.824459076" lon="-18.807228088">
<ele>514.265625</ele>
<time>2012-07-25T15:25:02Z</time>
<speed>0.010000</speed>
<extensions>
<speed>0.0</speed>
<temp>0.00</temp>
<bpm>0</bpm>
<rpm>0.00</rpm>
</extensions>
</trkpt>
<trkpt lat="63.824451447" lon="-18.807279587">
<ele>514.218750</ele>
<time>2012-07-25T15:25:07Z</time>
<speed>1.560000</speed>
<extensions>
<speed>1.6</speed>
<temp>0.00</temp>
<bpm>0</bpm>
<rpm>0.00</rpm>
</extensions>
</trkpt>
<trkpt lat="63.824398041" lon="-18.807430267">
<ele>514.140625</ele>
<time>2012-07-25T15:25:12Z</time>
<speed>2.300000</speed>
<extensions>
<speed>2.3</speed>
<temp>0.00</temp>
<bpm>0</bpm>
<rpm>0.00</rpm>
</extensions>
</trkpt>
<trkpt lat="63.824337006" lon="-18.807609558">
<ele>513.687500</ele>
<time>2012-07-25T15:25:17Z</time>
<speed>2.000000</speed>
<extensions>
<speed>2.0</speed>
<temp>0.00</temp>
<bpm>0</bpm>
<rpm>0.00</rpm>
</extensions>
</trkpt>
<trkpt lat="63.824298859" lon="-18.807748795">
<ele>513.031250</ele>
<time>2012-07-25T15:25:22Z</time>
<speed>1.230000</speed>
<extensions>
<speed>1.2</speed>
<temp>0.00</temp>
<bpm>0</bpm>
<rpm>0.00</rpm>
</extensions>
</trkpt>
<trkpt lat="63.824268341" lon="-18.807878494">
<ele>512.734375</ele>
<time>2012-07-25T15:25:27Z</time>
<speed>2.400000</speed>
<extensions>
<speed>2.4</speed>
<temp>0.00</temp>
<bpm>0</bpm>
<rpm>0.00</rpm>
</extensions>
</trkpt>
<trkpt lat="63.824230194" lon="-18.808065414">
<ele>514.578125</ele>
<time>2012-07-25T15:25:32Z</time>
<speed>1.760000</speed>
<extensions>
<speed>1.8</speed>
<temp>0.00</temp>
<bpm>0</bpm>
<rpm>0.00</rpm>
</extensions>
</trkpt>
<trkpt lat="63.824188232" lon="-18.808248520">
<ele>515.468750</ele>
<time>2012-07-25T15:25:37Z</time>
<speed>1.870000</speed>
<extensions>
<speed>1.9</speed>
<temp>0.00</temp>
<bpm>0</bpm>
<rpm>0.00</rpm>
</extensions>
</trkpt>
<trkpt lat="63.824153900" lon="-18.808406830">
<ele>517.484375</ele>
<time>2012-07-25T15:25:42Z</time>
<speed>1.780000</speed>
<extensions>
<speed>1.8</speed>
<temp>0.00</temp>
<bpm>0</bpm>
<rpm>0.00</rpm>
</extensions>
</trkpt>
<trkpt lat="63.824104309" lon="-18.808557510">
<ele>518.281250</ele>
<time>2012-07-25T15:25:47Z</time>
<speed>2.010000</speed>
<extensions>
<speed>2.0</speed>
<temp>0.00</temp>
<bpm>0</bpm>
<rpm>0.00</rpm>
</extensions>
</trkpt>
<trkpt lat="63.824066162" lon="-18.808734894">
<ele>520.218750</ele>
<time>2012-07-25T15:25:52Z</time>
<speed>2.080000</speed>
<extensions>
<speed>2.1</speed>
<temp>0.00</temp>
<bpm>0</bpm>
<rpm>0.00</rpm>
</extensions>
</trkpt>
<trkpt lat="63.824039459" lon="-18.808904648">
<ele>517.484375</ele>
<time>2012-07-25T15:25:57Z</time>
<speed>1.810000</speed>
<extensions>
<speed>1.8</speed>
<temp>0.00</temp>
<bpm>0</bpm>
<rpm>0.00</rpm>
</extensions>
</trkpt>
<trkpt lat="63.824012756" lon="-18.809118271">
<ele>515.640625</ele>
<time>2012-07-25T15:26:02Z</time>
<speed>2.350000</speed>
<extensions>
<speed>2.4</speed>
<temp>0.00</temp>
<bpm>0</bpm>
<rpm>0.00</rpm>
</extensions>
</trkpt>
<trkpt lat="63.824016571" lon="-18.809347153">
<ele>515.062500</ele>
<time>2012-07-25T15:26:07Z</time>
<speed>2.120000</speed>
<extensions>
<speed>2.1</speed>
<temp>0.00</temp>
<bpm>0</bpm>
<rpm>0.00</rpm>
</extensions>
</trkpt>
<trkpt lat="63.824050903" lon="-18.809568405">
<ele>515.609375</ele>
<time>2012-07-25T15:26:12Z</time>
<speed>1.960000</speed>
<extensions>
<speed>2.0</speed>
<temp>0.00</temp>
<bpm>0</bpm>
<rpm>0.00</rpm>
</extensions>
</trkpt>
<trkpt lat="63.824108124" lon="-18.809722900">
<ele>515.234375</ele>
<time>2012-07-25T15:26:17Z</time>
<speed>2.220000</speed>
<extensions>
<speed>2.2</speed>
<temp>0.00</temp>
<bpm>0</bpm>
<rpm>0.00</rpm>
</extensions>
</trkpt>
<trkpt lat="63.824176788" lon="-18.809854507">
<ele>515.968750</ele>
<time>2012-07-25T15:26:22Z</time>
<speed>1.850000</speed>
<extensions>
<speed>1.8</speed>
<temp>0.00</temp>
<bpm>0</bpm>
<rpm>0.00</rpm>
</extensions>
</trkpt>
<trkpt lat="63.824253082" lon="-18.809961319">
<ele>517.218750</ele>
<time>2012-07-25T15:26:27Z</time>
<speed>2.060000</speed>
<extensions>
<speed>2.1</speed>
<temp>0.00</temp>
<bpm>0</bpm>
<rpm>0.00</rpm>
</extensions>
</trkpt>
<trkpt lat="63.824333191" lon="-18.810014725">
<ele>518.046875</ele>
<time>2012-07-25T15:26:32Z</time>
<speed>1.820000</speed>
<extensions>
<speed>1.8</speed>
<temp>0.00</temp>
<bpm>0</bpm>
<rpm>0.00</rpm>
</extensions>
</trkpt>
<trkpt lat="63.824413300" lon="-18.810064316">
<ele>520.203125</ele>
<time>2012-07-25T15:26:37Z</time>
<speed>2.360000</speed>
<extensions>
<speed>2.4</speed>
<temp>0.00</temp>
<bpm>0</bpm>
<rpm>0.00</rpm>
</extensions>
</trkpt>
<trkpt lat="63.824497223" lon="-18.810226440">
<ele>520.750000</ele>
<time>2012-07-25T15:26:42Z</time>
<speed>2.230000</speed>
<extensions>
<speed>2.2</speed>
<temp>0.00</temp>
<bpm>0</bpm>
<rpm>0.00</rpm>
</extensions>
</trkpt>
<trkpt lat="63.824554443" lon="-18.810394287">
<ele>520.406250</ele>
<time>2012-07-25T15:26:47Z</time>
<speed>2.070000</speed>
<extensions>
<speed>2.1</speed>
<temp>0.00</temp>
<bpm>0</bpm>
<rpm>0.00</rpm>
</extensions>
</trkpt>
<trkpt lat="63.824615479" lon="-18.810529709">
<ele>520.359375</ele>
<time>2012-07-25T15:26:52Z</time>
<speed>2.230000</speed>
<extensions>
<speed>2.2</speed>
<temp>0.00</temp>
<bpm>0</bpm>
<rpm>0.00</rpm>
</extensions>
</trkpt>
<trkpt lat="63.824665070" lon="-18.810688019">
<ele>520.515625</ele>
<time>2012-07-25T15:26:57Z</time>
<speed>1.910000</speed>
<extensions>
<speed>1.9</speed>
<temp>0.00</temp>
<bpm>0</bpm>
<rpm>0.00</rpm>
</extensions>
</trkpt>
<trkpt lat="63.824726105" lon="-18.810813904">
<ele>519.578125</ele>
<time>2012-07-25T15:27:02Z</time>
<speed>2.350000</speed>
<extensions>
<speed>2.4</speed>
<temp>0.00</temp>
<bpm>0</bpm>
<rpm>0.00</rpm>
</extensions>
</trkpt>
<trkpt lat="63.824798584" lon="-18.810949326">
<ele>519.953125</ele>
<time>2012-07-25T15:27:07Z</time>
<speed>2.370000</speed>
<extensions>
<speed>2.4</speed>
<temp>0.00</temp>
<bpm>0</bpm>
<rpm>0.00</rpm>
</extensions>
</trkpt>
<trkpt lat="63.824882507" lon="-18.811096191">
<ele>520.250000</ele>
<time>2012-07-25T15:27:12Z</time>
<speed>2.360000</speed>
<extensions>
<speed>2.4</speed>
<temp>0.00</temp>
<bpm>0</bpm>
<rpm>0.00</rpm>
</extensions>
</trkpt>
<trkpt lat="63.824966431" lon="-18.811237335">
<ele>520.578125</ele>
<time>2012-07-25T15:27:17Z</time>
<speed>2.050000</speed>
<extensions>
<speed>2.1</speed>
<temp>0.00</temp>
<bpm>0</bpm>
<rpm>0.00</rpm>
</extensions>
</trkpt>
<trkpt lat="63.824989319" lon="-18.811258316">
<ele>519.843750</ele>
<time>2012-07-25T15:27:22Z</time>
<speed>0.030000</speed>
<extensions>
<speed>0.0</speed>
<temp>0.00</temp>
<bpm>0</bpm>
<rpm>0.00</rpm>
</extensions>
</trkpt>
<trkpt lat="63.825023651" lon="-18.811292648">
<ele>519.859375</ele>
<time>2012-07-25T15:27:27Z</time>
<speed>1.960000</speed>
<extensions>
<speed>2.0</speed>
<temp>0.00</temp>
<bpm>0</bpm>
<rpm>0.00</rpm>
</extensions>
</trkpt>
<trkpt lat="63.825126648" lon="-18.811431885">
<ele>520.000000</ele>
<time>2012-07-25T15:27:32Z</time>
<speed>3.490000</speed>
<extensions>
<speed>3.5</speed>
<temp>0.00</temp>
<bpm>0</bpm>
<rpm>0.00</rpm>
</extensions>
</trkpt>
<trkpt lat="63.825256348" lon="-18.811655045">
<ele>518.968750</ele>
<time>2012-07-25T15:27:37Z</time>
<speed>3.710000</speed>
<extensions>
<speed>3.7</speed>
<temp>0.00</temp>
<bpm>0</bpm>
<rpm>0.00</rpm>
</extensions>
</trkpt>
<trkpt lat="63.825344086" lon="-18.811916351">
<ele>518.906250</ele>
<time>2012-07-25T15:27:42Z</time>
<speed>2.820000</speed>
<extensions>
<speed>2.8</speed>
<temp>0.00</temp>
<bpm>0</bpm>
<rpm>0.00</rpm>
</extensions>
</trkpt>
<trkpt lat="63.825397491" lon="-18.812120438">
<ele>518.484375</ele>
<time>2012-07-25T15:27:47Z</time>
<speed>2.600000</speed>
<extensions>
<speed>2.6</speed>
<temp>0.00</temp>
<bpm>0</bpm>
<rpm>0.00</rpm>
</extensions>
</trkpt>
<trkpt lat="63.825447083" lon="-18.812377930">
<ele>518.531250</ele>
<time>2012-07-25T15:27:52Z</time>
<speed>2.700000</speed>
<extensions>
<speed>2.7</speed>
<temp>0.00</temp>
<bpm>0</bpm>
<rpm>0.00</rpm>
</extensions>
</trkpt>
<trkpt lat="63.825477600" lon="-18.812629700">
<ele>518.125000</ele>
<time>2012-07-25T15:27:57Z</time>
<speed>2.510000</speed>
<extensions>
<speed>2.5</speed>
<temp>0.00</temp>
<bpm>0</bpm>
<rpm>0.00</rpm>
</extensions>
</trkpt>
<trkpt lat="63.825492859" lon="-18.812900543">
<ele>517.421875</ele>
<time>2012-07-25T15:28:02Z</time>
<speed>2.960000</speed>
<extensions>
<speed>3.0</speed>
<temp>0.00</temp>
<bpm>0</bpm>
<rpm>0.00</rpm>
</extensions>
</trkpt>
<trkpt lat="63.825450897" lon="-18.813215256">
<ele>517.234375</ele>
<time>2012-07-25T15:28:07Z</time>
<speed>2.950000</speed>
<extensions>
<speed>2.9</speed>
<temp>0.00</temp>
<bpm>0</bpm>
<rpm>0.00</rpm>
</extensions>
</trkpt>
<trkpt lat="63.825405121" lon="-18.813524246">
<ele>516.640625</ele>
<time>2012-07-25T15:28:12Z</time>
<speed>3.080000</speed>
<extensions>
<speed>3.1</speed>
<temp>0.00</temp>
<bpm>0</bpm>
<rpm>0.00</rpm>
</extensions>
</trkpt>
<trkpt lat="63.825359344" lon="-18.813831329">
<ele>517.531250</ele>
<time>2012-07-25T15:28:17Z</time>
<speed>3.180000</speed>
<extensions>
<speed>3.2</speed>
<temp>0.00</temp>
<bpm>0</bpm>
<rpm>0.00</rpm>
</extensions>
</trkpt>
<trkpt lat="63.825309753" lon="-18.814147949">
<ele>518.093750</ele>
<time>2012-07-25T15:28:22Z</time>
<speed>3.780000</speed>
<extensions>
<speed>3.8</speed>
<temp>0.00</temp>
<bpm>0</bpm>
<rpm>0.00</rpm>
</extensions>
</trkpt>
<trkpt lat="63.825283051" lon="-18.814432144">
<ele>518.375000</ele>
<time>2012-07-25T15:28:27Z</time>
<speed>2.750000</speed>
<extensions>
<speed>2.7</speed>
<temp>0.00</temp>
<bpm>0</bpm>
<rpm>0.00</rpm>
</extensions>
</trkpt>
<trkpt lat="63.825248718" lon="-18.814661026">
<ele>518.171875</ele>
<time>2012-07-25T15:28:32Z</time>
<speed>2.640000</speed>
<extensions>
<speed>2.6</speed>
<temp>0.00</temp>
<bpm>0</bpm>
<rpm>0.00</rpm>
</extensions>
</trkpt>
<trkpt lat="63.825218201" lon="-18.814931870">
<ele>517.796875</ele>
<time>2012-07-25T15:28:37Z</time>
<speed>2.990000</speed>
<extensions>
<speed>3.0</speed>
<temp>0.00</temp>
<bpm>0</bpm>
<rpm>0.00</rpm>
</extensions>
</trkpt>
<trkpt lat="63.825195313" lon="-18.815225601">
<ele>518.078125</ele>
<time>2012-07-25T15:28:42Z</time>
<speed>2.860000</speed>
<extensions>
<speed>2.9</speed>
<temp>0.00</temp>
<bpm>0</bpm>
<rpm>0.00</rpm>
</extensions>
</trkpt>
<trkpt lat="63.825168610" lon="-18.815494537">
<ele>518.390625</ele>
<time>2012-07-25T15:28:47Z</time>
<speed>2.830000</speed>
<extensions>
<speed>2.8</speed>
<temp>0.00</temp>
<bpm>0</bpm>
<rpm>0.00</rpm>
</extensions>
</trkpt>
<trkpt lat="63.825141907" lon="-18.815814972">
<ele>519.265625</ele>
<time>2012-07-25T15:28:52Z</time>
<speed>3.510000</speed>
<extensions>
<speed>3.5</speed>
<temp>0.00</temp>
<bpm>0</bpm>
<rpm>0.00</rpm>
</extensions>
</trkpt>
<trkpt lat="63.825119019" lon="-18.816164017">
<ele>518.531250</ele>
<time>2012-07-25T15:28:57Z</time>
<speed>3.690000</speed>
<extensions>
<speed>3.7</speed>
<temp>0.00</temp>
<bpm>0</bpm>
<rpm>0.00</rpm>
</extensions>
</trkpt>
<trkpt lat="63.825084686" lon="-18.816490173">
<ele>519.031250</ele>
<time>2012-07-25T15:29:02Z</time>
<speed>3.040000</speed>
<extensions>
<speed>3.0</speed>
<temp>0.00</temp>
<bpm>0</bpm>
<rpm>0.00</rpm>
</extensions>
</trkpt>
<trkpt lat="63.825061798" lon="-18.816797256">
<ele>519.953125</ele>
<time>2012-07-25T15:29:07Z</time>
<speed>3.000000</speed>
<extensions>
<speed>3.0</speed>
<temp>0.00</temp>
<bpm>0</bpm>
<rpm>0.00</rpm>
</extensions>
</trkpt>
<trkpt lat="63.825031281" lon="-18.817110062">
<ele>519.796875</ele>
<time>2012-07-25T15:29:12Z</time>
<speed>2.980000</speed>
<extensions>
<speed>3.0</speed>
<temp>0.00</temp>
<bpm>0</bpm>
<rpm>0.00</rpm>
</extensions>
</trkpt>
<trkpt lat="63.824996948" lon="-18.817413330">
<ele>519.375000</ele>
<time>2012-07-25T15:29:17Z</time>
<speed>3.000000</speed>
<extensions>
<speed>3.0</speed>
<temp>0.00</temp>
<bpm>0</bpm>
<rpm>0.00</rpm>
</extensions>
</trkpt>
<trkpt lat="63.824958801" lon="-18.817716599">
<ele>518.562500</ele>
<time>2012-07-25T15:29:22Z</time>
<speed>3.270000</speed>
<extensions>
<speed>3.3</speed>
<temp>0.00</temp>
<bpm>0</bpm>
<rpm>0.00</rpm>
</extensions>
</trkpt>
<trkpt lat="63.824909210" lon="-18.818056107">
<ele>518.968750</ele>
<time>2012-07-25T15:29:27Z</time>
<speed>3.760000</speed>
<extensions>
<speed>3.8</speed>
<temp>0.00</temp>
<bpm>0</bpm>
<rpm>0.00</rpm>
</extensions>
</trkpt>
<trkpt lat="63.824821472" lon="-18.818395615">
<ele>520.578125</ele>
<time>2012-07-25T15:29:32Z</time>
<speed>3.720000</speed>
<extensions>
<speed>3.7</speed>
<temp>0.00</temp>
<bpm>0</bpm>
<rpm>0.00</rpm>
</extensions>
</trkpt>
<trkpt lat="63.824729919" lon="-18.818641663">
<ele>520.343750</ele>
<time>2012-07-25T15:29:37Z</time>
<speed>3.400000</speed>
<extensions>
<speed>3.4</speed>
<temp>0.00</temp>
<bpm>0</bpm>
<rpm>0.00</rpm>
</extensions>
</trkpt>
<trkpt lat="63.824634552" lon="-18.818943024">
<ele>519.500000</ele>
<time>2012-07-25T15:29:42Z</time>
<speed>3.960000</speed>
<extensions>
<speed>4.0</speed>
<temp>0.00</temp>
<bpm>0</bpm>
<rpm>0.00</rpm>
</extensions>
</trkpt>
<trkpt lat="63.824554443" lon="-18.819292068">
<ele>519.343750</ele>
<time>2012-07-25T15:29:47Z</time>
<speed>3.630000</speed>
<extensions>
<speed>3.6</speed>
<temp>0.00</temp>
<bpm>0</bpm>
<rpm>0.00</rpm>
</extensions>
</trkpt>
<trkpt lat="63.824466705" lon="-18.819591522">
<ele>520.421875</ele>
<time>2012-07-25T15:29:52Z</time>
<speed>3.150000</speed>
<extensions>
<speed>3.2</speed>
<temp>0.00</temp>
<bpm>0</bpm>
<rpm>0.00</rpm>
</extensions>
</trkpt>
<trkpt lat="63.824405670" lon="-18.819822311">
<ele>521.000000</ele>
<time>2012-07-25T15:29:57Z</time>
<speed>2.590000</speed>
<extensions>
<speed>2.6</speed>
<temp>0.00</temp>
<bpm>0</bpm>
<rpm>0.00</rpm>
</extensions>
</trkpt>
<trkpt lat="63.824333191" lon="-18.820072174">
<ele>521.218750</ele>
<time>2012-07-25T15:30:02Z</time>
<speed>3.450000</speed>
<extensions>
<speed>3.5</speed>
<temp>0.00</temp>
<bpm>0</bpm>
<rpm>0.00</rpm>
</extensions>
</trkpt>
<trkpt lat="63.824237823" lon="-18.820329666">
<ele>521.750000</ele>
<time>2012-07-25T15:30:07Z</time>
<speed>3.590000</speed>
<extensions>
<speed>3.6</speed>
<temp>0.00</temp>
<bpm>0</bpm>
<rpm>0.00</rpm>
</extensions>
</trkpt>
<trkpt lat="63.824127197" lon="-18.820541382">
<ele>523.656250</ele>
<time>2012-07-25T15:30:12Z</time>
<speed>3.090000</speed>
<extensions>
<speed>3.1</speed>
<temp>0.00</temp>
<bpm>0</bpm>
<rpm>0.00</rpm>
</extensions>
</trkpt>
<trkpt lat="63.824008942" lon="-18.820720673">
<ele>525.343750</ele>
<time>2012-07-25T15:30:17Z</time>
<speed>3.030000</speed>
<extensions>
<speed>3.0</speed>
<temp>0.00</temp>
<bpm>0</bpm>
<rpm>0.00</rpm>
</extensions>
</trkpt>
<trkpt lat="63.823883057" lon="-18.820884705">
<ele>526.421875</ele>
<time>2012-07-25T15:30:22Z</time>
<speed>3.230000</speed>
<extensions>
<speed>3.2</speed>
<temp>0.00</temp>
<bpm>0</bpm>
<rpm>0.00</rpm>
</extensions>
</trkpt>
<trkpt lat="63.823783875" lon="-18.821010590">
<ele>526.625000</ele>
<time>2012-07-25T15:30:27Z</time>
<speed>1.860000</speed>
<extensions>
<speed>1.9</speed>
<temp>0.00</temp>
<bpm>0</bpm>
<rpm>0.00</rpm>
</extensions>
</trkpt>
<trkpt lat="63.823707581" lon="-18.821126938">
<ele>527.390625</ele>
<time>2012-07-25T15:30:32Z</time>
<speed>1.310000</speed>
<extensions>
<speed>1.3</speed>
<temp>0.00</temp>
<bpm>0</bpm>
<rpm>0.00</rpm>
</extensions>
</trkpt>
<trkpt lat="63.823612213" lon="-18.821260452">
<ele>527.625000</ele>
<time>2012-07-25T15:30:37Z</time>
<speed>1.810000</speed>
<extensions>
<speed>1.8</speed>
<temp>0.00</temp>
<bpm>0</bpm>
<rpm>0.00</rpm>
</extensions>
</trkpt>
<trkpt lat="63.823524475" lon="-18.821348190">
<ele>527.312500</ele>
<time>2012-07-25T15:30:42Z</time>
<speed>2.350000</speed>
<extensions>
<speed>2.4</speed>
<temp>0.00</temp>
<bpm>0</bpm>
<rpm>0.00</rpm>
</extensions>
</trkpt>
<trkpt lat="63.823436737" lon="-18.821500778">
<ele>528.953125</ele>
<time>2012-07-25T15:30:47Z</time>
<speed>2.800000</speed>
<extensions>
<speed>2.8</speed>
<temp>0.00</temp>
<bpm>0</bpm>
<rpm>0.00</rpm>
</extensions>
</trkpt>
<trkpt lat="63.823318481" lon="-18.821678162">
<ele>528.796875</ele>
<time>2012-07-25T15:30:52Z</time>
<speed>3.120000</speed>
<extensions>
<speed>3.1</speed>
<temp>0.00</temp>
<bpm>0</bpm>
<rpm>0.00</rpm>
</extensions>
</trkpt>
<trkpt lat="63.823200226" lon="-18.821817398">
<ele>529.000000</ele>
<time>2012-07-25T15:30:57Z</time>
<speed>2.880000</speed>
<extensions>
<speed>2.9</speed>
<temp>0.00</temp>
<bpm>0</bpm>
<rpm>0.00</rpm>
</extensions>
</trkpt>
<trkpt lat="63.823078156" lon="-18.821945190">
<ele>528.546875</ele>
<time>2012-07-25T15:31:02Z</time>
<speed>2.930000</speed>
<extensions>
<speed>2.9</speed>
<temp>0.00</temp>
<bpm>0</bpm>
<rpm>0.00</rpm>
</extensions>
</trkpt>
<trkpt lat="63.822948456" lon="-18.822053909">
<ele>527.437500</ele>
<time>2012-07-25T15:31:07Z</time>
<speed>2.740000</speed>
<extensions>
<speed>2.7</speed>
<temp>0.00</temp>
<bpm>0</bpm>
<rpm>0.00</rpm>
</extensions>
</trkpt>
<trkpt lat="63.822830200" lon="-18.822166443">
<ele>527.656250</ele>
<time>2012-07-25T15:31:12Z</time>
<speed>2.660000</speed>
<extensions>
<speed>2.7</speed>
<temp>0.00</temp>
<bpm>0</bpm>
<rpm>0.00</rpm>
</extensions>
</trkpt>
<trkpt lat="63.822731018" lon="-18.822271347">
<ele>527.843750</ele>
<time>2012-07-25T15:31:17Z</time>
<speed>2.390000</speed>
<extensions>
<speed>2.4</speed>
<temp>0.00</temp>
<bpm>0</bpm>
<rpm>0.00</rpm>
</extensions>
</trkpt>
<trkpt lat="63.822631836" lon="-18.822362900">
<ele>527.078125</ele>
<time>2012-07-25T15:31:22Z</time>
<speed>2.610000</speed>
<extensions>
<speed>2.6</speed>
<temp>0.00</temp>
<bpm>0</bpm>
<rpm>0.00</rpm>
</extensions>
</trkpt>
<trkpt lat="63.822521210" lon="-18.822429657">
<ele>526.656250</ele>
<time>2012-07-25T15:31:27Z</time>
<speed>2.540000</speed>
<extensions>
<speed>2.5</speed>
<temp>0.00</temp>
<bpm>0</bpm>
<rpm>0.00</rpm>
</extensions>
</trkpt>
<trkpt lat="63.822406769" lon="-18.822490692">
<ele>524.406250</ele>
<time>2012-07-25T15:31:32Z</time>
<speed>2.860000</speed>
<extensions>
<speed>2.9</speed>
<temp>0.00</temp>
<bpm>0</bpm>
<rpm>0.00</rpm>
</extensions>
</trkpt>
<trkpt lat="63.822284698" lon="-18.822587967">
<ele>524.421875</ele>
<time>2012-07-25T15:31:37Z</time>
<speed>2.910000</speed>
<extensions>
<speed>2.9</speed>
<temp>0.00</temp>
<bpm>0</bpm>
<rpm>0.00</rpm>
</extensions>
</trkpt>
<trkpt lat="63.822151184" lon="-18.822669983">
<ele>523.312500</ele>
<time>2012-07-25T15:31:42Z</time>
<speed>3.150000</speed>
<extensions>
<speed>3.2</speed>
<temp>0.00</temp>
<bpm>0</bpm>
<rpm>0.00</rpm>
</extensions>
</trkpt>
<trkpt lat="63.821990967" lon="-18.822751999">
<ele>520.750000</ele>
<time>2012-07-25T15:31:47Z</time>
<speed>3.220000</speed>
<extensions>
<speed>3.2</speed>
<temp>0.00</temp>
<bpm>0</bpm>
<rpm>0.00</rpm>
</extensions>
</trkpt>
<trkpt lat="63.821876526" lon="-18.822874069">
<ele>522.437500</ele>
<time>2012-07-25T15:31:52Z</time>
<speed>3.010000</speed>
<extensions>
<speed>3.0</speed>
<temp>0.00</temp>
<bpm>0</bpm>
<rpm>0.00</rpm>
</extensions>
</trkpt>
<trkpt lat="63.821754456" lon="-18.822978973">
<ele>522.875000</ele>
<time>2012-07-25T15:31:57Z</time>
<speed>3.180000</speed>
<extensions>
<speed>3.2</speed>
<temp>0.00</temp>
<bpm>0</bpm>
<rpm>0.00</rpm>
</extensions>
</trkpt>
<trkpt lat="63.821617126" lon="-18.823041916">
<ele>523.937500</ele>
<time>2012-07-25T15:32:02Z</time>
<speed>2.840000</speed>
<extensions>
<speed>2.8</speed>
<temp>0.00</temp>
<bpm>0</bpm>
<rpm>0.00</rpm>
</extensions>
</trkpt>
<trkpt lat="63.821475983" lon="-18.823036194">
<ele>523.328125</ele>
<time>2012-07-25T15:32:07Z</time>
<speed>3.060000</speed>
<extensions>
<speed>3.1</speed>
<temp>0.00</temp>
<bpm>0</bpm>
<rpm>0.00</rpm>
</extensions>
</trkpt>
<trkpt lat="63.821334839" lon="-18.823078156">
<ele>523.531250</ele>
<time>2012-07-25T15:32:12Z</time>
<speed>3.480000</speed>
<extensions>
<speed>3.5</speed>
<temp>0.00</temp>
<bpm>0</bpm>
<rpm>0.00</rpm>
</extensions>
</trkpt>
<trkpt lat="63.821193695" lon="-18.823160172">
<ele>523.890625</ele>
<time>2012-07-25T15:32:17Z</time>
<speed>3.320000</speed>
<extensions>
<speed>3.3</speed>
<temp>0.00</temp>
<bpm>0</bpm>
<rpm>0.00</rpm>
</extensions>
</trkpt>
<trkpt lat="63.821060181" lon="-18.823257446">
<ele>524.984375</ele>
<time>2012-07-25T15:32:22Z</time>
<speed>3.270000</speed>
<extensions>
<speed>3.3</speed>
<temp>0.00</temp>
<bpm>0</bpm>
<rpm>0.00</rpm>
</extensions>
</trkpt>
<trkpt lat="63.820960999" lon="-18.823373795">
<ele>525.562500</ele>
<time>2012-07-25T15:32:27Z</time>
<speed>2.010000</speed>
<extensions>
<speed>2.0</speed>
<temp>0.00</temp>
<bpm>0</bpm>
<rpm>0.00</rpm>
</extensions>
</trkpt>
<trkpt lat="63.820858002" lon="-18.823448181">
<ele>525.921875</ele>
<time>2012-07-25T15:32:32Z</time>
<speed>2.780000</speed>
<extensions>
<speed>2.8</speed>
<temp>0.00</temp>
<bpm>0</bpm>
<rpm>0.00</rpm>
</extensions>
</trkpt>
<trkpt lat="63.820720673" lon="-18.823516846">
<ele>526.625000</ele>
<time>2012-07-25T15:32:37Z</time>
<speed>3.560000</speed>
<extensions>
<speed>3.6</speed>
<temp>0.00</temp>
<bpm>0</bpm>
<rpm>0.00</rpm>
</extensions>
</trkpt>
<trkpt lat="63.820556641" lon="-18.823604584">
<ele>526.281250</ele>
<time>2012-07-25T15:32:42Z</time>
<speed>3.720000</speed>
<extensions>
<speed>3.7</speed>
<temp>0.00</temp>
<bpm>0</bpm>
<rpm>0.00</rpm>
</extensions>
</trkpt>
<trkpt lat="63.820392609" lon="-18.823711395">
<ele>526.250000</ele>
<time>2012-07-25T15:32:47Z</time>
<speed>3.700000</speed>
<extensions>
<speed>3.7</speed>
<temp>0.00</temp>
<bpm>0</bpm>
<rpm>0.00</rpm>
</extensions>
</trkpt>
<trkpt lat="63.820217133" lon="-18.823785782">
<ele>523.750000</ele>
<time>2012-07-25T15:32:52Z</time>
<speed>4.590000</speed>
<extensions>
<speed>4.6</speed>
<temp>0.00</temp>
<bpm>0</bpm>
<rpm>0.00</rpm>
</extensions>
</trkpt>
<trkpt lat="63.820011139" lon="-18.823823929">
<ele>523.312500</ele>
<time>2012-07-25T15:32:57Z</time>
<speed>4.990000</speed>
<extensions>
<speed>5.0</speed>
<temp>0.00</temp>
<bpm>0</bpm>
<rpm>0.00</rpm>
</extensions>
</trkpt>
<trkpt lat="63.819801331" lon="-18.823863983">
<ele>524.187500</ele>
<time>2012-07-25T15:33:02Z</time>
<speed>4.820000</speed>
<extensions>
<speed>4.8</speed>
<temp>0.00</temp>
<bpm>0</bpm>
<rpm>0.00</rpm>
</extensions>
</trkpt>
<trkpt lat="63.819599152" lon="-18.823890686">
<ele>525.609375</ele>
<time>2012-07-25T15:33:07Z</time>
<speed>4.480000</speed>
<extensions>
<speed>4.5</speed>
<temp>0.00</temp>
<bpm>0</bpm>
<rpm>0.00</rpm>
</extensions>
</trkpt>
<trkpt lat="63.819393158" lon="-18.823905945">
<ele>526.671875</ele>
<time>2012-07-25T15:33:12Z</time>
<speed>4.960000</speed>
<extensions>
<speed>5.0</speed>
<temp>0.00</temp>
<bpm>0</bpm>
<rpm>0.00</rpm>
</extensions>
</trkpt>
<trkpt lat="63.819183350" lon="-18.823923111">
<ele>526.765625</ele>
<time>2012-07-25T15:33:17Z</time>
<speed>4.470000</speed>
<extensions>
<speed>4.5</speed>
<temp>0.00</temp>
<bpm>0</bpm>
<rpm>0.00</rpm>
</extensions>
</trkpt>
<trkpt lat="63.819000244" lon="-18.823947906">
<ele>526.531250</ele>
<time>2012-07-25T15:33:22Z</time>
<speed>4.050000</speed>
<extensions>
<speed>4.0</speed>
<temp>0.00</temp>
<bpm>0</bpm>
<rpm>0.00</rpm>
</extensions>
</trkpt>
<trkpt lat="63.818817139" lon="-18.824008942">
<ele>526.015625</ele>
<time>2012-07-25T15:33:27Z</time>
<speed>4.430000</speed>
<extensions>
<speed>4.4</speed>
<temp>0.00</temp>
<bpm>0</bpm>
<rpm>0.00</rpm>
</extensions>
</trkpt>
<trkpt lat="63.818599701" lon="-18.824071884">
<ele>525.765625</ele>
<time>2012-07-25T15:33:32Z</time>
<speed>5.200000</speed>
<extensions>
<speed>5.2</speed>
<temp>0.00</temp>
<bpm>0</bpm>
<rpm>0.00</rpm>
</extensions>
</trkpt>
<trkpt lat="63.818359375" lon="-18.824075699">
<ele>526.406250</ele>
<time>2012-07-25T15:33:37Z</time>
<speed>5.280000</speed>
<extensions>
<speed>5.3</speed>
<temp>0.00</temp>
<bpm>0</bpm>
<rpm>0.00</rpm>
</extensions>
</trkpt>
<trkpt lat="63.818153381" lon="-18.824068069">
<ele>527.437500</ele>
<time>2012-07-25T15:33:42Z</time>
<speed>3.730000</speed>
<extensions>
<speed>3.7</speed>
<temp>0.00</temp>
<bpm>0</bpm>
<rpm>0.00</rpm>
</extensions>
</trkpt>
<trkpt lat="63.817989349" lon="-18.824087143">
<ele>527.875000</ele>
<time>2012-07-25T15:33:47Z</time>
<speed>4.120000</speed>
<extensions>
<speed>4.1</speed>
<temp>0.00</temp>
<bpm>0</bpm>
<rpm>0.00</rpm>
</extensions>
</trkpt>
<trkpt lat="63.817806244" lon="-18.824216843">
<ele>528.187500</ele>
<time>2012-07-25T15:33:52Z</time>
<speed>4.390000</speed>
<extensions>
<speed>4.4</speed>
<temp>0.00</temp>
<bpm>0</bpm>
<rpm>0.00</rpm>
</extensions>
</trkpt>
<trkpt lat="63.817619324" lon="-18.824365616">
<ele>527.312500</ele>
<time>2012-07-25T15:33:57Z</time>
<speed>4.060000</speed>
<extensions>
<speed>4.1</speed>
<temp>0.00</temp>
<bpm>0</bpm>
<rpm>0.00</rpm>
</extensions>
</trkpt>
<trkpt lat="63.817447662" lon="-18.824464798">
<ele>527.000000</ele>
<time>2012-07-25T15:34:02Z</time>
<speed>4.410000</speed>
<extensions>
<speed>4.4</speed>
<temp>0.00</temp>
<bpm>0</bpm>
<rpm>0.00</rpm>
</extensions>
</trkpt>
<trkpt lat="63.817253113" lon="-18.824501038">
<ele>527.484375</ele>
<time>2012-07-25T15:34:07Z</time>
<speed>4.370000</speed>
<extensions>
<speed>4.4</speed>
<temp>0.00</temp>
<bpm>0</bpm>
<rpm>0.00</rpm>
</extensions>
</trkpt>
<trkpt lat="63.817070007" lon="-18.824565887">
<ele>527.531250</ele>
<time>2012-07-25T15:34:12Z</time>
<speed>3.980000</speed>
<extensions>
<speed>4.0</speed>
<temp>0.00</temp>
<bpm>0</bpm>
<rpm>0.00</rpm>
</extensions>
</trkpt>
<trkpt lat="63.816886902" lon="-18.824642181">
<ele>527.984375</ele>
<time>2012-07-25T15:34:17Z</time>
<speed>4.100000</speed>
<extensions>
<speed>4.1</speed>
<temp>0.00</temp>
<bpm>0</bpm>
<rpm>0.00</rpm>
</extensions>
</trkpt>
<trkpt lat="63.816703796" lon="-18.824729919">
<ele>527.343750</ele>
<time>2012-07-25T15:34:22Z</time>
<speed>4.160000</speed>
<extensions>
<speed>4.2</speed>
<temp>0.00</temp>
<bpm>0</bpm>
<rpm>0.00</rpm>
</extensions>
</trkpt>
<trkpt lat="63.816516876" lon="-18.824810028">
<ele>527.656250</ele>
<time>2012-07-25T15:34:27Z</time>
<speed>4.350000</speed>
<extensions>
<speed>4.3</speed>
<temp>0.00</temp>
<bpm>0</bpm>
<rpm>0.00</rpm>
</extensions>
</trkpt>
<trkpt lat="63.816333771" lon="-18.824857712">
<ele>528.234375</ele>
<time>2012-07-25T15:34:32Z</time>
<speed>4.010000</speed>
<extensions>
<speed>4.0</speed>
<temp>0.00</temp>
<bpm>0</bpm>
<rpm>0.00</rpm>
</extensions>
</trkpt>
<trkpt lat="63.816143036" lon="-18.824850082">
<ele>527.859375</ele>
<time>2012-07-25T15:34:37Z</time>
<speed>4.020000</speed>
<extensions>
<speed>4.0</speed>
<temp>0.00</temp>
<bpm>0</bpm>
<rpm>0.00</rpm>
</extensions>
</trkpt>
<trkpt lat="63.815933228" lon="-18.824863434">
<ele>526.968750</ele>
<time>2012-07-25T15:34:42Z</time>
<speed>4.720000</speed>
<extensions>
<speed>4.7</speed>
<temp>0.00</temp>
<bpm>0</bpm>
<rpm>0.00</rpm>
</extensions>
</trkpt>
<trkpt lat="63.815731049" lon="-18.824907303">
<ele>526.281250</ele>
<time>2012-07-25T15:34:47Z</time>
<speed>4.480000</speed>
<extensions>
<speed>4.5</speed>
<temp>0.00</temp>
<bpm>0</bpm>
<rpm>0.00</rpm>
</extensions>
</trkpt>
<trkpt lat="63.815536499" lon="-18.824949265">
<ele>527.578125</ele>
<time>2012-07-25T15:34:52Z</time>
<speed>4.630000</speed>
<extensions>
<speed>4.6</speed>
<temp>0.00</temp>
<bpm>0</bpm>
<rpm>0.00</rpm>
</extensions>
</trkpt>
<trkpt lat="63.815334320" lon="-18.824956894">
<ele>526.843750</ele>
<time>2012-07-25T15:34:57Z</time>
<speed>4.460000</speed>
<extensions>
<speed>4.5</speed>
<temp>0.00</temp>
<bpm>0</bpm>
<rpm>0.00</rpm>
</extensions>
</trkpt>
<trkpt lat="63.815151215" lon="-18.825002670">
<ele>526.671875</ele>
<time>2012-07-25T15:35:02Z</time>
<speed>3.700000</speed>
<extensions>
<speed>3.7</speed>
<temp>0.00</temp>
<bpm>0</bpm>
<rpm>0.00</rpm>
</extensions>
</trkpt>
<trkpt lat="63.815021515" lon="-18.825130463">
<ele>525.968750</ele>
<time>2012-07-25T15:35:07Z</time>
<speed>2.880000</speed>
<extensions>
<speed>2.9</speed>
<temp>0.00</temp>
<bpm>0</bpm>
<rpm>0.00</rpm>
</extensions>
</trkpt>
<trkpt lat="63.814952850" lon="-18.825334549">
<ele>525.812500</ele>
<time>2012-07-25T15:35:12Z</time>
<speed>2.590000</speed>
<extensions>
<speed>2.6</speed>
<temp>0.00</temp>
<bpm>0</bpm>
<rpm>0.00</rpm>
</extensions>
</trkpt>
<trkpt lat="63.814926147" lon="-18.825656891">
<ele>524.156250</ele>
<time>2012-07-25T15:35:17Z</time>
<speed>4.220000</speed>
<extensions>
<speed>4.2</speed>
<temp>0.00</temp>
<bpm>0</bpm>
<rpm>0.00</rpm>
</extensions>
</trkpt>
<trkpt lat="63.814876556" lon="-18.826120377">
<ele>523.421875</ele>
<time>2012-07-25T15:35:22Z</time>
<speed>4.430000</speed>
<extensions>
<speed>4.4</speed>
<temp>0.00</temp>
<bpm>0</bpm>
<rpm>0.00</rpm>
</extensions>
</trkpt>
<trkpt lat="63.814823151" lon="-18.826419830">
<ele>523.562500</ele>
<time>2012-07-25T15:35:27Z</time>
<speed>2.500000</speed>
<extensions>
<speed>2.5</speed>
<temp>0.00</temp>
<bpm>0</bpm>
<rpm>0.00</rpm>
</extensions>
</trkpt>
<trkpt lat="63.814792633" lon="-18.826595306">
<ele>523.359375</ele>
<time>2012-07-25T15:35:32Z</time>
<speed>2.040000</speed>
<extensions>
<speed>2.0</speed>
<temp>0.00</temp>
<bpm>0</bpm>
<rpm>0.00</rpm>
</extensions>
</trkpt>
<trkpt lat="63.814762115" lon="-18.826808929">
<ele>524.437500</ele>
<time>2012-07-25T15:35:37Z</time>
<speed>1.790000</speed>
<extensions>
<speed>1.8</speed>
<temp>0.00</temp>
<bpm>0</bpm>
<rpm>0.00</rpm>
</extensions>
</trkpt>
<trkpt lat="63.814750671" lon="-18.826993942">
<ele>524.953125</ele>
<time>2012-07-25T15:35:42Z</time>
<speed>1.680000</speed>
<extensions>
<speed>1.7</speed>
<temp>0.00</temp>
<bpm>0</bpm>
<rpm>0.00</rpm>
</extensions>
</trkpt>
<trkpt lat="63.814769745" lon="-18.827178955">
<ele>525.140625</ele>
<time>2012-07-25T15:35:47Z</time>
<speed>2.230000</speed>
<extensions>
<speed>2.2</speed>
<temp>0.00</temp>
<bpm>0</bpm>
<rpm>0.00</rpm>
</extensions>
</trkpt>
<trkpt lat="63.814830780" lon="-18.827365875">
<ele>524.796875</ele>
<time>2012-07-25T15:35:52Z</time>
<speed>1.940000</speed>
<extensions>
<speed>1.9</speed>
<temp>0.00</temp>
<bpm>0</bpm>
<rpm>0.00</rpm>
</extensions>
</trkpt>
<trkpt lat="63.814899445" lon="-18.827478409">
<ele>525.750000</ele>
<time>2012-07-25T15:35:57Z</time>
<speed>1.800000</speed>
<extensions>
<speed>1.8</speed>
<temp>0.00</temp>
<bpm>0</bpm>
<rpm>0.00</rpm>
</extensions>
</trkpt>
<trkpt lat="63.814960480" lon="-18.827756882">
<ele>524.671875</ele>
<time>2012-07-25T15:36:02Z</time>
<speed>4.510000</speed>
<extensions>
<speed>4.5</speed>
<temp>0.00</temp>
<bpm>0</bpm>
<rpm>0.00</rpm>
</extensions>
</trkpt>
<trkpt lat="63.814987183" lon="-18.828178406">
<ele>525.703125</ele>
<time>2012-07-25T15:36:07Z</time>
<speed>3.590000</speed>
<extensions>
<speed>3.6</speed>
<temp>0.00</temp>
<bpm>0</bpm>
<rpm>0.00</rpm>
</extensions>
</trkpt>
<trkpt lat="63.814975739" lon="-18.828470230">
<ele>525.796875</ele>
<time>2012-07-25T15:36:12Z</time>
<speed>2.370000</speed>
<extensions>
<speed>2.4</speed>
<temp>0.00</temp>
<bpm>0</bpm>
<rpm>0.00</rpm>
</extensions>
</trkpt>
<trkpt lat="63.814945221" lon="-18.828731537">
<ele>527.359375</ele>
<time>2012-07-25T15:36:17Z</time>
<speed>2.910000</speed>
<extensions>
<speed>2.9</speed>
<temp>0.00</temp>
<bpm>0</bpm>
<rpm>0.00</rpm>
</extensions>
</trkpt>
<trkpt lat="63.814910889" lon="-18.828979492">
<ele>525.000000</ele>
<time>2012-07-25T15:36:22Z</time>
<speed>1.990000</speed>
<extensions>
<speed>2.0</speed>
<temp>0.00</temp>
<bpm>0</bpm>
<rpm>0.00</rpm>
</extensions>
</trkpt>
<trkpt lat="63.814907074" lon="-18.829196930">
<ele>524.421875</ele>
<time>2012-07-25T15:36:27Z</time>
<speed>2.560000</speed>
<extensions>
<speed>2.6</speed>
<temp>0.00</temp>
<bpm>0</bpm>
<rpm>0.00</rpm>
</extensions>
</trkpt>
<trkpt lat="63.814891815" lon="-18.829492569">
<ele>523.250000</ele>
<time>2012-07-25T15:36:32Z</time>
<speed>2.660000</speed>
<extensions>
<speed>2.7</speed>
<temp>0.00</temp>
<bpm>0</bpm>
<rpm>0.00</rpm>
</extensions>
</trkpt>
<trkpt lat="63.814914703" lon="-18.829792023">
<ele>525.937500</ele>
<time>2012-07-25T15:36:37Z</time>
<speed>2.580000</speed>
<extensions>
<speed>2.6</speed>
<temp>0.00</temp>
<bpm>0</bpm>
<rpm>0.00</rpm>
</extensions>
</trkpt>
<trkpt lat="63.814922333" lon="-18.830022812">
<ele>526.531250</ele>
<time>2012-07-25T15:36:42Z</time>
<speed>2.200000</speed>
<extensions>
<speed>2.2</speed>
<temp>0.00</temp>
<bpm>0</bpm>
<rpm>0.00</rpm>
</extensions>
</trkpt>
<trkpt lat="63.814899445" lon="-18.830268860">
<ele>525.171875</ele>
<time>2012-07-25T15:36:47Z</time>
<speed>2.680000</speed>
<extensions>
<speed>2.7</speed>
<temp>0.00</temp>
<bpm>0</bpm>
<rpm>0.00</rpm>
</extensions>
</trkpt>
<trkpt lat="63.814865112" lon="-18.830480576">
<ele>526.296875</ele>
<time>2012-07-25T15:36:52Z</time>
<speed>2.340000</speed>
<extensions>
<speed>2.3</speed>
<temp>0.00</temp>
<bpm>0</bpm>
<rpm>0.00</rpm>
</extensions>
</trkpt>
<trkpt lat="63.814769745" lon="-18.830762863">
<ele>527.562500</ele>
<time>2012-07-25T15:36:57Z</time>
<speed>4.130000</speed>
<extensions>
<speed>4.1</speed>
<temp>0.00</temp>
<bpm>0</bpm>
<rpm>0.00</rpm>
</extensions>
</trkpt>
<trkpt lat="63.814643860" lon="-18.831066132">
<ele>527.859375</ele>
<time>2012-07-25T15:37:02Z</time>
<speed>3.080000</speed>
<extensions>
<speed>3.1</speed>
<temp>0.00</temp>
<bpm>0</bpm>
<rpm>0.00</rpm>
</extensions>
</trkpt>
<trkpt lat="63.814548492" lon="-18.831293106">
<ele>525.796875</ele>
<time>2012-07-25T15:37:07Z</time>
<speed>3.080000</speed>
<extensions>
<speed>3.1</speed>
<temp>0.00</temp>
<bpm>0</bpm>
<rpm>0.00</rpm>
</extensions>
</trkpt>
<trkpt lat="63.814487457" lon="-18.831533432">
<ele>528.546875</ele>
<time>2012-07-25T15:37:12Z</time>
<speed>3.770000</speed>
<extensions>
<speed>3.8</speed>
<temp>0.00</temp>
<bpm>0</bpm>
<rpm>0.00</rpm>
</extensions>
</trkpt>
<trkpt lat="63.814430237" lon="-18.831842422">
<ele>526.062500</ele>
<time>2012-07-25T15:37:17Z</time>
<speed>4.150000</speed>
<extensions>
<speed>4.1</speed>
<temp>0.00</temp>
<bpm>0</bpm>
<rpm>0.00</rpm>
</extensions>
</trkpt>
<trkpt lat="63.814357758" lon="-18.832290649">
<ele>524.187500</ele>
<time>2012-07-25T15:37:22Z</time>
<speed>4.490000</speed>
<extensions>
<speed>4.5</speed>
<temp>0.00</temp>
<bpm>0</bpm>
<rpm>0.00</rpm>
</extensions>
</trkpt>
<trkpt lat="63.814300537" lon="-18.832681656">
<ele>523.312500</ele>
<time>2012-07-25T15:37:27Z</time>
<speed>3.620000</speed>
<extensions>
<speed>3.6</speed>
<temp>0.00</temp>
<bpm>0</bpm>
<rpm>0.00</rpm>
</extensions>
</trkpt>
<trkpt lat="63.814266205" lon="-18.833087921">
<ele>522.953125</ele>
<time>2012-07-25T15:37:32Z</time>
<speed>4.280000</speed>
<extensions>
<speed>4.3</speed>
<temp>0.00</temp>
<bpm>0</bpm>
<rpm>0.00</rpm>
</extensions>
</trkpt>
<trkpt lat="63.814239502" lon="-18.833553314">
<ele>522.203125</ele>
<time>2012-07-25T15:37:37Z</time>
<speed>4.290000</speed>
<extensions>
<speed>4.3</speed>
<temp>0.00</temp>
<bpm>0</bpm>
<rpm>0.00</rpm>
</extensions>
</trkpt>
<trkpt lat="63.814201355" lon="-18.833982468">
<ele>520.609375</ele>
<time>2012-07-25T15:37:42Z</time>
<speed>4.310000</speed>
<extensions>
<speed>4.3</speed>
<temp>0.00</temp>
<bpm>0</bpm>
<rpm>0.00</rpm>
</extensions>
</trkpt>
<trkpt lat="63.814105988" lon="-18.834358215">
<ele>519.031250</ele>
<time>2012-07-25T15:37:47Z</time>
<speed>4.690000</speed>
<extensions>
<speed>4.7</speed>
<temp>0.00</temp>
<bpm>0</bpm>
<rpm>0.00</rpm>
</extensions>
</trkpt>
<trkpt lat="63.813907623" lon="-18.834672928">
<ele>516.593750</ele>
<time>2012-07-25T15:37:52Z</time>
<speed>5.580000</speed>
<extensions>
<speed>5.6</speed>
<temp>0.00</temp>
<bpm>0</bpm>
<rpm>0.00</rpm>
</extensions>
</trkpt>
<trkpt lat="63.813713074" lon="-18.834962845">
<ele>518.406250</ele>
<time>2012-07-25T15:37:57Z</time>
<speed>4.030000</speed>
<extensions>
<speed>4.0</speed>
<temp>0.00</temp>
<bpm>0</bpm>
<rpm>0.00</rpm>
</extensions>
</trkpt>
<trkpt lat="63.813583374" lon="-18.835226059">
<ele>519.453125</ele>
<time>2012-07-25T15:38:02Z</time>
<speed>3.820000</speed>
<extensions>
<speed>3.8</speed>
<temp>0.00</temp>
<bpm>0</bpm>
<rpm>0.00</rpm>
</extensions>
</trkpt>
<trkpt lat="63.813472748" lon="-18.835538864">
<ele>522.328125</ele>
<time>2012-07-25T15:38:07Z</time>
<speed>3.880000</speed>
<extensions>
<speed>3.9</speed>
<temp>0.00</temp>
<bpm>0</bpm>
<rpm>0.00</rpm>
</extensions>
</trkpt>
<trkpt lat="63.813369751" lon="-18.835840225">
<ele>523.359375</ele>
<time>2012-07-25T15:38:12Z</time>
<speed>3.920000</speed>
<extensions>
<speed>3.9</speed>
<temp>0.00</temp>
<bpm>0</bpm>
<rpm>0.00</rpm>
</extensions>
</trkpt>
<trkpt lat="63.813247681" lon="-18.836141586">
<ele>523.625000</ele>
<time>2012-07-25T15:38:17Z</time>
<speed>3.700000</speed>
<extensions>
<speed>3.7</speed>
<temp>0.00</temp>
<bpm>0</bpm>
<rpm>0.00</rpm>
</extensions>
</trkpt>
<trkpt lat="63.813137054" lon="-18.836420059">
<ele>524.593750</ele>
<time>2012-07-25T15:38:22Z</time>
<speed>3.800000</speed>
<extensions>
<speed>3.8</speed>
<temp>0.00</temp>
<bpm>0</bpm>
<rpm>0.00</rpm>
</extensions>
</trkpt>
<trkpt lat="63.813034058" lon="-18.836696625">
<ele>527.484375</ele>
<time>2012-07-25T15:38:27Z</time>
<speed>3.470000</speed>
<extensions>
<speed>3.5</speed>
<temp>0.00</temp>
<bpm>0</bpm>
<rpm>0.00</rpm>
</extensions>
</trkpt>
<trkpt lat="63.812938690" lon="-18.836952209">
<ele>527.296875</ele>
<time>2012-07-25T15:38:32Z</time>
<speed>2.890000</speed>
<extensions>
<speed>2.9</speed>
<temp>0.00</temp>
<bpm>0</bpm>
<rpm>0.00</rpm>
</extensions>
</trkpt>
<trkpt lat="63.812870026" lon="-18.837160110">
<ele>528.859375</ele>
<time>2012-07-25T15:38:37Z</time>
<speed>1.990000</speed>
<extensions>
<speed>2.0</speed>
<temp>0.00</temp>
<bpm>0</bpm>
<rpm>0.00</rpm>
</extensions>
</trkpt>
<trkpt lat="63.812858582" lon="-18.837163925">
<ele>529.218750</ele>
<time>2012-07-25T15:38:42Z</time>
<extensions>
<speed>0.0</speed>
<temp>0.00</temp>
<bpm>0</bpm>
<rpm>0.00</rpm>
</extensions>
</trkpt>
<trkpt lat="63.812858582" lon="-18.837162018">
<ele>529.218750</ele>
<time>2012-07-25T15:38:47Z</time>
<speed>0.010000</speed>
<extensions>
<speed>0.0</speed>
<temp>0.00</temp>
<bpm>0</bpm>
<rpm>0.00</rpm>
</extensions>
</trkpt>
<trkpt lat="63.812858582" lon="-18.837162018">
<ele>529.203125</ele>
<time>2012-07-25T15:38:52Z</time>
<speed>0.010000</speed>
<extensions>
<speed>0.0</speed>
<temp>0.00</temp>
<bpm>0</bpm>
<rpm>0.00</rpm>
</extensions>
</trkpt>
<trkpt lat="63.812858582" lon="-18.837162018">
<ele>529.187500</ele>
<time>2012-07-25T15:38:57Z</time>
<extensions>
<speed>0.0</speed>
<temp>0.00</temp>
<bpm>0</bpm>
<rpm>0.00</rpm>
</extensions>
</trkpt>
<trkpt lat="63.812858582" lon="-18.837162018">
<ele>529.187500</ele>
<time>2012-07-25T15:39:02Z</time>
<speed>0.010000</speed>
<extensions>
<speed>0.0</speed>
<temp>0.00</temp>
<bpm>0</bpm>
<rpm>0.00</rpm>
</extensions>
</trkpt>
<trkpt lat="63.812858582" lon="-18.837160110">
<ele>529.125000</ele>
<time>2012-07-25T15:39:07Z</time>
<speed>0.200000</speed>
<extensions>
<speed>0.2</speed>
<temp>0.00</temp>
<bpm>0</bpm>
<rpm>0.00</rpm>
</extensions>
</trkpt>
<trkpt lat="63.812862396" lon="-18.837146759">
<ele>529.312500</ele>
<time>2012-07-25T15:39:12Z</time>
<speed>0.340000</speed>
<extensions>
<speed>0.3</speed>
<temp>0.00</temp>
<bpm>0</bpm>
<rpm>0.00</rpm>
</extensions>
</trkpt>
<trkpt lat="63.812870026" lon="-18.837150574">
<ele>529.375000</ele>
<time>2012-07-25T15:39:17Z</time>
<speed>0.960000</speed>
<extensions>
<speed>1.0</speed>
<temp>0.00</temp>
<bpm>0</bpm>
<rpm>0.00</rpm>
</extensions>
</trkpt>
<trkpt lat="63.812969208" lon="-18.837152481">
<ele>529.515625</ele>
<time>2012-07-25T15:39:22Z</time>
<speed>3.110000</speed>
<extensions>
<speed>3.1</speed>
<temp>0.00</temp>
<bpm>0</bpm>
<rpm>0.00</rpm>
</extensions>
</trkpt>
<trkpt lat="63.813117981" lon="-18.837291718">
<ele>526.890625</ele>
<time>2012-07-25T15:39:27Z</time>
<speed>3.670000</speed>
<extensions>
<speed>3.7</speed>
<temp>0.00</temp>
<bpm>0</bpm>
<rpm>0.00</rpm>
</extensions>
</trkpt>
<trkpt lat="63.813236237" lon="-18.837560654">
<ele>523.734375</ele>
<time>2012-07-25T15:39:32Z</time>
<speed>4.050000</speed>
<extensions>
<speed>4.0</speed>
<temp>0.00</temp>
<bpm>0</bpm>
<rpm>0.00</rpm>
</extensions>
</trkpt>
<trkpt lat="63.813350677" lon="-18.837982178">
<ele>526.078125</ele>
<time>2012-07-25T15:39:37Z</time>
<speed>5.330000</speed>
<extensions>
<speed>5.3</speed>
<temp>0.00</temp>
<bpm>0</bpm>
<rpm>0.00</rpm>
</extensions>
</trkpt>
<trkpt lat="63.813442230" lon="-18.838430405">
<ele>524.984375</ele>
<time>2012-07-25T15:39:42Z</time>
<speed>4.480000</speed>
<extensions>
<speed>4.5</speed>
<temp>0.00</temp>
<bpm>0</bpm>
<rpm>0.00</rpm>
</extensions>
</trkpt>
<trkpt lat="63.813507080" lon="-18.838817596">
<ele>521.906250</ele>
<time>2012-07-25T15:39:47Z</time>
<speed>3.380000</speed>
<extensions>
<speed>3.4</speed>
<temp>0.00</temp>
<bpm>0</bpm>
<rpm>0.00</rpm>
</extensions>
</trkpt>
<trkpt lat="63.813575745" lon="-18.839088440">
<ele>522.140625</ele>
<time>2012-07-25T15:39:52Z</time>
<speed>3.090000</speed>
<extensions>
<speed>3.1</speed>
<temp>0.00</temp>
<bpm>0</bpm>
<rpm>0.00</rpm>
</extensions>
</trkpt>
<trkpt lat="63.813629150" lon="-18.839363098">
<ele>521.218750</ele>
<time>2012-07-25T15:39:57Z</time>
<speed>2.170000</speed>
<extensions>
<speed>2.2</speed>
<temp>0.00</temp>
<bpm>0</bpm>
<rpm>0.00</rpm>
</extensions>
</trkpt>
<trkpt lat="63.813667297" lon="-18.839569092">
<ele>522.390625</ele>
<time>2012-07-25T15:40:02Z</time>
<speed>2.470000</speed>
<extensions>
<speed>2.5</speed>
<temp>0.00</temp>
<bpm>0</bpm>
<rpm>0.00</rpm>
</extensions>
</trkpt>
<trkpt lat="63.813705444" lon="-18.839822769">
<ele>522.375000</ele>
<time>2012-07-25T15:40:07Z</time>
<speed>3.050000</speed>
<extensions>
<speed>3.0</speed>
<temp>0.00</temp>
<bpm>0</bpm>
<rpm>0.00</rpm>
</extensions>
</trkpt>
<trkpt lat="63.813751221" lon="-18.840131760">
<ele>522.375000</ele>
<time>2012-07-25T15:40:12Z</time>
<speed>3.520000</speed>
<extensions>
<speed>3.5</speed>
<temp>0.00</temp>
<bpm>0</bpm>
<rpm>0.00</rpm>
</extensions>
</trkpt>
<trkpt lat="63.813789368" lon="-18.840475082">
<ele>526.125000</ele>
<time>2012-07-25T15:40:17Z</time>
<speed>3.560000</speed>
<extensions>
<speed>3.6</speed>
<temp>0.00</temp>
<bpm>0</bpm>
<rpm>0.00</rpm>
</extensions>
</trkpt>
<trkpt lat="63.813842773" lon="-18.840843201">
<ele>525.953125</ele>
<time>2012-07-25T15:40:22Z</time>
<speed>3.880000</speed>
<extensions>
<speed>3.9</speed>
<temp>0.00</temp>
<bpm>0</bpm>
<rpm>0.00</rpm>
</extensions>
</trkpt>
<trkpt lat="63.813926697" lon="-18.841228485">
<ele>526.875000</ele>
<time>2012-07-25T15:40:27Z</time>
<speed>3.920000</speed>
<extensions>
<speed>3.9</speed>
<temp>0.00</temp>
<bpm>0</bpm>
<rpm>0.00</rpm>
</extensions>
</trkpt>
<trkpt lat="63.814033508" lon="-18.841524124">
<ele>525.359375</ele>
<time>2012-07-25T15:40:32Z</time>
<speed>3.790000</speed>
<extensions>
<speed>3.8</speed>
<temp>0.00</temp>
<bpm>0</bpm>
<rpm>0.00</rpm>
</extensions>
</trkpt>
<trkpt lat="63.814167023" lon="-18.841751099">
<ele>524.765625</ele>
<time>2012-07-25T15:40:37Z</time>
<speed>3.990000</speed>
<extensions>
<speed>4.0</speed>
<temp>0.00</temp>
<bpm>0</bpm>
<rpm>0.00</rpm>
</extensions>
</trkpt>
<trkpt lat="63.814296722" lon="-18.841979980">
<ele>522.703125</ele>
<time>2012-07-25T15:40:42Z</time>
<speed>3.400000</speed>
<extensions>
<speed>3.4</speed>
<temp>0.00</temp>
<bpm>0</bpm>
<rpm>0.00</rpm>
</extensions>
</trkpt>
<trkpt lat="63.814422607" lon="-18.842252731">
<ele>521.468750</ele>
<time>2012-07-25T15:40:47Z</time>
<speed>3.940000</speed>
<extensions>
<speed>3.9</speed>
<temp>0.00</temp>
<bpm>0</bpm>
<rpm>0.00</rpm>
</extensions>
</trkpt>
<trkpt lat="63.814537048" lon="-18.842514038">
<ele>524.312500</ele>
<time>2012-07-25T15:40:52Z</time>
<speed>3.670000</speed>
<extensions>
<speed>3.7</speed>
<temp>0.00</temp>
<bpm>0</bpm>
<rpm>0.00</rpm>
</extensions>
</trkpt>
<trkpt lat="63.814647675" lon="-18.842781067">
<ele>525.015625</ele>
<time>2012-07-25T15:40:57Z</time>
<speed>3.710000</speed>
<extensions>
<speed>3.7</speed>
<temp>0.00</temp>
<bpm>0</bpm>
<rpm>0.00</rpm>
</extensions>
</trkpt>
<trkpt lat="63.814758301" lon="-18.843072891">
<ele>527.406250</ele>
<time>2012-07-25T15:41:02Z</time>
<speed>3.720000</speed>
<extensions>
<speed>3.7</speed>
<temp>0.00</temp>
<bpm>0</bpm>
<rpm>0.00</rpm>
</extensions>
</trkpt>
<trkpt lat="63.814865112" lon="-18.843376160">
<ele>529.968750</ele>
<time>2012-07-25T15:41:07Z</time>
<speed>3.710000</speed>
<extensions>
<speed>3.7</speed>
<temp>0.00</temp>
<bpm>0</bpm>
<rpm>0.00</rpm>
</extensions>
</trkpt>
<trkpt lat="63.814952850" lon="-18.843681335">
<ele>531.625000</ele>
<time>2012-07-25T15:41:12Z</time>
<speed>3.130000</speed>
<extensions>
<speed>3.1</speed>
<temp>0.00</temp>
<bpm>0</bpm>
<rpm>0.00</rpm>
</extensions>
</trkpt>
<trkpt lat="63.815029144" lon="-18.843914032">
<ele>533.546875</ele>
<time>2012-07-25T15:41:17Z</time>
<speed>3.000000</speed>
<extensions>
<speed>3.0</speed>
<temp>0.00</temp>
<bpm>0</bpm>
<rpm>0.00</rpm>
</extensions>
</trkpt>
<trkpt lat="63.815109253" lon="-18.844194412">
<ele>533.375000</ele>
<time>2012-07-25T15:41:22Z</time>
<speed>3.340000</speed>
<extensions>
<speed>3.3</speed>
<temp>0.00</temp>
<bpm>0</bpm>
<rpm>0.00</rpm>
</extensions>
</trkpt>
<trkpt lat="63.815196991" lon="-18.844474792">
<ele>534.359375</ele>
<time>2012-07-25T15:41:27Z</time>
<speed>3.470000</speed>
<extensions>
<speed>3.5</speed>
<temp>0.00</temp>
<bpm>0</bpm>
<rpm>0.00</rpm>
</extensions>
</trkpt>
<trkpt lat="63.815284729" lon="-18.844764709">
<ele>533.421875</ele>
<time>2012-07-25T15:41:32Z</time>
<speed>3.530000</speed>
<extensions>
<speed>3.5</speed>
<temp>0.00</temp>
<bpm>0</bpm>
<rpm>0.00</rpm>
</extensions>
</trkpt>
<trkpt lat="63.815387726" lon="-18.845016479">
<ele>533.828125</ele>
<time>2012-07-25T15:41:37Z</time>
<speed>3.820000</speed>
<extensions>
<speed>3.8</speed>
<temp>0.00</temp>
<bpm>0</bpm>
<rpm>0.00</rpm>
</extensions>
</trkpt>
<trkpt lat="63.815502167" lon="-18.845306396">
<ele>533.828125</ele>
<time>2012-07-25T15:41:42Z</time>
<speed>3.670000</speed>
<extensions>
<speed>3.7</speed>
<temp>0.00</temp>
<bpm>0</bpm>
<rpm>0.00</rpm>
</extensions>
</trkpt>
<trkpt lat="63.815620422" lon="-18.845584869">
<ele>535.281250</ele>
<time>2012-07-25T15:41:47Z</time>
<speed>4.000000</speed>
<extensions>
<speed>4.0</speed>
<temp>0.00</temp>
<bpm>0</bpm>
<rpm>0.00</rpm>
</extensions>
</trkpt>
<trkpt lat="63.815750122" lon="-18.845849991">
<ele>540.062500</ele>
<time>2012-07-25T15:41:52Z</time>
<speed>3.800000</speed>
<extensions>
<speed>3.8</speed>
<temp>0.00</temp>
<bpm>0</bpm>
<rpm>0.00</rpm>
</extensions>
</trkpt>
<trkpt lat="63.815856934" lon="-18.846164703">
<ele>541.062500</ele>
<time>2012-07-25T15:41:57Z</time>
<speed>3.770000</speed>
<extensions>
<speed>3.8</speed>
<temp>0.00</temp>
<bpm>0</bpm>
<rpm>0.00</rpm>
</extensions>
</trkpt>
<trkpt lat="63.815937042" lon="-18.846405029">
<ele>541.093750</ele>
<time>2012-07-25T15:42:02Z</time>
<speed>2.170000</speed>
<extensions>
<speed>2.2</speed>
<temp>0.00</temp>
<bpm>0</bpm>
<rpm>0.00</rpm>
</extensions>
</trkpt>
<trkpt lat="63.815990448" lon="-18.846580505">
<ele>539.453125</ele>
<time>2012-07-25T15:42:07Z</time>
<speed>2.820000</speed>
<extensions>
<speed>2.8</speed>
<temp>0.00</temp>
<bpm>0</bpm>
<rpm>0.00</rpm>
</extensions>
</trkpt>
<trkpt lat="63.816055298" lon="-18.846824646">
<ele>539.312500</ele>
<time>2012-07-25T15:42:12Z</time>
<speed>2.770000</speed>
<extensions>
<speed>2.8</speed>
<temp>0.00</temp>
<bpm>0</bpm>
<rpm>0.00</rpm>
</extensions>
</trkpt>
<trkpt lat="63.816123962" lon="-18.847063065">
<ele>539.000000</ele>
<time>2012-07-25T15:42:17Z</time>
<speed>2.870000</speed>
<extensions>
<speed>2.9</speed>
<temp>0.00</temp>
<bpm>0</bpm>
<rpm>0.00</rpm>
</extensions>
</trkpt>
<trkpt lat="63.816219330" lon="-18.847267151">
<ele>538.546875</ele>
<time>2012-07-25T15:42:22Z</time>
<speed>3.070000</speed>
<extensions>
<speed>3.1</speed>
<temp>0.00</temp>
<bpm>0</bpm>
<rpm>0.00</rpm>
</extensions>
</trkpt>
<trkpt lat="63.816299438" lon="-18.847442627">
<ele>537.265625</ele>
<time>2012-07-25T15:42:27Z</time>
<speed>2.240000</speed>
<extensions>
<speed>2.2</speed>
<temp>0.00</temp>
<bpm>0</bpm>
<rpm>0.00</rpm>
</extensions>
</trkpt>
<trkpt lat="63.816390991" lon="-18.847616196">
<ele>537.328125</ele>
<time>2012-07-25T15:42:32Z</time>
<speed>2.800000</speed>
<extensions>
<speed>2.8</speed>
<temp>0.00</temp>
<bpm>0</bpm>
<rpm>0.00</rpm>
</extensions>
</trkpt>
<trkpt lat="63.816497803" lon="-18.847799301">
<ele>538.125000</ele>
<time>2012-07-25T15:42:37Z</time>
<speed>2.910000</speed>
<extensions>
<speed>2.9</speed>
<temp>0.00</temp>
<bpm>0</bpm>
<rpm>0.00</rpm>
</extensions>
</trkpt>
<trkpt lat="63.816612244" lon="-18.847980499">
<ele>538.687500</ele>
<time>2012-07-25T15:42:42Z</time>
<speed>3.240000</speed>
<extensions>
<speed>3.2</speed>
<temp>0.00</temp>
<bpm>0</bpm>
<rpm>0.00</rpm>
</extensions>
</trkpt>
<trkpt lat="63.816719055" lon="-18.848217010">
<ele>537.687500</ele>
<time>2012-07-25T15:42:47Z</time>
<speed>3.220000</speed>
<extensions>
<speed>3.2</speed>
<temp>0.00</temp>
<bpm>0</bpm>
<rpm>0.00</rpm>
</extensions>
</trkpt>
<trkpt lat="63.816822052" lon="-18.848438263">
<ele>537.078125</ele>
<time>2012-07-25T15:42:52Z</time>
<speed>3.660000</speed>
<extensions>
<speed>3.7</speed>
<temp>0.00</temp>
<bpm>0</bpm>
<rpm>0.00</rpm>
</extensions>
</trkpt>
<trkpt lat="63.816944122" lon="-18.848682404">
<ele>534.687500</ele>
<time>2012-07-25T15:42:57Z</time>
<speed>3.420000</speed>
<extensions>
<speed>3.4</speed>
<temp>0.00</temp>
<bpm>0</bpm>
<rpm>0.00</rpm>
</extensions>
</trkpt>
<trkpt lat="63.817062378" lon="-18.848934174">
<ele>534.437500</ele>
<time>2012-07-25T15:43:02Z</time>
<speed>3.600000</speed>
<extensions>
<speed>3.6</speed>
<temp>0.00</temp>
<bpm>0</bpm>
<rpm>0.00</rpm>
</extensions>
</trkpt>
<trkpt lat="63.817176819" lon="-18.849189758">
<ele>532.421875</ele>
<time>2012-07-25T15:43:07Z</time>
<speed>3.610000</speed>
<extensions>
<speed>3.6</speed>
<temp>0.00</temp>
<bpm>0</bpm>
<rpm>0.00</rpm>
</extensions>
</trkpt>
<trkpt lat="63.817287445" lon="-18.849454880">
<ele>531.375000</ele>
<time>2012-07-25T15:43:12Z</time>
<speed>3.470000</speed>
<extensions>
<speed>3.5</speed>
<temp>0.00</temp>
<bpm>0</bpm>
<rpm>0.00</rpm>
</extensions>
</trkpt>
<trkpt lat="63.817386627" lon="-18.849752426">
<ele>533.328125</ele>
<time>2012-07-25T15:43:17Z</time>
<speed>3.760000</speed>
<extensions>
<speed>3.8</speed>
<temp>0.00</temp>
<bpm>0</bpm>
<rpm>0.00</rpm>
</extensions>
</trkpt>
<trkpt lat="63.817493439" lon="-18.850049973">
<ele>533.109375</ele>
<time>2012-07-25T15:43:22Z</time>
<speed>3.750000</speed>
<extensions>
<speed>3.8</speed>
<temp>0.00</temp>
<bpm>0</bpm>
<rpm>0.00</rpm>
</extensions>
</trkpt>
<trkpt lat="63.817611694" lon="-18.850328445">
<ele>536.234375</ele>
<time>2012-07-25T15:43:27Z</time>
<speed>3.790000</speed>
<extensions>
<speed>3.8</speed>
<temp>0.00</temp>
<bpm>0</bpm>
<rpm>0.00</rpm>
</extensions>
</trkpt>
<trkpt lat="63.817737579" lon="-18.850603104">
<ele>531.593750</ele>
<time>2012-07-25T15:43:32Z</time>
<speed>4.070000</speed>
<extensions>
<speed>4.1</speed>
<temp>0.00</temp>
<bpm>0</bpm>
<rpm>0.00</rpm>
</extensions>
</trkpt>
<trkpt lat="63.817844391" lon="-18.850902557">
<ele>532.078125</ele>
<time>2012-07-25T15:43:37Z</time>
<speed>3.960000</speed>
<extensions>
<speed>4.0</speed>
<temp>0.00</temp>
<bpm>0</bpm>
<rpm>0.00</rpm>
</extensions>
</trkpt>
<trkpt lat="63.817958832" lon="-18.851226807">
<ele>528.359375</ele>
<time>2012-07-25T15:43:42Z</time>
<speed>4.000000</speed>
<extensions>
<speed>4.0</speed>
<temp>0.00</temp>
<bpm>0</bpm>
<rpm>0.00</rpm>
</extensions>
</trkpt>
<trkpt lat="63.818077087" lon="-18.851493835">
<ele>531.671875</ele>
<time>2012-07-25T15:43:47Z</time>
<speed>3.550000</speed>
<extensions>
<speed>3.5</speed>
<temp>0.00</temp>
<bpm>0</bpm>
<rpm>0.00</rpm>
</extensions>
</trkpt>
<trkpt lat="63.818202972" lon="-18.851705551">
<ele>533.968750</ele>
<time>2012-07-25T15:43:52Z</time>
<speed>3.590000</speed>
<extensions>
<speed>3.6</speed>
<temp>0.00</temp>
<bpm>0</bpm>
<rpm>0.00</rpm>
</extensions>
</trkpt>
<trkpt lat="63.818351746" lon="-18.851879120">
<ele>540.296875</ele>
<time>2012-07-25T15:43:57Z</time>
<speed>3.350000</speed>
<extensions>
<speed>3.4</speed>
<temp>0.00</temp>
<bpm>0</bpm>
<rpm>0.00</rpm>
</extensions>
</trkpt>
<trkpt lat="63.818462372" lon="-18.852054596">
<ele>539.234375</ele>
<time>2012-07-25T15:44:02Z</time>
<speed>2.450000</speed>
<extensions>
<speed>2.4</speed>
<temp>0.00</temp>
<bpm>0</bpm>
<rpm>0.00</rpm>
</extensions>
</trkpt>
<trkpt lat="63.818550110" lon="-18.852226257">
<ele>538.359375</ele>
<time>2012-07-25T15:44:07Z</time>
<speed>2.420000</speed>
<extensions>
<speed>2.4</speed>
<temp>0.00</temp>
<bpm>0</bpm>
<rpm>0.00</rpm>
</extensions>
</trkpt>
<trkpt lat="63.818611145" lon="-18.852386475">
<ele>538.453125</ele>
<time>2012-07-25T15:44:12Z</time>
<speed>2.310000</speed>
<extensions>
<speed>2.3</speed>
<temp>0.00</temp>
<bpm>0</bpm>
<rpm>0.00</rpm>
</extensions>
</trkpt>
<trkpt lat="63.818675995" lon="-18.852594376">
<ele>538.671875</ele>
<time>2012-07-25T15:44:17Z</time>
<speed>2.640000</speed>
<extensions>
<speed>2.6</speed>
<temp>0.00</temp>
<bpm>0</bpm>
<rpm>0.00</rpm>
</extensions>
</trkpt>
<trkpt lat="63.818756104" lon="-18.852798462">
<ele>537.875000</ele>
<time>2012-07-25T15:44:22Z</time>
<speed>2.850000</speed>
<extensions>
<speed>2.9</speed>
<temp>0.00</temp>
<bpm>0</bpm>
<rpm>0.00</rpm>
</extensions>
</trkpt>
<trkpt lat="63.818859100" lon="-18.852973938">
<ele>537.484375</ele>
<time>2012-07-25T15:44:27Z</time>
<speed>3.130000</speed>
<extensions>
<speed>3.1</speed>
<temp>0.00</temp>
<bpm>0</bpm>
<rpm>0.00</rpm>
</extensions>
</trkpt>
<trkpt lat="63.819004059" lon="-18.853071213">
<ele>537.515625</ele>
<time>2012-07-25T15:44:32Z</time>
<speed>3.080000</speed>
<extensions>
<speed>3.1</speed>
<temp>0.00</temp>
<bpm>0</bpm>
<rpm>0.00</rpm>
</extensions>
</trkpt>
<trkpt lat="63.819133759" lon="-18.853197098">
<ele>538.406250</ele>
<time>2012-07-25T15:44:37Z</time>
<speed>3.060000</speed>
<extensions>
<speed>3.1</speed>
<temp>0.00</temp>
<bpm>0</bpm>
<rpm>0.00</rpm>
</extensions>
</trkpt>
<trkpt lat="63.819236755" lon="-18.853404999">
<ele>538.671875</ele>
<time>2012-07-25T15:44:42Z</time>
<speed>3.340000</speed>
<extensions>
<speed>3.3</speed>
<temp>0.00</temp>
<bpm>0</bpm>
<rpm>0.00</rpm>
</extensions>
</trkpt>
<trkpt lat="63.819290161" lon="-18.853727341">
<ele>536.578125</ele>
<time>2012-07-25T15:44:47Z</time>
<speed>3.260000</speed>
<extensions>
<speed>3.3</speed>
<temp>0.00</temp>
<bpm>0</bpm>
<rpm>0.00</rpm>
</extensions>
</trkpt>
<trkpt lat="63.819286346" lon="-18.854028702">
<ele>536.640625</ele>
<time>2012-07-25T15:44:52Z</time>
<speed>2.430000</speed>
<extensions>
<speed>2.4</speed>
<temp>0.00</temp>
<bpm>0</bpm>
<rpm>0.00</rpm>
</extensions>
</trkpt>
<trkpt lat="63.819263458" lon="-18.854246140">
<ele>537.812500</ele>
<time>2012-07-25T15:44:57Z</time>
<speed>2.420000</speed>
<extensions>
<speed>2.4</speed>
<temp>0.00</temp>
<bpm>0</bpm>
<rpm>0.00</rpm>
</extensions>
</trkpt>
<trkpt lat="63.819240570" lon="-18.854511261">
<ele>539.921875</ele>
<time>2012-07-25T15:45:02Z</time>
<speed>2.820000</speed>
<extensions>
<speed>2.8</speed>
<temp>0.00</temp>
<bpm>0</bpm>
<rpm>0.00</rpm>
</extensions>
</trkpt>
<trkpt lat="63.819206238" lon="-18.854791641">
<ele>540.375000</ele>
<time>2012-07-25T15:45:07Z</time>
<speed>2.750000</speed>
<extensions>
<speed>2.7</speed>
<temp>0.00</temp>
<bpm>0</bpm>
<rpm>0.00</rpm>
</extensions>
</trkpt>
<trkpt lat="63.819171906" lon="-18.855062485">
<ele>539.796875</ele>
<time>2012-07-25T15:45:12Z</time>
<speed>2.780000</speed>
<extensions>
<speed>2.8</speed>
<temp>0.00</temp>
<bpm>0</bpm>
<rpm>0.00</rpm>
</extensions>
</trkpt>
<trkpt lat="63.819129944" lon="-18.855287552">
<ele>540.828125</ele>
<time>2012-07-25T15:45:17Z</time>
<speed>2.100000</speed>
<extensions>
<speed>2.1</speed>
<temp>0.00</temp>
<bpm>0</bpm>
<rpm>0.00</rpm>
</extensions>
</trkpt>
<trkpt lat="63.819076538" lon="-18.855466843">
<ele>540.765625</ele>
<time>2012-07-25T15:45:22Z</time>
<speed>2.020000</speed>
<extensions>
<speed>2.0</speed>
<temp>0.00</temp>
<bpm>0</bpm>
<rpm>0.00</rpm>
</extensions>
</trkpt>
<trkpt lat="63.819015503" lon="-18.855651855">
<ele>539.953125</ele>
<time>2012-07-25T15:45:27Z</time>
<speed>2.620000</speed>
<extensions>
<speed>2.6</speed>
<temp>0.00</temp>
<bpm>0</bpm>
<rpm>0.00</rpm>
</extensions>
</trkpt>
<trkpt lat="63.818962097" lon="-18.855861664">
<ele>541.234375</ele>
<time>2012-07-25T15:45:32Z</time>
<speed>2.380000</speed>
<extensions>
<speed>2.4</speed>
<temp>0.00</temp>
<bpm>0</bpm>
<rpm>0.00</rpm>
</extensions>
</trkpt>
<trkpt lat="63.818901062" lon="-18.856084824">
<ele>541.375000</ele>
<time>2012-07-25T15:45:37Z</time>
<speed>2.800000</speed>
<extensions>
<speed>2.8</speed>
<temp>0.00</temp>
<bpm>0</bpm>
<rpm>0.00</rpm>
</extensions>
</trkpt>
<trkpt lat="63.818847656" lon="-18.856294632">
<ele>541.093750</ele>
<time>2012-07-25T15:45:42Z</time>
<speed>1.810000</speed>
<extensions>
<speed>1.8</speed>
<temp>0.00</temp>
<bpm>0</bpm>
<rpm>0.00</rpm>
</extensions>
</trkpt>
<trkpt lat="63.818813324" lon="-18.856485367">
<ele>540.859375</ele>
<time>2012-07-25T15:45:47Z</time>
<speed>2.420000</speed>
<extensions>
<speed>2.4</speed>
<temp>0.00</temp>
<bpm>0</bpm>
<rpm>0.00</rpm>
</extensions>
</trkpt>
<trkpt lat="63.818778992" lon="-18.856697083">
<ele>540.468750</ele>
<time>2012-07-25T15:45:52Z</time>
<speed>2.200000</speed>
<extensions>
<speed>2.2</speed>
<temp>0.00</temp>
<bpm>0</bpm>
<rpm>0.00</rpm>
</extensions>
</trkpt>
<trkpt lat="63.818763733" lon="-18.856885910">
<ele>541.609375</ele>
<time>2012-07-25T15:45:57Z</time>
<speed>2.280000</speed>
<extensions>
<speed>2.3</speed>
<temp>0.00</temp>
<bpm>0</bpm>
<rpm>0.00</rpm>
</extensions>
</trkpt>
<trkpt lat="63.818733215" lon="-18.857126236">
<ele>540.562500</ele>
<time>2012-07-25T15:46:02Z</time>
<speed>2.580000</speed>
<extensions>
<speed>2.6</speed>
<temp>0.00</temp>
<bpm>0</bpm>
<rpm>0.00</rpm>
</extensions>
</trkpt>
<trkpt lat="63.818706512" lon="-18.857372284">
<ele>540.125000</ele>
<time>2012-07-25T15:46:07Z</time>
<speed>2.960000</speed>
<extensions>
<speed>3.0</speed>
<temp>0.00</temp>
<bpm>0</bpm>
<rpm>0.00</rpm>
</extensions>
</trkpt>
<trkpt lat="63.818717957" lon="-18.857683182">
<ele>541.265625</ele>
<time>2012-07-25T15:46:12Z</time>
<speed>2.650000</speed>
<extensions>
<speed>2.6</speed>
<temp>0.00</temp>
<bpm>0</bpm>
<rpm>0.00</rpm>
</extensions>
</trkpt>
<trkpt lat="63.818775177" lon="-18.857931137">
<ele>541.515625</ele>
<time>2012-07-25T15:46:17Z</time>
<speed>3.320000</speed>
<extensions>
<speed>3.3</speed>
<temp>0.00</temp>
<bpm>0</bpm>
<rpm>0.00</rpm>
</extensions>
</trkpt>
<trkpt lat="63.818889618" lon="-18.858184814">
<ele>541.171875</ele>
<time>2012-07-25T15:46:22Z</time>
<speed>3.890000</speed>
<extensions>
<speed>3.9</speed>
<temp>0.00</temp>
<bpm>0</bpm>
<rpm>0.00</rpm>
</extensions>
</trkpt>
<trkpt lat="63.819004059" lon="-18.858526230">
<ele>541.343750</ele>
<time>2012-07-25T15:46:27Z</time>
<speed>4.040000</speed>
<extensions>
<speed>4.0</speed>
<temp>0.00</temp>
<bpm>0</bpm>
<rpm>0.00</rpm>
</extensions>
</trkpt>
<trkpt lat="63.819076538" lon="-18.858871460">
<ele>541.531250</ele>
<time>2012-07-25T15:46:32Z</time>
<speed>3.480000</speed>
<extensions>
<speed>3.5</speed>
<temp>0.00</temp>
<bpm>0</bpm>
<rpm>0.00</rpm>
</extensions>
</trkpt>
<trkpt lat="63.819141388" lon="-18.859216690">
<ele>541.562500</ele>
<time>2012-07-25T15:46:37Z</time>
<speed>3.750000</speed>
<extensions>
<speed>3.8</speed>
<temp>0.00</temp>
<bpm>0</bpm>
<rpm>0.00</rpm>
</extensions>
</trkpt>
<trkpt lat="63.819225311" lon="-18.859617233">
<ele>541.562500</ele>
<time>2012-07-25T15:46:42Z</time>
<speed>3.900000</speed>
<extensions>
<speed>3.9</speed>
<temp>0.00</temp>
<bpm>0</bpm>
<rpm>0.00</rpm>
</extensions>
</trkpt>
<trkpt lat="63.819305420" lon="-18.859989166">
<ele>541.734375</ele>
<time>2012-07-25T15:46:47Z</time>
<speed>4.190000</speed>
<extensions>
<speed>4.2</speed>
<temp>0.00</temp>
<bpm>0</bpm>
<rpm>0.00</rpm>
</extensions>
</trkpt>
<trkpt lat="63.819389343" lon="-18.860353470">
<ele>541.921875</ele>
<time>2012-07-25T15:46:52Z</time>
<speed>4.170000</speed>
<extensions>
<speed>4.2</speed>
<temp>0.00</temp>
<bpm>0</bpm>
<rpm>0.00</rpm>
</extensions>
</trkpt>
<trkpt lat="63.819461823" lon="-18.860733032">
<ele>542.187500</ele>
<time>2012-07-25T15:46:57Z</time>
<speed>4.260000</speed>
<extensions>
<speed>4.3</speed>
<temp>0.00</temp>
<bpm>0</bpm>
<rpm>0.00</rpm>
</extensions>
</trkpt>
<trkpt lat="63.819534302" lon="-18.861124039">
<ele>542.250000</ele>
<time>2012-07-25T15:47:02Z</time>
<speed>4.280000</speed>
<extensions>
<speed>4.3</speed>
<temp>0.00</temp>
<bpm>0</bpm>
<rpm>0.00</rpm>
</extensions>
</trkpt>
<trkpt lat="63.819587708" lon="-18.861543655">
<ele>542.484375</ele>
<time>2012-07-25T15:47:07Z</time>
<speed>4.140000</speed>
<extensions>
<speed>4.1</speed>
<temp>0.00</temp>
<bpm>0</bpm>
<rpm>0.00</rpm>
</extensions>
</trkpt>
<trkpt lat="63.819610596" lon="-18.861961365">
<ele>543.203125</ele>
<time>2012-07-25T15:47:12Z</time>
<speed>3.730000</speed>
<extensions>
<speed>3.7</speed>
<temp>0.00</temp>
<bpm>0</bpm>
<rpm>0.00</rpm>
</extensions>
</trkpt>
<trkpt lat="63.819629669" lon="-18.862335205">
<ele>544.125000</ele>
<time>2012-07-25T15:47:17Z</time>
<speed>4.050000</speed>
<extensions>
<speed>4.0</speed>
<temp>0.00</temp>
<bpm>0</bpm>
<rpm>0.00</rpm>
</extensions>
</trkpt>
<trkpt lat="63.819664001" lon="-18.862756729">
<ele>543.796875</ele>
<time>2012-07-25T15:47:22Z</time>
<speed>4.320000</speed>
<extensions>
<speed>4.3</speed>
<temp>0.00</temp>
<bpm>0</bpm>
<rpm>0.00</rpm>
</extensions>
</trkpt>
<trkpt lat="63.819721222" lon="-18.863134384">
<ele>543.890625</ele>
<time>2012-07-25T15:47:27Z</time>
<speed>3.720000</speed>
<extensions>
<speed>3.7</speed>
<temp>0.00</temp>
<bpm>0</bpm>
<rpm>0.00</rpm>
</extensions>
</trkpt>
<trkpt lat="63.819786072" lon="-18.863454819">
<ele>544.359375</ele>
<time>2012-07-25T15:47:32Z</time>
<speed>2.790000</speed>
<extensions>
<speed>2.8</speed>
<temp>0.00</temp>
<bpm>0</bpm>
<rpm>0.00</rpm>
</extensions>
</trkpt>
<trkpt lat="63.819831848" lon="-18.863681793">
<ele>544.218750</ele>
<time>2012-07-25T15:47:37Z</time>
<speed>2.470000</speed>
<extensions>
<speed>2.5</speed>
<temp>0.00</temp>
<bpm>0</bpm>
<rpm>0.00</rpm>
</extensions>
</trkpt>
<trkpt lat="63.819866180" lon="-18.863956451">
<ele>544.203125</ele>
<time>2012-07-25T15:47:42Z</time>
<speed>2.960000</speed>
<extensions>
<speed>3.0</speed>
<temp>0.00</temp>
<bpm>0</bpm>
<rpm>0.00</rpm>
</extensions>
</trkpt>
<trkpt lat="63.819885254" lon="-18.864271164">
<ele>543.265625</ele>
<time>2012-07-25T15:47:47Z</time>
<speed>3.400000</speed>
<extensions>
<speed>3.4</speed>
<temp>0.00</temp>
<bpm>0</bpm>
<rpm>0.00</rpm>
</extensions>
</trkpt>
<trkpt lat="63.819900513" lon="-18.864675522">
<ele>541.734375</ele>
<time>2012-07-25T15:47:52Z</time>
<speed>4.250000</speed>
<extensions>
<speed>4.3</speed>
<temp>0.00</temp>
<bpm>0</bpm>
<rpm>0.00</rpm>
</extensions>
</trkpt>
<trkpt lat="63.819877625" lon="-18.865093231">
<ele>541.906250</ele>
<time>2012-07-25T15:47:57Z</time>
<speed>3.940000</speed>
<extensions>
<speed>3.9</speed>
<temp>0.00</temp>
<bpm>0</bpm>
<rpm>0.00</rpm>
</extensions>
</trkpt>
<trkpt lat="63.819824219" lon="-18.865514755">
<ele>541.468750</ele>
<time>2012-07-25T15:48:02Z</time>
<speed>4.550000</speed>
<extensions>
<speed>4.5</speed>
<temp>0.00</temp>
<bpm>0</bpm>
<rpm>0.00</rpm>
</extensions>
</trkpt>
<trkpt lat="63.819751740" lon="-18.865961075">
<ele>541.125000</ele>
<time>2012-07-25T15:48:07Z</time>
<speed>4.880000</speed>
<extensions>
<speed>4.9</speed>
<temp>0.00</temp>
<bpm>0</bpm>
<rpm>0.00</rpm>
</extensions>
</trkpt>
<trkpt lat="63.819644928" lon="-18.866405487">
<ele>541.078125</ele>
<time>2012-07-25T15:48:12Z</time>
<speed>5.150000</speed>
<extensions>
<speed>5.2</speed>
<temp>0.00</temp>
<bpm>0</bpm>
<rpm>0.00</rpm>
</extensions>
</trkpt>
<trkpt lat="63.819557190" lon="-18.866861343">
<ele>541.406250</ele>
<time>2012-07-25T15:48:17Z</time>
<speed>4.990000</speed>
<extensions>
<speed>5.0</speed>
<temp>0.00</temp>
<bpm>0</bpm>
<rpm>0.00</rpm>
</extensions>
</trkpt>
<trkpt lat="63.819450378" lon="-18.867294312">
<ele>541.781250</ele>
<time>2012-07-25T15:48:22Z</time>
<speed>4.720000</speed>
<extensions>
<speed>4.7</speed>
<temp>0.00</temp>
<bpm>0</bpm>
<rpm>0.00</rpm>
</extensions>
</trkpt>
<trkpt lat="63.819324493" lon="-18.867679596">
<ele>542.093750</ele>
<time>2012-07-25T15:48:27Z</time>
<speed>5.120000</speed>
<extensions>
<speed>5.1</speed>
<temp>0.00</temp>
<bpm>0</bpm>
<rpm>0.00</rpm>
</extensions>
</trkpt>
<trkpt lat="63.819156647" lon="-18.868068695">
<ele>542.546875</ele>
<time>2012-07-25T15:48:32Z</time>
<speed>5.170000</speed>
<extensions>
<speed>5.2</speed>
<temp>0.00</temp>
<bpm>0</bpm>
<rpm>0.00</rpm>
</extensions>
</trkpt>
<trkpt lat="63.819023132" lon="-18.868469238">
<ele>543.562500</ele>
<time>2012-07-25T15:48:37Z</time>
<speed>5.120000</speed>
<extensions>
<speed>5.1</speed>
<temp>0.00</temp>
<bpm>0</bpm>
<rpm>0.00</rpm>
</extensions>
</trkpt>
<trkpt lat="63.818870544" lon="-18.868871689">
<ele>544.218750</ele>
<time>2012-07-25T15:48:42Z</time>
<speed>5.080000</speed>
<extensions>
<speed>5.1</speed>
<temp>0.00</temp>
<bpm>0</bpm>
<rpm>0.00</rpm>
</extensions>
</trkpt>
<trkpt lat="63.818733215" lon="-18.869235992">
<ele>545.093750</ele>
<time>2012-07-25T15:48:47Z</time>
<speed>4.160000</speed>
<extensions>
<speed>4.2</speed>
<temp>0.00</temp>
<bpm>0</bpm>
<rpm>0.00</rpm>
</extensions>
</trkpt>
<trkpt lat="63.818611145" lon="-18.869628906">
<ele>546.375000</ele>
<time>2012-07-25T15:48:52Z</time>
<speed>4.510000</speed>
<extensions>
<speed>4.5</speed>
<temp>0.00</temp>
<bpm>0</bpm>
<rpm>0.00</rpm>
</extensions>
</trkpt>
<trkpt lat="63.818485260" lon="-18.869955063">
<ele>547.234375</ele>
<time>2012-07-25T15:48:57Z</time>
<speed>4.750000</speed>
<extensions>
<speed>4.8</speed>
<temp>0.00</temp>
<bpm>0</bpm>
<rpm>0.00</rpm>
</extensions>
</trkpt>
<trkpt lat="63.818347931" lon="-18.870294571">
<ele>548.078125</ele>
<time>2012-07-25T15:49:02Z</time>
<speed>4.570000</speed>
<extensions>
<speed>4.6</speed>
<temp>0.00</temp>
<bpm>0</bpm>
<rpm>0.00</rpm>
</extensions>
</trkpt>
<trkpt lat="63.818214417" lon="-18.870641708">
<ele>549.281250</ele>
<time>2012-07-25T15:49:07Z</time>
<speed>3.860000</speed>
<extensions>
<speed>3.9</speed>
<temp>0.00</temp>
<bpm>0</bpm>
<rpm>0.00</rpm>
</extensions>
</trkpt>
<trkpt lat="63.818138123" lon="-18.870895386">
<ele>548.046875</ele>
<time>2012-07-25T15:49:12Z</time>
<speed>2.880000</speed>
<extensions>
<speed>2.9</speed>
<temp>0.00</temp>
<bpm>0</bpm>
<rpm>0.00</rpm>
</extensions>
</trkpt>
<trkpt lat="63.818069458" lon="-18.871080399">
<ele>545.140625</ele>
<time>2012-07-25T15:49:17Z</time>
<speed>2.400000</speed>
<extensions>
<speed>2.4</speed>
<temp>0.00</temp>
<bpm>0</bpm>
<rpm>0.00</rpm>
</extensions>
</trkpt>
<trkpt lat="63.818019867" lon="-18.871274948">
<ele>543.156250</ele>
<time>2012-07-25T15:49:22Z</time>
<speed>2.620000</speed>
<extensions>
<speed>2.6</speed>
<temp>0.00</temp>
<bpm>0</bpm>
<rpm>0.00</rpm>
</extensions>
</trkpt>
<trkpt lat="63.817916870" lon="-18.871568680">
<ele>541.656250</ele>
<time>2012-07-25T15:49:27Z</time>
<speed>3.030000</speed>
<extensions>
<speed>3.0</speed>
<temp>0.00</temp>
<bpm>0</bpm>
<rpm>0.00</rpm>
</extensions>
</trkpt>
<trkpt lat="63.817825317" lon="-18.871803284">
<ele>544.250000</ele>
<time>2012-07-25T15:49:32Z</time>
<speed>2.710000</speed>
<extensions>
<speed>2.7</speed>
<temp>0.00</temp>
<bpm>0</bpm>
<rpm>0.00</rpm>
</extensions>
</trkpt>
<trkpt lat="63.817760468" lon="-18.872028351">
<ele>546.968750</ele>
<time>2012-07-25T15:49:37Z</time>
<speed>2.940000</speed>
<extensions>
<speed>2.9</speed>
<temp>0.00</temp>
<bpm>0</bpm>
<rpm>0.00</rpm>
</extensions>
</trkpt>
<trkpt lat="63.817680359" lon="-18.872314453">
<ele>546.421875</ele>
<time>2012-07-25T15:49:42Z</time>
<speed>4.100000</speed>
<extensions>
<speed>4.1</speed>
<temp>0.00</temp>
<bpm>0</bpm>
<rpm>0.00</rpm>
</extensions>
</trkpt>
<trkpt lat="63.817569733" lon="-18.872692108">
<ele>545.125000</ele>
<time>2012-07-25T15:49:47Z</time>
<speed>4.710000</speed>
<extensions>
<speed>4.7</speed>
<temp>0.00</temp>
<bpm>0</bpm>
<rpm>0.00</rpm>
</extensions>
</trkpt>
<trkpt lat="63.817462921" lon="-18.873054504">
<ele>544.984375</ele>
<time>2012-07-25T15:49:52Z</time>
<speed>3.970000</speed>
<extensions>
<speed>4.0</speed>
<temp>0.00</temp>
<bpm>0</bpm>
<rpm>0.00</rpm>
</extensions>
</trkpt>
<trkpt lat="63.817378998" lon="-18.873382568">
<ele>545.156250</ele>
<time>2012-07-25T15:49:57Z</time>
<speed>3.780000</speed>
<extensions>
<speed>3.8</speed>
<temp>0.00</temp>
<bpm>0</bpm>
<rpm>0.00</rpm>
</extensions>
</trkpt>
<trkpt lat="63.817291260" lon="-18.873697281">
<ele>544.984375</ele>
<time>2012-07-25T15:50:02Z</time>
<speed>3.530000</speed>
<extensions>
<speed>3.5</speed>
<temp>0.00</temp>
<bpm>0</bpm>
<rpm>0.00</rpm>
</extensions>
</trkpt>
<trkpt lat="63.817218781" lon="-18.874015808">
<ele>545.546875</ele>
<time>2012-07-25T15:50:07Z</time>
<speed>3.660000</speed>
<extensions>
<speed>3.7</speed>
<temp>0.00</temp>
<bpm>0</bpm>
<rpm>0.00</rpm>
</extensions>
</trkpt>
<trkpt lat="63.817134857" lon="-18.874336243">
<ele>546.234375</ele>
<time>2012-07-25T15:50:12Z</time>
<speed>3.710000</speed>
<extensions>
<speed>3.7</speed>
<temp>0.00</temp>
<bpm>0</bpm>
<rpm>0.00</rpm>
</extensions>
</trkpt>
<trkpt lat="63.817043304" lon="-18.874656677">
<ele>545.812500</ele>
<time>2012-07-25T15:50:17Z</time>
<speed>3.890000</speed>
<extensions>
<speed>3.9</speed>
<temp>0.00</temp>
<bpm>0</bpm>
<rpm>0.00</rpm>
</extensions>
</trkpt>
<trkpt lat="63.816947937" lon="-18.874963760">
<ele>545.671875</ele>
<time>2012-07-25T15:50:22Z</time>
<speed>3.710000</speed>
<extensions>
<speed>3.7</speed>
<temp>0.00</temp>
<bpm>0</bpm>
<rpm>0.00</rpm>
</extensions>
</trkpt>
<trkpt lat="63.816844940" lon="-18.875223160">
<ele>545.406250</ele>
<time>2012-07-25T15:50:27Z</time>
<speed>2.450000</speed>
<extensions>
<speed>2.4</speed>
<temp>0.00</temp>
<bpm>0</bpm>
<rpm>0.00</rpm>
</extensions>
</trkpt>
<trkpt lat="63.816745758" lon="-18.875436783">
<ele>544.921875</ele>
<time>2012-07-25T15:50:32Z</time>
<speed>3.240000</speed>
<extensions>
<speed>3.2</speed>
<temp>0.00</temp>
<bpm>0</bpm>
<rpm>0.00</rpm>
</extensions>
</trkpt>
<trkpt lat="63.816642761" lon="-18.875719070">
<ele>544.812500</ele>
<time>2012-07-25T15:50:37Z</time>
<speed>3.370000</speed>
<extensions>
<speed>3.4</speed>
<temp>0.00</temp>
<bpm>0</bpm>
<rpm>0.00</rpm>
</extensions>
</trkpt>
<trkpt lat="63.816581726" lon="-18.875917435">
<ele>544.187500</ele>
<time>2012-07-25T15:50:42Z</time>
<speed>1.970000</speed>
<extensions>
<speed>2.0</speed>
<temp>0.00</temp>
<bpm>0</bpm>
<rpm>0.00</rpm>
</extensions>
</trkpt>
<trkpt lat="63.816551208" lon="-18.876029968">
<ele>544.609375</ele>
<time>2012-07-25T15:50:47Z</time>
<speed>0.130000</speed>
<extensions>
<speed>0.1</speed>
<temp>0.00</temp>
<bpm>0</bpm>
<rpm>0.00</rpm>
</extensions>
</trkpt>
<trkpt lat="63.816543579" lon="-18.876041412">
<ele>543.437500</ele>
<time>2012-07-25T15:50:52Z</time>
<speed>0.050000</speed>
<extensions>
<speed>0.1</speed>
<temp>0.00</temp>
<bpm>0</bpm>
<rpm>0.00</rpm>
</extensions>
</trkpt>
<trkpt lat="63.816547394" lon="-18.876039505">
<ele>543.484375</ele>
<time>2012-07-25T15:50:57Z</time>
<speed>0.050000</speed>
<extensions>
<speed>0.1</speed>
<temp>0.00</temp>
<bpm>0</bpm>
<rpm>0.00</rpm>
</extensions>
</trkpt>
<trkpt lat="63.816547394" lon="-18.876041412">
<ele>543.515625</ele>
<time>2012-07-25T15:51:02Z</time>
<speed>0.100000</speed>
<extensions>
<speed>0.1</speed>
<temp>0.00</temp>
<bpm>0</bpm>
<rpm>0.00</rpm>
</extensions>
</trkpt>
<trkpt lat="63.816532135" lon="-18.876108170">
<ele>543.453125</ele>
<time>2012-07-25T15:51:07Z</time>
<speed>1.780000</speed>
<extensions>
<speed>1.8</speed>
<temp>0.00</temp>
<bpm>0</bpm>
<rpm>0.00</rpm>
</extensions>
</trkpt>
<trkpt lat="63.816493988" lon="-18.876256943">
<ele>544.015625</ele>
<time>2012-07-25T15:51:12Z</time>
<speed>1.270000</speed>
<extensions>
<speed>1.3</speed>
<temp>0.00</temp>
<bpm>0</bpm>
<rpm>0.00</rpm>
</extensions>
</trkpt>
<trkpt lat="63.816486359" lon="-18.876283646">
<ele>543.406250</ele>
<time>2012-07-25T15:51:17Z</time>
<speed>0.060000</speed>
<extensions>
<speed>0.1</speed>
<temp>0.00</temp>
<bpm>0</bpm>
<rpm>0.00</rpm>
</extensions>
</trkpt>
<trkpt lat="63.816486359" lon="-18.876276016">
<ele>543.265625</ele>
<time>2012-07-25T15:51:22Z</time>
<speed>0.130000</speed>
<extensions>
<speed>0.1</speed>
<temp>0.00</temp>
<bpm>0</bpm>
<rpm>0.00</rpm>
</extensions>
</trkpt>
<trkpt lat="63.816486359" lon="-18.876258850">
<ele>542.937500</ele>
<time>2012-07-25T15:51:27Z</time>
<speed>0.370000</speed>
<extensions>
<speed>0.4</speed>
<temp>0.00</temp>
<bpm>0</bpm>
<rpm>0.00</rpm>
</extensions>
</trkpt>
<trkpt lat="63.816486359" lon="-18.876281738">
<ele>543.296875</ele>
<time>2012-07-25T15:51:32Z</time>
<speed>0.050000</speed>
<extensions>
<speed>0.1</speed>
<temp>0.00</temp>
<bpm>0</bpm>
<rpm>0.00</rpm>
</extensions>
</trkpt>
<trkpt lat="63.816486359" lon="-18.876276016">
<ele>543.046875</ele>
<time>2012-07-25T15:51:37Z</time>
<speed>0.020000</speed>
<extensions>
<speed>0.0</speed>
<temp>0.00</temp>
<bpm>0</bpm>
<rpm>0.00</rpm>
</extensions>
</trkpt>
<trkpt lat="63.816486359" lon="-18.876272202">
<ele>542.890625</ele>
<time>2012-07-25T15:51:42Z</time>
<speed>0.060000</speed>
<extensions>
<speed>0.1</speed>
<temp>0.00</temp>
<bpm>0</bpm>
<rpm>0.00</rpm>
</extensions>
</trkpt>
<trkpt lat="63.816486359" lon="-18.876268387">
<ele>542.812500</ele>
<time>2012-07-25T15:51:47Z</time>
<speed>0.040000</speed>
<extensions>
<speed>0.0</speed>
<temp>0.00</temp>
<bpm>0</bpm>
<rpm>0.00</rpm>
</extensions>
</trkpt>
<trkpt lat="63.816486359" lon="-18.876270294">
<ele>542.796875</ele>
<time>2012-07-25T15:51:52Z</time>
<speed>1.050000</speed>
<extensions>
<speed>1.0</speed>
<temp>0.00</temp>
<bpm>0</bpm>
<rpm>0.00</rpm>
</extensions>
</trkpt>
<trkpt lat="63.816448212" lon="-18.876440048">
<ele>543.500000</ele>
<time>2012-07-25T15:51:57Z</time>
<speed>2.870000</speed>
<extensions>
<speed>2.9</speed>
<temp>0.00</temp>
<bpm>0</bpm>
<rpm>0.00</rpm>
</extensions>
</trkpt>
<trkpt lat="63.816368103" lon="-18.876747131">
<ele>543.156250</ele>
<time>2012-07-25T15:52:02Z</time>
<speed>3.610000</speed>
<extensions>
<speed>3.6</speed>
<temp>0.00</temp>
<bpm>0</bpm>
<rpm>0.00</rpm>
</extensions>
</trkpt>
<trkpt lat="63.816287994" lon="-18.877084732">
<ele>542.578125</ele>
<time>2012-07-25T15:52:07Z</time>
<speed>3.790000</speed>
<extensions>
<speed>3.8</speed>
<temp>0.00</temp>
<bpm>0</bpm>
<rpm>0.00</rpm>
</extensions>
</trkpt>
<trkpt lat="63.816200256" lon="-18.877407074">
<ele>542.015625</ele>
<time>2012-07-25T15:52:12Z</time>
<speed>3.470000</speed>
<extensions>
<speed>3.5</speed>
<temp>0.00</temp>
<bpm>0</bpm>
<rpm>0.00</rpm>
</extensions>
</trkpt>
<trkpt lat="63.816116333" lon="-18.877696991">
<ele>540.593750</ele>
<time>2012-07-25T15:52:17Z</time>
<speed>3.430000</speed>
<extensions>
<speed>3.4</speed>
<temp>0.00</temp>
<bpm>0</bpm>
<rpm>0.00</rpm>
</extensions>
</trkpt>
<trkpt lat="63.816028595" lon="-18.878015518">
<ele>540.406250</ele>
<time>2012-07-25T15:52:22Z</time>
<speed>3.530000</speed>
<extensions>
<speed>3.5</speed>
<temp>0.00</temp>
<bpm>0</bpm>
<rpm>0.00</rpm>
</extensions>
</trkpt>
<trkpt lat="63.815956116" lon="-18.878328323">
<ele>539.484375</ele>
<time>2012-07-25T15:52:27Z</time>
<speed>3.300000</speed>
<extensions>
<speed>3.3</speed>
<temp>0.00</temp>
<bpm>0</bpm>
<rpm>0.00</rpm>
</extensions>
</trkpt>
<trkpt lat="63.815883636" lon="-18.878589630">
<ele>542.000000</ele>
<time>2012-07-25T15:52:32Z</time>
<speed>3.010000</speed>
<extensions>
<speed>3.0</speed>
<temp>0.00</temp>
<bpm>0</bpm>
<rpm>0.00</rpm>
</extensions>
</trkpt>
<trkpt lat="63.815811157" lon="-18.878862381">
<ele>542.921875</ele>
<time>2012-07-25T15:52:37Z</time>
<speed>3.410000</speed>
<extensions>
<speed>3.4</speed>
<temp>0.00</temp>
<bpm>0</bpm>
<rpm>0.00</rpm>
</extensions>
</trkpt>
<trkpt lat="63.815738678" lon="-18.879173279">
<ele>543.234375</ele>
<time>2012-07-25T15:52:42Z</time>
<speed>3.520000</speed>
<extensions>
<speed>3.5</speed>
<temp>0.00</temp>
<bpm>0</bpm>
<rpm>0.00</rpm>
</extensions>
</trkpt>
<trkpt lat="63.815643311" lon="-18.879512787">
<ele>542.500000</ele>
<time>2012-07-25T15:52:47Z</time>
<speed>3.640000</speed>
<extensions>
<speed>3.6</speed>
<temp>0.00</temp>
<bpm>0</bpm>
<rpm>0.00</rpm>
</extensions>
</trkpt>
<trkpt lat="63.815563202" lon="-18.879819870">
<ele>542.421875</ele>
<time>2012-07-25T15:52:52Z</time>
<speed>3.430000</speed>
<extensions>
<speed>3.4</speed>
<temp>0.00</temp>
<bpm>0</bpm>
<rpm>0.00</rpm>
</extensions>
</trkpt>
<trkpt lat="63.815483093" lon="-18.880094528">
<ele>543.156250</ele>
<time>2012-07-25T15:52:57Z</time>
<speed>3.080000</speed>
<extensions>
<speed>3.1</speed>
<temp>0.00</temp>
<bpm>0</bpm>
<rpm>0.00</rpm>
</extensions>
</trkpt>
<trkpt lat="63.815406799" lon="-18.880378723">
<ele>542.937500</ele>
<time>2012-07-25T15:53:02Z</time>
<speed>2.870000</speed>
<extensions>
<speed>2.9</speed>
<temp>0.00</temp>
<bpm>0</bpm>
<rpm>0.00</rpm>
</extensions>
</trkpt>
<trkpt lat="63.815357208" lon="-18.880594254">
<ele>542.312500</ele>
<time>2012-07-25T15:53:07Z</time>
<speed>2.360000</speed>
<extensions>
<speed>2.4</speed>
<temp>0.00</temp>
<bpm>0</bpm>
<rpm>0.00</rpm>
</extensions>
</trkpt>
<trkpt lat="63.815303802" lon="-18.880746841">
<ele>541.609375</ele>
<time>2012-07-25T15:53:12Z</time>
<speed>2.050000</speed>
<extensions>
<speed>2.1</speed>
<temp>0.00</temp>
<bpm>0</bpm>
<rpm>0.00</rpm>
</extensions>
</trkpt>
<trkpt lat="63.815250397" lon="-18.880901337">
<ele>542.484375</ele>
<time>2012-07-25T15:53:17Z</time>
<speed>2.270000</speed>
<extensions>
<speed>2.3</speed>
<temp>0.00</temp>
<bpm>0</bpm>
<rpm>0.00</rpm>
</extensions>
</trkpt>
<trkpt lat="63.815181732" lon="-18.881114960">
<ele>542.062500</ele>
<time>2012-07-25T15:53:22Z</time>
<speed>2.400000</speed>
<extensions>
<speed>2.4</speed>
<temp>0.00</temp>
<bpm>0</bpm>
<rpm>0.00</rpm>
</extensions>
</trkpt>
<trkpt lat="63.815120697" lon="-18.881307602">
<ele>541.718750</ele>
<time>2012-07-25T15:53:27Z</time>
<speed>2.380000</speed>
<extensions>
<speed>2.4</speed>
<temp>0.00</temp>
<bpm>0</bpm>
<rpm>0.00</rpm>
</extensions>
</trkpt>
<trkpt lat="63.815048218" lon="-18.881441116">
<ele>542.062500</ele>
<time>2012-07-25T15:53:32Z</time>
<speed>2.090000</speed>
<extensions>
<speed>2.1</speed>
<temp>0.00</temp>
<bpm>0</bpm>
<rpm>0.00</rpm>
</extensions>
</trkpt>
<trkpt lat="63.814998627" lon="-18.881694794">
<ele>544.046875</ele>
<time>2012-07-25T15:53:37Z</time>
<speed>3.100000</speed>
<extensions>
<speed>3.1</speed>
<temp>0.00</temp>
<bpm>0</bpm>
<rpm>0.00</rpm>
</extensions>
</trkpt>
<trkpt lat="63.814922333" lon="-18.881956100">
<ele>543.750000</ele>
<time>2012-07-25T15:53:42Z</time>
<speed>2.890000</speed>
<extensions>
<speed>2.9</speed>
<temp>0.00</temp>
<bpm>0</bpm>
<rpm>0.00</rpm>
</extensions>
</trkpt>
<trkpt lat="63.814853668" lon="-18.882183075">
<ele>543.500000</ele>
<time>2012-07-25T15:53:47Z</time>
<speed>1.950000</speed>
<extensions>
<speed>1.9</speed>
<temp>0.00</temp>
<bpm>0</bpm>
<rpm>0.00</rpm>
</extensions>
</trkpt>
<trkpt lat="63.814849854" lon="-18.882211685">
<ele>543.453125</ele>
<time>2012-07-25T15:53:52Z</time>
<speed>0.090000</speed>
<extensions>
<speed>0.1</speed>
<temp>0.00</temp>
<bpm>0</bpm>
<rpm>0.00</rpm>
</extensions>
</trkpt>
<trkpt lat="63.814849854" lon="-18.882207870">
<ele>543.453125</ele>
<time>2012-07-25T15:53:57Z</time>
<speed>0.110000</speed>
<extensions>
<speed>0.1</speed>
<temp>0.00</temp>
<bpm>0</bpm>
<rpm>0.00</rpm>
</extensions>
</trkpt>
<trkpt lat="63.814849854" lon="-18.882196426">
<ele>543.453125</ele>
<time>2012-07-25T15:54:02Z</time>
<speed>0.180000</speed>
<extensions>
<speed>0.2</speed>
<temp>0.00</temp>
<bpm>0</bpm>
<rpm>0.00</rpm>
</extensions>
</trkpt>
<trkpt lat="63.814853668" lon="-18.882183075">
<ele>543.343750</ele>
<time>2012-07-25T15:54:07Z</time>
<speed>0.190000</speed>
<extensions>
<speed>0.2</speed>
<temp>0.00</temp>
<bpm>0</bpm>
<rpm>0.00</rpm>
</extensions>
</trkpt>
<trkpt lat="63.814853668" lon="-18.882181168">
<ele>543.250000</ele>
<time>2012-07-25T15:54:12Z</time>
<speed>0.010000</speed>
<extensions>
<speed>0.0</speed>
<temp>0.00</temp>
<bpm>0</bpm>
<rpm>0.00</rpm>
</extensions>
</trkpt>
<trkpt lat="63.814857483" lon="-18.882188797">
<ele>542.906250</ele>
<time>2012-07-25T15:54:17Z</time>
<speed>0.810000</speed>
<extensions>
<speed>0.8</speed>
<temp>0.00</temp>
<bpm>0</bpm>
<rpm>0.00</rpm>
</extensions>
</trkpt>
<trkpt lat="63.814804077" lon="-18.882337570">
<ele>542.718750</ele>
<time>2012-07-25T15:54:22Z</time>
<speed>2.470000</speed>
<extensions>
<speed>2.5</speed>
<temp>0.00</temp>
<bpm>0</bpm>
<rpm>0.00</rpm>
</extensions>
</trkpt>
<trkpt lat="63.814746857" lon="-18.882543564">
<ele>543.187500</ele>
<time>2012-07-25T15:54:27Z</time>
<speed>2.110000</speed>
<extensions>
<speed>2.1</speed>
<temp>0.00</temp>
<bpm>0</bpm>
<rpm>0.00</rpm>
</extensions>
</trkpt>
<trkpt lat="63.814704895" lon="-18.882751465">
<ele>543.765625</ele>
<time>2012-07-25T15:54:32Z</time>
<speed>2.570000</speed>
<extensions>
<speed>2.6</speed>
<temp>0.00</temp>
<bpm>0</bpm>
<rpm>0.00</rpm>
</extensions>
</trkpt>
<trkpt lat="63.814628601" lon="-18.882961273">
<ele>543.187500</ele>
<time>2012-07-25T15:54:37Z</time>
<speed>2.390000</speed>
<extensions>
<speed>2.4</speed>
<temp>0.00</temp>
<bpm>0</bpm>
<rpm>0.00</rpm>
</extensions>
</trkpt>
<trkpt lat="63.814575195" lon="-18.883165359">
<ele>543.343750</ele>
<time>2012-07-25T15:54:42Z</time>
<speed>2.410000</speed>
<extensions>
<speed>2.4</speed>
<temp>0.00</temp>
<bpm>0</bpm>
<rpm>0.00</rpm>
</extensions>
</trkpt>
<trkpt lat="63.814517975" lon="-18.883392334">
<ele>543.859375</ele>
<time>2012-07-25T15:54:47Z</time>
<speed>2.620000</speed>
<extensions>
<speed>2.6</speed>
<temp>0.00</temp>
<bpm>0</bpm>
<rpm>0.00</rpm>
</extensions>
</trkpt>
<trkpt lat="63.814472198" lon="-18.883605957">
<ele>544.062500</ele>
<time>2012-07-25T15:54:52Z</time>
<speed>2.250000</speed>
<extensions>
<speed>2.3</speed>
<temp>0.00</temp>
<bpm>0</bpm>
<rpm>0.00</rpm>
</extensions>
</trkpt>
<trkpt lat="63.814414978" lon="-18.883817673">
<ele>544.718750</ele>
<time>2012-07-25T15:54:57Z</time>
<speed>2.340000</speed>
<extensions>
<speed>2.3</speed>
<temp>0.00</temp>
<bpm>0</bpm>
<rpm>0.00</rpm>
</extensions>
</trkpt>
<trkpt lat="63.814365387" lon="-18.884010315">
<ele>544.765625</ele>
<time>2012-07-25T15:55:02Z</time>
<speed>2.260000</speed>
<extensions>
<speed>2.3</speed>
<temp>0.00</temp>
<bpm>0</bpm>
<rpm>0.00</rpm>
</extensions>
</trkpt>
<trkpt lat="63.814300537" lon="-18.884180069">
<ele>544.171875</ele>
<time>2012-07-25T15:55:07Z</time>
<speed>2.350000</speed>
<extensions>
<speed>2.4</speed>
<temp>0.00</temp>
<bpm>0</bpm>
<rpm>0.00</rpm>
</extensions>
</trkpt>
<trkpt lat="63.814254761" lon="-18.884366989">
<ele>544.203125</ele>
<time>2012-07-25T15:55:12Z</time>
<speed>1.670000</speed>
<extensions>
<speed>1.7</speed>
<temp>0.00</temp>
<bpm>0</bpm>
<rpm>0.00</rpm>
</extensions>
</trkpt>
<trkpt lat="63.814216614" lon="-18.884586334">
<ele>544.921875</ele>
<time>2012-07-25T15:55:17Z</time>
<speed>2.250000</speed>
<extensions>
<speed>2.3</speed>
<temp>0.00</temp>
<bpm>0</bpm>
<rpm>0.00</rpm>
</extensions>
</trkpt>
<trkpt lat="63.814178467" lon="-18.884767532">
<ele>545.156250</ele>
<time>2012-07-25T15:55:22Z</time>
<speed>1.850000</speed>
<extensions>
<speed>1.8</speed>
<temp>0.00</temp>
<bpm>0</bpm>
<rpm>0.00</rpm>
</extensions>
</trkpt>
<trkpt lat="63.814113617" lon="-18.884906769">
<ele>545.000000</ele>
<time>2012-07-25T15:55:27Z</time>
<speed>2.010000</speed>
<extensions>
<speed>2.0</speed>
<temp>0.00</temp>
<bpm>0</bpm>
<rpm>0.00</rpm>
</extensions>
</trkpt>
<trkpt lat="63.814048767" lon="-18.885051727">
<ele>545.046875</ele>
<time>2012-07-25T15:55:32Z</time>
<speed>1.450000</speed>
<extensions>
<speed>1.4</speed>
<temp>0.00</temp>
<bpm>0</bpm>
<rpm>0.00</rpm>
</extensions>
</trkpt>
<trkpt lat="63.813999176" lon="-18.885238647">
<ele>544.953125</ele>
<time>2012-07-25T15:55:37Z</time>
<speed>2.290000</speed>
<extensions>
<speed>2.3</speed>
<temp>0.00</temp>
<bpm>0</bpm>
<rpm>0.00</rpm>
</extensions>
</trkpt>
<trkpt lat="63.813919067" lon="-18.885408401">
<ele>543.906250</ele>
<time>2012-07-25T15:55:42Z</time>
<speed>2.300000</speed>
<extensions>
<speed>2.3</speed>
<temp>0.00</temp>
<bpm>0</bpm>
<rpm>0.00</rpm>
</extensions>
</trkpt>
<trkpt lat="63.813888550" lon="-18.885599136">
<ele>544.328125</ele>
<time>2012-07-25T15:55:47Z</time>
<speed>2.160000</speed>
<extensions>
<speed>2.2</speed>
<temp>0.00</temp>
<bpm>0</bpm>
<rpm>0.00</rpm>
</extensions>
</trkpt>
<trkpt lat="63.813865662" lon="-18.885808945">
<ele>544.734375</ele>
<time>2012-07-25T15:55:52Z</time>
<speed>1.850000</speed>
<extensions>
<speed>1.8</speed>
<temp>0.00</temp>
<bpm>0</bpm>
<rpm>0.00</rpm>
</extensions>
</trkpt>
<trkpt lat="63.813785553" lon="-18.885965347">
<ele>545.328125</ele>
<time>2012-07-25T15:55:57Z</time>
<speed>2.300000</speed>
<extensions>
<speed>2.3</speed>
<temp>0.00</temp>
<bpm>0</bpm>
<rpm>0.00</rpm>
</extensions>
</trkpt>
<trkpt lat="63.813701630" lon="-18.886102676">
<ele>545.562500</ele>
<time>2012-07-25T15:56:02Z</time>
<speed>2.230000</speed>
<extensions>
<speed>2.2</speed>
<temp>0.00</temp>
<bpm>0</bpm>
<rpm>0.00</rpm>
</extensions>
</trkpt>
<trkpt lat="63.813629150" lon="-18.886289597">
<ele>545.390625</ele>
<time>2012-07-25T15:56:07Z</time>
<speed>2.320000</speed>
<extensions>
<speed>2.3</speed>
<temp>0.00</temp>
<bpm>0</bpm>
<rpm>0.00</rpm>
</extensions>
</trkpt>
<trkpt lat="63.813560486" lon="-18.886442184">
<ele>545.281250</ele>
<time>2012-07-25T15:56:12Z</time>
<speed>1.930000</speed>
<extensions>
<speed>1.9</speed>
<temp>0.00</temp>
<bpm>0</bpm>
<rpm>0.00</rpm>
</extensions>
</trkpt>
<trkpt lat="63.813491821" lon="-18.886625290">
<ele>545.531250</ele>
<time>2012-07-25T15:56:17Z</time>
<speed>2.290000</speed>
<extensions>
<speed>2.3</speed>
<temp>0.00</temp>
<bpm>0</bpm>
<rpm>0.00</rpm>
</extensions>
</trkpt>
<trkpt lat="63.813423157" lon="-18.886795044">
<ele>546.265625</ele>
<time>2012-07-25T15:56:22Z</time>
<speed>2.600000</speed>
<extensions>
<speed>2.6</speed>
<temp>0.00</temp>
<bpm>0</bpm>
<rpm>0.00</rpm>
</extensions>
</trkpt>
<trkpt lat="63.813350677" lon="-18.886981964">
<ele>546.156250</ele>
<time>2012-07-25T15:56:27Z</time>
<speed>2.560000</speed>
<extensions>
<speed>2.6</speed>
<temp>0.00</temp>
<bpm>0</bpm>
<rpm>0.00</rpm>
</extensions>
</trkpt>
<trkpt lat="63.813278198" lon="-18.887163162">
<ele>546.156250</ele>
<time>2012-07-25T15:56:32Z</time>
<speed>2.110000</speed>
<extensions>
<speed>2.1</speed>
<temp>0.00</temp>
<bpm>0</bpm>
<rpm>0.00</rpm>
</extensions>
</trkpt>
<trkpt lat="63.813224792" lon="-18.887331009">
<ele>544.718750</ele>
<time>2012-07-25T15:56:37Z</time>
<speed>1.800000</speed>
<extensions>
<speed>1.8</speed>
<temp>0.00</temp>
<bpm>0</bpm>
<rpm>0.00</rpm>
</extensions>
</trkpt>
<trkpt lat="63.813167572" lon="-18.887502670">
<ele>544.437500</ele>
<time>2012-07-25T15:56:42Z</time>
<speed>2.090000</speed>
<extensions>
<speed>2.1</speed>
<temp>0.00</temp>
<bpm>0</bpm>
<rpm>0.00</rpm>
</extensions>
</trkpt>
<trkpt lat="63.813106537" lon="-18.887662888">
<ele>544.984375</ele>
<time>2012-07-25T15:56:47Z</time>
<speed>2.110000</speed>
<extensions>
<speed>2.1</speed>
<temp>0.00</temp>
<bpm>0</bpm>
<rpm>0.00</rpm>
</extensions>
</trkpt>
<trkpt lat="63.813053131" lon="-18.887832642">
<ele>545.437500</ele>
<time>2012-07-25T15:56:52Z</time>
<speed>1.740000</speed>
<extensions>
<speed>1.7</speed>
<temp>0.00</temp>
<bpm>0</bpm>
<rpm>0.00</rpm>
</extensions>
</trkpt>
<trkpt lat="63.812980652" lon="-18.887966156">
<ele>545.125000</ele>
<time>2012-07-25T15:56:57Z</time>
<speed>2.210000</speed>
<extensions>
<speed>2.2</speed>
<temp>0.00</temp>
<bpm>0</bpm>
<rpm>0.00</rpm>
</extensions>
</trkpt>
<trkpt lat="63.812908173" lon="-18.888048172">
<ele>543.468750</ele>
<time>2012-07-25T15:57:02Z</time>
<speed>2.190000</speed>
<extensions>
<speed>2.2</speed>
<temp>0.00</temp>
<bpm>0</bpm>
<rpm>0.00</rpm>
</extensions>
</trkpt>
<trkpt lat="63.812824249" lon="-18.888242722">
<ele>544.859375</ele>
<time>2012-07-25T15:57:07Z</time>
<speed>2.600000</speed>
<extensions>
<speed>2.6</speed>
<temp>0.00</temp>
<bpm>0</bpm>
<rpm>0.00</rpm>
</extensions>
</trkpt>
<trkpt lat="63.812736511" lon="-18.888439178">
<ele>544.359375</ele>
<time>2012-07-25T15:57:12Z</time>
<speed>2.690000</speed>
<extensions>
<speed>2.7</speed>
<temp>0.00</temp>
<bpm>0</bpm>
<rpm>0.00</rpm>
</extensions>
</trkpt>
<trkpt lat="63.812652588" lon="-18.888633728">
<ele>544.437500</ele>
<time>2012-07-25T15:57:17Z</time>
<speed>2.410000</speed>
<extensions>
<speed>2.4</speed>
<temp>0.00</temp>
<bpm>0</bpm>
<rpm>0.00</rpm>
</extensions>
</trkpt>
<trkpt lat="63.812576294" lon="-18.888822556">
<ele>545.000000</ele>
<time>2012-07-25T15:57:22Z</time>
<speed>2.690000</speed>
<extensions>
<speed>2.7</speed>
<temp>0.00</temp>
<bpm>0</bpm>
<rpm>0.00</rpm>
</extensions>
</trkpt>
<trkpt lat="63.812492371" lon="-18.889038086">
<ele>544.609375</ele>
<time>2012-07-25T15:57:27Z</time>
<speed>2.340000</speed>
<extensions>
<speed>2.3</speed>
<temp>0.00</temp>
<bpm>0</bpm>
<rpm>0.00</rpm>
</extensions>
</trkpt>
<trkpt lat="63.812423706" lon="-18.889129639">
<ele>544.562500</ele>
<time>2012-07-25T15:57:32Z</time>
<speed>2.470000</speed>
<extensions>
<speed>2.5</speed>
<temp>0.00</temp>
<bpm>0</bpm>
<rpm>0.00</rpm>
</extensions>
</trkpt>
<trkpt lat="63.812351227" lon="-18.889345169">
<ele>546.390625</ele>
<time>2012-07-25T15:57:37Z</time>
<speed>2.370000</speed>
<extensions>
<speed>2.4</speed>
<temp>0.00</temp>
<bpm>0</bpm>
<rpm>0.00</rpm>
</extensions>
</trkpt>
<trkpt lat="63.812294006" lon="-18.889551163">
<ele>547.000000</ele>
<time>2012-07-25T15:57:42Z</time>
<speed>2.500000</speed>
<extensions>
<speed>2.5</speed>
<temp>0.00</temp>
<bpm>0</bpm>
<rpm>0.00</rpm>
</extensions>
</trkpt>
<trkpt lat="63.812217712" lon="-18.889711380">
<ele>547.781250</ele>
<time>2012-07-25T15:57:47Z</time>
<speed>1.720000</speed>
<extensions>
<speed>1.7</speed>
<temp>0.00</temp>
<bpm>0</bpm>
<rpm>0.00</rpm>
</extensions>
</trkpt>
<trkpt lat="63.812141418" lon="-18.889907837">
<ele>548.453125</ele>
<time>2012-07-25T15:57:52Z</time>
<speed>2.680000</speed>
<extensions>
<speed>2.7</speed>
<temp>0.00</temp>
<bpm>0</bpm>
<rpm>0.00</rpm>
</extensions>
</trkpt>
<trkpt lat="63.812053680" lon="-18.890115738">
<ele>548.562500</ele>
<time>2012-07-25T15:57:57Z</time>
<speed>2.590000</speed>
<extensions>
<speed>2.6</speed>
<temp>0.00</temp>
<bpm>0</bpm>
<rpm>0.00</rpm>
</extensions>
</trkpt>
<trkpt lat="63.811977386" lon="-18.890293121">
<ele>548.078125</ele>
<time>2012-07-25T15:58:02Z</time>
<speed>2.060000</speed>
<extensions>
<speed>2.1</speed>
<temp>0.00</temp>
<bpm>0</bpm>
<rpm>0.00</rpm>
</extensions>
</trkpt>
<trkpt lat="63.811908722" lon="-18.890336990">
<ele>548.171875</ele>
<time>2012-07-25T15:58:07Z</time>
<speed>1.290000</speed>
<extensions>
<speed>1.3</speed>
<temp>0.00</temp>
<bpm>0</bpm>
<rpm>0.00</rpm>
</extensions>
</trkpt>
<trkpt lat="63.811859131" lon="-18.890274048">
<ele>547.703125</ele>
<time>2012-07-25T15:58:12Z</time>
<speed>1.290000</speed>
<extensions>
<speed>1.3</speed>
<temp>0.00</temp>
<bpm>0</bpm>
<rpm>0.00</rpm>
</extensions>
</trkpt>
<trkpt lat="63.811874390" lon="-18.890150070">
<ele>548.578125</ele>
<time>2012-07-25T15:58:17Z</time>
<speed>1.920000</speed>
<extensions>
<speed>1.9</speed>
<temp>0.00</temp>
<bpm>0</bpm>
<rpm>0.00</rpm>
</extensions>
</trkpt>
<trkpt lat="63.811901093" lon="-18.890262604">
<ele>548.421875</ele>
<time>2012-07-25T15:58:22Z</time>
<speed>2.250000</speed>
<extensions>
<speed>2.3</speed>
<temp>0.00</temp>
<bpm>0</bpm>
<rpm>0.00</rpm>
</extensions>
</trkpt>
<trkpt lat="63.811866760" lon="-18.890476227">
<ele>548.906250</ele>
<time>2012-07-25T15:58:27Z</time>
<speed>1.780000</speed>
<extensions>
<speed>1.8</speed>
<temp>0.00</temp>
<bpm>0</bpm>
<rpm>0.00</rpm>
</extensions>
</trkpt>
<trkpt lat="63.811813354" lon="-18.890686035">
<ele>548.265625</ele>
<time>2012-07-25T15:58:32Z</time>
<speed>2.350000</speed>
<extensions>
<speed>2.4</speed>
<temp>0.00</temp>
<bpm>0</bpm>
<rpm>0.00</rpm>
</extensions>
</trkpt>
<trkpt lat="63.811748505" lon="-18.890901566">
<ele>548.031250</ele>
<time>2012-07-25T15:58:37Z</time>
<speed>2.390000</speed>
<extensions>
<speed>2.4</speed>
<temp>0.00</temp>
<bpm>0</bpm>
<rpm>0.00</rpm>
</extensions>
</trkpt>
<trkpt lat="63.811664581" lon="-18.891113281">
<ele>548.156250</ele>
<time>2012-07-25T15:58:42Z</time>
<speed>2.700000</speed>
<extensions>
<speed>2.7</speed>
<temp>0.00</temp>
<bpm>0</bpm>
<rpm>0.00</rpm>
</extensions>
</trkpt>
<trkpt lat="63.811584473" lon="-18.891311646">
<ele>547.453125</ele>
<time>2012-07-25T15:58:47Z</time>
<speed>2.850000</speed>
<extensions>
<speed>2.9</speed>
<temp>0.00</temp>
<bpm>0</bpm>
<rpm>0.00</rpm>
</extensions>
</trkpt>
<trkpt lat="63.811504364" lon="-18.891544342">
<ele>547.312500</ele>
<time>2012-07-25T15:58:52Z</time>
<speed>2.950000</speed>
<extensions>
<speed>2.9</speed>
<temp>0.00</temp>
<bpm>0</bpm>
<rpm>0.00</rpm>
</extensions>
</trkpt>
<trkpt lat="63.811408997" lon="-18.891784668">
<ele>546.437500</ele>
<time>2012-07-25T15:58:57Z</time>
<speed>3.240000</speed>
<extensions>
<speed>3.2</speed>
<temp>0.00</temp>
<bpm>0</bpm>
<rpm>0.00</rpm>
</extensions>
</trkpt>
<trkpt lat="63.811309814" lon="-18.892005920">
<ele>546.218750</ele>
<time>2012-07-25T15:59:02Z</time>
<speed>3.290000</speed>
<extensions>
<speed>3.3</speed>
<temp>0.00</temp>
<bpm>0</bpm>
<rpm>0.00</rpm>
</extensions>
</trkpt>
<trkpt lat="63.811214447" lon="-18.892223358">
<ele>544.984375</ele>
<time>2012-07-25T15:59:07Z</time>
<speed>2.760000</speed>
<extensions>
<speed>2.8</speed>
<temp>0.00</temp>
<bpm>0</bpm>
<rpm>0.00</rpm>
</extensions>
</trkpt>
<trkpt lat="63.811141968" lon="-18.892419815">
<ele>544.296875</ele>
<time>2012-07-25T15:59:12Z</time>
<speed>2.330000</speed>
<extensions>
<speed>2.3</speed>
<temp>0.00</temp>
<bpm>0</bpm>
<rpm>0.00</rpm>
</extensions>
</trkpt>
<trkpt lat="63.811080933" lon="-18.892629623">
<ele>543.640625</ele>
<time>2012-07-25T15:59:17Z</time>
<speed>2.720000</speed>
<extensions>
<speed>2.7</speed>
<temp>0.00</temp>
<bpm>0</bpm>
<rpm>0.00</rpm>
</extensions>
</trkpt>
<trkpt lat="63.810997009" lon="-18.892826080">
<ele>543.468750</ele>
<time>2012-07-25T15:59:22Z</time>
<speed>2.710000</speed>
<extensions>
<speed>2.7</speed>
<temp>0.00</temp>
<bpm>0</bpm>
<rpm>0.00</rpm>
</extensions>
</trkpt>
<trkpt lat="63.810905457" lon="-18.893039703">
<ele>543.765625</ele>
<time>2012-07-25T15:59:27Z</time>
<speed>3.050000</speed>
<extensions>
<speed>3.0</speed>
<temp>0.00</temp>
<bpm>0</bpm>
<rpm>0.00</rpm>
</extensions>
</trkpt>
<trkpt lat="63.810844421" lon="-18.893226624">
<ele>543.375000</ele>
<time>2012-07-25T15:59:32Z</time>
<speed>1.860000</speed>
<extensions>
<speed>1.9</speed>
<temp>0.00</temp>
<bpm>0</bpm>
<rpm>0.00</rpm>
</extensions>
</trkpt>
<trkpt lat="63.810771942" lon="-18.893436432">
<ele>543.187500</ele>
<time>2012-07-25T15:59:37Z</time>
<speed>2.830000</speed>
<extensions>
<speed>2.8</speed>
<temp>0.00</temp>
<bpm>0</bpm>
<rpm>0.00</rpm>
</extensions>
</trkpt>
<trkpt lat="63.810695648" lon="-18.893661499">
<ele>543.734375</ele>
<time>2012-07-25T15:59:42Z</time>
<speed>2.590000</speed>
<extensions>
<speed>2.6</speed>
<temp>0.00</temp>
<bpm>0</bpm>
<rpm>0.00</rpm>
</extensions>
</trkpt>
<trkpt lat="63.810623169" lon="-18.893831253">
<ele>543.687500</ele>
<time>2012-07-25T15:59:47Z</time>
<speed>1.990000</speed>
<extensions>
<speed>2.0</speed>
<temp>0.00</temp>
<bpm>0</bpm>
<rpm>0.00</rpm>
</extensions>
</trkpt>
<trkpt lat="63.810558319" lon="-18.893983841">
<ele>543.546875</ele>
<time>2012-07-25T15:59:52Z</time>
<speed>2.080000</speed>
<extensions>
<speed>2.1</speed>
<temp>0.00</temp>
<bpm>0</bpm>
<rpm>0.00</rpm>
</extensions>
</trkpt>
<trkpt lat="63.810493469" lon="-18.894161224">
<ele>543.921875</ele>
<time>2012-07-25T15:59:57Z</time>
<speed>2.210000</speed>
<extensions>
<speed>2.2</speed>
<temp>0.00</temp>
<bpm>0</bpm>
<rpm>0.00</rpm>
</extensions>
</trkpt>
<trkpt lat="63.810428619" lon="-18.894311905">
<ele>543.687500</ele>
<time>2012-07-25T16:00:02Z</time>
<speed>2.170000</speed>
<extensions>
<speed>2.2</speed>
<temp>0.00</temp>
<bpm>0</bpm>
<rpm>0.00</rpm>
</extensions>
</trkpt>
<trkpt lat="63.810363770" lon="-18.894456863">
<ele>544.390625</ele>
<time>2012-07-25T16:00:07Z</time>
<speed>1.840000</speed>
<extensions>
<speed>1.8</speed>
<temp>0.00</temp>
<bpm>0</bpm>
<rpm>0.00</rpm>
</extensions>
</trkpt>
<trkpt lat="63.810314178" lon="-18.894626617">
<ele>545.546875</ele>
<time>2012-07-25T16:00:12Z</time>
<speed>1.720000</speed>
<extensions>
<speed>1.7</speed>
<temp>0.00</temp>
<bpm>0</bpm>
<rpm>0.00</rpm>
</extensions>
</trkpt>
<trkpt lat="63.810253143" lon="-18.894773483">
<ele>544.937500</ele>
<time>2012-07-25T16:00:17Z</time>
<speed>2.290000</speed>
<extensions>
<speed>2.3</speed>
<temp>0.00</temp>
<bpm>0</bpm>
<rpm>0.00</rpm>
</extensions>
</trkpt>
<trkpt lat="63.810188293" lon="-18.894937515">
<ele>544.562500</ele>
<time>2012-07-25T16:00:22Z</time>
<speed>2.030000</speed>
<extensions>
<speed>2.0</speed>
<temp>0.00</temp>
<bpm>0</bpm>
<rpm>0.00</rpm>
</extensions>
</trkpt>
<trkpt lat="63.810150146" lon="-18.895116806">
<ele>544.250000</ele>
<time>2012-07-25T16:00:27Z</time>
<speed>2.100000</speed>
<extensions>
<speed>2.1</speed>
<temp>0.00</temp>
<bpm>0</bpm>
<rpm>0.00</rpm>
</extensions>
</trkpt>
<trkpt lat="63.810089111" lon="-18.895217896">
<ele>544.250000</ele>
<time>2012-07-25T16:00:32Z</time>
<speed>2.210000</speed>
<extensions>
<speed>2.2</speed>
<temp>0.00</temp>
<bpm>0</bpm>
<rpm>0.00</rpm>
</extensions>
</trkpt>
<trkpt lat="63.810035706" lon="-18.895309448">
<ele>543.765625</ele>
<time>2012-07-25T16:00:37Z</time>
<speed>0.060000</speed>
<extensions>
<speed>0.1</speed>
<temp>0.00</temp>
<bpm>0</bpm>
<rpm>0.00</rpm>
</extensions>
</trkpt>
<trkpt lat="63.810035706" lon="-18.895286560">
<ele>544.015625</ele>
<time>2012-07-25T16:00:42Z</time>
<speed>0.170000</speed>
<extensions>
<speed>0.2</speed>
<temp>0.00</temp>
<bpm>0</bpm>
<rpm>0.00</rpm>
</extensions>
</trkpt>
<trkpt lat="63.810035706" lon="-18.895286560">
<ele>543.734375</ele>
<time>2012-07-25T16:00:47Z</time>
<speed>0.100000</speed>
<extensions>
<speed>0.1</speed>
<temp>0.00</temp>
<bpm>0</bpm>
<rpm>0.00</rpm>
</extensions>
</trkpt>
<trkpt lat="63.810035706" lon="-18.895286560">
<ele>543.578125</ele>
<time>2012-07-25T16:00:52Z</time>
<speed>0.010000</speed>
<extensions>
<speed>0.0</speed>
<temp>0.00</temp>
<bpm>0</bpm>
<rpm>0.00</rpm>
</extensions>
</trkpt>
<trkpt lat="63.810031891" lon="-18.895288467">
<ele>543.531250</ele>
<time>2012-07-25T16:00:57Z</time>
<speed>0.010000</speed>
<extensions>
<speed>0.0</speed>
<temp>0.00</temp>
<bpm>0</bpm>
<rpm>0.00</rpm>
</extensions>
</trkpt>
<trkpt lat="63.810031891" lon="-18.895296097">
<ele>543.578125</ele>
<time>2012-07-25T16:01:02Z</time>
<speed>0.030000</speed>
<extensions>
<speed>0.0</speed>
<temp>0.00</temp>
<bpm>0</bpm>
<rpm>0.00</rpm>
</extensions>
</trkpt>
<trkpt lat="63.810028076" lon="-18.895301819">
<ele>543.328125</ele>
<time>2012-07-25T16:01:07Z</time>
<speed>0.540000</speed>
<extensions>
<speed>0.5</speed>
<temp>0.00</temp>
<bpm>0</bpm>
<rpm>0.00</rpm>
</extensions>
</trkpt>
<trkpt lat="63.810012817" lon="-18.895328522">
<ele>543.390625</ele>
<time>2012-07-25T16:01:12Z</time>
<speed>0.020000</speed>
<extensions>
<speed>0.0</speed>
<temp>0.00</temp>
<bpm>0</bpm>
<rpm>0.00</rpm>
</extensions>
</trkpt>
<trkpt lat="63.810016632" lon="-18.895330429">
<ele>543.296875</ele>
<time>2012-07-25T16:01:17Z</time>
<speed>0.230000</speed>
<extensions>
<speed>0.2</speed>
<temp>0.00</temp>
<bpm>0</bpm>
<rpm>0.00</rpm>
</extensions>
</trkpt>
<trkpt lat="63.810024261" lon="-18.895339966">
<ele>543.171875</ele>
<time>2012-07-25T16:01:22Z</time>
<speed>0.130000</speed>
<extensions>
<speed>0.1</speed>
<temp>0.00</temp>
<bpm>0</bpm>
<rpm>0.00</rpm>
</extensions>
</trkpt>
<trkpt lat="63.810024261" lon="-18.895339966">
<ele>543.093750</ele>
<time>2012-07-25T16:01:27Z</time>
<extensions>
<speed>0.0</speed>
<temp>0.00</temp>
<bpm>0</bpm>
<rpm>0.00</rpm>
</extensions>
</trkpt>
<trkpt lat="63.810024261" lon="-18.895339966">
<ele>542.984375</ele>
<time>2012-07-25T16:01:32Z</time>
<extensions>
<speed>0.0</speed>
<temp>0.00</temp>
<bpm>0</bpm>
<rpm>0.00</rpm>
</extensions>
</trkpt>
<trkpt lat="63.810024261" lon="-18.895339966">
<ele>542.953125</ele>
<time>2012-07-25T16:01:37Z</time>
<speed>0.010000</speed>
<extensions>
<speed>0.0</speed>
<temp>0.00</temp>
<bpm>0</bpm>
<rpm>0.00</rpm>
</extensions>
</trkpt>
<trkpt lat="63.810024261" lon="-18.895343781">
<ele>542.937500</ele>
<time>2012-07-25T16:01:42Z</time>
<speed>0.100000</speed>
<extensions>
<speed>0.1</speed>
<temp>0.00</temp>
<bpm>0</bpm>
<rpm>0.00</rpm>
</extensions>
</trkpt>
<trkpt lat="63.810020447" lon="-18.895357132">
<ele>542.750000</ele>
<time>2012-07-25T16:01:47Z</time>
<speed>0.740000</speed>
<extensions>
<speed>0.7</speed>
<temp>0.00</temp>
<bpm>0</bpm>
<rpm>0.00</rpm>
</extensions>
</trkpt>
<trkpt lat="63.809978485" lon="-18.895477295">
<ele>543.046875</ele>
<time>2012-07-25T16:01:52Z</time>
<speed>2.260000</speed>
<extensions>
<speed>2.3</speed>
<temp>0.00</temp>
<bpm>0</bpm>
<rpm>0.00</rpm>
</extensions>
</trkpt>
<trkpt lat="63.809936523" lon="-18.895595551">
<ele>543.828125</ele>
<time>2012-07-25T16:01:57Z</time>
<speed>0.350000</speed>
<extensions>
<speed>0.3</speed>
<temp>0.00</temp>
<bpm>0</bpm>
<rpm>0.00</rpm>
</extensions>
</trkpt>
<trkpt lat="63.809917450" lon="-18.895631790">
<ele>543.421875</ele>
<time>2012-07-25T16:02:02Z</time>
<speed>0.650000</speed>
<extensions>
<speed>0.6</speed>
<temp>0.00</temp>
<bpm>0</bpm>
<rpm>0.00</rpm>
</extensions>
</trkpt>
<trkpt lat="63.809909821" lon="-18.895717621">
<ele>543.812500</ele>
<time>2012-07-25T16:02:07Z</time>
<speed>0.940000</speed>
<extensions>
<speed>0.9</speed>
<temp>0.00</temp>
<bpm>0</bpm>
<rpm>0.00</rpm>
</extensions>
</trkpt>
<trkpt lat="63.809852600" lon="-18.895816803">
<ele>543.609375</ele>
<time>2012-07-25T16:02:12Z</time>
<speed>1.940000</speed>
<extensions>
<speed>1.9</speed>
<temp>0.00</temp>
<bpm>0</bpm>
<rpm>0.00</rpm>
</extensions>
</trkpt>
<trkpt lat="63.809783936" lon="-18.895936966">
<ele>543.671875</ele>
<time>2012-07-25T16:02:17Z</time>
<speed>1.390000</speed>
<extensions>
<speed>1.4</speed>
<temp>0.00</temp>
<bpm>0</bpm>
<rpm>0.00</rpm>
</extensions>
</trkpt>
<trkpt lat="63.809715271" lon="-18.896081924">
<ele>543.203125</ele>
<time>2012-07-25T16:02:22Z</time>
<speed>2.210000</speed>
<extensions>
<speed>2.2</speed>
<temp>0.00</temp>
<bpm>0</bpm>
<rpm>0.00</rpm>
</extensions>
</trkpt>
<trkpt lat="63.809661865" lon="-18.896261215">
<ele>543.203125</ele>
<time>2012-07-25T16:02:27Z</time>
<speed>1.670000</speed>
<extensions>
<speed>1.7</speed>
<temp>0.00</temp>
<bpm>0</bpm>
<rpm>0.00</rpm>
</extensions>
</trkpt>
<trkpt lat="63.809627533" lon="-18.896436691">
<ele>543.718750</ele>
<time>2012-07-25T16:02:32Z</time>
<speed>1.950000</speed>
<extensions>
<speed>1.9</speed>
<temp>0.00</temp>
<bpm>0</bpm>
<rpm>0.00</rpm>
</extensions>
</trkpt>
<trkpt lat="63.809543610" lon="-18.896581650">
<ele>542.828125</ele>
<time>2012-07-25T16:02:37Z</time>
<speed>2.350000</speed>
<extensions>
<speed>2.4</speed>
<temp>0.00</temp>
<bpm>0</bpm>
<rpm>0.00</rpm>
</extensions>
</trkpt>
<trkpt lat="63.809494019" lon="-18.896715164">
<ele>542.046875</ele>
<time>2012-07-25T16:02:42Z</time>
<speed>1.970000</speed>
<extensions>
<speed>2.0</speed>
<temp>0.00</temp>
<bpm>0</bpm>
<rpm>0.00</rpm>
</extensions>
</trkpt>
<trkpt lat="63.809432983" lon="-18.896879196">
<ele>540.859375</ele>
<time>2012-07-25T16:02:47Z</time>
<speed>1.400000</speed>
<extensions>
<speed>1.4</speed>
<temp>0.00</temp>
<bpm>0</bpm>
<rpm>0.00</rpm>
</extensions>
</trkpt>
<trkpt lat="63.809383392" lon="-18.897026062">
<ele>540.921875</ele>
<time>2012-07-25T16:02:52Z</time>
<speed>2.150000</speed>
<extensions>
<speed>2.1</speed>
<temp>0.00</temp>
<bpm>0</bpm>
<rpm>0.00</rpm>
</extensions>
</trkpt>
<trkpt lat="63.809314728" lon="-18.897205353">
<ele>540.734375</ele>
<time>2012-07-25T16:02:57Z</time>
<speed>2.520000</speed>
<extensions>
<speed>2.5</speed>
<temp>0.00</temp>
<bpm>0</bpm>
<rpm>0.00</rpm>
</extensions>
</trkpt>
<trkpt lat="63.809226990" lon="-18.897453308">
<ele>540.375000</ele>
<time>2012-07-25T16:03:02Z</time>
<speed>3.070000</speed>
<extensions>
<speed>3.1</speed>
<temp>0.00</temp>
<bpm>0</bpm>
<rpm>0.00</rpm>
</extensions>
</trkpt>
<trkpt lat="63.809135437" lon="-18.897687912">
<ele>539.109375</ele>
<time>2012-07-25T16:03:07Z</time>
<speed>2.740000</speed>
<extensions>
<speed>2.7</speed>
<temp>0.00</temp>
<bpm>0</bpm>
<rpm>0.00</rpm>
</extensions>
</trkpt>
<trkpt lat="63.809059143" lon="-18.897901535">
<ele>539.765625</ele>
<time>2012-07-25T16:03:12Z</time>
<speed>2.880000</speed>
<extensions>
<speed>2.9</speed>
<temp>0.00</temp>
<bpm>0</bpm>
<rpm>0.00</rpm>
</extensions>
</trkpt>
<trkpt lat="63.808959961" lon="-18.898138046">
<ele>540.187500</ele>
<time>2012-07-25T16:03:17Z</time>
<speed>2.620000</speed>
<extensions>
<speed>2.6</speed>
<temp>0.00</temp>
<bpm>0</bpm>
<rpm>0.00</rpm>
</extensions>
</trkpt>
<trkpt lat="63.808879852" lon="-18.898323059">
<ele>540.390625</ele>
<time>2012-07-25T16:03:22Z</time>
<speed>2.670000</speed>
<extensions>
<speed>2.7</speed>
<temp>0.00</temp>
<bpm>0</bpm>
<rpm>0.00</rpm>
</extensions>
</trkpt>
<trkpt lat="63.808799744" lon="-18.898521423">
<ele>540.796875</ele>
<time>2012-07-25T16:03:27Z</time>
<speed>2.320000</speed>
<extensions>
<speed>2.3</speed>
<temp>0.00</temp>
<bpm>0</bpm>
<rpm>0.00</rpm>
</extensions>
</trkpt>
<trkpt lat="63.808723450" lon="-18.898719788">
<ele>541.187500</ele>
<time>2012-07-25T16:03:32Z</time>
<speed>2.540000</speed>
<extensions>
<speed>2.5</speed>
<temp>0.00</temp>
<bpm>0</bpm>
<rpm>0.00</rpm>
</extensions>
</trkpt>
<trkpt lat="63.808643341" lon="-18.898904800">
<ele>541.203125</ele>
<time>2012-07-25T16:03:37Z</time>
<speed>2.430000</speed>
<extensions>
<speed>2.4</speed>
<temp>0.00</temp>
<bpm>0</bpm>
<rpm>0.00</rpm>
</extensions>
</trkpt>
<trkpt lat="63.808582306" lon="-18.899074554">
<ele>542.515625</ele>
<time>2012-07-25T16:03:42Z</time>
<speed>2.540000</speed>
<extensions>
<speed>2.5</speed>
<temp>0.00</temp>
<bpm>0</bpm>
<rpm>0.00</rpm>
</extensions>
</trkpt>
<trkpt lat="63.808517456" lon="-18.899276733">
<ele>543.796875</ele>
<time>2012-07-25T16:03:47Z</time>
<speed>2.440000</speed>
<extensions>
<speed>2.4</speed>
<temp>0.00</temp>
<bpm>0</bpm>
<rpm>0.00</rpm>
</extensions>
</trkpt>
<trkpt lat="63.808448792" lon="-18.899469376">
<ele>542.750000</ele>
<time>2012-07-25T16:03:52Z</time>
<speed>2.790000</speed>
<extensions>
<speed>2.8</speed>
<temp>0.00</temp>
<bpm>0</bpm>
<rpm>0.00</rpm>
</extensions>
</trkpt>
<trkpt lat="63.808387756" lon="-18.899648666">
<ele>544.203125</ele>
<time>2012-07-25T16:03:57Z</time>
<speed>3.030000</speed>
<extensions>
<speed>3.0</speed>
<temp>0.00</temp>
<bpm>0</bpm>
<rpm>0.00</rpm>
</extensions>
</trkpt>
<trkpt lat="63.808322906" lon="-18.899848938">
<ele>543.656250</ele>
<time>2012-07-25T16:04:02Z</time>
<speed>2.460000</speed>
<extensions>
<speed>2.5</speed>
<temp>0.00</temp>
<bpm>0</bpm>
<rpm>0.00</rpm>
</extensions>
</trkpt>
<trkpt lat="63.808280945" lon="-18.899997711">
<ele>544.203125</ele>
<time>2012-07-25T16:04:07Z</time>
<speed>1.050000</speed>
<extensions>
<speed>1.0</speed>
<temp>0.00</temp>
<bpm>0</bpm>
<rpm>0.00</rpm>
</extensions>
</trkpt>
<trkpt lat="63.808235168" lon="-18.900152206">
<ele>545.828125</ele>
<time>2012-07-25T16:04:12Z</time>
<speed>2.110000</speed>
<extensions>
<speed>2.1</speed>
<temp>0.00</temp>
<bpm>0</bpm>
<rpm>0.00</rpm>
</extensions>
</trkpt>
<trkpt lat="63.808181763" lon="-18.900350571">
<ele>546.921875</ele>
<time>2012-07-25T16:04:17Z</time>
<speed>3.130000</speed>
<extensions>
<speed>3.1</speed>
<temp>0.00</temp>
<bpm>0</bpm>
<rpm>0.00</rpm>
</extensions>
</trkpt>
<trkpt lat="63.808109283" lon="-18.900527954">
<ele>546.812500</ele>
<time>2012-07-25T16:04:22Z</time>
<speed>2.620000</speed>
<extensions>
<speed>2.6</speed>
<temp>0.00</temp>
<bpm>0</bpm>
<rpm>0.00</rpm>
</extensions>
</trkpt>
<trkpt lat="63.808044434" lon="-18.900703430">
<ele>546.468750</ele>
<time>2012-07-25T16:04:27Z</time>
<speed>2.500000</speed>
<extensions>
<speed>2.5</speed>
<temp>0.00</temp>
<bpm>0</bpm>
<rpm>0.00</rpm>
</extensions>
</trkpt>
<trkpt lat="63.807975769" lon="-18.900909424">
<ele>546.687500</ele>
<time>2012-07-25T16:04:32Z</time>
<speed>2.460000</speed>
<extensions>
<speed>2.5</speed>
<temp>0.00</temp>
<bpm>0</bpm>
<rpm>0.00</rpm>
</extensions>
</trkpt>
<trkpt lat="63.807907104" lon="-18.901111603">
<ele>548.343750</ele>
<time>2012-07-25T16:04:37Z</time>
<speed>3.000000</speed>
<extensions>
<speed>3.0</speed>
<temp>0.00</temp>
<bpm>0</bpm>
<rpm>0.00</rpm>
</extensions>
</trkpt>
<trkpt lat="63.807823181" lon="-18.901342392">
<ele>548.421875</ele>
<time>2012-07-25T16:04:42Z</time>
<speed>2.610000</speed>
<extensions>
<speed>2.6</speed>
<temp>0.00</temp>
<bpm>0</bpm>
<rpm>0.00</rpm>
</extensions>
</trkpt>
<trkpt lat="63.807743073" lon="-18.901561737">
<ele>547.500000</ele>
<time>2012-07-25T16:04:47Z</time>
<speed>2.640000</speed>
<extensions>
<speed>2.6</speed>
<temp>0.00</temp>
<bpm>0</bpm>
<rpm>0.00</rpm>
</extensions>
</trkpt>
<trkpt lat="63.807666779" lon="-18.901760101">
<ele>548.500000</ele>
<time>2012-07-25T16:04:52Z</time>
<speed>2.400000</speed>
<extensions>
<speed>2.4</speed>
<temp>0.00</temp>
<bpm>0</bpm>
<rpm>0.00</rpm>
</extensions>
</trkpt>
<trkpt lat="63.807590485" lon="-18.901969910">
<ele>548.734375</ele>
<time>2012-07-25T16:04:57Z</time>
<speed>2.170000</speed>
<extensions>
<speed>2.2</speed>
<temp>0.00</temp>
<bpm>0</bpm>
<rpm>0.00</rpm>
</extensions>
</trkpt>
<trkpt lat="63.807544708" lon="-18.902124405">
<ele>548.125000</ele>
<time>2012-07-25T16:05:02Z</time>
<speed>2.170000</speed>
<extensions>
<speed>2.2</speed>
<temp>0.00</temp>
<bpm>0</bpm>
<rpm>0.00</rpm>
</extensions>
</trkpt>
<trkpt lat="63.807472229" lon="-18.902330399">
<ele>547.125000</ele>
<time>2012-07-25T16:05:07Z</time>
<speed>2.560000</speed>
<extensions>
<speed>2.6</speed>
<temp>0.00</temp>
<bpm>0</bpm>
<rpm>0.00</rpm>
</extensions>
</trkpt>
<trkpt lat="63.807392120" lon="-18.902519226">
<ele>545.781250</ele>
<time>2012-07-25T16:05:12Z</time>
<speed>2.620000</speed>
<extensions>
<speed>2.6</speed>
<temp>0.00</temp>
<bpm>0</bpm>
<rpm>0.00</rpm>
</extensions>
</trkpt>
<trkpt lat="63.807308197" lon="-18.902732849">
<ele>544.750000</ele>
<time>2012-07-25T16:05:17Z</time>
<speed>2.810000</speed>
<extensions>
<speed>2.8</speed>
<temp>0.00</temp>
<bpm>0</bpm>
<rpm>0.00</rpm>
</extensions>
</trkpt>
<trkpt lat="63.807231903" lon="-18.902946472">
<ele>544.312500</ele>
<time>2012-07-25T16:05:22Z</time>
<speed>2.820000</speed>
<extensions>
<speed>2.8</speed>
<temp>0.00</temp>
<bpm>0</bpm>
<rpm>0.00</rpm>
</extensions>
</trkpt>
<trkpt lat="63.807151794" lon="-18.903162003">
<ele>543.390625</ele>
<time>2012-07-25T16:05:27Z</time>
<speed>2.860000</speed>
<extensions>
<speed>2.9</speed>
<temp>0.00</temp>
<bpm>0</bpm>
<rpm>0.00</rpm>
</extensions>
</trkpt>
<trkpt lat="63.807071686" lon="-18.903366089">
<ele>542.703125</ele>
<time>2012-07-25T16:05:32Z</time>
<speed>2.890000</speed>
<extensions>
<speed>2.9</speed>
<temp>0.00</temp>
<bpm>0</bpm>
<rpm>0.00</rpm>
</extensions>
</trkpt>
<trkpt lat="63.806991577" lon="-18.903581619">
<ele>542.281250</ele>
<time>2012-07-25T16:05:37Z</time>
<speed>2.920000</speed>
<extensions>
<speed>2.9</speed>
<temp>0.00</temp>
<bpm>0</bpm>
<rpm>0.00</rpm>
</extensions>
</trkpt>
<trkpt lat="63.806907654" lon="-18.903808594">
<ele>541.609375</ele>
<time>2012-07-25T16:05:42Z</time>
<speed>3.000000</speed>
<extensions>
<speed>3.0</speed>
<temp>0.00</temp>
<bpm>0</bpm>
<rpm>0.00</rpm>
</extensions>
</trkpt>
<trkpt lat="63.806819916" lon="-18.904043198">
<ele>542.593750</ele>
<time>2012-07-25T16:05:47Z</time>
<speed>3.040000</speed>
<extensions>
<speed>3.0</speed>
<temp>0.00</temp>
<bpm>0</bpm>
<rpm>0.00</rpm>
</extensions>
</trkpt>
<trkpt lat="63.806732178" lon="-18.904264450">
<ele>543.265625</ele>
<time>2012-07-25T16:05:52Z</time>
<speed>2.950000</speed>
<extensions>
<speed>2.9</speed>
<temp>0.00</temp>
<bpm>0</bpm>
<rpm>0.00</rpm>
</extensions>
</trkpt>
<trkpt lat="63.806632996" lon="-18.904506683">
<ele>544.015625</ele>
<time>2012-07-25T16:05:57Z</time>
<speed>2.450000</speed>
<extensions>
<speed>2.4</speed>
<temp>0.00</temp>
<bpm>0</bpm>
<rpm>0.00</rpm>
</extensions>
</trkpt>
<trkpt lat="63.806545258" lon="-18.904735565">
<ele>541.937500</ele>
<time>2012-07-25T16:06:02Z</time>
<speed>3.000000</speed>
<extensions>
<speed>3.0</speed>
<temp>0.00</temp>
<bpm>0</bpm>
<rpm>0.00</rpm>
</extensions>
</trkpt>
<trkpt lat="63.806503296" lon="-18.904888153">
<ele>540.656250</ele>
<time>2012-07-25T16:06:07Z</time>
<speed>1.790000</speed>
<extensions>
<speed>1.8</speed>
<temp>0.00</temp>
<bpm>0</bpm>
<rpm>0.00</rpm>
</extensions>
</trkpt>
<trkpt lat="63.806442261" lon="-18.905029297">
<ele>540.296875</ele>
<time>2012-07-25T16:06:12Z</time>
<speed>2.030000</speed>
<extensions>
<speed>2.0</speed>
<temp>0.00</temp>
<bpm>0</bpm>
<rpm>0.00</rpm>
</extensions>
</trkpt>
<trkpt lat="63.806362152" lon="-18.905227661">
<ele>539.218750</ele>
<time>2012-07-25T16:06:17Z</time>
<speed>2.860000</speed>
<extensions>
<speed>2.9</speed>
<temp>0.00</temp>
<bpm>0</bpm>
<rpm>0.00</rpm>
</extensions>
</trkpt>
<trkpt lat="63.806278229" lon="-18.905435562">
<ele>537.406250</ele>
<time>2012-07-25T16:06:22Z</time>
<speed>2.960000</speed>
<extensions>
<speed>3.0</speed>
<temp>0.00</temp>
<bpm>0</bpm>
<rpm>0.00</rpm>
</extensions>
</trkpt>
<trkpt lat="63.806194305" lon="-18.905660629">
<ele>537.765625</ele>
<time>2012-07-25T16:06:27Z</time>
<speed>2.980000</speed>
<extensions>
<speed>3.0</speed>
<temp>0.00</temp>
<bpm>0</bpm>
<rpm>0.00</rpm>
</extensions>
</trkpt>
<trkpt lat="63.806106567" lon="-18.905870438">
<ele>538.359375</ele>
<time>2012-07-25T16:06:32Z</time>
<speed>3.120000</speed>
<extensions>
<speed>3.1</speed>
<temp>0.00</temp>
<bpm>0</bpm>
<rpm>0.00</rpm>
</extensions>
</trkpt>
<trkpt lat="63.806022644" lon="-18.906116486">
<ele>538.015625</ele>
<time>2012-07-25T16:06:37Z</time>
<speed>3.010000</speed>
<extensions>
<speed>3.0</speed>
<temp>0.00</temp>
<bpm>0</bpm>
<rpm>0.00</rpm>
</extensions>
</trkpt>
<trkpt lat="63.805938721" lon="-18.906358719">
<ele>538.828125</ele>
<time>2012-07-25T16:06:42Z</time>
<speed>2.920000</speed>
<extensions>
<speed>2.9</speed>
<temp>0.00</temp>
<bpm>0</bpm>
<rpm>0.00</rpm>
</extensions>
</trkpt>
<trkpt lat="63.805850983" lon="-18.906566620">
<ele>540.187500</ele>
<time>2012-07-25T16:06:47Z</time>
<speed>2.670000</speed>
<extensions>
<speed>2.7</speed>
<temp>0.00</temp>
<bpm>0</bpm>
<rpm>0.00</rpm>
</extensions>
</trkpt>
<trkpt lat="63.805774689" lon="-18.906778336">
<ele>541.890625</ele>
<time>2012-07-25T16:06:52Z</time>
<speed>2.570000</speed>
<extensions>
<speed>2.6</speed>
<temp>0.00</temp>
<bpm>0</bpm>
<rpm>0.00</rpm>
</extensions>
</trkpt>
<trkpt lat="63.805698395" lon="-18.906991959">
<ele>542.765625</ele>
<time>2012-07-25T16:06:57Z</time>
<speed>2.730000</speed>
<extensions>
<speed>2.7</speed>
<temp>0.00</temp>
<bpm>0</bpm>
<rpm>0.00</rpm>
</extensions>
</trkpt>
<trkpt lat="63.805614471" lon="-18.907215118">
<ele>543.250000</ele>
<time>2012-07-25T16:07:02Z</time>
<speed>2.860000</speed>
<extensions>
<speed>2.9</speed>
<temp>0.00</temp>
<bpm>0</bpm>
<rpm>0.00</rpm>
</extensions>
</trkpt>
<trkpt lat="63.805530548" lon="-18.907444000">
<ele>543.093750</ele>
<time>2012-07-25T16:07:07Z</time>
<speed>2.870000</speed>
<extensions>
<speed>2.9</speed>
<temp>0.00</temp>
<bpm>0</bpm>
<rpm>0.00</rpm>
</extensions>
</trkpt>
<trkpt lat="63.805438995" lon="-18.907676697">
<ele>543.062500</ele>
<time>2012-07-25T16:07:12Z</time>
<speed>3.010000</speed>
<extensions>
<speed>3.0</speed>
<temp>0.00</temp>
<bpm>0</bpm>
<rpm>0.00</rpm>
</extensions>
</trkpt>
<trkpt lat="63.805347443" lon="-18.907911301">
<ele>543.531250</ele>
<time>2012-07-25T16:07:17Z</time>
<speed>3.050000</speed>
<extensions>
<speed>3.0</speed>
<temp>0.00</temp>
<bpm>0</bpm>
<rpm>0.00</rpm>
</extensions>
</trkpt>
<trkpt lat="63.805252075" lon="-18.908147812">
<ele>543.828125</ele>
<time>2012-07-25T16:07:22Z</time>
<speed>3.150000</speed>
<extensions>
<speed>3.2</speed>
<temp>0.00</temp>
<bpm>0</bpm>
<rpm>0.00</rpm>
</extensions>
</trkpt>
<trkpt lat="63.805160522" lon="-18.908391953">
<ele>543.859375</ele>
<time>2012-07-25T16:07:27Z</time>
<speed>3.170000</speed>
<extensions>
<speed>3.2</speed>
<temp>0.00</temp>
<bpm>0</bpm>
<rpm>0.00</rpm>
</extensions>
</trkpt>
<trkpt lat="63.805065155" lon="-18.908638000">
<ele>544.156250</ele>
<time>2012-07-25T16:07:32Z</time>
<speed>3.290000</speed>
<extensions>
<speed>3.3</speed>
<temp>0.00</temp>
<bpm>0</bpm>
<rpm>0.00</rpm>
</extensions>
</trkpt>
<trkpt lat="63.804969788" lon="-18.908889771">
<ele>544.218750</ele>
<time>2012-07-25T16:07:37Z</time>
<speed>3.280000</speed>
<extensions>
<speed>3.3</speed>
<temp>0.00</temp>
<bpm>0</bpm>
<rpm>0.00</rpm>
</extensions>
</trkpt>
<trkpt lat="63.804870605" lon="-18.909135818">
<ele>544.593750</ele>
<time>2012-07-25T16:07:42Z</time>
<speed>3.160000</speed>
<extensions>
<speed>3.2</speed>
<temp>0.00</temp>
<bpm>0</bpm>
<rpm>0.00</rpm>
</extensions>
</trkpt>
<trkpt lat="63.804775238" lon="-18.909381866">
<ele>544.906250</ele>
<time>2012-07-25T16:07:47Z</time>
<speed>3.090000</speed>
<extensions>
<speed>3.1</speed>
<temp>0.00</temp>
<bpm>0</bpm>
<rpm>0.00</rpm>
</extensions>
</trkpt>
<trkpt lat="63.804687500" lon="-18.909631729">
<ele>545.609375</ele>
<time>2012-07-25T16:07:52Z</time>
<speed>3.100000</speed>
<extensions>
<speed>3.1</speed>
<temp>0.00</temp>
<bpm>0</bpm>
<rpm>0.00</rpm>
</extensions>
</trkpt>
<trkpt lat="63.804592133" lon="-18.909872055">
<ele>546.078125</ele>
<time>2012-07-25T16:07:57Z</time>
<speed>3.200000</speed>
<extensions>
<speed>3.2</speed>
<temp>0.00</temp>
<bpm>0</bpm>
<rpm>0.00</rpm>
</extensions>
</trkpt>
<trkpt lat="63.804496765" lon="-18.910104752">
<ele>546.281250</ele>
<time>2012-07-25T16:08:02Z</time>
<speed>3.200000</speed>
<extensions>
<speed>3.2</speed>
<temp>0.00</temp>
<bpm>0</bpm>
<rpm>0.00</rpm>
</extensions>
</trkpt>
<trkpt lat="63.804397583" lon="-18.910345078">
<ele>546.828125</ele>
<time>2012-07-25T16:08:07Z</time>
<speed>3.310000</speed>
<extensions>
<speed>3.3</speed>
<temp>0.00</temp>
<bpm>0</bpm>
<rpm>0.00</rpm>
</extensions>
</trkpt>
<trkpt lat="63.804306030" lon="-18.910591125">
<ele>547.031250</ele>
<time>2012-07-25T16:08:12Z</time>
<speed>3.210000</speed>
<extensions>
<speed>3.2</speed>
<temp>0.00</temp>
<bpm>0</bpm>
<rpm>0.00</rpm>
</extensions>
</trkpt>
<trkpt lat="63.804214478" lon="-18.910852432">
<ele>547.421875</ele>
<time>2012-07-25T16:08:17Z</time>
<speed>3.140000</speed>
<extensions>
<speed>3.1</speed>
<temp>0.00</temp>
<bpm>0</bpm>
<rpm>0.00</rpm>
</extensions>
</trkpt>
<trkpt lat="63.804126740" lon="-18.911075592">
<ele>547.750000</ele>
<time>2012-07-25T16:08:22Z</time>
<speed>3.130000</speed>
<extensions>
<speed>3.1</speed>
<temp>0.00</temp>
<bpm>0</bpm>
<rpm>0.00</rpm>
</extensions>
</trkpt>
<trkpt lat="63.804046631" lon="-18.911298752">
<ele>548.484375</ele>
<time>2012-07-25T16:08:27Z</time>
<speed>2.800000</speed>
<extensions>
<speed>2.8</speed>
<temp>0.00</temp>
<bpm>0</bpm>
<rpm>0.00</rpm>
</extensions>
</trkpt>
<trkpt lat="63.803970337" lon="-18.911512375">
<ele>549.343750</ele>
<time>2012-07-25T16:08:32Z</time>
<speed>1.070000</speed>
<extensions>
<speed>1.1</speed>
<temp>0.00</temp>
<bpm>0</bpm>
<rpm>0.00</rpm>
</extensions>
</trkpt>
<trkpt lat="63.803871155" lon="-18.911741257">
<ele>550.515625</ele>
<time>2012-07-25T16:08:37Z</time>
<speed>3.210000</speed>
<extensions>
<speed>3.2</speed>
<temp>0.00</temp>
<bpm>0</bpm>
<rpm>0.00</rpm>
</extensions>
</trkpt>
<trkpt lat="63.803783417" lon="-18.911987305">
<ele>550.640625</ele>
<time>2012-07-25T16:08:42Z</time>
<speed>3.060000</speed>
<extensions>
<speed>3.1</speed>
<temp>0.00</temp>
<bpm>0</bpm>
<rpm>0.00</rpm>
</extensions>
</trkpt>
<trkpt lat="63.803688049" lon="-18.912233353">
<ele>550.968750</ele>
<time>2012-07-25T16:08:47Z</time>
<speed>3.090000</speed>
<extensions>
<speed>3.1</speed>
<temp>0.00</temp>
<bpm>0</bpm>
<rpm>0.00</rpm>
</extensions>
</trkpt>
<trkpt lat="63.803604126" lon="-18.912477493">
<ele>551.156250</ele>
<time>2012-07-25T16:08:52Z</time>
<speed>3.200000</speed>
<extensions>
<speed>3.2</speed>
<temp>0.00</temp>
<bpm>0</bpm>
<rpm>0.00</rpm>
</extensions>
</trkpt>
<trkpt lat="63.803516388" lon="-18.912725449">
<ele>550.609375</ele>
<time>2012-07-25T16:08:57Z</time>
<speed>3.370000</speed>
<extensions>
<speed>3.4</speed>
<temp>0.00</temp>
<bpm>0</bpm>
<rpm>0.00</rpm>
</extensions>
</trkpt>
<trkpt lat="63.803421021" lon="-18.912982941">
<ele>550.656250</ele>
<time>2012-07-25T16:09:02Z</time>
<speed>3.050000</speed>
<extensions>
<speed>3.0</speed>
<temp>0.00</temp>
<bpm>0</bpm>
<rpm>0.00</rpm>
</extensions>
</trkpt>
<trkpt lat="63.803329468" lon="-18.913223267">
<ele>550.578125</ele>
<time>2012-07-25T16:09:07Z</time>
<speed>3.140000</speed>
<extensions>
<speed>3.1</speed>
<temp>0.00</temp>
<bpm>0</bpm>
<rpm>0.00</rpm>
</extensions>
</trkpt>
<trkpt lat="63.803241730" lon="-18.913465500">
<ele>550.531250</ele>
<time>2012-07-25T16:09:12Z</time>
<speed>3.090000</speed>
<extensions>
<speed>3.1</speed>
<temp>0.00</temp>
<bpm>0</bpm>
<rpm>0.00</rpm>
</extensions>
</trkpt>
<trkpt lat="63.803153992" lon="-18.913728714">
<ele>550.437500</ele>
<time>2012-07-25T16:09:17Z</time>
<speed>3.090000</speed>
<extensions>
<speed>3.1</speed>
<temp>0.00</temp>
<bpm>0</bpm>
<rpm>0.00</rpm>
</extensions>
</trkpt>
<trkpt lat="63.803054810" lon="-18.913991928">
<ele>550.640625</ele>
<time>2012-07-25T16:09:22Z</time>
<speed>3.370000</speed>
<extensions>
<speed>3.4</speed>
<temp>0.00</temp>
<bpm>0</bpm>
<rpm>0.00</rpm>
</extensions>
</trkpt>
<trkpt lat="63.802967072" lon="-18.914251328">
<ele>549.921875</ele>
<time>2012-07-25T16:09:27Z</time>
<speed>3.150000</speed>
<extensions>
<speed>3.2</speed>
<temp>0.00</temp>
<bpm>0</bpm>
<rpm>0.00</rpm>
</extensions>
</trkpt>
<trkpt lat="63.802864075" lon="-18.914527893">
<ele>550.765625</ele>
<time>2012-07-25T16:09:32Z</time>
<speed>3.500000</speed>
<extensions>
<speed>3.5</speed>
<temp>0.00</temp>
<bpm>0</bpm>
<rpm>0.00</rpm>
</extensions>
</trkpt>
<trkpt lat="63.802768707" lon="-18.914794922">
<ele>550.781250</ele>
<time>2012-07-25T16:09:37Z</time>
<speed>3.320000</speed>
<extensions>
<speed>3.3</speed>
<temp>0.00</temp>
<bpm>0</bpm>
<rpm>0.00</rpm>
</extensions>
</trkpt>
<trkpt lat="63.802680969" lon="-18.915040970">
<ele>549.546875</ele>
<time>2012-07-25T16:09:42Z</time>
<speed>2.970000</speed>
<extensions>
<speed>3.0</speed>
<temp>0.00</temp>
<bpm>0</bpm>
<rpm>0.00</rpm>
</extensions>
</trkpt>
<trkpt lat="63.802589417" lon="-18.915292740">
<ele>549.734375</ele>
<time>2012-07-25T16:09:47Z</time>
<speed>3.220000</speed>
<extensions>
<speed>3.2</speed>
<temp>0.00</temp>
<bpm>0</bpm>
<rpm>0.00</rpm>
</extensions>
</trkpt>
<trkpt lat="63.802497864" lon="-18.915555954">
<ele>549.625000</ele>
<time>2012-07-25T16:09:52Z</time>
<speed>3.300000</speed>
<extensions>
<speed>3.3</speed>
<temp>0.00</temp>
<bpm>0</bpm>
<rpm>0.00</rpm>
</extensions>
</trkpt>
<trkpt lat="63.802402496" lon="-18.915805817">
<ele>551.156250</ele>
<time>2012-07-25T16:09:57Z</time>
<speed>3.180000</speed>
<extensions>
<speed>3.2</speed>
<temp>0.00</temp>
<bpm>0</bpm>
<rpm>0.00</rpm>
</extensions>
</trkpt>
<trkpt lat="63.802314758" lon="-18.916059494">
<ele>550.875000</ele>
<time>2012-07-25T16:10:02Z</time>
<speed>3.160000</speed>
<extensions>
<speed>3.2</speed>
<temp>0.00</temp>
<bpm>0</bpm>
<rpm>0.00</rpm>
</extensions>
</trkpt>
<trkpt lat="63.802223206" lon="-18.916309357">
<ele>550.437500</ele>
<time>2012-07-25T16:10:07Z</time>
<speed>3.090000</speed>
<extensions>
<speed>3.1</speed>
<temp>0.00</temp>
<bpm>0</bpm>
<rpm>0.00</rpm>
</extensions>
</trkpt>
<trkpt lat="63.802124023" lon="-18.916563034">
<ele>550.953125</ele>
<time>2012-07-25T16:10:12Z</time>
<speed>3.530000</speed>
<extensions>
<speed>3.5</speed>
<temp>0.00</temp>
<bpm>0</bpm>
<rpm>0.00</rpm>
</extensions>
</trkpt>
<trkpt lat="63.802021027" lon="-18.916831970">
<ele>550.390625</ele>
<time>2012-07-25T16:10:17Z</time>
<speed>3.580000</speed>
<extensions>
<speed>3.6</speed>
<temp>0.00</temp>
<bpm>0</bpm>
<rpm>0.00</rpm>
</extensions>
</trkpt>
<trkpt lat="63.801925659" lon="-18.917089462">
<ele>550.406250</ele>
<time>2012-07-25T16:10:22Z</time>
<speed>3.160000</speed>
<extensions>
<speed>3.2</speed>
<temp>0.00</temp>
<bpm>0</bpm>
<rpm>0.00</rpm>
</extensions>
</trkpt>
<trkpt lat="63.801834106" lon="-18.917339325">
<ele>549.718750</ele>
<time>2012-07-25T16:10:27Z</time>
<speed>3.180000</speed>
<extensions>
<speed>3.2</speed>
<temp>0.00</temp>
<bpm>0</bpm>
<rpm>0.00</rpm>
</extensions>
</trkpt>
<trkpt lat="63.801734924" lon="-18.917591095">
<ele>549.437500</ele>
<time>2012-07-25T16:10:32Z</time>
<speed>3.360000</speed>
<extensions>
<speed>3.4</speed>
<temp>0.00</temp>
<bpm>0</bpm>
<rpm>0.00</rpm>
</extensions>
</trkpt>
<trkpt lat="63.801643372" lon="-18.917835236">
<ele>550.703125</ele>
<time>2012-07-25T16:10:37Z</time>
<speed>3.060000</speed>
<extensions>
<speed>3.1</speed>
<temp>0.00</temp>
<bpm>0</bpm>
<rpm>0.00</rpm>
</extensions>
</trkpt>
<trkpt lat="63.801532745" lon="-18.918100357">
<ele>550.937500</ele>
<time>2012-07-25T16:10:42Z</time>
<speed>3.440000</speed>
<extensions>
<speed>3.4</speed>
<temp>0.00</temp>
<bpm>0</bpm>
<rpm>0.00</rpm>
</extensions>
</trkpt>
<trkpt lat="63.801429749" lon="-18.918382645">
<ele>550.421875</ele>
<time>2012-07-25T16:10:47Z</time>
<speed>2.590000</speed>
<extensions>
<speed>2.6</speed>
<temp>0.00</temp>
<bpm>0</bpm>
<rpm>0.00</rpm>
</extensions>
</trkpt>
<trkpt lat="63.801338196" lon="-18.918628693">
<ele>550.203125</ele>
<time>2012-07-25T16:10:52Z</time>
<speed>2.950000</speed>
<extensions>
<speed>2.9</speed>
<temp>0.00</temp>
<bpm>0</bpm>
<rpm>0.00</rpm>
</extensions>
</trkpt>
<trkpt lat="63.801254272" lon="-18.918886185">
<ele>548.468750</ele>
<time>2012-07-25T16:10:57Z</time>
<speed>3.550000</speed>
<extensions>
<speed>3.5</speed>
<temp>0.00</temp>
<bpm>0</bpm>
<rpm>0.00</rpm>
</extensions>
</trkpt>
<trkpt lat="63.801151276" lon="-18.919172287">
<ele>547.781250</ele>
<time>2012-07-25T16:11:02Z</time>
<speed>3.980000</speed>
<extensions>
<speed>4.0</speed>
<temp>0.00</temp>
<bpm>0</bpm>
<rpm>0.00</rpm>
</extensions>
</trkpt>
<trkpt lat="63.801033020" lon="-18.919471741">
<ele>547.109375</ele>
<time>2012-07-25T16:11:07Z</time>
<speed>3.460000</speed>
<extensions>
<speed>3.5</speed>
<temp>0.00</temp>
<bpm>0</bpm>
<rpm>0.00</rpm>
</extensions>
</trkpt>
<trkpt lat="63.800933838" lon="-18.919708252">
<ele>544.703125</ele>
<time>2012-07-25T16:11:12Z</time>
<speed>3.180000</speed>
<extensions>
<speed>3.2</speed>
<temp>0.00</temp>
<bpm>0</bpm>
<rpm>0.00</rpm>
</extensions>
</trkpt>
<trkpt lat="63.800827026" lon="-18.919981003">
<ele>542.031250</ele>
<time>2012-07-25T16:11:17Z</time>
<speed>3.360000</speed>
<extensions>
<speed>3.4</speed>
<temp>0.00</temp>
<bpm>0</bpm>
<rpm>0.00</rpm>
</extensions>
</trkpt>
<trkpt lat="63.800720215" lon="-18.920272827">
<ele>543.156250</ele>
<time>2012-07-25T16:11:22Z</time>
<speed>3.480000</speed>
<extensions>
<speed>3.5</speed>
<temp>0.00</temp>
<bpm>0</bpm>
<rpm>0.00</rpm>
</extensions>
</trkpt>
<trkpt lat="63.800613403" lon="-18.920541763">
<ele>542.343750</ele>
<time>2012-07-25T16:11:27Z</time>
<speed>3.690000</speed>
<extensions>
<speed>3.7</speed>
<temp>0.00</temp>
<bpm>0</bpm>
<rpm>0.00</rpm>
</extensions>
</trkpt>
<trkpt lat="63.800506592" lon="-18.920831680">
<ele>541.125000</ele>
<time>2012-07-25T16:11:32Z</time>
<speed>3.570000</speed>
<extensions>
<speed>3.6</speed>
<temp>0.00</temp>
<bpm>0</bpm>
<rpm>0.00</rpm>
</extensions>
</trkpt>
<trkpt lat="63.800415039" lon="-18.921106339">
<ele>544.093750</ele>
<time>2012-07-25T16:11:37Z</time>
<speed>3.310000</speed>
<extensions>
<speed>3.3</speed>
<temp>0.00</temp>
<bpm>0</bpm>
<rpm>0.00</rpm>
</extensions>
</trkpt>
<trkpt lat="63.800327301" lon="-18.921335220">
<ele>546.875000</ele>
<time>2012-07-25T16:11:42Z</time>
<speed>3.060000</speed>
<extensions>
<speed>3.1</speed>
<temp>0.00</temp>
<bpm>0</bpm>
<rpm>0.00</rpm>
</extensions>
</trkpt>
<trkpt lat="63.800235748" lon="-18.921539307">
<ele>547.000000</ele>
<time>2012-07-25T16:11:47Z</time>
<speed>2.840000</speed>
<extensions>
<speed>2.8</speed>
<temp>0.00</temp>
<bpm>0</bpm>
<rpm>0.00</rpm>
</extensions>
</trkpt>
<trkpt lat="63.800136566" lon="-18.921756744">
<ele>546.531250</ele>
<time>2012-07-25T16:11:52Z</time>
<speed>3.190000</speed>
<extensions>
<speed>3.2</speed>
<temp>0.00</temp>
<bpm>0</bpm>
<rpm>0.00</rpm>
</extensions>
</trkpt>
<trkpt lat="63.800025940" lon="-18.922006607">
<ele>545.750000</ele>
<time>2012-07-25T16:11:57Z</time>
<speed>3.090000</speed>
<extensions>
<speed>3.1</speed>
<temp>0.00</temp>
<bpm>0</bpm>
<rpm>0.00</rpm>
</extensions>
</trkpt>
<trkpt lat="63.799953461" lon="-18.922203064">
<ele>547.703125</ele>
<time>2012-07-25T16:12:02Z</time>
<speed>1.900000</speed>
<extensions>
<speed>1.9</speed>
<temp>0.00</temp>
<bpm>0</bpm>
<rpm>0.00</rpm>
</extensions>
</trkpt>
<trkpt lat="63.799896240" lon="-18.922384262">
<ele>549.218750</ele>
<time>2012-07-25T16:12:07Z</time>
<speed>2.400000</speed>
<extensions>
<speed>2.4</speed>
<temp>0.00</temp>
<bpm>0</bpm>
<rpm>0.00</rpm>
</extensions>
</trkpt>
<trkpt lat="63.799808502" lon="-18.922573090">
<ele>550.937500</ele>
<time>2012-07-25T16:12:12Z</time>
<speed>3.120000</speed>
<extensions>
<speed>3.1</speed>
<temp>0.00</temp>
<bpm>0</bpm>
<rpm>0.00</rpm>
</extensions>
</trkpt>
<trkpt lat="63.799724579" lon="-18.922782898">
<ele>555.531250</ele>
<time>2012-07-25T16:12:17Z</time>
<speed>1.860000</speed>
<extensions>
<speed>1.9</speed>
<temp>0.00</temp>
<bpm>0</bpm>
<rpm>0.00</rpm>
</extensions>
</trkpt>
<trkpt lat="63.799728394" lon="-18.922805786">
<ele>556.687500</ele>
<time>2012-07-25T16:12:22Z</time>
<speed>0.050000</speed>
<extensions>
<speed>0.1</speed>
<temp>0.00</temp>
<bpm>0</bpm>
<rpm>0.00</rpm>
</extensions>
</trkpt>
<trkpt lat="63.799697876" lon="-18.922876358">
<ele>558.359375</ele>
<time>2012-07-25T16:12:27Z</time>
<speed>1.950000</speed>
<extensions>
<speed>1.9</speed>
<temp>0.00</temp>
<bpm>0</bpm>
<rpm>0.00</rpm>
</extensions>
</trkpt>
<trkpt lat="63.799640656" lon="-18.923027039">
<ele>559.500000</ele>
<time>2012-07-25T16:12:32Z</time>
<speed>1.900000</speed>
<extensions>
<speed>1.9</speed>
<temp>0.00</temp>
<bpm>0</bpm>
<rpm>0.00</rpm>
</extensions>
</trkpt>
<trkpt lat="63.799560547" lon="-18.923229218">
<ele>559.593750</ele>
<time>2012-07-25T16:12:37Z</time>
<speed>3.040000</speed>
<extensions>
<speed>3.0</speed>
<temp>0.00</temp>
<bpm>0</bpm>
<rpm>0.00</rpm>
</extensions>
</trkpt>
<trkpt lat="63.799442291" lon="-18.923437119">
<ele>558.484375</ele>
<time>2012-07-25T16:12:42Z</time>
<speed>3.300000</speed>
<extensions>
<speed>3.3</speed>
<temp>0.00</temp>
<bpm>0</bpm>
<rpm>0.00</rpm>
</extensions>
</trkpt>
<trkpt lat="63.799335480" lon="-18.923683167">
<ele>558.187500</ele>
<time>2012-07-25T16:12:47Z</time>
<speed>3.460000</speed>
<extensions>
<speed>3.5</speed>
<temp>0.00</temp>
<bpm>0</bpm>
<rpm>0.00</rpm>
</extensions>
</trkpt>
<trkpt lat="63.799236298" lon="-18.923940659">
<ele>557.390625</ele>
<time>2012-07-25T16:12:52Z</time>
<speed>3.340000</speed>
<extensions>
<speed>3.3</speed>
<temp>0.00</temp>
<bpm>0</bpm>
<rpm>0.00</rpm>
</extensions>
</trkpt>
<trkpt lat="63.799137115" lon="-18.924196243">
<ele>556.968750</ele>
<time>2012-07-25T16:12:57Z</time>
<speed>3.540000</speed>
<extensions>
<speed>3.5</speed>
<temp>0.00</temp>
<bpm>0</bpm>
<rpm>0.00</rpm>
</extensions>
</trkpt>
<trkpt lat="63.799022675" lon="-18.924448013">
<ele>555.765625</ele>
<time>2012-07-25T16:13:02Z</time>
<speed>3.320000</speed>
<extensions>
<speed>3.3</speed>
<temp>0.00</temp>
<bpm>0</bpm>
<rpm>0.00</rpm>
</extensions>
</trkpt>
<trkpt lat="63.798954010" lon="-18.924648285">
<ele>554.500000</ele>
<time>2012-07-25T16:13:07Z</time>
<speed>2.550000</speed>
<extensions>
<speed>2.6</speed>
<temp>0.00</temp>
<bpm>0</bpm>
<rpm>0.00</rpm>
</extensions>
</trkpt>
<trkpt lat="63.798870087" lon="-18.924865723">
<ele>554.890625</ele>
<time>2012-07-25T16:13:12Z</time>
<speed>3.330000</speed>
<extensions>
<speed>3.3</speed>
<temp>0.00</temp>
<bpm>0</bpm>
<rpm>0.00</rpm>
</extensions>
</trkpt>
<trkpt lat="63.798759460" lon="-18.925128937">
<ele>556.109375</ele>
<time>2012-07-25T16:13:17Z</time>
<speed>3.220000</speed>
<extensions>
<speed>3.2</speed>
<temp>0.00</temp>
<bpm>0</bpm>
<rpm>0.00</rpm>
</extensions>
</trkpt>
<trkpt lat="63.798679352" lon="-18.925344467">
<ele>556.015625</ele>
<time>2012-07-25T16:13:22Z</time>
<speed>2.590000</speed>
<extensions>
<speed>2.6</speed>
<temp>0.00</temp>
<bpm>0</bpm>
<rpm>0.00</rpm>
</extensions>
</trkpt>
<trkpt lat="63.798595428" lon="-18.925548553">
<ele>554.921875</ele>
<time>2012-07-25T16:13:27Z</time>
<speed>2.940000</speed>
<extensions>
<speed>2.9</speed>
<temp>0.00</temp>
<bpm>0</bpm>
<rpm>0.00</rpm>
</extensions>
</trkpt>
<trkpt lat="63.798492432" lon="-18.925773621">
<ele>553.625000</ele>
<time>2012-07-25T16:13:32Z</time>
<speed>3.250000</speed>
<extensions>
<speed>3.2</speed>
<temp>0.00</temp>
<bpm>0</bpm>
<rpm>0.00</rpm>
</extensions>
</trkpt>
<trkpt lat="63.798400879" lon="-18.925989151">
<ele>552.031250</ele>
<time>2012-07-25T16:13:37Z</time>
<speed>2.230000</speed>
<extensions>
<speed>2.2</speed>
<temp>0.00</temp>
<bpm>0</bpm>
<rpm>0.00</rpm>
</extensions>
</trkpt>
<trkpt lat="63.798347473" lon="-18.926147461">
<ele>552.328125</ele>
<time>2012-07-25T16:13:42Z</time>
<speed>2.090000</speed>
<extensions>
<speed>2.1</speed>
<temp>0.00</temp>
<bpm>0</bpm>
<rpm>0.00</rpm>
</extensions>
</trkpt>
<trkpt lat="63.798263550" lon="-18.926343918">
<ele>551.218750</ele>
<time>2012-07-25T16:13:47Z</time>
<speed>2.730000</speed>
<extensions>
<speed>2.7</speed>
<temp>0.00</temp>
<bpm>0</bpm>
<rpm>0.00</rpm>
</extensions>
</trkpt>
<trkpt lat="63.798183441" lon="-18.926567078">
<ele>552.078125</ele>
<time>2012-07-25T16:13:52Z</time>
<speed>2.700000</speed>
<extensions>
<speed>2.7</speed>
<temp>0.00</temp>
<bpm>0</bpm>
<rpm>0.00</rpm>
</extensions>
</trkpt>
<trkpt lat="63.798099518" lon="-18.926797867">
<ele>552.250000</ele>
<time>2012-07-25T16:13:57Z</time>
<speed>3.080000</speed>
<extensions>
<speed>3.1</speed>
<temp>0.00</temp>
<bpm>0</bpm>
<rpm>0.00</rpm>
</extensions>
</trkpt>
<trkpt lat="63.797996521" lon="-18.927040100">
<ele>551.609375</ele>
<time>2012-07-25T16:14:02Z</time>
<speed>3.480000</speed>
<extensions>
<speed>3.5</speed>
<temp>0.00</temp>
<bpm>0</bpm>
<rpm>0.00</rpm>
</extensions>
</trkpt>
<trkpt lat="63.797904968" lon="-18.927286148">
<ele>548.953125</ele>
<time>2012-07-25T16:14:07Z</time>
<speed>2.920000</speed>
<extensions>
<speed>2.9</speed>
<temp>0.00</temp>
<bpm>0</bpm>
<rpm>0.00</rpm>
</extensions>
</trkpt>
<trkpt lat="63.797801971" lon="-18.927549362">
<ele>551.796875</ele>
<time>2012-07-25T16:14:12Z</time>
<speed>3.660000</speed>
<extensions>
<speed>3.7</speed>
<temp>0.00</temp>
<bpm>0</bpm>
<rpm>0.00</rpm>
</extensions>
</trkpt>
<trkpt lat="63.797679901" lon="-18.927803040">
<ele>551.187500</ele>
<time>2012-07-25T16:14:17Z</time>
<speed>3.700000</speed>
<extensions>
<speed>3.7</speed>
<temp>0.00</temp>
<bpm>0</bpm>
<rpm>0.00</rpm>
</extensions>
</trkpt>
<trkpt lat="63.797569275" lon="-18.928070068">
<ele>550.156250</ele>
<time>2012-07-25T16:14:22Z</time>
<speed>3.260000</speed>
<extensions>
<speed>3.3</speed>
<temp>0.00</temp>
<bpm>0</bpm>
<rpm>0.00</rpm>
</extensions>
</trkpt>
<trkpt lat="63.797496796" lon="-18.928253174">
<ele>549.765625</ele>
<time>2012-07-25T16:14:27Z</time>
<speed>1.920000</speed>
<extensions>
<speed>1.9</speed>
<temp>0.00</temp>
<bpm>0</bpm>
<rpm>0.00</rpm>
</extensions>
</trkpt>
<trkpt lat="63.797443390" lon="-18.928363800">
<ele>550.546875</ele>
<time>2012-07-25T16:14:32Z</time>
<speed>1.540000</speed>
<extensions>
<speed>1.5</speed>
<temp>0.00</temp>
<bpm>0</bpm>
<rpm>0.00</rpm>
</extensions>
</trkpt>
<trkpt lat="63.797378540" lon="-18.928544998">
<ele>551.031250</ele>
<time>2012-07-25T16:14:37Z</time>
<speed>2.780000</speed>
<extensions>
<speed>2.8</speed>
<temp>0.00</temp>
<bpm>0</bpm>
<rpm>0.00</rpm>
</extensions>
</trkpt>
<trkpt lat="63.797290802" lon="-18.928737640">
<ele>551.109375</ele>
<time>2012-07-25T16:14:42Z</time>
<speed>2.800000</speed>
<extensions>
<speed>2.8</speed>
<temp>0.00</temp>
<bpm>0</bpm>
<rpm>0.00</rpm>
</extensions>
</trkpt>
<trkpt lat="63.797195435" lon="-18.928953171">
<ele>550.156250</ele>
<time>2012-07-25T16:14:47Z</time>
<speed>2.900000</speed>
<extensions>
<speed>2.9</speed>
<temp>0.00</temp>
<bpm>0</bpm>
<rpm>0.00</rpm>
</extensions>
</trkpt>
<trkpt lat="63.797096252" lon="-18.929183960">
<ele>548.375000</ele>
<time>2012-07-25T16:14:52Z</time>
<speed>2.570000</speed>
<extensions>
<speed>2.6</speed>
<temp>0.00</temp>
<bpm>0</bpm>
<rpm>0.00</rpm>
</extensions>
</trkpt>
<trkpt lat="63.797027588" lon="-18.929365158">
<ele>548.062500</ele>
<time>2012-07-25T16:14:57Z</time>
<speed>2.740000</speed>
<extensions>
<speed>2.7</speed>
<temp>0.00</temp>
<bpm>0</bpm>
<rpm>0.00</rpm>
</extensions>
</trkpt>
<trkpt lat="63.796962738" lon="-18.929533005">
<ele>550.062500</ele>
<time>2012-07-25T16:15:02Z</time>
<speed>1.580000</speed>
<extensions>
<speed>1.6</speed>
<temp>0.00</temp>
<bpm>0</bpm>
<rpm>0.00</rpm>
</extensions>
</trkpt>
<trkpt lat="63.796936035" lon="-18.929632187">
<ele>551.281250</ele>
<time>2012-07-25T16:15:07Z</time>
<speed>0.840000</speed>
<extensions>
<speed>0.8</speed>
<temp>0.00</temp>
<bpm>0</bpm>
<rpm>0.00</rpm>
</extensions>
</trkpt>
<trkpt lat="63.796909332" lon="-18.929702759">
<ele>551.890625</ele>
<time>2012-07-25T16:15:12Z</time>
<speed>1.810000</speed>
<extensions>
<speed>1.8</speed>
<temp>0.00</temp>
<bpm>0</bpm>
<rpm>0.00</rpm>
</extensions>
</trkpt>
<trkpt lat="63.796848297" lon="-18.929868698">
<ele>552.703125</ele>
<time>2012-07-25T16:15:17Z</time>
<speed>2.410000</speed>
<extensions>
<speed>2.4</speed>
<temp>0.00</temp>
<bpm>0</bpm>
<rpm>0.00</rpm>
</extensions>
</trkpt>
<trkpt lat="63.796794891" lon="-18.930089951">
<ele>555.312500</ele>
<time>2012-07-25T16:15:22Z</time>
<speed>2.190000</speed>
<extensions>
<speed>2.2</speed>
<temp>0.00</temp>
<bpm>0</bpm>
<rpm>0.00</rpm>
</extensions>
</trkpt>
<trkpt lat="63.796791077" lon="-18.930160522">
<ele>555.718750</ele>
<time>2012-07-25T16:15:27Z</time>
<speed>0.230000</speed>
<extensions>
<speed>0.2</speed>
<temp>0.00</temp>
<bpm>0</bpm>
<rpm>0.00</rpm>
</extensions>
</trkpt>
<trkpt lat="63.796791077" lon="-18.930139542">
<ele>555.468750</ele>
<time>2012-07-25T16:15:32Z</time>
<speed>0.030000</speed>
<extensions>
<speed>0.0</speed>
<temp>0.00</temp>
<bpm>0</bpm>
<rpm>0.00</rpm>
</extensions>
</trkpt>
<trkpt lat="63.796791077" lon="-18.930137634">
<ele>555.421875</ele>
<time>2012-07-25T16:15:37Z</time>
<speed>0.120000</speed>
<extensions>
<speed>0.1</speed>
<temp>0.00</temp>
<bpm>0</bpm>
<rpm>0.00</rpm>
</extensions>
</trkpt>
<trkpt lat="63.796787262" lon="-18.930131912">
<ele>555.437500</ele>
<time>2012-07-25T16:15:42Z</time>
<speed>0.050000</speed>
<extensions>
<speed>0.1</speed>
<temp>0.00</temp>
<bpm>0</bpm>
<rpm>0.00</rpm>
</extensions>
</trkpt>
<trkpt lat="63.796787262" lon="-18.930131912">
<ele>555.468750</ele>
<time>2012-07-25T16:15:47Z</time>
<speed>0.050000</speed>
<extensions>
<speed>0.1</speed>
<temp>0.00</temp>
<bpm>0</bpm>
<rpm>0.00</rpm>
</extensions>
</trkpt>
<trkpt lat="63.796783447" lon="-18.930131912">
<ele>555.546875</ele>
<time>2012-07-25T16:15:52Z</time>
<speed>0.010000</speed>
<extensions>
<speed>0.0</speed>
<temp>0.00</temp>
<bpm>0</bpm>
<rpm>0.00</rpm>
</extensions>
</trkpt>
<trkpt lat="63.796783447" lon="-18.930131912">
<ele>555.562500</ele>
<time>2012-07-25T16:15:57Z</time>
<extensions>
<speed>0.0</speed>
<temp>0.00</temp>
<bpm>0</bpm>
<rpm>0.00</rpm>
</extensions>
</trkpt>
<trkpt lat="63.796783447" lon="-18.930133820">
<ele>555.578125</ele>
<time>2012-07-25T16:16:02Z</time>
<extensions>
<speed>0.0</speed>
<temp>0.00</temp>
<bpm>0</bpm>
<rpm>0.00</rpm>
</extensions>
</trkpt>
<trkpt lat="63.796783447" lon="-18.930133820">
<ele>555.578125</ele>
<time>2012-07-25T16:16:07Z</time>
<extensions>
<speed>0.0</speed>
<temp>0.00</temp>
<bpm>0</bpm>
<rpm>0.00</rpm>
</extensions>
</trkpt>
<trkpt lat="63.796783447" lon="-18.930133820">
<ele>555.593750</ele>
<time>2012-07-25T16:16:12Z</time>
<extensions>
<speed>0.0</speed>
<temp>0.00</temp>
<bpm>0</bpm>
<rpm>0.00</rpm>
</extensions>
</trkpt>
<trkpt lat="63.796783447" lon="-18.930133820">
<ele>555.593750</ele>
<time>2012-07-25T16:16:17Z</time>
<speed>0.020000</speed>
<extensions>
<speed>0.0</speed>
<temp>0.00</temp>
<bpm>0</bpm>
<rpm>0.00</rpm>
</extensions>
</trkpt>
<trkpt lat="63.796783447" lon="-18.930131912">
<ele>555.609375</ele>
<time>2012-07-25T16:16:22Z</time>
<speed>0.010000</speed>
<extensions>
<speed>0.0</speed>
<temp>0.00</temp>
<bpm>0</bpm>
<rpm>0.00</rpm>
</extensions>
</trkpt>
<trkpt lat="63.796783447" lon="-18.930133820">
<ele>555.625000</ele>
<time>2012-07-25T16:16:27Z</time>
<speed>0.010000</speed>
<extensions>
<speed>0.0</speed>
<temp>0.00</temp>
<bpm>0</bpm>
<rpm>0.00</rpm>
</extensions>
</trkpt>
<trkpt lat="63.796783447" lon="-18.930133820">
<ele>555.640625</ele>
<time>2012-07-25T16:16:32Z</time>
<extensions>
<speed>0.0</speed>
<temp>0.00</temp>
<bpm>0</bpm>
<rpm>0.00</rpm>
</extensions>
</trkpt>
<trkpt lat="63.796783447" lon="-18.930133820">
<ele>555.640625</ele>
<time>2012-07-25T16:16:37Z</time>
<speed>0.030000</speed>
<extensions>
<speed>0.0</speed>
<temp>0.00</temp>
<bpm>0</bpm>
<rpm>0.00</rpm>
</extensions>
</trkpt>
<trkpt lat="63.796783447" lon="-18.930131912">
<ele>555.609375</ele>
<time>2012-07-25T16:16:42Z</time>
<extensions>
<speed>0.0</speed>
<temp>0.00</temp>
<bpm>0</bpm>
<rpm>0.00</rpm>
</extensions>
</trkpt>
<trkpt lat="63.796783447" lon="-18.930133820">
<ele>555.625000</ele>
<time>2012-07-25T16:16:47Z</time>
<extensions>
<speed>0.0</speed>
<temp>0.00</temp>
<bpm>0</bpm>
<rpm>0.00</rpm>
</extensions>
</trkpt>
<trkpt lat="63.796783447" lon="-18.930133820">
<ele>555.640625</ele>
<time>2012-07-25T16:16:52Z</time>
<speed>0.010000</speed>
<extensions>
<speed>0.0</speed>
<temp>0.00</temp>
<bpm>0</bpm>
<rpm>0.00</rpm>
</extensions>
</trkpt>
<trkpt lat="63.796783447" lon="-18.930133820">
<ele>555.656250</ele>
<time>2012-07-25T16:16:57Z</time>
<speed>0.010000</speed>
<extensions>
<speed>0.0</speed>
<temp>0.00</temp>
<bpm>0</bpm>
<rpm>0.00</rpm>
</extensions>
</trkpt>
<trkpt lat="63.796783447" lon="-18.930133820">
<ele>555.656250</ele>
<time>2012-07-25T16:17:02Z</time>
<speed>0.020000</speed>
<extensions>
<speed>0.0</speed>
<temp>0.00</temp>
<bpm>0</bpm>
<rpm>0.00</rpm>
</extensions>
</trkpt>
<trkpt lat="63.796783447" lon="-18.930133820">
<ele>555.671875</ele>
<time>2012-07-25T16:17:07Z</time>
<extensions>
<speed>0.0</speed>
<temp>0.00</temp>
<bpm>0</bpm>
<rpm>0.00</rpm>
</extensions>
</trkpt>
<trkpt lat="63.796783447" lon="-18.930133820">
<ele>555.687500</ele>
<time>2012-07-25T16:17:12Z</time>
<speed>0.020000</speed>
<extensions>
<speed>0.0</speed>
<temp>0.00</temp>
<bpm>0</bpm>
<rpm>0.00</rpm>
</extensions>
</trkpt>
<trkpt lat="63.796783447" lon="-18.930133820">
<ele>555.703125</ele>
<time>2012-07-25T16:17:17Z</time>
<extensions>
<speed>0.0</speed>
<temp>0.00</temp>
<bpm>0</bpm>
<rpm>0.00</rpm>
</extensions>
</trkpt>
<trkpt lat="63.796783447" lon="-18.930133820">
<ele>555.703125</ele>
<time>2012-07-25T16:17:22Z</time>
<extensions>
<speed>0.0</speed>
<temp>0.00</temp>
<bpm>0</bpm>
<rpm>0.00</rpm>
</extensions>
</trkpt>
<trkpt lat="63.796783447" lon="-18.930133820">
<ele>555.718750</ele>
<time>2012-07-25T16:17:27Z</time>
<speed>0.010000</speed>
<extensions>
<speed>0.0</speed>
<temp>0.00</temp>
<bpm>0</bpm>
<rpm>0.00</rpm>
</extensions>
</trkpt>
<trkpt lat="63.796783447" lon="-18.930133820">
<ele>555.734375</ele>
<time>2012-07-25T16:17:32Z</time>
<speed>0.010000</speed>
<extensions>
<speed>0.0</speed>
<temp>0.00</temp>
<bpm>0</bpm>
<rpm>0.00</rpm>
</extensions>
</trkpt>
<trkpt lat="63.796783447" lon="-18.930133820">
<ele>555.750000</ele>
<time>2012-07-25T16:17:37Z</time>
<speed>0.010000</speed>
<extensions>
<speed>0.0</speed>
<temp>0.00</temp>
<bpm>0</bpm>
<rpm>0.00</rpm>
</extensions>
</trkpt>
<trkpt lat="63.796783447" lon="-18.930133820">
<ele>555.765625</ele>
<time>2012-07-25T16:17:42Z</time>
<extensions>
<speed>0.0</speed>
<temp>0.00</temp>
<bpm>0</bpm>
<rpm>0.00</rpm>
</extensions>
</trkpt>
<trkpt lat="63.796783447" lon="-18.930133820">
<ele>555.765625</ele>
<time>2012-07-25T16:17:47Z</time>
<extensions>
<speed>0.0</speed>
<temp>0.00</temp>
<bpm>0</bpm>
<rpm>0.00</rpm>
</extensions>
</trkpt>
<trkpt lat="63.796783447" lon="-18.930133820">
<ele>555.796875</ele>
<time>2012-07-25T16:17:52Z</time>
<speed>0.060000</speed>
<extensions>
<speed>0.1</speed>
<temp>0.00</temp>
<bpm>0</bpm>
<rpm>0.00</rpm>
</extensions>
</trkpt>
<trkpt lat="63.796783447" lon="-18.930133820">
<ele>555.796875</ele>
<time>2012-07-25T16:17:57Z</time>
<speed>0.060000</speed>
<extensions>
<speed>0.1</speed>
<temp>0.00</temp>
<bpm>0</bpm>
<rpm>0.00</rpm>
</extensions>
</trkpt>
<trkpt lat="63.796752930" lon="-18.930150986">
<ele>555.890625</ele>
<time>2012-07-25T16:18:02Z</time>
<speed>1.210000</speed>
<extensions>
<speed>1.2</speed>
<temp>0.00</temp>
<bpm>0</bpm>
<rpm>0.00</rpm>
</extensions>
</trkpt>
<trkpt lat="63.796707153" lon="-18.930267334">
<ele>555.421875</ele>
<time>2012-07-25T16:18:07Z</time>
<speed>1.700000</speed>
<extensions>
<speed>1.7</speed>
<temp>0.00</temp>
<bpm>0</bpm>
<rpm>0.00</rpm>
</extensions>
</trkpt>
<trkpt lat="63.796630859" lon="-18.930437088">
<ele>555.031250</ele>
<time>2012-07-25T16:18:12Z</time>
<speed>2.610000</speed>
<extensions>
<speed>2.6</speed>
<temp>0.00</temp>
<bpm>0</bpm>
<rpm>0.00</rpm>
</extensions>
</trkpt>
<trkpt lat="63.796543121" lon="-18.930639267">
<ele>555.015625</ele>
<time>2012-07-25T16:18:17Z</time>
<speed>2.940000</speed>
<extensions>
<speed>2.9</speed>
<temp>0.00</temp>
<bpm>0</bpm>
<rpm>0.00</rpm>
</extensions>
</trkpt>
<trkpt lat="63.796451569" lon="-18.930852890">
<ele>554.093750</ele>
<time>2012-07-25T16:18:22Z</time>
<speed>3.470000</speed>
<extensions>
<speed>3.5</speed>
<temp>0.00</temp>
<bpm>0</bpm>
<rpm>0.00</rpm>
</extensions>
</trkpt>
<trkpt lat="63.796356201" lon="-18.931112289">
<ele>554.312500</ele>
<time>2012-07-25T16:18:27Z</time>
<speed>2.820000</speed>
<extensions>
<speed>2.8</speed>
<temp>0.00</temp>
<bpm>0</bpm>
<rpm>0.00</rpm>
</extensions>
</trkpt>
<trkpt lat="63.796276093" lon="-18.931312561">
<ele>553.718750</ele>
<time>2012-07-25T16:18:32Z</time>
<speed>2.990000</speed>
<extensions>
<speed>3.0</speed>
<temp>0.00</temp>
<bpm>0</bpm>
<rpm>0.00</rpm>
</extensions>
</trkpt>
<trkpt lat="63.796180725" lon="-18.931610107">
<ele>554.484375</ele>
<time>2012-07-25T16:18:37Z</time>
<speed>3.130000</speed>
<extensions>
<speed>3.1</speed>
<temp>0.00</temp>
<bpm>0</bpm>
<rpm>0.00</rpm>
</extensions>
</trkpt>
<trkpt lat="63.796108246" lon="-18.931846619">
<ele>554.718750</ele>
<time>2012-07-25T16:18:42Z</time>
<speed>2.710000</speed>
<extensions>
<speed>2.7</speed>
<temp>0.00</temp>
<bpm>0</bpm>
<rpm>0.00</rpm>
</extensions>
</trkpt>
<trkpt lat="63.796031952" lon="-18.932056427">
<ele>554.484375</ele>
<time>2012-07-25T16:18:47Z</time>
<speed>2.400000</speed>
<extensions>
<speed>2.4</speed>
<temp>0.00</temp>
<bpm>0</bpm>
<rpm>0.00</rpm>
</extensions>
</trkpt>
<trkpt lat="63.795963287" lon="-18.932298660">
<ele>555.171875</ele>
<time>2012-07-25T16:18:52Z</time>
<speed>2.380000</speed>
<extensions>
<speed>2.4</speed>
<temp>0.00</temp>
<bpm>0</bpm>
<rpm>0.00</rpm>
</extensions>
</trkpt>
<trkpt lat="63.795917511" lon="-18.932487488">
<ele>555.984375</ele>
<time>2012-07-25T16:18:57Z</time>
<speed>2.460000</speed>
<extensions>
<speed>2.5</speed>
<temp>0.00</temp>
<bpm>0</bpm>
<rpm>0.00</rpm>
</extensions>
</trkpt>
<trkpt lat="63.795864105" lon="-18.932733536">
<ele>557.625000</ele>
<time>2012-07-25T16:19:02Z</time>
<speed>2.640000</speed>
<extensions>
<speed>2.6</speed>
<temp>0.00</temp>
<bpm>0</bpm>
<rpm>0.00</rpm>
</extensions>
</trkpt>
<trkpt lat="63.795825958" lon="-18.932966232">
<ele>557.187500</ele>
<time>2012-07-25T16:19:07Z</time>
<speed>2.530000</speed>
<extensions>
<speed>2.5</speed>
<temp>0.00</temp>
<bpm>0</bpm>
<rpm>0.00</rpm>
</extensions>
</trkpt>
<trkpt lat="63.795787811" lon="-18.933231354">
<ele>556.562500</ele>
<time>2012-07-25T16:19:12Z</time>
<speed>2.600000</speed>
<extensions>
<speed>2.6</speed>
<temp>0.00</temp>
<bpm>0</bpm>
<rpm>0.00</rpm>
</extensions>
</trkpt>
<trkpt lat="63.795749664" lon="-18.933485031">
<ele>556.531250</ele>
<time>2012-07-25T16:19:17Z</time>
<speed>2.440000</speed>
<extensions>
<speed>2.4</speed>
<temp>0.00</temp>
<bpm>0</bpm>
<rpm>0.00</rpm>
</extensions>
</trkpt>
<trkpt lat="63.795715332" lon="-18.933734894">
<ele>557.281250</ele>
<time>2012-07-25T16:19:22Z</time>
<speed>2.710000</speed>
<extensions>
<speed>2.7</speed>
<temp>0.00</temp>
<bpm>0</bpm>
<rpm>0.00</rpm>
</extensions>
</trkpt>
<trkpt lat="63.795688629" lon="-18.933977127">
<ele>556.906250</ele>
<time>2012-07-25T16:19:27Z</time>
<speed>2.580000</speed>
<extensions>
<speed>2.6</speed>
<temp>0.00</temp>
<bpm>0</bpm>
<rpm>0.00</rpm>
</extensions>
</trkpt>
<trkpt lat="63.795673370" lon="-18.934234619">
<ele>555.953125</ele>
<time>2012-07-25T16:19:32Z</time>
<speed>3.030000</speed>
<extensions>
<speed>3.0</speed>
<temp>0.00</temp>
<bpm>0</bpm>
<rpm>0.00</rpm>
</extensions>
</trkpt>
<trkpt lat="63.795654297" lon="-18.934501648">
<ele>555.421875</ele>
<time>2012-07-25T16:19:37Z</time>
<speed>2.760000</speed>
<extensions>
<speed>2.8</speed>
<temp>0.00</temp>
<bpm>0</bpm>
<rpm>0.00</rpm>
</extensions>
</trkpt>
<trkpt lat="63.795650482" lon="-18.934829712">
<ele>556.578125</ele>
<time>2012-07-25T16:19:42Z</time>
<speed>3.120000</speed>
<extensions>
<speed>3.1</speed>
<temp>0.00</temp>
<bpm>0</bpm>
<rpm>0.00</rpm>
</extensions>
</trkpt>
<trkpt lat="63.795623779" lon="-18.935159683">
<ele>557.015625</ele>
<time>2012-07-25T16:19:47Z</time>
<speed>2.980000</speed>
<extensions>
<speed>3.0</speed>
<temp>0.00</temp>
<bpm>0</bpm>
<rpm>0.00</rpm>
</extensions>
</trkpt>
<trkpt lat="63.795616150" lon="-18.935417175">
<ele>555.656250</ele>
<time>2012-07-25T16:19:52Z</time>
<speed>2.180000</speed>
<extensions>
<speed>2.2</speed>
<temp>0.00</temp>
<bpm>0</bpm>
<rpm>0.00</rpm>
</extensions>
</trkpt>
<trkpt lat="63.795608521" lon="-18.935646057">
<ele>556.437500</ele>
<time>2012-07-25T16:19:57Z</time>
<speed>2.560000</speed>
<extensions>
<speed>2.6</speed>
<temp>0.00</temp>
<bpm>0</bpm>
<rpm>0.00</rpm>
</extensions>
</trkpt>
<trkpt lat="63.795600891" lon="-18.935880661">
<ele>556.437500</ele>
<time>2012-07-25T16:20:02Z</time>
<speed>2.370000</speed>
<extensions>
<speed>2.4</speed>
<temp>0.00</temp>
<bpm>0</bpm>
<rpm>0.00</rpm>
</extensions>
</trkpt>
<trkpt lat="63.795593262" lon="-18.936124802">
<ele>556.062500</ele>
<time>2012-07-25T16:20:07Z</time>
<speed>2.480000</speed>
<extensions>
<speed>2.5</speed>
<temp>0.00</temp>
<bpm>0</bpm>
<rpm>0.00</rpm>
</extensions>
</trkpt>
<trkpt lat="63.795597076" lon="-18.936332703">
<ele>555.703125</ele>
<time>2012-07-25T16:20:12Z</time>
<speed>2.080000</speed>
<extensions>
<speed>2.1</speed>
<temp>0.00</temp>
<bpm>0</bpm>
<rpm>0.00</rpm>
</extensions>
</trkpt>
<trkpt lat="63.795585632" lon="-18.936567307">
<ele>555.937500</ele>
<time>2012-07-25T16:20:17Z</time>
<speed>2.030000</speed>
<extensions>
<speed>2.0</speed>
<temp>0.00</temp>
<bpm>0</bpm>
<rpm>0.00</rpm>
</extensions>
</trkpt>
<trkpt lat="63.795578003" lon="-18.936800003">
<ele>555.703125</ele>
<time>2012-07-25T16:20:22Z</time>
<speed>2.560000</speed>
<extensions>
<speed>2.6</speed>
<temp>0.00</temp>
<bpm>0</bpm>
<rpm>0.00</rpm>
</extensions>
</trkpt>
<trkpt lat="63.795574188" lon="-18.937070847">
<ele>556.812500</ele>
<time>2012-07-25T16:20:27Z</time>
<speed>2.750000</speed>
<extensions>
<speed>2.7</speed>
<temp>0.00</temp>
<bpm>0</bpm>
<rpm>0.00</rpm>
</extensions>
</trkpt>
<trkpt lat="63.795566559" lon="-18.937337875">
<ele>556.109375</ele>
<time>2012-07-25T16:20:32Z</time>
<speed>2.710000</speed>
<extensions>
<speed>2.7</speed>
<temp>0.00</temp>
<bpm>0</bpm>
<rpm>0.00</rpm>
</extensions>
</trkpt>
<trkpt lat="63.795558929" lon="-18.937633514">
<ele>555.937500</ele>
<time>2012-07-25T16:20:37Z</time>
<speed>2.930000</speed>
<extensions>
<speed>2.9</speed>
<temp>0.00</temp>
<bpm>0</bpm>
<rpm>0.00</rpm>
</extensions>
</trkpt>
<trkpt lat="63.795570374" lon="-18.937929153">
<ele>556.375000</ele>
<time>2012-07-25T16:20:42Z</time>
<speed>2.910000</speed>
<extensions>
<speed>2.9</speed>
<temp>0.00</temp>
<bpm>0</bpm>
<rpm>0.00</rpm>
</extensions>
</trkpt>
<trkpt lat="63.795570374" lon="-18.938182831">
<ele>555.265625</ele>
<time>2012-07-25T16:20:47Z</time>
<speed>2.550000</speed>
<extensions>
<speed>2.6</speed>
<temp>0.00</temp>
<bpm>0</bpm>
<rpm>0.00</rpm>
</extensions>
</trkpt>
<trkpt lat="63.795589447" lon="-18.938507080">
<ele>555.921875</ele>
<time>2012-07-25T16:20:52Z</time>
<speed>3.010000</speed>
<extensions>
<speed>3.0</speed>
<temp>0.00</temp>
<bpm>0</bpm>
<rpm>0.00</rpm>
</extensions>
</trkpt>
<trkpt lat="63.795597076" lon="-18.938831329">
<ele>557.359375</ele>
<time>2012-07-25T16:20:57Z</time>
<speed>3.100000</speed>
<extensions>
<speed>3.1</speed>
<temp>0.00</temp>
<bpm>0</bpm>
<rpm>0.00</rpm>
</extensions>
</trkpt>
<trkpt lat="63.795612335" lon="-18.939079285">
<ele>557.125000</ele>
<time>2012-07-25T16:21:02Z</time>
<speed>2.030000</speed>
<extensions>
<speed>2.0</speed>
<temp>0.00</temp>
<bpm>0</bpm>
<rpm>0.00</rpm>
</extensions>
</trkpt>
<trkpt lat="63.795604706" lon="-18.939291000">
<ele>556.968750</ele>
<time>2012-07-25T16:21:07Z</time>
<speed>2.570000</speed>
<extensions>
<speed>2.6</speed>
<temp>0.00</temp>
<bpm>0</bpm>
<rpm>0.00</rpm>
</extensions>
</trkpt>
<trkpt lat="63.795619965" lon="-18.939577103">
<ele>556.984375</ele>
<time>2012-07-25T16:21:12Z</time>
<speed>2.520000</speed>
<extensions>
<speed>2.5</speed>
<temp>0.00</temp>
<bpm>0</bpm>
<rpm>0.00</rpm>
</extensions>
</trkpt>
<trkpt lat="63.795642853" lon="-18.939821243">
<ele>557.437500</ele>
<time>2012-07-25T16:21:17Z</time>
<speed>2.620000</speed>
<extensions>
<speed>2.6</speed>
<temp>0.00</temp>
<bpm>0</bpm>
<rpm>0.00</rpm>
</extensions>
</trkpt>
<trkpt lat="63.795665741" lon="-18.940113068">
<ele>559.375000</ele>
<time>2012-07-25T16:21:22Z</time>
<speed>3.260000</speed>
<extensions>
<speed>3.3</speed>
<temp>0.00</temp>
<bpm>0</bpm>
<rpm>0.00</rpm>
</extensions>
</trkpt>
<trkpt lat="63.795688629" lon="-18.940429688">
<ele>559.781250</ele>
<time>2012-07-25T16:21:27Z</time>
<speed>3.140000</speed>
<extensions>
<speed>3.1</speed>
<temp>0.00</temp>
<bpm>0</bpm>
<rpm>0.00</rpm>
</extensions>
</trkpt>
<trkpt lat="63.795719147" lon="-18.940721512">
<ele>559.375000</ele>
<time>2012-07-25T16:21:32Z</time>
<speed>2.690000</speed>
<extensions>
<speed>2.7</speed>
<temp>0.00</temp>
<bpm>0</bpm>
<rpm>0.00</rpm>
</extensions>
</trkpt>
<trkpt lat="63.795761108" lon="-18.941003799">
<ele>560.906250</ele>
<time>2012-07-25T16:21:37Z</time>
<speed>3.020000</speed>
<extensions>
<speed>3.0</speed>
<temp>0.00</temp>
<bpm>0</bpm>
<rpm>0.00</rpm>
</extensions>
</trkpt>
<trkpt lat="63.795814514" lon="-18.941312790">
<ele>561.515625</ele>
<time>2012-07-25T16:21:42Z</time>
<speed>3.270000</speed>
<extensions>
<speed>3.3</speed>
<temp>0.00</temp>
<bpm>0</bpm>
<rpm>0.00</rpm>
</extensions>
</trkpt>
<trkpt lat="63.795871735" lon="-18.941633224">
<ele>562.843750</ele>
<time>2012-07-25T16:21:47Z</time>
<speed>3.150000</speed>
<extensions>
<speed>3.2</speed>
<temp>0.00</temp>
<bpm>0</bpm>
<rpm>0.00</rpm>
</extensions>
</trkpt>
<trkpt lat="63.795925140" lon="-18.941902161">
<ele>562.921875</ele>
<time>2012-07-25T16:21:52Z</time>
<speed>3.190000</speed>
<extensions>
<speed>3.2</speed>
<temp>0.00</temp>
<bpm>0</bpm>
<rpm>0.00</rpm>
</extensions>
</trkpt>
<trkpt lat="63.795978546" lon="-18.942220688">
<ele>561.843750</ele>
<time>2012-07-25T16:21:57Z</time>
<speed>2.980000</speed>
<extensions>
<speed>3.0</speed>
<temp>0.00</temp>
<bpm>0</bpm>
<rpm>0.00</rpm>
</extensions>
</trkpt>
<trkpt lat="63.796009064" lon="-18.942422867">
<ele>560.343750</ele>
<time>2012-07-25T16:22:02Z</time>
<speed>1.420000</speed>
<extensions>
<speed>1.4</speed>
<temp>0.00</temp>
<bpm>0</bpm>
<rpm>0.00</rpm>
</extensions>
</trkpt>
<trkpt lat="63.796020508" lon="-18.942457199">
<ele>561.062500</ele>
<time>2012-07-25T16:22:07Z</time>
<speed>0.140000</speed>
<extensions>
<speed>0.1</speed>
<temp>0.00</temp>
<bpm>0</bpm>
<rpm>0.00</rpm>
</extensions>
</trkpt>
<trkpt lat="63.796020508" lon="-18.942476273">
<ele>560.796875</ele>
<time>2012-07-25T16:22:12Z</time>
<speed>0.020000</speed>
<extensions>
<speed>0.0</speed>
<temp>0.00</temp>
<bpm>0</bpm>
<rpm>0.00</rpm>
</extensions>
</trkpt>
<trkpt lat="63.796016693" lon="-18.942480087">
<ele>560.187500</ele>
<time>2012-07-25T16:22:17Z</time>
<speed>0.240000</speed>
<extensions>
<speed>0.2</speed>
<temp>0.00</temp>
<bpm>0</bpm>
<rpm>0.00</rpm>
</extensions>
</trkpt>
<trkpt lat="63.796028137" lon="-18.942487717">
<ele>559.609375</ele>
<time>2012-07-25T16:22:22Z</time>
<speed>0.160000</speed>
<extensions>
<speed>0.2</speed>
<temp>0.00</temp>
<bpm>0</bpm>
<rpm>0.00</rpm>
</extensions>
</trkpt>
<trkpt lat="63.796028137" lon="-18.942487717">
<ele>559.296875</ele>
<time>2012-07-25T16:22:27Z</time>
<speed>0.040000</speed>
<extensions>
<speed>0.0</speed>
<temp>0.00</temp>
<bpm>0</bpm>
<rpm>0.00</rpm>
</extensions>
</trkpt>
<trkpt lat="63.796024323" lon="-18.942495346">
<ele>559.109375</ele>
<time>2012-07-25T16:22:32Z</time>
<speed>0.320000</speed>
<extensions>
<speed>0.3</speed>
<temp>0.00</temp>
<bpm>0</bpm>
<rpm>0.00</rpm>
</extensions>
</trkpt>
<trkpt lat="63.796020508" lon="-18.942493439">
<ele>559.156250</ele>
<time>2012-07-25T16:22:37Z</time>
<speed>0.090000</speed>
<extensions>
<speed>0.1</speed>
<temp>0.00</temp>
<bpm>0</bpm>
<rpm>0.00</rpm>
</extensions>
</trkpt>
<trkpt lat="63.796020508" lon="-18.942495346">
<ele>559.187500</ele>
<time>2012-07-25T16:22:42Z</time>
<speed>0.010000</speed>
<extensions>
<speed>0.0</speed>
<temp>0.00</temp>
<bpm>0</bpm>
<rpm>0.00</rpm>
</extensions>
</trkpt>
<trkpt lat="63.796020508" lon="-18.942497253">
<ele>559.250000</ele>
<time>2012-07-25T16:22:47Z</time>
<speed>0.010000</speed>
<extensions>
<speed>0.0</speed>
<temp>0.00</temp>
<bpm>0</bpm>
<rpm>0.00</rpm>
</extensions>
</trkpt>
<trkpt lat="63.796020508" lon="-18.942497253">
<ele>559.296875</ele>
<time>2012-07-25T16:22:52Z</time>
<speed>0.010000</speed>
<extensions>
<speed>0.0</speed>
<temp>0.00</temp>
<bpm>0</bpm>
<rpm>0.00</rpm>
</extensions>
</trkpt>
<trkpt lat="63.796020508" lon="-18.942497253">
<ele>559.296875</ele>
<time>2012-07-25T16:22:57Z</time>
<speed>0.020000</speed>
<extensions>
<speed>0.0</speed>
<temp>0.00</temp>
<bpm>0</bpm>
<rpm>0.00</rpm>
</extensions>
</trkpt>
<trkpt lat="63.796020508" lon="-18.942497253">
<ele>559.281250</ele>
<time>2012-07-25T16:23:02Z</time>
<speed>0.010000</speed>
<extensions>
<speed>0.0</speed>
<temp>0.00</temp>
<bpm>0</bpm>
<rpm>0.00</rpm>
</extensions>
</trkpt>
<trkpt lat="63.796020508" lon="-18.942497253">
<ele>559.296875</ele>
<time>2012-07-25T16:23:07Z</time>
<speed>0.030000</speed>
<extensions>
<speed>0.0</speed>
<temp>0.00</temp>
<bpm>0</bpm>
<rpm>0.00</rpm>
</extensions>
</trkpt>
<trkpt lat="63.796024323" lon="-18.942493439">
<ele>559.328125</ele>
<time>2012-07-25T16:23:12Z</time>
<speed>0.240000</speed>
<extensions>
<speed>0.2</speed>
<temp>0.00</temp>
<bpm>0</bpm>
<rpm>0.00</rpm>
</extensions>
</trkpt>
<trkpt lat="63.796035767" lon="-18.942440033">
<ele>559.406250</ele>
<time>2012-07-25T16:23:17Z</time>
<speed>0.480000</speed>
<extensions>
<speed>0.5</speed>
<temp>0.00</temp>
<bpm>0</bpm>
<rpm>0.00</rpm>
</extensions>
</trkpt>
<trkpt lat="63.796043396" lon="-18.942432404">
<ele>559.453125</ele>
<time>2012-07-25T16:23:22Z</time>
<extensions>
<speed>0.0</speed>
<temp>0.00</temp>
<bpm>0</bpm>
<rpm>0.00</rpm>
</extensions>
</trkpt>
<trkpt lat="63.796047211" lon="-18.942430496">
<ele>559.484375</ele>
<time>2012-07-25T16:23:27Z</time>
<speed>0.040000</speed>
<extensions>
<speed>0.0</speed>
<temp>0.00</temp>
<bpm>0</bpm>
<rpm>0.00</rpm>
</extensions>
</trkpt>
<trkpt lat="63.796047211" lon="-18.942428589">
<ele>559.531250</ele>
<time>2012-07-25T16:23:32Z</time>
<speed>0.010000</speed>
<extensions>
<speed>0.0</speed>
<temp>0.00</temp>
<bpm>0</bpm>
<rpm>0.00</rpm>
</extensions>
</trkpt>
<trkpt lat="63.796047211" lon="-18.942426682">
<ele>559.531250</ele>
<time>2012-07-25T16:23:37Z</time>
<speed>0.010000</speed>
<extensions>
<speed>0.0</speed>
<temp>0.00</temp>
<bpm>0</bpm>
<rpm>0.00</rpm>
</extensions>
</trkpt>
<trkpt lat="63.796047211" lon="-18.942428589">
<ele>559.546875</ele>
<time>2012-07-25T16:23:42Z</time>
<speed>0.060000</speed>
<extensions>
<speed>0.1</speed>
<temp>0.00</temp>
<bpm>0</bpm>
<rpm>0.00</rpm>
</extensions>
</trkpt>
<trkpt lat="63.796047211" lon="-18.942428589">
<ele>559.531250</ele>
<time>2012-07-25T16:23:47Z</time>
<speed>0.200000</speed>
<extensions>
<speed>0.2</speed>
<temp>0.00</temp>
<bpm>0</bpm>
<rpm>0.00</rpm>
</extensions>
</trkpt>
<trkpt lat="63.796039581" lon="-18.942401886">
<ele>559.390625</ele>
<time>2012-07-25T16:23:52Z</time>
<speed>0.420000</speed>
<extensions>
<speed>0.4</speed>
<temp>0.00</temp>
<bpm>0</bpm>
<rpm>0.00</rpm>
</extensions>
</trkpt>
<trkpt lat="63.796054840" lon="-18.942396164">
<ele>558.609375</ele>
<time>2012-07-25T16:23:57Z</time>
<extensions>
<speed>0.0</speed>
<temp>0.00</temp>
<bpm>0</bpm>
<rpm>0.00</rpm>
</extensions>
</trkpt>
<trkpt lat="63.796058655" lon="-18.942407608">
<ele>558.718750</ele>
<time>2012-07-25T16:24:02Z</time>
<speed>0.200000</speed>
<extensions>
<speed>0.2</speed>
<temp>0.00</temp>
<bpm>0</bpm>
<rpm>0.00</rpm>
</extensions>
</trkpt>
<trkpt lat="63.796077728" lon="-18.942413330">
<ele>558.843750</ele>
<time>2012-07-25T16:24:07Z</time>
<speed>0.020000</speed>
<extensions>
<speed>0.0</speed>
<temp>0.00</temp>
<bpm>0</bpm>
<rpm>0.00</rpm>
</extensions>
</trkpt>
<trkpt lat="63.796077728" lon="-18.942409515">
<ele>558.921875</ele>
<time>2012-07-25T16:24:12Z</time>
<speed>0.150000</speed>
<extensions>
<speed>0.2</speed>
<temp>0.00</temp>
<bpm>0</bpm>
<rpm>0.00</rpm>
</extensions>
</trkpt>
<trkpt lat="63.796070099" lon="-18.942405701">
<ele>559.078125</ele>
<time>2012-07-25T16:24:17Z</time>
<speed>0.220000</speed>
<extensions>
<speed>0.2</speed>
<temp>0.00</temp>
<bpm>0</bpm>
<rpm>0.00</rpm>
</extensions>
</trkpt>
<trkpt lat="63.796070099" lon="-18.942371368">
<ele>559.250000</ele>
<time>2012-07-25T16:24:22Z</time>
<speed>0.700000</speed>
<extensions>
<speed>0.7</speed>
<temp>0.00</temp>
<bpm>0</bpm>
<rpm>0.00</rpm>
</extensions>
</trkpt>
<trkpt lat="63.796096802" lon="-18.942356110">
<ele>559.500000</ele>
<time>2012-07-25T16:24:27Z</time>
<extensions>
<speed>0.0</speed>
<temp>0.00</temp>
<bpm>0</bpm>
<rpm>0.00</rpm>
</extensions>
</trkpt>
<trkpt lat="63.796096802" lon="-18.942356110">
<ele>559.468750</ele>
<time>2012-07-25T16:24:32Z</time>
<speed>0.020000</speed>
<extensions>
<speed>0.0</speed>
<temp>0.00</temp>
<bpm>0</bpm>
<rpm>0.00</rpm>
</extensions>
</trkpt>
<trkpt lat="63.796096802" lon="-18.942356110">
<ele>559.453125</ele>
<time>2012-07-25T16:24:37Z</time>
<extensions>
<speed>0.0</speed>
<temp>0.00</temp>
<bpm>0</bpm>
<rpm>0.00</rpm>
</extensions>
</trkpt>
<trkpt lat="63.796096802" lon="-18.942356110">
<ele>559.468750</ele>
<time>2012-07-25T16:24:42Z</time>
<speed>0.010000</speed>
<extensions>
<speed>0.0</speed>
<temp>0.00</temp>
<bpm>0</bpm>
<rpm>0.00</rpm>
</extensions>
</trkpt>
<trkpt lat="63.796096802" lon="-18.942356110">
<ele>559.500000</ele>
<time>2012-07-25T16:24:47Z</time>
<extensions>
<speed>0.0</speed>
<temp>0.00</temp>
<bpm>0</bpm>
<rpm>0.00</rpm>
</extensions>
</trkpt>
<trkpt lat="63.796096802" lon="-18.942356110">
<ele>559.531250</ele>
<time>2012-07-25T16:24:52Z</time>
<speed>0.010000</speed>
<extensions>
<speed>0.0</speed>
<temp>0.00</temp>
<bpm>0</bpm>
<rpm>0.00</rpm>
</extensions>
</trkpt>
<trkpt lat="63.796096802" lon="-18.942358017">
<ele>559.531250</ele>
<time>2012-07-25T16:24:57Z</time>
<extensions>
<speed>0.0</speed>
<temp>0.00</temp>
<bpm>0</bpm>
<rpm>0.00</rpm>
</extensions>
</trkpt>
<trkpt lat="63.796096802" lon="-18.942358017">
<ele>559.546875</ele>
<time>2012-07-25T16:25:02Z</time>
<extensions>
<speed>0.0</speed>
<temp>0.00</temp>
<bpm>0</bpm>
<rpm>0.00</rpm>
</extensions>
</trkpt>
<trkpt lat="63.796096802" lon="-18.942358017">
<ele>559.562500</ele>
<time>2012-07-25T16:25:07Z</time>
<extensions>
<speed>0.0</speed>
<temp>0.00</temp>
<bpm>0</bpm>
<rpm>0.00</rpm>
</extensions>
</trkpt>
<trkpt lat="63.796096802" lon="-18.942358017">
<ele>559.562500</ele>
<time>2012-07-25T16:25:12Z</time>
<speed>0.010000</speed>
<extensions>
<speed>0.0</speed>
<temp>0.00</temp>
<bpm>0</bpm>
<rpm>0.00</rpm>
</extensions>
</trkpt>
<trkpt lat="63.796096802" lon="-18.942358017">
<ele>559.562500</ele>
<time>2012-07-25T16:25:17Z</time>
<speed>0.010000</speed>
<extensions>
<speed>0.0</speed>
<temp>0.00</temp>
<bpm>0</bpm>
<rpm>0.00</rpm>
</extensions>
</trkpt>
<trkpt lat="63.796096802" lon="-18.942358017">
<ele>559.562500</ele>
<time>2012-07-25T16:25:22Z</time>
<speed>0.010000</speed>
<extensions>
<speed>0.0</speed>
<temp>0.00</temp>
<bpm>0</bpm>
<rpm>0.00</rpm>
</extensions>
</trkpt>
<trkpt lat="63.796096802" lon="-18.942358017">
<ele>559.562500</ele>
<time>2012-07-25T16:25:27Z</time>
<speed>0.010000</speed>
<extensions>
<speed>0.0</speed>
<temp>0.00</temp>
<bpm>0</bpm>
<rpm>0.00</rpm>
</extensions>
</trkpt>
<trkpt lat="63.796096802" lon="-18.942358017">
<ele>559.562500</ele>
<time>2012-07-25T16:25:32Z</time>
<extensions>
<speed>0.0</speed>
<temp>0.00</temp>
<bpm>0</bpm>
<rpm>0.00</rpm>
</extensions>
</trkpt>
<trkpt lat="63.796096802" lon="-18.942358017">
<ele>559.562500</ele>
<time>2012-07-25T16:25:37Z</time>
<extensions>
<speed>0.0</speed>
<temp>0.00</temp>
<bpm>0</bpm>
<rpm>0.00</rpm>
</extensions>
</trkpt>
<trkpt lat="63.796096802" lon="-18.942358017">
<ele>559.562500</ele>
<time>2012-07-25T16:25:42Z</time>
<extensions>
<speed>0.0</speed>
<temp>0.00</temp>
<bpm>0</bpm>
<rpm>0.00</rpm>
</extensions>
</trkpt>
<trkpt lat="63.796096802" lon="-18.942358017">
<ele>559.562500</ele>
<time>2012-07-25T16:25:47Z</time>
<extensions>
<speed>0.0</speed>
<temp>0.00</temp>
<bpm>0</bpm>
<rpm>0.00</rpm>
</extensions>
</trkpt>
<trkpt lat="63.796096802" lon="-18.942358017">
<ele>559.562500</ele>
<time>2012-07-25T16:25:52Z</time>
<extensions>
<speed>0.0</speed>
<temp>0.00</temp>
<bpm>0</bpm>
<rpm>0.00</rpm>
</extensions>
</trkpt>
<trkpt lat="63.796096802" lon="-18.942358017">
<ele>559.562500</ele>
<time>2012-07-25T16:25:57Z</time>
<extensions>
<speed>0.0</speed>
<temp>0.00</temp>
<bpm>0</bpm>
<rpm>0.00</rpm>
</extensions>
</trkpt>
<trkpt lat="63.796096802" lon="-18.942358017">
<ele>559.562500</ele>
<time>2012-07-25T16:26:02Z</time>
<extensions>
<speed>0.0</speed>
<temp>0.00</temp>
<bpm>0</bpm>
<rpm>0.00</rpm>
</extensions>
</trkpt>
<trkpt lat="63.796096802" lon="-18.942358017">
<ele>559.562500</ele>
<time>2012-07-25T16:26:07Z</time>
<speed>0.010000</speed>
<extensions>
<speed>0.0</speed>
<temp>0.00</temp>
<bpm>0</bpm>
<rpm>0.00</rpm>
</extensions>
</trkpt>
<trkpt lat="63.796096802" lon="-18.942358017">
<ele>559.562500</ele>
<time>2012-07-25T16:26:12Z</time>
<extensions>
<speed>0.0</speed>
<temp>0.00</temp>
<bpm>0</bpm>
<rpm>0.00</rpm>
</extensions>
</trkpt>
<trkpt lat="63.796096802" lon="-18.942358017">
<ele>559.562500</ele>
<time>2012-07-25T16:26:17Z</time>
<extensions>
<speed>0.0</speed>
<temp>0.00</temp>
<bpm>0</bpm>
<rpm>0.00</rpm>
</extensions>
</trkpt>
<trkpt lat="63.796096802" lon="-18.942358017">
<ele>559.562500</ele>
<time>2012-07-25T16:26:22Z</time>
<extensions>
<speed>0.0</speed>
<temp>0.00</temp>
<bpm>0</bpm>
<rpm>0.00</rpm>
</extensions>
</trkpt>
<trkpt lat="63.796096802" lon="-18.942359924">
<ele>559.562500</ele>
<time>2012-07-25T16:26:27Z</time>
<extensions>
<speed>0.0</speed>
<temp>0.00</temp>
<bpm>0</bpm>
<rpm>0.00</rpm>
</extensions>
</trkpt>
<trkpt lat="63.796100616" lon="-18.942359924">
<ele>559.562500</ele>
<time>2012-07-25T16:26:32Z</time>
<speed>0.010000</speed>
<extensions>
<speed>0.0</speed>
<temp>0.00</temp>
<bpm>0</bpm>
<rpm>0.00</rpm>
</extensions>
</trkpt>
<trkpt lat="63.796100616" lon="-18.942359924">
<ele>559.562500</ele>
<time>2012-07-25T16:26:37Z</time>
<extensions>
<speed>0.0</speed>
<temp>0.00</temp>
<bpm>0</bpm>
<rpm>0.00</rpm>
</extensions>
</trkpt>
<trkpt lat="63.796100616" lon="-18.942359924">
<ele>559.562500</ele>
<time>2012-07-25T16:26:42Z</time>
<extensions>
<speed>0.0</speed>
<temp>0.00</temp>
<bpm>0</bpm>
<rpm>0.00</rpm>
</extensions>
</trkpt>
<trkpt lat="63.796100616" lon="-18.942359924">
<ele>559.546875</ele>
<time>2012-07-25T16:26:47Z</time>
<extensions>
<speed>0.0</speed>
<temp>0.00</temp>
<bpm>0</bpm>
<rpm>0.00</rpm>
</extensions>
</trkpt>
<trkpt lat="63.796100616" lon="-18.942359924">
<ele>559.546875</ele>
<time>2012-07-25T16:26:52Z</time>
<extensions>
<speed>0.0</speed>
<temp>0.00</temp>
<bpm>0</bpm>
<rpm>0.00</rpm>
</extensions>
</trkpt>
<trkpt lat="63.796100616" lon="-18.942359924">
<ele>559.546875</ele>
<time>2012-07-25T16:26:57Z</time>
<speed>0.010000</speed>
<extensions>
<speed>0.0</speed>
<temp>0.00</temp>
<bpm>0</bpm>
<rpm>0.00</rpm>
</extensions>
</trkpt>
<trkpt lat="63.796100616" lon="-18.942359924">
<ele>559.531250</ele>
<time>2012-07-25T16:27:02Z</time>
<extensions>
<speed>0.0</speed>
<temp>0.00</temp>
<bpm>0</bpm>
<rpm>0.00</rpm>
</extensions>
</trkpt>
<trkpt lat="63.796100616" lon="-18.942359924">
<ele>559.531250</ele>
<time>2012-07-25T16:27:07Z</time>
<extensions>
<speed>0.0</speed>
<temp>0.00</temp>
<bpm>0</bpm>
<rpm>0.00</rpm>
</extensions>
</trkpt>
<trkpt lat="63.796100616" lon="-18.942359924">
<ele>559.515625</ele>
<time>2012-07-25T16:27:12Z</time>
<extensions>
<speed>0.0</speed>
<temp>0.00</temp>
<bpm>0</bpm>
<rpm>0.00</rpm>
</extensions>
</trkpt>
<trkpt lat="63.796100616" lon="-18.942359924">
<ele>559.515625</ele>
<time>2012-07-25T16:27:17Z</time>
<extensions>
<speed>0.0</speed>
<temp>0.00</temp>
<bpm>0</bpm>
<rpm>0.00</rpm>
</extensions>
</trkpt>
<trkpt lat="63.796100616" lon="-18.942359924">
<ele>559.515625</ele>
<time>2012-07-25T16:27:22Z</time>
<extensions>
<speed>0.0</speed>
<temp>0.00</temp>
<bpm>0</bpm>
<rpm>0.00</rpm>
</extensions>
</trkpt>
<trkpt lat="63.796100616" lon="-18.942359924">
<ele>559.515625</ele>
<time>2012-07-25T16:27:27Z</time>
<extensions>
<speed>0.0</speed>
<temp>0.00</temp>
<bpm>0</bpm>
<rpm>0.00</rpm>
</extensions>
</trkpt>
<trkpt lat="63.796100616" lon="-18.942359924">
<ele>559.515625</ele>
<time>2012-07-25T16:27:32Z</time>
<speed>0.010000</speed>
<extensions>
<speed>0.0</speed>
<temp>0.00</temp>
<bpm>0</bpm>
<rpm>0.00</rpm>
</extensions>
</trkpt>
<trkpt lat="63.796100616" lon="-18.942359924">
<ele>559.515625</ele>
<time>2012-07-25T16:27:37Z</time>
<speed>0.010000</speed>
<extensions>
<speed>0.0</speed>
<temp>0.00</temp>
<bpm>0</bpm>
<rpm>0.00</rpm>
</extensions>
</trkpt>
<trkpt lat="63.796100616" lon="-18.942359924">
<ele>559.515625</ele>
<time>2012-07-25T16:27:42Z</time>
<extensions>
<speed>0.0</speed>
<temp>0.00</temp>
<bpm>0</bpm>
<rpm>0.00</rpm>
</extensions>
</trkpt>
<trkpt lat="63.796100616" lon="-18.942359924">
<ele>559.515625</ele>
<time>2012-07-25T16:27:47Z</time>
<extensions>
<speed>0.0</speed>
<temp>0.00</temp>
<bpm>0</bpm>
<rpm>0.00</rpm>
</extensions>
</trkpt>
<trkpt lat="63.796100616" lon="-18.942359924">
<ele>559.515625</ele>
<time>2012-07-25T16:27:52Z</time>
<extensions>
<speed>0.0</speed>
<temp>0.00</temp>
<bpm>0</bpm>
<rpm>0.00</rpm>
</extensions>
</trkpt>
<trkpt lat="63.796100616" lon="-18.942359924">
<ele>559.500000</ele>
<time>2012-07-25T16:27:57Z</time>
<extensions>
<speed>0.0</speed>
<temp>0.00</temp>
<bpm>0</bpm>
<rpm>0.00</rpm>
</extensions>
</trkpt>
<trkpt lat="63.796100616" lon="-18.942359924">
<ele>559.515625</ele>
<time>2012-07-25T16:28:02Z</time>
<extensions>
<speed>0.0</speed>
<temp>0.00</temp>
<bpm>0</bpm>
<rpm>0.00</rpm>
</extensions>
</trkpt>
<trkpt lat="63.796100616" lon="-18.942359924">
<ele>559.515625</ele>
<time>2012-07-25T16:28:07Z</time>
<extensions>
<speed>0.0</speed>
<temp>0.00</temp>
<bpm>0</bpm>
<rpm>0.00</rpm>
</extensions>
</trkpt>
<trkpt lat="63.796100616" lon="-18.942359924">
<ele>559.515625</ele>
<time>2012-07-25T16:28:12Z</time>
<extensions>
<speed>0.0</speed>
<temp>0.00</temp>
<bpm>0</bpm>
<rpm>0.00</rpm>
</extensions>
</trkpt>
<trkpt lat="63.796100616" lon="-18.942359924">
<ele>559.515625</ele>
<time>2012-07-25T16:28:17Z</time>
<extensions>
<speed>0.0</speed>
<temp>0.00</temp>
<bpm>0</bpm>
<rpm>0.00</rpm>
</extensions>
</trkpt>
<trkpt lat="63.796100616" lon="-18.942359924">
<ele>559.515625</ele>
<time>2012-07-25T16:28:22Z</time>
<extensions>
<speed>0.0</speed>
<temp>0.00</temp>
<bpm>0</bpm>
<rpm>0.00</rpm>
</extensions>
</trkpt>
<trkpt lat="63.796100616" lon="-18.942359924">
<ele>559.515625</ele>
<time>2012-07-25T16:28:27Z</time>
<extensions>
<speed>0.0</speed>
<temp>0.00</temp>
<bpm>0</bpm>
<rpm>0.00</rpm>
</extensions>
</trkpt>
<trkpt lat="63.796100616" lon="-18.942359924">
<ele>559.515625</ele>
<time>2012-07-25T16:28:32Z</time>
<speed>0.010000</speed>
<extensions>
<speed>0.0</speed>
<temp>0.00</temp>
<bpm>0</bpm>
<rpm>0.00</rpm>
</extensions>
</trkpt>
<trkpt lat="63.796100616" lon="-18.942359924">
<ele>559.515625</ele>
<time>2012-07-25T16:28:37Z</time>
<extensions>
<speed>0.0</speed>
<temp>0.00</temp>
<bpm>0</bpm>
<rpm>0.00</rpm>
</extensions>
</trkpt>
<trkpt lat="63.796100616" lon="-18.942359924">
<ele>559.515625</ele>
<time>2012-07-25T16:28:42Z</time>
<extensions>
<speed>0.0</speed>
<temp>0.00</temp>
<bpm>0</bpm>
<rpm>0.00</rpm>
</extensions>
</trkpt>
<trkpt lat="63.796100616" lon="-18.942359924">
<ele>559.515625</ele>
<time>2012-07-25T16:28:47Z</time>
<speed>0.010000</speed>
<extensions>
<speed>0.0</speed>
<temp>0.00</temp>
<bpm>0</bpm>
<rpm>0.00</rpm>
</extensions>
</trkpt>
<trkpt lat="63.796100616" lon="-18.942359924">
<ele>559.500000</ele>
<time>2012-07-25T16:28:52Z</time>
<extensions>
<speed>0.0</speed>
<temp>0.00</temp>
<bpm>0</bpm>
<rpm>0.00</rpm>
</extensions>
</trkpt>
<trkpt lat="63.796100616" lon="-18.942359924">
<ele>559.500000</ele>
<time>2012-07-25T16:28:57Z</time>
<extensions>
<speed>0.0</speed>
<temp>0.00</temp>
<bpm>0</bpm>
<rpm>0.00</rpm>
</extensions>
</trkpt>
<trkpt lat="63.796100616" lon="-18.942359924">
<ele>559.500000</ele>
<time>2012-07-25T16:29:02Z</time>
<speed>0.020000</speed>
<extensions>
<speed>0.0</speed>
<temp>0.00</temp>
<bpm>0</bpm>
<rpm>0.00</rpm>
</extensions>
</trkpt>
<trkpt lat="63.796100616" lon="-18.942359924">
<ele>559.484375</ele>
<time>2012-07-25T16:29:07Z</time>
<speed>0.010000</speed>
<extensions>
<speed>0.0</speed>
<temp>0.00</temp>
<bpm>0</bpm>
<rpm>0.00</rpm>
</extensions>
</trkpt>
<trkpt lat="63.796100616" lon="-18.942359924">
<ele>559.484375</ele>
<time>2012-07-25T16:29:12Z</time>
<extensions>
<speed>0.0</speed>
<temp>0.00</temp>
<bpm>0</bpm>
<rpm>0.00</rpm>
</extensions>
</trkpt>
<trkpt lat="63.796100616" lon="-18.942359924">
<ele>559.484375</ele>
<time>2012-07-25T16:29:17Z</time>
<speed>0.010000</speed>
<extensions>
<speed>0.0</speed>
<temp>0.00</temp>
<bpm>0</bpm>
<rpm>0.00</rpm>
</extensions>
</trkpt>
<trkpt lat="63.796100616" lon="-18.942359924">
<ele>559.484375</ele>
<time>2012-07-25T16:29:22Z</time>
<speed>0.010000</speed>
<extensions>
<speed>0.0</speed>
<temp>0.00</temp>
<bpm>0</bpm>
<rpm>0.00</rpm>
</extensions>
</trkpt>
<trkpt lat="63.796100616" lon="-18.942359924">
<ele>559.468750</ele>
<time>2012-07-25T16:29:27Z</time>
<extensions>
<speed>0.0</speed>
<temp>0.00</temp>
<bpm>0</bpm>
<rpm>0.00</rpm>
</extensions>
</trkpt>
<trkpt lat="63.796100616" lon="-18.942359924">
<ele>559.468750</ele>
<time>2012-07-25T16:29:32Z</time>
<speed>0.010000</speed>
<extensions>
<speed>0.0</speed>
<temp>0.00</temp>
<bpm>0</bpm>
<rpm>0.00</rpm>
</extensions>
</trkpt>
<trkpt lat="63.796100616" lon="-18.942359924">
<ele>559.468750</ele>
<time>2012-07-25T16:29:37Z</time>
<extensions>
<speed>0.0</speed>
<temp>0.00</temp>
<bpm>0</bpm>
<rpm>0.00</rpm>
</extensions>
</trkpt>
<trkpt lat="63.796100616" lon="-18.942359924">
<ele>559.468750</ele>
<time>2012-07-25T16:29:42Z</time>
<speed>0.010000</speed>
<extensions>
<speed>0.0</speed>
<temp>0.00</temp>
<bpm>0</bpm>
<rpm>0.00</rpm>
</extensions>
</trkpt>
<trkpt lat="63.796100616" lon="-18.942359924">
<ele>559.468750</ele>
<time>2012-07-25T16:29:47Z</time>
<speed>0.010000</speed>
<extensions>
<speed>0.0</speed>
<temp>0.00</temp>
<bpm>0</bpm>
<rpm>0.00</rpm>
</extensions>
</trkpt>
<trkpt lat="63.796100616" lon="-18.942359924">
<ele>559.468750</ele>
<time>2012-07-25T16:29:52Z</time>
<extensions>
<speed>0.0</speed>
<temp>0.00</temp>
<bpm>0</bpm>
<rpm>0.00</rpm>
</extensions>
</trkpt>
<trkpt lat="63.796100616" lon="-18.942359924">
<ele>559.468750</ele>
<time>2012-07-25T16:29:57Z</time>
<speed>0.010000</speed>
<extensions>
<speed>0.0</speed>
<temp>0.00</temp>
<bpm>0</bpm>
<rpm>0.00</rpm>
</extensions>
</trkpt>
<trkpt lat="63.796100616" lon="-18.942359924">
<ele>559.484375</ele>
<time>2012-07-25T16:30:02Z</time>
<speed>0.010000</speed>
<extensions>
<speed>0.0</speed>
<temp>0.00</temp>
<bpm>0</bpm>
<rpm>0.00</rpm>
</extensions>
</trkpt>
<trkpt lat="63.796100616" lon="-18.942359924">
<ele>559.484375</ele>
<time>2012-07-25T16:30:07Z</time>
<speed>0.010000</speed>
<extensions>
<speed>0.0</speed>
<temp>0.00</temp>
<bpm>0</bpm>
<rpm>0.00</rpm>
</extensions>
</trkpt>
<trkpt lat="63.796100616" lon="-18.942358017">
<ele>559.484375</ele>
<time>2012-07-25T16:30:12Z</time>
<extensions>
<speed>0.0</speed>
<temp>0.00</temp>
<bpm>0</bpm>
<rpm>0.00</rpm>
</extensions>
</trkpt>
<trkpt lat="63.796100616" lon="-18.942359924">
<ele>559.484375</ele>
<time>2012-07-25T16:30:17Z</time>
<speed>0.200000</speed>
<extensions>
<speed>0.2</speed>
<temp>0.00</temp>
<bpm>0</bpm>
<rpm>0.00</rpm>
</extensions>
</trkpt>
<trkpt lat="63.796096802" lon="-18.942358017">
<ele>559.484375</ele>
<time>2012-07-25T16:30:22Z</time>
<speed>0.110000</speed>
<extensions>
<speed>0.1</speed>
<temp>0.00</temp>
<bpm>0</bpm>
<rpm>0.00</rpm>
</extensions>
</trkpt>
<trkpt lat="63.796096802" lon="-18.942361832">
<ele>559.609375</ele>
<time>2012-07-25T16:30:27Z</time>
<speed>0.140000</speed>
<extensions>
<speed>0.1</speed>
<temp>0.00</temp>
<bpm>0</bpm>
<rpm>0.00</rpm>
</extensions>
</trkpt>
<trkpt lat="63.796096802" lon="-18.942348480">
<ele>559.859375</ele>
<time>2012-07-25T16:30:32Z</time>
<speed>0.230000</speed>
<extensions>
<speed>0.2</speed>
<temp>0.00</temp>
<bpm>0</bpm>
<rpm>0.00</rpm>
</extensions>
</trkpt>
<trkpt lat="63.796009064" lon="-18.942577362">
<ele>568.750000</ele>
<time>2012-07-25T17:15:03Z</time>
<speed>0.270000</speed>
<extensions>
<speed>0.3</speed>
<temp>0.00</temp>
<bpm>0</bpm>
<rpm>0.00</rpm>
</extensions>
</trkpt>
<trkpt lat="63.796165466" lon="-18.942483902">
<ele>573.734375</ele>
<time>2012-07-25T17:15:08Z</time>
<speed>0.110000</speed>
<extensions>
<speed>0.1</speed>
<temp>0.00</temp>
<bpm>0</bpm>
<rpm>0.00</rpm>
</extensions>
</trkpt>
<trkpt lat="63.796138763" lon="-18.942407608">
<ele>580.234375</ele>
<time>2012-07-25T17:15:14Z</time>
<speed>0.150000</speed>
<extensions>
<speed>0.2</speed>
<temp>0.00</temp>
<bpm>0</bpm>
<rpm>0.00</rpm>
</extensions>
</trkpt>
<trkpt lat="63.796169281" lon="-18.942399979">
<ele>582.281250</ele>
<time>2012-07-25T17:15:20Z</time>
<speed>0.530000</speed>
<extensions>
<speed>0.5</speed>
<temp>0.00</temp>
<bpm>0</bpm>
<rpm>0.00</rpm>
</extensions>
</trkpt>
<trkpt lat="63.796199799" lon="-18.942348480">
<ele>583.234375</ele>
<time>2012-07-25T17:15:25Z</time>
<speed>0.010000</speed>
<extensions>
<speed>0.0</speed>
<temp>0.00</temp>
<bpm>0</bpm>
<rpm>0.00</rpm>
</extensions>
</trkpt>
<trkpt lat="63.796195984" lon="-18.942342758">
<ele>583.718750</ele>
<time>2012-07-25T17:15:30Z</time>
<speed>0.040000</speed>
<extensions>
<speed>0.0</speed>
<temp>0.00</temp>
<bpm>0</bpm>
<rpm>0.00</rpm>
</extensions>
</trkpt>
<trkpt lat="63.796195984" lon="-18.942340851">
<ele>581.203125</ele>
<time>2012-07-25T17:15:35Z</time>
<speed>0.420000</speed>
<extensions>
<speed>0.4</speed>
<temp>0.00</temp>
<bpm>0</bpm>
<rpm>0.00</rpm>
</extensions>
</trkpt>
<trkpt lat="63.796157837" lon="-18.942392349">
<ele>578.562500</ele>
<time>2012-07-25T17:15:40Z</time>
<speed>0.070000</speed>
<extensions>
<speed>0.1</speed>
<temp>0.00</temp>
<bpm>0</bpm>
<rpm>0.00</rpm>
</extensions>
</trkpt>
<trkpt lat="63.796150208" lon="-18.942399979">
<ele>578.500000</ele>
<time>2012-07-25T17:15:45Z</time>
<speed>0.060000</speed>
<extensions>
<speed>0.1</speed>
<temp>0.00</temp>
<bpm>0</bpm>
<rpm>0.00</rpm>
</extensions>
</trkpt>
<trkpt lat="63.796150208" lon="-18.942405701">
<ele>578.546875</ele>
<time>2012-07-25T17:15:50Z</time>
<speed>0.070000</speed>
<extensions>
<speed>0.1</speed>
<temp>0.00</temp>
<bpm>0</bpm>
<rpm>0.00</rpm>
</extensions>
</trkpt>
<trkpt lat="63.796150208" lon="-18.942409515">
<ele>578.546875</ele>
<time>2012-07-25T17:15:55Z</time>
<speed>0.350000</speed>
<extensions>
<speed>0.3</speed>
<temp>0.00</temp>
<bpm>0</bpm>
<rpm>0.00</rpm>
</extensions>
</trkpt>
<trkpt lat="63.796131134" lon="-18.942420959">
<ele>575.718750</ele>
<time>2012-07-25T17:16:00Z</time>
<speed>0.020000</speed>
<extensions>
<speed>0.0</speed>
<temp>0.00</temp>
<bpm>0</bpm>
<rpm>0.00</rpm>
</extensions>
</trkpt>
<trkpt lat="63.796119690" lon="-18.942392349">
<ele>575.343750</ele>
<time>2012-07-25T17:16:05Z</time>
<speed>1.100000</speed>
<extensions>
<speed>1.1</speed>
<temp>0.00</temp>
<bpm>0</bpm>
<rpm>0.00</rpm>
</extensions>
</trkpt>
<trkpt lat="63.796104431" lon="-18.942373276">
<ele>574.718750</ele>
<time>2012-07-25T17:16:10Z</time>
<speed>0.190000</speed>
<extensions>
<speed>0.2</speed>
<temp>0.00</temp>
<bpm>0</bpm>
<rpm>0.00</rpm>
</extensions>
</trkpt>
<trkpt lat="63.796100616" lon="-18.942398071">
<ele>574.109375</ele>
<time>2012-07-25T17:16:15Z</time>
<speed>0.070000</speed>
<extensions>
<speed>0.1</speed>
<temp>0.00</temp>
<bpm>0</bpm>
<rpm>0.00</rpm>
</extensions>
</trkpt>
<trkpt lat="63.796108246" lon="-18.942394257">
<ele>573.937500</ele>
<time>2012-07-25T17:16:20Z</time>
<speed>0.090000</speed>
<extensions>
<speed>0.1</speed>
<temp>0.00</temp>
<bpm>0</bpm>
<rpm>0.00</rpm>
</extensions>
</trkpt>
<trkpt lat="63.796112061" lon="-18.942394257">
<ele>573.906250</ele>
<time>2012-07-25T17:16:25Z</time>
<speed>0.090000</speed>
<extensions>
<speed>0.1</speed>
<temp>0.00</temp>
<bpm>0</bpm>
<rpm>0.00</rpm>
</extensions>
</trkpt>
<trkpt lat="63.796112061" lon="-18.942392349">
<ele>573.906250</ele>
<time>2012-07-25T17:16:30Z</time>
<extensions>
<speed>0.0</speed>
<temp>0.00</temp>
<bpm>0</bpm>
<rpm>0.00</rpm>
</extensions>
</trkpt>
<trkpt lat="63.796108246" lon="-18.942390442">
<ele>573.875000</ele>
<time>2012-07-25T17:16:35Z</time>
<speed>0.130000</speed>
<extensions>
<speed>0.1</speed>
<temp>0.00</temp>
<bpm>0</bpm>
<rpm>0.00</rpm>
</extensions>
</trkpt>
<trkpt lat="63.796112061" lon="-18.942382813">
<ele>573.750000</ele>
<time>2012-07-25T17:16:40Z</time>
<extensions>
<speed>0.0</speed>
<temp>0.00</temp>
<bpm>0</bpm>
<rpm>0.00</rpm>
</extensions>
</trkpt>
<trkpt lat="63.796119690" lon="-18.942405701">
<ele>572.140625</ele>
<time>2012-07-25T17:16:45Z</time>
<speed>0.430000</speed>
<extensions>
<speed>0.4</speed>
<temp>0.00</temp>
<bpm>0</bpm>
<rpm>0.00</rpm>
</extensions>
</trkpt>
<trkpt lat="63.796119690" lon="-18.942405701">
<ele>571.671875</ele>
<time>2012-07-25T17:16:50Z</time>
<speed>0.450000</speed>
<extensions>
<speed>0.5</speed>
<temp>0.00</temp>
<bpm>0</bpm>
<rpm>0.00</rpm>
</extensions>
</trkpt>
<trkpt lat="63.796112061" lon="-18.942407608">
<ele>570.765625</ele>
<time>2012-07-25T17:16:55Z</time>
<speed>0.020000</speed>
<extensions>
<speed>0.0</speed>
<temp>0.00</temp>
<bpm>0</bpm>
<rpm>0.00</rpm>
</extensions>
</trkpt>
<trkpt lat="63.796112061" lon="-18.942405701">
<ele>570.625000</ele>
<time>2012-07-25T17:17:00Z</time>
<speed>0.080000</speed>
<extensions>
<speed>0.1</speed>
<temp>0.00</temp>
<bpm>0</bpm>
<rpm>0.00</rpm>
</extensions>
</trkpt>
<trkpt lat="63.796112061" lon="-18.942396164">
<ele>570.390625</ele>
<time>2012-07-25T17:17:05Z</time>
<speed>0.260000</speed>
<extensions>
<speed>0.3</speed>
<temp>0.00</temp>
<bpm>0</bpm>
<rpm>0.00</rpm>
</extensions>
</trkpt>
<trkpt lat="63.796112061" lon="-18.942386627">
<ele>570.062500</ele>
<time>2012-07-25T17:17:10Z</time>
<speed>0.340000</speed>
<extensions>
<speed>0.3</speed>
<temp>0.00</temp>
<bpm>0</bpm>
<rpm>0.00</rpm>
</extensions>
</trkpt>
<trkpt lat="63.796112061" lon="-18.942373276">
<ele>569.421875</ele>
<time>2012-07-25T17:17:15Z</time>
<speed>0.310000</speed>
<extensions>
<speed>0.3</speed>
<temp>0.00</temp>
<bpm>0</bpm>
<rpm>0.00</rpm>
</extensions>
</trkpt>
<trkpt lat="63.796100616" lon="-18.942361832">
<ele>568.703125</ele>
<time>2012-07-25T17:17:20Z</time>
<speed>0.260000</speed>
<extensions>
<speed>0.3</speed>
<temp>0.00</temp>
<bpm>0</bpm>
<rpm>0.00</rpm>
</extensions>
</trkpt>
<trkpt lat="63.796108246" lon="-18.942386627">
<ele>568.218750</ele>
<time>2012-07-25T17:17:25Z</time>
<speed>0.070000</speed>
<extensions>
<speed>0.1</speed>
<temp>0.00</temp>
<bpm>0</bpm>
<rpm>0.00</rpm>
</extensions>
</trkpt>
<trkpt lat="63.796112061" lon="-18.942394257">
<ele>568.015625</ele>
<time>2012-07-25T17:17:30Z</time>
<speed>0.250000</speed>
<extensions>
<speed>0.2</speed>
<temp>0.00</temp>
<bpm>0</bpm>
<rpm>0.00</rpm>
</extensions>
</trkpt>
<trkpt lat="63.796104431" lon="-18.942375183">
<ele>567.406250</ele>
<time>2012-07-25T17:17:35Z</time>
<speed>0.200000</speed>
<extensions>
<speed>0.2</speed>
<temp>0.00</temp>
<bpm>0</bpm>
<rpm>0.00</rpm>
</extensions>
</trkpt>
<trkpt lat="63.796108246" lon="-18.942358017">
<ele>566.781250</ele>
<time>2012-07-25T17:17:40Z</time>
<speed>0.190000</speed>
<extensions>
<speed>0.2</speed>
<temp>0.00</temp>
<bpm>0</bpm>
<rpm>0.00</rpm>
</extensions>
</trkpt>
<trkpt lat="63.796108246" lon="-18.942342758">
<ele>566.140625</ele>
<time>2012-07-25T17:17:45Z</time>
<speed>0.270000</speed>
<extensions>
<speed>0.3</speed>
<temp>0.00</temp>
<bpm>0</bpm>
<rpm>0.00</rpm>
</extensions>
</trkpt>
<trkpt lat="63.796115875" lon="-18.942325592">
<ele>565.515625</ele>
<time>2012-07-25T17:17:50Z</time>
<speed>0.030000</speed>
<extensions>
<speed>0.0</speed>
<temp>0.00</temp>
<bpm>0</bpm>
<rpm>0.00</rpm>
</extensions>
</trkpt>
<trkpt lat="63.796112061" lon="-18.942327499">
<ele>564.890625</ele>
<time>2012-07-25T17:17:55Z</time>
<speed>0.010000</speed>
<extensions>
<speed>0.0</speed>
<temp>0.00</temp>
<bpm>0</bpm>
<rpm>0.00</rpm>
</extensions>
</trkpt>
<trkpt lat="63.796108246" lon="-18.942333221">
<ele>564.265625</ele>
<time>2012-07-25T17:18:00Z</time>
<speed>0.040000</speed>
<extensions>
<speed>0.0</speed>
<temp>0.00</temp>
<bpm>0</bpm>
<rpm>0.00</rpm>
</extensions>
</trkpt>
<trkpt lat="63.796108246" lon="-18.942329407">
<ele>563.640625</ele>
<time>2012-07-25T17:18:05Z</time>
<speed>0.120000</speed>
<extensions>
<speed>0.1</speed>
<temp>0.00</temp>
<bpm>0</bpm>
<rpm>0.00</rpm>
</extensions>
</trkpt>
<trkpt lat="63.796108246" lon="-18.942317963">
<ele>563.015625</ele>
<time>2012-07-25T17:18:10Z</time>
<speed>0.070000</speed>
<extensions>
<speed>0.1</speed>
<temp>0.00</temp>
<bpm>0</bpm>
<rpm>0.00</rpm>
</extensions>
</trkpt>
<trkpt lat="63.796108246" lon="-18.942321777">
<ele>562.406250</ele>
<time>2012-07-25T17:18:15Z</time>
<speed>0.040000</speed>
<extensions>
<speed>0.0</speed>
<temp>0.00</temp>
<bpm>0</bpm>
<rpm>0.00</rpm>
</extensions>
</trkpt>
<trkpt lat="63.796108246" lon="-18.942323685">
<ele>562.140625</ele>
<time>2012-07-25T17:18:20Z</time>
<speed>0.120000</speed>
<extensions>
<speed>0.1</speed>
<temp>0.00</temp>
<bpm>0</bpm>
<rpm>0.00</rpm>
</extensions>
</trkpt>
<trkpt lat="63.796108246" lon="-18.942327499">
<ele>561.562500</ele>
<time>2012-07-25T17:18:25Z</time>
<speed>0.060000</speed>
<extensions>
<speed>0.1</speed>
<temp>0.00</temp>
<bpm>0</bpm>
<rpm>0.00</rpm>
</extensions>
</trkpt>
<trkpt lat="63.796108246" lon="-18.942321777">
<ele>561.093750</ele>
<time>2012-07-25T17:18:30Z</time>
<speed>0.100000</speed>
<extensions>
<speed>0.1</speed>
<temp>0.00</temp>
<bpm>0</bpm>
<rpm>0.00</rpm>
</extensions>
</trkpt>
<trkpt lat="63.796108246" lon="-18.942314148">
<ele>560.843750</ele>
<time>2012-07-25T17:18:35Z</time>
<speed>0.070000</speed>
<extensions>
<speed>0.1</speed>
<temp>0.00</temp>
<bpm>0</bpm>
<rpm>0.00</rpm>
</extensions>
</trkpt>
<trkpt lat="63.796108246" lon="-18.942312241">
<ele>560.718750</ele>
<time>2012-07-25T17:18:40Z</time>
<speed>0.020000</speed>
<extensions>
<speed>0.0</speed>
<temp>0.00</temp>
<bpm>0</bpm>
<rpm>0.00</rpm>
</extensions>
</trkpt>
<trkpt lat="63.796108246" lon="-18.942314148">
<ele>560.812500</ele>
<time>2012-07-25T17:18:45Z</time>
<speed>0.030000</speed>
<extensions>
<speed>0.0</speed>
<temp>0.00</temp>
<bpm>0</bpm>
<rpm>0.00</rpm>
</extensions>
</trkpt>
<trkpt lat="63.796108246" lon="-18.942316055">
<ele>560.812500</ele>
<time>2012-07-25T17:18:50Z</time>
<speed>0.010000</speed>
<extensions>
<speed>0.0</speed>
<temp>0.00</temp>
<bpm>0</bpm>
<rpm>0.00</rpm>
</extensions>
</trkpt>
<trkpt lat="63.796108246" lon="-18.942316055">
<ele>560.812500</ele>
<time>2012-07-25T17:18:55Z</time>
<speed>0.020000</speed>
<extensions>
<speed>0.0</speed>
<temp>0.00</temp>
<bpm>0</bpm>
<rpm>0.00</rpm>
</extensions>
</trkpt>
<trkpt lat="63.796108246" lon="-18.942316055">
<ele>560.812500</ele>
<time>2012-07-25T17:19:00Z</time>
<extensions>
<speed>0.0</speed>
<temp>0.00</temp>
<bpm>0</bpm>
<rpm>0.00</rpm>
</extensions>
</trkpt>
<trkpt lat="63.796108246" lon="-18.942316055">
<ele>560.812500</ele>
<time>2012-07-25T17:19:05Z</time>
<speed>0.070000</speed>
<extensions>
<speed>0.1</speed>
<temp>0.00</temp>
<bpm>0</bpm>
<rpm>0.00</rpm>
</extensions>
</trkpt>
<trkpt lat="63.796108246" lon="-18.942317963">
<ele>560.843750</ele>
<time>2012-07-25T17:19:10Z</time>
<speed>0.020000</speed>
<extensions>
<speed>0.0</speed>
<temp>0.00</temp>
<bpm>0</bpm>
<rpm>0.00</rpm>
</extensions>
</trkpt>
<trkpt lat="63.796108246" lon="-18.942317963">
<ele>560.843750</ele>
<time>2012-07-25T17:19:15Z</time>
<extensions>
<speed>0.0</speed>
<temp>0.00</temp>
<bpm>0</bpm>
<rpm>0.00</rpm>
</extensions>
</trkpt>
<trkpt lat="63.796108246" lon="-18.942317963">
<ele>560.843750</ele>
<time>2012-07-25T17:19:20Z</time>
<speed>0.010000</speed>
<extensions>
<speed>0.0</speed>
<temp>0.00</temp>
<bpm>0</bpm>
<rpm>0.00</rpm>
</extensions>
</trkpt>
<trkpt lat="63.796108246" lon="-18.942317963">
<ele>560.843750</ele>
<time>2012-07-25T17:19:25Z</time>
<extensions>
<speed>0.0</speed>
<temp>0.00</temp>
<bpm>0</bpm>
<rpm>0.00</rpm>
</extensions>
</trkpt>
<trkpt lat="63.796108246" lon="-18.942317963">
<ele>560.859375</ele>
<time>2012-07-25T17:19:30Z</time>
<speed>0.010000</speed>
<extensions>
<speed>0.0</speed>
<temp>0.00</temp>
<bpm>0</bpm>
<rpm>0.00</rpm>
</extensions>
</trkpt>
<trkpt lat="63.796108246" lon="-18.942317963">
<ele>560.843750</ele>
<time>2012-07-25T17:19:35Z</time>
<extensions>
<speed>0.0</speed>
<temp>0.00</temp>
<bpm>0</bpm>
<rpm>0.00</rpm>
</extensions>
</trkpt>
<trkpt lat="63.796108246" lon="-18.942317963">
<ele>560.843750</ele>
<time>2012-07-25T17:19:40Z</time>
<speed>0.010000</speed>
<extensions>
<speed>0.0</speed>
<temp>0.00</temp>
<bpm>0</bpm>
<rpm>0.00</rpm>
</extensions>
</trkpt>
<trkpt lat="63.796092987" lon="-18.942371368">
<ele>561.734375</ele>
<time>2012-07-25T17:19:45Z</time>
<speed>1.310000</speed>
<extensions>
<speed>1.3</speed>
<temp>0.00</temp>
<bpm>0</bpm>
<rpm>0.00</rpm>
</extensions>
</trkpt>
<trkpt lat="63.796070099" lon="-18.942434311">
<ele>561.859375</ele>
<time>2012-07-25T17:19:50Z</time>
<speed>0.080000</speed>
<extensions>
<speed>0.1</speed>
<temp>0.00</temp>
<bpm>0</bpm>
<rpm>0.00</rpm>
</extensions>
</trkpt>
<trkpt lat="63.796070099" lon="-18.942438126">
<ele>561.890625</ele>
<time>2012-07-25T17:19:55Z</time>
<speed>0.040000</speed>
<extensions>
<speed>0.0</speed>
<temp>0.00</temp>
<bpm>0</bpm>
<rpm>0.00</rpm>
</extensions>
</trkpt>
<trkpt lat="63.796070099" lon="-18.942440033">
<ele>561.921875</ele>
<time>2012-07-25T17:20:00Z</time>
<speed>0.010000</speed>
<extensions>
<speed>0.0</speed>
<temp>0.00</temp>
<bpm>0</bpm>
<rpm>0.00</rpm>
</extensions>
</trkpt>
<trkpt lat="63.796070099" lon="-18.942440033">
<ele>561.937500</ele>
<time>2012-07-25T17:20:05Z</time>
<extensions>
<speed>0.0</speed>
<temp>0.00</temp>
<bpm>0</bpm>
<rpm>0.00</rpm>
</extensions>
</trkpt>
<trkpt lat="63.796070099" lon="-18.942432404">
<ele>561.671875</ele>
<time>2012-07-25T17:20:10Z</time>
<speed>0.040000</speed>
<extensions>
<speed>0.0</speed>
<temp>0.00</temp>
<bpm>0</bpm>
<rpm>0.00</rpm>
</extensions>
</trkpt>
<trkpt lat="63.796070099" lon="-18.942432404">
<ele>561.640625</ele>
<time>2012-07-25T17:20:15Z</time>
<extensions>
<speed>0.0</speed>
<temp>0.00</temp>
<bpm>0</bpm>
<rpm>0.00</rpm>
</extensions>
</trkpt>
<trkpt lat="63.796070099" lon="-18.942432404">
<ele>561.625000</ele>
<time>2012-07-25T17:20:20Z</time>
<speed>0.010000</speed>
<extensions>
<speed>0.0</speed>
<temp>0.00</temp>
<bpm>0</bpm>
<rpm>0.00</rpm>
</extensions>
</trkpt>
<trkpt lat="63.796070099" lon="-18.942432404">
<ele>561.625000</ele>
<time>2012-07-25T17:20:25Z</time>
<extensions>
<speed>0.0</speed>
<temp>0.00</temp>
<bpm>0</bpm>
<rpm>0.00</rpm>
</extensions>
</trkpt>
<trkpt lat="63.796070099" lon="-18.942432404">
<ele>561.625000</ele>
<time>2012-07-25T17:20:30Z</time>
<speed>0.030000</speed>
<extensions>
<speed>0.0</speed>
<temp>0.00</temp>
<bpm>0</bpm>
<rpm>0.00</rpm>
</extensions>
</trkpt>
<trkpt lat="63.796058655" lon="-18.942451477">
<ele>561.500000</ele>
<time>2012-07-25T17:20:35Z</time>
<speed>0.670000</speed>
<extensions>
<speed>0.7</speed>
<temp>0.00</temp>
<bpm>0</bpm>
<rpm>0.00</rpm>
</extensions>
</trkpt>
<trkpt lat="63.796051025" lon="-18.942537308">
<ele>562.312500</ele>
<time>2012-07-25T17:20:40Z</time>
<speed>0.750000</speed>
<extensions>
<speed>0.8</speed>
<temp>0.00</temp>
<bpm>0</bpm>
<rpm>0.00</rpm>
</extensions>
</trkpt>
<trkpt lat="63.796043396" lon="-18.942577362">
<ele>562.515625</ele>
<time>2012-07-25T17:20:45Z</time>
<speed>0.040000</speed>
<extensions>
<speed>0.0</speed>
<temp>0.00</temp>
<bpm>0</bpm>
<rpm>0.00</rpm>
</extensions>
</trkpt>
<trkpt lat="63.796043396" lon="-18.942575455">
<ele>562.515625</ele>
<time>2012-07-25T17:20:50Z</time>
<speed>0.040000</speed>
<extensions>
<speed>0.0</speed>
<temp>0.00</temp>
<bpm>0</bpm>
<rpm>0.00</rpm>
</extensions>
</trkpt>
<trkpt lat="63.796043396" lon="-18.942575455">
<ele>562.562500</ele>
<time>2012-07-25T17:20:55Z</time>
<speed>0.010000</speed>
<extensions>
<speed>0.0</speed>
<temp>0.00</temp>
<bpm>0</bpm>
<rpm>0.00</rpm>
</extensions>
</trkpt>
<trkpt lat="63.796043396" lon="-18.942575455">
<ele>562.546875</ele>
<time>2012-07-25T17:21:00Z</time>
<speed>0.080000</speed>
<extensions>
<speed>0.1</speed>
<temp>0.00</temp>
<bpm>0</bpm>
<rpm>0.00</rpm>
</extensions>
</trkpt>
<trkpt lat="63.796066284" lon="-18.942638397">
<ele>562.015625</ele>
<time>2012-07-25T17:21:05Z</time>
<speed>0.580000</speed>
<extensions>
<speed>0.6</speed>
<temp>0.00</temp>
<bpm>0</bpm>
<rpm>0.00</rpm>
</extensions>
</trkpt>
<trkpt lat="63.796066284" lon="-18.942649841">
<ele>561.484375</ele>
<time>2012-07-25T17:21:10Z</time>
<speed>0.190000</speed>
<extensions>
<speed>0.2</speed>
<temp>0.00</temp>
<bpm>0</bpm>
<rpm>0.00</rpm>
</extensions>
</trkpt>
<trkpt lat="63.796066284" lon="-18.942636490">
<ele>560.531250</ele>
<time>2012-07-25T17:21:15Z</time>
<speed>0.450000</speed>
<extensions>
<speed>0.5</speed>
<temp>0.00</temp>
<bpm>0</bpm>
<rpm>0.00</rpm>
</extensions>
</trkpt>
<trkpt lat="63.796089172" lon="-18.942762375">
<ele>559.890625</ele>
<time>2012-07-25T17:21:20Z</time>
<speed>1.780000</speed>
<extensions>
<speed>1.8</speed>
<temp>0.00</temp>
<bpm>0</bpm>
<rpm>0.00</rpm>
</extensions>
</trkpt>
<trkpt lat="63.796123505" lon="-18.942932129">
<ele>559.593750</ele>
<time>2012-07-25T17:21:25Z</time>
<speed>1.950000</speed>
<extensions>
<speed>1.9</speed>
<temp>0.00</temp>
<bpm>0</bpm>
<rpm>0.00</rpm>
</extensions>
</trkpt>
<trkpt lat="63.796169281" lon="-18.943078995">
<ele>559.140625</ele>
<time>2012-07-25T17:21:30Z</time>
<speed>1.080000</speed>
<extensions>
<speed>1.1</speed>
<temp>0.00</temp>
<bpm>0</bpm>
<rpm>0.00</rpm>
</extensions>
</trkpt>
<trkpt lat="63.796199799" lon="-18.943227768">
<ele>558.359375</ele>
<time>2012-07-25T17:21:35Z</time>
<speed>1.990000</speed>
<extensions>
<speed>2.0</speed>
<temp>0.00</temp>
<bpm>0</bpm>
<rpm>0.00</rpm>
</extensions>
</trkpt>
<trkpt lat="63.796245575" lon="-18.943470001">
<ele>559.156250</ele>
<time>2012-07-25T17:21:40Z</time>
<speed>1.900000</speed>
<extensions>
<speed>1.9</speed>
<temp>0.00</temp>
<bpm>0</bpm>
<rpm>0.00</rpm>
</extensions>
</trkpt>
<trkpt lat="63.796272278" lon="-18.943643570">
<ele>558.671875</ele>
<time>2012-07-25T17:21:45Z</time>
<speed>1.730000</speed>
<extensions>
<speed>1.7</speed>
<temp>0.00</temp>
<bpm>0</bpm>
<rpm>0.00</rpm>
</extensions>
</trkpt>
<trkpt lat="63.796302795" lon="-18.943811417">
<ele>558.046875</ele>
<time>2012-07-25T17:21:50Z</time>
<speed>1.760000</speed>
<extensions>
<speed>1.8</speed>
<temp>0.00</temp>
<bpm>0</bpm>
<rpm>0.00</rpm>
</extensions>
</trkpt>
<trkpt lat="63.796340942" lon="-18.943986893">
<ele>557.593750</ele>
<time>2012-07-25T17:21:55Z</time>
<speed>1.670000</speed>
<extensions>
<speed>1.7</speed>
<temp>0.00</temp>
<bpm>0</bpm>
<rpm>0.00</rpm>
</extensions>
</trkpt>
<trkpt lat="63.796379089" lon="-18.944149017">
<ele>557.531250</ele>
<time>2012-07-25T17:22:00Z</time>
<speed>1.700000</speed>
<extensions>
<speed>1.7</speed>
<temp>0.00</temp>
<bpm>0</bpm>
<rpm>0.00</rpm>
</extensions>
</trkpt>
<trkpt lat="63.796428680" lon="-18.944358826">
<ele>558.687500</ele>
<time>2012-07-25T17:22:05Z</time>
<speed>1.900000</speed>
<extensions>
<speed>1.9</speed>
<temp>0.00</temp>
<bpm>0</bpm>
<rpm>0.00</rpm>
</extensions>
</trkpt>
<trkpt lat="63.796478271" lon="-18.944530487">
<ele>558.578125</ele>
<time>2012-07-25T17:22:10Z</time>
<speed>1.830000</speed>
<extensions>
<speed>1.8</speed>
<temp>0.00</temp>
<bpm>0</bpm>
<rpm>0.00</rpm>
</extensions>
</trkpt>
<trkpt lat="63.796527863" lon="-18.944675446">
<ele>559.484375</ele>
<time>2012-07-25T17:22:15Z</time>
<speed>1.430000</speed>
<extensions>
<speed>1.4</speed>
<temp>0.00</temp>
<bpm>0</bpm>
<rpm>0.00</rpm>
</extensions>
</trkpt>
<trkpt lat="63.796588898" lon="-18.944856644">
<ele>559.968750</ele>
<time>2012-07-25T17:22:20Z</time>
<speed>2.590000</speed>
<extensions>
<speed>2.6</speed>
<temp>0.00</temp>
<bpm>0</bpm>
<rpm>0.00</rpm>
</extensions>
</trkpt>
<trkpt lat="63.796649933" lon="-18.945077896">
<ele>561.265625</ele>
<time>2012-07-25T17:22:25Z</time>
<speed>2.340000</speed>
<extensions>
<speed>2.3</speed>
<temp>0.00</temp>
<bpm>0</bpm>
<rpm>0.00</rpm>
</extensions>
</trkpt>
<trkpt lat="63.796710968" lon="-18.945306778">
<ele>563.640625</ele>
<time>2012-07-25T17:22:30Z</time>
<speed>2.620000</speed>
<extensions>
<speed>2.6</speed>
<temp>0.00</temp>
<bpm>0</bpm>
<rpm>0.00</rpm>
</extensions>
</trkpt>
<trkpt lat="63.796779633" lon="-18.945539474">
<ele>566.125000</ele>
<time>2012-07-25T17:22:35Z</time>
<speed>2.160000</speed>
<extensions>
<speed>2.2</speed>
<temp>0.00</temp>
<bpm>0</bpm>
<rpm>0.00</rpm>
</extensions>
</trkpt>
<trkpt lat="63.796833038" lon="-18.945745468">
<ele>567.015625</ele>
<time>2012-07-25T17:22:40Z</time>
<speed>2.590000</speed>
<extensions>
<speed>2.6</speed>
<temp>0.00</temp>
<bpm>0</bpm>
<rpm>0.00</rpm>
</extensions>
</trkpt>
<trkpt lat="63.796894073" lon="-18.945932388">
<ele>566.687500</ele>
<time>2012-07-25T17:22:45Z</time>
<speed>2.060000</speed>
<extensions>
<speed>2.1</speed>
<temp>0.00</temp>
<bpm>0</bpm>
<rpm>0.00</rpm>
</extensions>
</trkpt>
<trkpt lat="63.796943665" lon="-18.946107864">
<ele>566.375000</ele>
<time>2012-07-25T17:22:50Z</time>
<speed>2.370000</speed>
<extensions>
<speed>2.4</speed>
<temp>0.00</temp>
<bpm>0</bpm>
<rpm>0.00</rpm>
</extensions>
</trkpt>
<trkpt lat="63.796997070" lon="-18.946348190">
<ele>567.359375</ele>
<time>2012-07-25T17:22:55Z</time>
<speed>2.570000</speed>
<extensions>
<speed>2.6</speed>
<temp>0.00</temp>
<bpm>0</bpm>
<rpm>0.00</rpm>
</extensions>
</trkpt>
<trkpt lat="63.797042847" lon="-18.946542740">
<ele>567.234375</ele>
<time>2012-07-25T17:23:00Z</time>
<speed>2.310000</speed>
<extensions>
<speed>2.3</speed>
<temp>0.00</temp>
<bpm>0</bpm>
<rpm>0.00</rpm>
</extensions>
</trkpt>
<trkpt lat="63.797088623" lon="-18.946733475">
<ele>567.859375</ele>
<time>2012-07-25T17:23:05Z</time>
<speed>2.250000</speed>
<extensions>
<speed>2.3</speed>
<temp>0.00</temp>
<bpm>0</bpm>
<rpm>0.00</rpm>
</extensions>
</trkpt>
<trkpt lat="63.797145844" lon="-18.946945190">
<ele>568.265625</ele>
<time>2012-07-25T17:23:10Z</time>
<speed>2.520000</speed>
<extensions>
<speed>2.5</speed>
<temp>0.00</temp>
<bpm>0</bpm>
<rpm>0.00</rpm>
</extensions>
</trkpt>
<trkpt lat="63.797199249" lon="-18.947181702">
<ele>568.609375</ele>
<time>2012-07-25T17:23:15Z</time>
<speed>2.600000</speed>
<extensions>
<speed>2.6</speed>
<temp>0.00</temp>
<bpm>0</bpm>
<rpm>0.00</rpm>
</extensions>
</trkpt>
<trkpt lat="63.797260284" lon="-18.947399139">
<ele>568.109375</ele>
<time>2012-07-25T17:23:20Z</time>
<speed>2.780000</speed>
<extensions>
<speed>2.8</speed>
<temp>0.00</temp>
<bpm>0</bpm>
<rpm>0.00</rpm>
</extensions>
</trkpt>
<trkpt lat="63.797309875" lon="-18.947620392">
<ele>567.671875</ele>
<time>2012-07-25T17:23:25Z</time>
<speed>2.810000</speed>
<extensions>
<speed>2.8</speed>
<temp>0.00</temp>
<bpm>0</bpm>
<rpm>0.00</rpm>
</extensions>
</trkpt>
<trkpt lat="63.797351837" lon="-18.947843552">
<ele>567.968750</ele>
<time>2012-07-25T17:23:30Z</time>
<speed>2.470000</speed>
<extensions>
<speed>2.5</speed>
<temp>0.00</temp>
<bpm>0</bpm>
<rpm>0.00</rpm>
</extensions>
</trkpt>
<trkpt lat="63.797420502" lon="-18.948087692">
<ele>569.906250</ele>
<time>2012-07-25T17:23:35Z</time>
<speed>2.690000</speed>
<extensions>
<speed>2.7</speed>
<temp>0.00</temp>
<bpm>0</bpm>
<rpm>0.00</rpm>
</extensions>
</trkpt>
<trkpt lat="63.797466278" lon="-18.948320389">
<ele>570.453125</ele>
<time>2012-07-25T17:23:40Z</time>
<speed>2.650000</speed>
<extensions>
<speed>2.6</speed>
<temp>0.00</temp>
<bpm>0</bpm>
<rpm>0.00</rpm>
</extensions>
</trkpt>
<trkpt lat="63.797515869" lon="-18.948549271">
<ele>570.812500</ele>
<time>2012-07-25T17:23:45Z</time>
<speed>2.680000</speed>
<extensions>
<speed>2.7</speed>
<temp>0.00</temp>
<bpm>0</bpm>
<rpm>0.00</rpm>
</extensions>
</trkpt>
<trkpt lat="63.797569275" lon="-18.948791504">
<ele>571.312500</ele>
<time>2012-07-25T17:23:50Z</time>
<speed>2.770000</speed>
<extensions>
<speed>2.8</speed>
<temp>0.00</temp>
<bpm>0</bpm>
<rpm>0.00</rpm>
</extensions>
</trkpt>
<trkpt lat="63.797615051" lon="-18.949022293">
<ele>571.921875</ele>
<time>2012-07-25T17:23:55Z</time>
<speed>2.580000</speed>
<extensions>
<speed>2.6</speed>
<temp>0.00</temp>
<bpm>0</bpm>
<rpm>0.00</rpm>
</extensions>
</trkpt>
<trkpt lat="63.797664642" lon="-18.949241638">
<ele>571.906250</ele>
<time>2012-07-25T17:24:00Z</time>
<speed>2.530000</speed>
<extensions>
<speed>2.5</speed>
<temp>0.00</temp>
<bpm>0</bpm>
<rpm>0.00</rpm>
</extensions>
</trkpt>
<trkpt lat="63.797714233" lon="-18.949460983">
<ele>572.171875</ele>
<time>2012-07-25T17:24:05Z</time>
<speed>2.660000</speed>
<extensions>
<speed>2.7</speed>
<temp>0.00</temp>
<bpm>0</bpm>
<rpm>0.00</rpm>
</extensions>
</trkpt>
<trkpt lat="63.797775269" lon="-18.949733734">
<ele>574.031250</ele>
<time>2012-07-25T17:24:10Z</time>
<speed>3.110000</speed>
<extensions>
<speed>3.1</speed>
<temp>0.00</temp>
<bpm>0</bpm>
<rpm>0.00</rpm>
</extensions>
</trkpt>
<trkpt lat="63.797821045" lon="-18.949975967">
<ele>574.531250</ele>
<time>2012-07-25T17:24:15Z</time>
<speed>2.590000</speed>
<extensions>
<speed>2.6</speed>
<temp>0.00</temp>
<bpm>0</bpm>
<rpm>0.00</rpm>
</extensions>
</trkpt>
<trkpt lat="63.797885895" lon="-18.950223923">
<ele>574.859375</ele>
<time>2012-07-25T17:24:20Z</time>
<speed>2.900000</speed>
<extensions>
<speed>2.9</speed>
<temp>0.00</temp>
<bpm>0</bpm>
<rpm>0.00</rpm>
</extensions>
</trkpt>
<trkpt lat="63.797954559" lon="-18.950477600">
<ele>574.875000</ele>
<time>2012-07-25T17:24:25Z</time>
<speed>2.910000</speed>
<extensions>
<speed>2.9</speed>
<temp>0.00</temp>
<bpm>0</bpm>
<rpm>0.00</rpm>
</extensions>
</trkpt>
<trkpt lat="63.798011780" lon="-18.950731277">
<ele>575.093750</ele>
<time>2012-07-25T17:24:30Z</time>
<speed>2.890000</speed>
<extensions>
<speed>2.9</speed>
<temp>0.00</temp>
<bpm>0</bpm>
<rpm>0.00</rpm>
</extensions>
</trkpt>
<trkpt lat="63.798069000" lon="-18.951000214">
<ele>575.046875</ele>
<time>2012-07-25T17:24:35Z</time>
<speed>3.050000</speed>
<extensions>
<speed>3.0</speed>
<temp>0.00</temp>
<bpm>0</bpm>
<rpm>0.00</rpm>
</extensions>
</trkpt>
<trkpt lat="63.798149109" lon="-18.951263428">
<ele>574.921875</ele>
<time>2012-07-25T17:24:40Z</time>
<speed>3.490000</speed>
<extensions>
<speed>3.5</speed>
<temp>0.00</temp>
<bpm>0</bpm>
<rpm>0.00</rpm>
</extensions>
</trkpt>
<trkpt lat="63.798240662" lon="-18.951560974">
<ele>574.734375</ele>
<time>2012-07-25T17:24:45Z</time>
<speed>3.550000</speed>
<extensions>
<speed>3.5</speed>
<temp>0.00</temp>
<bpm>0</bpm>
<rpm>0.00</rpm>
</extensions>
</trkpt>
<trkpt lat="63.798320770" lon="-18.951856613">
<ele>574.890625</ele>
<time>2012-07-25T17:24:50Z</time>
<speed>3.470000</speed>
<extensions>
<speed>3.5</speed>
<temp>0.00</temp>
<bpm>0</bpm>
<rpm>0.00</rpm>
</extensions>
</trkpt>
<trkpt lat="63.798397064" lon="-18.952180862">
<ele>575.171875</ele>
<time>2012-07-25T17:24:55Z</time>
<speed>3.210000</speed>
<extensions>
<speed>3.2</speed>
<temp>0.00</temp>
<bpm>0</bpm>
<rpm>0.00</rpm>
</extensions>
</trkpt>
<trkpt lat="63.798465729" lon="-18.952453613">
<ele>574.781250</ele>
<time>2012-07-25T17:25:00Z</time>
<speed>2.930000</speed>
<extensions>
<speed>2.9</speed>
<temp>0.00</temp>
<bpm>0</bpm>
<rpm>0.00</rpm>
</extensions>
</trkpt>
<trkpt lat="63.798519135" lon="-18.952592850">
<ele>574.421875</ele>
<time>2012-07-25T17:25:05Z</time>
<speed>0.880000</speed>
<extensions>
<speed>0.9</speed>
<temp>0.00</temp>
<bpm>0</bpm>
<rpm>0.00</rpm>
</extensions>
</trkpt>
<trkpt lat="63.798530579" lon="-18.952569962">
<ele>574.078125</ele>
<time>2012-07-25T17:25:10Z</time>
<speed>0.060000</speed>
<extensions>
<speed>0.1</speed>
<temp>0.00</temp>
<bpm>0</bpm>
<rpm>0.00</rpm>
</extensions>
</trkpt>
<trkpt lat="63.798530579" lon="-18.952569962">
<ele>574.125000</ele>
<time>2012-07-25T17:25:15Z</time>
<speed>0.020000</speed>
<extensions>
<speed>0.0</speed>
<temp>0.00</temp>
<bpm>0</bpm>
<rpm>0.00</rpm>
</extensions>
</trkpt>
<trkpt lat="63.798530579" lon="-18.952564240">
<ele>574.281250</ele>
<time>2012-07-25T17:25:20Z</time>
<speed>0.100000</speed>
<extensions>
<speed>0.1</speed>
<temp>0.00</temp>
<bpm>0</bpm>
<rpm>0.00</rpm>
</extensions>
</trkpt>
<trkpt lat="63.798534393" lon="-18.952564240">
<ele>574.812500</ele>
<time>2012-07-25T17:25:25Z</time>
<speed>0.280000</speed>
<extensions>
<speed>0.3</speed>
<temp>0.00</temp>
<bpm>0</bpm>
<rpm>0.00</rpm>
</extensions>
</trkpt>
<trkpt lat="63.798553467" lon="-18.952524185">
<ele>574.031250</ele>
<time>2012-07-25T17:25:30Z</time>
<speed>1.140000</speed>
<extensions>
<speed>1.1</speed>
<temp>0.00</temp>
<bpm>0</bpm>
<rpm>0.00</rpm>
</extensions>
</trkpt>
<trkpt lat="63.798580170" lon="-18.952478409">
<ele>573.828125</ele>
<time>2012-07-25T17:25:35Z</time>
<speed>0.340000</speed>
<extensions>
<speed>0.3</speed>
<temp>0.00</temp>
<bpm>0</bpm>
<rpm>0.00</rpm>
</extensions>
</trkpt>
<trkpt lat="63.798580170" lon="-18.952474594">
<ele>572.968750</ele>
<time>2012-07-25T17:25:40Z</time>
<speed>0.030000</speed>
<extensions>
<speed>0.0</speed>
<temp>0.00</temp>
<bpm>0</bpm>
<rpm>0.00</rpm>
</extensions>
</trkpt>
<trkpt lat="63.798580170" lon="-18.952474594">
<ele>573.000000</ele>
<time>2012-07-25T17:25:45Z</time>
<speed>0.250000</speed>
<extensions>
<speed>0.2</speed>
<temp>0.00</temp>
<bpm>0</bpm>
<rpm>0.00</rpm>
</extensions>
</trkpt>
<trkpt lat="63.798580170" lon="-18.952478409">
<ele>572.937500</ele>
<time>2012-07-25T17:25:50Z</time>
<speed>0.010000</speed>
<extensions>
<speed>0.0</speed>
<temp>0.00</temp>
<bpm>0</bpm>
<rpm>0.00</rpm>
</extensions>
</trkpt>
<trkpt lat="63.798580170" lon="-18.952478409">
<ele>572.937500</ele>
<time>2012-07-25T17:25:55Z</time>
<speed>0.040000</speed>
<extensions>
<speed>0.0</speed>
<temp>0.00</temp>
<bpm>0</bpm>
<rpm>0.00</rpm>
</extensions>
</trkpt>
<trkpt lat="63.798580170" lon="-18.952478409">
<ele>572.921875</ele>
<time>2012-07-25T17:26:00Z</time>
<speed>0.060000</speed>
<extensions>
<speed>0.1</speed>
<temp>0.00</temp>
<bpm>0</bpm>
<rpm>0.00</rpm>
</extensions>
</trkpt>
<trkpt lat="63.798580170" lon="-18.952478409">
<ele>572.921875</ele>
<time>2012-07-25T17:26:05Z</time>
<speed>0.020000</speed>
<extensions>
<speed>0.0</speed>
<temp>0.00</temp>
<bpm>0</bpm>
<rpm>0.00</rpm>
</extensions>
</trkpt>
<trkpt lat="63.798580170" lon="-18.952478409">
<ele>572.906250</ele>
<time>2012-07-25T17:26:10Z</time>
<extensions>
<speed>0.0</speed>
<temp>0.00</temp>
<bpm>0</bpm>
<rpm>0.00</rpm>
</extensions>
</trkpt>
<trkpt lat="63.798580170" lon="-18.952476501">
<ele>572.906250</ele>
<time>2012-07-25T17:26:15Z</time>
<extensions>
<speed>0.0</speed>
<temp>0.00</temp>
<bpm>0</bpm>
<rpm>0.00</rpm>
</extensions>
</trkpt>
<trkpt lat="63.798580170" lon="-18.952476501">
<ele>572.890625</ele>
<time>2012-07-25T17:26:20Z</time>
<extensions>
<speed>0.0</speed>
<temp>0.00</temp>
<bpm>0</bpm>
<rpm>0.00</rpm>
</extensions>
</trkpt>
<trkpt lat="63.798580170" lon="-18.952474594">
<ele>572.859375</ele>
<time>2012-07-25T17:26:25Z</time>
<speed>0.010000</speed>
<extensions>
<speed>0.0</speed>
<temp>0.00</temp>
<bpm>0</bpm>
<rpm>0.00</rpm>
</extensions>
</trkpt>
<trkpt lat="63.798580170" lon="-18.952474594">
<ele>572.812500</ele>
<time>2012-07-25T17:26:30Z</time>
<speed>0.010000</speed>
<extensions>
<speed>0.0</speed>
<temp>0.00</temp>
<bpm>0</bpm>
<rpm>0.00</rpm>
</extensions>
</trkpt>
<trkpt lat="63.798580170" lon="-18.952474594">
<ele>572.812500</ele>
<time>2012-07-25T17:26:35Z</time>
<speed>0.020000</speed>
<extensions>
<speed>0.0</speed>
<temp>0.00</temp>
<bpm>0</bpm>
<rpm>0.00</rpm>
</extensions>
</trkpt>
<trkpt lat="63.798580170" lon="-18.952474594">
<ele>572.828125</ele>
<time>2012-07-25T17:26:40Z</time>
<speed>0.060000</speed>
<extensions>
<speed>0.1</speed>
<temp>0.00</temp>
<bpm>0</bpm>
<rpm>0.00</rpm>
</extensions>
</trkpt>
<trkpt lat="63.798580170" lon="-18.952474594">
<ele>572.812500</ele>
<time>2012-07-25T17:26:45Z</time>
<speed>0.170000</speed>
<extensions>
<speed>0.2</speed>
<temp>0.00</temp>
<bpm>0</bpm>
<rpm>0.00</rpm>
</extensions>
</trkpt>
<trkpt lat="63.798580170" lon="-18.952472687">
<ele>572.171875</ele>
<time>2012-07-25T17:26:50Z</time>
<speed>0.080000</speed>
<extensions>
<speed>0.1</speed>
<temp>0.00</temp>
<bpm>0</bpm>
<rpm>0.00</rpm>
</extensions>
</trkpt>
<trkpt lat="63.798576355" lon="-18.952468872">
<ele>571.734375</ele>
<time>2012-07-25T17:26:55Z</time>
<speed>0.080000</speed>
<extensions>
<speed>0.1</speed>
<temp>0.00</temp>
<bpm>0</bpm>
<rpm>0.00</rpm>
</extensions>
</trkpt>
<trkpt lat="63.798576355" lon="-18.952470779">
<ele>571.718750</ele>
<time>2012-07-25T17:27:00Z</time>
<speed>0.690000</speed>
<extensions>
<speed>0.7</speed>
<temp>0.00</temp>
<bpm>0</bpm>
<rpm>0.00</rpm>
</extensions>
</trkpt>
<trkpt lat="63.798610687" lon="-18.952405930">
<ele>572.062500</ele>
<time>2012-07-25T17:27:05Z</time>
<speed>0.610000</speed>
<extensions>
<speed>0.6</speed>
<temp>0.00</temp>
<bpm>0</bpm>
<rpm>0.00</rpm>
</extensions>
</trkpt>
<trkpt lat="63.798618317" lon="-18.952413559">
<ele>571.468750</ele>
<time>2012-07-25T17:27:10Z</time>
<speed>0.200000</speed>
<extensions>
<speed>0.2</speed>
<temp>0.00</temp>
<bpm>0</bpm>
<rpm>0.00</rpm>
</extensions>
</trkpt>
<trkpt lat="63.798618317" lon="-18.952421188">
<ele>571.656250</ele>
<time>2012-07-25T17:27:15Z</time>
<speed>0.240000</speed>
<extensions>
<speed>0.2</speed>
<temp>0.00</temp>
<bpm>0</bpm>
<rpm>0.00</rpm>
</extensions>
</trkpt>
<trkpt lat="63.798625946" lon="-18.952447891">
<ele>571.218750</ele>
<time>2012-07-25T17:27:20Z</time>
<speed>0.360000</speed>
<extensions>
<speed>0.4</speed>
<temp>0.00</temp>
<bpm>0</bpm>
<rpm>0.00</rpm>
</extensions>
</trkpt>
<trkpt lat="63.798629761" lon="-18.952482224">
<ele>570.781250</ele>
<time>2012-07-25T17:27:25Z</time>
<speed>0.060000</speed>
<extensions>
<speed>0.1</speed>
<temp>0.00</temp>
<bpm>0</bpm>
<rpm>0.00</rpm>
</extensions>
</trkpt>
<trkpt lat="63.798637390" lon="-18.952482224">
<ele>569.921875</ele>
<time>2012-07-25T17:27:30Z</time>
<speed>0.010000</speed>
<extensions>
<speed>0.0</speed>
<temp>0.00</temp>
<bpm>0</bpm>
<rpm>0.00</rpm>
</extensions>
</trkpt>
<trkpt lat="63.798633575" lon="-18.952478409">
<ele>569.828125</ele>
<time>2012-07-25T17:27:35Z</time>
<speed>0.200000</speed>
<extensions>
<speed>0.2</speed>
<temp>0.00</temp>
<bpm>0</bpm>
<rpm>0.00</rpm>
</extensions>
</trkpt>
<trkpt lat="63.798622131" lon="-18.952514648">
<ele>569.031250</ele>
<time>2012-07-25T17:27:40Z</time>
<speed>0.160000</speed>
<extensions>
<speed>0.2</speed>
<temp>0.00</temp>
<bpm>0</bpm>
<rpm>0.00</rpm>
</extensions>
</trkpt>
<trkpt lat="63.798606873" lon="-18.952554703">
<ele>568.328125</ele>
<time>2012-07-25T17:27:45Z</time>
<speed>0.690000</speed>
<extensions>
<speed>0.7</speed>
<temp>0.00</temp>
<bpm>0</bpm>
<rpm>0.00</rpm>
</extensions>
</trkpt>
<trkpt lat="63.798599243" lon="-18.952577591">
<ele>567.546875</ele>
<time>2012-07-25T17:27:50Z</time>
<speed>0.010000</speed>
<extensions>
<speed>0.0</speed>
<temp>0.00</temp>
<bpm>0</bpm>
<rpm>0.00</rpm>
</extensions>
</trkpt>
<trkpt lat="63.798603058" lon="-18.952636719">
<ele>567.250000</ele>
<time>2012-07-25T17:27:55Z</time>
<speed>0.920000</speed>
<extensions>
<speed>0.9</speed>
<temp>0.00</temp>
<bpm>0</bpm>
<rpm>0.00</rpm>
</extensions>
</trkpt>
<trkpt lat="63.798599243" lon="-18.952690125">
<ele>566.953125</ele>
<time>2012-07-25T17:28:00Z</time>
<speed>0.140000</speed>
<extensions>
<speed>0.1</speed>
<temp>0.00</temp>
<bpm>0</bpm>
<rpm>0.00</rpm>
</extensions>
</trkpt>
<trkpt lat="63.798595428" lon="-18.952705383">
<ele>566.890625</ele>
<time>2012-07-25T17:28:05Z</time>
<speed>0.350000</speed>
<extensions>
<speed>0.3</speed>
<temp>0.00</temp>
<bpm>0</bpm>
<rpm>0.00</rpm>
</extensions>
</trkpt>
<trkpt lat="63.798603058" lon="-18.952774048">
<ele>567.906250</ele>
<time>2012-07-25T17:28:10Z</time>
<speed>0.500000</speed>
<extensions>
<speed>0.5</speed>
<temp>0.00</temp>
<bpm>0</bpm>
<rpm>0.00</rpm>
</extensions>
</trkpt>
<trkpt lat="63.798633575" lon="-18.952798843">
<ele>568.546875</ele>
<time>2012-07-25T17:28:15Z</time>
<speed>0.810000</speed>
<extensions>
<speed>0.8</speed>
<temp>0.00</temp>
<bpm>0</bpm>
<rpm>0.00</rpm>
</extensions>
</trkpt>
<trkpt lat="63.798648834" lon="-18.952861786">
<ele>568.968750</ele>
<time>2012-07-25T17:28:20Z</time>
<speed>0.690000</speed>
<extensions>
<speed>0.7</speed>
<temp>0.00</temp>
<bpm>0</bpm>
<rpm>0.00</rpm>
</extensions>
</trkpt>
<trkpt lat="63.798648834" lon="-18.952880859">
<ele>569.250000</ele>
<time>2012-07-25T17:28:25Z</time>
<speed>0.860000</speed>
<extensions>
<speed>0.9</speed>
<temp>0.00</temp>
<bpm>0</bpm>
<rpm>0.00</rpm>
</extensions>
</trkpt>
<trkpt lat="63.798648834" lon="-18.952943802">
<ele>569.062500</ele>
<time>2012-07-25T17:28:30Z</time>
<speed>1.070000</speed>
<extensions>
<speed>1.1</speed>
<temp>0.00</temp>
<bpm>0</bpm>
<rpm>0.00</rpm>
</extensions>
</trkpt>
<trkpt lat="63.798648834" lon="-18.953052521">
<ele>569.031250</ele>
<time>2012-07-25T17:28:35Z</time>
<speed>0.990000</speed>
<extensions>
<speed>1.0</speed>
<temp>0.00</temp>
<bpm>0</bpm>
<rpm>0.00</rpm>
</extensions>
</trkpt>
<trkpt lat="63.798641205" lon="-18.953170776">
<ele>568.921875</ele>
<time>2012-07-25T17:28:40Z</time>
<speed>1.320000</speed>
<extensions>
<speed>1.3</speed>
<temp>0.00</temp>
<bpm>0</bpm>
<rpm>0.00</rpm>
</extensions>
</trkpt>
<trkpt lat="63.798633575" lon="-18.953296661">
<ele>569.218750</ele>
<time>2012-07-25T17:28:45Z</time>
<speed>1.370000</speed>
<extensions>
<speed>1.4</speed>
<temp>0.00</temp>
<bpm>0</bpm>
<rpm>0.00</rpm>
</extensions>
</trkpt>
<trkpt lat="63.798614502" lon="-18.953420639">
<ele>569.156250</ele>
<time>2012-07-25T17:28:50Z</time>
<speed>1.540000</speed>
<extensions>
<speed>1.5</speed>
<temp>0.00</temp>
<bpm>0</bpm>
<rpm>0.00</rpm>
</extensions>
</trkpt>
<trkpt lat="63.798606873" lon="-18.953554153">
<ele>569.140625</ele>
<time>2012-07-25T17:28:55Z</time>
<speed>1.150000</speed>
<extensions>
<speed>1.1</speed>
<temp>0.00</temp>
<bpm>0</bpm>
<rpm>0.00</rpm>
</extensions>
</trkpt>
<trkpt lat="63.798606873" lon="-18.953680038">
<ele>569.421875</ele>
<time>2012-07-25T17:29:00Z</time>
<speed>1.340000</speed>
<extensions>
<speed>1.3</speed>
<temp>0.00</temp>
<bpm>0</bpm>
<rpm>0.00</rpm>
</extensions>
</trkpt>
<trkpt lat="63.798618317" lon="-18.953804016">
<ele>569.765625</ele>
<time>2012-07-25T17:29:05Z</time>
<speed>1.400000</speed>
<extensions>
<speed>1.4</speed>
<temp>0.00</temp>
<bpm>0</bpm>
<rpm>0.00</rpm>
</extensions>
</trkpt>
<trkpt lat="63.798637390" lon="-18.953908920">
<ele>568.156250</ele>
<time>2012-07-25T17:29:10Z</time>
<speed>1.170000</speed>
<extensions>
<speed>1.2</speed>
<temp>0.00</temp>
<bpm>0</bpm>
<rpm>0.00</rpm>
</extensions>
</trkpt>
<trkpt lat="63.798641205" lon="-18.954013824">
<ele>567.531250</ele>
<time>2012-07-25T17:29:15Z</time>
<speed>0.860000</speed>
<extensions>
<speed>0.9</speed>
<temp>0.00</temp>
<bpm>0</bpm>
<rpm>0.00</rpm>
</extensions>
</trkpt>
<trkpt lat="63.798656464" lon="-18.954090118">
<ele>566.750000</ele>
<time>2012-07-25T17:29:20Z</time>
<speed>0.910000</speed>
<extensions>
<speed>0.9</speed>
<temp>0.00</temp>
<bpm>0</bpm>
<rpm>0.00</rpm>
</extensions>
</trkpt>
<trkpt lat="63.798686981" lon="-18.954170227">
<ele>567.515625</ele>
<time>2012-07-25T17:29:25Z</time>
<speed>0.790000</speed>
<extensions>
<speed>0.8</speed>
<temp>0.00</temp>
<bpm>0</bpm>
<rpm>0.00</rpm>
</extensions>
</trkpt>
<trkpt lat="63.798702240" lon="-18.954231262">
<ele>567.890625</ele>
<time>2012-07-25T17:29:30Z</time>
<speed>0.140000</speed>
<extensions>
<speed>0.1</speed>
<temp>0.00</temp>
<bpm>0</bpm>
<rpm>0.00</rpm>
</extensions>
</trkpt>
<trkpt lat="63.798702240" lon="-18.954235077">
<ele>567.890625</ele>
<time>2012-07-25T17:29:35Z</time>
<speed>0.070000</speed>
<extensions>
<speed>0.1</speed>
<temp>0.00</temp>
<bpm>0</bpm>
<rpm>0.00</rpm>
</extensions>
</trkpt>
<trkpt lat="63.798706055" lon="-18.954256058">
<ele>568.234375</ele>
<time>2012-07-25T17:29:40Z</time>
<speed>0.910000</speed>
<extensions>
<speed>0.9</speed>
<temp>0.00</temp>
<bpm>0</bpm>
<rpm>0.00</rpm>
</extensions>
</trkpt>
<trkpt lat="63.798736572" lon="-18.954339981">
<ele>569.328125</ele>
<time>2012-07-25T17:29:45Z</time>
<speed>1.230000</speed>
<extensions>
<speed>1.2</speed>
<temp>0.00</temp>
<bpm>0</bpm>
<rpm>0.00</rpm>
</extensions>
</trkpt>
<trkpt lat="63.798763275" lon="-18.954399109">
<ele>569.218750</ele>
<time>2012-07-25T17:29:50Z</time>
<speed>0.840000</speed>
<extensions>
<speed>0.8</speed>
<temp>0.00</temp>
<bpm>0</bpm>
<rpm>0.00</rpm>
</extensions>
</trkpt>
<trkpt lat="63.798793793" lon="-18.954452515">
<ele>569.468750</ele>
<time>2012-07-25T17:29:55Z</time>
<speed>0.460000</speed>
<extensions>
<speed>0.5</speed>
<temp>0.00</temp>
<bpm>0</bpm>
<rpm>0.00</rpm>
</extensions>
</trkpt>
<trkpt lat="63.798789978" lon="-18.954473495">
<ele>568.734375</ele>
<time>2012-07-25T17:30:00Z</time>
<speed>0.120000</speed>
<extensions>
<speed>0.1</speed>
<temp>0.00</temp>
<bpm>0</bpm>
<rpm>0.00</rpm>
</extensions>
</trkpt>
<trkpt lat="63.798778534" lon="-18.954488754">
<ele>568.828125</ele>
<time>2012-07-25T17:30:05Z</time>
<speed>0.430000</speed>
<extensions>
<speed>0.4</speed>
<temp>0.00</temp>
<bpm>0</bpm>
<rpm>0.00</rpm>
</extensions>
</trkpt>
<trkpt lat="63.798763275" lon="-18.954528809">
<ele>567.359375</ele>
<time>2012-07-25T17:30:10Z</time>
<speed>0.700000</speed>
<extensions>
<speed>0.7</speed>
<temp>0.00</temp>
<bpm>0</bpm>
<rpm>0.00</rpm>
</extensions>
</trkpt>
<trkpt lat="63.798755646" lon="-18.954605103">
<ele>567.062500</ele>
<time>2012-07-25T17:30:15Z</time>
<speed>0.530000</speed>
<extensions>
<speed>0.5</speed>
<temp>0.00</temp>
<bpm>0</bpm>
<rpm>0.00</rpm>
</extensions>
</trkpt>
<trkpt lat="63.798759460" lon="-18.954620361">
<ele>566.750000</ele>
<time>2012-07-25T17:30:20Z</time>
<speed>0.190000</speed>
<extensions>
<speed>0.2</speed>
<temp>0.00</temp>
<bpm>0</bpm>
<rpm>0.00</rpm>
</extensions>
</trkpt>
<trkpt lat="63.798763275" lon="-18.954635620">
<ele>566.593750</ele>
<time>2012-07-25T17:30:25Z</time>
<speed>0.310000</speed>
<extensions>
<speed>0.3</speed>
<temp>0.00</temp>
<bpm>0</bpm>
<rpm>0.00</rpm>
</extensions>
</trkpt>
<trkpt lat="63.798763275" lon="-18.954650879">
<ele>566.593750</ele>
<time>2012-07-25T17:30:30Z</time>
<speed>0.150000</speed>
<extensions>
<speed>0.2</speed>
<temp>0.00</temp>
<bpm>0</bpm>
<rpm>0.00</rpm>
</extensions>
</trkpt>
<trkpt lat="63.798763275" lon="-18.954648972">
<ele>566.531250</ele>
<time>2012-07-25T17:30:35Z</time>
<speed>0.130000</speed>
<extensions>
<speed>0.1</speed>
<temp>0.00</temp>
<bpm>0</bpm>
<rpm>0.00</rpm>
</extensions>
</trkpt>
<trkpt lat="63.798763275" lon="-18.954647064">
<ele>566.500000</ele>
<time>2012-07-25T17:30:40Z</time>
<speed>0.110000</speed>
<extensions>
<speed>0.1</speed>
<temp>0.00</temp>
<bpm>0</bpm>
<rpm>0.00</rpm>
</extensions>
</trkpt>
<trkpt lat="63.798763275" lon="-18.954679489">
<ele>566.906250</ele>
<time>2012-07-25T17:30:45Z</time>
<speed>0.120000</speed>
<extensions>
<speed>0.1</speed>
<temp>0.00</temp>
<bpm>0</bpm>
<rpm>0.00</rpm>
</extensions>
</trkpt>
<trkpt lat="63.798767090" lon="-18.954681396">
<ele>566.859375</ele>
<time>2012-07-25T17:30:50Z</time>
<speed>0.400000</speed>
<extensions>
<speed>0.4</speed>
<temp>0.00</temp>
<bpm>0</bpm>
<rpm>0.00</rpm>
</extensions>
</trkpt>
<trkpt lat="63.798770905" lon="-18.954692841">
<ele>567.718750</ele>
<time>2012-07-25T17:30:55Z</time>
<speed>0.150000</speed>
<extensions>
<speed>0.2</speed>
<temp>0.00</temp>
<bpm>0</bpm>
<rpm>0.00</rpm>
</extensions>
</trkpt>
<trkpt lat="63.798774719" lon="-18.954717636">
<ele>567.953125</ele>
<time>2012-07-25T17:31:00Z</time>
<speed>0.320000</speed>
<extensions>
<speed>0.3</speed>
<temp>0.00</temp>
<bpm>0</bpm>
<rpm>0.00</rpm>
</extensions>
</trkpt>
<trkpt lat="63.798782349" lon="-18.954738617">
<ele>568.062500</ele>
<time>2012-07-25T17:31:05Z</time>
<speed>0.040000</speed>
<extensions>
<speed>0.0</speed>
<temp>0.00</temp>
<bpm>0</bpm>
<rpm>0.00</rpm>
</extensions>
</trkpt>
<trkpt lat="63.798805237" lon="-18.954744339">
<ele>568.953125</ele>
<time>2012-07-25T17:31:10Z</time>
<speed>0.550000</speed>
<extensions>
<speed>0.6</speed>
<temp>0.00</temp>
<bpm>0</bpm>
<rpm>0.00</rpm>
</extensions>
</trkpt>
<trkpt lat="63.798801422" lon="-18.954727173">
<ele>569.312500</ele>
<time>2012-07-25T17:31:15Z</time>
<speed>0.070000</speed>
<extensions>
<speed>0.1</speed>
<temp>0.00</temp>
<bpm>0</bpm>
<rpm>0.00</rpm>
</extensions>
</trkpt>
<trkpt lat="63.798805237" lon="-18.954740524">
<ele>569.156250</ele>
<time>2012-07-25T17:31:20Z</time>
<speed>0.390000</speed>
<extensions>
<speed>0.4</speed>
<temp>0.00</temp>
<bpm>0</bpm>
<rpm>0.00</rpm>
</extensions>
</trkpt>
<trkpt lat="63.798816681" lon="-18.954786301">
<ele>569.515625</ele>
<time>2012-07-25T17:31:25Z</time>
<speed>0.450000</speed>
<extensions>
<speed>0.5</speed>
<temp>0.00</temp>
<bpm>0</bpm>
<rpm>0.00</rpm>
</extensions>
</trkpt>
<trkpt lat="63.798847198" lon="-18.954839706">
<ele>569.437500</ele>
<time>2012-07-25T17:31:30Z</time>
<speed>0.910000</speed>
<extensions>
<speed>0.9</speed>
<temp>0.00</temp>
<bpm>0</bpm>
<rpm>0.00</rpm>
</extensions>
</trkpt>
<trkpt lat="63.798870087" lon="-18.954870224">
<ele>568.484375</ele>
<time>2012-07-25T17:31:35Z</time>
<speed>0.160000</speed>
<extensions>
<speed>0.2</speed>
<temp>0.00</temp>
<bpm>0</bpm>
<rpm>0.00</rpm>
</extensions>
</trkpt>
<trkpt lat="63.798866272" lon="-18.954879761">
<ele>568.593750</ele>
<time>2012-07-25T17:31:40Z</time>
<speed>0.120000</speed>
<extensions>
<speed>0.1</speed>
<temp>0.00</temp>
<bpm>0</bpm>
<rpm>0.00</rpm>
</extensions>
</trkpt>
<trkpt lat="63.798881531" lon="-18.954847336">
<ele>568.640625</ele>
<time>2012-07-25T17:31:45Z</time>
<speed>1.130000</speed>
<extensions>
<speed>1.1</speed>
<temp>0.00</temp>
<bpm>0</bpm>
<rpm>0.00</rpm>
</extensions>
</trkpt>
<trkpt lat="63.798919678" lon="-18.954761505">
<ele>568.953125</ele>
<time>2012-07-25T17:31:50Z</time>
<speed>0.990000</speed>
<extensions>
<speed>1.0</speed>
<temp>0.00</temp>
<bpm>0</bpm>
<rpm>0.00</rpm>
</extensions>
</trkpt>
<trkpt lat="63.798946381" lon="-18.954704285">
<ele>568.078125</ele>
<time>2012-07-25T17:31:55Z</time>
<speed>1.100000</speed>
<extensions>
<speed>1.1</speed>
<temp>0.00</temp>
<bpm>0</bpm>
<rpm>0.00</rpm>
</extensions>
</trkpt>
<trkpt lat="63.798995972" lon="-18.954736710">
<ele>567.968750</ele>
<time>2012-07-25T17:32:00Z</time>
<speed>0.950000</speed>
<extensions>
<speed>1.0</speed>
<temp>0.00</temp>
<bpm>0</bpm>
<rpm>0.00</rpm>
</extensions>
</trkpt>
<trkpt lat="63.799015045" lon="-18.954761505">
<ele>568.156250</ele>
<time>2012-07-25T17:32:05Z</time>
<speed>0.140000</speed>
<extensions>
<speed>0.1</speed>
<temp>0.00</temp>
<bpm>0</bpm>
<rpm>0.00</rpm>
</extensions>
</trkpt>
<trkpt lat="63.799022675" lon="-18.954761505">
<ele>568.203125</ele>
<time>2012-07-25T17:32:10Z</time>
<speed>0.240000</speed>
<extensions>
<speed>0.2</speed>
<temp>0.00</temp>
<bpm>0</bpm>
<rpm>0.00</rpm>
</extensions>
</trkpt>
<trkpt lat="63.799026489" lon="-18.954748154">
<ele>568.250000</ele>
<time>2012-07-25T17:32:15Z</time>
<speed>0.270000</speed>
<extensions>
<speed>0.3</speed>
<temp>0.00</temp>
<bpm>0</bpm>
<rpm>0.00</rpm>
</extensions>
</trkpt>
<trkpt lat="63.799026489" lon="-18.954730988">
<ele>568.312500</ele>
<time>2012-07-25T17:32:20Z</time>
<speed>0.100000</speed>
<extensions>
<speed>0.1</speed>
<temp>0.00</temp>
<bpm>0</bpm>
<rpm>0.00</rpm>
</extensions>
</trkpt>
<trkpt lat="63.799022675" lon="-18.954719543">
<ele>568.328125</ele>
<time>2012-07-25T17:32:25Z</time>
<speed>0.140000</speed>
<extensions>
<speed>0.1</speed>
<temp>0.00</temp>
<bpm>0</bpm>
<rpm>0.00</rpm>
</extensions>
</trkpt>
<trkpt lat="63.799022675" lon="-18.954706192">
<ele>568.343750</ele>
<time>2012-07-25T17:32:30Z</time>
<speed>0.020000</speed>
<extensions>
<speed>0.0</speed>
<temp>0.00</temp>
<bpm>0</bpm>
<rpm>0.00</rpm>
</extensions>
</trkpt>
<trkpt lat="63.799022675" lon="-18.954700470">
<ele>568.359375</ele>
<time>2012-07-25T17:32:35Z</time>
<speed>0.050000</speed>
<extensions>
<speed>0.1</speed>
<temp>0.00</temp>
<bpm>0</bpm>
<rpm>0.00</rpm>
</extensions>
</trkpt>
<trkpt lat="63.799022675" lon="-18.954706192">
<ele>568.687500</ele>
<time>2012-07-25T17:32:40Z</time>
<speed>0.160000</speed>
<extensions>
<speed>0.2</speed>
<temp>0.00</temp>
<bpm>0</bpm>
<rpm>0.00</rpm>
</extensions>
</trkpt>
<trkpt lat="63.799026489" lon="-18.954698563">
<ele>569.250000</ele>
<time>2012-07-25T17:32:45Z</time>
<speed>0.070000</speed>
<extensions>
<speed>0.1</speed>
<temp>0.00</temp>
<bpm>0</bpm>
<rpm>0.00</rpm>
</extensions>
</trkpt>
<trkpt lat="63.799030304" lon="-18.954702377">
<ele>569.546875</ele>
<time>2012-07-25T17:32:50Z</time>
<speed>0.180000</speed>
<extensions>
<speed>0.2</speed>
<temp>0.00</temp>
<bpm>0</bpm>
<rpm>0.00</rpm>
</extensions>
</trkpt>
<trkpt lat="63.799037933" lon="-18.954700470">
<ele>569.687500</ele>
<time>2012-07-25T17:32:55Z</time>
<speed>0.190000</speed>
<extensions>
<speed>0.2</speed>
<temp>0.00</temp>
<bpm>0</bpm>
<rpm>0.00</rpm>
</extensions>
</trkpt>
<trkpt lat="63.799026489" lon="-18.954717636">
<ele>569.796875</ele>
<time>2012-07-25T17:33:00Z</time>
<speed>0.010000</speed>
<extensions>
<speed>0.0</speed>
<temp>0.00</temp>
<bpm>0</bpm>
<rpm>0.00</rpm>
</extensions>
</trkpt>
<trkpt lat="63.799026489" lon="-18.954719543">
<ele>569.812500</ele>
<time>2012-07-25T17:33:05Z</time>
<speed>0.040000</speed>
<extensions>
<speed>0.0</speed>
<temp>0.00</temp>
<bpm>0</bpm>
<rpm>0.00</rpm>
</extensions>
</trkpt>
<trkpt lat="63.799026489" lon="-18.954719543">
<ele>569.796875</ele>
<time>2012-07-25T17:33:10Z</time>
<extensions>
<speed>0.0</speed>
<temp>0.00</temp>
<bpm>0</bpm>
<rpm>0.00</rpm>
</extensions>
</trkpt>
<trkpt lat="63.799026489" lon="-18.954719543">
<ele>569.781250</ele>
<time>2012-07-25T17:33:15Z</time>
<speed>0.030000</speed>
<extensions>
<speed>0.0</speed>
<temp>0.00</temp>
<bpm>0</bpm>
<rpm>0.00</rpm>
</extensions>
</trkpt>
<trkpt lat="63.799026489" lon="-18.954719543">
<ele>569.796875</ele>
<time>2012-07-25T17:33:20Z</time>
<speed>0.010000</speed>
<extensions>
<speed>0.0</speed>
<temp>0.00</temp>
<bpm>0</bpm>
<rpm>0.00</rpm>
</extensions>
</trkpt>
<trkpt lat="63.799026489" lon="-18.954719543">
<ele>569.796875</ele>
<time>2012-07-25T17:33:25Z</time>
<speed>0.040000</speed>
<extensions>
<speed>0.0</speed>
<temp>0.00</temp>
<bpm>0</bpm>
<rpm>0.00</rpm>
</extensions>
</trkpt>
<trkpt lat="63.799026489" lon="-18.954719543">
<ele>569.796875</ele>
<time>2012-07-25T17:33:30Z</time>
<extensions>
<speed>0.0</speed>
<temp>0.00</temp>
<bpm>0</bpm>
<rpm>0.00</rpm>
</extensions>
</trkpt>
<trkpt lat="63.799026489" lon="-18.954717636">
<ele>569.796875</ele>
<time>2012-07-25T17:33:35Z</time>
<extensions>
<speed>0.0</speed>
<temp>0.00</temp>
<bpm>0</bpm>
<rpm>0.00</rpm>
</extensions>
</trkpt>
<trkpt lat="63.799026489" lon="-18.954717636">
<ele>569.796875</ele>
<time>2012-07-25T17:33:40Z</time>
<extensions>
<speed>0.0</speed>
<temp>0.00</temp>
<bpm>0</bpm>
<rpm>0.00</rpm>
</extensions>
</trkpt>
<trkpt lat="63.799026489" lon="-18.954719543">
<ele>569.812500</ele>
<time>2012-07-25T17:33:45Z</time>
<extensions>
<speed>0.0</speed>
<temp>0.00</temp>
<bpm>0</bpm>
<rpm>0.00</rpm>
</extensions>
</trkpt>
<trkpt lat="63.799026489" lon="-18.954719543">
<ele>569.828125</ele>
<time>2012-07-25T17:33:50Z</time>
<speed>0.030000</speed>
<extensions>
<speed>0.0</speed>
<temp>0.00</temp>
<bpm>0</bpm>
<rpm>0.00</rpm>
</extensions>
</trkpt>
<trkpt lat="63.799026489" lon="-18.954719543">
<ele>569.812500</ele>
<time>2012-07-25T17:33:55Z</time>
<speed>0.030000</speed>
<extensions>
<speed>0.0</speed>
<temp>0.00</temp>
<bpm>0</bpm>
<rpm>0.00</rpm>
</extensions>
</trkpt>
<trkpt lat="63.799030304" lon="-18.954721451">
<ele>569.828125</ele>
<time>2012-07-25T17:34:00Z</time>
<speed>0.490000</speed>
<extensions>
<speed>0.5</speed>
<temp>0.00</temp>
<bpm>0</bpm>
<rpm>0.00</rpm>
</extensions>
</trkpt>
<trkpt lat="63.799037933" lon="-18.954711914">
<ele>569.562500</ele>
<time>2012-07-25T17:34:05Z</time>
<speed>0.160000</speed>
<extensions>
<speed>0.2</speed>
<temp>0.00</temp>
<bpm>0</bpm>
<rpm>0.00</rpm>
</extensions>
</trkpt>
<trkpt lat="63.799049377" lon="-18.954711914">
<ele>569.125000</ele>
<time>2012-07-25T17:34:10Z</time>
<speed>0.530000</speed>
<extensions>
<speed>0.5</speed>
<temp>0.00</temp>
<bpm>0</bpm>
<rpm>0.00</rpm>
</extensions>
</trkpt>
<trkpt lat="63.799091339" lon="-18.954751968">
<ele>568.484375</ele>
<time>2012-07-25T17:34:15Z</time>
<speed>1.590000</speed>
<extensions>
<speed>1.6</speed>
<temp>0.00</temp>
<bpm>0</bpm>
<rpm>0.00</rpm>
</extensions>
</trkpt>
<trkpt lat="63.799167633" lon="-18.954837799">
<ele>567.578125</ele>
<time>2012-07-25T17:34:20Z</time>
<speed>1.550000</speed>
<extensions>
<speed>1.5</speed>
<temp>0.00</temp>
<bpm>0</bpm>
<rpm>0.00</rpm>
</extensions>
</trkpt>
<trkpt lat="63.799236298" lon="-18.954906464">
<ele>568.140625</ele>
<time>2012-07-25T17:34:25Z</time>
<speed>1.740000</speed>
<extensions>
<speed>1.7</speed>
<temp>0.00</temp>
<bpm>0</bpm>
<rpm>0.00</rpm>
</extensions>
</trkpt>
<trkpt lat="63.799297333" lon="-18.954963684">
<ele>568.859375</ele>
<time>2012-07-25T17:34:30Z</time>
<speed>1.850000</speed>
<extensions>
<speed>1.8</speed>
<temp>0.00</temp>
<bpm>0</bpm>
<rpm>0.00</rpm>
</extensions>
</trkpt>
<trkpt lat="63.799381256" lon="-18.955045700">
<ele>569.468750</ele>
<time>2012-07-25T17:34:35Z</time>
<speed>2.010000</speed>
<extensions>
<speed>2.0</speed>
<temp>0.00</temp>
<bpm>0</bpm>
<rpm>0.00</rpm>
</extensions>
</trkpt>
<trkpt lat="63.799488068" lon="-18.955129623">
<ele>569.953125</ele>
<time>2012-07-25T17:34:40Z</time>
<speed>2.050000</speed>
<extensions>
<speed>2.1</speed>
<temp>0.00</temp>
<bpm>0</bpm>
<rpm>0.00</rpm>
</extensions>
</trkpt>
<trkpt lat="63.799556732" lon="-18.955213547">
<ele>569.984375</ele>
<time>2012-07-25T17:34:45Z</time>
<speed>1.880000</speed>
<extensions>
<speed>1.9</speed>
<temp>0.00</temp>
<bpm>0</bpm>
<rpm>0.00</rpm>
</extensions>
</trkpt>
<trkpt lat="63.799644470" lon="-18.955331802">
<ele>570.718750</ele>
<time>2012-07-25T17:34:50Z</time>
<speed>2.030000</speed>
<extensions>
<speed>2.0</speed>
<temp>0.00</temp>
<bpm>0</bpm>
<rpm>0.00</rpm>
</extensions>
</trkpt>
<trkpt lat="63.799716949" lon="-18.955457687">
<ele>571.234375</ele>
<time>2012-07-25T17:34:55Z</time>
<speed>2.100000</speed>
<extensions>
<speed>2.1</speed>
<temp>0.00</temp>
<bpm>0</bpm>
<rpm>0.00</rpm>
</extensions>
</trkpt>
<trkpt lat="63.799804688" lon="-18.955553055">
<ele>571.546875</ele>
<time>2012-07-25T17:35:00Z</time>
<speed>2.120000</speed>
<extensions>
<speed>2.1</speed>
<temp>0.00</temp>
<bpm>0</bpm>
<rpm>0.00</rpm>
</extensions>
</trkpt>
<trkpt lat="63.799888611" lon="-18.955642700">
<ele>570.265625</ele>
<time>2012-07-25T17:35:05Z</time>
<speed>2.370000</speed>
<extensions>
<speed>2.4</speed>
<temp>0.00</temp>
<bpm>0</bpm>
<rpm>0.00</rpm>
</extensions>
</trkpt>
<trkpt lat="63.799991608" lon="-18.955692291">
<ele>569.562500</ele>
<time>2012-07-25T17:35:10Z</time>
<speed>2.360000</speed>
<extensions>
<speed>2.4</speed>
<temp>0.00</temp>
<bpm>0</bpm>
<rpm>0.00</rpm>
</extensions>
</trkpt>
<trkpt lat="63.800086975" lon="-18.955696106">
<ele>568.453125</ele>
<time>2012-07-25T17:35:15Z</time>
<speed>1.830000</speed>
<extensions>
<speed>1.8</speed>
<temp>0.00</temp>
<bpm>0</bpm>
<rpm>0.00</rpm>
</extensions>
</trkpt>
<trkpt lat="63.800182343" lon="-18.955709457">
<ele>568.812500</ele>
<time>2012-07-25T17:35:20Z</time>
<speed>2.050000</speed>
<extensions>
<speed>2.1</speed>
<temp>0.00</temp>
<bpm>0</bpm>
<rpm>0.00</rpm>
</extensions>
</trkpt>
<trkpt lat="63.800270081" lon="-18.955718994">
<ele>569.375000</ele>
<time>2012-07-25T17:35:25Z</time>
<speed>1.420000</speed>
<extensions>
<speed>1.4</speed>
<temp>0.00</temp>
<bpm>0</bpm>
<rpm>0.00</rpm>
</extensions>
</trkpt>
<trkpt lat="63.800327301" lon="-18.955732346">
<ele>569.953125</ele>
<time>2012-07-25T17:35:30Z</time>
<speed>0.980000</speed>
<extensions>
<speed>1.0</speed>
<temp>0.00</temp>
<bpm>0</bpm>
<rpm>0.00</rpm>
</extensions>
</trkpt>
<trkpt lat="63.800334930" lon="-18.955757141">
<ele>571.218750</ele>
<time>2012-07-25T17:35:35Z</time>
<speed>0.030000</speed>
<extensions>
<speed>0.0</speed>
<temp>0.00</temp>
<bpm>0</bpm>
<rpm>0.00</rpm>
</extensions>
</trkpt>
<trkpt lat="63.800331116" lon="-18.955757141">
<ele>571.234375</ele>
<time>2012-07-25T17:35:40Z</time>
<speed>0.030000</speed>
<extensions>
<speed>0.0</speed>
<temp>0.00</temp>
<bpm>0</bpm>
<rpm>0.00</rpm>
</extensions>
</trkpt>
<trkpt lat="63.800331116" lon="-18.955759048">
<ele>571.203125</ele>
<time>2012-07-25T17:35:45Z</time>
<extensions>
<speed>0.0</speed>
<temp>0.00</temp>
<bpm>0</bpm>
<rpm>0.00</rpm>
</extensions>
</trkpt>
<trkpt lat="63.800331116" lon="-18.955759048">
<ele>571.187500</ele>
<time>2012-07-25T17:35:50Z</time>
<extensions>
<speed>0.0</speed>
<temp>0.00</temp>
<bpm>0</bpm>
<rpm>0.00</rpm>
</extensions>
</trkpt>
<trkpt lat="63.800331116" lon="-18.955759048">
<ele>571.187500</ele>
<time>2012-07-25T17:35:55Z</time>
<speed>0.200000</speed>
<extensions>
<speed>0.2</speed>
<temp>0.00</temp>
<bpm>0</bpm>
<rpm>0.00</rpm>
</extensions>
</trkpt>
<trkpt lat="63.800376892" lon="-18.955883026">
<ele>569.515625</ele>
<time>2012-07-25T17:36:00Z</time>
<speed>2.610000</speed>
<extensions>
<speed>2.6</speed>
<temp>0.00</temp>
<bpm>0</bpm>
<rpm>0.00</rpm>
</extensions>
</trkpt>
<trkpt lat="63.800426483" lon="-18.956150055">
<ele>568.765625</ele>
<time>2012-07-25T17:36:05Z</time>
<speed>2.680000</speed>
<extensions>
<speed>2.7</speed>
<temp>0.00</temp>
<bpm>0</bpm>
<rpm>0.00</rpm>
</extensions>
</trkpt>
<trkpt lat="63.800460815" lon="-18.956487656">
<ele>569.203125</ele>
<time>2012-07-25T17:36:10Z</time>
<speed>2.960000</speed>
<extensions>
<speed>3.0</speed>
<temp>0.00</temp>
<bpm>0</bpm>
<rpm>0.00</rpm>
</extensions>
</trkpt>
<trkpt lat="63.800460815" lon="-18.956823349">
<ele>568.000000</ele>
<time>2012-07-25T17:36:15Z</time>
<speed>3.470000</speed>
<extensions>
<speed>3.5</speed>
<temp>0.00</temp>
<bpm>0</bpm>
<rpm>0.00</rpm>
</extensions>
</trkpt>
<trkpt lat="63.800460815" lon="-18.957181931">
<ele>567.937500</ele>
<time>2012-07-25T17:36:20Z</time>
<speed>3.350000</speed>
<extensions>
<speed>3.4</speed>
<temp>0.00</temp>
<bpm>0</bpm>
<rpm>0.00</rpm>
</extensions>
</trkpt>
<trkpt lat="63.800460815" lon="-18.957519531">
<ele>567.250000</ele>
<time>2012-07-25T17:36:25Z</time>
<speed>3.090000</speed>
<extensions>
<speed>3.1</speed>
<temp>0.00</temp>
<bpm>0</bpm>
<rpm>0.00</rpm>
</extensions>
</trkpt>
<trkpt lat="63.800472260" lon="-18.957834244">
<ele>566.828125</ele>
<time>2012-07-25T17:36:30Z</time>
<speed>3.130000</speed>
<extensions>
<speed>3.1</speed>
<temp>0.00</temp>
<bpm>0</bpm>
<rpm>0.00</rpm>
</extensions>
</trkpt>
<trkpt lat="63.800476074" lon="-18.958133698">
<ele>566.000000</ele>
<time>2012-07-25T17:36:35Z</time>
<speed>2.810000</speed>
<extensions>
<speed>2.8</speed>
<temp>0.00</temp>
<bpm>0</bpm>
<rpm>0.00</rpm>
</extensions>
</trkpt>
<trkpt lat="63.800491333" lon="-18.958404541">
<ele>565.796875</ele>
<time>2012-07-25T17:36:40Z</time>
<speed>2.610000</speed>
<extensions>
<speed>2.6</speed>
<temp>0.00</temp>
<bpm>0</bpm>
<rpm>0.00</rpm>
</extensions>
</trkpt>
<trkpt lat="63.800510406" lon="-18.958669662">
<ele>565.953125</ele>
<time>2012-07-25T17:36:45Z</time>
<speed>2.820000</speed>
<extensions>
<speed>2.8</speed>
<temp>0.00</temp>
<bpm>0</bpm>
<rpm>0.00</rpm>
</extensions>
</trkpt>
<trkpt lat="63.800552368" lon="-18.958944321">
<ele>567.421875</ele>
<time>2012-07-25T17:36:50Z</time>
<speed>2.720000</speed>
<extensions>
<speed>2.7</speed>
<temp>0.00</temp>
<bpm>0</bpm>
<rpm>0.00</rpm>
</extensions>
</trkpt>
<trkpt lat="63.800586700" lon="-18.959241867">
<ele>568.203125</ele>
<time>2012-07-25T17:36:55Z</time>
<speed>3.180000</speed>
<extensions>
<speed>3.2</speed>
<temp>0.00</temp>
<bpm>0</bpm>
<rpm>0.00</rpm>
</extensions>
</trkpt>
<trkpt lat="63.800636292" lon="-18.959548950">
<ele>569.406250</ele>
<time>2012-07-25T17:37:00Z</time>
<speed>3.050000</speed>
<extensions>
<speed>3.0</speed>
<temp>0.00</temp>
<bpm>0</bpm>
<rpm>0.00</rpm>
</extensions>
</trkpt>
<trkpt lat="63.800678253" lon="-18.959857941">
<ele>570.156250</ele>
<time>2012-07-25T17:37:05Z</time>
<speed>3.150000</speed>
<extensions>
<speed>3.2</speed>
<temp>0.00</temp>
<bpm>0</bpm>
<rpm>0.00</rpm>
</extensions>
</trkpt>
<trkpt lat="63.800720215" lon="-18.960153580">
<ele>571.187500</ele>
<time>2012-07-25T17:37:10Z</time>
<speed>3.080000</speed>
<extensions>
<speed>3.1</speed>
<temp>0.00</temp>
<bpm>0</bpm>
<rpm>0.00</rpm>
</extensions>
</trkpt>
<trkpt lat="63.800769806" lon="-18.960451126">
<ele>571.906250</ele>
<time>2012-07-25T17:37:15Z</time>
<speed>3.190000</speed>
<extensions>
<speed>3.2</speed>
<temp>0.00</temp>
<bpm>0</bpm>
<rpm>0.00</rpm>
</extensions>
</trkpt>
<trkpt lat="63.800823212" lon="-18.960746765">
<ele>572.328125</ele>
<time>2012-07-25T17:37:20Z</time>
<speed>3.340000</speed>
<extensions>
<speed>3.3</speed>
<temp>0.00</temp>
<bpm>0</bpm>
<rpm>0.00</rpm>
</extensions>
</trkpt>
<trkpt lat="63.800888062" lon="-18.961046219">
<ele>572.968750</ele>
<time>2012-07-25T17:37:25Z</time>
<speed>3.360000</speed>
<extensions>
<speed>3.4</speed>
<temp>0.00</temp>
<bpm>0</bpm>
<rpm>0.00</rpm>
</extensions>
</trkpt>
<trkpt lat="63.800945282" lon="-18.961324692">
<ele>573.593750</ele>
<time>2012-07-25T17:37:30Z</time>
<speed>3.110000</speed>
<extensions>
<speed>3.1</speed>
<temp>0.00</temp>
<bpm>0</bpm>
<rpm>0.00</rpm>
</extensions>
</trkpt>
<trkpt lat="63.801010132" lon="-18.961629868">
<ele>574.015625</ele>
<time>2012-07-25T17:37:35Z</time>
<speed>3.310000</speed>
<extensions>
<speed>3.3</speed>
<temp>0.00</temp>
<bpm>0</bpm>
<rpm>0.00</rpm>
</extensions>
</trkpt>
<trkpt lat="63.801063538" lon="-18.961940765">
<ele>574.390625</ele>
<time>2012-07-25T17:37:40Z</time>
<speed>3.310000</speed>
<extensions>
<speed>3.3</speed>
<temp>0.00</temp>
<bpm>0</bpm>
<rpm>0.00</rpm>
</extensions>
</trkpt>
<trkpt lat="63.801105499" lon="-18.962266922">
<ele>575.109375</ele>
<time>2012-07-25T17:37:45Z</time>
<speed>3.240000</speed>
<extensions>
<speed>3.2</speed>
<temp>0.00</temp>
<bpm>0</bpm>
<rpm>0.00</rpm>
</extensions>
</trkpt>
<trkpt lat="63.801139832" lon="-18.962610245">
<ele>575.390625</ele>
<time>2012-07-25T17:37:50Z</time>
<speed>3.430000</speed>
<extensions>
<speed>3.4</speed>
<temp>0.00</temp>
<bpm>0</bpm>
<rpm>0.00</rpm>
</extensions>
</trkpt>
<trkpt lat="63.801166534" lon="-18.962949753">
<ele>575.750000</ele>
<time>2012-07-25T17:37:55Z</time>
<speed>3.390000</speed>
<extensions>
<speed>3.4</speed>
<temp>0.00</temp>
<bpm>0</bpm>
<rpm>0.00</rpm>
</extensions>
</trkpt>
<trkpt lat="63.801189423" lon="-18.963289261">
<ele>576.250000</ele>
<time>2012-07-25T17:38:00Z</time>
<speed>3.440000</speed>
<extensions>
<speed>3.4</speed>
<temp>0.00</temp>
<bpm>0</bpm>
<rpm>0.00</rpm>
</extensions>
</trkpt>
<trkpt lat="63.801212311" lon="-18.963632584">
<ele>576.328125</ele>
<time>2012-07-25T17:38:05Z</time>
<speed>3.210000</speed>
<extensions>
<speed>3.2</speed>
<temp>0.00</temp>
<bpm>0</bpm>
<rpm>0.00</rpm>
</extensions>
</trkpt>
<trkpt lat="63.801223755" lon="-18.963968277">
<ele>576.265625</ele>
<time>2012-07-25T17:38:10Z</time>
<speed>3.220000</speed>
<extensions>
<speed>3.2</speed>
<temp>0.00</temp>
<bpm>0</bpm>
<rpm>0.00</rpm>
</extensions>
</trkpt>
<trkpt lat="63.801242828" lon="-18.964292526">
<ele>576.078125</ele>
<time>2012-07-25T17:38:15Z</time>
<speed>3.390000</speed>
<extensions>
<speed>3.4</speed>
<temp>0.00</temp>
<bpm>0</bpm>
<rpm>0.00</rpm>
</extensions>
</trkpt>
<trkpt lat="63.801273346" lon="-18.964630127">
<ele>575.812500</ele>
<time>2012-07-25T17:38:20Z</time>
<speed>3.400000</speed>
<extensions>
<speed>3.4</speed>
<temp>0.00</temp>
<bpm>0</bpm>
<rpm>0.00</rpm>
</extensions>
</trkpt>
<trkpt lat="63.801303864" lon="-18.964950562">
<ele>576.609375</ele>
<time>2012-07-25T17:38:25Z</time>
<speed>3.310000</speed>
<extensions>
<speed>3.3</speed>
<temp>0.00</temp>
<bpm>0</bpm>
<rpm>0.00</rpm>
</extensions>
</trkpt>
<trkpt lat="63.801342010" lon="-18.965250015">
<ele>577.031250</ele>
<time>2012-07-25T17:38:30Z</time>
<speed>3.440000</speed>
<extensions>
<speed>3.4</speed>
<temp>0.00</temp>
<bpm>0</bpm>
<rpm>0.00</rpm>
</extensions>
</trkpt>
<trkpt lat="63.801391602" lon="-18.965572357">
<ele>576.687500</ele>
<time>2012-07-25T17:38:35Z</time>
<speed>3.240000</speed>
<extensions>
<speed>3.2</speed>
<temp>0.00</temp>
<bpm>0</bpm>
<rpm>0.00</rpm>
</extensions>
</trkpt>
<trkpt lat="63.801437378" lon="-18.965877533">
<ele>576.796875</ele>
<time>2012-07-25T17:38:40Z</time>
<speed>3.200000</speed>
<extensions>
<speed>3.2</speed>
<temp>0.00</temp>
<bpm>0</bpm>
<rpm>0.00</rpm>
</extensions>
</trkpt>
<trkpt lat="63.801483154" lon="-18.966144562">
<ele>577.234375</ele>
<time>2012-07-25T17:38:45Z</time>
<speed>2.540000</speed>
<extensions>
<speed>2.5</speed>
<temp>0.00</temp>
<bpm>0</bpm>
<rpm>0.00</rpm>
</extensions>
</trkpt>
<trkpt lat="63.801525116" lon="-18.966421127">
<ele>577.937500</ele>
<time>2012-07-25T17:38:50Z</time>
<speed>3.070000</speed>
<extensions>
<speed>3.1</speed>
<temp>0.00</temp>
<bpm>0</bpm>
<rpm>0.00</rpm>
</extensions>
</trkpt>
<trkpt lat="63.801582336" lon="-18.966716766">
<ele>579.468750</ele>
<time>2012-07-25T17:38:55Z</time>
<speed>3.330000</speed>
<extensions>
<speed>3.3</speed>
<temp>0.00</temp>
<bpm>0</bpm>
<rpm>0.00</rpm>
</extensions>
</trkpt>
<trkpt lat="63.801639557" lon="-18.967012405">
<ele>580.828125</ele>
<time>2012-07-25T17:39:00Z</time>
<speed>2.920000</speed>
<extensions>
<speed>2.9</speed>
<temp>0.00</temp>
<bpm>0</bpm>
<rpm>0.00</rpm>
</extensions>
</trkpt>
<trkpt lat="63.801689148" lon="-18.967306137">
<ele>582.328125</ele>
<time>2012-07-25T17:39:05Z</time>
<speed>2.930000</speed>
<extensions>
<speed>2.9</speed>
<temp>0.00</temp>
<bpm>0</bpm>
<rpm>0.00</rpm>
</extensions>
</trkpt>
<trkpt lat="63.801746368" lon="-18.967571259">
<ele>583.062500</ele>
<time>2012-07-25T17:39:10Z</time>
<speed>2.940000</speed>
<extensions>
<speed>2.9</speed>
<temp>0.00</temp>
<bpm>0</bpm>
<rpm>0.00</rpm>
</extensions>
</trkpt>
<trkpt lat="63.801803589" lon="-18.967855453">
<ele>583.203125</ele>
<time>2012-07-25T17:39:15Z</time>
<speed>3.110000</speed>
<extensions>
<speed>3.1</speed>
<temp>0.00</temp>
<bpm>0</bpm>
<rpm>0.00</rpm>
</extensions>
</trkpt>
<trkpt lat="63.801887512" lon="-18.968112946">
<ele>586.484375</ele>
<time>2012-07-25T17:39:20Z</time>
<speed>3.250000</speed>
<extensions>
<speed>3.2</speed>
<temp>0.00</temp>
<bpm>0</bpm>
<rpm>0.00</rpm>
</extensions>
</trkpt>
<trkpt lat="63.801956177" lon="-18.968395233">
<ele>588.734375</ele>
<time>2012-07-25T17:39:25Z</time>
<speed>3.350000</speed>
<extensions>
<speed>3.4</speed>
<temp>0.00</temp>
<bpm>0</bpm>
<rpm>0.00</rpm>
</extensions>
</trkpt>
<trkpt lat="63.802013397" lon="-18.968706131">
<ele>589.468750</ele>
<time>2012-07-25T17:39:30Z</time>
<speed>3.310000</speed>
<extensions>
<speed>3.3</speed>
<temp>0.00</temp>
<bpm>0</bpm>
<rpm>0.00</rpm>
</extensions>
</trkpt>
<trkpt lat="63.802066803" lon="-18.969043732">
<ele>590.625000</ele>
<time>2012-07-25T17:39:35Z</time>
<speed>3.530000</speed>
<extensions>
<speed>3.5</speed>
<temp>0.00</temp>
<bpm>0</bpm>
<rpm>0.00</rpm>
</extensions>
</trkpt>
<trkpt lat="63.802112579" lon="-18.969373703">
<ele>589.640625</ele>
<time>2012-07-25T17:39:40Z</time>
<speed>3.690000</speed>
<extensions>
<speed>3.7</speed>
<temp>0.00</temp>
<bpm>0</bpm>
<rpm>0.00</rpm>
</extensions>
</trkpt>
<trkpt lat="63.802162170" lon="-18.969717026">
<ele>589.734375</ele>
<time>2012-07-25T17:39:45Z</time>
<speed>3.600000</speed>
<extensions>
<speed>3.6</speed>
<temp>0.00</temp>
<bpm>0</bpm>
<rpm>0.00</rpm>
</extensions>
</trkpt>
<trkpt lat="63.802215576" lon="-18.970027924">
<ele>586.234375</ele>
<time>2012-07-25T17:39:50Z</time>
<speed>3.510000</speed>
<extensions>
<speed>3.5</speed>
<temp>0.00</temp>
<bpm>0</bpm>
<rpm>0.00</rpm>
</extensions>
</trkpt>
<trkpt lat="63.802257538" lon="-18.970407486">
<ele>584.343750</ele>
<time>2012-07-25T17:39:55Z</time>
<speed>3.660000</speed>
<extensions>
<speed>3.7</speed>
<temp>0.00</temp>
<bpm>0</bpm>
<rpm>0.00</rpm>
</extensions>
</trkpt>
<trkpt lat="63.802318573" lon="-18.970771790">
<ele>587.734375</ele>
<time>2012-07-25T17:40:00Z</time>
<speed>3.890000</speed>
<extensions>
<speed>3.9</speed>
<temp>0.00</temp>
<bpm>0</bpm>
<rpm>0.00</rpm>
</extensions>
</trkpt>
<trkpt lat="63.802394867" lon="-18.971157074">
<ele>588.515625</ele>
<time>2012-07-25T17:40:05Z</time>
<speed>4.150000</speed>
<extensions>
<speed>4.1</speed>
<temp>0.00</temp>
<bpm>0</bpm>
<rpm>0.00</rpm>
</extensions>
</trkpt>
<trkpt lat="63.802448273" lon="-18.971513748">
<ele>584.281250</ele>
<time>2012-07-25T17:40:10Z</time>
<speed>4.000000</speed>
<extensions>
<speed>4.0</speed>
<temp>0.00</temp>
<bpm>0</bpm>
<rpm>0.00</rpm>
</extensions>
</trkpt>
<trkpt lat="63.802497864" lon="-18.971881866">
<ele>582.859375</ele>
<time>2012-07-25T17:40:15Z</time>
<speed>4.190000</speed>
<extensions>
<speed>4.2</speed>
<temp>0.00</temp>
<bpm>0</bpm>
<rpm>0.00</rpm>
</extensions>
</trkpt>
<trkpt lat="63.802555084" lon="-18.972270966">
<ele>582.078125</ele>
<time>2012-07-25T17:40:20Z</time>
<speed>4.020000</speed>
<extensions>
<speed>4.0</speed>
<temp>0.00</temp>
<bpm>0</bpm>
<rpm>0.00</rpm>
</extensions>
</trkpt>
<trkpt lat="63.802600861" lon="-18.972642899">
<ele>581.781250</ele>
<time>2012-07-25T17:40:25Z</time>
<speed>3.750000</speed>
<extensions>
<speed>3.8</speed>
<temp>0.00</temp>
<bpm>0</bpm>
<rpm>0.00</rpm>
</extensions>
</trkpt>
<trkpt lat="63.802642822" lon="-18.973005295">
<ele>581.968750</ele>
<time>2012-07-25T17:40:30Z</time>
<speed>3.890000</speed>
<extensions>
<speed>3.9</speed>
<temp>0.00</temp>
<bpm>0</bpm>
<rpm>0.00</rpm>
</extensions>
</trkpt>
<trkpt lat="63.802688599" lon="-18.973394394">
<ele>580.328125</ele>
<time>2012-07-25T17:40:35Z</time>
<speed>4.060000</speed>
<extensions>
<speed>4.1</speed>
<temp>0.00</temp>
<bpm>0</bpm>
<rpm>0.00</rpm>
</extensions>
</trkpt>
<trkpt lat="63.802753448" lon="-18.973796844">
<ele>581.531250</ele>
<time>2012-07-25T17:40:40Z</time>
<speed>4.420000</speed>
<extensions>
<speed>4.4</speed>
<temp>0.00</temp>
<bpm>0</bpm>
<rpm>0.00</rpm>
</extensions>
</trkpt>
<trkpt lat="63.802829742" lon="-18.974193573">
<ele>581.937500</ele>
<time>2012-07-25T17:40:45Z</time>
<speed>4.020000</speed>
<extensions>
<speed>4.0</speed>
<temp>0.00</temp>
<bpm>0</bpm>
<rpm>0.00</rpm>
</extensions>
</trkpt>
<trkpt lat="63.802909851" lon="-18.974477768">
<ele>581.593750</ele>
<time>2012-07-25T17:40:50Z</time>
<speed>3.520000</speed>
<extensions>
<speed>3.5</speed>
<temp>0.00</temp>
<bpm>0</bpm>
<rpm>0.00</rpm>
</extensions>
</trkpt>
<trkpt lat="63.802993774" lon="-18.974784851">
<ele>581.468750</ele>
<time>2012-07-25T17:40:55Z</time>
<speed>3.430000</speed>
<extensions>
<speed>3.4</speed>
<temp>0.00</temp>
<bpm>0</bpm>
<rpm>0.00</rpm>
</extensions>
</trkpt>
<trkpt lat="63.803081512" lon="-18.975069046">
<ele>581.687500</ele>
<time>2012-07-25T17:41:00Z</time>
<speed>3.480000</speed>
<extensions>
<speed>3.5</speed>
<temp>0.00</temp>
<bpm>0</bpm>
<rpm>0.00</rpm>
</extensions>
</trkpt>
<trkpt lat="63.803176880" lon="-18.975330353">
<ele>581.515625</ele>
<time>2012-07-25T17:41:05Z</time>
<speed>3.290000</speed>
<extensions>
<speed>3.3</speed>
<temp>0.00</temp>
<bpm>0</bpm>
<rpm>0.00</rpm>
</extensions>
</trkpt>
<trkpt lat="63.803268433" lon="-18.975601196">
<ele>582.125000</ele>
<time>2012-07-25T17:41:10Z</time>
<speed>3.280000</speed>
<extensions>
<speed>3.3</speed>
<temp>0.00</temp>
<bpm>0</bpm>
<rpm>0.00</rpm>
</extensions>
</trkpt>
<trkpt lat="63.803352356" lon="-18.975843430">
<ele>582.203125</ele>
<time>2012-07-25T17:41:15Z</time>
<speed>3.040000</speed>
<extensions>
<speed>3.0</speed>
<temp>0.00</temp>
<bpm>0</bpm>
<rpm>0.00</rpm>
</extensions>
</trkpt>
<trkpt lat="63.803440094" lon="-18.976099014">
<ele>581.796875</ele>
<time>2012-07-25T17:41:20Z</time>
<speed>3.050000</speed>
<extensions>
<speed>3.0</speed>
<temp>0.00</temp>
<bpm>0</bpm>
<rpm>0.00</rpm>
</extensions>
</trkpt>
<trkpt lat="63.803527832" lon="-18.976345062">
<ele>582.484375</ele>
<time>2012-07-25T17:41:25Z</time>
<speed>3.090000</speed>
<extensions>
<speed>3.1</speed>
<temp>0.00</temp>
<bpm>0</bpm>
<rpm>0.00</rpm>
</extensions>
</trkpt>
<trkpt lat="63.803611755" lon="-18.976570129">
<ele>582.781250</ele>
<time>2012-07-25T17:41:30Z</time>
<speed>3.130000</speed>
<extensions>
<speed>3.1</speed>
<temp>0.00</temp>
<bpm>0</bpm>
<rpm>0.00</rpm>
</extensions>
</trkpt>
<trkpt lat="63.803695679" lon="-18.976802826">
<ele>582.875000</ele>
<time>2012-07-25T17:41:35Z</time>
<speed>3.030000</speed>
<extensions>
<speed>3.0</speed>
<temp>0.00</temp>
<bpm>0</bpm>
<rpm>0.00</rpm>
</extensions>
</trkpt>
<trkpt lat="63.803775787" lon="-18.977037430">
<ele>583.390625</ele>
<time>2012-07-25T17:41:40Z</time>
<speed>2.930000</speed>
<extensions>
<speed>2.9</speed>
<temp>0.00</temp>
<bpm>0</bpm>
<rpm>0.00</rpm>
</extensions>
</trkpt>
<trkpt lat="63.803855896" lon="-18.977258682">
<ele>583.312500</ele>
<time>2012-07-25T17:41:45Z</time>
<speed>2.850000</speed>
<extensions>
<speed>2.9</speed>
<temp>0.00</temp>
<bpm>0</bpm>
<rpm>0.00</rpm>
</extensions>
</trkpt>
<trkpt lat="63.803936005" lon="-18.977499008">
<ele>584.421875</ele>
<time>2012-07-25T17:41:50Z</time>
<speed>3.010000</speed>
<extensions>
<speed>3.0</speed>
<temp>0.00</temp>
<bpm>0</bpm>
<rpm>0.00</rpm>
</extensions>
</trkpt>
<trkpt lat="63.804019928" lon="-18.977787018">
<ele>584.468750</ele>
<time>2012-07-25T17:41:55Z</time>
<speed>3.670000</speed>
<extensions>
<speed>3.7</speed>
<temp>0.00</temp>
<bpm>0</bpm>
<rpm>0.00</rpm>
</extensions>
</trkpt>
<trkpt lat="63.804103851" lon="-18.978105545">
<ele>582.921875</ele>
<time>2012-07-25T17:42:00Z</time>
<speed>4.420000</speed>
<extensions>
<speed>4.4</speed>
<temp>0.00</temp>
<bpm>0</bpm>
<rpm>0.00</rpm>
</extensions>
</trkpt>
<trkpt lat="63.804183960" lon="-18.978553772">
<ele>581.390625</ele>
<time>2012-07-25T17:42:05Z</time>
<speed>4.900000</speed>
<extensions>
<speed>4.9</speed>
<temp>0.00</temp>
<bpm>0</bpm>
<rpm>0.00</rpm>
</extensions>
</trkpt>
<trkpt lat="63.804222107" lon="-18.978944778">
<ele>581.421875</ele>
<time>2012-07-25T17:42:10Z</time>
<speed>2.970000</speed>
<extensions>
<speed>3.0</speed>
<temp>0.00</temp>
<bpm>0</bpm>
<rpm>0.00</rpm>
</extensions>
</trkpt>
<trkpt lat="63.804244995" lon="-18.979276657">
<ele>581.640625</ele>
<time>2012-07-25T17:42:15Z</time>
<speed>3.410000</speed>
<extensions>
<speed>3.4</speed>
<temp>0.00</temp>
<bpm>0</bpm>
<rpm>0.00</rpm>
</extensions>
</trkpt>
<trkpt lat="63.804248810" lon="-18.979455948">
<ele>582.046875</ele>
<time>2012-07-25T17:42:20Z</time>
<speed>1.270000</speed>
<extensions>
<speed>1.3</speed>
<temp>0.00</temp>
<bpm>0</bpm>
<rpm>0.00</rpm>
</extensions>
</trkpt>
<trkpt lat="63.804264069" lon="-18.979646683">
<ele>581.625000</ele>
<time>2012-07-25T17:42:25Z</time>
<speed>2.170000</speed>
<extensions>
<speed>2.2</speed>
<temp>0.00</temp>
<bpm>0</bpm>
<rpm>0.00</rpm>
</extensions>
</trkpt>
<trkpt lat="63.804275513" lon="-18.979858398">
<ele>582.546875</ele>
<time>2012-07-25T17:42:30Z</time>
<speed>2.180000</speed>
<extensions>
<speed>2.2</speed>
<temp>0.00</temp>
<bpm>0</bpm>
<rpm>0.00</rpm>
</extensions>
</trkpt>
<trkpt lat="63.804290771" lon="-18.980047226">
<ele>583.812500</ele>
<time>2012-07-25T17:42:35Z</time>
<speed>1.920000</speed>
<extensions>
<speed>1.9</speed>
<temp>0.00</temp>
<bpm>0</bpm>
<rpm>0.00</rpm>
</extensions>
</trkpt>
<trkpt lat="63.804302216" lon="-18.980260849">
<ele>584.546875</ele>
<time>2012-07-25T17:42:40Z</time>
<speed>1.940000</speed>
<extensions>
<speed>1.9</speed>
<temp>0.00</temp>
<bpm>0</bpm>
<rpm>0.00</rpm>
</extensions>
</trkpt>
<trkpt lat="63.804321289" lon="-18.980440140">
<ele>585.203125</ele>
<time>2012-07-25T17:42:45Z</time>
<speed>1.820000</speed>
<extensions>
<speed>1.8</speed>
<temp>0.00</temp>
<bpm>0</bpm>
<rpm>0.00</rpm>
</extensions>
</trkpt>
<trkpt lat="63.804340363" lon="-18.980636597">
<ele>586.468750</ele>
<time>2012-07-25T17:42:50Z</time>
<speed>2.080000</speed>
<extensions>
<speed>2.1</speed>
<temp>0.00</temp>
<bpm>0</bpm>
<rpm>0.00</rpm>
</extensions>
</trkpt>
<trkpt lat="63.804363251" lon="-18.980838776">
<ele>587.218750</ele>
<time>2012-07-25T17:42:55Z</time>
<speed>1.840000</speed>
<extensions>
<speed>1.8</speed>
<temp>0.00</temp>
<bpm>0</bpm>
<rpm>0.00</rpm>
</extensions>
</trkpt>
<trkpt lat="63.804382324" lon="-18.981046677">
<ele>588.031250</ele>
<time>2012-07-25T17:43:00Z</time>
<speed>2.150000</speed>
<extensions>
<speed>2.1</speed>
<temp>0.00</temp>
<bpm>0</bpm>
<rpm>0.00</rpm>
</extensions>
</trkpt>
<trkpt lat="63.804412842" lon="-18.981296539">
<ele>588.234375</ele>
<time>2012-07-25T17:43:05Z</time>
<speed>2.820000</speed>
<extensions>
<speed>2.8</speed>
<temp>0.00</temp>
<bpm>0</bpm>
<rpm>0.00</rpm>
</extensions>
</trkpt>
<trkpt lat="63.804439545" lon="-18.981529236">
<ele>588.187500</ele>
<time>2012-07-25T17:43:10Z</time>
<speed>2.560000</speed>
<extensions>
<speed>2.6</speed>
<temp>0.00</temp>
<bpm>0</bpm>
<rpm>0.00</rpm>
</extensions>
</trkpt>
<trkpt lat="63.804466248" lon="-18.981843948">
<ele>586.796875</ele>
<time>2012-07-25T17:43:15Z</time>
<speed>3.920000</speed>
<extensions>
<speed>3.9</speed>
<temp>0.00</temp>
<bpm>0</bpm>
<rpm>0.00</rpm>
</extensions>
</trkpt>
<trkpt lat="63.804569244" lon="-18.982381821">
<ele>586.703125</ele>
<time>2012-07-25T17:43:20Z</time>
<speed>6.730000</speed>
<extensions>
<speed>6.7</speed>
<temp>0.00</temp>
<bpm>0</bpm>
<rpm>0.00</rpm>
</extensions>
</trkpt>
<trkpt lat="63.804607391" lon="-18.982776642">
<ele>587.343750</ele>
<time>2012-07-25T17:43:25Z</time>
<speed>3.200000</speed>
<extensions>
<speed>3.2</speed>
<temp>0.00</temp>
<bpm>0</bpm>
<rpm>0.00</rpm>
</extensions>
</trkpt>
<trkpt lat="63.804653168" lon="-18.983140945">
<ele>587.875000</ele>
<time>2012-07-25T17:43:30Z</time>
<speed>4.640000</speed>
<extensions>
<speed>4.6</speed>
<temp>0.00</temp>
<bpm>0</bpm>
<rpm>0.00</rpm>
</extensions>
</trkpt>
<trkpt lat="63.804698944" lon="-18.983465195">
<ele>587.312500</ele>
<time>2012-07-25T17:43:35Z</time>
<speed>2.910000</speed>
<extensions>
<speed>2.9</speed>
<temp>0.00</temp>
<bpm>0</bpm>
<rpm>0.00</rpm>
</extensions>
</trkpt>
<trkpt lat="63.804740906" lon="-18.983798981">
<ele>586.359375</ele>
<time>2012-07-25T17:43:40Z</time>
<speed>3.880000</speed>
<extensions>
<speed>3.9</speed>
<temp>0.00</temp>
<bpm>0</bpm>
<rpm>0.00</rpm>
</extensions>
</trkpt>
<trkpt lat="63.804813385" lon="-18.984130859">
<ele>587.031250</ele>
<time>2012-07-25T17:43:45Z</time>
<speed>2.700000</speed>
<extensions>
<speed>2.7</speed>
<temp>0.00</temp>
<bpm>0</bpm>
<rpm>0.00</rpm>
</extensions>
</trkpt>
<trkpt lat="63.804885864" lon="-18.984365463">
<ele>587.812500</ele>
<time>2012-07-25T17:43:50Z</time>
<speed>3.120000</speed>
<extensions>
<speed>3.1</speed>
<temp>0.00</temp>
<bpm>0</bpm>
<rpm>0.00</rpm>
</extensions>
</trkpt>
<trkpt lat="63.804977417" lon="-18.984642029">
<ele>588.453125</ele>
<time>2012-07-25T17:43:55Z</time>
<speed>3.500000</speed>
<extensions>
<speed>3.5</speed>
<temp>0.00</temp>
<bpm>0</bpm>
<rpm>0.00</rpm>
</extensions>
</trkpt>
<trkpt lat="63.805076599" lon="-18.984928131">
<ele>589.375000</ele>
<time>2012-07-25T17:44:00Z</time>
<speed>3.550000</speed>
<extensions>
<speed>3.5</speed>
<temp>0.00</temp>
<bpm>0</bpm>
<rpm>0.00</rpm>
</extensions>
</trkpt>
<trkpt lat="63.805160522" lon="-18.985204697">
<ele>589.296875</ele>
<time>2012-07-25T17:44:05Z</time>
<speed>3.630000</speed>
<extensions>
<speed>3.6</speed>
<temp>0.00</temp>
<bpm>0</bpm>
<rpm>0.00</rpm>
</extensions>
</trkpt>
<trkpt lat="63.805278778" lon="-18.985401154">
<ele>586.656250</ele>
<time>2012-07-25T17:44:10Z</time>
<speed>3.150000</speed>
<extensions>
<speed>3.2</speed>
<temp>0.00</temp>
<bpm>0</bpm>
<rpm>0.00</rpm>
</extensions>
</trkpt>
<trkpt lat="63.805347443" lon="-18.985584259">
<ele>586.390625</ele>
<time>2012-07-25T17:44:15Z</time>
<speed>1.580000</speed>
<extensions>
<speed>1.6</speed>
<temp>0.00</temp>
<bpm>0</bpm>
<rpm>0.00</rpm>
</extensions>
</trkpt>
<trkpt lat="63.805435181" lon="-18.985671997">
<ele>585.765625</ele>
<time>2012-07-25T17:44:20Z</time>
<speed>3.100000</speed>
<extensions>
<speed>3.1</speed>
<temp>0.00</temp>
<bpm>0</bpm>
<rpm>0.00</rpm>
</extensions>
</trkpt>
<trkpt lat="63.805507660" lon="-18.985837936">
<ele>585.593750</ele>
<time>2012-07-25T17:44:25Z</time>
<speed>0.660000</speed>
<extensions>
<speed>0.7</speed>
<temp>0.00</temp>
<bpm>0</bpm>
<rpm>0.00</rpm>
</extensions>
</trkpt>
<trkpt lat="63.805503845" lon="-18.985849380">
<ele>583.609375</ele>
<time>2012-07-25T17:44:30Z</time>
<speed>0.190000</speed>
<extensions>
<speed>0.2</speed>
<temp>0.00</temp>
<bpm>0</bpm>
<rpm>0.00</rpm>
</extensions>
</trkpt>
<trkpt lat="63.805515289" lon="-18.985904694">
<ele>583.531250</ele>
<time>2012-07-25T17:44:35Z</time>
<speed>0.880000</speed>
<extensions>
<speed>0.9</speed>
<temp>0.00</temp>
<bpm>0</bpm>
<rpm>0.00</rpm>
</extensions>
</trkpt>
<trkpt lat="63.805538177" lon="-18.985969543">
<ele>583.593750</ele>
<time>2012-07-25T17:44:40Z</time>
<speed>0.790000</speed>
<extensions>
<speed>0.8</speed>
<temp>0.00</temp>
<bpm>0</bpm>
<rpm>0.00</rpm>
</extensions>
</trkpt>
<trkpt lat="63.805561066" lon="-18.986042023">
<ele>584.093750</ele>
<time>2012-07-25T17:44:45Z</time>
<speed>0.820000</speed>
<extensions>
<speed>0.8</speed>
<temp>0.00</temp>
<bpm>0</bpm>
<rpm>0.00</rpm>
</extensions>
</trkpt>
<trkpt lat="63.805576324" lon="-18.986125946">
<ele>583.421875</ele>
<time>2012-07-25T17:44:50Z</time>
<speed>0.920000</speed>
<extensions>
<speed>0.9</speed>
<temp>0.00</temp>
<bpm>0</bpm>
<rpm>0.00</rpm>
</extensions>
</trkpt>
<trkpt lat="63.805591583" lon="-18.986177444">
<ele>582.109375</ele>
<time>2012-07-25T17:44:55Z</time>
<speed>0.760000</speed>
<extensions>
<speed>0.8</speed>
<temp>0.00</temp>
<bpm>0</bpm>
<rpm>0.00</rpm>
</extensions>
</trkpt>
<trkpt lat="63.805583954" lon="-18.986225128">
<ele>583.375000</ele>
<time>2012-07-25T17:45:00Z</time>
<speed>0.400000</speed>
<extensions>
<speed>0.4</speed>
<temp>0.00</temp>
<bpm>0</bpm>
<rpm>0.00</rpm>
</extensions>
</trkpt>
<trkpt lat="63.805580139" lon="-18.986255646">
<ele>583.296875</ele>
<time>2012-07-25T17:45:05Z</time>
<speed>0.130000</speed>
<extensions>
<speed>0.1</speed>
<temp>0.00</temp>
<bpm>0</bpm>
<rpm>0.00</rpm>
</extensions>
</trkpt>
<trkpt lat="63.805576324" lon="-18.986307144">
<ele>583.218750</ele>
<time>2012-07-25T17:45:10Z</time>
<speed>1.280000</speed>
<extensions>
<speed>1.3</speed>
<temp>0.00</temp>
<bpm>0</bpm>
<rpm>0.00</rpm>
</extensions>
</trkpt>
<trkpt lat="63.805580139" lon="-18.986385345">
<ele>583.546875</ele>
<time>2012-07-25T17:45:15Z</time>
<speed>0.910000</speed>
<extensions>
<speed>0.9</speed>
<temp>0.00</temp>
<bpm>0</bpm>
<rpm>0.00</rpm>
</extensions>
</trkpt>
<trkpt lat="63.805576324" lon="-18.986457825">
<ele>583.015625</ele>
<time>2012-07-25T17:45:20Z</time>
<speed>0.090000</speed>
<extensions>
<speed>0.1</speed>
<temp>0.00</temp>
<bpm>0</bpm>
<rpm>0.00</rpm>
</extensions>
</trkpt>
<trkpt lat="63.805572510" lon="-18.986488342">
<ele>584.093750</ele>
<time>2012-07-25T17:45:25Z</time>
<speed>0.730000</speed>
<extensions>
<speed>0.7</speed>
<temp>0.00</temp>
<bpm>0</bpm>
<rpm>0.00</rpm>
</extensions>
</trkpt>
<trkpt lat="63.805564880" lon="-18.986480713">
<ele>583.562500</ele>
<time>2012-07-25T17:45:30Z</time>
<speed>0.470000</speed>
<extensions>
<speed>0.5</speed>
<temp>0.00</temp>
<bpm>0</bpm>
<rpm>0.00</rpm>
</extensions>
</trkpt>
<trkpt lat="63.805564880" lon="-18.986516953">
<ele>583.890625</ele>
<time>2012-07-25T17:45:35Z</time>
<speed>0.370000</speed>
<extensions>
<speed>0.4</speed>
<temp>0.00</temp>
<bpm>0</bpm>
<rpm>0.00</rpm>
</extensions>
</trkpt>
<trkpt lat="63.805564880" lon="-18.986595154">
<ele>584.187500</ele>
<time>2012-07-25T17:45:40Z</time>
<speed>0.830000</speed>
<extensions>
<speed>0.8</speed>
<temp>0.00</temp>
<bpm>0</bpm>
<rpm>0.00</rpm>
</extensions>
</trkpt>
<trkpt lat="63.805587769" lon="-18.986667633">
<ele>584.406250</ele>
<time>2012-07-25T17:45:45Z</time>
<speed>0.400000</speed>
<extensions>
<speed>0.4</speed>
<temp>0.00</temp>
<bpm>0</bpm>
<rpm>0.00</rpm>
</extensions>
</trkpt>
<trkpt lat="63.805603027" lon="-18.986707687">
<ele>584.609375</ele>
<time>2012-07-25T17:45:50Z</time>
<speed>1.200000</speed>
<extensions>
<speed>1.2</speed>
<temp>0.00</temp>
<bpm>0</bpm>
<rpm>0.00</rpm>
</extensions>
</trkpt>
<trkpt lat="63.805618286" lon="-18.986774445">
<ele>584.875000</ele>
<time>2012-07-25T17:45:55Z</time>
<speed>0.860000</speed>
<extensions>
<speed>0.9</speed>
<temp>0.00</temp>
<bpm>0</bpm>
<rpm>0.00</rpm>
</extensions>
</trkpt>
<trkpt lat="63.805637360" lon="-18.986869812">
<ele>585.109375</ele>
<time>2012-07-25T17:46:00Z</time>
<speed>0.960000</speed>
<extensions>
<speed>1.0</speed>
<temp>0.00</temp>
<bpm>0</bpm>
<rpm>0.00</rpm>
</extensions>
</trkpt>
<trkpt lat="63.805652618" lon="-18.986982346">
<ele>585.765625</ele>
<time>2012-07-25T17:46:05Z</time>
<speed>1.030000</speed>
<extensions>
<speed>1.0</speed>
<temp>0.00</temp>
<bpm>0</bpm>
<rpm>0.00</rpm>
</extensions>
</trkpt>
<trkpt lat="63.805660248" lon="-18.987007141">
<ele>586.203125</ele>
<time>2012-07-25T17:46:10Z</time>
<speed>0.100000</speed>
<extensions>
<speed>0.1</speed>
<temp>0.00</temp>
<bpm>0</bpm>
<rpm>0.00</rpm>
</extensions>
</trkpt>
<trkpt lat="63.805667877" lon="-18.987079620">
<ele>586.156250</ele>
<time>2012-07-25T17:46:15Z</time>
<speed>0.660000</speed>
<extensions>
<speed>0.7</speed>
<temp>0.00</temp>
<bpm>0</bpm>
<rpm>0.00</rpm>
</extensions>
</trkpt>
<trkpt lat="63.805698395" lon="-18.987253189">
<ele>586.484375</ele>
<time>2012-07-25T17:46:20Z</time>
<speed>1.890000</speed>
<extensions>
<speed>1.9</speed>
<temp>0.00</temp>
<bpm>0</bpm>
<rpm>0.00</rpm>
</extensions>
</trkpt>
<trkpt lat="63.805713654" lon="-18.987445831">
<ele>587.125000</ele>
<time>2012-07-25T17:46:25Z</time>
<speed>2.240000</speed>
<extensions>
<speed>2.2</speed>
<temp>0.00</temp>
<bpm>0</bpm>
<rpm>0.00</rpm>
</extensions>
</trkpt>
<trkpt lat="63.805736542" lon="-18.987695694">
<ele>587.968750</ele>
<time>2012-07-25T17:46:30Z</time>
<speed>2.800000</speed>
<extensions>
<speed>2.8</speed>
<temp>0.00</temp>
<bpm>0</bpm>
<rpm>0.00</rpm>
</extensions>
</trkpt>
<trkpt lat="63.805763245" lon="-18.987955093">
<ele>587.625000</ele>
<time>2012-07-25T17:46:35Z</time>
<speed>2.650000</speed>
<extensions>
<speed>2.6</speed>
<temp>0.00</temp>
<bpm>0</bpm>
<rpm>0.00</rpm>
</extensions>
</trkpt>
<trkpt lat="63.805786133" lon="-18.988203049">
<ele>587.890625</ele>
<time>2012-07-25T17:46:40Z</time>
<speed>2.480000</speed>
<extensions>
<speed>2.5</speed>
<temp>0.00</temp>
<bpm>0</bpm>
<rpm>0.00</rpm>
</extensions>
</trkpt>
<trkpt lat="63.805805206" lon="-18.988475800">
<ele>587.625000</ele>
<time>2012-07-25T17:46:45Z</time>
<speed>2.940000</speed>
<extensions>
<speed>2.9</speed>
<temp>0.00</temp>
<bpm>0</bpm>
<rpm>0.00</rpm>
</extensions>
</trkpt>
<trkpt lat="63.805831909" lon="-18.988763809">
<ele>587.328125</ele>
<time>2012-07-25T17:46:50Z</time>
<speed>2.970000</speed>
<extensions>
<speed>3.0</speed>
<temp>0.00</temp>
<bpm>0</bpm>
<rpm>0.00</rpm>
</extensions>
</trkpt>
<trkpt lat="63.805850983" lon="-18.989072800">
<ele>587.046875</ele>
<time>2012-07-25T17:46:55Z</time>
<speed>3.150000</speed>
<extensions>
<speed>3.2</speed>
<temp>0.00</temp>
<bpm>0</bpm>
<rpm>0.00</rpm>
</extensions>
</trkpt>
<trkpt lat="63.805877686" lon="-18.989374161">
<ele>586.593750</ele>
<time>2012-07-25T17:47:00Z</time>
<speed>2.920000</speed>
<extensions>
<speed>2.9</speed>
<temp>0.00</temp>
<bpm>0</bpm>
<rpm>0.00</rpm>
</extensions>
</trkpt>
<trkpt lat="63.805904388" lon="-18.989665985">
<ele>587.359375</ele>
<time>2012-07-25T17:47:05Z</time>
<speed>3.030000</speed>
<extensions>
<speed>3.0</speed>
<temp>0.00</temp>
<bpm>0</bpm>
<rpm>0.00</rpm>
</extensions>
</trkpt>
<trkpt lat="63.805934906" lon="-18.989953995">
<ele>587.296875</ele>
<time>2012-07-25T17:47:10Z</time>
<speed>3.200000</speed>
<extensions>
<speed>3.2</speed>
<temp>0.00</temp>
<bpm>0</bpm>
<rpm>0.00</rpm>
</extensions>
</trkpt>
<trkpt lat="63.805969238" lon="-18.990257263">
<ele>587.000000</ele>
<time>2012-07-25T17:47:15Z</time>
<speed>3.110000</speed>
<extensions>
<speed>3.1</speed>
<temp>0.00</temp>
<bpm>0</bpm>
<rpm>0.00</rpm>
</extensions>
</trkpt>
<trkpt lat="63.806003571" lon="-18.990520477">
<ele>587.625000</ele>
<time>2012-07-25T17:47:20Z</time>
<speed>3.070000</speed>
<extensions>
<speed>3.1</speed>
<temp>0.00</temp>
<bpm>0</bpm>
<rpm>0.00</rpm>
</extensions>
</trkpt>
<trkpt lat="63.806045532" lon="-18.990804672">
<ele>587.453125</ele>
<time>2012-07-25T17:47:25Z</time>
<speed>3.040000</speed>
<extensions>
<speed>3.0</speed>
<temp>0.00</temp>
<bpm>0</bpm>
<rpm>0.00</rpm>
</extensions>
</trkpt>
<trkpt lat="63.806087494" lon="-18.991088867">
<ele>587.406250</ele>
<time>2012-07-25T17:47:30Z</time>
<speed>2.990000</speed>
<extensions>
<speed>3.0</speed>
<temp>0.00</temp>
<bpm>0</bpm>
<rpm>0.00</rpm>
</extensions>
</trkpt>
<trkpt lat="63.806144714" lon="-18.991353989">
<ele>588.312500</ele>
<time>2012-07-25T17:47:35Z</time>
<speed>2.970000</speed>
<extensions>
<speed>3.0</speed>
<temp>0.00</temp>
<bpm>0</bpm>
<rpm>0.00</rpm>
</extensions>
</trkpt>
<trkpt lat="63.806213379" lon="-18.991615295">
<ele>589.906250</ele>
<time>2012-07-25T17:47:40Z</time>
<speed>3.000000</speed>
<extensions>
<speed>3.0</speed>
<temp>0.00</temp>
<bpm>0</bpm>
<rpm>0.00</rpm>
</extensions>
</trkpt>
<trkpt lat="63.806278229" lon="-18.991859436">
<ele>590.578125</ele>
<time>2012-07-25T17:47:45Z</time>
<speed>2.830000</speed>
<extensions>
<speed>2.8</speed>
<temp>0.00</temp>
<bpm>0</bpm>
<rpm>0.00</rpm>
</extensions>
</trkpt>
<trkpt lat="63.806335449" lon="-18.992113113">
<ele>590.687500</ele>
<time>2012-07-25T17:47:50Z</time>
<speed>2.810000</speed>
<extensions>
<speed>2.8</speed>
<temp>0.00</temp>
<bpm>0</bpm>
<rpm>0.00</rpm>
</extensions>
</trkpt>
<trkpt lat="63.806400299" lon="-18.992353439">
<ele>591.562500</ele>
<time>2012-07-25T17:47:55Z</time>
<speed>2.840000</speed>
<extensions>
<speed>2.8</speed>
<temp>0.00</temp>
<bpm>0</bpm>
<rpm>0.00</rpm>
</extensions>
</trkpt>
<trkpt lat="63.806465149" lon="-18.992603302">
<ele>591.875000</ele>
<time>2012-07-25T17:48:00Z</time>
<speed>3.010000</speed>
<extensions>
<speed>3.0</speed>
<temp>0.00</temp>
<bpm>0</bpm>
<rpm>0.00</rpm>
</extensions>
</trkpt>
<trkpt lat="63.806526184" lon="-18.992790222">
<ele>592.640625</ele>
<time>2012-07-25T17:48:05Z</time>
<speed>1.880000</speed>
<extensions>
<speed>1.9</speed>
<temp>0.00</temp>
<bpm>0</bpm>
<rpm>0.00</rpm>
</extensions>
</trkpt>
<trkpt lat="63.806579590" lon="-18.992973328">
<ele>592.828125</ele>
<time>2012-07-25T17:48:10Z</time>
<speed>2.590000</speed>
<extensions>
<speed>2.6</speed>
<temp>0.00</temp>
<bpm>0</bpm>
<rpm>0.00</rpm>
</extensions>
</trkpt>
<trkpt lat="63.806640625" lon="-18.993242264">
<ele>591.640625</ele>
<time>2012-07-25T17:48:15Z</time>
<speed>2.670000</speed>
<extensions>
<speed>2.7</speed>
<temp>0.00</temp>
<bpm>0</bpm>
<rpm>0.00</rpm>
</extensions>
</trkpt>
<trkpt lat="63.806705475" lon="-18.993471146">
<ele>591.500000</ele>
<time>2012-07-25T17:48:20Z</time>
<speed>2.570000</speed>
<extensions>
<speed>2.6</speed>
<temp>0.00</temp>
<bpm>0</bpm>
<rpm>0.00</rpm>
</extensions>
</trkpt>
<trkpt lat="63.806755066" lon="-18.993659973">
<ele>591.859375</ele>
<time>2012-07-25T17:48:25Z</time>
<speed>2.760000</speed>
<extensions>
<speed>2.8</speed>
<temp>0.00</temp>
<bpm>0</bpm>
<rpm>0.00</rpm>
</extensions>
</trkpt>
<trkpt lat="63.806823730" lon="-18.993900299">
<ele>592.484375</ele>
<time>2012-07-25T17:48:30Z</time>
<speed>2.940000</speed>
<extensions>
<speed>2.9</speed>
<temp>0.00</temp>
<bpm>0</bpm>
<rpm>0.00</rpm>
</extensions>
</trkpt>
<trkpt lat="63.806888580" lon="-18.994157791">
<ele>592.921875</ele>
<time>2012-07-25T17:48:35Z</time>
<speed>2.980000</speed>
<extensions>
<speed>3.0</speed>
<temp>0.00</temp>
<bpm>0</bpm>
<rpm>0.00</rpm>
</extensions>
</trkpt>
<trkpt lat="63.806953430" lon="-18.994430542">
<ele>593.093750</ele>
<time>2012-07-25T17:48:40Z</time>
<speed>3.020000</speed>
<extensions>
<speed>3.0</speed>
<temp>0.00</temp>
<bpm>0</bpm>
<rpm>0.00</rpm>
</extensions>
</trkpt>
<trkpt lat="63.807010651" lon="-18.994703293">
<ele>592.984375</ele>
<time>2012-07-25T17:48:45Z</time>
<speed>2.740000</speed>
<extensions>
<speed>2.7</speed>
<temp>0.00</temp>
<bpm>0</bpm>
<rpm>0.00</rpm>
</extensions>
</trkpt>
<trkpt lat="63.807060242" lon="-18.994913101">
<ele>595.031250</ele>
<time>2012-07-25T17:48:50Z</time>
<speed>2.790000</speed>
<extensions>
<speed>2.8</speed>
<temp>0.00</temp>
<bpm>0</bpm>
<rpm>0.00</rpm>
</extensions>
</trkpt>
<trkpt lat="63.807117462" lon="-18.995193481">
<ele>595.046875</ele>
<time>2012-07-25T17:48:55Z</time>
<speed>2.910000</speed>
<extensions>
<speed>2.9</speed>
<temp>0.00</temp>
<bpm>0</bpm>
<rpm>0.00</rpm>
</extensions>
</trkpt>
<trkpt lat="63.807167053" lon="-18.995454788">
<ele>596.406250</ele>
<time>2012-07-25T17:49:00Z</time>
<speed>3.070000</speed>
<extensions>
<speed>3.1</speed>
<temp>0.00</temp>
<bpm>0</bpm>
<rpm>0.00</rpm>
</extensions>
</trkpt>
<trkpt lat="63.807231903" lon="-18.995763779">
<ele>595.890625</ele>
<time>2012-07-25T17:49:05Z</time>
<speed>3.510000</speed>
<extensions>
<speed>3.5</speed>
<temp>0.00</temp>
<bpm>0</bpm>
<rpm>0.00</rpm>
</extensions>
</trkpt>
<trkpt lat="63.807289124" lon="-18.996053696">
<ele>595.687500</ele>
<time>2012-07-25T17:49:10Z</time>
<speed>3.040000</speed>
<extensions>
<speed>3.0</speed>
<temp>0.00</temp>
<bpm>0</bpm>
<rpm>0.00</rpm>
</extensions>
</trkpt>
<trkpt lat="63.807346344" lon="-18.996364594">
<ele>596.390625</ele>
<time>2012-07-25T17:49:15Z</time>
<speed>3.360000</speed>
<extensions>
<speed>3.4</speed>
<temp>0.00</temp>
<bpm>0</bpm>
<rpm>0.00</rpm>
</extensions>
</trkpt>
<trkpt lat="63.807403564" lon="-18.996706009">
<ele>596.218750</ele>
<time>2012-07-25T17:49:20Z</time>
<speed>3.210000</speed>
<extensions>
<speed>3.2</speed>
<temp>0.00</temp>
<bpm>0</bpm>
<rpm>0.00</rpm>
</extensions>
</trkpt>
<trkpt lat="63.807456970" lon="-18.997066498">
<ele>595.859375</ele>
<time>2012-07-25T17:49:25Z</time>
<speed>3.570000</speed>
<extensions>
<speed>3.6</speed>
<temp>0.00</temp>
<bpm>0</bpm>
<rpm>0.00</rpm>
</extensions>
</trkpt>
<trkpt lat="63.807502747" lon="-18.997383118">
<ele>596.156250</ele>
<time>2012-07-25T17:49:30Z</time>
<speed>3.360000</speed>
<extensions>
<speed>3.4</speed>
<temp>0.00</temp>
<bpm>0</bpm>
<rpm>0.00</rpm>
</extensions>
</trkpt>
<trkpt lat="63.807556152" lon="-18.997739792">
<ele>595.781250</ele>
<time>2012-07-25T17:49:35Z</time>
<speed>3.850000</speed>
<extensions>
<speed>3.8</speed>
<temp>0.00</temp>
<bpm>0</bpm>
<rpm>0.00</rpm>
</extensions>
</trkpt>
<trkpt lat="63.807617188" lon="-18.998060226">
<ele>595.921875</ele>
<time>2012-07-25T17:49:40Z</time>
<speed>3.560000</speed>
<extensions>
<speed>3.6</speed>
<temp>0.00</temp>
<bpm>0</bpm>
<rpm>0.00</rpm>
</extensions>
</trkpt>
<trkpt lat="63.807659149" lon="-18.998449326">
<ele>593.515625</ele>
<time>2012-07-25T17:49:45Z</time>
<speed>4.160000</speed>
<extensions>
<speed>4.2</speed>
<temp>0.00</temp>
<bpm>0</bpm>
<rpm>0.00</rpm>
</extensions>
</trkpt>
<trkpt lat="63.807716370" lon="-18.998853683">
<ele>592.937500</ele>
<time>2012-07-25T17:49:50Z</time>
<speed>4.100000</speed>
<extensions>
<speed>4.1</speed>
<temp>0.00</temp>
<bpm>0</bpm>
<rpm>0.00</rpm>
</extensions>
</trkpt>
<trkpt lat="63.807769775" lon="-18.999261856">
<ele>591.718750</ele>
<time>2012-07-25T17:49:55Z</time>
<speed>4.190000</speed>
<extensions>
<speed>4.2</speed>
<temp>0.00</temp>
<bpm>0</bpm>
<rpm>0.00</rpm>
</extensions>
</trkpt>
<trkpt lat="63.807830811" lon="-18.999675751">
<ele>591.218750</ele>
<time>2012-07-25T17:50:00Z</time>
<speed>4.220000</speed>
<extensions>
<speed>4.2</speed>
<temp>0.00</temp>
<bpm>0</bpm>
<rpm>0.00</rpm>
</extensions>
</trkpt>
<trkpt lat="63.807891846" lon="-19.000089645">
<ele>591.609375</ele>
<time>2012-07-25T17:50:05Z</time>
<speed>4.040000</speed>
<extensions>
<speed>4.0</speed>
<temp>0.00</temp>
<bpm>0</bpm>
<rpm>0.00</rpm>
</extensions>
</trkpt>
<trkpt lat="63.807956696" lon="-19.000505447">
<ele>592.828125</ele>
<time>2012-07-25T17:50:10Z</time>
<speed>4.270000</speed>
<extensions>
<speed>4.3</speed>
<temp>0.00</temp>
<bpm>0</bpm>
<rpm>0.00</rpm>
</extensions>
</trkpt>
<trkpt lat="63.808021545" lon="-19.000917435">
<ele>593.375000</ele>
<time>2012-07-25T17:50:15Z</time>
<speed>4.200000</speed>
<extensions>
<speed>4.2</speed>
<temp>0.00</temp>
<bpm>0</bpm>
<rpm>0.00</rpm>
</extensions>
</trkpt>
<trkpt lat="63.808086395" lon="-19.001350403">
<ele>594.750000</ele>
<time>2012-07-25T17:50:20Z</time>
<speed>4.610000</speed>
<extensions>
<speed>4.6</speed>
<temp>0.00</temp>
<bpm>0</bpm>
<rpm>0.00</rpm>
</extensions>
</trkpt>
<trkpt lat="63.808162689" lon="-19.001735687">
<ele>596.281250</ele>
<time>2012-07-25T17:50:25Z</time>
<speed>4.020000</speed>
<extensions>
<speed>4.0</speed>
<temp>0.00</temp>
<bpm>0</bpm>
<rpm>0.00</rpm>
</extensions>
</trkpt>
<trkpt lat="63.808208466" lon="-19.002141953">
<ele>595.859375</ele>
<time>2012-07-25T17:50:30Z</time>
<speed>4.310000</speed>
<extensions>
<speed>4.3</speed>
<temp>0.00</temp>
<bpm>0</bpm>
<rpm>0.00</rpm>
</extensions>
</trkpt>
<trkpt lat="63.808258057" lon="-19.002573013">
<ele>594.781250</ele>
<time>2012-07-25T17:50:35Z</time>
<speed>4.270000</speed>
<extensions>
<speed>4.3</speed>
<temp>0.00</temp>
<bpm>0</bpm>
<rpm>0.00</rpm>
</extensions>
</trkpt>
<trkpt lat="63.808303833" lon="-19.002964020">
<ele>592.796875</ele>
<time>2012-07-25T17:50:40Z</time>
<speed>3.850000</speed>
<extensions>
<speed>3.8</speed>
<temp>0.00</temp>
<bpm>0</bpm>
<rpm>0.00</rpm>
</extensions>
</trkpt>
<trkpt lat="63.808349609" lon="-19.003341675">
<ele>593.406250</ele>
<time>2012-07-25T17:50:45Z</time>
<speed>3.830000</speed>
<extensions>
<speed>3.8</speed>
<temp>0.00</temp>
<bpm>0</bpm>
<rpm>0.00</rpm>
</extensions>
</trkpt>
<trkpt lat="63.808383942" lon="-19.003639221">
<ele>593.109375</ele>
<time>2012-07-25T17:50:50Z</time>
<speed>2.850000</speed>
<extensions>
<speed>2.9</speed>
<temp>0.00</temp>
<bpm>0</bpm>
<rpm>0.00</rpm>
</extensions>
</trkpt>
<trkpt lat="63.808414459" lon="-19.003963470">
<ele>594.156250</ele>
<time>2012-07-25T17:50:55Z</time>
<speed>3.200000</speed>
<extensions>
<speed>3.2</speed>
<temp>0.00</temp>
<bpm>0</bpm>
<rpm>0.00</rpm>
</extensions>
</trkpt>
<trkpt lat="63.808460236" lon="-19.004249573">
<ele>594.875000</ele>
<time>2012-07-25T17:51:00Z</time>
<speed>3.040000</speed>
<extensions>
<speed>3.0</speed>
<temp>0.00</temp>
<bpm>0</bpm>
<rpm>0.00</rpm>
</extensions>
</trkpt>
<trkpt lat="63.808506012" lon="-19.004541397">
<ele>595.953125</ele>
<time>2012-07-25T17:51:05Z</time>
<speed>3.230000</speed>
<extensions>
<speed>3.2</speed>
<temp>0.00</temp>
<bpm>0</bpm>
<rpm>0.00</rpm>
</extensions>
</trkpt>
<trkpt lat="63.808540344" lon="-19.004858017">
<ele>597.281250</ele>
<time>2012-07-25T17:51:10Z</time>
<speed>3.260000</speed>
<extensions>
<speed>3.3</speed>
<temp>0.00</temp>
<bpm>0</bpm>
<rpm>0.00</rpm>
</extensions>
</trkpt>
<trkpt lat="63.808582306" lon="-19.005176544">
<ele>598.265625</ele>
<time>2012-07-25T17:51:15Z</time>
<speed>3.440000</speed>
<extensions>
<speed>3.4</speed>
<temp>0.00</temp>
<bpm>0</bpm>
<rpm>0.00</rpm>
</extensions>
</trkpt>
<trkpt lat="63.808620453" lon="-19.005523682">
<ele>598.312500</ele>
<time>2012-07-25T17:51:20Z</time>
<speed>3.200000</speed>
<extensions>
<speed>3.2</speed>
<temp>0.00</temp>
<bpm>0</bpm>
<rpm>0.00</rpm>
</extensions>
</trkpt>
<trkpt lat="63.808654785" lon="-19.005861282">
<ele>599.515625</ele>
<time>2012-07-25T17:51:25Z</time>
<speed>3.200000</speed>
<extensions>
<speed>3.2</speed>
<temp>0.00</temp>
<bpm>0</bpm>
<rpm>0.00</rpm>
</extensions>
</trkpt>
<trkpt lat="63.808689117" lon="-19.006193161">
<ele>600.750000</ele>
<time>2012-07-25T17:51:30Z</time>
<speed>3.170000</speed>
<extensions>
<speed>3.2</speed>
<temp>0.00</temp>
<bpm>0</bpm>
<rpm>0.00</rpm>
</extensions>
</trkpt>
<trkpt lat="63.808715820" lon="-19.006481171">
<ele>601.156250</ele>
<time>2012-07-25T17:51:35Z</time>
<speed>2.930000</speed>
<extensions>
<speed>2.9</speed>
<temp>0.00</temp>
<bpm>0</bpm>
<rpm>0.00</rpm>
</extensions>
</trkpt>
<trkpt lat="63.808731079" lon="-19.006755829">
<ele>600.843750</ele>
<time>2012-07-25T17:51:40Z</time>
<speed>2.540000</speed>
<extensions>
<speed>2.5</speed>
<temp>0.00</temp>
<bpm>0</bpm>
<rpm>0.00</rpm>
</extensions>
</trkpt>
<trkpt lat="63.808750153" lon="-19.006998062">
<ele>601.218750</ele>
<time>2012-07-25T17:51:45Z</time>
<speed>2.610000</speed>
<extensions>
<speed>2.6</speed>
<temp>0.00</temp>
<bpm>0</bpm>
<rpm>0.00</rpm>
</extensions>
</trkpt>
<trkpt lat="63.808765411" lon="-19.007255554">
<ele>602.343750</ele>
<time>2012-07-25T17:51:50Z</time>
<speed>2.730000</speed>
<extensions>
<speed>2.7</speed>
<temp>0.00</temp>
<bpm>0</bpm>
<rpm>0.00</rpm>
</extensions>
</trkpt>
<trkpt lat="63.808784485" lon="-19.007526398">
<ele>601.859375</ele>
<time>2012-07-25T17:51:55Z</time>
<speed>2.500000</speed>
<extensions>
<speed>2.5</speed>
<temp>0.00</temp>
<bpm>0</bpm>
<rpm>0.00</rpm>
</extensions>
</trkpt>
<trkpt lat="63.808811188" lon="-19.007791519">
<ele>603.625000</ele>
<time>2012-07-25T17:52:00Z</time>
<speed>2.650000</speed>
<extensions>
<speed>2.6</speed>
<temp>0.00</temp>
<bpm>0</bpm>
<rpm>0.00</rpm>
</extensions>
</trkpt>
<trkpt lat="63.808841705" lon="-19.008035660">
<ele>605.328125</ele>
<time>2012-07-25T17:52:05Z</time>
<speed>2.690000</speed>
<extensions>
<speed>2.7</speed>
<temp>0.00</temp>
<bpm>0</bpm>
<rpm>0.00</rpm>
</extensions>
</trkpt>
<trkpt lat="63.808868408" lon="-19.008291245">
<ele>605.578125</ele>
<time>2012-07-25T17:52:10Z</time>
<speed>2.550000</speed>
<extensions>
<speed>2.6</speed>
<temp>0.00</temp>
<bpm>0</bpm>
<rpm>0.00</rpm>
</extensions>
</trkpt>
<trkpt lat="63.808887482" lon="-19.008583069">
<ele>603.015625</ele>
<time>2012-07-25T17:52:15Z</time>
<speed>2.570000</speed>
<extensions>
<speed>2.6</speed>
<temp>0.00</temp>
<bpm>0</bpm>
<rpm>0.00</rpm>
</extensions>
</trkpt>
<trkpt lat="63.808917999" lon="-19.008846283">
<ele>602.218750</ele>
<time>2012-07-25T17:52:20Z</time>
<speed>2.440000</speed>
<extensions>
<speed>2.4</speed>
<temp>0.00</temp>
<bpm>0</bpm>
<rpm>0.00</rpm>
</extensions>
</trkpt>
<trkpt lat="63.808956146" lon="-19.009088516">
<ele>602.359375</ele>
<time>2012-07-25T17:52:25Z</time>
<speed>2.590000</speed>
<extensions>
<speed>2.6</speed>
<temp>0.00</temp>
<bpm>0</bpm>
<rpm>0.00</rpm>
</extensions>
</trkpt>
<trkpt lat="63.808994293" lon="-19.009328842">
<ele>602.312500</ele>
<time>2012-07-25T17:52:30Z</time>
<speed>2.560000</speed>
<extensions>
<speed>2.6</speed>
<temp>0.00</temp>
<bpm>0</bpm>
<rpm>0.00</rpm>
</extensions>
</trkpt>
<trkpt lat="63.809043884" lon="-19.009597778">
<ele>601.968750</ele>
<time>2012-07-25T17:52:35Z</time>
<speed>2.640000</speed>
<extensions>
<speed>2.6</speed>
<temp>0.00</temp>
<bpm>0</bpm>
<rpm>0.00</rpm>
</extensions>
</trkpt>
<trkpt lat="63.809074402" lon="-19.009859085">
<ele>601.031250</ele>
<time>2012-07-25T17:52:40Z</time>
<speed>2.720000</speed>
<extensions>
<speed>2.7</speed>
<temp>0.00</temp>
<bpm>0</bpm>
<rpm>0.00</rpm>
</extensions>
</trkpt>
<trkpt lat="63.809120178" lon="-19.010129929">
<ele>602.062500</ele>
<time>2012-07-25T17:52:45Z</time>
<speed>2.750000</speed>
<extensions>
<speed>2.7</speed>
<temp>0.00</temp>
<bpm>0</bpm>
<rpm>0.00</rpm>
</extensions>
</trkpt>
<trkpt lat="63.809158325" lon="-19.010370255">
<ele>601.750000</ele>
<time>2012-07-25T17:52:50Z</time>
<speed>2.500000</speed>
<extensions>
<speed>2.5</speed>
<temp>0.00</temp>
<bpm>0</bpm>
<rpm>0.00</rpm>
</extensions>
</trkpt>
<trkpt lat="63.809196472" lon="-19.010614395">
<ele>601.234375</ele>
<time>2012-07-25T17:52:55Z</time>
<speed>2.620000</speed>
<extensions>
<speed>2.6</speed>
<temp>0.00</temp>
<bpm>0</bpm>
<rpm>0.00</rpm>
</extensions>
</trkpt>
<trkpt lat="63.809234619" lon="-19.010885239">
<ele>601.921875</ele>
<time>2012-07-25T17:53:00Z</time>
<speed>2.600000</speed>
<extensions>
<speed>2.6</speed>
<temp>0.00</temp>
<bpm>0</bpm>
<rpm>0.00</rpm>
</extensions>
</trkpt>
<trkpt lat="63.809276581" lon="-19.011150360">
<ele>601.734375</ele>
<time>2012-07-25T17:53:05Z</time>
<speed>2.700000</speed>
<extensions>
<speed>2.7</speed>
<temp>0.00</temp>
<bpm>0</bpm>
<rpm>0.00</rpm>
</extensions>
</trkpt>
<trkpt lat="63.809322357" lon="-19.011407852">
<ele>602.000000</ele>
<time>2012-07-25T17:53:10Z</time>
<speed>2.540000</speed>
<extensions>
<speed>2.5</speed>
<temp>0.00</temp>
<bpm>0</bpm>
<rpm>0.00</rpm>
</extensions>
</trkpt>
<trkpt lat="63.809364319" lon="-19.011676788">
<ele>602.109375</ele>
<time>2012-07-25T17:53:15Z</time>
<speed>2.700000</speed>
<extensions>
<speed>2.7</speed>
<temp>0.00</temp>
<bpm>0</bpm>
<rpm>0.00</rpm>
</extensions>
</trkpt>
<trkpt lat="63.809402466" lon="-19.011957169">
<ele>602.171875</ele>
<time>2012-07-25T17:53:20Z</time>
<speed>2.900000</speed>
<extensions>
<speed>2.9</speed>
<temp>0.00</temp>
<bpm>0</bpm>
<rpm>0.00</rpm>
</extensions>
</trkpt>
<trkpt lat="63.809436798" lon="-19.012220383">
<ele>602.468750</ele>
<time>2012-07-25T17:53:25Z</time>
<speed>2.740000</speed>
<extensions>
<speed>2.7</speed>
<temp>0.00</temp>
<bpm>0</bpm>
<rpm>0.00</rpm>
</extensions>
</trkpt>
<trkpt lat="63.809471130" lon="-19.012475967">
<ele>604.328125</ele>
<time>2012-07-25T17:53:30Z</time>
<speed>2.650000</speed>
<extensions>
<speed>2.6</speed>
<temp>0.00</temp>
<bpm>0</bpm>
<rpm>0.00</rpm>
</extensions>
</trkpt>
<trkpt lat="63.809509277" lon="-19.012744904">
<ele>605.500000</ele>
<time>2012-07-25T17:53:35Z</time>
<speed>2.950000</speed>
<extensions>
<speed>2.9</speed>
<temp>0.00</temp>
<bpm>0</bpm>
<rpm>0.00</rpm>
</extensions>
</trkpt>
<trkpt lat="63.809543610" lon="-19.013006210">
<ele>605.921875</ele>
<time>2012-07-25T17:53:40Z</time>
<speed>2.500000</speed>
<extensions>
<speed>2.5</speed>
<temp>0.00</temp>
<bpm>0</bpm>
<rpm>0.00</rpm>
</extensions>
</trkpt>
<trkpt lat="63.809581757" lon="-19.013275146">
<ele>606.000000</ele>
<time>2012-07-25T17:53:45Z</time>
<speed>2.560000</speed>
<extensions>
<speed>2.6</speed>
<temp>0.00</temp>
<bpm>0</bpm>
<rpm>0.00</rpm>
</extensions>
</trkpt>
<trkpt lat="63.809642792" lon="-19.013538361">
<ele>606.250000</ele>
<time>2012-07-25T17:53:50Z</time>
<speed>2.850000</speed>
<extensions>
<speed>2.9</speed>
<temp>0.00</temp>
<bpm>0</bpm>
<rpm>0.00</rpm>
</extensions>
</trkpt>
<trkpt lat="63.809692383" lon="-19.013818741">
<ele>606.421875</ele>
<time>2012-07-25T17:53:55Z</time>
<speed>2.860000</speed>
<extensions>
<speed>2.9</speed>
<temp>0.00</temp>
<bpm>0</bpm>
<rpm>0.00</rpm>
</extensions>
</trkpt>
<trkpt lat="63.809726715" lon="-19.014108658">
<ele>606.593750</ele>
<time>2012-07-25T17:54:00Z</time>
<speed>2.790000</speed>
<extensions>
<speed>2.8</speed>
<temp>0.00</temp>
<bpm>0</bpm>
<rpm>0.00</rpm>
</extensions>
</trkpt>
<trkpt lat="63.809772491" lon="-19.014392853">
<ele>607.140625</ele>
<time>2012-07-25T17:54:05Z</time>
<speed>3.090000</speed>
<extensions>
<speed>3.1</speed>
<temp>0.00</temp>
<bpm>0</bpm>
<rpm>0.00</rpm>
</extensions>
</trkpt>
<trkpt lat="63.809795380" lon="-19.014614105">
<ele>603.812500</ele>
<time>2012-07-25T17:54:10Z</time>
<speed>1.940000</speed>
<extensions>
<speed>1.9</speed>
<temp>0.00</temp>
<bpm>0</bpm>
<rpm>0.00</rpm>
</extensions>
</trkpt>
<trkpt lat="63.809841156" lon="-19.014913559">
<ele>604.593750</ele>
<time>2012-07-25T17:54:15Z</time>
<speed>2.810000</speed>
<extensions>
<speed>2.8</speed>
<temp>0.00</temp>
<bpm>0</bpm>
<rpm>0.00</rpm>
</extensions>
</trkpt>
<trkpt lat="63.809890747" lon="-19.015190125">
<ele>604.515625</ele>
<time>2012-07-25T17:54:20Z</time>
<speed>2.370000</speed>
<extensions>
<speed>2.4</speed>
<temp>0.00</temp>
<bpm>0</bpm>
<rpm>0.00</rpm>
</extensions>
</trkpt>
<trkpt lat="63.809921265" lon="-19.015472412">
<ele>604.406250</ele>
<time>2012-07-25T17:54:25Z</time>
<speed>3.150000</speed>
<extensions>
<speed>3.2</speed>
<temp>0.00</temp>
<bpm>0</bpm>
<rpm>0.00</rpm>
</extensions>
</trkpt>
<trkpt lat="63.809974670" lon="-19.015779495">
<ele>603.187500</ele>
<time>2012-07-25T17:54:30Z</time>
<speed>3.180000</speed>
<extensions>
<speed>3.2</speed>
<temp>0.00</temp>
<bpm>0</bpm>
<rpm>0.00</rpm>
</extensions>
</trkpt>
<trkpt lat="63.810016632" lon="-19.016090393">
<ele>602.812500</ele>
<time>2012-07-25T17:54:35Z</time>
<speed>2.970000</speed>
<extensions>
<speed>3.0</speed>
<temp>0.00</temp>
<bpm>0</bpm>
<rpm>0.00</rpm>
</extensions>
</trkpt>
<trkpt lat="63.810073853" lon="-19.016366959">
<ele>602.015625</ele>
<time>2012-07-25T17:54:40Z</time>
<speed>2.790000</speed>
<extensions>
<speed>2.8</speed>
<temp>0.00</temp>
<bpm>0</bpm>
<rpm>0.00</rpm>
</extensions>
</trkpt>
<trkpt lat="63.810123444" lon="-19.016651154">
<ele>601.531250</ele>
<time>2012-07-25T17:54:45Z</time>
<speed>3.050000</speed>
<extensions>
<speed>3.0</speed>
<temp>0.00</temp>
<bpm>0</bpm>
<rpm>0.00</rpm>
</extensions>
</trkpt>
<trkpt lat="63.810169220" lon="-19.016902924">
<ele>601.015625</ele>
<time>2012-07-25T17:54:50Z</time>
<speed>2.150000</speed>
<extensions>
<speed>2.1</speed>
<temp>0.00</temp>
<bpm>0</bpm>
<rpm>0.00</rpm>
</extensions>
</trkpt>
<trkpt lat="63.810207367" lon="-19.017097473">
<ele>599.453125</ele>
<time>2012-07-25T17:54:55Z</time>
<speed>2.150000</speed>
<extensions>
<speed>2.1</speed>
<temp>0.00</temp>
<bpm>0</bpm>
<rpm>0.00</rpm>
</extensions>
</trkpt>
<trkpt lat="63.810234070" lon="-19.017257690">
<ele>598.281250</ele>
<time>2012-07-25T17:55:00Z</time>
<speed>1.720000</speed>
<extensions>
<speed>1.7</speed>
<temp>0.00</temp>
<bpm>0</bpm>
<rpm>0.00</rpm>
</extensions>
</trkpt>
<trkpt lat="63.810249329" lon="-19.017375946">
<ele>598.343750</ele>
<time>2012-07-25T17:55:05Z</time>
<speed>0.900000</speed>
<extensions>
<speed>0.9</speed>
<temp>0.00</temp>
<bpm>0</bpm>
<rpm>0.00</rpm>
</extensions>
</trkpt>
<trkpt lat="63.810287476" lon="-19.017560959">
<ele>597.265625</ele>
<time>2012-07-25T17:55:10Z</time>
<speed>1.610000</speed>
<extensions>
<speed>1.6</speed>
<temp>0.00</temp>
<bpm>0</bpm>
<rpm>0.00</rpm>
</extensions>
</trkpt>
<trkpt lat="63.810317993" lon="-19.017721176">
<ele>597.218750</ele>
<time>2012-07-25T17:55:15Z</time>
<speed>1.620000</speed>
<extensions>
<speed>1.6</speed>
<temp>0.00</temp>
<bpm>0</bpm>
<rpm>0.00</rpm>
</extensions>
</trkpt>
<trkpt lat="63.810340881" lon="-19.017911911">
<ele>597.328125</ele>
<time>2012-07-25T17:55:20Z</time>
<speed>2.100000</speed>
<extensions>
<speed>2.1</speed>
<temp>0.00</temp>
<bpm>0</bpm>
<rpm>0.00</rpm>
</extensions>
</trkpt>
<trkpt lat="63.810367584" lon="-19.018085480">
<ele>597.968750</ele>
<time>2012-07-25T17:55:25Z</time>
<speed>2.220000</speed>
<extensions>
<speed>2.2</speed>
<temp>0.00</temp>
<bpm>0</bpm>
<rpm>0.00</rpm>
</extensions>
</trkpt>
<trkpt lat="63.810409546" lon="-19.018264771">
<ele>598.921875</ele>
<time>2012-07-25T17:55:30Z</time>
<speed>1.510000</speed>
<extensions>
<speed>1.5</speed>
<temp>0.00</temp>
<bpm>0</bpm>
<rpm>0.00</rpm>
</extensions>
</trkpt>
<trkpt lat="63.810428619" lon="-19.018384933">
<ele>600.031250</ele>
<time>2012-07-25T17:55:35Z</time>
<speed>1.080000</speed>
<extensions>
<speed>1.1</speed>
<temp>0.00</temp>
<bpm>0</bpm>
<rpm>0.00</rpm>
</extensions>
</trkpt>
<trkpt lat="63.810459137" lon="-19.018587112">
<ele>600.390625</ele>
<time>2012-07-25T17:55:40Z</time>
<speed>2.170000</speed>
<extensions>
<speed>2.2</speed>
<temp>0.00</temp>
<bpm>0</bpm>
<rpm>0.00</rpm>
</extensions>
</trkpt>
<trkpt lat="63.810497284" lon="-19.018770218">
<ele>600.921875</ele>
<time>2012-07-25T17:55:45Z</time>
<speed>1.630000</speed>
<extensions>
<speed>1.6</speed>
<temp>0.00</temp>
<bpm>0</bpm>
<rpm>0.00</rpm>
</extensions>
</trkpt>
<trkpt lat="63.810527802" lon="-19.018920898">
<ele>601.062500</ele>
<time>2012-07-25T17:55:50Z</time>
<speed>1.910000</speed>
<extensions>
<speed>1.9</speed>
<temp>0.00</temp>
<bpm>0</bpm>
<rpm>0.00</rpm>
</extensions>
</trkpt>
<trkpt lat="63.810577393" lon="-19.019216537">
<ele>599.828125</ele>
<time>2012-07-25T17:55:55Z</time>
<speed>4.120000</speed>
<extensions>
<speed>4.1</speed>
<temp>0.00</temp>
<bpm>0</bpm>
<rpm>0.00</rpm>
</extensions>
</trkpt>
<trkpt lat="63.810642242" lon="-19.019557953">
<ele>600.156250</ele>
<time>2012-07-25T17:56:00Z</time>
<speed>3.240000</speed>
<extensions>
<speed>3.2</speed>
<temp>0.00</temp>
<bpm>0</bpm>
<rpm>0.00</rpm>
</extensions>
</trkpt>
<trkpt lat="63.810684204" lon="-19.019842148">
<ele>600.343750</ele>
<time>2012-07-25T17:56:05Z</time>
<speed>2.510000</speed>
<extensions>
<speed>2.5</speed>
<temp>0.00</temp>
<bpm>0</bpm>
<rpm>0.00</rpm>
</extensions>
</trkpt>
<trkpt lat="63.810699463" lon="-19.020051956">
<ele>599.859375</ele>
<time>2012-07-25T17:56:10Z</time>
<speed>2.840000</speed>
<extensions>
<speed>2.8</speed>
<temp>0.00</temp>
<bpm>0</bpm>
<rpm>0.00</rpm>
</extensions>
</trkpt>
<trkpt lat="63.810741425" lon="-19.020288467">
<ele>600.421875</ele>
<time>2012-07-25T17:56:15Z</time>
<speed>2.420000</speed>
<extensions>
<speed>2.4</speed>
<temp>0.00</temp>
<bpm>0</bpm>
<rpm>0.00</rpm>
</extensions>
</trkpt>
<trkpt lat="63.810771942" lon="-19.020511627">
<ele>600.406250</ele>
<time>2012-07-25T17:56:20Z</time>
<speed>1.980000</speed>
<extensions>
<speed>2.0</speed>
<temp>0.00</temp>
<bpm>0</bpm>
<rpm>0.00</rpm>
</extensions>
</trkpt>
<trkpt lat="63.810768127" lon="-19.020683289">
<ele>601.046875</ele>
<time>2012-07-25T17:56:25Z</time>
<speed>1.700000</speed>
<extensions>
<speed>1.7</speed>
<temp>0.00</temp>
<bpm>0</bpm>
<rpm>0.00</rpm>
</extensions>
</trkpt>
<trkpt lat="63.810798645" lon="-19.020793915">
<ele>601.937500</ele>
<time>2012-07-25T17:56:30Z</time>
<speed>0.860000</speed>
<extensions>
<speed>0.9</speed>
<temp>0.00</temp>
<bpm>0</bpm>
<rpm>0.00</rpm>
</extensions>
</trkpt>
<trkpt lat="63.810825348" lon="-19.020923615">
<ele>603.171875</ele>
<time>2012-07-25T17:56:35Z</time>
<speed>1.900000</speed>
<extensions>
<speed>1.9</speed>
<temp>0.00</temp>
<bpm>0</bpm>
<rpm>0.00</rpm>
</extensions>
</trkpt>
<trkpt lat="63.810855865" lon="-19.021059036">
<ele>603.953125</ele>
<time>2012-07-25T17:56:40Z</time>
<speed>1.070000</speed>
<extensions>
<speed>1.1</speed>
<temp>0.00</temp>
<bpm>0</bpm>
<rpm>0.00</rpm>
</extensions>
</trkpt>
<trkpt lat="63.810897827" lon="-19.021255493">
<ele>603.937500</ele>
<time>2012-07-25T17:56:45Z</time>
<speed>3.030000</speed>
<extensions>
<speed>3.0</speed>
<temp>0.00</temp>
<bpm>0</bpm>
<rpm>0.00</rpm>
</extensions>
</trkpt>
<trkpt lat="63.810970306" lon="-19.021593094">
<ele>604.750000</ele>
<time>2012-07-25T17:56:50Z</time>
<speed>3.730000</speed>
<extensions>
<speed>3.7</speed>
<temp>0.00</temp>
<bpm>0</bpm>
<rpm>0.00</rpm>
</extensions>
</trkpt>
<trkpt lat="63.811012268" lon="-19.021917343">
<ele>601.593750</ele>
<time>2012-07-25T17:56:55Z</time>
<speed>3.140000</speed>
<extensions>
<speed>3.1</speed>
<temp>0.00</temp>
<bpm>0</bpm>
<rpm>0.00</rpm>
</extensions>
</trkpt>
<trkpt lat="63.811061859" lon="-19.022232056">
<ele>599.437500</ele>
<time>2012-07-25T17:57:00Z</time>
<speed>3.940000</speed>
<extensions>
<speed>3.9</speed>
<temp>0.00</temp>
<bpm>0</bpm>
<rpm>0.00</rpm>
</extensions>
</trkpt>
<trkpt lat="63.811126709" lon="-19.022603989">
<ele>598.796875</ele>
<time>2012-07-25T17:57:05Z</time>
<speed>4.490000</speed>
<extensions>
<speed>4.5</speed>
<temp>0.00</temp>
<bpm>0</bpm>
<rpm>0.00</rpm>
</extensions>
</trkpt>
<trkpt lat="63.811191559" lon="-19.022989273">
<ele>599.156250</ele>
<time>2012-07-25T17:57:10Z</time>
<speed>4.260000</speed>
<extensions>
<speed>4.3</speed>
<temp>0.00</temp>
<bpm>0</bpm>
<rpm>0.00</rpm>
</extensions>
</trkpt>
<trkpt lat="63.811271667" lon="-19.023403168">
<ele>599.312500</ele>
<time>2012-07-25T17:57:15Z</time>
<speed>4.490000</speed>
<extensions>
<speed>4.5</speed>
<temp>0.00</temp>
<bpm>0</bpm>
<rpm>0.00</rpm>
</extensions>
</trkpt>
<trkpt lat="63.811344147" lon="-19.023750305">
<ele>599.390625</ele>
<time>2012-07-25T17:57:20Z</time>
<speed>4.040000</speed>
<extensions>
<speed>4.0</speed>
<temp>0.00</temp>
<bpm>0</bpm>
<rpm>0.00</rpm>
</extensions>
</trkpt>
<trkpt lat="63.811416626" lon="-19.024177551">
<ele>599.843750</ele>
<time>2012-07-25T17:57:25Z</time>
<speed>4.490000</speed>
<extensions>
<speed>4.5</speed>
<temp>0.00</temp>
<bpm>0</bpm>
<rpm>0.00</rpm>
</extensions>
</trkpt>
<trkpt lat="63.811481476" lon="-19.024637222">
<ele>599.984375</ele>
<time>2012-07-25T17:57:30Z</time>
<speed>4.750000</speed>
<extensions>
<speed>4.8</speed>
<temp>0.00</temp>
<bpm>0</bpm>
<rpm>0.00</rpm>
</extensions>
</trkpt>
<trkpt lat="63.811550140" lon="-19.025056839">
<ele>600.718750</ele>
<time>2012-07-25T17:57:35Z</time>
<speed>3.800000</speed>
<extensions>
<speed>3.8</speed>
<temp>0.00</temp>
<bpm>0</bpm>
<rpm>0.00</rpm>
</extensions>
</trkpt>
<trkpt lat="63.811607361" lon="-19.025379181">
<ele>601.671875</ele>
<time>2012-07-25T17:57:40Z</time>
<speed>2.760000</speed>
<extensions>
<speed>2.8</speed>
<temp>0.00</temp>
<bpm>0</bpm>
<rpm>0.00</rpm>
</extensions>
</trkpt>
<trkpt lat="63.811649323" lon="-19.025568008">
<ele>602.437500</ele>
<time>2012-07-25T17:57:45Z</time>
<speed>2.120000</speed>
<extensions>
<speed>2.1</speed>
<temp>0.00</temp>
<bpm>0</bpm>
<rpm>0.00</rpm>
</extensions>
</trkpt>
<trkpt lat="63.811687469" lon="-19.025758743">
<ele>601.828125</ele>
<time>2012-07-25T17:57:50Z</time>
<speed>2.030000</speed>
<extensions>
<speed>2.0</speed>
<temp>0.00</temp>
<bpm>0</bpm>
<rpm>0.00</rpm>
</extensions>
</trkpt>
<trkpt lat="63.811702728" lon="-19.025934219">
<ele>601.640625</ele>
<time>2012-07-25T17:57:55Z</time>
<speed>1.850000</speed>
<extensions>
<speed>1.8</speed>
<temp>0.00</temp>
<bpm>0</bpm>
<rpm>0.00</rpm>
</extensions>
</trkpt>
<trkpt lat="63.811744690" lon="-19.026111603">
<ele>603.296875</ele>
<time>2012-07-25T17:58:00Z</time>
<speed>1.460000</speed>
<extensions>
<speed>1.5</speed>
<temp>0.00</temp>
<bpm>0</bpm>
<rpm>0.00</rpm>
</extensions>
</trkpt>
<trkpt lat="63.811763763" lon="-19.026218414">
<ele>604.156250</ele>
<time>2012-07-25T17:58:05Z</time>
<speed>1.700000</speed>
<extensions>
<speed>1.7</speed>
<temp>0.00</temp>
<bpm>0</bpm>
<rpm>0.00</rpm>
</extensions>
</trkpt>
<trkpt lat="63.811809540" lon="-19.026432037">
<ele>604.531250</ele>
<time>2012-07-25T17:58:10Z</time>
<speed>2.430000</speed>
<extensions>
<speed>2.4</speed>
<temp>0.00</temp>
<bpm>0</bpm>
<rpm>0.00</rpm>
</extensions>
</trkpt>
<trkpt lat="63.811855316" lon="-19.026693344">
<ele>605.750000</ele>
<time>2012-07-25T17:58:15Z</time>
<speed>3.140000</speed>
<extensions>
<speed>3.1</speed>
<temp>0.00</temp>
<bpm>0</bpm>
<rpm>0.00</rpm>
</extensions>
</trkpt>
<trkpt lat="63.811904907" lon="-19.027015686">
<ele>604.203125</ele>
<time>2012-07-25T17:58:20Z</time>
<speed>3.080000</speed>
<extensions>
<speed>3.1</speed>
<temp>0.00</temp>
<bpm>0</bpm>
<rpm>0.00</rpm>
</extensions>
</trkpt>
<trkpt lat="63.811962128" lon="-19.027334213">
<ele>603.718750</ele>
<time>2012-07-25T17:58:25Z</time>
<speed>3.590000</speed>
<extensions>
<speed>3.6</speed>
<temp>0.00</temp>
<bpm>0</bpm>
<rpm>0.00</rpm>
</extensions>
</trkpt>
<trkpt lat="63.812007904" lon="-19.027666092">
<ele>603.828125</ele>
<time>2012-07-25T17:58:30Z</time>
<speed>3.240000</speed>
<extensions>
<speed>3.2</speed>
<temp>0.00</temp>
<bpm>0</bpm>
<rpm>0.00</rpm>
</extensions>
</trkpt>
<trkpt lat="63.812053680" lon="-19.027950287">
<ele>603.562500</ele>
<time>2012-07-25T17:58:35Z</time>
<speed>2.600000</speed>
<extensions>
<speed>2.6</speed>
<temp>0.00</temp>
<bpm>0</bpm>
<rpm>0.00</rpm>
</extensions>
</trkpt>
<trkpt lat="63.812107086" lon="-19.028196335">
<ele>603.812500</ele>
<time>2012-07-25T17:58:40Z</time>
<speed>3.100000</speed>
<extensions>
<speed>3.1</speed>
<temp>0.00</temp>
<bpm>0</bpm>
<rpm>0.00</rpm>
</extensions>
</trkpt>
<trkpt lat="63.812171936" lon="-19.028469086">
<ele>605.234375</ele>
<time>2012-07-25T17:58:45Z</time>
<speed>3.200000</speed>
<extensions>
<speed>3.2</speed>
<temp>0.00</temp>
<bpm>0</bpm>
<rpm>0.00</rpm>
</extensions>
</trkpt>
<trkpt lat="63.812221527" lon="-19.028753281">
<ele>605.500000</ele>
<time>2012-07-25T17:58:50Z</time>
<speed>3.390000</speed>
<extensions>
<speed>3.4</speed>
<temp>0.00</temp>
<bpm>0</bpm>
<rpm>0.00</rpm>
</extensions>
</trkpt>
<trkpt lat="63.812274933" lon="-19.029087067">
<ele>605.765625</ele>
<time>2012-07-25T17:58:55Z</time>
<speed>3.370000</speed>
<extensions>
<speed>3.4</speed>
<temp>0.00</temp>
<bpm>0</bpm>
<rpm>0.00</rpm>
</extensions>
</trkpt>
<trkpt lat="63.812324524" lon="-19.029403687">
<ele>604.531250</ele>
<time>2012-07-25T17:59:00Z</time>
<speed>3.420000</speed>
<extensions>
<speed>3.4</speed>
<temp>0.00</temp>
<bpm>0</bpm>
<rpm>0.00</rpm>
</extensions>
</trkpt>
<trkpt lat="63.812366486" lon="-19.029785156">
<ele>602.578125</ele>
<time>2012-07-25T17:59:05Z</time>
<speed>3.740000</speed>
<extensions>
<speed>3.7</speed>
<temp>0.00</temp>
<bpm>0</bpm>
<rpm>0.00</rpm>
</extensions>
</trkpt>
<trkpt lat="63.812423706" lon="-19.030084610">
<ele>602.796875</ele>
<time>2012-07-25T17:59:10Z</time>
<speed>3.100000</speed>
<extensions>
<speed>3.1</speed>
<temp>0.00</temp>
<bpm>0</bpm>
<rpm>0.00</rpm>
</extensions>
</trkpt>
<trkpt lat="63.812465668" lon="-19.030399323">
<ele>603.218750</ele>
<time>2012-07-25T17:59:15Z</time>
<speed>3.250000</speed>
<extensions>
<speed>3.2</speed>
<temp>0.00</temp>
<bpm>0</bpm>
<rpm>0.00</rpm>
</extensions>
</trkpt>
<trkpt lat="63.812522888" lon="-19.030658722">
<ele>603.015625</ele>
<time>2012-07-25T17:59:20Z</time>
<speed>3.310000</speed>
<extensions>
<speed>3.3</speed>
<temp>0.00</temp>
<bpm>0</bpm>
<rpm>0.00</rpm>
</extensions>
</trkpt>
<trkpt lat="63.812595367" lon="-19.030963898">
<ele>607.390625</ele>
<time>2012-07-25T17:59:25Z</time>
<speed>3.100000</speed>
<extensions>
<speed>3.1</speed>
<temp>0.00</temp>
<bpm>0</bpm>
<rpm>0.00</rpm>
</extensions>
</trkpt>
<trkpt lat="63.812648773" lon="-19.031303406">
<ele>608.328125</ele>
<time>2012-07-25T17:59:30Z</time>
<speed>3.530000</speed>
<extensions>
<speed>3.5</speed>
<temp>0.00</temp>
<bpm>0</bpm>
<rpm>0.00</rpm>
</extensions>
</trkpt>
<trkpt lat="63.812698364" lon="-19.031641006">
<ele>609.250000</ele>
<time>2012-07-25T17:59:35Z</time>
<speed>3.420000</speed>
<extensions>
<speed>3.4</speed>
<temp>0.00</temp>
<bpm>0</bpm>
<rpm>0.00</rpm>
</extensions>
</trkpt>
<trkpt lat="63.812759399" lon="-19.031965256">
<ele>609.562500</ele>
<time>2012-07-25T17:59:40Z</time>
<speed>4.140000</speed>
<extensions>
<speed>4.1</speed>
<temp>0.00</temp>
<bpm>0</bpm>
<rpm>0.00</rpm>
</extensions>
</trkpt>
<trkpt lat="63.812812805" lon="-19.032287598">
<ele>607.140625</ele>
<time>2012-07-25T17:59:45Z</time>
<speed>3.380000</speed>
<extensions>
<speed>3.4</speed>
<temp>0.00</temp>
<bpm>0</bpm>
<rpm>0.00</rpm>
</extensions>
</trkpt>
<trkpt lat="63.812854767" lon="-19.032581329">
<ele>604.390625</ele>
<time>2012-07-25T17:59:50Z</time>
<speed>3.650000</speed>
<extensions>
<speed>3.7</speed>
<temp>0.00</temp>
<bpm>0</bpm>
<rpm>0.00</rpm>
</extensions>
</trkpt>
<trkpt lat="63.812896729" lon="-19.032909393">
<ele>602.140625</ele>
<time>2012-07-25T17:59:55Z</time>
<speed>3.530000</speed>
<extensions>
<speed>3.5</speed>
<temp>0.00</temp>
<bpm>0</bpm>
<rpm>0.00</rpm>
</extensions>
</trkpt>
<trkpt lat="63.812946320" lon="-19.033237457">
<ele>600.906250</ele>
<time>2012-07-25T18:00:00Z</time>
<speed>3.340000</speed>
<extensions>
<speed>3.3</speed>
<temp>0.00</temp>
<bpm>0</bpm>
<rpm>0.00</rpm>
</extensions>
</trkpt>
<trkpt lat="63.813003540" lon="-19.033554077">
<ele>599.453125</ele>
<time>2012-07-25T18:00:05Z</time>
<speed>3.260000</speed>
<extensions>
<speed>3.3</speed>
<temp>0.00</temp>
<bpm>0</bpm>
<rpm>0.00</rpm>
</extensions>
</trkpt>
<trkpt lat="63.813060760" lon="-19.033872604">
<ele>600.156250</ele>
<time>2012-07-25T18:00:10Z</time>
<speed>3.330000</speed>
<extensions>
<speed>3.3</speed>
<temp>0.00</temp>
<bpm>0</bpm>
<rpm>0.00</rpm>
</extensions>
</trkpt>
<trkpt lat="63.813106537" lon="-19.034170151">
<ele>600.859375</ele>
<time>2012-07-25T18:00:15Z</time>
<speed>3.040000</speed>
<extensions>
<speed>3.0</speed>
<temp>0.00</temp>
<bpm>0</bpm>
<rpm>0.00</rpm>
</extensions>
</trkpt>
<trkpt lat="63.813152313" lon="-19.034473419">
<ele>600.937500</ele>
<time>2012-07-25T18:00:20Z</time>
<speed>3.250000</speed>
<extensions>
<speed>3.2</speed>
<temp>0.00</temp>
<bpm>0</bpm>
<rpm>0.00</rpm>
</extensions>
</trkpt>
<trkpt lat="63.813205719" lon="-19.034774780">
<ele>600.468750</ele>
<time>2012-07-25T18:00:25Z</time>
<speed>3.290000</speed>
<extensions>
<speed>3.3</speed>
<temp>0.00</temp>
<bpm>0</bpm>
<rpm>0.00</rpm>
</extensions>
</trkpt>
<trkpt lat="63.813255310" lon="-19.035079956">
<ele>600.875000</ele>
<time>2012-07-25T18:00:30Z</time>
<speed>3.270000</speed>
<extensions>
<speed>3.3</speed>
<temp>0.00</temp>
<bpm>0</bpm>
<rpm>0.00</rpm>
</extensions>
</trkpt>
<trkpt lat="63.813308716" lon="-19.035381317">
<ele>600.609375</ele>
<time>2012-07-25T18:00:35Z</time>
<speed>3.210000</speed>
<extensions>
<speed>3.2</speed>
<temp>0.00</temp>
<bpm>0</bpm>
<rpm>0.00</rpm>
</extensions>
</trkpt>
<trkpt lat="63.813354492" lon="-19.035680771">
<ele>599.828125</ele>
<time>2012-07-25T18:00:40Z</time>
<speed>2.990000</speed>
<extensions>
<speed>3.0</speed>
<temp>0.00</temp>
<bpm>0</bpm>
<rpm>0.00</rpm>
</extensions>
</trkpt>
<trkpt lat="63.813396454" lon="-19.035984039">
<ele>600.125000</ele>
<time>2012-07-25T18:00:45Z</time>
<speed>3.050000</speed>
<extensions>
<speed>3.0</speed>
<temp>0.00</temp>
<bpm>0</bpm>
<rpm>0.00</rpm>
</extensions>
</trkpt>
<trkpt lat="63.813438416" lon="-19.036277771">
<ele>599.703125</ele>
<time>2012-07-25T18:00:50Z</time>
<speed>2.880000</speed>
<extensions>
<speed>2.9</speed>
<temp>0.00</temp>
<bpm>0</bpm>
<rpm>0.00</rpm>
</extensions>
</trkpt>
<trkpt lat="63.813484192" lon="-19.036504745">
<ele>600.125000</ele>
<time>2012-07-25T18:00:55Z</time>
<speed>1.700000</speed>
<extensions>
<speed>1.7</speed>
<temp>0.00</temp>
<bpm>0</bpm>
<rpm>0.00</rpm>
</extensions>
</trkpt>
<trkpt lat="63.813491821" lon="-19.036508560">
<ele>601.671875</ele>
<time>2012-07-25T18:01:00Z</time>
<speed>0.060000</speed>
<extensions>
<speed>0.1</speed>
<temp>0.00</temp>
<bpm>0</bpm>
<rpm>0.00</rpm>
</extensions>
</trkpt>
<trkpt lat="63.813491821" lon="-19.036510468">
<ele>601.671875</ele>
<time>2012-07-25T18:01:05Z</time>
<speed>0.030000</speed>
<extensions>
<speed>0.0</speed>
<temp>0.00</temp>
<bpm>0</bpm>
<rpm>0.00</rpm>
</extensions>
</trkpt>
<trkpt lat="63.813491821" lon="-19.036510468">
<ele>601.640625</ele>
<time>2012-07-25T18:01:10Z</time>
<speed>0.010000</speed>
<extensions>
<speed>0.0</speed>
<temp>0.00</temp>
<bpm>0</bpm>
<rpm>0.00</rpm>
</extensions>
</trkpt>
<trkpt lat="63.813491821" lon="-19.036510468">
<ele>601.640625</ele>
<time>2012-07-25T18:01:15Z</time>
<speed>0.010000</speed>
<extensions>
<speed>0.0</speed>
<temp>0.00</temp>
<bpm>0</bpm>
<rpm>0.00</rpm>
</extensions>
</trkpt>
<trkpt lat="63.813491821" lon="-19.036512375">
<ele>601.625000</ele>
<time>2012-07-25T18:01:20Z</time>
<speed>0.050000</speed>
<extensions>
<speed>0.1</speed>
<temp>0.00</temp>
<bpm>0</bpm>
<rpm>0.00</rpm>
</extensions>
</trkpt>
<trkpt lat="63.813491821" lon="-19.036516190">
<ele>601.437500</ele>
<time>2012-07-25T18:01:25Z</time>
<speed>0.010000</speed>
<extensions>
<speed>0.0</speed>
<temp>0.00</temp>
<bpm>0</bpm>
<rpm>0.00</rpm>
</extensions>
</trkpt>
<trkpt lat="63.813491821" lon="-19.036516190">
<ele>601.437500</ele>
<time>2012-07-25T18:01:30Z</time>
<speed>0.020000</speed>
<extensions>
<speed>0.0</speed>
<temp>0.00</temp>
<bpm>0</bpm>
<rpm>0.00</rpm>
</extensions>
</trkpt>
<trkpt lat="63.813491821" lon="-19.036516190">
<ele>601.421875</ele>
<time>2012-07-25T18:01:35Z</time>
<extensions>
<speed>0.0</speed>
<temp>0.00</temp>
<bpm>0</bpm>
<rpm>0.00</rpm>
</extensions>
</trkpt>
<trkpt lat="63.813491821" lon="-19.036514282">
<ele>601.437500</ele>
<time>2012-07-25T18:01:40Z</time>
<extensions>
<speed>0.0</speed>
<temp>0.00</temp>
<bpm>0</bpm>
<rpm>0.00</rpm>
</extensions>
</trkpt>
<trkpt lat="63.813491821" lon="-19.036516190">
<ele>601.468750</ele>
<time>2012-07-25T18:01:45Z</time>
<extensions>
<speed>0.0</speed>
<temp>0.00</temp>
<bpm>0</bpm>
<rpm>0.00</rpm>
</extensions>
</trkpt>
<trkpt lat="63.813491821" lon="-19.036516190">
<ele>601.484375</ele>
<time>2012-07-25T18:01:50Z</time>
<extensions>
<speed>0.0</speed>
<temp>0.00</temp>
<bpm>0</bpm>
<rpm>0.00</rpm>
</extensions>
</trkpt>
<trkpt lat="63.813491821" lon="-19.036516190">
<ele>601.484375</ele>
<time>2012-07-25T18:01:55Z</time>
<speed>0.020000</speed>
<extensions>
<speed>0.0</speed>
<temp>0.00</temp>
<bpm>0</bpm>
<rpm>0.00</rpm>
</extensions>
</trkpt>
<trkpt lat="63.813499451" lon="-19.036571503">
<ele>601.093750</ele>
<time>2012-07-25T18:02:00Z</time>
<speed>2.430000</speed>
<extensions>
<speed>2.4</speed>
<temp>0.00</temp>
<bpm>0</bpm>
<rpm>0.00</rpm>
</extensions>
</trkpt>
<trkpt lat="63.813549042" lon="-19.036836624">
<ele>600.859375</ele>
<time>2012-07-25T18:02:05Z</time>
<speed>3.110000</speed>
<extensions>
<speed>3.1</speed>
<temp>0.00</temp>
<bpm>0</bpm>
<rpm>0.00</rpm>
</extensions>
</trkpt>
<trkpt lat="63.813610077" lon="-19.037145615">
<ele>602.875000</ele>
<time>2012-07-25T18:02:10Z</time>
<speed>3.360000</speed>
<extensions>
<speed>3.4</speed>
<temp>0.00</temp>
<bpm>0</bpm>
<rpm>0.00</rpm>
</extensions>
</trkpt>
<trkpt lat="63.813663483" lon="-19.037462234">
<ele>603.109375</ele>
<time>2012-07-25T18:02:15Z</time>
<speed>3.150000</speed>
<extensions>
<speed>3.2</speed>
<temp>0.00</temp>
<bpm>0</bpm>
<rpm>0.00</rpm>
</extensions>
</trkpt>
<trkpt lat="63.813709259" lon="-19.037736893">
<ele>602.593750</ele>
<time>2012-07-25T18:02:20Z</time>
<speed>2.410000</speed>
<extensions>
<speed>2.4</speed>
<temp>0.00</temp>
<bpm>0</bpm>
<rpm>0.00</rpm>
</extensions>
</trkpt>
<trkpt lat="63.813751221" lon="-19.038007736">
<ele>600.531250</ele>
<time>2012-07-25T18:02:25Z</time>
<speed>2.720000</speed>
<extensions>
<speed>2.7</speed>
<temp>0.00</temp>
<bpm>0</bpm>
<rpm>0.00</rpm>
</extensions>
</trkpt>
<trkpt lat="63.813793182" lon="-19.038276672">
<ele>600.093750</ele>
<time>2012-07-25T18:02:30Z</time>
<speed>2.590000</speed>
<extensions>
<speed>2.6</speed>
<temp>0.00</temp>
<bpm>0</bpm>
<rpm>0.00</rpm>
</extensions>
</trkpt>
<trkpt lat="63.813835144" lon="-19.038547516">
<ele>599.296875</ele>
<time>2012-07-25T18:02:35Z</time>
<speed>2.950000</speed>
<extensions>
<speed>2.9</speed>
<temp>0.00</temp>
<bpm>0</bpm>
<rpm>0.00</rpm>
</extensions>
</trkpt>
<trkpt lat="63.813884735" lon="-19.038839340">
<ele>600.062500</ele>
<time>2012-07-25T18:02:40Z</time>
<speed>3.010000</speed>
<extensions>
<speed>3.0</speed>
<temp>0.00</temp>
<bpm>0</bpm>
<rpm>0.00</rpm>
</extensions>
</trkpt>
<trkpt lat="63.813934326" lon="-19.039136887">
<ele>600.593750</ele>
<time>2012-07-25T18:02:45Z</time>
<speed>3.180000</speed>
<extensions>
<speed>3.2</speed>
<temp>0.00</temp>
<bpm>0</bpm>
<rpm>0.00</rpm>
</extensions>
</trkpt>
<trkpt lat="63.813976288" lon="-19.039440155">
<ele>599.671875</ele>
<time>2012-07-25T18:02:50Z</time>
<speed>3.150000</speed>
<extensions>
<speed>3.2</speed>
<temp>0.00</temp>
<bpm>0</bpm>
<rpm>0.00</rpm>
</extensions>
</trkpt>
<trkpt lat="63.814033508" lon="-19.039743423">
<ele>599.671875</ele>
<time>2012-07-25T18:02:55Z</time>
<speed>3.380000</speed>
<extensions>
<speed>3.4</speed>
<temp>0.00</temp>
<bpm>0</bpm>
<rpm>0.00</rpm>
</extensions>
</trkpt>
<trkpt lat="63.814090729" lon="-19.040054321">
<ele>599.500000</ele>
<time>2012-07-25T18:03:00Z</time>
<speed>2.940000</speed>
<extensions>
<speed>2.9</speed>
<temp>0.00</temp>
<bpm>0</bpm>
<rpm>0.00</rpm>
</extensions>
</trkpt>
<trkpt lat="63.814136505" lon="-19.040336609">
<ele>599.140625</ele>
<time>2012-07-25T18:03:05Z</time>
<speed>2.900000</speed>
<extensions>
<speed>2.9</speed>
<temp>0.00</temp>
<bpm>0</bpm>
<rpm>0.00</rpm>
</extensions>
</trkpt>
<trkpt lat="63.814182281" lon="-19.040557861">
<ele>599.437500</ele>
<time>2012-07-25T18:03:10Z</time>
<speed>2.000000</speed>
<extensions>
<speed>2.0</speed>
<temp>0.00</temp>
<bpm>0</bpm>
<rpm>0.00</rpm>
</extensions>
</trkpt>
<trkpt lat="63.814220428" lon="-19.040796280">
<ele>597.968750</ele>
<time>2012-07-25T18:03:15Z</time>
<speed>3.240000</speed>
<extensions>
<speed>3.2</speed>
<temp>0.00</temp>
<bpm>0</bpm>
<rpm>0.00</rpm>
</extensions>
</trkpt>
<trkpt lat="63.814277649" lon="-19.041135788">
<ele>597.781250</ele>
<time>2012-07-25T18:03:20Z</time>
<speed>3.280000</speed>
<extensions>
<speed>3.3</speed>
<temp>0.00</temp>
<bpm>0</bpm>
<rpm>0.00</rpm>
</extensions>
</trkpt>
<trkpt lat="63.814334869" lon="-19.041427612">
<ele>597.781250</ele>
<time>2012-07-25T18:03:25Z</time>
<speed>3.050000</speed>
<extensions>
<speed>3.0</speed>
<temp>0.00</temp>
<bpm>0</bpm>
<rpm>0.00</rpm>
</extensions>
</trkpt>
<trkpt lat="63.814388275" lon="-19.041721344">
<ele>597.609375</ele>
<time>2012-07-25T18:03:30Z</time>
<speed>2.980000</speed>
<extensions>
<speed>3.0</speed>
<temp>0.00</temp>
<bpm>0</bpm>
<rpm>0.00</rpm>
</extensions>
</trkpt>
<trkpt lat="63.814414978" lon="-19.042011261">
<ele>597.406250</ele>
<time>2012-07-25T18:03:35Z</time>
<speed>2.740000</speed>
<extensions>
<speed>2.7</speed>
<temp>0.00</temp>
<bpm>0</bpm>
<rpm>0.00</rpm>
</extensions>
</trkpt>
<trkpt lat="63.814449310" lon="-19.042324066">
<ele>597.406250</ele>
<time>2012-07-25T18:03:40Z</time>
<speed>3.160000</speed>
<extensions>
<speed>3.2</speed>
<temp>0.00</temp>
<bpm>0</bpm>
<rpm>0.00</rpm>
</extensions>
</trkpt>
<trkpt lat="63.814510345" lon="-19.042638779">
<ele>597.156250</ele>
<time>2012-07-25T18:03:45Z</time>
<speed>3.330000</speed>
<extensions>
<speed>3.3</speed>
<temp>0.00</temp>
<bpm>0</bpm>
<rpm>0.00</rpm>
</extensions>
</trkpt>
<trkpt lat="63.814571381" lon="-19.042930603">
<ele>597.328125</ele>
<time>2012-07-25T18:03:50Z</time>
<speed>3.080000</speed>
<extensions>
<speed>3.1</speed>
<temp>0.00</temp>
<bpm>0</bpm>
<rpm>0.00</rpm>
</extensions>
</trkpt>
<trkpt lat="63.814620972" lon="-19.043199539">
<ele>596.750000</ele>
<time>2012-07-25T18:03:55Z</time>
<speed>3.060000</speed>
<extensions>
<speed>3.1</speed>
<temp>0.00</temp>
<bpm>0</bpm>
<rpm>0.00</rpm>
</extensions>
</trkpt>
<trkpt lat="63.814659119" lon="-19.043498993">
<ele>596.015625</ele>
<time>2012-07-25T18:04:00Z</time>
<speed>3.150000</speed>
<extensions>
<speed>3.2</speed>
<temp>0.00</temp>
<bpm>0</bpm>
<rpm>0.00</rpm>
</extensions>
</trkpt>
<trkpt lat="63.814716339" lon="-19.043762207">
<ele>596.625000</ele>
<time>2012-07-25T18:04:05Z</time>
<speed>3.070000</speed>
<extensions>
<speed>3.1</speed>
<temp>0.00</temp>
<bpm>0</bpm>
<rpm>0.00</rpm>
</extensions>
</trkpt>
<trkpt lat="63.814773560" lon="-19.044065475">
<ele>597.125000</ele>
<time>2012-07-25T18:04:10Z</time>
<speed>3.260000</speed>
<extensions>
<speed>3.3</speed>
<temp>0.00</temp>
<bpm>0</bpm>
<rpm>0.00</rpm>
</extensions>
</trkpt>
<trkpt lat="63.814834595" lon="-19.044401169">
<ele>597.609375</ele>
<time>2012-07-25T18:04:15Z</time>
<speed>3.510000</speed>
<extensions>
<speed>3.5</speed>
<temp>0.00</temp>
<bpm>0</bpm>
<rpm>0.00</rpm>
</extensions>
</trkpt>
<trkpt lat="63.814888000" lon="-19.044725418">
<ele>597.718750</ele>
<time>2012-07-25T18:04:20Z</time>
<speed>3.210000</speed>
<extensions>
<speed>3.2</speed>
<temp>0.00</temp>
<bpm>0</bpm>
<rpm>0.00</rpm>
</extensions>
</trkpt>
<trkpt lat="63.814937592" lon="-19.045061111">
<ele>598.203125</ele>
<time>2012-07-25T18:04:25Z</time>
<speed>3.550000</speed>
<extensions>
<speed>3.5</speed>
<temp>0.00</temp>
<bpm>0</bpm>
<rpm>0.00</rpm>
</extensions>
</trkpt>
<trkpt lat="63.814994812" lon="-19.045398712">
<ele>598.671875</ele>
<time>2012-07-25T18:04:30Z</time>
<speed>3.670000</speed>
<extensions>
<speed>3.7</speed>
<temp>0.00</temp>
<bpm>0</bpm>
<rpm>0.00</rpm>
</extensions>
</trkpt>
<trkpt lat="63.815052032" lon="-19.045734406">
<ele>598.171875</ele>
<time>2012-07-25T18:04:35Z</time>
<speed>3.650000</speed>
<extensions>
<speed>3.7</speed>
<temp>0.00</temp>
<bpm>0</bpm>
<rpm>0.00</rpm>
</extensions>
</trkpt>
<trkpt lat="63.815105438" lon="-19.046058655">
<ele>598.156250</ele>
<time>2012-07-25T18:04:40Z</time>
<speed>3.420000</speed>
<extensions>
<speed>3.4</speed>
<temp>0.00</temp>
<bpm>0</bpm>
<rpm>0.00</rpm>
</extensions>
</trkpt>
<trkpt lat="63.815143585" lon="-19.046388626">
<ele>598.468750</ele>
<time>2012-07-25T18:04:45Z</time>
<speed>3.260000</speed>
<extensions>
<speed>3.3</speed>
<temp>0.00</temp>
<bpm>0</bpm>
<rpm>0.00</rpm>
</extensions>
</trkpt>
<trkpt lat="63.815196991" lon="-19.046695709">
<ele>599.765625</ele>
<time>2012-07-25T18:04:50Z</time>
<speed>3.530000</speed>
<extensions>
<speed>3.5</speed>
<temp>0.00</temp>
<bpm>0</bpm>
<rpm>0.00</rpm>
</extensions>
</trkpt>
<trkpt lat="63.815238953" lon="-19.047014236">
<ele>600.937500</ele>
<time>2012-07-25T18:04:55Z</time>
<speed>3.320000</speed>
<extensions>
<speed>3.3</speed>
<temp>0.00</temp>
<bpm>0</bpm>
<rpm>0.00</rpm>
</extensions>
</trkpt>
<trkpt lat="63.815265656" lon="-19.047315598">
<ele>599.968750</ele>
<time>2012-07-25T18:05:00Z</time>
<speed>2.970000</speed>
<extensions>
<speed>3.0</speed>
<temp>0.00</temp>
<bpm>0</bpm>
<rpm>0.00</rpm>
</extensions>
</trkpt>
<trkpt lat="63.815296173" lon="-19.047592163">
<ele>600.593750</ele>
<time>2012-07-25T18:05:05Z</time>
<speed>2.790000</speed>
<extensions>
<speed>2.8</speed>
<temp>0.00</temp>
<bpm>0</bpm>
<rpm>0.00</rpm>
</extensions>
</trkpt>
<trkpt lat="63.815326691" lon="-19.047872543">
<ele>599.890625</ele>
<time>2012-07-25T18:05:10Z</time>
<speed>2.170000</speed>
<extensions>
<speed>2.2</speed>
<temp>0.00</temp>
<bpm>0</bpm>
<rpm>0.00</rpm>
</extensions>
</trkpt>
<trkpt lat="63.815357208" lon="-19.048091888">
<ele>599.156250</ele>
<time>2012-07-25T18:05:15Z</time>
<speed>2.680000</speed>
<extensions>
<speed>2.7</speed>
<temp>0.00</temp>
<bpm>0</bpm>
<rpm>0.00</rpm>
</extensions>
</trkpt>
<trkpt lat="63.815395355" lon="-19.048362732">
<ele>597.296875</ele>
<time>2012-07-25T18:05:20Z</time>
<speed>2.580000</speed>
<extensions>
<speed>2.6</speed>
<temp>0.00</temp>
<bpm>0</bpm>
<rpm>0.00</rpm>
</extensions>
</trkpt>
<trkpt lat="63.815422058" lon="-19.048549652">
<ele>596.265625</ele>
<time>2012-07-25T18:05:25Z</time>
<speed>1.950000</speed>
<extensions>
<speed>1.9</speed>
<temp>0.00</temp>
<bpm>0</bpm>
<rpm>0.00</rpm>
</extensions>
</trkpt>
<trkpt lat="63.815460205" lon="-19.048732758">
<ele>597.093750</ele>
<time>2012-07-25T18:05:30Z</time>
<speed>2.400000</speed>
<extensions>
<speed>2.4</speed>
<temp>0.00</temp>
<bpm>0</bpm>
<rpm>0.00</rpm>
</extensions>
</trkpt>
<trkpt lat="63.815502167" lon="-19.048955917">
<ele>598.375000</ele>
<time>2012-07-25T18:05:35Z</time>
<speed>2.020000</speed>
<extensions>
<speed>2.0</speed>
<temp>0.00</temp>
<bpm>0</bpm>
<rpm>0.00</rpm>
</extensions>
</trkpt>
<trkpt lat="63.815528870" lon="-19.049194336">
<ele>599.203125</ele>
<time>2012-07-25T18:05:40Z</time>
<speed>2.510000</speed>
<extensions>
<speed>2.5</speed>
<temp>0.00</temp>
<bpm>0</bpm>
<rpm>0.00</rpm>
</extensions>
</trkpt>
<trkpt lat="63.815555573" lon="-19.049440384">
<ele>598.796875</ele>
<time>2012-07-25T18:05:45Z</time>
<speed>2.350000</speed>
<extensions>
<speed>2.4</speed>
<temp>0.00</temp>
<bpm>0</bpm>
<rpm>0.00</rpm>
</extensions>
</trkpt>
<trkpt lat="63.815555573" lon="-19.049705505">
<ele>596.781250</ele>
<time>2012-07-25T18:05:50Z</time>
<speed>2.360000</speed>
<extensions>
<speed>2.4</speed>
<temp>0.00</temp>
<bpm>0</bpm>
<rpm>0.00</rpm>
</extensions>
</trkpt>
<trkpt lat="63.815555573" lon="-19.049945831">
<ele>596.468750</ele>
<time>2012-07-25T18:05:55Z</time>
<speed>2.560000</speed>
<extensions>
<speed>2.6</speed>
<temp>0.00</temp>
<bpm>0</bpm>
<rpm>0.00</rpm>
</extensions>
</trkpt>
<trkpt lat="63.815544128" lon="-19.050207138">
<ele>598.093750</ele>
<time>2012-07-25T18:06:00Z</time>
<speed>2.650000</speed>
<extensions>
<speed>2.6</speed>
<temp>0.00</temp>
<bpm>0</bpm>
<rpm>0.00</rpm>
</extensions>
</trkpt>
<trkpt lat="63.815536499" lon="-19.050439835">
<ele>600.562500</ele>
<time>2012-07-25T18:06:05Z</time>
<speed>1.610000</speed>
<extensions>
<speed>1.6</speed>
<temp>0.00</temp>
<bpm>0</bpm>
<rpm>0.00</rpm>
</extensions>
</trkpt>
<trkpt lat="63.815532684" lon="-19.050601959">
<ele>603.375000</ele>
<time>2012-07-25T18:06:10Z</time>
<speed>2.120000</speed>
<extensions>
<speed>2.1</speed>
<temp>0.00</temp>
<bpm>0</bpm>
<rpm>0.00</rpm>
</extensions>
</trkpt>
<trkpt lat="63.815525055" lon="-19.050838470">
<ele>604.437500</ele>
<time>2012-07-25T18:06:15Z</time>
<speed>2.320000</speed>
<extensions>
<speed>2.3</speed>
<temp>0.00</temp>
<bpm>0</bpm>
<rpm>0.00</rpm>
</extensions>
</trkpt>
<trkpt lat="63.815528870" lon="-19.051069260">
<ele>608.390625</ele>
<time>2012-07-25T18:06:20Z</time>
<speed>2.050000</speed>
<extensions>
<speed>2.1</speed>
<temp>0.00</temp>
<bpm>0</bpm>
<rpm>0.00</rpm>
</extensions>
</trkpt>
<trkpt lat="63.815536499" lon="-19.051303864">
<ele>609.921875</ele>
<time>2012-07-25T18:06:25Z</time>
<speed>2.460000</speed>
<extensions>
<speed>2.5</speed>
<temp>0.00</temp>
<bpm>0</bpm>
<rpm>0.00</rpm>
</extensions>
</trkpt>
<trkpt lat="63.815540314" lon="-19.051549911">
<ele>610.250000</ele>
<time>2012-07-25T18:06:30Z</time>
<speed>2.510000</speed>
<extensions>
<speed>2.5</speed>
<temp>0.00</temp>
<bpm>0</bpm>
<rpm>0.00</rpm>
</extensions>
</trkpt>
<trkpt lat="63.815559387" lon="-19.051792145">
<ele>612.156250</ele>
<time>2012-07-25T18:06:35Z</time>
<speed>2.490000</speed>
<extensions>
<speed>2.5</speed>
<temp>0.00</temp>
<bpm>0</bpm>
<rpm>0.00</rpm>
</extensions>
</trkpt>
<trkpt lat="63.815567017" lon="-19.052026749">
<ele>611.796875</ele>
<time>2012-07-25T18:06:40Z</time>
<speed>2.340000</speed>
<extensions>
<speed>2.3</speed>
<temp>0.00</temp>
<bpm>0</bpm>
<rpm>0.00</rpm>
</extensions>
</trkpt>
<trkpt lat="63.815586090" lon="-19.052288055">
<ele>611.656250</ele>
<time>2012-07-25T18:06:45Z</time>
<speed>2.720000</speed>
<extensions>
<speed>2.7</speed>
<temp>0.00</temp>
<bpm>0</bpm>
<rpm>0.00</rpm>
</extensions>
</trkpt>
<trkpt lat="63.815593719" lon="-19.052568436">
<ele>610.968750</ele>
<time>2012-07-25T18:06:50Z</time>
<speed>2.910000</speed>
<extensions>
<speed>2.9</speed>
<temp>0.00</temp>
<bpm>0</bpm>
<rpm>0.00</rpm>
</extensions>
</trkpt>
<trkpt lat="63.815608978" lon="-19.052865982">
<ele>610.781250</ele>
<time>2012-07-25T18:06:55Z</time>
<speed>2.950000</speed>
<extensions>
<speed>2.9</speed>
<temp>0.00</temp>
<bpm>0</bpm>
<rpm>0.00</rpm>
</extensions>
</trkpt>
<trkpt lat="63.815616608" lon="-19.053144455">
<ele>611.828125</ele>
<time>2012-07-25T18:07:00Z</time>
<speed>2.810000</speed>
<extensions>
<speed>2.8</speed>
<temp>0.00</temp>
<bpm>0</bpm>
<rpm>0.00</rpm>
</extensions>
</trkpt>
<trkpt lat="63.815620422" lon="-19.053422928">
<ele>612.765625</ele>
<time>2012-07-25T18:07:05Z</time>
<speed>2.810000</speed>
<extensions>
<speed>2.8</speed>
<temp>0.00</temp>
<bpm>0</bpm>
<rpm>0.00</rpm>
</extensions>
</trkpt>
<trkpt lat="63.815612793" lon="-19.053731918">
<ele>613.890625</ele>
<time>2012-07-25T18:07:10Z</time>
<speed>2.640000</speed>
<extensions>
<speed>2.6</speed>
<temp>0.00</temp>
<bpm>0</bpm>
<rpm>0.00</rpm>
</extensions>
</trkpt>
<trkpt lat="63.815589905" lon="-19.054002762">
<ele>614.531250</ele>
<time>2012-07-25T18:07:15Z</time>
<speed>3.050000</speed>
<extensions>
<speed>3.0</speed>
<temp>0.00</temp>
<bpm>0</bpm>
<rpm>0.00</rpm>
</extensions>
</trkpt>
<trkpt lat="63.815567017" lon="-19.054290771">
<ele>614.921875</ele>
<time>2012-07-25T18:07:20Z</time>
<speed>2.590000</speed>
<extensions>
<speed>2.6</speed>
<temp>0.00</temp>
<bpm>0</bpm>
<rpm>0.00</rpm>
</extensions>
</trkpt>
<trkpt lat="63.815547943" lon="-19.054563522">
<ele>613.609375</ele>
<time>2012-07-25T18:07:25Z</time>
<speed>3.130000</speed>
<extensions>
<speed>3.1</speed>
<temp>0.00</temp>
<bpm>0</bpm>
<rpm>0.00</rpm>
</extensions>
</trkpt>
<trkpt lat="63.815525055" lon="-19.054885864">
<ele>612.843750</ele>
<time>2012-07-25T18:07:30Z</time>
<speed>3.100000</speed>
<extensions>
<speed>3.1</speed>
<temp>0.00</temp>
<bpm>0</bpm>
<rpm>0.00</rpm>
</extensions>
</trkpt>
<trkpt lat="63.815517426" lon="-19.055213928">
<ele>611.953125</ele>
<time>2012-07-25T18:07:35Z</time>
<speed>3.140000</speed>
<extensions>
<speed>3.1</speed>
<temp>0.00</temp>
<bpm>0</bpm>
<rpm>0.00</rpm>
</extensions>
</trkpt>
<trkpt lat="63.815555573" lon="-19.055511475">
<ele>611.484375</ele>
<time>2012-07-25T18:07:40Z</time>
<speed>3.150000</speed>
<extensions>
<speed>3.2</speed>
<temp>0.00</temp>
<bpm>0</bpm>
<rpm>0.00</rpm>
</extensions>
</trkpt>
<trkpt lat="63.815616608" lon="-19.055791855">
<ele>612.203125</ele>
<time>2012-07-25T18:07:45Z</time>
<speed>2.900000</speed>
<extensions>
<speed>2.9</speed>
<temp>0.00</temp>
<bpm>0</bpm>
<rpm>0.00</rpm>
</extensions>
</trkpt>
<trkpt lat="63.815662384" lon="-19.056064606">
<ele>613.125000</ele>
<time>2012-07-25T18:07:50Z</time>
<speed>2.470000</speed>
<extensions>
<speed>2.5</speed>
<temp>0.00</temp>
<bpm>0</bpm>
<rpm>0.00</rpm>
</extensions>
</trkpt>
<trkpt lat="63.815681458" lon="-19.056322098">
<ele>608.484375</ele>
<time>2012-07-25T18:07:55Z</time>
<speed>2.730000</speed>
<extensions>
<speed>2.7</speed>
<temp>0.00</temp>
<bpm>0</bpm>
<rpm>0.00</rpm>
</extensions>
</trkpt>
<trkpt lat="63.815731049" lon="-19.056592941">
<ele>609.609375</ele>
<time>2012-07-25T18:08:00Z</time>
<speed>2.940000</speed>
<extensions>
<speed>2.9</speed>
<temp>0.00</temp>
<bpm>0</bpm>
<rpm>0.00</rpm>
</extensions>
</trkpt>
<trkpt lat="63.815773010" lon="-19.056856155">
<ele>610.375000</ele>
<time>2012-07-25T18:08:05Z</time>
<speed>2.460000</speed>
<extensions>
<speed>2.5</speed>
<temp>0.00</temp>
<bpm>0</bpm>
<rpm>0.00</rpm>
</extensions>
</trkpt>
<trkpt lat="63.815811157" lon="-19.057161331">
<ele>610.281250</ele>
<time>2012-07-25T18:08:10Z</time>
<speed>3.300000</speed>
<extensions>
<speed>3.3</speed>
<temp>0.00</temp>
<bpm>0</bpm>
<rpm>0.00</rpm>
</extensions>
</trkpt>
<trkpt lat="63.815864563" lon="-19.057458878">
<ele>611.375000</ele>
<time>2012-07-25T18:08:15Z</time>
<speed>3.040000</speed>
<extensions>
<speed>3.0</speed>
<temp>0.00</temp>
<bpm>0</bpm>
<rpm>0.00</rpm>
</extensions>
</trkpt>
<trkpt lat="63.815910339" lon="-19.057744980">
<ele>610.921875</ele>
<time>2012-07-25T18:08:20Z</time>
<speed>3.410000</speed>
<extensions>
<speed>3.4</speed>
<temp>0.00</temp>
<bpm>0</bpm>
<rpm>0.00</rpm>
</extensions>
</trkpt>
<trkpt lat="63.815967560" lon="-19.058050156">
<ele>612.046875</ele>
<time>2012-07-25T18:08:25Z</time>
<speed>3.200000</speed>
<extensions>
<speed>3.2</speed>
<temp>0.00</temp>
<bpm>0</bpm>
<rpm>0.00</rpm>
</extensions>
</trkpt>
<trkpt lat="63.816032410" lon="-19.058341980">
<ele>613.156250</ele>
<time>2012-07-25T18:08:30Z</time>
<speed>2.880000</speed>
<extensions>
<speed>2.9</speed>
<temp>0.00</temp>
<bpm>0</bpm>
<rpm>0.00</rpm>
</extensions>
</trkpt>
<trkpt lat="63.816082001" lon="-19.058620453">
<ele>613.250000</ele>
<time>2012-07-25T18:08:35Z</time>
<speed>3.140000</speed>
<extensions>
<speed>3.1</speed>
<temp>0.00</temp>
<bpm>0</bpm>
<rpm>0.00</rpm>
</extensions>
</trkpt>
<trkpt lat="63.816146851" lon="-19.058917999">
<ele>613.343750</ele>
<time>2012-07-25T18:08:40Z</time>
<speed>3.390000</speed>
<extensions>
<speed>3.4</speed>
<temp>0.00</temp>
<bpm>0</bpm>
<rpm>0.00</rpm>
</extensions>
</trkpt>
<trkpt lat="63.816219330" lon="-19.059223175">
<ele>612.968750</ele>
<time>2012-07-25T18:08:45Z</time>
<speed>3.490000</speed>
<extensions>
<speed>3.5</speed>
<temp>0.00</temp>
<bpm>0</bpm>
<rpm>0.00</rpm>
</extensions>
</trkpt>
<trkpt lat="63.816280365" lon="-19.059532166">
<ele>612.078125</ele>
<time>2012-07-25T18:08:50Z</time>
<speed>3.340000</speed>
<extensions>
<speed>3.3</speed>
<temp>0.00</temp>
<bpm>0</bpm>
<rpm>0.00</rpm>
</extensions>
</trkpt>
<trkpt lat="63.816349030" lon="-19.059822083">
<ele>611.687500</ele>
<time>2012-07-25T18:08:55Z</time>
<speed>3.200000</speed>
<extensions>
<speed>3.2</speed>
<temp>0.00</temp>
<bpm>0</bpm>
<rpm>0.00</rpm>
</extensions>
</trkpt>
<trkpt lat="63.816417694" lon="-19.060106277">
<ele>612.328125</ele>
<time>2012-07-25T18:09:00Z</time>
<speed>3.430000</speed>
<extensions>
<speed>3.4</speed>
<temp>0.00</temp>
<bpm>0</bpm>
<rpm>0.00</rpm>
</extensions>
</trkpt>
<trkpt lat="63.816490173" lon="-19.060417175">
<ele>612.000000</ele>
<time>2012-07-25T18:09:05Z</time>
<speed>3.310000</speed>
<extensions>
<speed>3.3</speed>
<temp>0.00</temp>
<bpm>0</bpm>
<rpm>0.00</rpm>
</extensions>
</trkpt>
<trkpt lat="63.816558838" lon="-19.060688019">
<ele>613.000000</ele>
<time>2012-07-25T18:09:10Z</time>
<speed>3.110000</speed>
<extensions>
<speed>3.1</speed>
<temp>0.00</temp>
<bpm>0</bpm>
<rpm>0.00</rpm>
</extensions>
</trkpt>
<trkpt lat="63.816627502" lon="-19.060958862">
<ele>612.703125</ele>
<time>2012-07-25T18:09:15Z</time>
<speed>3.050000</speed>
<extensions>
<speed>3.0</speed>
<temp>0.00</temp>
<bpm>0</bpm>
<rpm>0.00</rpm>
</extensions>
</trkpt>
<trkpt lat="63.816665649" lon="-19.061267853">
<ele>604.531250</ele>
<time>2012-07-25T18:09:20Z</time>
<speed>2.730000</speed>
<extensions>
<speed>2.7</speed>
<temp>0.00</temp>
<bpm>0</bpm>
<rpm>0.00</rpm>
</extensions>
</trkpt>
<trkpt lat="63.816730499" lon="-19.061555862">
<ele>603.796875</ele>
<time>2012-07-25T18:09:25Z</time>
<speed>3.080000</speed>
<extensions>
<speed>3.1</speed>
<temp>0.00</temp>
<bpm>0</bpm>
<rpm>0.00</rpm>
</extensions>
</trkpt>
<trkpt lat="63.816806793" lon="-19.061864853">
<ele>601.875000</ele>
<time>2012-07-25T18:09:30Z</time>
<speed>3.520000</speed>
<extensions>
<speed>3.5</speed>
<temp>0.00</temp>
<bpm>0</bpm>
<rpm>0.00</rpm>
</extensions>
</trkpt>
<trkpt lat="63.816867828" lon="-19.062154770">
<ele>605.625000</ele>
<time>2012-07-25T18:09:35Z</time>
<speed>3.310000</speed>
<extensions>
<speed>3.3</speed>
<temp>0.00</temp>
<bpm>0</bpm>
<rpm>0.00</rpm>
</extensions>
</trkpt>
<trkpt lat="63.816932678" lon="-19.062505722">
<ele>607.015625</ele>
<time>2012-07-25T18:09:40Z</time>
<speed>3.570000</speed>
<extensions>
<speed>3.6</speed>
<temp>0.00</temp>
<bpm>0</bpm>
<rpm>0.00</rpm>
</extensions>
</trkpt>
<trkpt lat="63.817005157" lon="-19.062862396">
<ele>607.125000</ele>
<time>2012-07-25T18:09:45Z</time>
<speed>3.870000</speed>
<extensions>
<speed>3.9</speed>
<temp>0.00</temp>
<bpm>0</bpm>
<rpm>0.00</rpm>
</extensions>
</trkpt>
<trkpt lat="63.817070007" lon="-19.063228607">
<ele>606.296875</ele>
<time>2012-07-25T18:09:50Z</time>
<speed>3.690000</speed>
<extensions>
<speed>3.7</speed>
<temp>0.00</temp>
<bpm>0</bpm>
<rpm>0.00</rpm>
</extensions>
</trkpt>
<trkpt lat="63.817150116" lon="-19.063577652">
<ele>609.500000</ele>
<time>2012-07-25T18:09:55Z</time>
<speed>3.660000</speed>
<extensions>
<speed>3.7</speed>
<temp>0.00</temp>
<bpm>0</bpm>
<rpm>0.00</rpm>
</extensions>
</trkpt>
<trkpt lat="63.817207336" lon="-19.063852310">
<ele>610.750000</ele>
<time>2012-07-25T18:10:00Z</time>
<speed>2.830000</speed>
<extensions>
<speed>2.8</speed>
<temp>0.00</temp>
<bpm>0</bpm>
<rpm>0.00</rpm>
</extensions>
</trkpt>
<trkpt lat="63.817279816" lon="-19.064136505">
<ele>611.812500</ele>
<time>2012-07-25T18:10:05Z</time>
<speed>3.780000</speed>
<extensions>
<speed>3.8</speed>
<temp>0.00</temp>
<bpm>0</bpm>
<rpm>0.00</rpm>
</extensions>
</trkpt>
<trkpt lat="63.817356110" lon="-19.064495087">
<ele>612.468750</ele>
<time>2012-07-25T18:10:10Z</time>
<speed>3.630000</speed>
<extensions>
<speed>3.6</speed>
<temp>0.00</temp>
<bpm>0</bpm>
<rpm>0.00</rpm>
</extensions>
</trkpt>
<trkpt lat="63.817432404" lon="-19.064777374">
<ele>612.125000</ele>
<time>2012-07-25T18:10:15Z</time>
<speed>3.620000</speed>
<extensions>
<speed>3.6</speed>
<temp>0.00</temp>
<bpm>0</bpm>
<rpm>0.00</rpm>
</extensions>
</trkpt>
<trkpt lat="63.817523956" lon="-19.065126419">
<ele>612.843750</ele>
<time>2012-07-25T18:10:20Z</time>
<speed>4.050000</speed>
<extensions>
<speed>4.0</speed>
<temp>0.00</temp>
<bpm>0</bpm>
<rpm>0.00</rpm>
</extensions>
</trkpt>
<trkpt lat="63.817615509" lon="-19.065467834">
<ele>613.296875</ele>
<time>2012-07-25T18:10:25Z</time>
<speed>4.000000</speed>
<extensions>
<speed>4.0</speed>
<temp>0.00</temp>
<bpm>0</bpm>
<rpm>0.00</rpm>
</extensions>
</trkpt>
<trkpt lat="63.817695618" lon="-19.065824509">
<ele>612.921875</ele>
<time>2012-07-25T18:10:30Z</time>
<speed>4.090000</speed>
<extensions>
<speed>4.1</speed>
<temp>0.00</temp>
<bpm>0</bpm>
<rpm>0.00</rpm>
</extensions>
</trkpt>
<trkpt lat="63.817783356" lon="-19.066164017">
<ele>614.875000</ele>
<time>2012-07-25T18:10:35Z</time>
<speed>3.660000</speed>
<extensions>
<speed>3.7</speed>
<temp>0.00</temp>
<bpm>0</bpm>
<rpm>0.00</rpm>
</extensions>
</trkpt>
<trkpt lat="63.817874908" lon="-19.066490173">
<ele>615.015625</ele>
<time>2012-07-25T18:10:40Z</time>
<speed>3.890000</speed>
<extensions>
<speed>3.9</speed>
<temp>0.00</temp>
<bpm>0</bpm>
<rpm>0.00</rpm>
</extensions>
</trkpt>
<trkpt lat="63.817947388" lon="-19.066787720">
<ele>614.234375</ele>
<time>2012-07-25T18:10:45Z</time>
<speed>2.660000</speed>
<extensions>
<speed>2.7</speed>
<temp>0.00</temp>
<bpm>0</bpm>
<rpm>0.00</rpm>
</extensions>
</trkpt>
<trkpt lat="63.818016052" lon="-19.067047119">
<ele>616.421875</ele>
<time>2012-07-25T18:10:50Z</time>
<speed>3.100000</speed>
<extensions>
<speed>3.1</speed>
<temp>0.00</temp>
<bpm>0</bpm>
<rpm>0.00</rpm>
</extensions>
</trkpt>
<trkpt lat="63.818088531" lon="-19.067348480">
<ele>617.359375</ele>
<time>2012-07-25T18:10:55Z</time>
<speed>3.320000</speed>
<extensions>
<speed>3.3</speed>
<temp>0.00</temp>
<bpm>0</bpm>
<rpm>0.00</rpm>
</extensions>
</trkpt>
<trkpt lat="63.818153381" lon="-19.067642212">
<ele>616.593750</ele>
<time>2012-07-25T18:11:00Z</time>
<speed>3.310000</speed>
<extensions>
<speed>3.3</speed>
<temp>0.00</temp>
<bpm>0</bpm>
<rpm>0.00</rpm>
</extensions>
</trkpt>
<trkpt lat="63.818206787" lon="-19.067918777">
<ele>617.578125</ele>
<time>2012-07-25T18:11:05Z</time>
<speed>2.850000</speed>
<extensions>
<speed>2.9</speed>
<temp>0.00</temp>
<bpm>0</bpm>
<rpm>0.00</rpm>
</extensions>
</trkpt>
<trkpt lat="63.818244934" lon="-19.068235397">
<ele>616.750000</ele>
<time>2012-07-25T18:11:10Z</time>
<speed>3.400000</speed>
<extensions>
<speed>3.4</speed>
<temp>0.00</temp>
<bpm>0</bpm>
<rpm>0.00</rpm>
</extensions>
</trkpt>
<trkpt lat="63.818271637" lon="-19.068559647">
<ele>616.546875</ele>
<time>2012-07-25T18:11:15Z</time>
<speed>3.250000</speed>
<extensions>
<speed>3.2</speed>
<temp>0.00</temp>
<bpm>0</bpm>
<rpm>0.00</rpm>
</extensions>
</trkpt>
<trkpt lat="63.818305969" lon="-19.068899155">
<ele>615.328125</ele>
<time>2012-07-25T18:11:20Z</time>
<speed>2.780000</speed>
<extensions>
<speed>2.8</speed>
<temp>0.00</temp>
<bpm>0</bpm>
<rpm>0.00</rpm>
</extensions>
</trkpt>
<trkpt lat="63.818321228" lon="-19.069107056">
<ele>612.937500</ele>
<time>2012-07-25T18:11:25Z</time>
<speed>1.590000</speed>
<extensions>
<speed>1.6</speed>
<temp>0.00</temp>
<bpm>0</bpm>
<rpm>0.00</rpm>
</extensions>
</trkpt>
<trkpt lat="63.818332672" lon="-19.069286346">
<ele>612.265625</ele>
<time>2012-07-25T18:11:30Z</time>
<speed>1.530000</speed>
<extensions>
<speed>1.5</speed>
<temp>0.00</temp>
<bpm>0</bpm>
<rpm>0.00</rpm>
</extensions>
</trkpt>
<trkpt lat="63.818351746" lon="-19.069494247">
<ele>612.171875</ele>
<time>2012-07-25T18:11:35Z</time>
<speed>2.080000</speed>
<extensions>
<speed>2.1</speed>
<temp>0.00</temp>
<bpm>0</bpm>
<rpm>0.00</rpm>
</extensions>
</trkpt>
<trkpt lat="63.818374634" lon="-19.069736481">
<ele>611.593750</ele>
<time>2012-07-25T18:11:40Z</time>
<speed>2.430000</speed>
<extensions>
<speed>2.4</speed>
<temp>0.00</temp>
<bpm>0</bpm>
<rpm>0.00</rpm>
</extensions>
</trkpt>
<trkpt lat="63.818416595" lon="-19.069929123">
<ele>614.500000</ele>
<time>2012-07-25T18:11:45Z</time>
<speed>1.740000</speed>
<extensions>
<speed>1.7</speed>
<temp>0.00</temp>
<bpm>0</bpm>
<rpm>0.00</rpm>
</extensions>
</trkpt>
<trkpt lat="63.818447113" lon="-19.070066452">
<ele>614.078125</ele>
<time>2012-07-25T18:11:50Z</time>
<speed>0.400000</speed>
<extensions>
<speed>0.4</speed>
<temp>0.00</temp>
<bpm>0</bpm>
<rpm>0.00</rpm>
</extensions>
</trkpt>
<trkpt lat="63.818458557" lon="-19.070051193">
<ele>616.906250</ele>
<time>2012-07-25T18:11:55Z</time>
<speed>0.260000</speed>
<extensions>
<speed>0.3</speed>
<temp>0.00</temp>
<bpm>0</bpm>
<rpm>0.00</rpm>
</extensions>
</trkpt>
<trkpt lat="63.818462372" lon="-19.070053101">
<ele>617.734375</ele>
<time>2012-07-25T18:12:00Z</time>
<speed>0.050000</speed>
<extensions>
<speed>0.1</speed>
<temp>0.00</temp>
<bpm>0</bpm>
<rpm>0.00</rpm>
</extensions>
</trkpt>
<trkpt lat="63.818458557" lon="-19.070045471">
<ele>617.968750</ele>
<time>2012-07-25T18:12:05Z</time>
<speed>0.420000</speed>
<extensions>
<speed>0.4</speed>
<temp>0.00</temp>
<bpm>0</bpm>
<rpm>0.00</rpm>
</extensions>
</trkpt>
<trkpt lat="63.818458557" lon="-19.070035934">
<ele>617.968750</ele>
<time>2012-07-25T18:12:10Z</time>
<extensions>
<speed>0.0</speed>
<temp>0.00</temp>
<bpm>0</bpm>
<rpm>0.00</rpm>
</extensions>
</trkpt>
<trkpt lat="63.818458557" lon="-19.070035934">
<ele>618.031250</ele>
<time>2012-07-25T18:12:15Z</time>
<speed>0.050000</speed>
<extensions>
<speed>0.1</speed>
<temp>0.00</temp>
<bpm>0</bpm>
<rpm>0.00</rpm>
</extensions>
</trkpt>
<trkpt lat="63.818458557" lon="-19.070039749">
<ele>618.062500</ele>
<time>2012-07-25T18:12:20Z</time>
<speed>0.040000</speed>
<extensions>
<speed>0.0</speed>
<temp>0.00</temp>
<bpm>0</bpm>
<rpm>0.00</rpm>
</extensions>
</trkpt>
<trkpt lat="63.818458557" lon="-19.070039749">
<ele>618.062500</ele>
<time>2012-07-25T18:12:25Z</time>
<speed>0.130000</speed>
<extensions>
<speed>0.1</speed>
<temp>0.00</temp>
<bpm>0</bpm>
<rpm>0.00</rpm>
</extensions>
</trkpt>
<trkpt lat="63.818466187" lon="-19.070066452">
<ele>617.796875</ele>
<time>2012-07-25T18:12:30Z</time>
<speed>0.820000</speed>
<extensions>
<speed>0.8</speed>
<temp>0.00</temp>
<bpm>0</bpm>
<rpm>0.00</rpm>
</extensions>
</trkpt>
<trkpt lat="63.818500519" lon="-19.070228577">
<ele>617.765625</ele>
<time>2012-07-25T18:12:35Z</time>
<speed>2.250000</speed>
<extensions>
<speed>2.3</speed>
<temp>0.00</temp>
<bpm>0</bpm>
<rpm>0.00</rpm>
</extensions>
</trkpt>
<trkpt lat="63.818561554" lon="-19.070470810">
<ele>617.296875</ele>
<time>2012-07-25T18:12:40Z</time>
<speed>2.760000</speed>
<extensions>
<speed>2.8</speed>
<temp>0.00</temp>
<bpm>0</bpm>
<rpm>0.00</rpm>
</extensions>
</trkpt>
<trkpt lat="63.818622589" lon="-19.070693970">
<ele>617.734375</ele>
<time>2012-07-25T18:12:45Z</time>
<speed>2.560000</speed>
<extensions>
<speed>2.6</speed>
<temp>0.00</temp>
<bpm>0</bpm>
<rpm>0.00</rpm>
</extensions>
</trkpt>
<trkpt lat="63.818691254" lon="-19.070936203">
<ele>617.296875</ele>
<time>2012-07-25T18:12:50Z</time>
<speed>2.750000</speed>
<extensions>
<speed>2.7</speed>
<temp>0.00</temp>
<bpm>0</bpm>
<rpm>0.00</rpm>
</extensions>
</trkpt>
<trkpt lat="63.818763733" lon="-19.071180344">
<ele>616.812500</ele>
<time>2012-07-25T18:12:55Z</time>
<speed>3.010000</speed>
<extensions>
<speed>3.0</speed>
<temp>0.00</temp>
<bpm>0</bpm>
<rpm>0.00</rpm>
</extensions>
</trkpt>
<trkpt lat="63.818851471" lon="-19.071432114">
<ele>617.109375</ele>
<time>2012-07-25T18:13:00Z</time>
<speed>3.100000</speed>
<extensions>
<speed>3.1</speed>
<temp>0.00</temp>
<bpm>0</bpm>
<rpm>0.00</rpm>
</extensions>
</trkpt>
<trkpt lat="63.818950653" lon="-19.071716309">
<ele>618.218750</ele>
<time>2012-07-25T18:13:05Z</time>
<speed>3.570000</speed>
<extensions>
<speed>3.6</speed>
<temp>0.00</temp>
<bpm>0</bpm>
<rpm>0.00</rpm>
</extensions>
</trkpt>
<trkpt lat="63.819038391" lon="-19.072006226">
<ele>616.984375</ele>
<time>2012-07-25T18:13:10Z</time>
<speed>3.530000</speed>
<extensions>
<speed>3.5</speed>
<temp>0.00</temp>
<bpm>0</bpm>
<rpm>0.00</rpm>
</extensions>
</trkpt>
<trkpt lat="63.819152832" lon="-19.072364807">
<ele>615.906250</ele>
<time>2012-07-25T18:13:15Z</time>
<speed>4.800000</speed>
<extensions>
<speed>4.8</speed>
<temp>0.00</temp>
<bpm>0</bpm>
<rpm>0.00</rpm>
</extensions>
</trkpt>
<trkpt lat="63.819293976" lon="-19.072778702">
<ele>616.046875</ele>
<time>2012-07-25T18:13:20Z</time>
<speed>5.660000</speed>
<extensions>
<speed>5.7</speed>
<temp>0.00</temp>
<bpm>0</bpm>
<rpm>0.00</rpm>
</extensions>
</trkpt>
<trkpt lat="63.819427490" lon="-19.073350906">
<ele>616.375000</ele>
<time>2012-07-25T18:13:25Z</time>
<speed>6.160000</speed>
<extensions>
<speed>6.2</speed>
<temp>0.00</temp>
<bpm>0</bpm>
<rpm>0.00</rpm>
</extensions>
</trkpt>
<trkpt lat="63.819534302" lon="-19.073923111">
<ele>615.093750</ele>
<time>2012-07-25T18:13:30Z</time>
<speed>5.440000</speed>
<extensions>
<speed>5.4</speed>
<temp>0.00</temp>
<bpm>0</bpm>
<rpm>0.00</rpm>
</extensions>
</trkpt>
<trkpt lat="63.819633484" lon="-19.074380875">
<ele>613.609375</ele>
<time>2012-07-25T18:13:35Z</time>
<speed>4.770000</speed>
<extensions>
<speed>4.8</speed>
<temp>0.00</temp>
<bpm>0</bpm>
<rpm>0.00</rpm>
</extensions>
</trkpt>
<trkpt lat="63.819732666" lon="-19.074848175">
<ele>611.625000</ele>
<time>2012-07-25T18:13:40Z</time>
<speed>5.030000</speed>
<extensions>
<speed>5.0</speed>
<temp>0.00</temp>
<bpm>0</bpm>
<rpm>0.00</rpm>
</extensions>
</trkpt>
<trkpt lat="63.819820404" lon="-19.075326920">
<ele>609.921875</ele>
<time>2012-07-25T18:13:45Z</time>
<speed>4.570000</speed>
<extensions>
<speed>4.6</speed>
<temp>0.00</temp>
<bpm>0</bpm>
<rpm>0.00</rpm>
</extensions>
</trkpt>
<trkpt lat="63.819835663" lon="-19.075811386">
<ele>608.015625</ele>
<time>2012-07-25T18:13:50Z</time>
<speed>4.740000</speed>
<extensions>
<speed>4.7</speed>
<temp>0.00</temp>
<bpm>0</bpm>
<rpm>0.00</rpm>
</extensions>
</trkpt>
<trkpt lat="63.819839478" lon="-19.076251984">
<ele>605.640625</ele>
<time>2012-07-25T18:13:55Z</time>
<speed>3.670000</speed>
<extensions>
<speed>3.7</speed>
<temp>0.00</temp>
<bpm>0</bpm>
<rpm>0.00</rpm>
</extensions>
</trkpt>
<trkpt lat="63.819877625" lon="-19.076564789">
<ele>606.562500</ele>
<time>2012-07-25T18:14:00Z</time>
<speed>3.030000</speed>
<extensions>
<speed>3.0</speed>
<temp>0.00</temp>
<bpm>0</bpm>
<rpm>0.00</rpm>
</extensions>
</trkpt>
<trkpt lat="63.819911957" lon="-19.076936722">
<ele>606.203125</ele>
<time>2012-07-25T18:14:05Z</time>
<speed>3.760000</speed>
<extensions>
<speed>3.8</speed>
<temp>0.00</temp>
<bpm>0</bpm>
<rpm>0.00</rpm>
</extensions>
</trkpt>
<trkpt lat="63.819957733" lon="-19.077323914">
<ele>606.015625</ele>
<time>2012-07-25T18:14:10Z</time>
<speed>3.660000</speed>
<extensions>
<speed>3.7</speed>
<temp>0.00</temp>
<bpm>0</bpm>
<rpm>0.00</rpm>
</extensions>
</trkpt>
<trkpt lat="63.820014954" lon="-19.077713013">
<ele>605.718750</ele>
<time>2012-07-25T18:14:15Z</time>
<speed>4.210000</speed>
<extensions>
<speed>4.2</speed>
<temp>0.00</temp>
<bpm>0</bpm>
<rpm>0.00</rpm>
</extensions>
</trkpt>
<trkpt lat="63.820060730" lon="-19.078098297">
<ele>605.500000</ele>
<time>2012-07-25T18:14:20Z</time>
<speed>3.690000</speed>
<extensions>
<speed>3.7</speed>
<temp>0.00</temp>
<bpm>0</bpm>
<rpm>0.00</rpm>
</extensions>
</trkpt>
<trkpt lat="63.820106506" lon="-19.078468323">
<ele>605.468750</ele>
<time>2012-07-25T18:14:25Z</time>
<speed>4.000000</speed>
<extensions>
<speed>4.0</speed>
<temp>0.00</temp>
<bpm>0</bpm>
<rpm>0.00</rpm>
</extensions>
</trkpt>
<trkpt lat="63.820137024" lon="-19.078886032">
<ele>604.984375</ele>
<time>2012-07-25T18:14:30Z</time>
<speed>4.500000</speed>
<extensions>
<speed>4.5</speed>
<temp>0.00</temp>
<bpm>0</bpm>
<rpm>0.00</rpm>
</extensions>
</trkpt>
<trkpt lat="63.820163727" lon="-19.079311371">
<ele>604.312500</ele>
<time>2012-07-25T18:14:35Z</time>
<speed>4.220000</speed>
<extensions>
<speed>4.2</speed>
<temp>0.00</temp>
<bpm>0</bpm>
<rpm>0.00</rpm>
</extensions>
</trkpt>
<trkpt lat="63.820167542" lon="-19.079734802">
<ele>602.453125</ele>
<time>2012-07-25T18:14:40Z</time>
<speed>3.950000</speed>
<extensions>
<speed>4.0</speed>
<temp>0.00</temp>
<bpm>0</bpm>
<rpm>0.00</rpm>
</extensions>
</trkpt>
<trkpt lat="63.820186615" lon="-19.080173492">
<ele>602.843750</ele>
<time>2012-07-25T18:14:45Z</time>
<speed>4.210000</speed>
<extensions>
<speed>4.2</speed>
<temp>0.00</temp>
<bpm>0</bpm>
<rpm>0.00</rpm>
</extensions>
</trkpt>
<trkpt lat="63.820194244" lon="-19.080572128">
<ele>602.375000</ele>
<time>2012-07-25T18:14:50Z</time>
<speed>3.470000</speed>
<extensions>
<speed>3.5</speed>
<temp>0.00</temp>
<bpm>0</bpm>
<rpm>0.00</rpm>
</extensions>
</trkpt>
<trkpt lat="63.820209503" lon="-19.080902100">
<ele>601.796875</ele>
<time>2012-07-25T18:14:55Z</time>
<speed>3.150000</speed>
<extensions>
<speed>3.2</speed>
<temp>0.00</temp>
<bpm>0</bpm>
<rpm>0.00</rpm>
</extensions>
</trkpt>
<trkpt lat="63.820228577" lon="-19.081224442">
<ele>601.953125</ele>
<time>2012-07-25T18:15:00Z</time>
<speed>3.630000</speed>
<extensions>
<speed>3.6</speed>
<temp>0.00</temp>
<bpm>0</bpm>
<rpm>0.00</rpm>
</extensions>
</trkpt>
<trkpt lat="63.820243835" lon="-19.081571579">
<ele>601.281250</ele>
<time>2012-07-25T18:15:05Z</time>
<speed>3.820000</speed>
<extensions>
<speed>3.8</speed>
<temp>0.00</temp>
<bpm>0</bpm>
<rpm>0.00</rpm>
</extensions>
</trkpt>
<trkpt lat="63.820262909" lon="-19.081956863">
<ele>601.906250</ele>
<time>2012-07-25T18:15:10Z</time>
<speed>4.030000</speed>
<extensions>
<speed>4.0</speed>
<temp>0.00</temp>
<bpm>0</bpm>
<rpm>0.00</rpm>
</extensions>
</trkpt>
<trkpt lat="63.820278168" lon="-19.082382202">
<ele>602.468750</ele>
<time>2012-07-25T18:15:15Z</time>
<speed>3.940000</speed>
<extensions>
<speed>3.9</speed>
<temp>0.00</temp>
<bpm>0</bpm>
<rpm>0.00</rpm>
</extensions>
</trkpt>
<trkpt lat="63.820270538" lon="-19.082778931">
<ele>602.765625</ele>
<time>2012-07-25T18:15:20Z</time>
<speed>3.850000</speed>
<extensions>
<speed>3.8</speed>
<temp>0.00</temp>
<bpm>0</bpm>
<rpm>0.00</rpm>
</extensions>
</trkpt>
<trkpt lat="63.820240021" lon="-19.083177567">
<ele>602.843750</ele>
<time>2012-07-25T18:15:25Z</time>
<speed>4.040000</speed>
<extensions>
<speed>4.0</speed>
<temp>0.00</temp>
<bpm>0</bpm>
<rpm>0.00</rpm>
</extensions>
</trkpt>
<trkpt lat="63.820198059" lon="-19.083547592">
<ele>602.265625</ele>
<time>2012-07-25T18:15:30Z</time>
<speed>3.720000</speed>
<extensions>
<speed>3.7</speed>
<temp>0.00</temp>
<bpm>0</bpm>
<rpm>0.00</rpm>
</extensions>
</trkpt>
<trkpt lat="63.820220947" lon="-19.083881378">
<ele>602.812500</ele>
<time>2012-07-25T18:15:35Z</time>
<speed>3.090000</speed>
<extensions>
<speed>3.1</speed>
<temp>0.00</temp>
<bpm>0</bpm>
<rpm>0.00</rpm>
</extensions>
</trkpt>
<trkpt lat="63.820217133" lon="-19.084201813">
<ele>602.359375</ele>
<time>2012-07-25T18:15:40Z</time>
<speed>3.080000</speed>
<extensions>
<speed>3.1</speed>
<temp>0.00</temp>
<bpm>0</bpm>
<rpm>0.00</rpm>
</extensions>
</trkpt>
<trkpt lat="63.820205688" lon="-19.084545135">
<ele>602.187500</ele>
<time>2012-07-25T18:15:45Z</time>
<speed>3.260000</speed>
<extensions>
<speed>3.3</speed>
<temp>0.00</temp>
<bpm>0</bpm>
<rpm>0.00</rpm>
</extensions>
</trkpt>
<trkpt lat="63.820209503" lon="-19.084886551">
<ele>603.531250</ele>
<time>2012-07-25T18:15:50Z</time>
<speed>3.000000</speed>
<extensions>
<speed>3.0</speed>
<temp>0.00</temp>
<bpm>0</bpm>
<rpm>0.00</rpm>
</extensions>
</trkpt>
<trkpt lat="63.820198059" lon="-19.085210800">
<ele>602.937500</ele>
<time>2012-07-25T18:15:55Z</time>
<speed>3.250000</speed>
<extensions>
<speed>3.2</speed>
<temp>0.00</temp>
<bpm>0</bpm>
<rpm>0.00</rpm>
</extensions>
</trkpt>
<trkpt lat="63.820198059" lon="-19.085538864">
<ele>602.609375</ele>
<time>2012-07-25T18:16:00Z</time>
<speed>3.220000</speed>
<extensions>
<speed>3.2</speed>
<temp>0.00</temp>
<bpm>0</bpm>
<rpm>0.00</rpm>
</extensions>
</trkpt>
<trkpt lat="63.820194244" lon="-19.085884094">
<ele>602.531250</ele>
<time>2012-07-25T18:16:05Z</time>
<speed>3.490000</speed>
<extensions>
<speed>3.5</speed>
<temp>0.00</temp>
<bpm>0</bpm>
<rpm>0.00</rpm>
</extensions>
</trkpt>
<trkpt lat="63.820198059" lon="-19.086236954">
<ele>603.671875</ele>
<time>2012-07-25T18:16:10Z</time>
<speed>3.380000</speed>
<extensions>
<speed>3.4</speed>
<temp>0.00</temp>
<bpm>0</bpm>
<rpm>0.00</rpm>
</extensions>
</trkpt>
<trkpt lat="63.820213318" lon="-19.086563110">
<ele>604.296875</ele>
<time>2012-07-25T18:16:15Z</time>
<speed>3.440000</speed>
<extensions>
<speed>3.4</speed>
<temp>0.00</temp>
<bpm>0</bpm>
<rpm>0.00</rpm>
</extensions>
</trkpt>
<trkpt lat="63.820209503" lon="-19.086896896">
<ele>602.640625</ele>
<time>2012-07-25T18:16:20Z</time>
<speed>3.180000</speed>
<extensions>
<speed>3.2</speed>
<temp>0.00</temp>
<bpm>0</bpm>
<rpm>0.00</rpm>
</extensions>
</trkpt>
<trkpt lat="63.820220947" lon="-19.087221146">
<ele>602.718750</ele>
<time>2012-07-25T18:16:25Z</time>
<speed>2.970000</speed>
<extensions>
<speed>3.0</speed>
<temp>0.00</temp>
<bpm>0</bpm>
<rpm>0.00</rpm>
</extensions>
</trkpt>
<trkpt lat="63.820232391" lon="-19.087526321">
<ele>602.921875</ele>
<time>2012-07-25T18:16:30Z</time>
<speed>3.100000</speed>
<extensions>
<speed>3.1</speed>
<temp>0.00</temp>
<bpm>0</bpm>
<rpm>0.00</rpm>
</extensions>
</trkpt>
<trkpt lat="63.820240021" lon="-19.087871552">
<ele>603.265625</ele>
<time>2012-07-25T18:16:35Z</time>
<speed>3.060000</speed>
<extensions>
<speed>3.1</speed>
<temp>0.00</temp>
<bpm>0</bpm>
<rpm>0.00</rpm>
</extensions>
</trkpt>
<trkpt lat="63.820247650" lon="-19.088226318">
<ele>604.156250</ele>
<time>2012-07-25T18:16:40Z</time>
<speed>3.590000</speed>
<extensions>
<speed>3.6</speed>
<temp>0.00</temp>
<bpm>0</bpm>
<rpm>0.00</rpm>
</extensions>
</trkpt>
<trkpt lat="63.820259094" lon="-19.088590622">
<ele>603.453125</ele>
<time>2012-07-25T18:16:45Z</time>
<speed>3.800000</speed>
<extensions>
<speed>3.8</speed>
<temp>0.00</temp>
<bpm>0</bpm>
<rpm>0.00</rpm>
</extensions>
</trkpt>
<trkpt lat="63.820274353" lon="-19.088985443">
<ele>602.609375</ele>
<time>2012-07-25T18:16:50Z</time>
<speed>4.040000</speed>
<extensions>
<speed>4.0</speed>
<temp>0.00</temp>
<bpm>0</bpm>
<rpm>0.00</rpm>
</extensions>
</trkpt>
<trkpt lat="63.820297241" lon="-19.089370728">
<ele>601.328125</ele>
<time>2012-07-25T18:16:55Z</time>
<speed>3.640000</speed>
<extensions>
<speed>3.6</speed>
<temp>0.00</temp>
<bpm>0</bpm>
<rpm>0.00</rpm>
</extensions>
</trkpt>
<trkpt lat="63.820304871" lon="-19.089765549">
<ele>601.609375</ele>
<time>2012-07-25T18:17:00Z</time>
<speed>3.840000</speed>
<extensions>
<speed>3.8</speed>
<temp>0.00</temp>
<bpm>0</bpm>
<rpm>0.00</rpm>
</extensions>
</trkpt>
<trkpt lat="63.820320129" lon="-19.090135574">
<ele>600.921875</ele>
<time>2012-07-25T18:17:05Z</time>
<speed>3.780000</speed>
<extensions>
<speed>3.8</speed>
<temp>0.00</temp>
<bpm>0</bpm>
<rpm>0.00</rpm>
</extensions>
</trkpt>
<trkpt lat="63.820327759" lon="-19.090513229">
<ele>601.078125</ele>
<time>2012-07-25T18:17:10Z</time>
<speed>3.570000</speed>
<extensions>
<speed>3.6</speed>
<temp>0.00</temp>
<bpm>0</bpm>
<rpm>0.00</rpm>
</extensions>
</trkpt>
<trkpt lat="63.820339203" lon="-19.090873718">
<ele>602.734375</ele>
<time>2012-07-25T18:17:15Z</time>
<speed>3.230000</speed>
<extensions>
<speed>3.2</speed>
<temp>0.00</temp>
<bpm>0</bpm>
<rpm>0.00</rpm>
</extensions>
</trkpt>
<trkpt lat="63.820343018" lon="-19.091136932">
<ele>602.781250</ele>
<time>2012-07-25T18:17:20Z</time>
<speed>2.050000</speed>
<extensions>
<speed>2.1</speed>
<temp>0.00</temp>
<bpm>0</bpm>
<rpm>0.00</rpm>
</extensions>
</trkpt>
<trkpt lat="63.820350647" lon="-19.091320038">
<ele>604.875000</ele>
<time>2012-07-25T18:17:25Z</time>
<speed>2.190000</speed>
<extensions>
<speed>2.2</speed>
<temp>0.00</temp>
<bpm>0</bpm>
<rpm>0.00</rpm>
</extensions>
</trkpt>
<trkpt lat="63.820339203" lon="-19.091600418">
<ele>603.781250</ele>
<time>2012-07-25T18:17:30Z</time>
<speed>3.230000</speed>
<extensions>
<speed>3.2</speed>
<temp>0.00</temp>
<bpm>0</bpm>
<rpm>0.00</rpm>
</extensions>
</trkpt>
<trkpt lat="63.820339203" lon="-19.091922760">
<ele>603.875000</ele>
<time>2012-07-25T18:17:35Z</time>
<speed>3.190000</speed>
<extensions>
<speed>3.2</speed>
<temp>0.00</temp>
<bpm>0</bpm>
<rpm>0.00</rpm>
</extensions>
</trkpt>
<trkpt lat="63.820320129" lon="-19.092235565">
<ele>602.984375</ele>
<time>2012-07-25T18:17:40Z</time>
<speed>3.110000</speed>
<extensions>
<speed>3.1</speed>
<temp>0.00</temp>
<bpm>0</bpm>
<rpm>0.00</rpm>
</extensions>
</trkpt>
<trkpt lat="63.820308685" lon="-19.092554092">
<ele>601.812500</ele>
<time>2012-07-25T18:17:45Z</time>
<speed>3.130000</speed>
<extensions>
<speed>3.1</speed>
<temp>0.00</temp>
<bpm>0</bpm>
<rpm>0.00</rpm>
</extensions>
</trkpt>
<trkpt lat="63.820304871" lon="-19.092868805">
<ele>602.093750</ele>
<time>2012-07-25T18:17:50Z</time>
<speed>3.080000</speed>
<extensions>
<speed>3.1</speed>
<temp>0.00</temp>
<bpm>0</bpm>
<rpm>0.00</rpm>
</extensions>
</trkpt>
<trkpt lat="63.820304871" lon="-19.093196869">
<ele>603.546875</ele>
<time>2012-07-25T18:17:55Z</time>
<speed>3.400000</speed>
<extensions>
<speed>3.4</speed>
<temp>0.00</temp>
<bpm>0</bpm>
<rpm>0.00</rpm>
</extensions>
</trkpt>
<trkpt lat="63.820289612" lon="-19.093505859">
<ele>602.609375</ele>
<time>2012-07-25T18:18:00Z</time>
<speed>2.910000</speed>
<extensions>
<speed>2.9</speed>
<temp>0.00</temp>
<bpm>0</bpm>
<rpm>0.00</rpm>
</extensions>
</trkpt>
<trkpt lat="63.820281982" lon="-19.093822479">
<ele>602.437500</ele>
<time>2012-07-25T18:18:05Z</time>
<speed>3.360000</speed>
<extensions>
<speed>3.4</speed>
<temp>0.00</temp>
<bpm>0</bpm>
<rpm>0.00</rpm>
</extensions>
</trkpt>
<trkpt lat="63.820270538" lon="-19.094181061">
<ele>602.703125</ele>
<time>2012-07-25T18:18:10Z</time>
<speed>3.510000</speed>
<extensions>
<speed>3.5</speed>
<temp>0.00</temp>
<bpm>0</bpm>
<rpm>0.00</rpm>
</extensions>
</trkpt>
<trkpt lat="63.820247650" lon="-19.094530106">
<ele>601.203125</ele>
<time>2012-07-25T18:18:15Z</time>
<speed>3.590000</speed>
<extensions>
<speed>3.6</speed>
<temp>0.00</temp>
<bpm>0</bpm>
<rpm>0.00</rpm>
</extensions>
</trkpt>
<trkpt lat="63.820217133" lon="-19.094902039">
<ele>600.281250</ele>
<time>2012-07-25T18:18:20Z</time>
<speed>3.770000</speed>
<extensions>
<speed>3.8</speed>
<temp>0.00</temp>
<bpm>0</bpm>
<rpm>0.00</rpm>
</extensions>
</trkpt>
<trkpt lat="63.820186615" lon="-19.095245361">
<ele>601.234375</ele>
<time>2012-07-25T18:18:25Z</time>
<speed>3.350000</speed>
<extensions>
<speed>3.4</speed>
<temp>0.00</temp>
<bpm>0</bpm>
<rpm>0.00</rpm>
</extensions>
</trkpt>
<trkpt lat="63.820156097" lon="-19.095602036">
<ele>601.390625</ele>
<time>2012-07-25T18:18:30Z</time>
<speed>3.540000</speed>
<extensions>
<speed>3.5</speed>
<temp>0.00</temp>
<bpm>0</bpm>
<rpm>0.00</rpm>
</extensions>
</trkpt>
<trkpt lat="63.820140839" lon="-19.095903397">
<ele>602.062500</ele>
<time>2012-07-25T18:18:35Z</time>
<speed>3.250000</speed>
<extensions>
<speed>3.2</speed>
<temp>0.00</temp>
<bpm>0</bpm>
<rpm>0.00</rpm>
</extensions>
</trkpt>
<trkpt lat="63.820110321" lon="-19.096250534">
<ele>599.671875</ele>
<time>2012-07-25T18:18:40Z</time>
<speed>3.430000</speed>
<extensions>
<speed>3.4</speed>
<temp>0.00</temp>
<bpm>0</bpm>
<rpm>0.00</rpm>
</extensions>
</trkpt>
<trkpt lat="63.820072174" lon="-19.096618652">
<ele>599.609375</ele>
<time>2012-07-25T18:18:45Z</time>
<speed>3.430000</speed>
<extensions>
<speed>3.4</speed>
<temp>0.00</temp>
<bpm>0</bpm>
<rpm>0.00</rpm>
</extensions>
</trkpt>
<trkpt lat="63.820037842" lon="-19.097002029">
<ele>599.656250</ele>
<time>2012-07-25T18:18:50Z</time>
<speed>3.470000</speed>
<extensions>
<speed>3.5</speed>
<temp>0.00</temp>
<bpm>0</bpm>
<rpm>0.00</rpm>
</extensions>
</trkpt>
<trkpt lat="63.819995880" lon="-19.097326279">
<ele>600.984375</ele>
<time>2012-07-25T18:18:55Z</time>
<speed>3.460000</speed>
<extensions>
<speed>3.5</speed>
<temp>0.00</temp>
<bpm>0</bpm>
<rpm>0.00</rpm>
</extensions>
</trkpt>
<trkpt lat="63.819927216" lon="-19.097702026">
<ele>602.062500</ele>
<time>2012-07-25T18:19:00Z</time>
<speed>3.560000</speed>
<extensions>
<speed>3.6</speed>
<temp>0.00</temp>
<bpm>0</bpm>
<rpm>0.00</rpm>
</extensions>
</trkpt>
<trkpt lat="63.819889069" lon="-19.098009109">
<ele>601.640625</ele>
<time>2012-07-25T18:19:05Z</time>
<speed>3.360000</speed>
<extensions>
<speed>3.4</speed>
<temp>0.00</temp>
<bpm>0</bpm>
<rpm>0.00</rpm>
</extensions>
</trkpt>
<trkpt lat="63.819812775" lon="-19.098346710">
<ele>601.609375</ele>
<time>2012-07-25T18:19:10Z</time>
<speed>3.340000</speed>
<extensions>
<speed>3.3</speed>
<temp>0.00</temp>
<bpm>0</bpm>
<rpm>0.00</rpm>
</extensions>
</trkpt>
<trkpt lat="63.819755554" lon="-19.098665237">
<ele>601.359375</ele>
<time>2012-07-25T18:19:15Z</time>
<speed>3.380000</speed>
<extensions>
<speed>3.4</speed>
<temp>0.00</temp>
<bpm>0</bpm>
<rpm>0.00</rpm>
</extensions>
</trkpt>
<trkpt lat="63.819694519" lon="-19.098964691">
<ele>601.359375</ele>
<time>2012-07-25T18:19:20Z</time>
<speed>3.570000</speed>
<extensions>
<speed>3.6</speed>
<temp>0.00</temp>
<bpm>0</bpm>
<rpm>0.00</rpm>
</extensions>
</trkpt>
<trkpt lat="63.819629669" lon="-19.099241257">
<ele>601.406250</ele>
<time>2012-07-25T18:19:25Z</time>
<speed>3.570000</speed>
<extensions>
<speed>3.6</speed>
<temp>0.00</temp>
<bpm>0</bpm>
<rpm>0.00</rpm>
</extensions>
</trkpt>
<trkpt lat="63.819557190" lon="-19.099592209">
<ele>599.062500</ele>
<time>2012-07-25T18:19:30Z</time>
<speed>3.610000</speed>
<extensions>
<speed>3.6</speed>
<temp>0.00</temp>
<bpm>0</bpm>
<rpm>0.00</rpm>
</extensions>
</trkpt>
<trkpt lat="63.819499969" lon="-19.099880219">
<ele>600.437500</ele>
<time>2012-07-25T18:19:35Z</time>
<speed>2.990000</speed>
<extensions>
<speed>3.0</speed>
<temp>0.00</temp>
<bpm>0</bpm>
<rpm>0.00</rpm>
</extensions>
</trkpt>
<trkpt lat="63.819423676" lon="-19.100191116">
<ele>599.500000</ele>
<time>2012-07-25T18:19:40Z</time>
<speed>3.660000</speed>
<extensions>
<speed>3.7</speed>
<temp>0.00</temp>
<bpm>0</bpm>
<rpm>0.00</rpm>
</extensions>
</trkpt>
<trkpt lat="63.819339752" lon="-19.100488663">
<ele>598.593750</ele>
<time>2012-07-25T18:19:45Z</time>
<speed>3.190000</speed>
<extensions>
<speed>3.2</speed>
<temp>0.00</temp>
<bpm>0</bpm>
<rpm>0.00</rpm>
</extensions>
</trkpt>
<trkpt lat="63.819274902" lon="-19.100778580">
<ele>598.859375</ele>
<time>2012-07-25T18:19:50Z</time>
<speed>3.330000</speed>
<extensions>
<speed>3.3</speed>
<temp>0.00</temp>
<bpm>0</bpm>
<rpm>0.00</rpm>
</extensions>
</trkpt>
<trkpt lat="63.819202423" lon="-19.101043701">
<ele>599.703125</ele>
<time>2012-07-25T18:19:55Z</time>
<speed>3.430000</speed>
<extensions>
<speed>3.4</speed>
<temp>0.00</temp>
<bpm>0</bpm>
<rpm>0.00</rpm>
</extensions>
</trkpt>
<trkpt lat="63.819129944" lon="-19.101333618">
<ele>601.093750</ele>
<time>2012-07-25T18:20:00Z</time>
<speed>3.220000</speed>
<extensions>
<speed>3.2</speed>
<temp>0.00</temp>
<bpm>0</bpm>
<rpm>0.00</rpm>
</extensions>
</trkpt>
<trkpt lat="63.819046021" lon="-19.101644516">
<ele>602.156250</ele>
<time>2012-07-25T18:20:05Z</time>
<speed>3.790000</speed>
<extensions>
<speed>3.8</speed>
<temp>0.00</temp>
<bpm>0</bpm>
<rpm>0.00</rpm>
</extensions>
</trkpt>
<trkpt lat="63.818950653" lon="-19.101999283">
<ele>600.187500</ele>
<time>2012-07-25T18:20:10Z</time>
<speed>3.800000</speed>
<extensions>
<speed>3.8</speed>
<temp>0.00</temp>
<bpm>0</bpm>
<rpm>0.00</rpm>
</extensions>
</trkpt>
<trkpt lat="63.818874359" lon="-19.102321625">
<ele>598.343750</ele>
<time>2012-07-25T18:20:15Z</time>
<speed>3.750000</speed>
<extensions>
<speed>3.8</speed>
<temp>0.00</temp>
<bpm>0</bpm>
<rpm>0.00</rpm>
</extensions>
</trkpt>
<trkpt lat="63.818794250" lon="-19.102659225">
<ele>597.218750</ele>
<time>2012-07-25T18:20:20Z</time>
<speed>3.310000</speed>
<extensions>
<speed>3.3</speed>
<temp>0.00</temp>
<bpm>0</bpm>
<rpm>0.00</rpm>
</extensions>
</trkpt>
<trkpt lat="63.818710327" lon="-19.102905273">
<ele>598.390625</ele>
<time>2012-07-25T18:20:25Z</time>
<speed>3.070000</speed>
<extensions>
<speed>3.1</speed>
<temp>0.00</temp>
<bpm>0</bpm>
<rpm>0.00</rpm>
</extensions>
</trkpt>
<trkpt lat="63.818637848" lon="-19.103204727">
<ele>599.484375</ele>
<time>2012-07-25T18:20:30Z</time>
<speed>3.370000</speed>
<extensions>
<speed>3.4</speed>
<temp>0.00</temp>
<bpm>0</bpm>
<rpm>0.00</rpm>
</extensions>
</trkpt>
<trkpt lat="63.818565369" lon="-19.103485107">
<ele>600.859375</ele>
<time>2012-07-25T18:20:35Z</time>
<speed>3.360000</speed>
<extensions>
<speed>3.4</speed>
<temp>0.00</temp>
<bpm>0</bpm>
<rpm>0.00</rpm>
</extensions>
</trkpt>
<trkpt lat="63.818485260" lon="-19.103803635">
<ele>600.140625</ele>
<time>2012-07-25T18:20:40Z</time>
<speed>3.620000</speed>
<extensions>
<speed>3.6</speed>
<temp>0.00</temp>
<bpm>0</bpm>
<rpm>0.00</rpm>
</extensions>
</trkpt>
<trkpt lat="63.818424225" lon="-19.104078293">
<ele>601.078125</ele>
<time>2012-07-25T18:20:45Z</time>
<speed>3.250000</speed>
<extensions>
<speed>3.2</speed>
<temp>0.00</temp>
<bpm>0</bpm>
<rpm>0.00</rpm>
</extensions>
</trkpt>
<trkpt lat="63.818351746" lon="-19.104368210">
<ele>601.812500</ele>
<time>2012-07-25T18:20:50Z</time>
<speed>3.210000</speed>
<extensions>
<speed>3.2</speed>
<temp>0.00</temp>
<bpm>0</bpm>
<rpm>0.00</rpm>
</extensions>
</trkpt>
<trkpt lat="63.818279266" lon="-19.104669571">
<ele>601.984375</ele>
<time>2012-07-25T18:20:55Z</time>
<speed>3.260000</speed>
<extensions>
<speed>3.3</speed>
<temp>0.00</temp>
<bpm>0</bpm>
<rpm>0.00</rpm>
</extensions>
</trkpt>
<trkpt lat="63.818206787" lon="-19.104957581">
<ele>602.468750</ele>
<time>2012-07-25T18:21:00Z</time>
<speed>3.220000</speed>
<extensions>
<speed>3.2</speed>
<temp>0.00</temp>
<bpm>0</bpm>
<rpm>0.00</rpm>
</extensions>
</trkpt>
<trkpt lat="63.818138123" lon="-19.105253220">
<ele>602.125000</ele>
<time>2012-07-25T18:21:05Z</time>
<speed>3.290000</speed>
<extensions>
<speed>3.3</speed>
<temp>0.00</temp>
<bpm>0</bpm>
<rpm>0.00</rpm>
</extensions>
</trkpt>
<trkpt lat="63.818061829" lon="-19.105560303">
<ele>601.765625</ele>
<time>2012-07-25T18:21:10Z</time>
<speed>3.670000</speed>
<extensions>
<speed>3.7</speed>
<temp>0.00</temp>
<bpm>0</bpm>
<rpm>0.00</rpm>
</extensions>
</trkpt>
<trkpt lat="63.817985535" lon="-19.105834961">
<ele>599.765625</ele>
<time>2012-07-25T18:21:15Z</time>
<speed>1.920000</speed>
<extensions>
<speed>1.9</speed>
<temp>0.00</temp>
<bpm>0</bpm>
<rpm>0.00</rpm>
</extensions>
</trkpt>
<trkpt lat="63.817916870" lon="-19.106088638">
<ele>599.921875</ele>
<time>2012-07-25T18:21:20Z</time>
<speed>3.130000</speed>
<extensions>
<speed>3.1</speed>
<temp>0.00</temp>
<bpm>0</bpm>
<rpm>0.00</rpm>
</extensions>
</trkpt>
<trkpt lat="63.817844391" lon="-19.106372833">
<ele>600.000000</ele>
<time>2012-07-25T18:21:25Z</time>
<speed>3.290000</speed>
<extensions>
<speed>3.3</speed>
<temp>0.00</temp>
<bpm>0</bpm>
<rpm>0.00</rpm>
</extensions>
</trkpt>
<trkpt lat="63.817775726" lon="-19.106662750">
<ele>600.343750</ele>
<time>2012-07-25T18:21:30Z</time>
<speed>3.530000</speed>
<extensions>
<speed>3.5</speed>
<temp>0.00</temp>
<bpm>0</bpm>
<rpm>0.00</rpm>
</extensions>
</trkpt>
<trkpt lat="63.817794800" lon="-19.106834412">
<ele>592.156250</ele>
<time>2012-07-25T18:21:35Z</time>
<speed>0.800000</speed>
<extensions>
<speed>0.8</speed>
<temp>0.00</temp>
<bpm>0</bpm>
<rpm>0.00</rpm>
</extensions>
</trkpt>
<trkpt lat="63.817600250" lon="-19.107318878">
<ele>595.359375</ele>
<time>2012-07-25T18:21:41Z</time>
<speed>3.210000</speed>
<extensions>
<speed>3.2</speed>
<temp>0.00</temp>
<bpm>0</bpm>
<rpm>0.00</rpm>
</extensions>
</trkpt>
<trkpt lat="63.817535400" lon="-19.107589722">
<ele>597.593750</ele>
<time>2012-07-25T18:21:46Z</time>
<speed>3.550000</speed>
<extensions>
<speed>3.5</speed>
<temp>0.00</temp>
<bpm>0</bpm>
<rpm>0.00</rpm>
</extensions>
</trkpt>
<trkpt lat="63.817386627" lon="-19.108049393">
<ele>596.515625</ele>
<time>2012-07-25T18:21:51Z</time>
<speed>1.140000</speed>
<extensions>
<speed>1.1</speed>
<temp>0.00</temp>
<bpm>0</bpm>
<rpm>0.00</rpm>
</extensions>
</trkpt>
<trkpt lat="63.817447662" lon="-19.108306885">
<ele>583.890625</ele>
<time>2012-07-25T18:21:59Z</time>
<speed>1.390000</speed>
<extensions>
<speed>1.4</speed>
<temp>0.00</temp>
<bpm>0</bpm>
<rpm>0.00</rpm>
</extensions>
</trkpt>
<trkpt lat="63.816413879" lon="-19.112335205">
<ele>599.250000</ele>
<time>2012-07-25T18:26:33Z</time>
<speed>0.200000</speed>
<extensions>
<speed>0.2</speed>
<temp>0.00</temp>
<bpm>0</bpm>
<rpm>0.00</rpm>
</extensions>
</trkpt>
<trkpt lat="63.816398621" lon="-19.112457275">
<ele>605.625000</ele>
<time>2012-07-25T18:26:39Z</time>
<speed>0.050000</speed>
<extensions>
<speed>0.1</speed>
<temp>0.00</temp>
<bpm>0</bpm>
<rpm>0.00</rpm>
</extensions>
</trkpt>
<trkpt lat="63.816383362" lon="-19.112428665">
<ele>602.687500</ele>
<time>2012-07-25T18:26:44Z</time>
<speed>0.060000</speed>
<extensions>
<speed>0.1</speed>
<temp>0.00</temp>
<bpm>0</bpm>
<rpm>0.00</rpm>
</extensions>
</trkpt>
<trkpt lat="63.816379547" lon="-19.112428665">
<ele>604.656250</ele>
<time>2012-07-25T18:26:50Z</time>
<extensions>
<speed>0.0</speed>
<temp>0.00</temp>
<bpm>0</bpm>
<rpm>0.00</rpm>
</extensions>
</trkpt>
<trkpt lat="63.816387177" lon="-19.112417221">
<ele>604.671875</ele>
<time>2012-07-25T18:26:55Z</time>
<speed>0.020000</speed>
<extensions>
<speed>0.0</speed>
<temp>0.00</temp>
<bpm>0</bpm>
<rpm>0.00</rpm>
</extensions>
</trkpt>
<trkpt lat="63.816394806" lon="-19.112424850">
<ele>604.390625</ele>
<time>2012-07-25T18:27:00Z</time>
<speed>0.070000</speed>
<extensions>
<speed>0.1</speed>
<temp>0.00</temp>
<bpm>0</bpm>
<rpm>0.00</rpm>
</extensions>
</trkpt>
<trkpt lat="63.816398621" lon="-19.112428665">
<ele>604.812500</ele>
<time>2012-07-25T18:27:05Z</time>
<speed>0.060000</speed>
<extensions>
<speed>0.1</speed>
<temp>0.00</temp>
<bpm>0</bpm>
<rpm>0.00</rpm>
</extensions>
</trkpt>
<trkpt lat="63.816398621" lon="-19.112432480">
<ele>604.859375</ele>
<time>2012-07-25T18:27:10Z</time>
<speed>0.010000</speed>
<extensions>
<speed>0.0</speed>
<temp>0.00</temp>
<bpm>0</bpm>
<rpm>0.00</rpm>
</extensions>
</trkpt>
<trkpt lat="63.816398621" lon="-19.112432480">
<ele>604.843750</ele>
<time>2012-07-25T18:27:15Z</time>
<speed>0.090000</speed>
<extensions>
<speed>0.1</speed>
<temp>0.00</temp>
<bpm>0</bpm>
<rpm>0.00</rpm>
</extensions>
</trkpt>
<trkpt lat="63.816398621" lon="-19.112424850">
<ele>604.843750</ele>
<time>2012-07-25T18:27:20Z</time>
<speed>0.010000</speed>
<extensions>
<speed>0.0</speed>
<temp>0.00</temp>
<bpm>0</bpm>
<rpm>0.00</rpm>
</extensions>
</trkpt>
<trkpt lat="63.816402435" lon="-19.112424850">
<ele>604.796875</ele>
<time>2012-07-25T18:27:25Z</time>
<speed>0.090000</speed>
<extensions>
<speed>0.1</speed>
<temp>0.00</temp>
<bpm>0</bpm>
<rpm>0.00</rpm>
</extensions>
</trkpt>
<trkpt lat="63.816406250" lon="-19.112422943">
<ele>604.750000</ele>
<time>2012-07-25T18:27:30Z</time>
<speed>0.130000</speed>
<extensions>
<speed>0.1</speed>
<temp>0.00</temp>
<bpm>0</bpm>
<rpm>0.00</rpm>
</extensions>
</trkpt>
<trkpt lat="63.816406250" lon="-19.112426758">
<ele>604.750000</ele>
<time>2012-07-25T18:27:35Z</time>
<speed>0.120000</speed>
<extensions>
<speed>0.1</speed>
<temp>0.00</temp>
<bpm>0</bpm>
<rpm>0.00</rpm>
</extensions>
</trkpt>
<trkpt lat="63.816410065" lon="-19.112432480">
<ele>604.718750</ele>
<time>2012-07-25T18:27:40Z</time>
<speed>0.080000</speed>
<extensions>
<speed>0.1</speed>
<temp>0.00</temp>
<bpm>0</bpm>
<rpm>0.00</rpm>
</extensions>
</trkpt>
<trkpt lat="63.816410065" lon="-19.112434387">
<ele>604.687500</ele>
<time>2012-07-25T18:27:45Z</time>
<speed>0.150000</speed>
<extensions>
<speed>0.2</speed>
<temp>0.00</temp>
<bpm>0</bpm>
<rpm>0.00</rpm>
</extensions>
</trkpt>
<trkpt lat="63.816410065" lon="-19.112436295">
<ele>604.718750</ele>
<time>2012-07-25T18:27:50Z</time>
<speed>0.020000</speed>
<extensions>
<speed>0.0</speed>
<temp>0.00</temp>
<bpm>0</bpm>
<rpm>0.00</rpm>
</extensions>
</trkpt>
<trkpt lat="63.816413879" lon="-19.112436295">
<ele>604.718750</ele>
<time>2012-07-25T18:27:55Z</time>
<speed>0.240000</speed>
<extensions>
<speed>0.2</speed>
<temp>0.00</temp>
<bpm>0</bpm>
<rpm>0.00</rpm>
</extensions>
</trkpt>
<trkpt lat="63.816413879" lon="-19.112438202">
<ele>604.703125</ele>
<time>2012-07-25T18:28:00Z</time>
<speed>0.020000</speed>
<extensions>
<speed>0.0</speed>
<temp>0.00</temp>
<bpm>0</bpm>
<rpm>0.00</rpm>
</extensions>
</trkpt>
<trkpt lat="63.816413879" lon="-19.112440109">
<ele>604.671875</ele>
<time>2012-07-25T18:28:05Z</time>
<speed>0.010000</speed>
<extensions>
<speed>0.0</speed>
<temp>0.00</temp>
<bpm>0</bpm>
<rpm>0.00</rpm>
</extensions>
</trkpt>
<trkpt lat="63.816413879" lon="-19.112440109">
<ele>604.640625</ele>
<time>2012-07-25T18:28:10Z</time>
<speed>0.080000</speed>
<extensions>
<speed>0.1</speed>
<temp>0.00</temp>
<bpm>0</bpm>
<rpm>0.00</rpm>
</extensions>
</trkpt>
<trkpt lat="63.816413879" lon="-19.112442017">
<ele>604.625000</ele>
<time>2012-07-25T18:28:15Z</time>
<speed>0.770000</speed>
<extensions>
<speed>0.8</speed>
<temp>0.00</temp>
<bpm>0</bpm>
<rpm>0.00</rpm>
</extensions>
</trkpt>
<trkpt lat="63.816387177" lon="-19.112586975">
<ele>604.203125</ele>
<time>2012-07-25T18:28:20Z</time>
<speed>1.800000</speed>
<extensions>
<speed>1.8</speed>
<temp>0.00</temp>
<bpm>0</bpm>
<rpm>0.00</rpm>
</extensions>
</trkpt>
<trkpt lat="63.816337585" lon="-19.112810135">
<ele>603.515625</ele>
<time>2012-07-25T18:28:25Z</time>
<speed>2.340000</speed>
<extensions>
<speed>2.3</speed>
<temp>0.00</temp>
<bpm>0</bpm>
<rpm>0.00</rpm>
</extensions>
</trkpt>
<trkpt lat="63.816295624" lon="-19.113040924">
<ele>605.078125</ele>
<time>2012-07-25T18:28:30Z</time>
<speed>2.360000</speed>
<extensions>
<speed>2.4</speed>
<temp>0.00</temp>
<bpm>0</bpm>
<rpm>0.00</rpm>
</extensions>
</trkpt>
<trkpt lat="63.816238403" lon="-19.113275528">
<ele>604.796875</ele>
<time>2012-07-25T18:28:35Z</time>
<speed>2.620000</speed>
<extensions>
<speed>2.6</speed>
<temp>0.00</temp>
<bpm>0</bpm>
<rpm>0.00</rpm>
</extensions>
</trkpt>
<trkpt lat="63.816196442" lon="-19.113536835">
<ele>604.218750</ele>
<time>2012-07-25T18:28:40Z</time>
<speed>2.910000</speed>
<extensions>
<speed>2.9</speed>
<temp>0.00</temp>
<bpm>0</bpm>
<rpm>0.00</rpm>
</extensions>
</trkpt>
<trkpt lat="63.816139221" lon="-19.113786697">
<ele>604.203125</ele>
<time>2012-07-25T18:28:45Z</time>
<speed>2.650000</speed>
<extensions>
<speed>2.6</speed>
<temp>0.00</temp>
<bpm>0</bpm>
<rpm>0.00</rpm>
</extensions>
</trkpt>
<trkpt lat="63.816078186" lon="-19.114036560">
<ele>605.312500</ele>
<time>2012-07-25T18:28:50Z</time>
<speed>2.820000</speed>
<extensions>
<speed>2.8</speed>
<temp>0.00</temp>
<bpm>0</bpm>
<rpm>0.00</rpm>
</extensions>
</trkpt>
<trkpt lat="63.816009521" lon="-19.114294052">
<ele>606.578125</ele>
<time>2012-07-25T18:28:55Z</time>
<speed>2.990000</speed>
<extensions>
<speed>3.0</speed>
<temp>0.00</temp>
<bpm>0</bpm>
<rpm>0.00</rpm>
</extensions>
</trkpt>
<trkpt lat="63.815959930" lon="-19.114557266">
<ele>607.093750</ele>
<time>2012-07-25T18:29:00Z</time>
<speed>3.000000</speed>
<extensions>
<speed>3.0</speed>
<temp>0.00</temp>
<bpm>0</bpm>
<rpm>0.00</rpm>
</extensions>
</trkpt>
<trkpt lat="63.815898895" lon="-19.114837646">
<ele>606.765625</ele>
<time>2012-07-25T18:29:05Z</time>
<speed>2.970000</speed>
<extensions>
<speed>3.0</speed>
<temp>0.00</temp>
<bpm>0</bpm>
<rpm>0.00</rpm>
</extensions>
</trkpt>
<trkpt lat="63.815841675" lon="-19.115125656">
<ele>606.828125</ele>
<time>2012-07-25T18:29:10Z</time>
<speed>3.140000</speed>
<extensions>
<speed>3.1</speed>
<temp>0.00</temp>
<bpm>0</bpm>
<rpm>0.00</rpm>
</extensions>
</trkpt>
<trkpt lat="63.815788269" lon="-19.115398407">
<ele>606.750000</ele>
<time>2012-07-25T18:29:15Z</time>
<speed>3.120000</speed>
<extensions>
<speed>3.1</speed>
<temp>0.00</temp>
<bpm>0</bpm>
<rpm>0.00</rpm>
</extensions>
</trkpt>
<trkpt lat="63.815742493" lon="-19.115688324">
<ele>605.765625</ele>
<time>2012-07-25T18:29:20Z</time>
<speed>3.160000</speed>
<extensions>
<speed>3.2</speed>
<temp>0.00</temp>
<bpm>0</bpm>
<rpm>0.00</rpm>
</extensions>
</trkpt>
<trkpt lat="63.815700531" lon="-19.116010666">
<ele>606.796875</ele>
<time>2012-07-25T18:29:25Z</time>
<speed>3.130000</speed>
<extensions>
<speed>3.1</speed>
<temp>0.00</temp>
<bpm>0</bpm>
<rpm>0.00</rpm>
</extensions>
</trkpt>
<trkpt lat="63.815681458" lon="-19.116336823">
<ele>608.125000</ele>
<time>2012-07-25T18:29:30Z</time>
<speed>3.060000</speed>
<extensions>
<speed>3.1</speed>
<temp>0.00</temp>
<bpm>0</bpm>
<rpm>0.00</rpm>
</extensions>
</trkpt>
<trkpt lat="63.815673828" lon="-19.116630554">
<ele>608.796875</ele>
<time>2012-07-25T18:29:35Z</time>
<speed>2.900000</speed>
<extensions>
<speed>2.9</speed>
<temp>0.00</temp>
<bpm>0</bpm>
<rpm>0.00</rpm>
</extensions>
</trkpt>
<trkpt lat="63.815662384" lon="-19.116924286">
<ele>608.890625</ele>
<time>2012-07-25T18:29:40Z</time>
<speed>2.950000</speed>
<extensions>
<speed>2.9</speed>
<temp>0.00</temp>
<bpm>0</bpm>
<rpm>0.00</rpm>
</extensions>
</trkpt>
<trkpt lat="63.815654755" lon="-19.117216110">
<ele>609.156250</ele>
<time>2012-07-25T18:29:45Z</time>
<speed>2.980000</speed>
<extensions>
<speed>3.0</speed>
<temp>0.00</temp>
<bpm>0</bpm>
<rpm>0.00</rpm>
</extensions>
</trkpt>
<trkpt lat="63.815647125" lon="-19.117490768">
<ele>609.031250</ele>
<time>2012-07-25T18:29:50Z</time>
<speed>2.850000</speed>
<extensions>
<speed>2.9</speed>
<temp>0.00</temp>
<bpm>0</bpm>
<rpm>0.00</rpm>
</extensions>
</trkpt>
<trkpt lat="63.815650940" lon="-19.117801666">
<ele>608.703125</ele>
<time>2012-07-25T18:29:55Z</time>
<speed>3.010000</speed>
<extensions>
<speed>3.0</speed>
<temp>0.00</temp>
<bpm>0</bpm>
<rpm>0.00</rpm>
</extensions>
</trkpt>
<trkpt lat="63.815647125" lon="-19.118124008">
<ele>607.609375</ele>
<time>2012-07-25T18:30:00Z</time>
<speed>3.090000</speed>
<extensions>
<speed>3.1</speed>
<temp>0.00</temp>
<bpm>0</bpm>
<rpm>0.00</rpm>
</extensions>
</trkpt>
<trkpt lat="63.815643311" lon="-19.118425369">
<ele>605.234375</ele>
<time>2012-07-25T18:30:05Z</time>
<speed>3.240000</speed>
<extensions>
<speed>3.2</speed>
<temp>0.00</temp>
<bpm>0</bpm>
<rpm>0.00</rpm>
</extensions>
</trkpt>
<trkpt lat="63.815643311" lon="-19.118715286">
<ele>602.656250</ele>
<time>2012-07-25T18:30:10Z</time>
<speed>2.430000</speed>
<extensions>
<speed>2.4</speed>
<temp>0.00</temp>
<bpm>0</bpm>
<rpm>0.00</rpm>
</extensions>
</trkpt>
<trkpt lat="63.815647125" lon="-19.119009018">
<ele>602.109375</ele>
<time>2012-07-25T18:30:15Z</time>
<speed>3.080000</speed>
<extensions>
<speed>3.1</speed>
<temp>0.00</temp>
<bpm>0</bpm>
<rpm>0.00</rpm>
</extensions>
</trkpt>
<trkpt lat="63.815643311" lon="-19.119367599">
<ele>605.015625</ele>
<time>2012-07-25T18:30:20Z</time>
<speed>3.450000</speed>
<extensions>
<speed>3.5</speed>
<temp>0.00</temp>
<bpm>0</bpm>
<rpm>0.00</rpm>
</extensions>
</trkpt>
<trkpt lat="63.815647125" lon="-19.119712830">
<ele>605.343750</ele>
<time>2012-07-25T18:30:25Z</time>
<speed>3.360000</speed>
<extensions>
<speed>3.4</speed>
<temp>0.00</temp>
<bpm>0</bpm>
<rpm>0.00</rpm>
</extensions>
</trkpt>
<trkpt lat="63.815654755" lon="-19.120031357">
<ele>605.953125</ele>
<time>2012-07-25T18:30:30Z</time>
<speed>3.340000</speed>
<extensions>
<speed>3.3</speed>
<temp>0.00</temp>
<bpm>0</bpm>
<rpm>0.00</rpm>
</extensions>
</trkpt>
<trkpt lat="63.815662384" lon="-19.120380402">
<ele>605.281250</ele>
<time>2012-07-25T18:30:35Z</time>
<speed>3.370000</speed>
<extensions>
<speed>3.4</speed>
<temp>0.00</temp>
<bpm>0</bpm>
<rpm>0.00</rpm>
</extensions>
</trkpt>
<trkpt lat="63.815677643" lon="-19.120731354">
<ele>604.984375</ele>
<time>2012-07-25T18:30:40Z</time>
<speed>3.510000</speed>
<extensions>
<speed>3.5</speed>
<temp>0.00</temp>
<bpm>0</bpm>
<rpm>0.00</rpm>
</extensions>
</trkpt>
<trkpt lat="63.815685272" lon="-19.121059418">
<ele>603.234375</ele>
<time>2012-07-25T18:30:45Z</time>
<speed>3.440000</speed>
<extensions>
<speed>3.4</speed>
<temp>0.00</temp>
<bpm>0</bpm>
<rpm>0.00</rpm>
</extensions>
</trkpt>
<trkpt lat="63.815692902" lon="-19.121381760">
<ele>603.468750</ele>
<time>2012-07-25T18:30:50Z</time>
<speed>3.370000</speed>
<extensions>
<speed>3.4</speed>
<temp>0.00</temp>
<bpm>0</bpm>
<rpm>0.00</rpm>
</extensions>
</trkpt>
<trkpt lat="63.815715790" lon="-19.121738434">
<ele>603.078125</ele>
<time>2012-07-25T18:30:55Z</time>
<speed>3.530000</speed>
<extensions>
<speed>3.5</speed>
<temp>0.00</temp>
<bpm>0</bpm>
<rpm>0.00</rpm>
</extensions>
</trkpt>
<trkpt lat="63.815731049" lon="-19.122081757">
<ele>603.640625</ele>
<time>2012-07-25T18:31:00Z</time>
<speed>3.250000</speed>
<extensions>
<speed>3.2</speed>
<temp>0.00</temp>
<bpm>0</bpm>
<rpm>0.00</rpm>
</extensions>
</trkpt>
<trkpt lat="63.815753937" lon="-19.122467041">
<ele>605.375000</ele>
<time>2012-07-25T18:31:05Z</time>
<speed>3.690000</speed>
<extensions>
<speed>3.7</speed>
<temp>0.00</temp>
<bpm>0</bpm>
<rpm>0.00</rpm>
</extensions>
</trkpt>
<trkpt lat="63.815769196" lon="-19.122821808">
<ele>608.187500</ele>
<time>2012-07-25T18:31:10Z</time>
<speed>3.630000</speed>
<extensions>
<speed>3.6</speed>
<temp>0.00</temp>
<bpm>0</bpm>
<rpm>0.00</rpm>
</extensions>
</trkpt>
<trkpt lat="63.815776825" lon="-19.123170853">
<ele>610.406250</ele>
<time>2012-07-25T18:31:15Z</time>
<speed>3.540000</speed>
<extensions>
<speed>3.5</speed>
<temp>0.00</temp>
<bpm>0</bpm>
<rpm>0.00</rpm>
</extensions>
</trkpt>
<trkpt lat="63.815780640" lon="-19.123466492">
<ele>612.593750</ele>
<time>2012-07-25T18:31:20Z</time>
<speed>2.920000</speed>
<extensions>
<speed>2.9</speed>
<temp>0.00</temp>
<bpm>0</bpm>
<rpm>0.00</rpm>
</extensions>
</trkpt>
<trkpt lat="63.815784454" lon="-19.123775482">
<ele>613.328125</ele>
<time>2012-07-25T18:31:25Z</time>
<speed>3.420000</speed>
<extensions>
<speed>3.4</speed>
<temp>0.00</temp>
<bpm>0</bpm>
<rpm>0.00</rpm>
</extensions>
</trkpt>
<trkpt lat="63.815814972" lon="-19.124132156">
<ele>611.937500</ele>
<time>2012-07-25T18:31:30Z</time>
<speed>3.380000</speed>
<extensions>
<speed>3.4</speed>
<temp>0.00</temp>
<bpm>0</bpm>
<rpm>0.00</rpm>
</extensions>
</trkpt>
<trkpt lat="63.815826416" lon="-19.124403000">
<ele>611.000000</ele>
<time>2012-07-25T18:31:35Z</time>
<speed>2.490000</speed>
<extensions>
<speed>2.5</speed>
<temp>0.00</temp>
<bpm>0</bpm>
<rpm>0.00</rpm>
</extensions>
</trkpt>
<trkpt lat="63.815837860" lon="-19.124683380">
<ele>611.187500</ele>
<time>2012-07-25T18:31:40Z</time>
<speed>3.230000</speed>
<extensions>
<speed>3.2</speed>
<temp>0.00</temp>
<bpm>0</bpm>
<rpm>0.00</rpm>
</extensions>
</trkpt>
<trkpt lat="63.815853119" lon="-19.125017166">
<ele>609.875000</ele>
<time>2012-07-25T18:31:45Z</time>
<speed>3.350000</speed>
<extensions>
<speed>3.4</speed>
<temp>0.00</temp>
<bpm>0</bpm>
<rpm>0.00</rpm>
</extensions>
</trkpt>
<trkpt lat="63.815876007" lon="-19.125282288">
<ele>609.265625</ele>
<time>2012-07-25T18:31:50Z</time>
<speed>2.160000</speed>
<extensions>
<speed>2.2</speed>
<temp>0.00</temp>
<bpm>0</bpm>
<rpm>0.00</rpm>
</extensions>
</trkpt>
<trkpt lat="63.815872192" lon="-19.125545502">
<ele>609.312500</ele>
<time>2012-07-25T18:31:55Z</time>
<speed>3.080000</speed>
<extensions>
<speed>3.1</speed>
<temp>0.00</temp>
<bpm>0</bpm>
<rpm>0.00</rpm>
</extensions>
</trkpt>
<trkpt lat="63.815898895" lon="-19.125867844">
<ele>609.546875</ele>
<time>2012-07-25T18:32:00Z</time>
<speed>3.300000</speed>
<extensions>
<speed>3.3</speed>
<temp>0.00</temp>
<bpm>0</bpm>
<rpm>0.00</rpm>
</extensions>
</trkpt>
<trkpt lat="63.815910339" lon="-19.126203537">
<ele>608.609375</ele>
<time>2012-07-25T18:32:05Z</time>
<speed>2.940000</speed>
<extensions>
<speed>2.9</speed>
<temp>0.00</temp>
<bpm>0</bpm>
<rpm>0.00</rpm>
</extensions>
</trkpt>
<trkpt lat="63.815937042" lon="-19.126543045">
<ele>605.437500</ele>
<time>2012-07-25T18:32:10Z</time>
<speed>3.400000</speed>
<extensions>
<speed>3.4</speed>
<temp>0.00</temp>
<bpm>0</bpm>
<rpm>0.00</rpm>
</extensions>
</trkpt>
<trkpt lat="63.815956116" lon="-19.126897812">
<ele>603.640625</ele>
<time>2012-07-25T18:32:15Z</time>
<speed>3.260000</speed>
<extensions>
<speed>3.3</speed>
<temp>0.00</temp>
<bpm>0</bpm>
<rpm>0.00</rpm>
</extensions>
</trkpt>
<trkpt lat="63.815979004" lon="-19.127206802">
<ele>602.234375</ele>
<time>2012-07-25T18:32:20Z</time>
<speed>2.920000</speed>
<extensions>
<speed>2.9</speed>
<temp>0.00</temp>
<bpm>0</bpm>
<rpm>0.00</rpm>
</extensions>
</trkpt>
<trkpt lat="63.816001892" lon="-19.127300262">
<ele>605.390625</ele>
<time>2012-07-25T18:32:25Z</time>
<speed>0.070000</speed>
<extensions>
<speed>0.1</speed>
<temp>0.00</temp>
<bpm>0</bpm>
<rpm>0.00</rpm>
</extensions>
</trkpt>
<trkpt lat="63.815998077" lon="-19.127304077">
<ele>605.812500</ele>
<time>2012-07-25T18:32:30Z</time>
<speed>0.090000</speed>
<extensions>
<speed>0.1</speed>
<temp>0.00</temp>
<bpm>0</bpm>
<rpm>0.00</rpm>
</extensions>
</trkpt>
<trkpt lat="63.815998077" lon="-19.127307892">
<ele>605.953125</ele>
<time>2012-07-25T18:32:35Z</time>
<speed>0.030000</speed>
<extensions>
<speed>0.0</speed>
<temp>0.00</temp>
<bpm>0</bpm>
<rpm>0.00</rpm>
</extensions>
</trkpt>
<trkpt lat="63.815998077" lon="-19.127305984">
<ele>606.031250</ele>
<time>2012-07-25T18:32:40Z</time>
<speed>0.040000</speed>
<extensions>
<speed>0.0</speed>
<temp>0.00</temp>
<bpm>0</bpm>
<rpm>0.00</rpm>
</extensions>
</trkpt>
<trkpt lat="63.816001892" lon="-19.127328873">
<ele>606.171875</ele>
<time>2012-07-25T18:32:45Z</time>
<speed>0.030000</speed>
<extensions>
<speed>0.0</speed>
<temp>0.00</temp>
<bpm>0</bpm>
<rpm>0.00</rpm>
</extensions>
</trkpt>
<trkpt lat="63.816009521" lon="-19.127393723">
<ele>606.546875</ele>
<time>2012-07-25T18:32:50Z</time>
<speed>2.070000</speed>
<extensions>
<speed>2.1</speed>
<temp>0.00</temp>
<bpm>0</bpm>
<rpm>0.00</rpm>
</extensions>
</trkpt>
<trkpt lat="63.816013336" lon="-19.127660751">
<ele>606.625000</ele>
<time>2012-07-25T18:32:55Z</time>
<speed>3.020000</speed>
<extensions>
<speed>3.0</speed>
<temp>0.00</temp>
<bpm>0</bpm>
<rpm>0.00</rpm>
</extensions>
</trkpt>
<trkpt lat="63.816024780" lon="-19.128013611">
<ele>607.156250</ele>
<time>2012-07-25T18:33:00Z</time>
<speed>3.600000</speed>
<extensions>
<speed>3.6</speed>
<temp>0.00</temp>
<bpm>0</bpm>
<rpm>0.00</rpm>
</extensions>
</trkpt>
<trkpt lat="63.816051483" lon="-19.128364563">
<ele>607.281250</ele>
<time>2012-07-25T18:33:05Z</time>
<speed>3.350000</speed>
<extensions>
<speed>3.4</speed>
<temp>0.00</temp>
<bpm>0</bpm>
<rpm>0.00</rpm>
</extensions>
</trkpt>
<trkpt lat="63.816078186" lon="-19.128704071">
<ele>607.734375</ele>
<time>2012-07-25T18:33:10Z</time>
<speed>3.310000</speed>
<extensions>
<speed>3.3</speed>
<temp>0.00</temp>
<bpm>0</bpm>
<rpm>0.00</rpm>
</extensions>
</trkpt>
<trkpt lat="63.816085815" lon="-19.129041672">
<ele>608.625000</ele>
<time>2012-07-25T18:33:15Z</time>
<speed>3.660000</speed>
<extensions>
<speed>3.7</speed>
<temp>0.00</temp>
<bpm>0</bpm>
<rpm>0.00</rpm>
</extensions>
</trkpt>
<trkpt lat="63.816097260" lon="-19.129369736">
<ele>609.406250</ele>
<time>2012-07-25T18:33:20Z</time>
<speed>2.820000</speed>
<extensions>
<speed>2.8</speed>
<temp>0.00</temp>
<bpm>0</bpm>
<rpm>0.00</rpm>
</extensions>
</trkpt>
<trkpt lat="63.816123962" lon="-19.129703522">
<ele>610.515625</ele>
<time>2012-07-25T18:33:25Z</time>
<speed>3.410000</speed>
<extensions>
<speed>3.4</speed>
<temp>0.00</temp>
<bpm>0</bpm>
<rpm>0.00</rpm>
</extensions>
</trkpt>
<trkpt lat="63.816146851" lon="-19.130079269">
<ele>611.218750</ele>
<time>2012-07-25T18:33:30Z</time>
<speed>3.800000</speed>
<extensions>
<speed>3.8</speed>
<temp>0.00</temp>
<bpm>0</bpm>
<rpm>0.00</rpm>
</extensions>
</trkpt>
<trkpt lat="63.816173553" lon="-19.130414963">
<ele>611.906250</ele>
<time>2012-07-25T18:33:35Z</time>
<speed>3.060000</speed>
<extensions>
<speed>3.1</speed>
<temp>0.00</temp>
<bpm>0</bpm>
<rpm>0.00</rpm>
</extensions>
</trkpt>
<trkpt lat="63.816200256" lon="-19.130758286">
<ele>613.093750</ele>
<time>2012-07-25T18:33:40Z</time>
<speed>3.580000</speed>
<extensions>
<speed>3.6</speed>
<temp>0.00</temp>
<bpm>0</bpm>
<rpm>0.00</rpm>
</extensions>
</trkpt>
<trkpt lat="63.816215515" lon="-19.131183624">
<ele>612.718750</ele>
<time>2012-07-25T18:33:45Z</time>
<speed>4.100000</speed>
<extensions>
<speed>4.1</speed>
<temp>0.00</temp>
<bpm>0</bpm>
<rpm>0.00</rpm>
</extensions>
</trkpt>
<trkpt lat="63.816238403" lon="-19.131536484">
<ele>612.531250</ele>
<time>2012-07-25T18:33:50Z</time>
<speed>3.760000</speed>
<extensions>
<speed>3.8</speed>
<temp>0.00</temp>
<bpm>0</bpm>
<rpm>0.00</rpm>
</extensions>
</trkpt>
<trkpt lat="63.816265106" lon="-19.131895065">
<ele>612.218750</ele>
<time>2012-07-25T18:33:55Z</time>
<speed>3.490000</speed>
<extensions>
<speed>3.5</speed>
<temp>0.00</temp>
<bpm>0</bpm>
<rpm>0.00</rpm>
</extensions>
</trkpt>
<trkpt lat="63.816280365" lon="-19.132251740">
<ele>612.328125</ele>
<time>2012-07-25T18:34:00Z</time>
<speed>3.590000</speed>
<extensions>
<speed>3.6</speed>
<temp>0.00</temp>
<bpm>0</bpm>
<rpm>0.00</rpm>
</extensions>
</trkpt>
<trkpt lat="63.816322327" lon="-19.132608414">
<ele>613.515625</ele>
<time>2012-07-25T18:34:05Z</time>
<speed>3.590000</speed>
<extensions>
<speed>3.6</speed>
<temp>0.00</temp>
<bpm>0</bpm>
<rpm>0.00</rpm>
</extensions>
</trkpt>
<trkpt lat="63.816337585" lon="-19.132946014">
<ele>614.359375</ele>
<time>2012-07-25T18:34:10Z</time>
<speed>3.070000</speed>
<extensions>
<speed>3.1</speed>
<temp>0.00</temp>
<bpm>0</bpm>
<rpm>0.00</rpm>
</extensions>
</trkpt>
<trkpt lat="63.816360474" lon="-19.133337021">
<ele>613.734375</ele>
<time>2012-07-25T18:34:15Z</time>
<speed>3.870000</speed>
<extensions>
<speed>3.9</speed>
<temp>0.00</temp>
<bpm>0</bpm>
<rpm>0.00</rpm>
</extensions>
</trkpt>
<trkpt lat="63.816402435" lon="-19.133733749">
<ele>611.343750</ele>
<time>2012-07-25T18:34:20Z</time>
<speed>3.550000</speed>
<extensions>
<speed>3.5</speed>
<temp>0.00</temp>
<bpm>0</bpm>
<rpm>0.00</rpm>
</extensions>
</trkpt>
<trkpt lat="63.816429138" lon="-19.134000778">
<ele>603.796875</ele>
<time>2012-07-25T18:34:25Z</time>
<speed>2.910000</speed>
<extensions>
<speed>2.9</speed>
<temp>0.00</temp>
<bpm>0</bpm>
<rpm>0.00</rpm>
</extensions>
</trkpt>
<trkpt lat="63.816459656" lon="-19.134317398">
<ele>604.140625</ele>
<time>2012-07-25T18:34:30Z</time>
<speed>3.700000</speed>
<extensions>
<speed>3.7</speed>
<temp>0.00</temp>
<bpm>0</bpm>
<rpm>0.00</rpm>
</extensions>
</trkpt>
<trkpt lat="63.816497803" lon="-19.134721756">
<ele>602.765625</ele>
<time>2012-07-25T18:34:35Z</time>
<speed>4.020000</speed>
<extensions>
<speed>4.0</speed>
<temp>0.00</temp>
<bpm>0</bpm>
<rpm>0.00</rpm>
</extensions>
</trkpt>
<trkpt lat="63.816520691" lon="-19.135110855">
<ele>600.062500</ele>
<time>2012-07-25T18:34:40Z</time>
<speed>3.260000</speed>
<extensions>
<speed>3.3</speed>
<temp>0.00</temp>
<bpm>0</bpm>
<rpm>0.00</rpm>
</extensions>
</trkpt>
<trkpt lat="63.816551208" lon="-19.135499954">
<ele>598.796875</ele>
<time>2012-07-25T18:34:45Z</time>
<speed>3.930000</speed>
<extensions>
<speed>3.9</speed>
<temp>0.00</temp>
<bpm>0</bpm>
<rpm>0.00</rpm>
</extensions>
</trkpt>
<trkpt lat="63.816589355" lon="-19.135894775">
<ele>597.062500</ele>
<time>2012-07-25T18:34:50Z</time>
<speed>3.640000</speed>
<extensions>
<speed>3.6</speed>
<temp>0.00</temp>
<bpm>0</bpm>
<rpm>0.00</rpm>
</extensions>
</trkpt>
<trkpt lat="63.816619873" lon="-19.136219025">
<ele>598.484375</ele>
<time>2012-07-25T18:34:55Z</time>
<speed>3.260000</speed>
<extensions>
<speed>3.3</speed>
<temp>0.00</temp>
<bpm>0</bpm>
<rpm>0.00</rpm>
</extensions>
</trkpt>
<trkpt lat="63.816646576" lon="-19.136596680">
<ele>597.046875</ele>
<time>2012-07-25T18:35:00Z</time>
<speed>4.040000</speed>
<extensions>
<speed>4.0</speed>
<temp>0.00</temp>
<bpm>0</bpm>
<rpm>0.00</rpm>
</extensions>
</trkpt>
<trkpt lat="63.816680908" lon="-19.136968613">
<ele>595.015625</ele>
<time>2012-07-25T18:35:05Z</time>
<speed>3.470000</speed>
<extensions>
<speed>3.5</speed>
<temp>0.00</temp>
<bpm>0</bpm>
<rpm>0.00</rpm>
</extensions>
</trkpt>
<trkpt lat="63.816707611" lon="-19.137289047">
<ele>595.328125</ele>
<time>2012-07-25T18:35:10Z</time>
<speed>3.290000</speed>
<extensions>
<speed>3.3</speed>
<temp>0.00</temp>
<bpm>0</bpm>
<rpm>0.00</rpm>
</extensions>
</trkpt>
<trkpt lat="63.816738129" lon="-19.137668610">
<ele>594.484375</ele>
<time>2012-07-25T18:35:15Z</time>
<speed>3.880000</speed>
<extensions>
<speed>3.9</speed>
<temp>0.00</temp>
<bpm>0</bpm>
<rpm>0.00</rpm>
</extensions>
</trkpt>
<trkpt lat="63.816768646" lon="-19.138069153">
<ele>594.265625</ele>
<time>2012-07-25T18:35:20Z</time>
<speed>3.720000</speed>
<extensions>
<speed>3.7</speed>
<temp>0.00</temp>
<bpm>0</bpm>
<rpm>0.00</rpm>
</extensions>
</trkpt>
<trkpt lat="63.816795349" lon="-19.138401031">
<ele>593.656250</ele>
<time>2012-07-25T18:35:25Z</time>
<speed>2.920000</speed>
<extensions>
<speed>2.9</speed>
<temp>0.00</temp>
<bpm>0</bpm>
<rpm>0.00</rpm>
</extensions>
</trkpt>
<trkpt lat="63.816810608" lon="-19.138648987">
<ele>594.156250</ele>
<time>2012-07-25T18:35:30Z</time>
<speed>2.210000</speed>
<extensions>
<speed>2.2</speed>
<temp>0.00</temp>
<bpm>0</bpm>
<rpm>0.00</rpm>
</extensions>
</trkpt>
<trkpt lat="63.816829681" lon="-19.138942719">
<ele>593.265625</ele>
<time>2012-07-25T18:35:35Z</time>
<speed>3.230000</speed>
<extensions>
<speed>3.2</speed>
<temp>0.00</temp>
<bpm>0</bpm>
<rpm>0.00</rpm>
</extensions>
</trkpt>
<trkpt lat="63.816848755" lon="-19.139307022">
<ele>592.890625</ele>
<time>2012-07-25T18:35:40Z</time>
<speed>3.970000</speed>
<extensions>
<speed>4.0</speed>
<temp>0.00</temp>
<bpm>0</bpm>
<rpm>0.00</rpm>
</extensions>
</trkpt>
<trkpt lat="63.816875458" lon="-19.139654160">
<ele>592.218750</ele>
<time>2012-07-25T18:35:45Z</time>
<speed>3.260000</speed>
<extensions>
<speed>3.3</speed>
<temp>0.00</temp>
<bpm>0</bpm>
<rpm>0.00</rpm>
</extensions>
</trkpt>
<trkpt lat="63.816902161" lon="-19.139930725">
<ele>594.656250</ele>
<time>2012-07-25T18:35:50Z</time>
<speed>2.610000</speed>
<extensions>
<speed>2.6</speed>
<temp>0.00</temp>
<bpm>0</bpm>
<rpm>0.00</rpm>
</extensions>
</trkpt>
<trkpt lat="63.816921234" lon="-19.140243530">
<ele>594.812500</ele>
<time>2012-07-25T18:35:55Z</time>
<speed>3.370000</speed>
<extensions>
<speed>3.4</speed>
<temp>0.00</temp>
<bpm>0</bpm>
<rpm>0.00</rpm>
</extensions>
</trkpt>
<trkpt lat="63.816944122" lon="-19.140604019">
<ele>595.875000</ele>
<time>2012-07-25T18:36:00Z</time>
<speed>3.560000</speed>
<extensions>
<speed>3.6</speed>
<temp>0.00</temp>
<bpm>0</bpm>
<rpm>0.00</rpm>
</extensions>
</trkpt>
<trkpt lat="63.816967010" lon="-19.140977859">
<ele>595.765625</ele>
<time>2012-07-25T18:36:05Z</time>
<speed>4.090000</speed>
<extensions>
<speed>4.1</speed>
<temp>0.00</temp>
<bpm>0</bpm>
<rpm>0.00</rpm>
</extensions>
</trkpt>
<trkpt lat="63.816989899" lon="-19.141357422">
<ele>595.078125</ele>
<time>2012-07-25T18:36:10Z</time>
<speed>3.350000</speed>
<extensions>
<speed>3.4</speed>
<temp>0.00</temp>
<bpm>0</bpm>
<rpm>0.00</rpm>
</extensions>
</trkpt>
<trkpt lat="63.817008972" lon="-19.141641617">
<ele>595.328125</ele>
<time>2012-07-25T18:36:15Z</time>
<speed>2.430000</speed>
<extensions>
<speed>2.4</speed>
<temp>0.00</temp>
<bpm>0</bpm>
<rpm>0.00</rpm>
</extensions>
</trkpt>
<trkpt lat="63.817024231" lon="-19.141864777">
<ele>595.046875</ele>
<time>2012-07-25T18:36:20Z</time>
<speed>2.740000</speed>
<extensions>
<speed>2.7</speed>
<temp>0.00</temp>
<bpm>0</bpm>
<rpm>0.00</rpm>
</extensions>
</trkpt>
<trkpt lat="63.817047119" lon="-19.142206192">
<ele>593.890625</ele>
<time>2012-07-25T18:36:25Z</time>
<speed>3.680000</speed>
<extensions>
<speed>3.7</speed>
<temp>0.00</temp>
<bpm>0</bpm>
<rpm>0.00</rpm>
</extensions>
</trkpt>
<trkpt lat="63.817081451" lon="-19.142559052">
<ele>592.968750</ele>
<time>2012-07-25T18:36:30Z</time>
<speed>3.570000</speed>
<extensions>
<speed>3.6</speed>
<temp>0.00</temp>
<bpm>0</bpm>
<rpm>0.00</rpm>
</extensions>
</trkpt>
<trkpt lat="63.817119598" lon="-19.142930984">
<ele>592.734375</ele>
<time>2012-07-25T18:36:35Z</time>
<speed>3.650000</speed>
<extensions>
<speed>3.7</speed>
<temp>0.00</temp>
<bpm>0</bpm>
<rpm>0.00</rpm>
</extensions>
</trkpt>
<trkpt lat="63.817165375" lon="-19.143297195">
<ele>592.375000</ele>
<time>2012-07-25T18:36:40Z</time>
<speed>4.090000</speed>
<extensions>
<speed>4.1</speed>
<temp>0.00</temp>
<bpm>0</bpm>
<rpm>0.00</rpm>
</extensions>
</trkpt>
<trkpt lat="63.817214966" lon="-19.143697739">
<ele>592.953125</ele>
<time>2012-07-25T18:36:45Z</time>
<speed>4.150000</speed>
<extensions>
<speed>4.1</speed>
<temp>0.00</temp>
<bpm>0</bpm>
<rpm>0.00</rpm>
</extensions>
</trkpt>
<trkpt lat="63.817268372" lon="-19.144090652">
<ele>593.203125</ele>
<time>2012-07-25T18:36:50Z</time>
<speed>4.450000</speed>
<extensions>
<speed>4.5</speed>
<temp>0.00</temp>
<bpm>0</bpm>
<rpm>0.00</rpm>
</extensions>
</trkpt>
<trkpt lat="63.817317963" lon="-19.144462585">
<ele>592.765625</ele>
<time>2012-07-25T18:36:55Z</time>
<speed>3.300000</speed>
<extensions>
<speed>3.3</speed>
<temp>0.00</temp>
<bpm>0</bpm>
<rpm>0.00</rpm>
</extensions>
</trkpt>
<trkpt lat="63.817378998" lon="-19.144804001">
<ele>593.625000</ele>
<time>2012-07-25T18:37:00Z</time>
<speed>4.110000</speed>
<extensions>
<speed>4.1</speed>
<temp>0.00</temp>
<bpm>0</bpm>
<rpm>0.00</rpm>
</extensions>
</trkpt>
<trkpt lat="63.817447662" lon="-19.145195007">
<ele>593.875000</ele>
<time>2012-07-25T18:37:05Z</time>
<speed>4.680000</speed>
<extensions>
<speed>4.7</speed>
<temp>0.00</temp>
<bpm>0</bpm>
<rpm>0.00</rpm>
</extensions>
</trkpt>
<trkpt lat="63.817508698" lon="-19.145608902">
<ele>593.640625</ele>
<time>2012-07-25T18:37:10Z</time>
<speed>3.750000</speed>
<extensions>
<speed>3.8</speed>
<temp>0.00</temp>
<bpm>0</bpm>
<rpm>0.00</rpm>
</extensions>
</trkpt>
<trkpt lat="63.817558289" lon="-19.145942688">
<ele>593.671875</ele>
<time>2012-07-25T18:37:15Z</time>
<speed>3.110000</speed>
<extensions>
<speed>3.1</speed>
<temp>0.00</temp>
<bpm>0</bpm>
<rpm>0.00</rpm>
</extensions>
</trkpt>
<trkpt lat="63.817615509" lon="-19.146251678">
<ele>594.765625</ele>
<time>2012-07-25T18:37:20Z</time>
<speed>3.850000</speed>
<extensions>
<speed>3.8</speed>
<temp>0.00</temp>
<bpm>0</bpm>
<rpm>0.00</rpm>
</extensions>
</trkpt>
<trkpt lat="63.817676544" lon="-19.146644592">
<ele>595.437500</ele>
<time>2012-07-25T18:37:25Z</time>
<speed>4.160000</speed>
<extensions>
<speed>4.2</speed>
<temp>0.00</temp>
<bpm>0</bpm>
<rpm>0.00</rpm>
</extensions>
</trkpt>
<trkpt lat="63.817729950" lon="-19.147026062">
<ele>594.968750</ele>
<time>2012-07-25T18:37:30Z</time>
<speed>3.670000</speed>
<extensions>
<speed>3.7</speed>
<temp>0.00</temp>
<bpm>0</bpm>
<rpm>0.00</rpm>
</extensions>
</trkpt>
<trkpt lat="63.817779541" lon="-19.147350311">
<ele>594.765625</ele>
<time>2012-07-25T18:37:35Z</time>
<speed>3.600000</speed>
<extensions>
<speed>3.6</speed>
<temp>0.00</temp>
<bpm>0</bpm>
<rpm>0.00</rpm>
</extensions>
</trkpt>
<trkpt lat="63.817848206" lon="-19.147699356">
<ele>596.281250</ele>
<time>2012-07-25T18:37:40Z</time>
<speed>4.150000</speed>
<extensions>
<speed>4.1</speed>
<temp>0.00</temp>
<bpm>0</bpm>
<rpm>0.00</rpm>
</extensions>
</trkpt>
<trkpt lat="63.817909241" lon="-19.148101807">
<ele>598.625000</ele>
<time>2012-07-25T18:37:45Z</time>
<speed>3.970000</speed>
<extensions>
<speed>4.0</speed>
<temp>0.00</temp>
<bpm>0</bpm>
<rpm>0.00</rpm>
</extensions>
</trkpt>
<trkpt lat="63.817974091" lon="-19.148492813">
<ele>598.234375</ele>
<time>2012-07-25T18:37:50Z</time>
<speed>4.040000</speed>
<extensions>
<speed>4.0</speed>
<temp>0.00</temp>
<bpm>0</bpm>
<rpm>0.00</rpm>
</extensions>
</trkpt>
<trkpt lat="63.818042755" lon="-19.148914337">
<ele>597.390625</ele>
<time>2012-07-25T18:37:55Z</time>
<speed>4.410000</speed>
<extensions>
<speed>4.4</speed>
<temp>0.00</temp>
<bpm>0</bpm>
<rpm>0.00</rpm>
</extensions>
</trkpt>
<trkpt lat="63.818115234" lon="-19.149318695">
<ele>597.296875</ele>
<time>2012-07-25T18:38:00Z</time>
<speed>4.340000</speed>
<extensions>
<speed>4.3</speed>
<temp>0.00</temp>
<bpm>0</bpm>
<rpm>0.00</rpm>
</extensions>
</trkpt>
<trkpt lat="63.818191528" lon="-19.149719238">
<ele>596.781250</ele>
<time>2012-07-25T18:38:05Z</time>
<speed>4.250000</speed>
<extensions>
<speed>4.3</speed>
<temp>0.00</temp>
<bpm>0</bpm>
<rpm>0.00</rpm>
</extensions>
</trkpt>
<trkpt lat="63.818264008" lon="-19.150117874">
<ele>593.734375</ele>
<time>2012-07-25T18:38:10Z</time>
<speed>4.250000</speed>
<extensions>
<speed>4.3</speed>
<temp>0.00</temp>
<bpm>0</bpm>
<rpm>0.00</rpm>
</extensions>
</trkpt>
<trkpt lat="63.818336487" lon="-19.150503159">
<ele>593.046875</ele>
<time>2012-07-25T18:38:15Z</time>
<speed>3.790000</speed>
<extensions>
<speed>3.8</speed>
<temp>0.00</temp>
<bpm>0</bpm>
<rpm>0.00</rpm>
</extensions>
</trkpt>
<trkpt lat="63.818408966" lon="-19.150804520">
<ele>597.843750</ele>
<time>2012-07-25T18:38:20Z</time>
<speed>3.360000</speed>
<extensions>
<speed>3.4</speed>
<temp>0.00</temp>
<bpm>0</bpm>
<rpm>0.00</rpm>
</extensions>
</trkpt>
<trkpt lat="63.818466187" lon="-19.151134491">
<ele>596.500000</ele>
<time>2012-07-25T18:38:25Z</time>
<speed>3.760000</speed>
<extensions>
<speed>3.8</speed>
<temp>0.00</temp>
<bpm>0</bpm>
<rpm>0.00</rpm>
</extensions>
</trkpt>
<trkpt lat="63.818534851" lon="-19.151508331">
<ele>594.843750</ele>
<time>2012-07-25T18:38:30Z</time>
<speed>4.220000</speed>
<extensions>
<speed>4.2</speed>
<temp>0.00</temp>
<bpm>0</bpm>
<rpm>0.00</rpm>
</extensions>
</trkpt>
<trkpt lat="63.818592072" lon="-19.151895523">
<ele>594.953125</ele>
<time>2012-07-25T18:38:35Z</time>
<speed>4.230000</speed>
<extensions>
<speed>4.2</speed>
<temp>0.00</temp>
<bpm>0</bpm>
<rpm>0.00</rpm>
</extensions>
</trkpt>
<trkpt lat="63.818645477" lon="-19.152318954">
<ele>594.421875</ele>
<time>2012-07-25T18:38:40Z</time>
<speed>4.600000</speed>
<extensions>
<speed>4.6</speed>
<temp>0.00</temp>
<bpm>0</bpm>
<rpm>0.00</rpm>
</extensions>
</trkpt>
<trkpt lat="63.818695068" lon="-19.152757645">
<ele>593.375000</ele>
<time>2012-07-25T18:38:45Z</time>
<speed>4.330000</speed>
<extensions>
<speed>4.3</speed>
<temp>0.00</temp>
<bpm>0</bpm>
<rpm>0.00</rpm>
</extensions>
</trkpt>
<trkpt lat="63.818737030" lon="-19.153163910">
<ele>590.406250</ele>
<time>2012-07-25T18:38:50Z</time>
<speed>3.570000</speed>
<extensions>
<speed>3.6</speed>
<temp>0.00</temp>
<bpm>0</bpm>
<rpm>0.00</rpm>
</extensions>
</trkpt>
<trkpt lat="63.818767548" lon="-19.153491974">
<ele>592.375000</ele>
<time>2012-07-25T18:38:55Z</time>
<speed>3.660000</speed>
<extensions>
<speed>3.7</speed>
<temp>0.00</temp>
<bpm>0</bpm>
<rpm>0.00</rpm>
</extensions>
</trkpt>
<trkpt lat="63.818782806" lon="-19.153892517">
<ele>591.390625</ele>
<time>2012-07-25T18:39:00Z</time>
<speed>3.880000</speed>
<extensions>
<speed>3.9</speed>
<temp>0.00</temp>
<bpm>0</bpm>
<rpm>0.00</rpm>
</extensions>
</trkpt>
<trkpt lat="63.818782806" lon="-19.154253006">
<ele>594.156250</ele>
<time>2012-07-25T18:39:05Z</time>
<speed>3.180000</speed>
<extensions>
<speed>3.2</speed>
<temp>0.00</temp>
<bpm>0</bpm>
<rpm>0.00</rpm>
</extensions>
</trkpt>
<trkpt lat="63.818794250" lon="-19.154602051">
<ele>594.328125</ele>
<time>2012-07-25T18:39:10Z</time>
<speed>3.870000</speed>
<extensions>
<speed>3.9</speed>
<temp>0.00</temp>
<bpm>0</bpm>
<rpm>0.00</rpm>
</extensions>
</trkpt>
<trkpt lat="63.818805695" lon="-19.154996872">
<ele>593.312500</ele>
<time>2012-07-25T18:39:15Z</time>
<speed>3.770000</speed>
<extensions>
<speed>3.8</speed>
<temp>0.00</temp>
<bpm>0</bpm>
<rpm>0.00</rpm>
</extensions>
</trkpt>
<trkpt lat="63.818817139" lon="-19.155403137">
<ele>594.515625</ele>
<time>2012-07-25T18:39:20Z</time>
<speed>4.120000</speed>
<extensions>
<speed>4.1</speed>
<temp>0.00</temp>
<bpm>0</bpm>
<rpm>0.00</rpm>
</extensions>
</trkpt>
<trkpt lat="63.818840027" lon="-19.155841827">
<ele>594.984375</ele>
<time>2012-07-25T18:39:25Z</time>
<speed>4.330000</speed>
<extensions>
<speed>4.3</speed>
<temp>0.00</temp>
<bpm>0</bpm>
<rpm>0.00</rpm>
</extensions>
</trkpt>
<trkpt lat="63.818870544" lon="-19.156263351">
<ele>597.593750</ele>
<time>2012-07-25T18:39:30Z</time>
<speed>3.640000</speed>
<extensions>
<speed>3.6</speed>
<temp>0.00</temp>
<bpm>0</bpm>
<rpm>0.00</rpm>
</extensions>
</trkpt>
<trkpt lat="63.818897247" lon="-19.156585693">
<ele>598.531250</ele>
<time>2012-07-25T18:39:35Z</time>
<speed>4.020000</speed>
<extensions>
<speed>4.0</speed>
<temp>0.00</temp>
<bpm>0</bpm>
<rpm>0.00</rpm>
</extensions>
</trkpt>
<trkpt lat="63.818908691" lon="-19.157032013">
<ele>597.968750</ele>
<time>2012-07-25T18:39:40Z</time>
<speed>4.290000</speed>
<extensions>
<speed>4.3</speed>
<temp>0.00</temp>
<bpm>0</bpm>
<rpm>0.00</rpm>
</extensions>
</trkpt>
<trkpt lat="63.818908691" lon="-19.157461166">
<ele>597.015625</ele>
<time>2012-07-25T18:39:45Z</time>
<speed>4.320000</speed>
<extensions>
<speed>4.3</speed>
<temp>0.00</temp>
<bpm>0</bpm>
<rpm>0.00</rpm>
</extensions>
</trkpt>
<trkpt lat="63.818893433" lon="-19.157857895">
<ele>594.546875</ele>
<time>2012-07-25T18:39:50Z</time>
<speed>3.630000</speed>
<extensions>
<speed>3.6</speed>
<temp>0.00</temp>
<bpm>0</bpm>
<rpm>0.00</rpm>
</extensions>
</trkpt>
<trkpt lat="63.818885803" lon="-19.158292770">
<ele>590.953125</ele>
<time>2012-07-25T18:39:55Z</time>
<speed>4.290000</speed>
<extensions>
<speed>4.3</speed>
<temp>0.00</temp>
<bpm>0</bpm>
<rpm>0.00</rpm>
</extensions>
</trkpt>
<trkpt lat="63.818878174" lon="-19.158699036">
<ele>588.890625</ele>
<time>2012-07-25T18:40:00Z</time>
<speed>4.050000</speed>
<extensions>
<speed>4.0</speed>
<temp>0.00</temp>
<bpm>0</bpm>
<rpm>0.00</rpm>
</extensions>
</trkpt>
<trkpt lat="63.818893433" lon="-19.159095764">
<ele>587.187500</ele>
<time>2012-07-25T18:40:05Z</time>
<speed>4.200000</speed>
<extensions>
<speed>4.2</speed>
<temp>0.00</temp>
<bpm>0</bpm>
<rpm>0.00</rpm>
</extensions>
</trkpt>
<trkpt lat="63.818904877" lon="-19.159528732">
<ele>587.468750</ele>
<time>2012-07-25T18:40:10Z</time>
<speed>3.850000</speed>
<extensions>
<speed>3.8</speed>
<temp>0.00</temp>
<bpm>0</bpm>
<rpm>0.00</rpm>
</extensions>
</trkpt>
<trkpt lat="63.818920135" lon="-19.159835815">
<ele>587.578125</ele>
<time>2012-07-25T18:40:15Z</time>
<speed>2.930000</speed>
<extensions>
<speed>2.9</speed>
<temp>0.00</temp>
<bpm>0</bpm>
<rpm>0.00</rpm>
</extensions>
</trkpt>
<trkpt lat="63.818931580" lon="-19.160200119">
<ele>588.250000</ele>
<time>2012-07-25T18:40:20Z</time>
<speed>3.940000</speed>
<extensions>
<speed>3.9</speed>
<temp>0.00</temp>
<bpm>0</bpm>
<rpm>0.00</rpm>
</extensions>
</trkpt>
<trkpt lat="63.818969727" lon="-19.160642624">
<ele>588.187500</ele>
<time>2012-07-25T18:40:25Z</time>
<speed>4.570000</speed>
<extensions>
<speed>4.6</speed>
<temp>0.00</temp>
<bpm>0</bpm>
<rpm>0.00</rpm>
</extensions>
</trkpt>
<trkpt lat="63.819000244" lon="-19.161085129">
<ele>587.984375</ele>
<time>2012-07-25T18:40:30Z</time>
<speed>3.940000</speed>
<extensions>
<speed>3.9</speed>
<temp>0.00</temp>
<bpm>0</bpm>
<rpm>0.00</rpm>
</extensions>
</trkpt>
<trkpt lat="63.819004059" lon="-19.161445618">
<ele>588.203125</ele>
<time>2012-07-25T18:40:35Z</time>
<speed>3.710000</speed>
<extensions>
<speed>3.7</speed>
<temp>0.00</temp>
<bpm>0</bpm>
<rpm>0.00</rpm>
</extensions>
</trkpt>
<trkpt lat="63.818984985" lon="-19.161880493">
<ele>587.906250</ele>
<time>2012-07-25T18:40:40Z</time>
<speed>4.470000</speed>
<extensions>
<speed>4.5</speed>
<temp>0.00</temp>
<bpm>0</bpm>
<rpm>0.00</rpm>
</extensions>
</trkpt>
<trkpt lat="63.818962097" lon="-19.162313461">
<ele>587.468750</ele>
<time>2012-07-25T18:40:45Z</time>
<speed>3.700000</speed>
<extensions>
<speed>3.7</speed>
<temp>0.00</temp>
<bpm>0</bpm>
<rpm>0.00</rpm>
</extensions>
</trkpt>
<trkpt lat="63.818962097" lon="-19.162633896">
<ele>585.468750</ele>
<time>2012-07-25T18:40:50Z</time>
<speed>2.960000</speed>
<extensions>
<speed>3.0</speed>
<temp>0.00</temp>
<bpm>0</bpm>
<rpm>0.00</rpm>
</extensions>
</trkpt>
<trkpt lat="63.818954468" lon="-19.163009644">
<ele>586.062500</ele>
<time>2012-07-25T18:40:55Z</time>
<speed>4.060000</speed>
<extensions>
<speed>4.1</speed>
<temp>0.00</temp>
<bpm>0</bpm>
<rpm>0.00</rpm>
</extensions>
</trkpt>
<trkpt lat="63.818935394" lon="-19.163419724">
<ele>585.843750</ele>
<time>2012-07-25T18:41:00Z</time>
<speed>4.110000</speed>
<extensions>
<speed>4.1</speed>
<temp>0.00</temp>
<bpm>0</bpm>
<rpm>0.00</rpm>
</extensions>
</trkpt>
<trkpt lat="63.818912506" lon="-19.163839340">
<ele>585.375000</ele>
<time>2012-07-25T18:41:05Z</time>
<speed>4.450000</speed>
<extensions>
<speed>4.5</speed>
<temp>0.00</temp>
<bpm>0</bpm>
<rpm>0.00</rpm>
</extensions>
</trkpt>
<trkpt lat="63.818885803" lon="-19.164258957">
<ele>583.093750</ele>
<time>2012-07-25T18:41:10Z</time>
<speed>3.430000</speed>
<extensions>
<speed>3.4</speed>
<temp>0.00</temp>
<bpm>0</bpm>
<rpm>0.00</rpm>
</extensions>
</trkpt>
<trkpt lat="63.818866730" lon="-19.164575577">
<ele>582.328125</ele>
<time>2012-07-25T18:41:15Z</time>
<speed>3.430000</speed>
<extensions>
<speed>3.4</speed>
<temp>0.00</temp>
<bpm>0</bpm>
<rpm>0.00</rpm>
</extensions>
</trkpt>
<trkpt lat="63.818824768" lon="-19.164958954">
<ele>581.515625</ele>
<time>2012-07-25T18:41:20Z</time>
<speed>4.170000</speed>
<extensions>
<speed>4.2</speed>
<temp>0.00</temp>
<bpm>0</bpm>
<rpm>0.00</rpm>
</extensions>
</trkpt>
<trkpt lat="63.818782806" lon="-19.165401459">
<ele>582.203125</ele>
<time>2012-07-25T18:41:25Z</time>
<speed>4.670000</speed>
<extensions>
<speed>4.7</speed>
<temp>0.00</temp>
<bpm>0</bpm>
<rpm>0.00</rpm>
</extensions>
</trkpt>
<trkpt lat="63.818752289" lon="-19.165878296">
<ele>583.625000</ele>
<time>2012-07-25T18:41:30Z</time>
<speed>4.370000</speed>
<extensions>
<speed>4.4</speed>
<temp>0.00</temp>
<bpm>0</bpm>
<rpm>0.00</rpm>
</extensions>
</trkpt>
<trkpt lat="63.818729401" lon="-19.166250229">
<ele>581.625000</ele>
<time>2012-07-25T18:41:35Z</time>
<speed>3.530000</speed>
<extensions>
<speed>3.5</speed>
<temp>0.00</temp>
<bpm>0</bpm>
<rpm>0.00</rpm>
</extensions>
</trkpt>
<trkpt lat="63.818721771" lon="-19.166666031">
<ele>581.765625</ele>
<time>2012-07-25T18:41:40Z</time>
<speed>4.480000</speed>
<extensions>
<speed>4.5</speed>
<temp>0.00</temp>
<bpm>0</bpm>
<rpm>0.00</rpm>
</extensions>
</trkpt>
<trkpt lat="63.818725586" lon="-19.167066574">
<ele>583.093750</ele>
<time>2012-07-25T18:41:45Z</time>
<speed>3.320000</speed>
<extensions>
<speed>3.3</speed>
<temp>0.00</temp>
<bpm>0</bpm>
<rpm>0.00</rpm>
</extensions>
</trkpt>
<trkpt lat="63.818729401" lon="-19.167324066">
<ele>583.656250</ele>
<time>2012-07-25T18:41:50Z</time>
<speed>1.920000</speed>
<extensions>
<speed>1.9</speed>
<temp>0.00</temp>
<bpm>0</bpm>
<rpm>0.00</rpm>
</extensions>
</trkpt>
<trkpt lat="63.818748474" lon="-19.167579651">
<ele>583.703125</ele>
<time>2012-07-25T18:41:55Z</time>
<speed>3.400000</speed>
<extensions>
<speed>3.4</speed>
<temp>0.00</temp>
<bpm>0</bpm>
<rpm>0.00</rpm>
</extensions>
</trkpt>
<trkpt lat="63.818786621" lon="-19.167982101">
<ele>586.375000</ele>
<time>2012-07-25T18:42:00Z</time>
<speed>3.860000</speed>
<extensions>
<speed>3.9</speed>
<temp>0.00</temp>
<bpm>0</bpm>
<rpm>0.00</rpm>
</extensions>
</trkpt>
<trkpt lat="63.818817139" lon="-19.168306351">
<ele>589.265625</ele>
<time>2012-07-25T18:42:05Z</time>
<speed>2.610000</speed>
<extensions>
<speed>2.6</speed>
<temp>0.00</temp>
<bpm>0</bpm>
<rpm>0.00</rpm>
</extensions>
</trkpt>
<trkpt lat="63.818840027" lon="-19.168550491">
<ele>589.859375</ele>
<time>2012-07-25T18:42:10Z</time>
<speed>2.600000</speed>
<extensions>
<speed>2.6</speed>
<temp>0.00</temp>
<bpm>0</bpm>
<rpm>0.00</rpm>
</extensions>
</trkpt>
<trkpt lat="63.818859100" lon="-19.168838501">
<ele>590.187500</ele>
<time>2012-07-25T18:42:15Z</time>
<speed>3.230000</speed>
<extensions>
<speed>3.2</speed>
<temp>0.00</temp>
<bpm>0</bpm>
<rpm>0.00</rpm>
</extensions>
</trkpt>
<trkpt lat="63.818878174" lon="-19.169214249">
<ele>590.031250</ele>
<time>2012-07-25T18:42:20Z</time>
<speed>4.140000</speed>
<extensions>
<speed>4.1</speed>
<temp>0.00</temp>
<bpm>0</bpm>
<rpm>0.00</rpm>
</extensions>
</trkpt>
<trkpt lat="63.818901062" lon="-19.169666290">
<ele>590.437500</ele>
<time>2012-07-25T18:42:25Z</time>
<speed>4.590000</speed>
<extensions>
<speed>4.6</speed>
<temp>0.00</temp>
<bpm>0</bpm>
<rpm>0.00</rpm>
</extensions>
</trkpt>
<trkpt lat="63.818920135" lon="-19.170057297">
<ele>588.296875</ele>
<time>2012-07-25T18:42:30Z</time>
<speed>3.480000</speed>
<extensions>
<speed>3.5</speed>
<temp>0.00</temp>
<bpm>0</bpm>
<rpm>0.00</rpm>
</extensions>
</trkpt>
<trkpt lat="63.818920135" lon="-19.170413971">
<ele>588.562500</ele>
<time>2012-07-25T18:42:35Z</time>
<speed>3.880000</speed>
<extensions>
<speed>3.9</speed>
<temp>0.00</temp>
<bpm>0</bpm>
<rpm>0.00</rpm>
</extensions>
</trkpt>
<trkpt lat="63.818920135" lon="-19.170841217">
<ele>588.781250</ele>
<time>2012-07-25T18:42:40Z</time>
<speed>4.220000</speed>
<extensions>
<speed>4.2</speed>
<temp>0.00</temp>
<bpm>0</bpm>
<rpm>0.00</rpm>
</extensions>
</trkpt>
<trkpt lat="63.818920135" lon="-19.171224594">
<ele>586.953125</ele>
<time>2012-07-25T18:42:45Z</time>
<speed>3.410000</speed>
<extensions>
<speed>3.4</speed>
<temp>0.00</temp>
<bpm>0</bpm>
<rpm>0.00</rpm>
</extensions>
</trkpt>
<trkpt lat="63.818923950" lon="-19.171514511">
<ele>586.343750</ele>
<time>2012-07-25T18:42:50Z</time>
<speed>2.440000</speed>
<extensions>
<speed>2.4</speed>
<temp>0.00</temp>
<bpm>0</bpm>
<rpm>0.00</rpm>
</extensions>
</trkpt>
<trkpt lat="63.818931580" lon="-19.171779633">
<ele>587.531250</ele>
<time>2012-07-25T18:42:55Z</time>
<speed>3.110000</speed>
<extensions>
<speed>3.1</speed>
<temp>0.00</temp>
<bpm>0</bpm>
<rpm>0.00</rpm>
</extensions>
</trkpt>
<trkpt lat="63.818965912" lon="-19.172109604">
<ele>586.562500</ele>
<time>2012-07-25T18:43:00Z</time>
<speed>3.670000</speed>
<extensions>
<speed>3.7</speed>
<temp>0.00</temp>
<bpm>0</bpm>
<rpm>0.00</rpm>
</extensions>
</trkpt>
<trkpt lat="63.819011688" lon="-19.172496796">
<ele>588.625000</ele>
<time>2012-07-25T18:43:05Z</time>
<speed>4.090000</speed>
<extensions>
<speed>4.1</speed>
<temp>0.00</temp>
<bpm>0</bpm>
<rpm>0.00</rpm>
</extensions>
</trkpt>
<trkpt lat="63.819061279" lon="-19.172906876">
<ele>588.859375</ele>
<time>2012-07-25T18:43:10Z</time>
<speed>4.380000</speed>
<extensions>
<speed>4.4</speed>
<temp>0.00</temp>
<bpm>0</bpm>
<rpm>0.00</rpm>
</extensions>
</trkpt>
<trkpt lat="63.819095612" lon="-19.173273087">
<ele>584.984375</ele>
<time>2012-07-25T18:43:15Z</time>
<speed>2.810000</speed>
<extensions>
<speed>2.8</speed>
<temp>0.00</temp>
<bpm>0</bpm>
<rpm>0.00</rpm>
</extensions>
</trkpt>
<trkpt lat="63.819107056" lon="-19.173551559">
<ele>584.984375</ele>
<time>2012-07-25T18:43:20Z</time>
<speed>2.610000</speed>
<extensions>
<speed>2.6</speed>
<temp>0.00</temp>
<bpm>0</bpm>
<rpm>0.00</rpm>
</extensions>
</trkpt>
<trkpt lat="63.819122314" lon="-19.173805237">
<ele>584.375000</ele>
<time>2012-07-25T18:43:25Z</time>
<speed>2.830000</speed>
<extensions>
<speed>2.8</speed>
<temp>0.00</temp>
<bpm>0</bpm>
<rpm>0.00</rpm>
</extensions>
</trkpt>
<trkpt lat="63.819145203" lon="-19.174114227">
<ele>584.375000</ele>
<time>2012-07-25T18:43:30Z</time>
<speed>3.340000</speed>
<extensions>
<speed>3.3</speed>
<temp>0.00</temp>
<bpm>0</bpm>
<rpm>0.00</rpm>
</extensions>
</trkpt>
<trkpt lat="63.819187164" lon="-19.174478531">
<ele>584.875000</ele>
<time>2012-07-25T18:43:35Z</time>
<speed>3.610000</speed>
<extensions>
<speed>3.6</speed>
<temp>0.00</temp>
<bpm>0</bpm>
<rpm>0.00</rpm>
</extensions>
</trkpt>
<trkpt lat="63.819232941" lon="-19.174860001">
<ele>585.812500</ele>
<time>2012-07-25T18:43:40Z</time>
<speed>3.920000</speed>
<extensions>
<speed>3.9</speed>
<temp>0.00</temp>
<bpm>0</bpm>
<rpm>0.00</rpm>
</extensions>
</trkpt>
<trkpt lat="63.819274902" lon="-19.175235748">
<ele>585.687500</ele>
<time>2012-07-25T18:43:45Z</time>
<speed>3.840000</speed>
<extensions>
<speed>3.8</speed>
<temp>0.00</temp>
<bpm>0</bpm>
<rpm>0.00</rpm>
</extensions>
</trkpt>
<trkpt lat="63.819328308" lon="-19.175619125">
<ele>585.875000</ele>
<time>2012-07-25T18:43:50Z</time>
<speed>3.920000</speed>
<extensions>
<speed>3.9</speed>
<temp>0.00</temp>
<bpm>0</bpm>
<rpm>0.00</rpm>
</extensions>
</trkpt>
<trkpt lat="63.819377899" lon="-19.176006317">
<ele>585.781250</ele>
<time>2012-07-25T18:43:55Z</time>
<speed>3.860000</speed>
<extensions>
<speed>3.9</speed>
<temp>0.00</temp>
<bpm>0</bpm>
<rpm>0.00</rpm>
</extensions>
</trkpt>
<trkpt lat="63.819427490" lon="-19.176361084">
<ele>586.687500</ele>
<time>2012-07-25T18:44:00Z</time>
<speed>3.610000</speed>
<extensions>
<speed>3.6</speed>
<temp>0.00</temp>
<bpm>0</bpm>
<rpm>0.00</rpm>
</extensions>
</trkpt>
<trkpt lat="63.819473267" lon="-19.176685333">
<ele>585.578125</ele>
<time>2012-07-25T18:44:05Z</time>
<speed>2.890000</speed>
<extensions>
<speed>2.9</speed>
<temp>0.00</temp>
<bpm>0</bpm>
<rpm>0.00</rpm>
</extensions>
</trkpt>
<trkpt lat="63.819507599" lon="-19.176935196">
<ele>584.562500</ele>
<time>2012-07-25T18:44:10Z</time>
<speed>1.840000</speed>
<extensions>
<speed>1.8</speed>
<temp>0.00</temp>
<bpm>0</bpm>
<rpm>0.00</rpm>
</extensions>
</trkpt>
<trkpt lat="63.819507599" lon="-19.176982880">
<ele>586.234375</ele>
<time>2012-07-25T18:44:15Z</time>
<speed>0.030000</speed>
<extensions>
<speed>0.0</speed>
<temp>0.00</temp>
<bpm>0</bpm>
<rpm>0.00</rpm>
</extensions>
</trkpt>
<trkpt lat="63.819511414" lon="-19.176980972">
<ele>586.343750</ele>
<time>2012-07-25T18:44:20Z</time>
<speed>0.050000</speed>
<extensions>
<speed>0.1</speed>
<temp>0.00</temp>
<bpm>0</bpm>
<rpm>0.00</rpm>
</extensions>
</trkpt>
<trkpt lat="63.819515228" lon="-19.176975250">
<ele>586.437500</ele>
<time>2012-07-25T18:44:25Z</time>
<speed>0.100000</speed>
<extensions>
<speed>0.1</speed>
<temp>0.00</temp>
<bpm>0</bpm>
<rpm>0.00</rpm>
</extensions>
</trkpt>
<trkpt lat="63.819515228" lon="-19.176971436">
<ele>586.484375</ele>
<time>2012-07-25T18:44:30Z</time>
<extensions>
<speed>0.0</speed>
<temp>0.00</temp>
<bpm>0</bpm>
<rpm>0.00</rpm>
</extensions>
</trkpt>
<trkpt lat="63.819515228" lon="-19.176961899">
<ele>586.515625</ele>
<time>2012-07-25T18:44:35Z</time>
<speed>0.090000</speed>
<extensions>
<speed>0.1</speed>
<temp>0.00</temp>
<bpm>0</bpm>
<rpm>0.00</rpm>
</extensions>
</trkpt>
<trkpt lat="63.819522858" lon="-19.176984787">
<ele>586.406250</ele>
<time>2012-07-25T18:44:40Z</time>
<speed>1.360000</speed>
<extensions>
<speed>1.4</speed>
<temp>0.00</temp>
<bpm>0</bpm>
<rpm>0.00</rpm>
</extensions>
</trkpt>
<trkpt lat="63.819557190" lon="-19.177244186">
<ele>586.328125</ele>
<time>2012-07-25T18:44:45Z</time>
<speed>3.150000</speed>
<extensions>
<speed>3.2</speed>
<temp>0.00</temp>
<bpm>0</bpm>
<rpm>0.00</rpm>
</extensions>
</trkpt>
<trkpt lat="63.819641113" lon="-19.177551270">
<ele>587.921875</ele>
<time>2012-07-25T18:44:50Z</time>
<speed>3.620000</speed>
<extensions>
<speed>3.6</speed>
<temp>0.00</temp>
<bpm>0</bpm>
<rpm>0.00</rpm>
</extensions>
</trkpt>
<trkpt lat="63.819759369" lon="-19.177843094">
<ele>592.750000</ele>
<time>2012-07-25T18:44:55Z</time>
<speed>3.550000</speed>
<extensions>
<speed>3.5</speed>
<temp>0.00</temp>
<bpm>0</bpm>
<rpm>0.00</rpm>
</extensions>
</trkpt>
<trkpt lat="63.819881439" lon="-19.178075790">
<ele>596.531250</ele>
<time>2012-07-25T18:45:00Z</time>
<speed>3.640000</speed>
<extensions>
<speed>3.6</speed>
<temp>0.00</temp>
<bpm>0</bpm>
<rpm>0.00</rpm>
</extensions>
</trkpt>
<trkpt lat="63.820026398" lon="-19.178302765">
<ele>597.218750</ele>
<time>2012-07-25T18:45:05Z</time>
<speed>4.080000</speed>
<extensions>
<speed>4.1</speed>
<temp>0.00</temp>
<bpm>0</bpm>
<rpm>0.00</rpm>
</extensions>
</trkpt>
<trkpt lat="63.820159912" lon="-19.178552628">
<ele>598.312500</ele>
<time>2012-07-25T18:45:10Z</time>
<speed>3.440000</speed>
<extensions>
<speed>3.4</speed>
<temp>0.00</temp>
<bpm>0</bpm>
<rpm>0.00</rpm>
</extensions>
</trkpt>
<trkpt lat="63.820278168" lon="-19.178834915">
<ele>598.062500</ele>
<time>2012-07-25T18:45:15Z</time>
<speed>3.850000</speed>
<extensions>
<speed>3.8</speed>
<temp>0.00</temp>
<bpm>0</bpm>
<rpm>0.00</rpm>
</extensions>
</trkpt>
<trkpt lat="63.820373535" lon="-19.179117203">
<ele>597.625000</ele>
<time>2012-07-25T18:45:20Z</time>
<speed>3.650000</speed>
<extensions>
<speed>3.7</speed>
<temp>0.00</temp>
<bpm>0</bpm>
<rpm>0.00</rpm>
</extensions>
</trkpt>
<trkpt lat="63.820461273" lon="-19.179437637">
<ele>600.093750</ele>
<time>2012-07-25T18:45:25Z</time>
<speed>3.530000</speed>
<extensions>
<speed>3.5</speed>
<temp>0.00</temp>
<bpm>0</bpm>
<rpm>0.00</rpm>
</extensions>
</trkpt>
<trkpt lat="63.820507050" lon="-19.179782867">
<ele>599.500000</ele>
<time>2012-07-25T18:45:30Z</time>
<speed>3.650000</speed>
<extensions>
<speed>3.7</speed>
<temp>0.00</temp>
<bpm>0</bpm>
<rpm>0.00</rpm>
</extensions>
</trkpt>
<trkpt lat="63.820526123" lon="-19.180185318">
<ele>598.562500</ele>
<time>2012-07-25T18:45:35Z</time>
<speed>3.870000</speed>
<extensions>
<speed>3.9</speed>
<temp>0.00</temp>
<bpm>0</bpm>
<rpm>0.00</rpm>
</extensions>
</trkpt>
<trkpt lat="63.820533752" lon="-19.180540085">
<ele>598.093750</ele>
<time>2012-07-25T18:45:40Z</time>
<speed>3.080000</speed>
<extensions>
<speed>3.1</speed>
<temp>0.00</temp>
<bpm>0</bpm>
<rpm>0.00</rpm>
</extensions>
</trkpt>
<trkpt lat="63.820552826" lon="-19.180906296">
<ele>595.328125</ele>
<time>2012-07-25T18:45:45Z</time>
<speed>3.920000</speed>
<extensions>
<speed>3.9</speed>
<temp>0.00</temp>
<bpm>0</bpm>
<rpm>0.00</rpm>
</extensions>
</trkpt>
<trkpt lat="63.820598602" lon="-19.181272507">
<ele>594.062500</ele>
<time>2012-07-25T18:45:50Z</time>
<speed>2.660000</speed>
<extensions>
<speed>2.7</speed>
<temp>0.00</temp>
<bpm>0</bpm>
<rpm>0.00</rpm>
</extensions>
</trkpt>
<trkpt lat="63.820629120" lon="-19.181447983">
<ele>595.609375</ele>
<time>2012-07-25T18:45:55Z</time>
<speed>1.680000</speed>
<extensions>
<speed>1.7</speed>
<temp>0.00</temp>
<bpm>0</bpm>
<rpm>0.00</rpm>
</extensions>
</trkpt>
<trkpt lat="63.820678711" lon="-19.181619644">
<ele>596.859375</ele>
<time>2012-07-25T18:46:00Z</time>
<speed>2.800000</speed>
<extensions>
<speed>2.8</speed>
<temp>0.00</temp>
<bpm>0</bpm>
<rpm>0.00</rpm>
</extensions>
</trkpt>
<trkpt lat="63.820777893" lon="-19.181819916">
<ele>599.343750</ele>
<time>2012-07-25T18:46:05Z</time>
<speed>2.780000</speed>
<extensions>
<speed>2.8</speed>
<temp>0.00</temp>
<bpm>0</bpm>
<rpm>0.00</rpm>
</extensions>
</trkpt>
<trkpt lat="63.820892334" lon="-19.182058334">
<ele>599.890625</ele>
<time>2012-07-25T18:46:10Z</time>
<speed>4.420000</speed>
<extensions>
<speed>4.4</speed>
<temp>0.00</temp>
<bpm>0</bpm>
<rpm>0.00</rpm>
</extensions>
</trkpt>
<trkpt lat="63.821014404" lon="-19.182319641">
<ele>599.453125</ele>
<time>2012-07-25T18:46:15Z</time>
<speed>3.480000</speed>
<extensions>
<speed>3.5</speed>
<temp>0.00</temp>
<bpm>0</bpm>
<rpm>0.00</rpm>
</extensions>
</trkpt>
<trkpt lat="63.821121216" lon="-19.182651520">
<ele>601.046875</ele>
<time>2012-07-25T18:46:20Z</time>
<speed>4.050000</speed>
<extensions>
<speed>4.0</speed>
<temp>0.00</temp>
<bpm>0</bpm>
<rpm>0.00</rpm>
</extensions>
</trkpt>
<trkpt lat="63.821216583" lon="-19.182996750">
<ele>603.265625</ele>
<time>2012-07-25T18:46:25Z</time>
<speed>3.910000</speed>
<extensions>
<speed>3.9</speed>
<temp>0.00</temp>
<bpm>0</bpm>
<rpm>0.00</rpm>
</extensions>
</trkpt>
<trkpt lat="63.821289063" lon="-19.183324814">
<ele>599.171875</ele>
<time>2012-07-25T18:46:30Z</time>
<speed>3.050000</speed>
<extensions>
<speed>3.0</speed>
<temp>0.00</temp>
<bpm>0</bpm>
<rpm>0.00</rpm>
</extensions>
</trkpt>
<trkpt lat="63.821346283" lon="-19.183610916">
<ele>596.687500</ele>
<time>2012-07-25T18:46:35Z</time>
<speed>3.730000</speed>
<extensions>
<speed>3.7</speed>
<temp>0.00</temp>
<bpm>0</bpm>
<rpm>0.00</rpm>
</extensions>
</trkpt>
<trkpt lat="63.821449280" lon="-19.183988571">
<ele>600.281250</ele>
<time>2012-07-25T18:46:40Z</time>
<speed>4.190000</speed>
<extensions>
<speed>4.2</speed>
<temp>0.00</temp>
<bpm>0</bpm>
<rpm>0.00</rpm>
</extensions>
</trkpt>
<trkpt lat="63.821552277" lon="-19.184379578">
<ele>602.125000</ele>
<time>2012-07-25T18:46:45Z</time>
<speed>4.450000</speed>
<extensions>
<speed>4.5</speed>
<temp>0.00</temp>
<bpm>0</bpm>
<rpm>0.00</rpm>
</extensions>
</trkpt>
<trkpt lat="63.821666718" lon="-19.184780121">
<ele>605.187500</ele>
<time>2012-07-25T18:46:50Z</time>
<speed>4.610000</speed>
<extensions>
<speed>4.6</speed>
<temp>0.00</temp>
<bpm>0</bpm>
<rpm>0.00</rpm>
</extensions>
</trkpt>
<trkpt lat="63.821781158" lon="-19.185186386">
<ele>609.718750</ele>
<time>2012-07-25T18:46:55Z</time>
<speed>4.630000</speed>
<extensions>
<speed>4.6</speed>
<temp>0.00</temp>
<bpm>0</bpm>
<rpm>0.00</rpm>
</extensions>
</trkpt>
<trkpt lat="63.821907043" lon="-19.185554504">
<ele>609.250000</ele>
<time>2012-07-25T18:47:00Z</time>
<speed>4.680000</speed>
<extensions>
<speed>4.7</speed>
<temp>0.00</temp>
<bpm>0</bpm>
<rpm>0.00</rpm>
</extensions>
</trkpt>
<trkpt lat="63.822036743" lon="-19.185945511">
<ele>611.750000</ele>
<time>2012-07-25T18:47:05Z</time>
<speed>4.230000</speed>
<extensions>
<speed>4.2</speed>
<temp>0.00</temp>
<bpm>0</bpm>
<rpm>0.00</rpm>
</extensions>
</trkpt>
<trkpt lat="63.822143555" lon="-19.186275482">
<ele>609.640625</ele>
<time>2012-07-25T18:47:10Z</time>
<speed>4.240000</speed>
<extensions>
<speed>4.2</speed>
<temp>0.00</temp>
<bpm>0</bpm>
<rpm>0.00</rpm>
</extensions>
</trkpt>
<trkpt lat="63.822261810" lon="-19.186565399">
<ele>610.625000</ele>
<time>2012-07-25T18:47:15Z</time>
<speed>3.490000</speed>
<extensions>
<speed>3.5</speed>
<temp>0.00</temp>
<bpm>0</bpm>
<rpm>0.00</rpm>
</extensions>
</trkpt>
<trkpt lat="63.822372437" lon="-19.186824799">
<ele>611.281250</ele>
<time>2012-07-25T18:47:20Z</time>
<speed>3.680000</speed>
<extensions>
<speed>3.7</speed>
<temp>0.00</temp>
<bpm>0</bpm>
<rpm>0.00</rpm>
</extensions>
</trkpt>
<trkpt lat="63.822460175" lon="-19.187107086">
<ele>612.140625</ele>
<time>2012-07-25T18:47:25Z</time>
<speed>3.480000</speed>
<extensions>
<speed>3.5</speed>
<temp>0.00</temp>
<bpm>0</bpm>
<rpm>0.00</rpm>
</extensions>
</trkpt>
<trkpt lat="63.822517395" lon="-19.187416077">
<ele>610.937500</ele>
<time>2012-07-25T18:47:30Z</time>
<speed>3.200000</speed>
<extensions>
<speed>3.2</speed>
<temp>0.00</temp>
<bpm>0</bpm>
<rpm>0.00</rpm>
</extensions>
</trkpt>
<trkpt lat="63.822566986" lon="-19.187742233">
<ele>607.625000</ele>
<time>2012-07-25T18:47:35Z</time>
<speed>3.820000</speed>
<extensions>
<speed>3.8</speed>
<temp>0.00</temp>
<bpm>0</bpm>
<rpm>0.00</rpm>
</extensions>
</trkpt>
<trkpt lat="63.822631836" lon="-19.188159943">
<ele>605.703125</ele>
<time>2012-07-25T18:47:40Z</time>
<speed>4.280000</speed>
<extensions>
<speed>4.3</speed>
<temp>0.00</temp>
<bpm>0</bpm>
<rpm>0.00</rpm>
</extensions>
</trkpt>
<trkpt lat="63.822700500" lon="-19.188543320">
<ele>603.468750</ele>
<time>2012-07-25T18:47:45Z</time>
<speed>3.510000</speed>
<extensions>
<speed>3.5</speed>
<temp>0.00</temp>
<bpm>0</bpm>
<rpm>0.00</rpm>
</extensions>
</trkpt>
<trkpt lat="63.822731018" lon="-19.188869476">
<ele>599.406250</ele>
<time>2012-07-25T18:47:50Z</time>
<speed>3.750000</speed>
<extensions>
<speed>3.8</speed>
<temp>0.00</temp>
<bpm>0</bpm>
<rpm>0.00</rpm>
</extensions>
</trkpt>
<trkpt lat="63.822685242" lon="-19.189256668">
<ele>596.796875</ele>
<time>2012-07-25T18:47:55Z</time>
<speed>3.930000</speed>
<extensions>
<speed>3.9</speed>
<temp>0.00</temp>
<bpm>0</bpm>
<rpm>0.00</rpm>
</extensions>
</trkpt>
<trkpt lat="63.822532654" lon="-19.189483643">
<ele>596.781250</ele>
<time>2012-07-25T18:48:00Z</time>
<speed>4.420000</speed>
<extensions>
<speed>4.4</speed>
<temp>0.00</temp>
<bpm>0</bpm>
<rpm>0.00</rpm>
</extensions>
</trkpt>
<trkpt lat="63.822360992" lon="-19.189697266">
<ele>593.359375</ele>
<time>2012-07-25T18:48:05Z</time>
<speed>4.020000</speed>
<extensions>
<speed>4.0</speed>
<temp>0.00</temp>
<bpm>0</bpm>
<rpm>0.00</rpm>
</extensions>
</trkpt>
<trkpt lat="63.822242737" lon="-19.189973831">
<ele>591.312500</ele>
<time>2012-07-25T18:48:10Z</time>
<speed>3.790000</speed>
<extensions>
<speed>3.8</speed>
<temp>0.00</temp>
<bpm>0</bpm>
<rpm>0.00</rpm>
</extensions>
</trkpt>
<trkpt lat="63.822189331" lon="-19.190311432">
<ele>589.218750</ele>
<time>2012-07-25T18:48:15Z</time>
<speed>3.420000</speed>
<extensions>
<speed>3.4</speed>
<temp>0.00</temp>
<bpm>0</bpm>
<rpm>0.00</rpm>
</extensions>
</trkpt>
<trkpt lat="63.822170258" lon="-19.190610886">
<ele>587.328125</ele>
<time>2012-07-25T18:48:20Z</time>
<speed>2.800000</speed>
<extensions>
<speed>2.8</speed>
<temp>0.00</temp>
<bpm>0</bpm>
<rpm>0.00</rpm>
</extensions>
</trkpt>
<trkpt lat="63.822170258" lon="-19.190919876">
<ele>589.390625</ele>
<time>2012-07-25T18:48:25Z</time>
<speed>3.130000</speed>
<extensions>
<speed>3.1</speed>
<temp>0.00</temp>
<bpm>0</bpm>
<rpm>0.00</rpm>
</extensions>
</trkpt>
<trkpt lat="63.822101593" lon="-19.191246033">
<ele>586.015625</ele>
<time>2012-07-25T18:48:30Z</time>
<speed>4.460000</speed>
<extensions>
<speed>4.5</speed>
<temp>0.00</temp>
<bpm>0</bpm>
<rpm>0.00</rpm>
</extensions>
</trkpt>
<trkpt lat="63.821949005" lon="-19.191585541">
<ele>582.984375</ele>
<time>2012-07-25T18:48:35Z</time>
<speed>5.240000</speed>
<extensions>
<speed>5.2</speed>
<temp>0.00</temp>
<bpm>0</bpm>
<rpm>0.00</rpm>
</extensions>
</trkpt>
<trkpt lat="63.821796417" lon="-19.191974640">
<ele>583.906250</ele>
<time>2012-07-25T18:48:40Z</time>
<speed>4.730000</speed>
<extensions>
<speed>4.7</speed>
<temp>0.00</temp>
<bpm>0</bpm>
<rpm>0.00</rpm>
</extensions>
</trkpt>
<trkpt lat="63.821659088" lon="-19.192333221">
<ele>581.953125</ele>
<time>2012-07-25T18:48:45Z</time>
<speed>4.000000</speed>
<extensions>
<speed>4.0</speed>
<temp>0.00</temp>
<bpm>0</bpm>
<rpm>0.00</rpm>
</extensions>
</trkpt>
<trkpt lat="63.821529388" lon="-19.192695618">
<ele>581.328125</ele>
<time>2012-07-25T18:48:50Z</time>
<speed>5.160000</speed>
<extensions>
<speed>5.2</speed>
<temp>0.00</temp>
<bpm>0</bpm>
<rpm>0.00</rpm>
</extensions>
</trkpt>
<trkpt lat="63.821422577" lon="-19.193109512">
<ele>580.359375</ele>
<time>2012-07-25T18:48:55Z</time>
<speed>4.010000</speed>
<extensions>
<speed>4.0</speed>
<temp>0.00</temp>
<bpm>0</bpm>
<rpm>0.00</rpm>
</extensions>
</trkpt>
<trkpt lat="63.821372986" lon="-19.193410873">
<ele>581.640625</ele>
<time>2012-07-25T18:49:00Z</time>
<speed>2.650000</speed>
<extensions>
<speed>2.6</speed>
<temp>0.00</temp>
<bpm>0</bpm>
<rpm>0.00</rpm>
</extensions>
</trkpt>
<trkpt lat="63.821350098" lon="-19.193622589">
<ele>583.453125</ele>
<time>2012-07-25T18:49:05Z</time>
<speed>2.160000</speed>
<extensions>
<speed>2.2</speed>
<temp>0.00</temp>
<bpm>0</bpm>
<rpm>0.00</rpm>
</extensions>
</trkpt>
<trkpt lat="63.821350098" lon="-19.193859100">
<ele>584.093750</ele>
<time>2012-07-25T18:49:10Z</time>
<speed>2.490000</speed>
<extensions>
<speed>2.5</speed>
<temp>0.00</temp>
<bpm>0</bpm>
<rpm>0.00</rpm>
</extensions>
</trkpt>
<trkpt lat="63.821338654" lon="-19.194103241">
<ele>584.687500</ele>
<time>2012-07-25T18:49:15Z</time>
<speed>2.420000</speed>
<extensions>
<speed>2.4</speed>
<temp>0.00</temp>
<bpm>0</bpm>
<rpm>0.00</rpm>
</extensions>
</trkpt>
<trkpt lat="63.821296692" lon="-19.194347382">
<ele>586.375000</ele>
<time>2012-07-25T18:49:20Z</time>
<speed>2.690000</speed>
<extensions>
<speed>2.7</speed>
<temp>0.00</temp>
<bpm>0</bpm>
<rpm>0.00</rpm>
</extensions>
</trkpt>
<trkpt lat="63.821239471" lon="-19.194520950">
<ele>583.515625</ele>
<time>2012-07-25T18:49:25Z</time>
<speed>0.780000</speed>
<extensions>
<speed>0.8</speed>
<temp>0.00</temp>
<bpm>0</bpm>
<rpm>0.00</rpm>
</extensions>
</trkpt>
<trkpt lat="63.821235657" lon="-19.194545746">
<ele>582.609375</ele>
<time>2012-07-25T18:49:30Z</time>
<speed>0.620000</speed>
<extensions>
<speed>0.6</speed>
<temp>0.00</temp>
<bpm>0</bpm>
<rpm>0.00</rpm>
</extensions>
</trkpt>
<trkpt lat="63.821197510" lon="-19.194623947">
<ele>583.046875</ele>
<time>2012-07-25T18:49:35Z</time>
<speed>1.820000</speed>
<extensions>
<speed>1.8</speed>
<temp>0.00</temp>
<bpm>0</bpm>
<rpm>0.00</rpm>
</extensions>
</trkpt>
<trkpt lat="63.821113586" lon="-19.194738388">
<ele>583.953125</ele>
<time>2012-07-25T18:49:40Z</time>
<speed>2.080000</speed>
<extensions>
<speed>2.1</speed>
<temp>0.00</temp>
<bpm>0</bpm>
<rpm>0.00</rpm>
</extensions>
</trkpt>
<trkpt lat="63.821044922" lon="-19.194837570">
<ele>583.234375</ele>
<time>2012-07-25T18:49:45Z</time>
<speed>2.120000</speed>
<extensions>
<speed>2.1</speed>
<temp>0.00</temp>
<bpm>0</bpm>
<rpm>0.00</rpm>
</extensions>
</trkpt>
<trkpt lat="63.820976257" lon="-19.194990158">
<ele>583.890625</ele>
<time>2012-07-25T18:49:50Z</time>
<speed>2.330000</speed>
<extensions>
<speed>2.3</speed>
<temp>0.00</temp>
<bpm>0</bpm>
<rpm>0.00</rpm>
</extensions>
</trkpt>
<trkpt lat="63.820945740" lon="-19.195196152">
<ele>584.187500</ele>
<time>2012-07-25T18:49:55Z</time>
<speed>1.890000</speed>
<extensions>
<speed>1.9</speed>
<temp>0.00</temp>
<bpm>0</bpm>
<rpm>0.00</rpm>
</extensions>
</trkpt>
<trkpt lat="63.820949554" lon="-19.195367813">
<ele>585.328125</ele>
<time>2012-07-25T18:50:00Z</time>
<speed>0.710000</speed>
<extensions>
<speed>0.7</speed>
<temp>0.00</temp>
<bpm>0</bpm>
<rpm>0.00</rpm>
</extensions>
</trkpt>
<trkpt lat="63.820968628" lon="-19.195499420">
<ele>585.703125</ele>
<time>2012-07-25T18:50:05Z</time>
<speed>1.990000</speed>
<extensions>
<speed>2.0</speed>
<temp>0.00</temp>
<bpm>0</bpm>
<rpm>0.00</rpm>
</extensions>
</trkpt>
<trkpt lat="63.820980072" lon="-19.195705414">
<ele>586.375000</ele>
<time>2012-07-25T18:50:10Z</time>
<speed>2.480000</speed>
<extensions>
<speed>2.5</speed>
<temp>0.00</temp>
<bpm>0</bpm>
<rpm>0.00</rpm>
</extensions>
</trkpt>
<trkpt lat="63.821006775" lon="-19.196001053">
<ele>587.296875</ele>
<time>2012-07-25T18:50:15Z</time>
<speed>2.780000</speed>
<extensions>
<speed>2.8</speed>
<temp>0.00</temp>
<bpm>0</bpm>
<rpm>0.00</rpm>
</extensions>
</trkpt>
<trkpt lat="63.821044922" lon="-19.196310043">
<ele>588.078125</ele>
<time>2012-07-25T18:50:20Z</time>
<speed>3.350000</speed>
<extensions>
<speed>3.4</speed>
<temp>0.00</temp>
<bpm>0</bpm>
<rpm>0.00</rpm>
</extensions>
</trkpt>
<trkpt lat="63.821067810" lon="-19.196605682">
<ele>588.875000</ele>
<time>2012-07-25T18:50:25Z</time>
<speed>3.420000</speed>
<extensions>
<speed>3.4</speed>
<temp>0.00</temp>
<bpm>0</bpm>
<rpm>0.00</rpm>
</extensions>
</trkpt>
<trkpt lat="63.821063995" lon="-19.196928024">
<ele>586.421875</ele>
<time>2012-07-25T18:50:30Z</time>
<speed>2.570000</speed>
<extensions>
<speed>2.6</speed>
<temp>0.00</temp>
<bpm>0</bpm>
<rpm>0.00</rpm>
</extensions>
</trkpt>
<trkpt lat="63.821067810" lon="-19.197202682">
<ele>586.343750</ele>
<time>2012-07-25T18:50:35Z</time>
<speed>2.950000</speed>
<extensions>
<speed>2.9</speed>
<temp>0.00</temp>
<bpm>0</bpm>
<rpm>0.00</rpm>
</extensions>
</trkpt>
<trkpt lat="63.821063995" lon="-19.197509766">
<ele>586.109375</ele>
<time>2012-07-25T18:50:40Z</time>
<speed>2.810000</speed>
<extensions>
<speed>2.8</speed>
<temp>0.00</temp>
<bpm>0</bpm>
<rpm>0.00</rpm>
</extensions>
</trkpt>
<trkpt lat="63.821029663" lon="-19.197814941">
<ele>583.218750</ele>
<time>2012-07-25T18:50:45Z</time>
<speed>2.760000</speed>
<extensions>
<speed>2.8</speed>
<temp>0.00</temp>
<bpm>0</bpm>
<rpm>0.00</rpm>
</extensions>
</trkpt>
<trkpt lat="63.820999146" lon="-19.198093414">
<ele>581.000000</ele>
<time>2012-07-25T18:50:50Z</time>
<speed>2.620000</speed>
<extensions>
<speed>2.6</speed>
<temp>0.00</temp>
<bpm>0</bpm>
<rpm>0.00</rpm>
</extensions>
</trkpt>
<trkpt lat="63.821010590" lon="-19.198280334">
<ele>580.078125</ele>
<time>2012-07-25T18:50:55Z</time>
<speed>1.500000</speed>
<extensions>
<speed>1.5</speed>
<temp>0.00</temp>
<bpm>0</bpm>
<rpm>0.00</rpm>
</extensions>
</trkpt>
<trkpt lat="63.821002960" lon="-19.198303223">
<ele>580.265625</ele>
<time>2012-07-25T18:51:00Z</time>
<speed>0.430000</speed>
<extensions>
<speed>0.4</speed>
<temp>0.00</temp>
<bpm>0</bpm>
<rpm>0.00</rpm>
</extensions>
</trkpt>
<trkpt lat="63.821002960" lon="-19.198310852">
<ele>580.218750</ele>
<time>2012-07-25T18:51:05Z</time>
<speed>0.010000</speed>
<extensions>
<speed>0.0</speed>
<temp>0.00</temp>
<bpm>0</bpm>
<rpm>0.00</rpm>
</extensions>
</trkpt>
<trkpt lat="63.821002960" lon="-19.198310852">
<ele>580.187500</ele>
<time>2012-07-25T18:51:10Z</time>
<extensions>
<speed>0.0</speed>
<temp>0.00</temp>
<bpm>0</bpm>
<rpm>0.00</rpm>
</extensions>
</trkpt>
<trkpt lat="63.820999146" lon="-19.198307037">
<ele>580.078125</ele>
<time>2012-07-25T18:51:15Z</time>
<speed>0.150000</speed>
<extensions>
<speed>0.2</speed>
<temp>0.00</temp>
<bpm>0</bpm>
<rpm>0.00</rpm>
</extensions>
</trkpt>
<trkpt lat="63.821002960" lon="-19.198312759">
<ele>579.953125</ele>
<time>2012-07-25T18:51:20Z</time>
<speed>0.010000</speed>
<extensions>
<speed>0.0</speed>
<temp>0.00</temp>
<bpm>0</bpm>
<rpm>0.00</rpm>
</extensions>
</trkpt>
<trkpt lat="63.821002960" lon="-19.198352814">
<ele>579.890625</ele>
<time>2012-07-25T18:51:25Z</time>
<speed>1.560000</speed>
<extensions>
<speed>1.6</speed>
<temp>0.00</temp>
<bpm>0</bpm>
<rpm>0.00</rpm>
</extensions>
</trkpt>
<trkpt lat="63.820987701" lon="-19.198551178">
<ele>579.453125</ele>
<time>2012-07-25T18:51:30Z</time>
<speed>2.140000</speed>
<extensions>
<speed>2.1</speed>
<temp>0.00</temp>
<bpm>0</bpm>
<rpm>0.00</rpm>
</extensions>
</trkpt>
<trkpt lat="63.820938110" lon="-19.198717117">
<ele>579.171875</ele>
<time>2012-07-25T18:51:35Z</time>
<speed>1.930000</speed>
<extensions>
<speed>1.9</speed>
<temp>0.00</temp>
<bpm>0</bpm>
<rpm>0.00</rpm>
</extensions>
</trkpt>
<trkpt lat="63.820896149" lon="-19.198915482">
<ele>579.437500</ele>
<time>2012-07-25T18:51:40Z</time>
<speed>1.810000</speed>
<extensions>
<speed>1.8</speed>
<temp>0.00</temp>
<bpm>0</bpm>
<rpm>0.00</rpm>
</extensions>
</trkpt>
<trkpt lat="63.820858002" lon="-19.199092865">
<ele>579.156250</ele>
<time>2012-07-25T18:51:45Z</time>
<speed>1.880000</speed>
<extensions>
<speed>1.9</speed>
<temp>0.00</temp>
<bpm>0</bpm>
<rpm>0.00</rpm>
</extensions>
</trkpt>
<trkpt lat="63.820827484" lon="-19.199251175">
<ele>579.156250</ele>
<time>2012-07-25T18:51:50Z</time>
<speed>1.470000</speed>
<extensions>
<speed>1.5</speed>
<temp>0.00</temp>
<bpm>0</bpm>
<rpm>0.00</rpm>
</extensions>
</trkpt>
<trkpt lat="63.820823669" lon="-19.199285507">
<ele>579.921875</ele>
<time>2012-07-25T18:51:55Z</time>
<extensions>
<speed>0.0</speed>
<temp>0.00</temp>
<bpm>0</bpm>
<rpm>0.00</rpm>
</extensions>
</trkpt>
<trkpt lat="63.820819855" lon="-19.199291229">
<ele>580.093750</ele>
<time>2012-07-25T18:52:00Z</time>
<speed>0.020000</speed>
<extensions>
<speed>0.0</speed>
<temp>0.00</temp>
<bpm>0</bpm>
<rpm>0.00</rpm>
</extensions>
</trkpt>
<trkpt lat="63.820819855" lon="-19.199291229">
<ele>580.359375</ele>
<time>2012-07-25T18:52:05Z</time>
<extensions>
<speed>0.0</speed>
<temp>0.00</temp>
<bpm>0</bpm>
<rpm>0.00</rpm>
</extensions>
</trkpt>
<trkpt lat="63.820819855" lon="-19.199291229">
<ele>580.343750</ele>
<time>2012-07-25T18:52:10Z</time>
<speed>0.040000</speed>
<extensions>
<speed>0.0</speed>
<temp>0.00</temp>
<bpm>0</bpm>
<rpm>0.00</rpm>
</extensions>
</trkpt>
<trkpt lat="63.820819855" lon="-19.199291229">
<ele>580.328125</ele>
<time>2012-07-25T18:52:15Z</time>
<speed>0.010000</speed>
<extensions>
<speed>0.0</speed>
<temp>0.00</temp>
<bpm>0</bpm>
<rpm>0.00</rpm>
</extensions>
</trkpt>
<trkpt lat="63.820819855" lon="-19.199291229">
<ele>580.328125</ele>
<time>2012-07-25T18:52:20Z</time>
<speed>0.140000</speed>
<extensions>
<speed>0.1</speed>
<temp>0.00</temp>
<bpm>0</bpm>
<rpm>0.00</rpm>
</extensions>
</trkpt>
<trkpt lat="63.820819855" lon="-19.199293137">
<ele>580.343750</ele>
<time>2012-07-25T18:52:25Z</time>
<speed>0.130000</speed>
<extensions>
<speed>0.1</speed>
<temp>0.00</temp>
<bpm>0</bpm>
<rpm>0.00</rpm>
</extensions>
</trkpt>
<trkpt lat="63.820838928" lon="-19.199342728">
<ele>580.953125</ele>
<time>2012-07-25T18:52:30Z</time>
<speed>1.410000</speed>
<extensions>
<speed>1.4</speed>
<temp>0.00</temp>
<bpm>0</bpm>
<rpm>0.00</rpm>
</extensions>
</trkpt>
<trkpt lat="63.820899963" lon="-19.199466705">
<ele>581.234375</ele>
<time>2012-07-25T18:52:35Z</time>
<speed>1.600000</speed>
<extensions>
<speed>1.6</speed>
<temp>0.00</temp>
<bpm>0</bpm>
<rpm>0.00</rpm>
</extensions>
</trkpt>
<trkpt lat="63.820983887" lon="-19.199544907">
<ele>581.000000</ele>
<time>2012-07-25T18:52:40Z</time>
<speed>2.800000</speed>
<extensions>
<speed>2.8</speed>
<temp>0.00</temp>
<bpm>0</bpm>
<rpm>0.00</rpm>
</extensions>
</trkpt>
<trkpt lat="63.821044922" lon="-19.199766159">
<ele>579.375000</ele>
<time>2012-07-25T18:52:45Z</time>
<speed>2.430000</speed>
<extensions>
<speed>2.4</speed>
<temp>0.00</temp>
<bpm>0</bpm>
<rpm>0.00</rpm>
</extensions>
</trkpt>
<trkpt lat="63.821098328" lon="-19.200006485">
<ele>579.156250</ele>
<time>2012-07-25T18:52:50Z</time>
<speed>2.450000</speed>
<extensions>
<speed>2.4</speed>
<temp>0.00</temp>
<bpm>0</bpm>
<rpm>0.00</rpm>
</extensions>
</trkpt>
<trkpt lat="63.821147919" lon="-19.200206757">
<ele>582.015625</ele>
<time>2012-07-25T18:52:55Z</time>
<speed>1.850000</speed>
<extensions>
<speed>1.8</speed>
<temp>0.00</temp>
<bpm>0</bpm>
<rpm>0.00</rpm>
</extensions>
</trkpt>
<trkpt lat="63.821163177" lon="-19.200378418">
<ele>583.828125</ele>
<time>2012-07-25T18:53:00Z</time>
<speed>1.610000</speed>
<extensions>
<speed>1.6</speed>
<temp>0.00</temp>
<bpm>0</bpm>
<rpm>0.00</rpm>
</extensions>
</trkpt>
<trkpt lat="63.821178436" lon="-19.200521469">
<ele>585.250000</ele>
<time>2012-07-25T18:53:05Z</time>
<speed>1.650000</speed>
<extensions>
<speed>1.7</speed>
<temp>0.00</temp>
<bpm>0</bpm>
<rpm>0.00</rpm>
</extensions>
</trkpt>
<trkpt lat="63.821220398" lon="-19.200754166">
<ele>584.859375</ele>
<time>2012-07-25T18:53:10Z</time>
<speed>2.720000</speed>
<extensions>
<speed>2.7</speed>
<temp>0.00</temp>
<bpm>0</bpm>
<rpm>0.00</rpm>
</extensions>
</trkpt>
<trkpt lat="63.821266174" lon="-19.201023102">
<ele>583.281250</ele>
<time>2012-07-25T18:53:15Z</time>
<speed>3.300000</speed>
<extensions>
<speed>3.3</speed>
<temp>0.00</temp>
<bpm>0</bpm>
<rpm>0.00</rpm>
</extensions>
</trkpt>
<trkpt lat="63.821346283" lon="-19.201318741">
<ele>583.828125</ele>
<time>2012-07-25T18:53:20Z</time>
<speed>3.150000</speed>
<extensions>
<speed>3.2</speed>
<temp>0.00</temp>
<bpm>0</bpm>
<rpm>0.00</rpm>
</extensions>
</trkpt>
<trkpt lat="63.821365356" lon="-19.201652527">
<ele>584.343750</ele>
<time>2012-07-25T18:53:25Z</time>
<speed>3.860000</speed>
<extensions>
<speed>3.9</speed>
<temp>0.00</temp>
<bpm>0</bpm>
<rpm>0.00</rpm>
</extensions>
</trkpt>
<trkpt lat="63.821418762" lon="-19.201972961">
<ele>586.046875</ele>
<time>2012-07-25T18:53:30Z</time>
<speed>3.240000</speed>
<extensions>
<speed>3.2</speed>
<temp>0.00</temp>
<bpm>0</bpm>
<rpm>0.00</rpm>
</extensions>
</trkpt>
<trkpt lat="63.821559906" lon="-19.202140808">
<ele>582.531250</ele>
<time>2012-07-25T18:53:35Z</time>
<speed>3.750000</speed>
<extensions>
<speed>3.8</speed>
<temp>0.00</temp>
<bpm>0</bpm>
<rpm>0.00</rpm>
</extensions>
</trkpt>
<trkpt lat="63.821727753" lon="-19.202236176">
<ele>578.671875</ele>
<time>2012-07-25T18:53:40Z</time>
<speed>4.340000</speed>
<extensions>
<speed>4.3</speed>
<temp>0.00</temp>
<bpm>0</bpm>
<rpm>0.00</rpm>
</extensions>
</trkpt>
<trkpt lat="63.821914673" lon="-19.202449799">
<ele>579.765625</ele>
<time>2012-07-25T18:53:45Z</time>
<speed>3.870000</speed>
<extensions>
<speed>3.9</speed>
<temp>0.00</temp>
<bpm>0</bpm>
<rpm>0.00</rpm>
</extensions>
</trkpt>
<trkpt lat="63.822013855" lon="-19.202705383">
<ele>578.843750</ele>
<time>2012-07-25T18:53:50Z</time>
<speed>2.970000</speed>
<extensions>
<speed>3.0</speed>
<temp>0.00</temp>
<bpm>0</bpm>
<rpm>0.00</rpm>
</extensions>
</trkpt>
<trkpt lat="63.822078705" lon="-19.203022003">
<ele>580.109375</ele>
<time>2012-07-25T18:53:55Z</time>
<speed>3.200000</speed>
<extensions>
<speed>3.2</speed>
<temp>0.00</temp>
<bpm>0</bpm>
<rpm>0.00</rpm>
</extensions>
</trkpt>
<trkpt lat="63.822093964" lon="-19.203279495">
<ele>582.078125</ele>
<time>2012-07-25T18:54:00Z</time>
<speed>2.450000</speed>
<extensions>
<speed>2.4</speed>
<temp>0.00</temp>
<bpm>0</bpm>
<rpm>0.00</rpm>
</extensions>
</trkpt>
<trkpt lat="63.822097778" lon="-19.203533173">
<ele>581.843750</ele>
<time>2012-07-25T18:54:05Z</time>
<speed>2.420000</speed>
<extensions>
<speed>2.4</speed>
<temp>0.00</temp>
<bpm>0</bpm>
<rpm>0.00</rpm>
</extensions>
</trkpt>
<trkpt lat="63.822101593" lon="-19.203800201">
<ele>582.812500</ele>
<time>2012-07-25T18:54:10Z</time>
<speed>2.360000</speed>
<extensions>
<speed>2.4</speed>
<temp>0.00</temp>
<bpm>0</bpm>
<rpm>0.00</rpm>
</extensions>
</trkpt>
<trkpt lat="63.822139740" lon="-19.204109192">
<ele>586.296875</ele>
<time>2012-07-25T18:54:15Z</time>
<speed>3.510000</speed>
<extensions>
<speed>3.5</speed>
<temp>0.00</temp>
<bpm>0</bpm>
<rpm>0.00</rpm>
</extensions>
</trkpt>
<trkpt lat="63.822181702" lon="-19.204414368">
<ele>587.218750</ele>
<time>2012-07-25T18:54:20Z</time>
<speed>2.710000</speed>
<extensions>
<speed>2.7</speed>
<temp>0.00</temp>
<bpm>0</bpm>
<rpm>0.00</rpm>
</extensions>
</trkpt>
<trkpt lat="63.822219849" lon="-19.204687119">
<ele>585.156250</ele>
<time>2012-07-25T18:54:25Z</time>
<speed>2.310000</speed>
<extensions>
<speed>2.3</speed>
<temp>0.00</temp>
<bpm>0</bpm>
<rpm>0.00</rpm>
</extensions>
</trkpt>
<trkpt lat="63.822250366" lon="-19.204931259">
<ele>584.375000</ele>
<time>2012-07-25T18:54:30Z</time>
<speed>2.420000</speed>
<extensions>
<speed>2.4</speed>
<temp>0.00</temp>
<bpm>0</bpm>
<rpm>0.00</rpm>
</extensions>
</trkpt>
<trkpt lat="63.822303772" lon="-19.205165863">
<ele>585.796875</ele>
<time>2012-07-25T18:54:35Z</time>
<speed>3.440000</speed>
<extensions>
<speed>3.4</speed>
<temp>0.00</temp>
<bpm>0</bpm>
<rpm>0.00</rpm>
</extensions>
</trkpt>
<trkpt lat="63.822360992" lon="-19.205505371">
<ele>583.609375</ele>
<time>2012-07-25T18:54:40Z</time>
<speed>3.910000</speed>
<extensions>
<speed>3.9</speed>
<temp>0.00</temp>
<bpm>0</bpm>
<rpm>0.00</rpm>
</extensions>
</trkpt>
<trkpt lat="63.822422028" lon="-19.205852509">
<ele>583.093750</ele>
<time>2012-07-25T18:54:45Z</time>
<speed>3.010000</speed>
<extensions>
<speed>3.0</speed>
<temp>0.00</temp>
<bpm>0</bpm>
<rpm>0.00</rpm>
</extensions>
</trkpt>
<trkpt lat="63.822444916" lon="-19.206026077">
<ele>583.265625</ele>
<time>2012-07-25T18:54:50Z</time>
<speed>2.080000</speed>
<extensions>
<speed>2.1</speed>
<temp>0.00</temp>
<bpm>0</bpm>
<rpm>0.00</rpm>
</extensions>
</trkpt>
<trkpt lat="63.822486877" lon="-19.206232071">
<ele>584.843750</ele>
<time>2012-07-25T18:54:55Z</time>
<speed>3.000000</speed>
<extensions>
<speed>3.0</speed>
<temp>0.00</temp>
<bpm>0</bpm>
<rpm>0.00</rpm>
</extensions>
</trkpt>
<trkpt lat="63.822547913" lon="-19.206556320">
<ele>584.187500</ele>
<time>2012-07-25T18:55:00Z</time>
<speed>3.510000</speed>
<extensions>
<speed>3.5</speed>
<temp>0.00</temp>
<bpm>0</bpm>
<rpm>0.00</rpm>
</extensions>
</trkpt>
<trkpt lat="63.822631836" lon="-19.206857681">
<ele>586.046875</ele>
<time>2012-07-25T18:55:05Z</time>
<speed>3.380000</speed>
<extensions>
<speed>3.4</speed>
<temp>0.00</temp>
<bpm>0</bpm>
<rpm>0.00</rpm>
</extensions>
</trkpt>
<trkpt lat="63.822704315" lon="-19.207046509">
<ele>585.968750</ele>
<time>2012-07-25T18:55:10Z</time>
<speed>2.580000</speed>
<extensions>
<speed>2.6</speed>
<temp>0.00</temp>
<bpm>0</bpm>
<rpm>0.00</rpm>
</extensions>
</trkpt>
<trkpt lat="63.822780609" lon="-19.207193375">
<ele>585.312500</ele>
<time>2012-07-25T18:55:15Z</time>
<speed>2.360000</speed>
<extensions>
<speed>2.4</speed>
<temp>0.00</temp>
<bpm>0</bpm>
<rpm>0.00</rpm>
</extensions>
</trkpt>
<trkpt lat="63.822895050" lon="-19.207241058">
<ele>582.640625</ele>
<time>2012-07-25T18:55:20Z</time>
<speed>2.850000</speed>
<extensions>
<speed>2.9</speed>
<temp>0.00</temp>
<bpm>0</bpm>
<rpm>0.00</rpm>
</extensions>
</trkpt>
<trkpt lat="63.823024750" lon="-19.207206726">
<ele>581.140625</ele>
<time>2012-07-25T18:55:25Z</time>
<speed>3.070000</speed>
<extensions>
<speed>3.1</speed>
<temp>0.00</temp>
<bpm>0</bpm>
<rpm>0.00</rpm>
</extensions>
</trkpt>
<trkpt lat="63.823146820" lon="-19.207307816">
<ele>579.937500</ele>
<time>2012-07-25T18:55:30Z</time>
<speed>2.890000</speed>
<extensions>
<speed>2.9</speed>
<temp>0.00</temp>
<bpm>0</bpm>
<rpm>0.00</rpm>
</extensions>
</trkpt>
<trkpt lat="63.823234558" lon="-19.207590103">
<ele>577.937500</ele>
<time>2012-07-25T18:55:35Z</time>
<speed>3.450000</speed>
<extensions>
<speed>3.5</speed>
<temp>0.00</temp>
<bpm>0</bpm>
<rpm>0.00</rpm>
</extensions>
</trkpt>
<trkpt lat="63.823307037" lon="-19.207885742">
<ele>577.828125</ele>
<time>2012-07-25T18:55:40Z</time>
<speed>3.130000</speed>
<extensions>
<speed>3.1</speed>
<temp>0.00</temp>
<bpm>0</bpm>
<rpm>0.00</rpm>
</extensions>
</trkpt>
<trkpt lat="63.823387146" lon="-19.208202362">
<ele>580.843750</ele>
<time>2012-07-25T18:55:45Z</time>
<speed>3.770000</speed>
<extensions>
<speed>3.8</speed>
<temp>0.00</temp>
<bpm>0</bpm>
<rpm>0.00</rpm>
</extensions>
</trkpt>
<trkpt lat="63.823455811" lon="-19.208604813">
<ele>581.656250</ele>
<time>2012-07-25T18:55:50Z</time>
<speed>3.970000</speed>
<extensions>
<speed>4.0</speed>
<temp>0.00</temp>
<bpm>0</bpm>
<rpm>0.00</rpm>
</extensions>
</trkpt>
<trkpt lat="63.823505402" lon="-19.209018707">
<ele>582.390625</ele>
<time>2012-07-25T18:55:55Z</time>
<speed>4.100000</speed>
<extensions>
<speed>4.1</speed>
<temp>0.00</temp>
<bpm>0</bpm>
<rpm>0.00</rpm>
</extensions>
</trkpt>
<trkpt lat="63.823574066" lon="-19.209360123">
<ele>581.484375</ele>
<time>2012-07-25T18:56:00Z</time>
<speed>3.150000</speed>
<extensions>
<speed>3.2</speed>
<temp>0.00</temp>
<bpm>0</bpm>
<rpm>0.00</rpm>
</extensions>
</trkpt>
<trkpt lat="63.823646545" lon="-19.209665298">
<ele>578.375000</ele>
<time>2012-07-25T18:56:05Z</time>
<speed>3.640000</speed>
<extensions>
<speed>3.6</speed>
<temp>0.00</temp>
<bpm>0</bpm>
<rpm>0.00</rpm>
</extensions>
</trkpt>
<trkpt lat="63.823680878" lon="-19.210014343">
<ele>578.046875</ele>
<time>2012-07-25T18:56:10Z</time>
<speed>3.230000</speed>
<extensions>
<speed>3.2</speed>
<temp>0.00</temp>
<bpm>0</bpm>
<rpm>0.00</rpm>
</extensions>
</trkpt>
<trkpt lat="63.823715210" lon="-19.210361481">
<ele>577.656250</ele>
<time>2012-07-25T18:56:15Z</time>
<speed>3.510000</speed>
<extensions>
<speed>3.5</speed>
<temp>0.00</temp>
<bpm>0</bpm>
<rpm>0.00</rpm>
</extensions>
</trkpt>
<trkpt lat="63.823753357" lon="-19.210674286">
<ele>580.390625</ele>
<time>2012-07-25T18:56:20Z</time>
<speed>3.170000</speed>
<extensions>
<speed>3.2</speed>
<temp>0.00</temp>
<bpm>0</bpm>
<rpm>0.00</rpm>
</extensions>
</trkpt>
<trkpt lat="63.823795319" lon="-19.211006165">
<ele>582.656250</ele>
<time>2012-07-25T18:56:25Z</time>
<speed>2.480000</speed>
<extensions>
<speed>2.5</speed>
<temp>0.00</temp>
<bpm>0</bpm>
<rpm>0.00</rpm>
</extensions>
</trkpt>
<trkpt lat="63.823837280" lon="-19.211351395">
<ele>582.359375</ele>
<time>2012-07-25T18:56:30Z</time>
<speed>3.420000</speed>
<extensions>
<speed>3.4</speed>
<temp>0.00</temp>
<bpm>0</bpm>
<rpm>0.00</rpm>
</extensions>
</trkpt>
<trkpt lat="63.823936462" lon="-19.211708069">
<ele>579.875000</ele>
<time>2012-07-25T18:56:35Z</time>
<speed>3.940000</speed>
<extensions>
<speed>3.9</speed>
<temp>0.00</temp>
<bpm>0</bpm>
<rpm>0.00</rpm>
</extensions>
</trkpt>
<trkpt lat="63.824028015" lon="-19.211973190">
<ele>576.140625</ele>
<time>2012-07-25T18:56:40Z</time>
<speed>3.020000</speed>
<extensions>
<speed>3.0</speed>
<temp>0.00</temp>
<bpm>0</bpm>
<rpm>0.00</rpm>
</extensions>
</trkpt>
<trkpt lat="63.824104309" lon="-19.212236404">
<ele>573.765625</ele>
<time>2012-07-25T18:56:45Z</time>
<speed>3.410000</speed>
<extensions>
<speed>3.4</speed>
<temp>0.00</temp>
<bpm>0</bpm>
<rpm>0.00</rpm>
</extensions>
</trkpt>
<trkpt lat="63.824180603" lon="-19.212530136">
<ele>572.031250</ele>
<time>2012-07-25T18:56:50Z</time>
<speed>3.400000</speed>
<extensions>
<speed>3.4</speed>
<temp>0.00</temp>
<bpm>0</bpm>
<rpm>0.00</rpm>
</extensions>
</trkpt>
<trkpt lat="63.824245453" lon="-19.212833405">
<ele>573.359375</ele>
<time>2012-07-25T18:56:55Z</time>
<speed>3.260000</speed>
<extensions>
<speed>3.3</speed>
<temp>0.00</temp>
<bpm>0</bpm>
<rpm>0.00</rpm>
</extensions>
</trkpt>
<trkpt lat="63.824295044" lon="-19.213106155">
<ele>574.859375</ele>
<time>2012-07-25T18:57:00Z</time>
<speed>3.150000</speed>
<extensions>
<speed>3.2</speed>
<temp>0.00</temp>
<bpm>0</bpm>
<rpm>0.00</rpm>
</extensions>
</trkpt>
<trkpt lat="63.824405670" lon="-19.213388443">
<ele>571.296875</ele>
<time>2012-07-25T18:57:05Z</time>
<speed>4.300000</speed>
<extensions>
<speed>4.3</speed>
<temp>0.00</temp>
<bpm>0</bpm>
<rpm>0.00</rpm>
</extensions>
</trkpt>
<trkpt lat="63.824588776" lon="-19.213693619">
<ele>571.078125</ele>
<time>2012-07-25T18:57:10Z</time>
<speed>6.460000</speed>
<extensions>
<speed>6.5</speed>
<temp>0.00</temp>
<bpm>0</bpm>
<rpm>0.00</rpm>
</extensions>
</trkpt>
<trkpt lat="63.824810028" lon="-19.214101791">
<ele>568.296875</ele>
<time>2012-07-25T18:57:15Z</time>
<speed>5.180000</speed>
<extensions>
<speed>5.2</speed>
<temp>0.00</temp>
<bpm>0</bpm>
<rpm>0.00</rpm>
</extensions>
</trkpt>
<trkpt lat="63.824924469" lon="-19.214426041">
<ele>567.312500</ele>
<time>2012-07-25T18:57:20Z</time>
<speed>3.560000</speed>
<extensions>
<speed>3.6</speed>
<temp>0.00</temp>
<bpm>0</bpm>
<rpm>0.00</rpm>
</extensions>
</trkpt>
<trkpt lat="63.825012207" lon="-19.214685440">
<ele>567.609375</ele>
<time>2012-07-25T18:57:25Z</time>
<speed>3.370000</speed>
<extensions>
<speed>3.4</speed>
<temp>0.00</temp>
<bpm>0</bpm>
<rpm>0.00</rpm>
</extensions>
</trkpt>
<trkpt lat="63.825080872" lon="-19.214773178">
<ele>568.046875</ele>
<time>2012-07-25T18:57:30Z</time>
<speed>0.670000</speed>
<extensions>
<speed>0.7</speed>
<temp>0.00</temp>
<bpm>0</bpm>
<rpm>0.00</rpm>
</extensions>
</trkpt>
<trkpt lat="63.825080872" lon="-19.214769363">
<ele>567.218750</ele>
<time>2012-07-25T18:57:35Z</time>
<speed>0.050000</speed>
<extensions>
<speed>0.1</speed>
<temp>0.00</temp>
<bpm>0</bpm>
<rpm>0.00</rpm>
</extensions>
</trkpt>
<trkpt lat="63.825107574" lon="-19.214811325">
<ele>567.015625</ele>
<time>2012-07-25T18:57:40Z</time>
<speed>1.370000</speed>
<extensions>
<speed>1.4</speed>
<temp>0.00</temp>
<bpm>0</bpm>
<rpm>0.00</rpm>
</extensions>
</trkpt>
<trkpt lat="63.825168610" lon="-19.214830399">
<ele>568.343750</ele>
<time>2012-07-25T18:57:45Z</time>
<speed>1.460000</speed>
<extensions>
<speed>1.5</speed>
<temp>0.00</temp>
<bpm>0</bpm>
<rpm>0.00</rpm>
</extensions>
</trkpt>
<trkpt lat="63.825206757" lon="-19.214788437">
<ele>567.156250</ele>
<time>2012-07-25T18:57:50Z</time>
<speed>0.190000</speed>
<extensions>
<speed>0.2</speed>
<temp>0.00</temp>
<bpm>0</bpm>
<rpm>0.00</rpm>
</extensions>
</trkpt>
<trkpt lat="63.825199127" lon="-19.214771271">
<ele>566.781250</ele>
<time>2012-07-25T18:57:55Z</time>
<speed>0.050000</speed>
<extensions>
<speed>0.1</speed>
<temp>0.00</temp>
<bpm>0</bpm>
<rpm>0.00</rpm>
</extensions>
</trkpt>
<trkpt lat="63.825195313" lon="-19.214771271">
<ele>566.093750</ele>
<time>2012-07-25T18:58:00Z</time>
<speed>0.020000</speed>
<extensions>
<speed>0.0</speed>
<temp>0.00</temp>
<bpm>0</bpm>
<rpm>0.00</rpm>
</extensions>
</trkpt>
<trkpt lat="63.825191498" lon="-19.214771271">
<ele>565.781250</ele>
<time>2012-07-25T18:58:05Z</time>
<speed>0.030000</speed>
<extensions>
<speed>0.0</speed>
<temp>0.00</temp>
<bpm>0</bpm>
<rpm>0.00</rpm>
</extensions>
</trkpt>
<trkpt lat="63.825191498" lon="-19.214771271">
<ele>565.656250</ele>
<time>2012-07-25T18:58:10Z</time>
<extensions>
<speed>0.0</speed>
<temp>0.00</temp>
<bpm>0</bpm>
<rpm>0.00</rpm>
</extensions>
</trkpt>
<trkpt lat="63.825191498" lon="-19.214771271">
<ele>565.656250</ele>
<time>2012-07-25T18:58:15Z</time>
<speed>0.040000</speed>
<extensions>
<speed>0.0</speed>
<temp>0.00</temp>
<bpm>0</bpm>
<rpm>0.00</rpm>
</extensions>
</trkpt>
<trkpt lat="63.825206757" lon="-19.214776993">
<ele>565.890625</ele>
<time>2012-07-25T18:58:20Z</time>
<speed>0.020000</speed>
<extensions>
<speed>0.0</speed>
<temp>0.00</temp>
<bpm>0</bpm>
<rpm>0.00</rpm>
</extensions>
</trkpt>
<trkpt lat="63.825214386" lon="-19.214733124">
<ele>566.562500</ele>
<time>2012-07-25T18:58:25Z</time>
<speed>0.950000</speed>
<extensions>
<speed>1.0</speed>
<temp>0.00</temp>
<bpm>0</bpm>
<rpm>0.00</rpm>
</extensions>
</trkpt>
<trkpt lat="63.825237274" lon="-19.214595795">
<ele>567.265625</ele>
<time>2012-07-25T18:58:30Z</time>
<speed>0.960000</speed>
<extensions>
<speed>1.0</speed>
<temp>0.00</temp>
<bpm>0</bpm>
<rpm>0.00</rpm>
</extensions>
</trkpt>
<trkpt lat="63.825225830" lon="-19.214530945">
<ele>567.390625</ele>
<time>2012-07-25T18:58:35Z</time>
<speed>0.450000</speed>
<extensions>
<speed>0.5</speed>
<temp>0.00</temp>
<bpm>0</bpm>
<rpm>0.00</rpm>
</extensions>
</trkpt>
<trkpt lat="63.825233459" lon="-19.214504242">
<ele>567.140625</ele>
<time>2012-07-25T18:58:40Z</time>
<speed>0.030000</speed>
<extensions>
<speed>0.0</speed>
<temp>0.00</temp>
<bpm>0</bpm>
<rpm>0.00</rpm>
</extensions>
</trkpt>
<trkpt lat="63.825229645" lon="-19.214502335">
<ele>567.078125</ele>
<time>2012-07-25T18:58:45Z</time>
<speed>0.060000</speed>
<extensions>
<speed>0.1</speed>
<temp>0.00</temp>
<bpm>0</bpm>
<rpm>0.00</rpm>
</extensions>
</trkpt>
<trkpt lat="63.825229645" lon="-19.214496613">
<ele>567.109375</ele>
<time>2012-07-25T18:58:50Z</time>
<speed>0.280000</speed>
<extensions>
<speed>0.3</speed>
<temp>0.00</temp>
<bpm>0</bpm>
<rpm>0.00</rpm>
</extensions>
</trkpt>
<trkpt lat="63.825252533" lon="-19.214403152">
<ele>567.609375</ele>
<time>2012-07-25T18:58:55Z</time>
<speed>1.260000</speed>
<extensions>
<speed>1.3</speed>
<temp>0.00</temp>
<bpm>0</bpm>
<rpm>0.00</rpm>
</extensions>
</trkpt>
<trkpt lat="63.825271606" lon="-19.214267731">
<ele>568.671875</ele>
<time>2012-07-25T18:59:00Z</time>
<speed>0.420000</speed>
<extensions>
<speed>0.4</speed>
<temp>0.00</temp>
<bpm>0</bpm>
<rpm>0.00</rpm>
</extensions>
</trkpt>
<trkpt lat="63.825267792" lon="-19.214284897">
<ele>568.125000</ele>
<time>2012-07-25T18:59:05Z</time>
<extensions>
<speed>0.0</speed>
<temp>0.00</temp>
<bpm>0</bpm>
<rpm>0.00</rpm>
</extensions>
</trkpt>
<trkpt lat="63.825267792" lon="-19.214284897">
<ele>567.687500</ele>
<time>2012-07-25T18:59:10Z</time>
<extensions>
<speed>0.0</speed>
<temp>0.00</temp>
<bpm>0</bpm>
<rpm>0.00</rpm>
</extensions>
</trkpt>
<trkpt lat="63.825267792" lon="-19.214284897">
<ele>567.625000</ele>
<time>2012-07-25T18:59:15Z</time>
<extensions>
<speed>0.0</speed>
<temp>0.00</temp>
<bpm>0</bpm>
<rpm>0.00</rpm>
</extensions>
</trkpt>
<trkpt lat="63.825267792" lon="-19.214275360">
<ele>568.125000</ele>
<time>2012-07-25T18:59:20Z</time>
<speed>0.130000</speed>
<extensions>
<speed>0.1</speed>
<temp>0.00</temp>
<bpm>0</bpm>
<rpm>0.00</rpm>
</extensions>
</trkpt>
<trkpt lat="63.825271606" lon="-19.214221954">
<ele>568.515625</ele>
<time>2012-07-25T18:59:25Z</time>
<speed>1.070000</speed>
<extensions>
<speed>1.1</speed>
<temp>0.00</temp>
<bpm>0</bpm>
<rpm>0.00</rpm>
</extensions>
</trkpt>
<trkpt lat="63.825283051" lon="-19.214094162">
<ele>567.937500</ele>
<time>2012-07-25T18:59:30Z</time>
<speed>1.500000</speed>
<extensions>
<speed>1.5</speed>
<temp>0.00</temp>
<bpm>0</bpm>
<rpm>0.00</rpm>
</extensions>
</trkpt>
<trkpt lat="63.825302124" lon="-19.214008331">
<ele>567.375000</ele>
<time>2012-07-25T18:59:35Z</time>
<speed>0.740000</speed>
<extensions>
<speed>0.7</speed>
<temp>0.00</temp>
<bpm>0</bpm>
<rpm>0.00</rpm>
</extensions>
</trkpt>
<trkpt lat="63.825332642" lon="-19.213914871">
<ele>567.031250</ele>
<time>2012-07-25T18:59:40Z</time>
<speed>1.280000</speed>
<extensions>
<speed>1.3</speed>
<temp>0.00</temp>
<bpm>0</bpm>
<rpm>0.00</rpm>
</extensions>
</trkpt>
<trkpt lat="63.825351715" lon="-19.213865280">
<ele>566.234375</ele>
<time>2012-07-25T18:59:45Z</time>
<speed>1.220000</speed>
<extensions>
<speed>1.2</speed>
<temp>0.00</temp>
<bpm>0</bpm>
<rpm>0.00</rpm>
</extensions>
</trkpt>
<trkpt lat="63.825393677" lon="-19.213790894">
<ele>566.046875</ele>
<time>2012-07-25T18:59:50Z</time>
<speed>0.790000</speed>
<extensions>
<speed>0.8</speed>
<temp>0.00</temp>
<bpm>0</bpm>
<rpm>0.00</rpm>
</extensions>
</trkpt>
<trkpt lat="63.825420380" lon="-19.213764191">
<ele>564.640625</ele>
<time>2012-07-25T18:59:55Z</time>
<speed>0.720000</speed>
<extensions>
<speed>0.7</speed>
<temp>0.00</temp>
<bpm>0</bpm>
<rpm>0.00</rpm>
</extensions>
</trkpt>
<trkpt lat="63.825443268" lon="-19.213745117">
<ele>565.015625</ele>
<time>2012-07-25T19:00:00Z</time>
<speed>0.140000</speed>
<extensions>
<speed>0.1</speed>
<temp>0.00</temp>
<bpm>0</bpm>
<rpm>0.00</rpm>
</extensions>
</trkpt>
<trkpt lat="63.825462341" lon="-19.213764191">
<ele>565.578125</ele>
<time>2012-07-25T19:00:05Z</time>
<speed>0.030000</speed>
<extensions>
<speed>0.0</speed>
<temp>0.00</temp>
<bpm>0</bpm>
<rpm>0.00</rpm>
</extensions>
</trkpt>
<trkpt lat="63.825466156" lon="-19.213764191">
<ele>565.781250</ele>
<time>2012-07-25T19:00:10Z</time>
<speed>0.250000</speed>
<extensions>
<speed>0.2</speed>
<temp>0.00</temp>
<bpm>0</bpm>
<rpm>0.00</rpm>
</extensions>
</trkpt>
<trkpt lat="63.825466156" lon="-19.213758469">
<ele>564.250000</ele>
<time>2012-07-25T19:00:15Z</time>
<speed>0.070000</speed>
<extensions>
<speed>0.1</speed>
<temp>0.00</temp>
<bpm>0</bpm>
<rpm>0.00</rpm>
</extensions>
</trkpt>
<trkpt lat="63.825462341" lon="-19.213756561">
<ele>563.843750</ele>
<time>2012-07-25T19:00:20Z</time>
<speed>0.200000</speed>
<extensions>
<speed>0.2</speed>
<temp>0.00</temp>
<bpm>0</bpm>
<rpm>0.00</rpm>
</extensions>
</trkpt>
<trkpt lat="63.825466156" lon="-19.213737488">
<ele>563.171875</ele>
<time>2012-07-25T19:00:25Z</time>
<speed>0.050000</speed>
<extensions>
<speed>0.1</speed>
<temp>0.00</temp>
<bpm>0</bpm>
<rpm>0.00</rpm>
</extensions>
</trkpt>
<trkpt lat="63.825466156" lon="-19.213733673">
<ele>563.078125</ele>
<time>2012-07-25T19:00:30Z</time>
<speed>0.100000</speed>
<extensions>
<speed>0.1</speed>
<temp>0.00</temp>
<bpm>0</bpm>
<rpm>0.00</rpm>
</extensions>
</trkpt>
<trkpt lat="63.825466156" lon="-19.213748932">
<ele>563.015625</ele>
<time>2012-07-25T19:00:35Z</time>
<speed>0.050000</speed>
<extensions>
<speed>0.1</speed>
<temp>0.00</temp>
<bpm>0</bpm>
<rpm>0.00</rpm>
</extensions>
</trkpt>
<trkpt lat="63.825458527" lon="-19.213718414">
<ele>562.828125</ele>
<time>2012-07-25T19:00:40Z</time>
<speed>0.710000</speed>
<extensions>
<speed>0.7</speed>
<temp>0.00</temp>
<bpm>0</bpm>
<rpm>0.00</rpm>
</extensions>
</trkpt>
<trkpt lat="63.825408936" lon="-19.213665009">
<ele>562.687500</ele>
<time>2012-07-25T19:00:45Z</time>
<speed>1.180000</speed>
<extensions>
<speed>1.2</speed>
<temp>0.00</temp>
<bpm>0</bpm>
<rpm>0.00</rpm>
</extensions>
</trkpt>
<trkpt lat="63.825366974" lon="-19.213621140">
<ele>562.515625</ele>
<time>2012-07-25T19:00:50Z</time>
<speed>0.060000</speed>
<extensions>
<speed>0.1</speed>
<temp>0.00</temp>
<bpm>0</bpm>
<rpm>0.00</rpm>
</extensions>
</trkpt>
<trkpt lat="63.825351715" lon="-19.213541031">
<ele>562.296875</ele>
<time>2012-07-25T19:00:55Z</time>
<speed>1.790000</speed>
<extensions>
<speed>1.8</speed>
<temp>0.00</temp>
<bpm>0</bpm>
<rpm>0.00</rpm>
</extensions>
</trkpt>
<trkpt lat="63.825336456" lon="-19.213403702">
<ele>563.093750</ele>
<time>2012-07-25T19:01:00Z</time>
<speed>0.380000</speed>
<extensions>
<speed>0.4</speed>
<temp>0.00</temp>
<bpm>0</bpm>
<rpm>0.00</rpm>
</extensions>
</trkpt>
<trkpt lat="63.825336456" lon="-19.213386536">
<ele>563.406250</ele>
<time>2012-07-25T19:01:05Z</time>
<speed>0.490000</speed>
<extensions>
<speed>0.5</speed>
<temp>0.00</temp>
<bpm>0</bpm>
<rpm>0.00</rpm>
</extensions>
</trkpt>
<trkpt lat="63.825332642" lon="-19.213367462">
<ele>562.609375</ele>
<time>2012-07-25T19:01:10Z</time>
<extensions>
<speed>0.0</speed>
<temp>0.00</temp>
<bpm>0</bpm>
<rpm>0.00</rpm>
</extensions>
</trkpt>
<trkpt lat="63.825347900" lon="-19.213460922">
<ele>563.765625</ele>
<time>2012-07-25T19:01:15Z</time>
<speed>1.180000</speed>
<extensions>
<speed>1.2</speed>
<temp>0.00</temp>
<bpm>0</bpm>
<rpm>0.00</rpm>
</extensions>
</trkpt>
<trkpt lat="63.825374603" lon="-19.213588715">
<ele>565.093750</ele>
<time>2012-07-25T19:01:20Z</time>
<speed>1.460000</speed>
<extensions>
<speed>1.5</speed>
<temp>0.00</temp>
<bpm>0</bpm>
<rpm>0.00</rpm>
</extensions>
</trkpt>
<trkpt lat="63.825408936" lon="-19.213727951">
<ele>566.468750</ele>
<time>2012-07-25T19:01:25Z</time>
<speed>1.170000</speed>
<extensions>
<speed>1.2</speed>
<temp>0.00</temp>
<bpm>0</bpm>
<rpm>0.00</rpm>
</extensions>
</trkpt>
<trkpt lat="63.825466156" lon="-19.213790894">
<ele>567.875000</ele>
<time>2012-07-25T19:01:30Z</time>
<speed>0.530000</speed>
<extensions>
<speed>0.5</speed>
<temp>0.00</temp>
<bpm>0</bpm>
<rpm>0.00</rpm>
</extensions>
</trkpt>
<trkpt lat="63.825473785" lon="-19.213796616">
<ele>567.718750</ele>
<time>2012-07-25T19:01:35Z</time>
<speed>0.040000</speed>
<extensions>
<speed>0.0</speed>
<temp>0.00</temp>
<bpm>0</bpm>
<rpm>0.00</rpm>
</extensions>
</trkpt>
<trkpt lat="63.825473785" lon="-19.213794708">
<ele>567.890625</ele>
<time>2012-07-25T19:01:40Z</time>
<speed>0.050000</speed>
<extensions>
<speed>0.1</speed>
<temp>0.00</temp>
<bpm>0</bpm>
<rpm>0.00</rpm>
</extensions>
</trkpt>
<trkpt lat="63.825477600" lon="-19.213792801">
<ele>567.953125</ele>
<time>2012-07-25T19:01:45Z</time>
<speed>0.030000</speed>
<extensions>
<speed>0.0</speed>
<temp>0.00</temp>
<bpm>0</bpm>
<rpm>0.00</rpm>
</extensions>
</trkpt>
<trkpt lat="63.825481415" lon="-19.213790894">
<ele>567.828125</ele>
<time>2012-07-25T19:01:50Z</time>
<speed>0.060000</speed>
<extensions>
<speed>0.1</speed>
<temp>0.00</temp>
<bpm>0</bpm>
<rpm>0.00</rpm>
</extensions>
</trkpt>
<trkpt lat="63.825477600" lon="-19.213788986">
<ele>567.781250</ele>
<time>2012-07-25T19:01:55Z</time>
<speed>0.020000</speed>
<extensions>
<speed>0.0</speed>
<temp>0.00</temp>
<bpm>0</bpm>
<rpm>0.00</rpm>
</extensions>
</trkpt>
<trkpt lat="63.825489044" lon="-19.213766098">
<ele>567.984375</ele>
<time>2012-07-25T19:02:00Z</time>
<speed>0.430000</speed>
<extensions>
<speed>0.4</speed>
<temp>0.00</temp>
<bpm>0</bpm>
<rpm>0.00</rpm>
</extensions>
</trkpt>
<trkpt lat="63.825527191" lon="-19.213701248">
<ele>568.437500</ele>
<time>2012-07-25T19:02:05Z</time>
<speed>1.020000</speed>
<extensions>
<speed>1.0</speed>
<temp>0.00</temp>
<bpm>0</bpm>
<rpm>0.00</rpm>
</extensions>
</trkpt>
<trkpt lat="63.825576782" lon="-19.213632584">
<ele>568.015625</ele>
<time>2012-07-25T19:02:10Z</time>
<speed>0.870000</speed>
<extensions>
<speed>0.9</speed>
<temp>0.00</temp>
<bpm>0</bpm>
<rpm>0.00</rpm>
</extensions>
</trkpt>
<trkpt lat="63.825599670" lon="-19.213571548">
<ele>567.328125</ele>
<time>2012-07-25T19:02:15Z</time>
<speed>0.570000</speed>
<extensions>
<speed>0.6</speed>
<temp>0.00</temp>
<bpm>0</bpm>
<rpm>0.00</rpm>
</extensions>
</trkpt>
<trkpt lat="63.825630188" lon="-19.213542938">
<ele>566.796875</ele>
<time>2012-07-25T19:02:20Z</time>
<speed>0.650000</speed>
<extensions>
<speed>0.6</speed>
<temp>0.00</temp>
<bpm>0</bpm>
<rpm>0.00</rpm>
</extensions>
</trkpt>
<trkpt lat="63.825626373" lon="-19.213546753">
<ele>566.296875</ele>
<time>2012-07-25T19:02:25Z</time>
<speed>0.190000</speed>
<extensions>
<speed>0.2</speed>
<temp>0.00</temp>
<bpm>0</bpm>
<rpm>0.00</rpm>
</extensions>
</trkpt>
<trkpt lat="63.825622559" lon="-19.213556290">
<ele>566.062500</ele>
<time>2012-07-25T19:02:30Z</time>
<speed>0.460000</speed>
<extensions>
<speed>0.5</speed>
<temp>0.00</temp>
<bpm>0</bpm>
<rpm>0.00</rpm>
</extensions>
</trkpt>
<trkpt lat="63.825599670" lon="-19.213581085">
<ele>566.125000</ele>
<time>2012-07-25T19:02:35Z</time>
<speed>1.010000</speed>
<extensions>
<speed>1.0</speed>
<temp>0.00</temp>
<bpm>0</bpm>
<rpm>0.00</rpm>
</extensions>
</trkpt>
<trkpt lat="63.825561523" lon="-19.213638306">
<ele>565.640625</ele>
<time>2012-07-25T19:02:40Z</time>
<speed>0.680000</speed>
<extensions>
<speed>0.7</speed>
<temp>0.00</temp>
<bpm>0</bpm>
<rpm>0.00</rpm>
</extensions>
</trkpt>
<trkpt lat="63.825557709" lon="-19.213665009">
<ele>565.468750</ele>
<time>2012-07-25T19:02:45Z</time>
<speed>0.050000</speed>
<extensions>
<speed>0.1</speed>
<temp>0.00</temp>
<bpm>0</bpm>
<rpm>0.00</rpm>
</extensions>
</trkpt>
<trkpt lat="63.825550079" lon="-19.213670731">
<ele>564.859375</ele>
<time>2012-07-25T19:02:50Z</time>
<speed>0.280000</speed>
<extensions>
<speed>0.3</speed>
<temp>0.00</temp>
<bpm>0</bpm>
<rpm>0.00</rpm>
</extensions>
</trkpt>
<trkpt lat="63.825550079" lon="-19.213651657">
<ele>564.671875</ele>
<time>2012-07-25T19:02:55Z</time>
<extensions>
<speed>0.0</speed>
<temp>0.00</temp>
<bpm>0</bpm>
<rpm>0.00</rpm>
</extensions>
</trkpt>
<trkpt lat="63.825565338" lon="-19.213628769">
<ele>564.015625</ele>
<time>2012-07-25T19:03:00Z</time>
<speed>1.110000</speed>
<extensions>
<speed>1.1</speed>
<temp>0.00</temp>
<bpm>0</bpm>
<rpm>0.00</rpm>
</extensions>
</trkpt>
<trkpt lat="63.825607300" lon="-19.213582993">
<ele>563.484375</ele>
<time>2012-07-25T19:03:05Z</time>
<speed>0.460000</speed>
<extensions>
<speed>0.5</speed>
<temp>0.00</temp>
<bpm>0</bpm>
<rpm>0.00</rpm>
</extensions>
</trkpt>
<trkpt lat="63.825611115" lon="-19.213577271">
<ele>564.265625</ele>
<time>2012-07-25T19:03:10Z</time>
<speed>0.060000</speed>
<extensions>
<speed>0.1</speed>
<temp>0.00</temp>
<bpm>0</bpm>
<rpm>0.00</rpm>
</extensions>
</trkpt>
<trkpt lat="63.825607300" lon="-19.213586807">
<ele>564.078125</ele>
<time>2012-07-25T19:03:15Z</time>
<speed>0.280000</speed>
<extensions>
<speed>0.3</speed>
<temp>0.00</temp>
<bpm>0</bpm>
<rpm>0.00</rpm>
</extensions>
</trkpt>
<trkpt lat="63.825603485" lon="-19.213588715">
<ele>564.187500</ele>
<time>2012-07-25T19:03:20Z</time>
<speed>0.080000</speed>
<extensions>
<speed>0.1</speed>
<temp>0.00</temp>
<bpm>0</bpm>
<rpm>0.00</rpm>
</extensions>
</trkpt>
<trkpt lat="63.825603485" lon="-19.213592529">
<ele>564.109375</ele>
<time>2012-07-25T19:03:25Z</time>
<speed>0.020000</speed>
<extensions>
<speed>0.0</speed>
<temp>0.00</temp>
<bpm>0</bpm>
<rpm>0.00</rpm>
</extensions>
</trkpt>
<trkpt lat="63.825603485" lon="-19.213594437">
<ele>563.937500</ele>
<time>2012-07-25T19:03:30Z</time>
<speed>0.030000</speed>
<extensions>
<speed>0.0</speed>
<temp>0.00</temp>
<bpm>0</bpm>
<rpm>0.00</rpm>
</extensions>
</trkpt>
<trkpt lat="63.825611115" lon="-19.213579178">
<ele>563.531250</ele>
<time>2012-07-25T19:03:35Z</time>
<speed>0.090000</speed>
<extensions>
<speed>0.1</speed>
<temp>0.00</temp>
<bpm>0</bpm>
<rpm>0.00</rpm>
</extensions>
</trkpt>
<trkpt lat="63.825614929" lon="-19.213565826">
<ele>564.234375</ele>
<time>2012-07-25T19:03:40Z</time>
<speed>0.140000</speed>
<extensions>
<speed>0.1</speed>
<temp>0.00</temp>
<bpm>0</bpm>
<rpm>0.00</rpm>
</extensions>
</trkpt>
<trkpt lat="63.825622559" lon="-19.213567734">
<ele>564.187500</ele>
<time>2012-07-25T19:03:45Z</time>
<speed>0.230000</speed>
<extensions>
<speed>0.2</speed>
<temp>0.00</temp>
<bpm>0</bpm>
<rpm>0.00</rpm>
</extensions>
</trkpt>
<trkpt lat="63.825622559" lon="-19.213579178">
<ele>564.140625</ele>
<time>2012-07-25T19:03:50Z</time>
<speed>0.230000</speed>
<extensions>
<speed>0.2</speed>
<temp>0.00</temp>
<bpm>0</bpm>
<rpm>0.00</rpm>
</extensions>
</trkpt>
<trkpt lat="63.825637817" lon="-19.213571548">
<ele>563.468750</ele>
<time>2012-07-25T19:03:55Z</time>
<speed>0.630000</speed>
<extensions>
<speed>0.6</speed>
<temp>0.00</temp>
<bpm>0</bpm>
<rpm>0.00</rpm>
</extensions>
</trkpt>
<trkpt lat="63.825683594" lon="-19.213527679">
<ele>563.187500</ele>
<time>2012-07-25T19:04:00Z</time>
<speed>0.680000</speed>
<extensions>
<speed>0.7</speed>
<temp>0.00</temp>
<bpm>0</bpm>
<rpm>0.00</rpm>
</extensions>
</trkpt>
<trkpt lat="63.825714111" lon="-19.213457108">
<ele>561.921875</ele>
<time>2012-07-25T19:04:05Z</time>
<speed>0.130000</speed>
<extensions>
<speed>0.1</speed>
<temp>0.00</temp>
<bpm>0</bpm>
<rpm>0.00</rpm>
</extensions>
</trkpt>
<trkpt lat="63.825725555" lon="-19.213436127">
<ele>561.953125</ele>
<time>2012-07-25T19:04:10Z</time>
<speed>0.440000</speed>
<extensions>
<speed>0.4</speed>
<temp>0.00</temp>
<bpm>0</bpm>
<rpm>0.00</rpm>
</extensions>
</trkpt>
<trkpt lat="63.825744629" lon="-19.213418961">
<ele>563.000000</ele>
<time>2012-07-25T19:04:15Z</time>
<speed>0.480000</speed>
<extensions>
<speed>0.5</speed>
<temp>0.00</temp>
<bpm>0</bpm>
<rpm>0.00</rpm>
</extensions>
</trkpt>
<trkpt lat="63.825778961" lon="-19.213378906">
<ele>562.390625</ele>
<time>2012-07-25T19:04:20Z</time>
<speed>0.540000</speed>
<extensions>
<speed>0.5</speed>
<temp>0.00</temp>
<bpm>0</bpm>
<rpm>0.00</rpm>
</extensions>
</trkpt>
<trkpt lat="63.825798035" lon="-19.213331223">
<ele>562.812500</ele>
<time>2012-07-25T19:04:25Z</time>
<speed>0.810000</speed>
<extensions>
<speed>0.8</speed>
<temp>0.00</temp>
<bpm>0</bpm>
<rpm>0.00</rpm>
</extensions>
</trkpt>
<trkpt lat="63.825794220" lon="-19.213329315">
<ele>562.343750</ele>
<time>2012-07-25T19:04:30Z</time>
<speed>0.180000</speed>
<extensions>
<speed>0.2</speed>
<temp>0.00</temp>
<bpm>0</bpm>
<rpm>0.00</rpm>
</extensions>
</trkpt>
<trkpt lat="63.825794220" lon="-19.213329315">
<ele>562.250000</ele>
<time>2012-07-25T19:04:35Z</time>
<speed>0.340000</speed>
<extensions>
<speed>0.3</speed>
<temp>0.00</temp>
<bpm>0</bpm>
<rpm>0.00</rpm>
</extensions>
</trkpt>
<trkpt lat="63.825805664" lon="-19.213315964">
<ele>561.625000</ele>
<time>2012-07-25T19:04:40Z</time>
<speed>0.100000</speed>
<extensions>
<speed>0.1</speed>
<temp>0.00</temp>
<bpm>0</bpm>
<rpm>0.00</rpm>
</extensions>
</trkpt>
<trkpt lat="63.825820923" lon="-19.213294983">
<ele>561.312500</ele>
<time>2012-07-25T19:04:45Z</time>
<speed>0.320000</speed>
<extensions>
<speed>0.3</speed>
<temp>0.00</temp>
<bpm>0</bpm>
<rpm>0.00</rpm>
</extensions>
</trkpt>
<trkpt lat="63.825824738" lon="-19.213281631">
<ele>561.437500</ele>
<time>2012-07-25T19:04:50Z</time>
<speed>0.300000</speed>
<extensions>
<speed>0.3</speed>
<temp>0.00</temp>
<bpm>0</bpm>
<rpm>0.00</rpm>
</extensions>
</trkpt>
<trkpt lat="63.825836182" lon="-19.213228226">
<ele>562.125000</ele>
<time>2012-07-25T19:04:55Z</time>
<speed>0.890000</speed>
<extensions>
<speed>0.9</speed>
<temp>0.00</temp>
<bpm>0</bpm>
<rpm>0.00</rpm>
</extensions>
</trkpt>
<trkpt lat="63.825832367" lon="-19.213123322">
<ele>563.218750</ele>
<time>2012-07-25T19:05:00Z</time>
<speed>0.780000</speed>
<extensions>
<speed>0.8</speed>
<temp>0.00</temp>
<bpm>0</bpm>
<rpm>0.00</rpm>
</extensions>
</trkpt>
<trkpt lat="63.825859070" lon="-19.213100433">
<ele>563.937500</ele>
<time>2012-07-25T19:05:05Z</time>
<speed>0.700000</speed>
<extensions>
<speed>0.7</speed>
<temp>0.00</temp>
<bpm>0</bpm>
<rpm>0.00</rpm>
</extensions>
</trkpt>
<trkpt lat="63.825885773" lon="-19.213130951">
<ele>563.687500</ele>
<time>2012-07-25T19:05:10Z</time>
<speed>0.650000</speed>
<extensions>
<speed>0.6</speed>
<temp>0.00</temp>
<bpm>0</bpm>
<rpm>0.00</rpm>
</extensions>
</trkpt>
<trkpt lat="63.825885773" lon="-19.213130951">
<ele>563.328125</ele>
<time>2012-07-25T19:05:15Z</time>
<speed>0.320000</speed>
<extensions>
<speed>0.3</speed>
<temp>0.00</temp>
<bpm>0</bpm>
<rpm>0.00</rpm>
</extensions>
</trkpt>
<trkpt lat="63.825912476" lon="-19.213167191">
<ele>559.937500</ele>
<time>2012-07-25T19:05:20Z</time>
<speed>0.930000</speed>
<extensions>
<speed>0.9</speed>
<temp>0.00</temp>
<bpm>0</bpm>
<rpm>0.00</rpm>
</extensions>
</trkpt>
<trkpt lat="63.825954437" lon="-19.213193893">
<ele>559.578125</ele>
<time>2012-07-25T19:05:25Z</time>
<speed>0.780000</speed>
<extensions>
<speed>0.8</speed>
<temp>0.00</temp>
<bpm>0</bpm>
<rpm>0.00</rpm>
</extensions>
</trkpt>
<trkpt lat="63.825981140" lon="-19.213230133">
<ele>560.421875</ele>
<time>2012-07-25T19:05:30Z</time>
<speed>0.210000</speed>
<extensions>
<speed>0.2</speed>
<temp>0.00</temp>
<bpm>0</bpm>
<rpm>0.00</rpm>
</extensions>
</trkpt>
<trkpt lat="63.826004028" lon="-19.213258743">
<ele>560.515625</ele>
<time>2012-07-25T19:05:35Z</time>
<speed>0.900000</speed>
<extensions>
<speed>0.9</speed>
<temp>0.00</temp>
<bpm>0</bpm>
<rpm>0.00</rpm>
</extensions>
</trkpt>
<trkpt lat="63.826049805" lon="-19.213321686">
<ele>560.843750</ele>
<time>2012-07-25T19:05:40Z</time>
<speed>1.070000</speed>
<extensions>
<speed>1.1</speed>
<temp>0.00</temp>
<bpm>0</bpm>
<rpm>0.00</rpm>
</extensions>
</trkpt>
<trkpt lat="63.826084137" lon="-19.213371277">
<ele>560.718750</ele>
<time>2012-07-25T19:05:45Z</time>
<speed>0.550000</speed>
<extensions>
<speed>0.6</speed>
<temp>0.00</temp>
<bpm>0</bpm>
<rpm>0.00</rpm>
</extensions>
</trkpt>
<trkpt lat="63.826118469" lon="-19.213447571">
<ele>560.328125</ele>
<time>2012-07-25T19:05:50Z</time>
<speed>1.040000</speed>
<extensions>
<speed>1.0</speed>
<temp>0.00</temp>
<bpm>0</bpm>
<rpm>0.00</rpm>
</extensions>
</trkpt>
<trkpt lat="63.826152802" lon="-19.213518143">
<ele>560.156250</ele>
<time>2012-07-25T19:05:55Z</time>
<speed>1.090000</speed>
<extensions>
<speed>1.1</speed>
<temp>0.00</temp>
<bpm>0</bpm>
<rpm>0.00</rpm>
</extensions>
</trkpt>
<trkpt lat="63.826190948" lon="-19.213584900">
<ele>560.359375</ele>
<time>2012-07-25T19:06:00Z</time>
<speed>1.130000</speed>
<extensions>
<speed>1.1</speed>
<temp>0.00</temp>
<bpm>0</bpm>
<rpm>0.00</rpm>
</extensions>
</trkpt>
<trkpt lat="63.826236725" lon="-19.213634491">
<ele>559.171875</ele>
<time>2012-07-25T19:06:05Z</time>
<speed>0.700000</speed>
<extensions>
<speed>0.7</speed>
<temp>0.00</temp>
<bpm>0</bpm>
<rpm>0.00</rpm>
</extensions>
</trkpt>
<trkpt lat="63.826248169" lon="-19.213670731">
<ele>558.718750</ele>
<time>2012-07-25T19:06:10Z</time>
<speed>0.330000</speed>
<extensions>
<speed>0.3</speed>
<temp>0.00</temp>
<bpm>0</bpm>
<rpm>0.00</rpm>
</extensions>
</trkpt>
<trkpt lat="63.826255798" lon="-19.213644028">
<ele>558.328125</ele>
<time>2012-07-25T19:06:15Z</time>
<speed>0.600000</speed>
<extensions>
<speed>0.6</speed>
<temp>0.00</temp>
<bpm>0</bpm>
<rpm>0.00</rpm>
</extensions>
</trkpt>
<trkpt lat="63.826255798" lon="-19.213603973">
<ele>562.046875</ele>
<time>2012-07-25T19:06:20Z</time>
<speed>0.030000</speed>
<extensions>
<speed>0.0</speed>
<temp>0.00</temp>
<bpm>0</bpm>
<rpm>0.00</rpm>
</extensions>
</trkpt>
<trkpt lat="63.826255798" lon="-19.213600159">
<ele>562.390625</ele>
<time>2012-07-25T19:06:25Z</time>
<speed>0.010000</speed>
<extensions>
<speed>0.0</speed>
<temp>0.00</temp>
<bpm>0</bpm>
<rpm>0.00</rpm>
</extensions>
</trkpt>
<trkpt lat="63.826255798" lon="-19.213600159">
<ele>562.421875</ele>
<time>2012-07-25T19:06:30Z</time>
<speed>0.030000</speed>
<extensions>
<speed>0.0</speed>
<temp>0.00</temp>
<bpm>0</bpm>
<rpm>0.00</rpm>
</extensions>
</trkpt>
<trkpt lat="63.826255798" lon="-19.213600159">
<ele>562.437500</ele>
<time>2012-07-25T19:06:35Z</time>
<speed>0.040000</speed>
<extensions>
<speed>0.0</speed>
<temp>0.00</temp>
<bpm>0</bpm>
<rpm>0.00</rpm>
</extensions>
</trkpt>
<trkpt lat="63.826255798" lon="-19.213603973">
<ele>562.312500</ele>
<time>2012-07-25T19:06:40Z</time>
<speed>0.140000</speed>
<extensions>
<speed>0.1</speed>
<temp>0.00</temp>
<bpm>0</bpm>
<rpm>0.00</rpm>
</extensions>
</trkpt>
<trkpt lat="63.826255798" lon="-19.213575363">
<ele>561.515625</ele>
<time>2012-07-25T19:06:45Z</time>
<speed>0.160000</speed>
<extensions>
<speed>0.2</speed>
<temp>0.00</temp>
<bpm>0</bpm>
<rpm>0.00</rpm>
</extensions>
</trkpt>
<trkpt lat="63.826263428" lon="-19.213590622">
<ele>562.546875</ele>
<time>2012-07-25T19:06:50Z</time>
<speed>0.100000</speed>
<extensions>
<speed>0.1</speed>
<temp>0.00</temp>
<bpm>0</bpm>
<rpm>0.00</rpm>
</extensions>
</trkpt>
<trkpt lat="63.826286316" lon="-19.213563919">
<ele>562.250000</ele>
<time>2012-07-25T19:06:55Z</time>
<speed>0.440000</speed>
<extensions>
<speed>0.4</speed>
<temp>0.00</temp>
<bpm>0</bpm>
<rpm>0.00</rpm>
</extensions>
</trkpt>
<trkpt lat="63.826293945" lon="-19.213565826">
<ele>562.437500</ele>
<time>2012-07-25T19:07:00Z</time>
<speed>0.030000</speed>
<extensions>
<speed>0.0</speed>
<temp>0.00</temp>
<bpm>0</bpm>
<rpm>0.00</rpm>
</extensions>
</trkpt>
<trkpt lat="63.826293945" lon="-19.213567734">
<ele>562.359375</ele>
<time>2012-07-25T19:07:05Z</time>
<speed>0.150000</speed>
<extensions>
<speed>0.2</speed>
<temp>0.00</temp>
<bpm>0</bpm>
<rpm>0.00</rpm>
</extensions>
</trkpt>
<trkpt lat="63.826309204" lon="-19.213518143">
<ele>561.281250</ele>
<time>2012-07-25T19:07:10Z</time>
<speed>0.910000</speed>
<extensions>
<speed>0.9</speed>
<temp>0.00</temp>
<bpm>0</bpm>
<rpm>0.00</rpm>
</extensions>
</trkpt>
<trkpt lat="63.826354980" lon="-19.213352203">
<ele>559.203125</ele>
<time>2012-07-25T19:07:15Z</time>
<speed>2.060000</speed>
<extensions>
<speed>2.1</speed>
<temp>0.00</temp>
<bpm>0</bpm>
<rpm>0.00</rpm>
</extensions>
</trkpt>
<trkpt lat="63.826431274" lon="-19.213172913">
<ele>559.968750</ele>
<time>2012-07-25T19:07:20Z</time>
<speed>2.240000</speed>
<extensions>
<speed>2.2</speed>
<temp>0.00</temp>
<bpm>0</bpm>
<rpm>0.00</rpm>
</extensions>
</trkpt>
<trkpt lat="63.826496124" lon="-19.212966919">
<ele>559.578125</ele>
<time>2012-07-25T19:07:25Z</time>
<speed>2.410000</speed>
<extensions>
<speed>2.4</speed>
<temp>0.00</temp>
<bpm>0</bpm>
<rpm>0.00</rpm>
</extensions>
</trkpt>
<trkpt lat="63.826568604" lon="-19.212715149">
<ele>560.546875</ele>
<time>2012-07-25T19:07:30Z</time>
<speed>3.110000</speed>
<extensions>
<speed>3.1</speed>
<temp>0.00</temp>
<bpm>0</bpm>
<rpm>0.00</rpm>
</extensions>
</trkpt>
<trkpt lat="63.826625824" lon="-19.212444305">
<ele>561.000000</ele>
<time>2012-07-25T19:07:35Z</time>
<speed>2.780000</speed>
<extensions>
<speed>2.8</speed>
<temp>0.00</temp>
<bpm>0</bpm>
<rpm>0.00</rpm>
</extensions>
</trkpt>
<trkpt lat="63.826690674" lon="-19.212194443">
<ele>560.203125</ele>
<time>2012-07-25T19:07:40Z</time>
<speed>2.940000</speed>
<extensions>
<speed>2.9</speed>
<temp>0.00</temp>
<bpm>0</bpm>
<rpm>0.00</rpm>
</extensions>
</trkpt>
<trkpt lat="63.826778412" lon="-19.211965561">
<ele>560.421875</ele>
<time>2012-07-25T19:07:45Z</time>
<speed>2.630000</speed>
<extensions>
<speed>2.6</speed>
<temp>0.00</temp>
<bpm>0</bpm>
<rpm>0.00</rpm>
</extensions>
</trkpt>
<trkpt lat="63.826869965" lon="-19.211769104">
<ele>560.812500</ele>
<time>2012-07-25T19:07:50Z</time>
<speed>3.040000</speed>
<extensions>
<speed>3.0</speed>
<temp>0.00</temp>
<bpm>0</bpm>
<rpm>0.00</rpm>
</extensions>
</trkpt>
<trkpt lat="63.826980591" lon="-19.211503983">
<ele>560.406250</ele>
<time>2012-07-25T19:07:55Z</time>
<speed>3.880000</speed>
<extensions>
<speed>3.9</speed>
<temp>0.00</temp>
<bpm>0</bpm>
<rpm>0.00</rpm>
</extensions>
</trkpt>
<trkpt lat="63.827106476" lon="-19.211200714">
<ele>564.937500</ele>
<time>2012-07-25T19:08:00Z</time>
<speed>3.690000</speed>
<extensions>
<speed>3.7</speed>
<temp>0.00</temp>
<bpm>0</bpm>
<rpm>0.00</rpm>
</extensions>
</trkpt>
<trkpt lat="63.827209473" lon="-19.210945129">
<ele>565.031250</ele>
<time>2012-07-25T19:08:05Z</time>
<speed>3.470000</speed>
<extensions>
<speed>3.5</speed>
<temp>0.00</temp>
<bpm>0</bpm>
<rpm>0.00</rpm>
</extensions>
</trkpt>
<trkpt lat="63.827320099" lon="-19.210735321">
<ele>564.546875</ele>
<time>2012-07-25T19:08:10Z</time>
<speed>3.290000</speed>
<extensions>
<speed>3.3</speed>
<temp>0.00</temp>
<bpm>0</bpm>
<rpm>0.00</rpm>
</extensions>
</trkpt>
<trkpt lat="63.827445984" lon="-19.210517883">
<ele>565.531250</ele>
<time>2012-07-25T19:08:15Z</time>
<speed>3.650000</speed>
<extensions>
<speed>3.7</speed>
<temp>0.00</temp>
<bpm>0</bpm>
<rpm>0.00</rpm>
</extensions>
</trkpt>
<trkpt lat="63.827560425" lon="-19.210313797">
<ele>565.812500</ele>
<time>2012-07-25T19:08:20Z</time>
<speed>2.580000</speed>
<extensions>
<speed>2.6</speed>
<temp>0.00</temp>
<bpm>0</bpm>
<rpm>0.00</rpm>
</extensions>
</trkpt>
<trkpt lat="63.827651978" lon="-19.210098267">
<ele>566.218750</ele>
<time>2012-07-25T19:08:25Z</time>
<speed>3.150000</speed>
<extensions>
<speed>3.2</speed>
<temp>0.00</temp>
<bpm>0</bpm>
<rpm>0.00</rpm>
</extensions>
</trkpt>
<trkpt lat="63.827728271" lon="-19.209854126">
<ele>568.296875</ele>
<time>2012-07-25T19:08:30Z</time>
<speed>2.490000</speed>
<extensions>
<speed>2.5</speed>
<temp>0.00</temp>
<bpm>0</bpm>
<rpm>0.00</rpm>
</extensions>
</trkpt>
<trkpt lat="63.827770233" lon="-19.209663391">
<ele>570.484375</ele>
<time>2012-07-25T19:08:35Z</time>
<speed>1.980000</speed>
<extensions>
<speed>2.0</speed>
<temp>0.00</temp>
<bpm>0</bpm>
<rpm>0.00</rpm>
</extensions>
</trkpt>
<trkpt lat="63.827800751" lon="-19.209503174">
<ele>570.156250</ele>
<time>2012-07-25T19:08:40Z</time>
<speed>2.210000</speed>
<extensions>
<speed>2.2</speed>
<temp>0.00</temp>
<bpm>0</bpm>
<rpm>0.00</rpm>
</extensions>
</trkpt>
<trkpt lat="63.827888489" lon="-19.209369659">
<ele>570.593750</ele>
<time>2012-07-25T19:08:45Z</time>
<speed>2.970000</speed>
<extensions>
<speed>3.0</speed>
<temp>0.00</temp>
<bpm>0</bpm>
<rpm>0.00</rpm>
</extensions>
</trkpt>
<trkpt lat="63.828014374" lon="-19.209228516">
<ele>571.703125</ele>
<time>2012-07-25T19:08:50Z</time>
<speed>2.980000</speed>
<extensions>
<speed>3.0</speed>
<temp>0.00</temp>
<bpm>0</bpm>
<rpm>0.00</rpm>
</extensions>
</trkpt>
<trkpt lat="63.828155518" lon="-19.209056854">
<ele>572.406250</ele>
<time>2012-07-25T19:08:55Z</time>
<speed>3.560000</speed>
<extensions>
<speed>3.6</speed>
<temp>0.00</temp>
<bpm>0</bpm>
<rpm>0.00</rpm>
</extensions>
</trkpt>
<trkpt lat="63.828258514" lon="-19.208791733">
<ele>571.750000</ele>
<time>2012-07-25T19:09:00Z</time>
<speed>3.360000</speed>
<extensions>
<speed>3.4</speed>
<temp>0.00</temp>
<bpm>0</bpm>
<rpm>0.00</rpm>
</extensions>
</trkpt>
<trkpt lat="63.828323364" lon="-19.208488464">
<ele>571.218750</ele>
<time>2012-07-25T19:09:05Z</time>
<speed>3.460000</speed>
<extensions>
<speed>3.5</speed>
<temp>0.00</temp>
<bpm>0</bpm>
<rpm>0.00</rpm>
</extensions>
</trkpt>
<trkpt lat="63.828384399" lon="-19.208133698">
<ele>570.437500</ele>
<time>2012-07-25T19:09:10Z</time>
<speed>3.840000</speed>
<extensions>
<speed>3.8</speed>
<temp>0.00</temp>
<bpm>0</bpm>
<rpm>0.00</rpm>
</extensions>
</trkpt>
<trkpt lat="63.828472137" lon="-19.207784653">
<ele>570.343750</ele>
<time>2012-07-25T19:09:15Z</time>
<speed>4.180000</speed>
<extensions>
<speed>4.2</speed>
<temp>0.00</temp>
<bpm>0</bpm>
<rpm>0.00</rpm>
</extensions>
</trkpt>
<trkpt lat="63.828613281" lon="-19.207485199">
<ele>570.640625</ele>
<time>2012-07-25T19:09:20Z</time>
<speed>4.140000</speed>
<extensions>
<speed>4.1</speed>
<temp>0.00</temp>
<bpm>0</bpm>
<rpm>0.00</rpm>
</extensions>
</trkpt>
<trkpt lat="63.828716278" lon="-19.207193375">
<ele>572.000000</ele>
<time>2012-07-25T19:09:25Z</time>
<speed>2.910000</speed>
<extensions>
<speed>2.9</speed>
<temp>0.00</temp>
<bpm>0</bpm>
<rpm>0.00</rpm>
</extensions>
</trkpt>
<trkpt lat="63.828754425" lon="-19.206916809">
<ele>572.640625</ele>
<time>2012-07-25T19:09:30Z</time>
<speed>2.580000</speed>
<extensions>
<speed>2.6</speed>
<temp>0.00</temp>
<bpm>0</bpm>
<rpm>0.00</rpm>
</extensions>
</trkpt>
<trkpt lat="63.828762054" lon="-19.206666946">
<ele>571.609375</ele>
<time>2012-07-25T19:09:35Z</time>
<speed>2.960000</speed>
<extensions>
<speed>3.0</speed>
<temp>0.00</temp>
<bpm>0</bpm>
<rpm>0.00</rpm>
</extensions>
</trkpt>
<trkpt lat="63.828742981" lon="-19.206350327">
<ele>571.609375</ele>
<time>2012-07-25T19:09:40Z</time>
<speed>4.100000</speed>
<extensions>
<speed>4.1</speed>
<temp>0.00</temp>
<bpm>0</bpm>
<rpm>0.00</rpm>
</extensions>
</trkpt>
<trkpt lat="63.828720093" lon="-19.206001282">
<ele>570.890625</ele>
<time>2012-07-25T19:09:45Z</time>
<speed>3.520000</speed>
<extensions>
<speed>3.5</speed>
<temp>0.00</temp>
<bpm>0</bpm>
<rpm>0.00</rpm>
</extensions>
</trkpt>
<trkpt lat="63.828674316" lon="-19.205619812">
<ele>569.781250</ele>
<time>2012-07-25T19:09:50Z</time>
<speed>4.170000</speed>
<extensions>
<speed>4.2</speed>
<temp>0.00</temp>
<bpm>0</bpm>
<rpm>0.00</rpm>
</extensions>
</trkpt>
<trkpt lat="63.828598022" lon="-19.205198288">
<ele>569.593750</ele>
<time>2012-07-25T19:09:55Z</time>
<speed>4.710000</speed>
<extensions>
<speed>4.7</speed>
<temp>0.00</temp>
<bpm>0</bpm>
<rpm>0.00</rpm>
</extensions>
</trkpt>
<trkpt lat="63.828548431" lon="-19.204782486">
<ele>570.859375</ele>
<time>2012-07-25T19:10:00Z</time>
<speed>4.430000</speed>
<extensions>
<speed>4.4</speed>
<temp>0.00</temp>
<bpm>0</bpm>
<rpm>0.00</rpm>
</extensions>
</trkpt>
<trkpt lat="63.828571320" lon="-19.204298019">
<ele>571.500000</ele>
<time>2012-07-25T19:10:05Z</time>
<speed>4.880000</speed>
<extensions>
<speed>4.9</speed>
<temp>0.00</temp>
<bpm>0</bpm>
<rpm>0.00</rpm>
</extensions>
</trkpt>
<trkpt lat="63.828693390" lon="-19.203910828">
<ele>571.796875</ele>
<time>2012-07-25T19:10:10Z</time>
<speed>4.550000</speed>
<extensions>
<speed>4.5</speed>
<temp>0.00</temp>
<bpm>0</bpm>
<rpm>0.00</rpm>
</extensions>
</trkpt>
<trkpt lat="63.828880310" lon="-19.203836441">
<ele>572.046875</ele>
<time>2012-07-25T19:10:15Z</time>
<speed>4.280000</speed>
<extensions>
<speed>4.3</speed>
<temp>0.00</temp>
<bpm>0</bpm>
<rpm>0.00</rpm>
</extensions>
</trkpt>
<trkpt lat="63.829063416" lon="-19.204149246">
<ele>573.578125</ele>
<time>2012-07-25T19:10:20Z</time>
<speed>5.040000</speed>
<extensions>
<speed>5.0</speed>
<temp>0.00</temp>
<bpm>0</bpm>
<rpm>0.00</rpm>
</extensions>
</trkpt>
<trkpt lat="63.829269409" lon="-19.204431534">
<ele>575.406250</ele>
<time>2012-07-25T19:10:25Z</time>
<speed>5.110000</speed>
<extensions>
<speed>5.1</speed>
<temp>0.00</temp>
<bpm>0</bpm>
<rpm>0.00</rpm>
</extensions>
</trkpt>
<trkpt lat="63.829475403" lon="-19.204685211">
<ele>576.468750</ele>
<time>2012-07-25T19:10:30Z</time>
<speed>5.040000</speed>
<extensions>
<speed>5.0</speed>
<temp>0.00</temp>
<bpm>0</bpm>
<rpm>0.00</rpm>
</extensions>
</trkpt>
<trkpt lat="63.829666138" lon="-19.204860687">
<ele>578.343750</ele>
<time>2012-07-25T19:10:35Z</time>
<speed>4.250000</speed>
<extensions>
<speed>4.3</speed>
<temp>0.00</temp>
<bpm>0</bpm>
<rpm>0.00</rpm>
</extensions>
</trkpt>
<trkpt lat="63.829853058" lon="-19.204872131">
<ele>579.031250</ele>
<time>2012-07-25T19:10:40Z</time>
<speed>4.620000</speed>
<extensions>
<speed>4.6</speed>
<temp>0.00</temp>
<bpm>0</bpm>
<rpm>0.00</rpm>
</extensions>
</trkpt>
<trkpt lat="63.830055237" lon="-19.204732895">
<ele>578.390625</ele>
<time>2012-07-25T19:10:45Z</time>
<speed>4.650000</speed>
<extensions>
<speed>4.6</speed>
<temp>0.00</temp>
<bpm>0</bpm>
<rpm>0.00</rpm>
</extensions>
</trkpt>
<trkpt lat="63.830215454" lon="-19.204511642">
<ele>573.203125</ele>
<time>2012-07-25T19:10:50Z</time>
<speed>4.210000</speed>
<extensions>
<speed>4.2</speed>
<temp>0.00</temp>
<bpm>0</bpm>
<rpm>0.00</rpm>
</extensions>
</trkpt>
<trkpt lat="63.830371857" lon="-19.204233170">
<ele>571.250000</ele>
<time>2012-07-25T19:10:55Z</time>
<speed>4.700000</speed>
<extensions>
<speed>4.7</speed>
<temp>0.00</temp>
<bpm>0</bpm>
<rpm>0.00</rpm>
</extensions>
</trkpt>
<trkpt lat="63.830513000" lon="-19.203886032">
<ele>571.406250</ele>
<time>2012-07-25T19:11:00Z</time>
<speed>4.540000</speed>
<extensions>
<speed>4.5</speed>
<temp>0.00</temp>
<bpm>0</bpm>
<rpm>0.00</rpm>
</extensions>
</trkpt>
<trkpt lat="63.830650330" lon="-19.203493118">
<ele>570.968750</ele>
<time>2012-07-25T19:11:05Z</time>
<speed>4.910000</speed>
<extensions>
<speed>4.9</speed>
<temp>0.00</temp>
<bpm>0</bpm>
<rpm>0.00</rpm>
</extensions>
</trkpt>
<trkpt lat="63.830799103" lon="-19.203111649">
<ele>570.734375</ele>
<time>2012-07-25T19:11:10Z</time>
<speed>4.820000</speed>
<extensions>
<speed>4.8</speed>
<temp>0.00</temp>
<bpm>0</bpm>
<rpm>0.00</rpm>
</extensions>
</trkpt>
<trkpt lat="63.830913544" lon="-19.202741623">
<ele>571.625000</ele>
<time>2012-07-25T19:11:15Z</time>
<speed>4.340000</speed>
<extensions>
<speed>4.3</speed>
<temp>0.00</temp>
<bpm>0</bpm>
<rpm>0.00</rpm>
</extensions>
</trkpt>
<trkpt lat="63.831005096" lon="-19.202362061">
<ele>573.546875</ele>
<time>2012-07-25T19:11:20Z</time>
<speed>4.230000</speed>
<extensions>
<speed>4.2</speed>
<temp>0.00</temp>
<bpm>0</bpm>
<rpm>0.00</rpm>
</extensions>
</trkpt>
<trkpt lat="63.831111908" lon="-19.202003479">
<ele>571.671875</ele>
<time>2012-07-25T19:11:25Z</time>
<speed>4.320000</speed>
<extensions>
<speed>4.3</speed>
<temp>0.00</temp>
<bpm>0</bpm>
<rpm>0.00</rpm>
</extensions>
</trkpt>
<trkpt lat="63.831226349" lon="-19.201663971">
<ele>569.296875</ele>
<time>2012-07-25T19:11:30Z</time>
<speed>4.290000</speed>
<extensions>
<speed>4.3</speed>
<temp>0.00</temp>
<bpm>0</bpm>
<rpm>0.00</rpm>
</extensions>
</trkpt>
<trkpt lat="63.831371307" lon="-19.201311111">
<ele>568.031250</ele>
<time>2012-07-25T19:11:35Z</time>
<speed>4.940000</speed>
<extensions>
<speed>4.9</speed>
<temp>0.00</temp>
<bpm>0</bpm>
<rpm>0.00</rpm>
</extensions>
</trkpt>
<trkpt lat="63.831539154" lon="-19.201047897">
<ele>566.890625</ele>
<time>2012-07-25T19:11:40Z</time>
<speed>3.880000</speed>
<extensions>
<speed>3.9</speed>
<temp>0.00</temp>
<bpm>0</bpm>
<rpm>0.00</rpm>
</extensions>
</trkpt>
<trkpt lat="63.831714630" lon="-19.201126099">
<ele>565.781250</ele>
<time>2012-07-25T19:11:45Z</time>
<speed>4.520000</speed>
<extensions>
<speed>4.5</speed>
<temp>0.00</temp>
<bpm>0</bpm>
<rpm>0.00</rpm>
</extensions>
</trkpt>
<trkpt lat="63.831890106" lon="-19.201436996">
<ele>565.203125</ele>
<time>2012-07-25T19:11:50Z</time>
<speed>5.490000</speed>
<extensions>
<speed>5.5</speed>
<temp>0.00</temp>
<bpm>0</bpm>
<rpm>0.00</rpm>
</extensions>
</trkpt>
<trkpt lat="63.832073212" lon="-19.201879501">
<ele>566.921875</ele>
<time>2012-07-25T19:11:55Z</time>
<speed>5.540000</speed>
<extensions>
<speed>5.5</speed>
<temp>0.00</temp>
<bpm>0</bpm>
<rpm>0.00</rpm>
</extensions>
</trkpt>
<trkpt lat="63.832229614" lon="-19.202318192">
<ele>570.125000</ele>
<time>2012-07-25T19:12:00Z</time>
<speed>4.860000</speed>
<extensions>
<speed>4.9</speed>
<temp>0.00</temp>
<bpm>0</bpm>
<rpm>0.00</rpm>
</extensions>
</trkpt>
<trkpt lat="63.832283020" lon="-19.202747345">
<ele>570.171875</ele>
<time>2012-07-25T19:12:05Z</time>
<speed>4.630000</speed>
<extensions>
<speed>4.6</speed>
<temp>0.00</temp>
<bpm>0</bpm>
<rpm>0.00</rpm>
</extensions>
</trkpt>
<trkpt lat="63.832321167" lon="-19.203214645">
<ele>569.687500</ele>
<time>2012-07-25T19:12:10Z</time>
<speed>4.640000</speed>
<extensions>
<speed>4.6</speed>
<temp>0.00</temp>
<bpm>0</bpm>
<rpm>0.00</rpm>
</extensions>
</trkpt>
<trkpt lat="63.832336426" lon="-19.203678131">
<ele>570.453125</ele>
<time>2012-07-25T19:12:15Z</time>
<speed>5.070000</speed>
<extensions>
<speed>5.1</speed>
<temp>0.00</temp>
<bpm>0</bpm>
<rpm>0.00</rpm>
</extensions>
</trkpt>
<trkpt lat="63.832344055" lon="-19.204141617">
<ele>571.500000</ele>
<time>2012-07-25T19:12:20Z</time>
<speed>4.060000</speed>
<extensions>
<speed>4.1</speed>
<temp>0.00</temp>
<bpm>0</bpm>
<rpm>0.00</rpm>
</extensions>
</trkpt>
<trkpt lat="63.832260132" lon="-19.204467773">
<ele>572.015625</ele>
<time>2012-07-25T19:12:25Z</time>
<speed>3.580000</speed>
<extensions>
<speed>3.6</speed>
<temp>0.00</temp>
<bpm>0</bpm>
<rpm>0.00</rpm>
</extensions>
</trkpt>
<trkpt lat="63.832164764" lon="-19.204721451">
<ele>570.375000</ele>
<time>2012-07-25T19:12:30Z</time>
<speed>3.900000</speed>
<extensions>
<speed>3.9</speed>
<temp>0.00</temp>
<bpm>0</bpm>
<rpm>0.00</rpm>
</extensions>
</trkpt>
<trkpt lat="63.832061768" lon="-19.204938889">
<ele>569.453125</ele>
<time>2012-07-25T19:12:35Z</time>
<speed>2.700000</speed>
<extensions>
<speed>2.7</speed>
<temp>0.00</temp>
<bpm>0</bpm>
<rpm>0.00</rpm>
</extensions>
</trkpt>
<trkpt lat="63.831985474" lon="-19.205095291">
<ele>567.562500</ele>
<time>2012-07-25T19:12:40Z</time>
<speed>2.010000</speed>
<extensions>
<speed>2.0</speed>
<temp>0.00</temp>
<bpm>0</bpm>
<rpm>0.00</rpm>
</extensions>
</trkpt>
<trkpt lat="63.831954956" lon="-19.205165863">
<ele>566.812500</ele>
<time>2012-07-25T19:12:45Z</time>
<speed>0.550000</speed>
<extensions>
<speed>0.6</speed>
<temp>0.00</temp>
<bpm>0</bpm>
<rpm>0.00</rpm>
</extensions>
</trkpt>
<trkpt lat="63.831958771" lon="-19.205198288">
<ele>566.890625</ele>
<time>2012-07-25T19:12:50Z</time>
<speed>0.130000</speed>
<extensions>
<speed>0.1</speed>
<temp>0.00</temp>
<bpm>0</bpm>
<rpm>0.00</rpm>
</extensions>
</trkpt>
<trkpt lat="63.831954956" lon="-19.205249786">
<ele>566.640625</ele>
<time>2012-07-25T19:12:55Z</time>
<speed>1.530000</speed>
<extensions>
<speed>1.5</speed>
<temp>0.00</temp>
<bpm>0</bpm>
<rpm>0.00</rpm>
</extensions>
</trkpt>
<trkpt lat="63.832000732" lon="-19.205308914">
<ele>566.031250</ele>
<time>2012-07-25T19:13:00Z</time>
<speed>1.360000</speed>
<extensions>
<speed>1.4</speed>
<temp>0.00</temp>
<bpm>0</bpm>
<rpm>0.00</rpm>
</extensions>
</trkpt>
<trkpt lat="63.832038879" lon="-19.205343246">
<ele>565.937500</ele>
<time>2012-07-25T19:13:05Z</time>
<speed>0.380000</speed>
<extensions>
<speed>0.4</speed>
<temp>0.00</temp>
<bpm>0</bpm>
<rpm>0.00</rpm>
</extensions>
</trkpt>
<trkpt lat="63.832042694" lon="-19.205333710">
<ele>565.828125</ele>
<time>2012-07-25T19:13:10Z</time>
<speed>0.550000</speed>
<extensions>
<speed>0.6</speed>
<temp>0.00</temp>
<bpm>0</bpm>
<rpm>0.00</rpm>
</extensions>
</trkpt>
<trkpt lat="63.832054138" lon="-19.205318451">
<ele>564.406250</ele>
<time>2012-07-25T19:13:15Z</time>
<speed>0.050000</speed>
<extensions>
<speed>0.1</speed>
<temp>0.00</temp>
<bpm>0</bpm>
<rpm>0.00</rpm>
</extensions>
</trkpt>
<trkpt lat="63.832050323" lon="-19.205301285">
<ele>563.796875</ele>
<time>2012-07-25T19:13:20Z</time>
<speed>0.380000</speed>
<extensions>
<speed>0.4</speed>
<temp>0.00</temp>
<bpm>0</bpm>
<rpm>0.00</rpm>
</extensions>
</trkpt>
<trkpt lat="63.832012177" lon="-19.205274582">
<ele>562.156250</ele>
<time>2012-07-25T19:13:25Z</time>
<speed>1.660000</speed>
<extensions>
<speed>1.7</speed>
<temp>0.00</temp>
<bpm>0</bpm>
<rpm>0.00</rpm>
</extensions>
</trkpt>
<trkpt lat="63.831996918" lon="-19.205244064">
<ele>561.281250</ele>
<time>2012-07-25T19:13:30Z</time>
<speed>0.610000</speed>
<extensions>
<speed>0.6</speed>
<temp>0.00</temp>
<bpm>0</bpm>
<rpm>0.00</rpm>
</extensions>
</trkpt>
<trkpt lat="63.831966400" lon="-19.205324173">
<ele>562.109375</ele>
<time>2012-07-25T19:13:35Z</time>
<speed>1.080000</speed>
<extensions>
<speed>1.1</speed>
<temp>0.00</temp>
<bpm>0</bpm>
<rpm>0.00</rpm>
</extensions>
</trkpt>
<trkpt lat="63.831962585" lon="-19.205450058">
<ele>562.796875</ele>
<time>2012-07-25T19:13:40Z</time>
<speed>0.980000</speed>
<extensions>
<speed>1.0</speed>
<temp>0.00</temp>
<bpm>0</bpm>
<rpm>0.00</rpm>
</extensions>
</trkpt>
<trkpt lat="63.831939697" lon="-19.205547333">
<ele>563.859375</ele>
<time>2012-07-25T19:13:45Z</time>
<speed>1.010000</speed>
<extensions>
<speed>1.0</speed>
<temp>0.00</temp>
<bpm>0</bpm>
<rpm>0.00</rpm>
</extensions>
</trkpt>
<trkpt lat="63.831935883" lon="-19.205663681">
<ele>565.031250</ele>
<time>2012-07-25T19:13:50Z</time>
<speed>0.870000</speed>
<extensions>
<speed>0.9</speed>
<temp>0.00</temp>
<bpm>0</bpm>
<rpm>0.00</rpm>
</extensions>
</trkpt>
<trkpt lat="63.831916809" lon="-19.205808640">
<ele>565.500000</ele>
<time>2012-07-25T19:13:55Z</time>
<speed>1.320000</speed>
<extensions>
<speed>1.3</speed>
<temp>0.00</temp>
<bpm>0</bpm>
<rpm>0.00</rpm>
</extensions>
</trkpt>
<trkpt lat="63.831909180" lon="-19.205917358">
<ele>565.046875</ele>
<time>2012-07-25T19:14:00Z</time>
<speed>1.010000</speed>
<extensions>
<speed>1.0</speed>
<temp>0.00</temp>
<bpm>0</bpm>
<rpm>0.00</rpm>
</extensions>
</trkpt>
<trkpt lat="63.831901550" lon="-19.206060410">
<ele>564.687500</ele>
<time>2012-07-25T19:14:05Z</time>
<speed>1.440000</speed>
<extensions>
<speed>1.4</speed>
<temp>0.00</temp>
<bpm>0</bpm>
<rpm>0.00</rpm>
</extensions>
</trkpt>
<trkpt lat="63.831901550" lon="-19.206199646">
<ele>563.515625</ele>
<time>2012-07-25T19:14:10Z</time>
<speed>0.920000</speed>
<extensions>
<speed>0.9</speed>
<temp>0.00</temp>
<bpm>0</bpm>
<rpm>0.00</rpm>
</extensions>
</trkpt>
<trkpt lat="63.831893921" lon="-19.206176758">
<ele>563.031250</ele>
<time>2012-07-25T19:14:15Z</time>
<speed>0.710000</speed>
<extensions>
<speed>0.7</speed>
<temp>0.00</temp>
<bpm>0</bpm>
<rpm>0.00</rpm>
</extensions>
</trkpt>
<trkpt lat="63.831886292" lon="-19.206064224">
<ele>562.468750</ele>
<time>2012-07-25T19:14:20Z</time>
<speed>1.230000</speed>
<extensions>
<speed>1.2</speed>
<temp>0.00</temp>
<bpm>0</bpm>
<rpm>0.00</rpm>
</extensions>
</trkpt>
<trkpt lat="63.831886292" lon="-19.205886841">
<ele>562.953125</ele>
<time>2012-07-25T19:14:25Z</time>
<speed>1.380000</speed>
<extensions>
<speed>1.4</speed>
<temp>0.00</temp>
<bpm>0</bpm>
<rpm>0.00</rpm>
</extensions>
</trkpt>
<trkpt lat="63.831897736" lon="-19.205768585">
<ele>563.375000</ele>
<time>2012-07-25T19:14:30Z</time>
<speed>0.890000</speed>
<extensions>
<speed>0.9</speed>
<temp>0.00</temp>
<bpm>0</bpm>
<rpm>0.00</rpm>
</extensions>
</trkpt>
<trkpt lat="63.831920624" lon="-19.205656052">
<ele>563.093750</ele>
<time>2012-07-25T19:14:35Z</time>
<speed>1.120000</speed>
<extensions>
<speed>1.1</speed>
<temp>0.00</temp>
<bpm>0</bpm>
<rpm>0.00</rpm>
</extensions>
</trkpt>
<trkpt lat="63.831928253" lon="-19.205614090">
<ele>564.875000</ele>
<time>2012-07-25T19:14:40Z</time>
<speed>0.250000</speed>
<extensions>
<speed>0.2</speed>
<temp>0.00</temp>
<bpm>0</bpm>
<rpm>0.00</rpm>
</extensions>
</trkpt>
<trkpt lat="63.831928253" lon="-19.205623627">
<ele>565.281250</ele>
<time>2012-07-25T19:14:45Z</time>
<speed>0.010000</speed>
<extensions>
<speed>0.0</speed>
<temp>0.00</temp>
<bpm>0</bpm>
<rpm>0.00</rpm>
</extensions>
</trkpt>
<trkpt lat="63.831928253" lon="-19.205606461">
<ele>565.359375</ele>
<time>2012-07-25T19:14:50Z</time>
<speed>0.910000</speed>
<extensions>
<speed>0.9</speed>
<temp>0.00</temp>
<bpm>0</bpm>
<rpm>0.00</rpm>
</extensions>
</trkpt>
<trkpt lat="63.831928253" lon="-19.205495834">
<ele>566.406250</ele>
<time>2012-07-25T19:14:55Z</time>
<speed>0.870000</speed>
<extensions>
<speed>0.9</speed>
<temp>0.00</temp>
<bpm>0</bpm>
<rpm>0.00</rpm>
</extensions>
</trkpt>
<trkpt lat="63.831935883" lon="-19.205381393">
<ele>566.125000</ele>
<time>2012-07-25T19:15:00Z</time>
<speed>0.790000</speed>
<extensions>
<speed>0.8</speed>
<temp>0.00</temp>
<bpm>0</bpm>
<rpm>0.00</rpm>
</extensions>
</trkpt>
<trkpt lat="63.831947327" lon="-19.205284119">
<ele>565.375000</ele>
<time>2012-07-25T19:15:05Z</time>
<speed>1.020000</speed>
<extensions>
<speed>1.0</speed>
<temp>0.00</temp>
<bpm>0</bpm>
<rpm>0.00</rpm>
</extensions>
</trkpt>
<trkpt lat="63.831966400" lon="-19.205280304">
<ele>563.875000</ele>
<time>2012-07-25T19:15:10Z</time>
<speed>0.210000</speed>
<extensions>
<speed>0.2</speed>
<temp>0.00</temp>
<bpm>0</bpm>
<rpm>0.00</rpm>
</extensions>
</trkpt>
<trkpt lat="63.831977844" lon="-19.205286026">
<ele>563.312500</ele>
<time>2012-07-25T19:15:15Z</time>
<speed>0.110000</speed>
<extensions>
<speed>0.1</speed>
<temp>0.00</temp>
<bpm>0</bpm>
<rpm>0.00</rpm>
</extensions>
</trkpt>
<trkpt lat="63.831977844" lon="-19.205280304">
<ele>562.734375</ele>
<time>2012-07-25T19:15:20Z</time>
<speed>0.010000</speed>
<extensions>
<speed>0.0</speed>
<temp>0.00</temp>
<bpm>0</bpm>
<rpm>0.00</rpm>
</extensions>
</trkpt>
<trkpt lat="63.831977844" lon="-19.205278397">
<ele>562.468750</ele>
<time>2012-07-25T19:15:25Z</time>
<speed>0.030000</speed>
<extensions>
<speed>0.0</speed>
<temp>0.00</temp>
<bpm>0</bpm>
<rpm>0.00</rpm>
</extensions>
</trkpt>
<trkpt lat="63.831977844" lon="-19.205276489">
<ele>562.312500</ele>
<time>2012-07-25T19:15:30Z</time>
<speed>0.070000</speed>
<extensions>
<speed>0.1</speed>
<temp>0.00</temp>
<bpm>0</bpm>
<rpm>0.00</rpm>
</extensions>
</trkpt>
<trkpt lat="63.831977844" lon="-19.205276489">
<ele>562.312500</ele>
<time>2012-07-25T19:15:35Z</time>
<speed>0.290000</speed>
<extensions>
<speed>0.3</speed>
<temp>0.00</temp>
<bpm>0</bpm>
<rpm>0.00</rpm>
</extensions>
</trkpt>
<trkpt lat="63.831993103" lon="-19.205293655">
<ele>561.859375</ele>
<time>2012-07-25T19:15:40Z</time>
<speed>0.090000</speed>
<extensions>
<speed>0.1</speed>
<temp>0.00</temp>
<bpm>0</bpm>
<rpm>0.00</rpm>
</extensions>
</trkpt>
<trkpt lat="63.832008362" lon="-19.205303192">
<ele>562.250000</ele>
<time>2012-07-25T19:15:45Z</time>
<speed>0.080000</speed>
<extensions>
<speed>0.1</speed>
<temp>0.00</temp>
<bpm>0</bpm>
<rpm>0.00</rpm>
</extensions>
</trkpt>
<trkpt lat="63.832008362" lon="-19.205310822">
<ele>562.218750</ele>
<time>2012-07-25T19:15:50Z</time>
<speed>0.060000</speed>
<extensions>
<speed>0.1</speed>
<temp>0.00</temp>
<bpm>0</bpm>
<rpm>0.00</rpm>
</extensions>
</trkpt>
<trkpt lat="63.832008362" lon="-19.205333710">
<ele>561.921875</ele>
<time>2012-07-25T19:15:55Z</time>
<speed>0.220000</speed>
<extensions>
<speed>0.2</speed>
<temp>0.00</temp>
<bpm>0</bpm>
<rpm>0.00</rpm>
</extensions>
</trkpt>
<trkpt lat="63.832004547" lon="-19.205327988">
<ele>561.843750</ele>
<time>2012-07-25T19:16:00Z</time>
<speed>0.110000</speed>
<extensions>
<speed>0.1</speed>
<temp>0.00</temp>
<bpm>0</bpm>
<rpm>0.00</rpm>
</extensions>
</trkpt>
<trkpt lat="63.832008362" lon="-19.205318451">
<ele>561.796875</ele>
<time>2012-07-25T19:16:05Z</time>
<speed>0.140000</speed>
<extensions>
<speed>0.1</speed>
<temp>0.00</temp>
<bpm>0</bpm>
<rpm>0.00</rpm>
</extensions>
</trkpt>
<trkpt lat="63.832004547" lon="-19.205308914">
<ele>561.765625</ele>
<time>2012-07-25T19:16:10Z</time>
<speed>0.210000</speed>
<extensions>
<speed>0.2</speed>
<temp>0.00</temp>
<bpm>0</bpm>
<rpm>0.00</rpm>
</extensions>
</trkpt>
<trkpt lat="63.832004547" lon="-19.205291748">
<ele>561.750000</ele>
<time>2012-07-25T19:16:15Z</time>
<speed>0.130000</speed>
<extensions>
<speed>0.1</speed>
<temp>0.00</temp>
<bpm>0</bpm>
<rpm>0.00</rpm>
</extensions>
</trkpt>
<trkpt lat="63.832000732" lon="-19.205280304">
<ele>561.765625</ele>
<time>2012-07-25T19:16:20Z</time>
<speed>0.100000</speed>
<extensions>
<speed>0.1</speed>
<temp>0.00</temp>
<bpm>0</bpm>
<rpm>0.00</rpm>
</extensions>
</trkpt>
<trkpt lat="63.832004547" lon="-19.205280304">
<ele>561.781250</ele>
<time>2012-07-25T19:16:25Z</time>
<speed>0.060000</speed>
<extensions>
<speed>0.1</speed>
<temp>0.00</temp>
<bpm>0</bpm>
<rpm>0.00</rpm>
</extensions>
</trkpt>
<trkpt lat="63.832004547" lon="-19.205282211">
<ele>561.812500</ele>
<time>2012-07-25T19:16:30Z</time>
<speed>0.150000</speed>
<extensions>
<speed>0.2</speed>
<temp>0.00</temp>
<bpm>0</bpm>
<rpm>0.00</rpm>
</extensions>
</trkpt>
<trkpt lat="63.832008362" lon="-19.205287933">
<ele>561.812500</ele>
<time>2012-07-25T19:16:35Z</time>
<speed>0.100000</speed>
<extensions>
<speed>0.1</speed>
<temp>0.00</temp>
<bpm>0</bpm>
<rpm>0.00</rpm>
</extensions>
</trkpt>
<trkpt lat="63.832012177" lon="-19.205295563">
<ele>561.843750</ele>
<time>2012-07-25T19:16:40Z</time>
<speed>0.100000</speed>
<extensions>
<speed>0.1</speed>
<temp>0.00</temp>
<bpm>0</bpm>
<rpm>0.00</rpm>
</extensions>
</trkpt>
<trkpt lat="63.832012177" lon="-19.205299377">
<ele>561.843750</ele>
<time>2012-07-25T19:16:45Z</time>
<speed>0.070000</speed>
<extensions>
<speed>0.1</speed>
<temp>0.00</temp>
<bpm>0</bpm>
<rpm>0.00</rpm>
</extensions>
</trkpt>
<trkpt lat="63.832012177" lon="-19.205299377">
<ele>561.890625</ele>
<time>2012-07-25T19:16:50Z</time>
<speed>0.010000</speed>
<extensions>
<speed>0.0</speed>
<temp>0.00</temp>
<bpm>0</bpm>
<rpm>0.00</rpm>
</extensions>
</trkpt>
<trkpt lat="63.832012177" lon="-19.205299377">
<ele>561.921875</ele>
<time>2012-07-25T19:16:55Z</time>
<speed>0.010000</speed>
<extensions>
<speed>0.0</speed>
<temp>0.00</temp>
<bpm>0</bpm>
<rpm>0.00</rpm>
</extensions>
</trkpt>
<trkpt lat="63.832012177" lon="-19.205299377">
<ele>561.906250</ele>
<time>2012-07-25T19:17:00Z</time>
<extensions>
<speed>0.0</speed>
<temp>0.00</temp>
<bpm>0</bpm>
<rpm>0.00</rpm>
</extensions>
</trkpt>
<trkpt lat="63.832012177" lon="-19.205297470">
<ele>561.921875</ele>
<time>2012-07-25T19:17:05Z</time>
<speed>0.030000</speed>
<extensions>
<speed>0.0</speed>
<temp>0.00</temp>
<bpm>0</bpm>
<rpm>0.00</rpm>
</extensions>
</trkpt>
<trkpt lat="63.832012177" lon="-19.205301285">
<ele>561.937500</ele>
<time>2012-07-25T19:17:10Z</time>
<speed>0.060000</speed>
<extensions>
<speed>0.1</speed>
<temp>0.00</temp>
<bpm>0</bpm>
<rpm>0.00</rpm>
</extensions>
</trkpt>
<trkpt lat="63.832012177" lon="-19.205308914">
<ele>561.968750</ele>
<time>2012-07-25T19:17:15Z</time>
<speed>0.020000</speed>
<extensions>
<speed>0.0</speed>
<temp>0.00</temp>
<bpm>0</bpm>
<rpm>0.00</rpm>
</extensions>
</trkpt>
<trkpt lat="63.832012177" lon="-19.205308914">
<ele>561.984375</ele>
<time>2012-07-25T19:17:20Z</time>
<extensions>
<speed>0.0</speed>
<temp>0.00</temp>
<bpm>0</bpm>
<rpm>0.00</rpm>
</extensions>
</trkpt>
<trkpt lat="63.832012177" lon="-19.205307007">
<ele>562.015625</ele>
<time>2012-07-25T19:17:25Z</time>
<speed>0.010000</speed>
<extensions>
<speed>0.0</speed>
<temp>0.00</temp>
<bpm>0</bpm>
<rpm>0.00</rpm>
</extensions>
</trkpt>
<trkpt lat="63.832012177" lon="-19.205307007">
<ele>562.031250</ele>
<time>2012-07-25T19:17:30Z</time>
<extensions>
<speed>0.0</speed>
<temp>0.00</temp>
<bpm>0</bpm>
<rpm>0.00</rpm>
</extensions>
</trkpt>
<trkpt lat="63.832012177" lon="-19.205308914">
<ele>562.046875</ele>
<time>2012-07-25T19:17:35Z</time>
<speed>0.040000</speed>
<extensions>
<speed>0.0</speed>
<temp>0.00</temp>
<bpm>0</bpm>
<rpm>0.00</rpm>
</extensions>
</trkpt>
<trkpt lat="63.832012177" lon="-19.205308914">
<ele>562.062500</ele>
<time>2012-07-25T19:17:40Z</time>
<extensions>
<speed>0.0</speed>
<temp>0.00</temp>
<bpm>0</bpm>
<rpm>0.00</rpm>
</extensions>
</trkpt>
<trkpt lat="63.832012177" lon="-19.205308914">
<ele>562.062500</ele>
<time>2012-07-25T19:17:45Z</time>
<speed>0.010000</speed>
<extensions>
<speed>0.0</speed>
<temp>0.00</temp>
<bpm>0</bpm>
<rpm>0.00</rpm>
</extensions>
</trkpt>
<trkpt lat="63.832012177" lon="-19.205307007">
<ele>562.093750</ele>
<time>2012-07-25T19:17:50Z</time>
<speed>0.010000</speed>
<extensions>
<speed>0.0</speed>
<temp>0.00</temp>
<bpm>0</bpm>
<rpm>0.00</rpm>
</extensions>
</trkpt>
<trkpt lat="63.832012177" lon="-19.205307007">
<ele>562.109375</ele>
<time>2012-07-25T19:17:55Z</time>
<extensions>
<speed>0.0</speed>
<temp>0.00</temp>
<bpm>0</bpm>
<rpm>0.00</rpm>
</extensions>
</trkpt>
<trkpt lat="63.832012177" lon="-19.205308914">
<ele>562.171875</ele>
<time>2012-07-25T19:18:00Z</time>
<extensions>
<speed>0.0</speed>
<temp>0.00</temp>
<bpm>0</bpm>
<rpm>0.00</rpm>
</extensions>
</trkpt>
<trkpt lat="63.832012177" lon="-19.205308914">
<ele>562.203125</ele>
<time>2012-07-25T19:18:05Z</time>
<speed>0.010000</speed>
<extensions>
<speed>0.0</speed>
<temp>0.00</temp>
<bpm>0</bpm>
<rpm>0.00</rpm>
</extensions>
</trkpt>
<trkpt lat="63.832012177" lon="-19.205307007">
<ele>562.171875</ele>
<time>2012-07-25T19:18:10Z</time>
<speed>0.030000</speed>
<extensions>
<speed>0.0</speed>
<temp>0.00</temp>
<bpm>0</bpm>
<rpm>0.00</rpm>
</extensions>
</trkpt>
<trkpt lat="63.832012177" lon="-19.205308914">
<ele>562.171875</ele>
<time>2012-07-25T19:18:15Z</time>
<speed>0.020000</speed>
<extensions>
<speed>0.0</speed>
<temp>0.00</temp>
<bpm>0</bpm>
<rpm>0.00</rpm>
</extensions>
</trkpt>
<trkpt lat="63.832012177" lon="-19.205307007">
<ele>562.171875</ele>
<time>2012-07-25T19:18:20Z</time>
<extensions>
<speed>0.0</speed>
<temp>0.00</temp>
<bpm>0</bpm>
<rpm>0.00</rpm>
</extensions>
</trkpt>
<trkpt lat="63.832012177" lon="-19.205307007">
<ele>562.156250</ele>
<time>2012-07-25T19:18:25Z</time>
<speed>0.020000</speed>
<extensions>
<speed>0.0</speed>
<temp>0.00</temp>
<bpm>0</bpm>
<rpm>0.00</rpm>
</extensions>
</trkpt>
<trkpt lat="63.832008362" lon="-19.205308914">
<ele>562.156250</ele>
<time>2012-07-25T19:18:30Z</time>
<speed>0.020000</speed>
<extensions>
<speed>0.0</speed>
<temp>0.00</temp>
<bpm>0</bpm>
<rpm>0.00</rpm>
</extensions>
</trkpt>
<trkpt lat="63.832008362" lon="-19.205308914">
<ele>562.140625</ele>
<time>2012-07-25T19:18:35Z</time>
<speed>0.010000</speed>
<extensions>
<speed>0.0</speed>
<temp>0.00</temp>
<bpm>0</bpm>
<rpm>0.00</rpm>
</extensions>
</trkpt>
<trkpt lat="63.832008362" lon="-19.205308914">
<ele>562.156250</ele>
<time>2012-07-25T19:18:40Z</time>
<speed>0.030000</speed>
<extensions>
<speed>0.0</speed>
<temp>0.00</temp>
<bpm>0</bpm>
<rpm>0.00</rpm>
</extensions>
</trkpt>
<trkpt lat="63.832008362" lon="-19.205308914">
<ele>562.125000</ele>
<time>2012-07-25T19:18:45Z</time>
<extensions>
<speed>0.0</speed>
<temp>0.00</temp>
<bpm>0</bpm>
<rpm>0.00</rpm>
</extensions>
</trkpt>
<trkpt lat="63.832008362" lon="-19.205308914">
<ele>562.125000</ele>
<time>2012-07-25T19:18:50Z</time>
<speed>0.010000</speed>
<extensions>
<speed>0.0</speed>
<temp>0.00</temp>
<bpm>0</bpm>
<rpm>0.00</rpm>
</extensions>
</trkpt>
<trkpt lat="63.832008362" lon="-19.205308914">
<ele>562.125000</ele>
<time>2012-07-25T19:18:55Z</time>
<speed>0.020000</speed>
<extensions>
<speed>0.0</speed>
<temp>0.00</temp>
<bpm>0</bpm>
<rpm>0.00</rpm>
</extensions>
</trkpt>
<trkpt lat="63.832008362" lon="-19.205308914">
<ele>562.093750</ele>
<time>2012-07-25T19:19:00Z</time>
<speed>0.030000</speed>
<extensions>
<speed>0.0</speed>
<temp>0.00</temp>
<bpm>0</bpm>
<rpm>0.00</rpm>
</extensions>
</trkpt>
<trkpt lat="63.832008362" lon="-19.205308914">
<ele>562.093750</ele>
<time>2012-07-25T19:19:05Z</time>
<extensions>
<speed>0.0</speed>
<temp>0.00</temp>
<bpm>0</bpm>
<rpm>0.00</rpm>
</extensions>
</trkpt>
<trkpt lat="63.832008362" lon="-19.205308914">
<ele>562.109375</ele>
<time>2012-07-25T19:19:10Z</time>
<extensions>
<speed>0.0</speed>
<temp>0.00</temp>
<bpm>0</bpm>
<rpm>0.00</rpm>
</extensions>
</trkpt>
<trkpt lat="63.832008362" lon="-19.205308914">
<ele>562.125000</ele>
<time>2012-07-25T19:19:15Z</time>
<speed>0.020000</speed>
<extensions>
<speed>0.0</speed>
<temp>0.00</temp>
<bpm>0</bpm>
<rpm>0.00</rpm>
</extensions>
</trkpt>
<trkpt lat="63.832008362" lon="-19.205308914">
<ele>562.125000</ele>
<time>2012-07-25T19:19:20Z</time>
<speed>0.010000</speed>
<extensions>
<speed>0.0</speed>
<temp>0.00</temp>
<bpm>0</bpm>
<rpm>0.00</rpm>
</extensions>
</trkpt>
<trkpt lat="63.832008362" lon="-19.205308914">
<ele>562.109375</ele>
<time>2012-07-25T19:19:25Z</time>
<extensions>
<speed>0.0</speed>
<temp>0.00</temp>
<bpm>0</bpm>
<rpm>0.00</rpm>
</extensions>
</trkpt>
<trkpt lat="63.832008362" lon="-19.205308914">
<ele>562.125000</ele>
<time>2012-07-25T19:19:30Z</time>
<extensions>
<speed>0.0</speed>
<temp>0.00</temp>
<bpm>0</bpm>
<rpm>0.00</rpm>
</extensions>
</trkpt>
<trkpt lat="63.832008362" lon="-19.205308914">
<ele>562.140625</ele>
<time>2012-07-25T19:19:35Z</time>
<extensions>
<speed>0.0</speed>
<temp>0.00</temp>
<bpm>0</bpm>
<rpm>0.00</rpm>
</extensions>
</trkpt>
<trkpt lat="63.832008362" lon="-19.205308914">
<ele>562.125000</ele>
<time>2012-07-25T19:19:40Z</time>
<extensions>
<speed>0.0</speed>
<temp>0.00</temp>
<bpm>0</bpm>
<rpm>0.00</rpm>
</extensions>
</trkpt>
<trkpt lat="63.832008362" lon="-19.205308914">
<ele>562.140625</ele>
<time>2012-07-25T19:19:45Z</time>
<speed>0.010000</speed>
<extensions>
<speed>0.0</speed>
<temp>0.00</temp>
<bpm>0</bpm>
<rpm>0.00</rpm>
</extensions>
</trkpt>
<trkpt lat="63.832008362" lon="-19.205310822">
<ele>562.156250</ele>
<time>2012-07-25T19:19:50Z</time>
<speed>0.020000</speed>
<extensions>
<speed>0.0</speed>
<temp>0.00</temp>
<bpm>0</bpm>
<rpm>0.00</rpm>
</extensions>
</trkpt>
<trkpt lat="63.832008362" lon="-19.205310822">
<ele>562.140625</ele>
<time>2012-07-25T19:19:55Z</time>
<speed>0.010000</speed>
<extensions>
<speed>0.0</speed>
<temp>0.00</temp>
<bpm>0</bpm>
<rpm>0.00</rpm>
</extensions>
</trkpt>
<trkpt lat="63.832008362" lon="-19.205310822">
<ele>562.140625</ele>
<time>2012-07-25T19:20:00Z</time>
<speed>0.010000</speed>
<extensions>
<speed>0.0</speed>
<temp>0.00</temp>
<bpm>0</bpm>
<rpm>0.00</rpm>
</extensions>
</trkpt>
<trkpt lat="63.832008362" lon="-19.205310822">
<ele>562.125000</ele>
<time>2012-07-25T19:20:05Z</time>
<extensions>
<speed>0.0</speed>
<temp>0.00</temp>
<bpm>0</bpm>
<rpm>0.00</rpm>
</extensions>
</trkpt>
<trkpt lat="63.832008362" lon="-19.205310822">
<ele>562.125000</ele>
<time>2012-07-25T19:20:10Z</time>
<speed>0.040000</speed>
<extensions>
<speed>0.0</speed>
<temp>0.00</temp>
<bpm>0</bpm>
<rpm>0.00</rpm>
</extensions>
</trkpt>
<trkpt lat="63.832008362" lon="-19.205310822">
<ele>562.109375</ele>
<time>2012-07-25T19:20:15Z</time>
<extensions>
<speed>0.0</speed>
<temp>0.00</temp>
<bpm>0</bpm>
<rpm>0.00</rpm>
</extensions>
</trkpt>
<trkpt lat="63.832008362" lon="-19.205310822">
<ele>562.093750</ele>
<time>2012-07-25T19:20:20Z</time>
<speed>0.010000</speed>
<extensions>
<speed>0.0</speed>
<temp>0.00</temp>
<bpm>0</bpm>
<rpm>0.00</rpm>
</extensions>
</trkpt>
<trkpt lat="63.832008362" lon="-19.205310822">
<ele>562.078125</ele>
<time>2012-07-25T19:20:25Z</time>
<speed>0.020000</speed>
<extensions>
<speed>0.0</speed>
<temp>0.00</temp>
<bpm>0</bpm>
<rpm>0.00</rpm>
</extensions>
</trkpt>
<trkpt lat="63.832008362" lon="-19.205310822">
<ele>562.078125</ele>
<time>2012-07-25T19:20:30Z</time>
<speed>0.050000</speed>
<extensions>
<speed>0.1</speed>
<temp>0.00</temp>
<bpm>0</bpm>
<rpm>0.00</rpm>
</extensions>
</trkpt>
<trkpt lat="63.832008362" lon="-19.205303192">
<ele>562.046875</ele>
<time>2012-07-25T19:20:35Z</time>
<speed>0.020000</speed>
<extensions>
<speed>0.0</speed>
<temp>0.00</temp>
<bpm>0</bpm>
<rpm>0.00</rpm>
</extensions>
</trkpt>
<trkpt lat="63.832008362" lon="-19.205301285">
<ele>562.031250</ele>
<time>2012-07-25T19:20:40Z</time>
<extensions>
<speed>0.0</speed>
<temp>0.00</temp>
<bpm>0</bpm>
<rpm>0.00</rpm>
</extensions>
</trkpt>
<trkpt lat="63.832008362" lon="-19.205301285">
<ele>562.031250</ele>
<time>2012-07-25T19:20:45Z</time>
<speed>0.090000</speed>
<extensions>
<speed>0.1</speed>
<temp>0.00</temp>
<bpm>0</bpm>
<rpm>0.00</rpm>
</extensions>
</trkpt>
<trkpt lat="63.832008362" lon="-19.205301285">
<ele>562.031250</ele>
<time>2012-07-25T19:20:50Z</time>
<speed>0.010000</speed>
<extensions>
<speed>0.0</speed>
<temp>0.00</temp>
<bpm>0</bpm>
<rpm>0.00</rpm>
</extensions>
</trkpt>
<trkpt lat="63.832008362" lon="-19.205301285">
<ele>562.031250</ele>
<time>2012-07-25T19:20:55Z</time>
<speed>0.020000</speed>
<extensions>
<speed>0.0</speed>
<temp>0.00</temp>
<bpm>0</bpm>
<rpm>0.00</rpm>
</extensions>
</trkpt>
<trkpt lat="63.832008362" lon="-19.205301285">
<ele>562.031250</ele>
<time>2012-07-25T19:21:00Z</time>
<speed>0.190000</speed>
<extensions>
<speed>0.2</speed>
<temp>0.00</temp>
<bpm>0</bpm>
<rpm>0.00</rpm>
</extensions>
</trkpt>
<trkpt lat="63.832000732" lon="-19.205287933">
<ele>561.796875</ele>
<time>2012-07-25T19:21:05Z</time>
<speed>0.170000</speed>
<extensions>
<speed>0.2</speed>
<temp>0.00</temp>
<bpm>0</bpm>
<rpm>0.00</rpm>
</extensions>
</trkpt>
</trkseg>
</trk>
</gpx>